<?xml version='1.0' encoding='UTF-8'?><gpx version="1.1" creator="JPX - https://github.com/jenetics/jpx" xmlns="http://www.topografix.com/GPX/1/1"><trk><trkseg><trkpt lat="42.5583969" lon="12.6565924"><ele>127.0</ele><time>2026-04-26T08:50:10.899Z</time></trkpt><trkpt lat="42.5583905" lon="12.656482"><ele>127.0</ele><time>2026-04-26T08:50:15.906Z</time></trkpt><trkpt lat="42.5583561" lon="12.6564014"><ele>127.0</ele><time>2026-04-26T08:50:39.906Z</time></trkpt><trkpt lat="42.5583167" lon="12.6563252"><ele>127.0</ele><time>2026-04-26T08:50:42.906Z</time></trkpt><trkpt lat="42.5582341" lon="12.656349"><ele>127.0</ele><time>2026-04-26T08:50:47.906Z</time></trkpt><trkpt lat="42.5581804" lon="12.6564139"><ele>127.0</ele><time>2026-04-26T08:50:49.907Z</time></trkpt><trkpt lat="42.558147" lon="12.6564958"><ele>127.0</ele><time>2026-04-26T08:51:11.906Z</time></trkpt><trkpt lat="42.5581294" lon="12.6565883"><ele>127.0</ele><time>2026-04-26T08:51:14.906Z</time></trkpt><trkpt lat="42.558114" lon="12.6566859"><ele>127.0</ele><time>2026-04-26T08:51:17.906Z</time></trkpt><trkpt lat="42.5581088" lon="12.6567752"><ele>127.0</ele><time>2026-04-26T08:51:20.906Z</time></trkpt><trkpt lat="42.5581117" lon="12.6568777"><ele>127.0</ele><time>2026-04-26T08:51:23.906Z</time></trkpt><trkpt lat="42.5581542" lon="12.6569747"><ele>127.0</ele><time>2026-04-26T08:51:31.906Z</time></trkpt><trkpt lat="42.5582218" lon="12.6569399"><ele>127.0</ele><time>2026-04-26T08:51:34.906Z</time></trkpt><trkpt lat="42.5582566" lon="12.6568678"><ele>127.0</ele><time>2026-04-26T08:51:37.906Z</time></trkpt><trkpt lat="42.5583151" lon="12.6568017"><ele>127.0</ele><time>2026-04-26T08:51:42.906Z</time></trkpt><trkpt lat="42.5583705" lon="12.6566601"><ele>126.99999999999999</ele><time>2026-04-26T08:56:27.905Z</time></trkpt><trkpt lat="42.5583933" lon="12.6565102"><ele>126.99999999999999</ele><time>2026-04-26T08:56:29.905Z</time></trkpt><trkpt lat="42.5583723" lon="12.656387"><ele>127.0</ele><time>2026-04-26T08:56:31.906Z</time></trkpt><trkpt lat="42.5583286" lon="12.6563053"><ele>127.0</ele><time>2026-04-26T08:56:33.905Z</time></trkpt><trkpt lat="42.5582435" lon="12.6563201"><ele>127.00000000000001</ele><time>2026-04-26T08:56:36.905Z</time></trkpt><trkpt lat="42.5581822" lon="12.6564428"><ele>127.0</ele><time>2026-04-26T08:56:38.905Z</time></trkpt><trkpt lat="42.5581616" lon="12.6565406"><ele>127.0</ele><time>2026-04-26T08:56:39.905Z</time></trkpt><trkpt lat="42.5581422" lon="12.6566497"><ele>127.0</ele><time>2026-04-26T08:56:40.906Z</time></trkpt><trkpt lat="42.5581307" lon="12.6567476"><ele>127.00000000000001</ele><time>2026-04-26T08:56:41.905Z</time></trkpt><trkpt lat="42.5581364" lon="12.6568413"><ele>127.0</ele><time>2026-04-26T08:56:42.905Z</time></trkpt><trkpt lat="42.5581573" lon="12.6569345"><ele>126.66666666666667</ele><time>2026-04-26T08:56:43.905Z</time></trkpt><trkpt lat="42.5581979" lon="12.6570206"><ele>126.33333333333334</ele><time>2026-04-26T08:56:44.905Z</time></trkpt><trkpt lat="42.5582455" lon="12.6570951"><ele>126.0</ele><time>2026-04-26T08:56:45.905Z</time></trkpt><trkpt lat="42.5583014" lon="12.6571448"><ele>125.66666666666666</ele><time>2026-04-26T08:56:46.905Z</time></trkpt><trkpt lat="42.5584063" lon="12.6571873"><ele>125.33333333333333</ele><time>2026-04-26T08:56:48.906Z</time></trkpt><trkpt lat="42.5584917" lon="12.6571685"><ele>125.0</ele><time>2026-04-26T08:56:50.905Z</time></trkpt><trkpt lat="42.5585693" lon="12.657102"><ele>124.99999999999999</ele><time>2026-04-26T08:56:52.906Z</time></trkpt><trkpt lat="42.5586417" lon="12.6570522"><ele>125.0</ele><time>2026-04-26T08:56:54.905Z</time></trkpt><trkpt lat="42.5587197" lon="12.6570389"><ele>125.0</ele><time>2026-04-26T08:56:58.915Z</time></trkpt><trkpt lat="42.558823" lon="12.6570835"><ele>125.0</ele><time>2026-04-26T08:57:01.915Z</time></trkpt><trkpt lat="42.5589287" lon="12.6571299"><ele>124.99999999999999</ele><time>2026-04-26T08:57:03.915Z</time></trkpt><trkpt lat="42.5589967" lon="12.6571521"><ele>125.0</ele><time>2026-04-26T08:57:04.915Z</time></trkpt><trkpt lat="42.5590634" lon="12.6571791"><ele>125.33333333333333</ele><time>2026-04-26T08:57:05.915Z</time></trkpt><trkpt lat="42.5591411" lon="12.6572018"><ele>125.66666666666666</ele><time>2026-04-26T08:57:06.915Z</time></trkpt><trkpt lat="42.5592205" lon="12.6572257"><ele>126.0</ele><time>2026-04-26T08:57:07.916Z</time></trkpt><trkpt lat="42.5592927" lon="12.6572582"><ele>126.33333333333334</ele><time>2026-04-26T08:57:08.915Z</time></trkpt><trkpt lat="42.559356" lon="12.657279"><ele>126.66666666666667</ele><time>2026-04-26T08:57:09.915Z</time></trkpt><trkpt lat="42.5594683" lon="12.657309"><ele>127.0</ele><time>2026-04-26T08:57:11.915Z</time></trkpt><trkpt lat="42.5595874" lon="12.6573323"><ele>127.0</ele><time>2026-04-26T08:57:13.916Z</time></trkpt><trkpt lat="42.5596986" lon="12.6573629"><ele>126.99999999999999</ele><time>2026-04-26T08:57:15.915Z</time></trkpt><trkpt lat="42.5598088" lon="12.6573892"><ele>126.99999999999999</ele><time>2026-04-26T08:57:17.914Z</time></trkpt><trkpt lat="42.559935" lon="12.6574228"><ele>127.0</ele><time>2026-04-26T08:57:19.914Z</time></trkpt><trkpt lat="42.5600097" lon="12.657447"><ele>127.0</ele><time>2026-04-26T08:57:20.914Z</time></trkpt><trkpt lat="42.5600802" lon="12.6574691"><ele>127.0</ele><time>2026-04-26T08:57:21.915Z</time></trkpt><trkpt lat="42.56016" lon="12.6574969"><ele>126.99999999999999</ele><time>2026-04-26T08:57:22.914Z</time></trkpt><trkpt lat="42.5602599" lon="12.6575297"><ele>126.99999999999999</ele><time>2026-04-26T08:57:23.914Z</time></trkpt><trkpt lat="42.5603859" lon="12.6575646"><ele>127.0</ele><time>2026-04-26T08:57:24.915Z</time></trkpt><trkpt lat="42.5605091" lon="12.6576022"><ele>127.0</ele><time>2026-04-26T08:57:25.914Z</time></trkpt><trkpt lat="42.5606238" lon="12.6576377"><ele>127.0</ele><time>2026-04-26T08:57:26.914Z</time></trkpt><trkpt lat="42.5607283" lon="12.657676"><ele>126.99999999999999</ele><time>2026-04-26T08:57:27.914Z</time></trkpt><trkpt lat="42.5608325" lon="12.6577081"><ele>126.99999999999999</ele><time>2026-04-26T08:57:28.914Z</time></trkpt><trkpt lat="42.5609298" lon="12.6577377"><ele>127.0</ele><time>2026-04-26T08:57:29.914Z</time></trkpt><trkpt lat="42.56103" lon="12.6577701"><ele>127.0</ele><time>2026-04-26T08:57:30.914Z</time></trkpt><trkpt lat="42.5611347" lon="12.6578082"><ele>128.0</ele><time>2026-04-26T08:57:31.914Z</time></trkpt><trkpt lat="42.5612399" lon="12.6578484"><ele>129.0</ele><time>2026-04-26T08:57:32.915Z</time></trkpt><trkpt lat="42.5613451" lon="12.6578892"><ele>130.0</ele><time>2026-04-26T08:57:33.914Z</time></trkpt><trkpt lat="42.5614556" lon="12.6579279"><ele>131.0</ele><time>2026-04-26T08:57:34.915Z</time></trkpt><trkpt lat="42.561571" lon="12.6579636"><ele>131.0</ele><time>2026-04-26T08:57:35.914Z</time></trkpt><trkpt lat="42.5616809" lon="12.6580061"><ele>131.0</ele><time>2026-04-26T08:57:36.914Z</time></trkpt><trkpt lat="42.5617933" lon="12.6580466"><ele>131.0</ele><time>2026-04-26T08:57:37.914Z</time></trkpt><trkpt lat="42.5618933" lon="12.658082"><ele>131.0</ele><time>2026-04-26T08:57:38.914Z</time></trkpt><trkpt lat="42.561987" lon="12.6581101"><ele>131.0</ele><time>2026-04-26T08:57:39.914Z</time></trkpt><trkpt lat="42.5620722" lon="12.6581385"><ele>131.0</ele><time>2026-04-26T08:57:40.914Z</time></trkpt><trkpt lat="42.5621475" lon="12.6581652"><ele>131.0</ele><time>2026-04-26T08:57:41.915Z</time></trkpt><trkpt lat="42.5622176" lon="12.6581935"><ele>131.0</ele><time>2026-04-26T08:57:42.914Z</time></trkpt><trkpt lat="42.5622844" lon="12.6582167"><ele>131.0</ele><time>2026-04-26T08:57:43.914Z</time></trkpt><trkpt lat="42.5623491" lon="12.6582394"><ele>131.0</ele><time>2026-04-26T08:57:44.915Z</time></trkpt><trkpt lat="42.5624186" lon="12.6582635"><ele>131.0</ele><time>2026-04-26T08:57:45.915Z</time></trkpt><trkpt lat="42.5624809" lon="12.6582815"><ele>131.0</ele><time>2026-04-26T08:57:46.915Z</time></trkpt><trkpt lat="42.5625906" lon="12.6583272"><ele>131.0</ele><time>2026-04-26T08:57:48.914Z</time></trkpt><trkpt lat="42.5626978" lon="12.6583695"><ele>131.0</ele><time>2026-04-26T08:57:50.914Z</time></trkpt><trkpt lat="42.5628025" lon="12.6584137"><ele>131.0</ele><time>2026-04-26T08:57:52.914Z</time></trkpt><trkpt lat="42.5629139" lon="12.6584597"><ele>131.0</ele><time>2026-04-26T08:57:54.914Z</time></trkpt><trkpt lat="42.5630357" lon="12.6585109"><ele>131.0</ele><time>2026-04-26T08:57:56.914Z</time></trkpt><trkpt lat="42.5630972" lon="12.6585388"><ele>131.0</ele><time>2026-04-26T08:57:57.915Z</time></trkpt><trkpt lat="42.5632108" lon="12.658593"><ele>131.0</ele><time>2026-04-26T08:57:59.914Z</time></trkpt><trkpt lat="42.5633124" lon="12.6586392"><ele>131.0</ele><time>2026-04-26T08:58:01.914Z</time></trkpt><trkpt lat="42.5634111" lon="12.6586775"><ele>131.0</ele><time>2026-04-26T08:58:03.914Z</time></trkpt><trkpt lat="42.5634968" lon="12.6587154"><ele>131.0</ele><time>2026-04-26T08:58:05.914Z</time></trkpt><trkpt lat="42.5635592" lon="12.6587441"><ele>131.0</ele><time>2026-04-26T08:58:08.914Z</time></trkpt><trkpt lat="42.5636443" lon="12.6587673"><ele>131.0</ele><time>2026-04-26T08:58:53.914Z</time></trkpt><trkpt lat="42.5637439" lon="12.6588394"><ele>131.0</ele><time>2026-04-26T08:59:05.914Z</time></trkpt><trkpt lat="42.5638133" lon="12.6588634"><ele>131.0</ele><time>2026-04-26T08:59:06.915Z</time></trkpt><trkpt lat="42.563877" lon="12.6588921"><ele>131.0</ele><time>2026-04-26T08:59:07.914Z</time></trkpt><trkpt lat="42.5639714" lon="12.6589221"><ele>131.16666666666666</ele><time>2026-04-26T08:59:09.914Z</time></trkpt><trkpt lat="42.5640564" lon="12.6589484"><ele>131.33333333333331</ele><time>2026-04-26T08:59:15.914Z</time></trkpt><trkpt lat="42.564119" lon="12.6589719"><ele>131.5</ele><time>2026-04-26T08:59:16.915Z</time></trkpt><trkpt lat="42.5641894" lon="12.6590082"><ele>131.66666666666666</ele><time>2026-04-26T08:59:17.915Z</time></trkpt><trkpt lat="42.5642588" lon="12.6590391"><ele>131.83333333333334</ele><time>2026-04-26T08:59:18.914Z</time></trkpt><trkpt lat="42.5643467" lon="12.6590729"><ele>132.0</ele><time>2026-04-26T08:59:19.914Z</time></trkpt><trkpt lat="42.5644391" lon="12.6591091"><ele>132.5</ele><time>2026-04-26T08:59:20.915Z</time></trkpt><trkpt lat="42.564544" lon="12.6591511"><ele>133.0</ele><time>2026-04-26T08:59:21.914Z</time></trkpt><trkpt lat="42.5646527" lon="12.6591656"><ele>133.5</ele><time>2026-04-26T08:59:22.914Z</time></trkpt><trkpt lat="42.5647882" lon="12.6591419"><ele>134.0</ele><time>2026-04-26T08:59:23.914Z</time></trkpt><trkpt lat="42.5649346" lon="12.6591027"><ele>134.0</ele><time>2026-04-26T08:59:24.914Z</time></trkpt><trkpt lat="42.5650757" lon="12.6590745"><ele>134.0</ele><time>2026-04-26T08:59:25.914Z</time></trkpt><trkpt lat="42.5652215" lon="12.6590424"><ele>134.0</ele><time>2026-04-26T08:59:26.915Z</time></trkpt><trkpt lat="42.565367" lon="12.6590148"><ele>134.0</ele><time>2026-04-26T08:59:27.914Z</time></trkpt><trkpt lat="42.5655204" lon="12.6589945"><ele>134.25</ele><time>2026-04-26T08:59:28.914Z</time></trkpt><trkpt lat="42.5656551" lon="12.6589863"><ele>134.5</ele><time>2026-04-26T08:59:29.914Z</time></trkpt><trkpt lat="42.5657703" lon="12.6590022"><ele>134.75</ele><time>2026-04-26T08:59:30.914Z</time></trkpt><trkpt lat="42.5658822" lon="12.6590346"><ele>135.0</ele><time>2026-04-26T08:59:31.914Z</time></trkpt><trkpt lat="42.5659946" lon="12.659092"><ele>135.0</ele><time>2026-04-26T08:59:32.914Z</time></trkpt><trkpt lat="42.5661233" lon="12.6591721"><ele>135.0</ele><time>2026-04-26T08:59:33.914Z</time></trkpt><trkpt lat="42.5662697" lon="12.6592718"><ele>135.0</ele><time>2026-04-26T08:59:34.914Z</time></trkpt><trkpt lat="42.5664212" lon="12.6593806"><ele>134.25</ele><time>2026-04-26T08:59:35.914Z</time></trkpt><trkpt lat="42.5665564" lon="12.6594795"><ele>133.5</ele><time>2026-04-26T08:59:36.914Z</time></trkpt><trkpt lat="42.5666779" lon="12.6595719"><ele>132.75</ele><time>2026-04-26T08:59:37.914Z</time></trkpt><trkpt lat="42.5667756" lon="12.6596804"><ele>132.0</ele><time>2026-04-26T08:59:38.914Z</time></trkpt><trkpt lat="42.5668457" lon="12.6598291"><ele>132.0</ele><time>2026-04-26T08:59:39.914Z</time></trkpt><trkpt lat="42.5668886" lon="12.6599963"><ele>132.0</ele><time>2026-04-26T08:59:40.914Z</time></trkpt><trkpt lat="42.5669006" lon="12.6601811"><ele>132.0</ele><time>2026-04-26T08:59:41.915Z</time></trkpt><trkpt lat="42.5668896" lon="12.6603779"><ele>132.0</ele><time>2026-04-26T08:59:42.915Z</time></trkpt><trkpt lat="42.5668827" lon="12.6605824"><ele>131.75</ele><time>2026-04-26T08:59:43.914Z</time></trkpt><trkpt lat="42.5668755" lon="12.6607763"><ele>131.5</ele><time>2026-04-26T08:59:44.914Z</time></trkpt><trkpt lat="42.5668725" lon="12.6609556"><ele>131.25</ele><time>2026-04-26T08:59:45.914Z</time></trkpt><trkpt lat="42.5668699" lon="12.6611221"><ele>131.0</ele><time>2026-04-26T08:59:46.915Z</time></trkpt><trkpt lat="42.5668689" lon="12.6612975"><ele>131.5</ele><time>2026-04-26T08:59:47.915Z</time></trkpt><trkpt lat="42.5668619" lon="12.6614754"><ele>132.0</ele><time>2026-04-26T08:59:48.914Z</time></trkpt><trkpt lat="42.5668563" lon="12.6616538"><ele>132.5</ele><time>2026-04-26T08:59:49.914Z</time></trkpt><trkpt lat="42.566847" lon="12.6618165"><ele>133.0</ele><time>2026-04-26T08:59:50.915Z</time></trkpt><trkpt lat="42.5668456" lon="12.661958"><ele>133.0</ele><time>2026-04-26T08:59:51.914Z</time></trkpt><trkpt lat="42.5668613" lon="12.6620788"><ele>133.0</ele><time>2026-04-26T08:59:52.914Z</time></trkpt><trkpt lat="42.5668796" lon="12.6621785"><ele>133.0</ele><time>2026-04-26T08:59:53.914Z</time></trkpt><trkpt lat="42.5669004" lon="12.6622739"><ele>133.0</ele><time>2026-04-26T08:59:54.915Z</time></trkpt><trkpt lat="42.5669304" lon="12.6623788"><ele>133.0</ele><time>2026-04-26T08:59:56.914Z</time></trkpt><trkpt lat="42.5669649" lon="12.6624552"><ele>133.0</ele><time>2026-04-26T09:00:05.914Z</time></trkpt><trkpt lat="42.5670372" lon="12.6625006"><ele>132.66666666666669</ele><time>2026-04-26T09:00:08.915Z</time></trkpt><trkpt lat="42.5671324" lon="12.6624418"><ele>132.33333333333334</ele><time>2026-04-26T09:00:10.915Z</time></trkpt><trkpt lat="42.5671947" lon="12.6624012"><ele>132.0</ele><time>2026-04-26T09:00:11.914Z</time></trkpt><trkpt lat="42.5672655" lon="12.6623519"><ele>131.66666666666666</ele><time>2026-04-26T09:00:12.914Z</time></trkpt><trkpt lat="42.5673443" lon="12.6622963"><ele>131.33333333333331</ele><time>2026-04-26T09:00:13.915Z</time></trkpt><trkpt lat="42.5674309" lon="12.6622375"><ele>131.0</ele><time>2026-04-26T09:00:14.914Z</time></trkpt><trkpt lat="42.5675121" lon="12.6621899"><ele>131.0</ele><time>2026-04-26T09:00:15.914Z</time></trkpt><trkpt lat="42.5675789" lon="12.662149"><ele>131.0</ele><time>2026-04-26T09:00:16.914Z</time></trkpt><trkpt lat="42.5676397" lon="12.6621203"><ele>131.0</ele><time>2026-04-26T09:00:17.914Z</time></trkpt><trkpt lat="42.567752" lon="12.6620658"><ele>131.0</ele><time>2026-04-26T09:00:19.915Z</time></trkpt><trkpt lat="42.567809" lon="12.6620282"><ele>131.0</ele><time>2026-04-26T09:00:20.914Z</time></trkpt><trkpt lat="42.5678681" lon="12.6619912"><ele>131.0</ele><time>2026-04-26T09:00:21.914Z</time></trkpt><trkpt lat="42.5679825" lon="12.6619171"><ele>131.14285714285714</ele><time>2026-04-26T09:00:23.914Z</time></trkpt><trkpt lat="42.5680446" lon="12.6618798"><ele>131.2857142857143</ele><time>2026-04-26T09:00:24.914Z</time></trkpt><trkpt lat="42.568107" lon="12.6618421"><ele>131.42857142857144</ele><time>2026-04-26T09:00:25.914Z</time></trkpt><trkpt lat="42.5681692" lon="12.6618034"><ele>131.57142857142858</ele><time>2026-04-26T09:00:26.915Z</time></trkpt><trkpt lat="42.5682289" lon="12.661775"><ele>131.71428571428572</ele><time>2026-04-26T09:00:27.914Z</time></trkpt><trkpt lat="42.5683176" lon="12.6617342"><ele>131.85714285714286</ele><time>2026-04-26T09:00:29.914Z</time></trkpt><trkpt lat="42.568395" lon="12.6617263"><ele>132.0</ele><time>2026-04-26T09:00:31.914Z</time></trkpt><trkpt lat="42.5684592" lon="12.6617468"><ele>132.0</ele><time>2026-04-26T09:00:36.915Z</time></trkpt><trkpt lat="42.5685237" lon="12.6618595"><ele>132.0</ele><time>2026-04-26T09:00:39.915Z</time></trkpt><trkpt lat="42.5685751" lon="12.6619546"><ele>132.0</ele><time>2026-04-26T09:00:41.915Z</time></trkpt><trkpt lat="42.568628" lon="12.6620836"><ele>132.0</ele><time>2026-04-26T09:00:43.914Z</time></trkpt><trkpt lat="42.5686602" lon="12.662181"><ele>132.0</ele><time>2026-04-26T09:00:45.914Z</time></trkpt><trkpt lat="42.5686887" lon="12.6622621"><ele>132.0</ele><time>2026-04-26T09:00:47.914Z</time></trkpt><trkpt lat="42.5687284" lon="12.6623749"><ele>132.4</ele><time>2026-04-26T09:00:49.914Z</time></trkpt><trkpt lat="42.5687864" lon="12.6625537"><ele>132.79999999999998</ele><time>2026-04-26T09:00:51.914Z</time></trkpt><trkpt lat="42.5688285" lon="12.6626792"><ele>133.2</ele><time>2026-04-26T09:00:52.914Z</time></trkpt><trkpt lat="42.568863" lon="12.6627929"><ele>133.6</ele><time>2026-04-26T09:00:53.915Z</time></trkpt><trkpt lat="42.5688961" lon="12.6628951"><ele>134.0</ele><time>2026-04-26T09:00:54.914Z</time></trkpt><trkpt lat="42.5689261" lon="12.6629845"><ele>134.2</ele><time>2026-04-26T09:00:55.914Z</time></trkpt><trkpt lat="42.5689523" lon="12.6630647"><ele>134.4</ele><time>2026-04-26T09:00:56.914Z</time></trkpt><trkpt lat="42.5689724" lon="12.663149"><ele>134.6</ele><time>2026-04-26T09:00:57.915Z</time></trkpt><trkpt lat="42.5690257" lon="12.6632886"><ele>134.8</ele><time>2026-04-26T09:00:59.914Z</time></trkpt><trkpt lat="42.5690738" lon="12.6634207"><ele>135.0</ele><time>2026-04-26T09:01:01.915Z</time></trkpt><trkpt lat="42.5691238" lon="12.663563"><ele>135.0</ele><time>2026-04-26T09:01:03.914Z</time></trkpt><trkpt lat="42.569149" lon="12.6636421"><ele>135.0</ele><time>2026-04-26T09:01:04.914Z</time></trkpt><trkpt lat="42.5691994" lon="12.6637878"><ele>135.0</ele><time>2026-04-26T09:01:06.914Z</time></trkpt><trkpt lat="42.5692547" lon="12.6639304"><ele>135.0</ele><time>2026-04-26T09:01:08.914Z</time></trkpt><trkpt lat="42.5692834" lon="12.6640187"><ele>135.0</ele><time>2026-04-26T09:01:09.914Z</time></trkpt><trkpt lat="42.5693113" lon="12.6640956"><ele>135.0</ele><time>2026-04-26T09:01:10.914Z</time></trkpt><trkpt lat="42.5693645" lon="12.6642416"><ele>135.0</ele><time>2026-04-26T09:01:12.915Z</time></trkpt><trkpt lat="42.5694117" lon="12.6643879"><ele>135.0</ele><time>2026-04-26T09:01:14.914Z</time></trkpt><trkpt lat="42.5694554" lon="12.6645172"><ele>135.0</ele><time>2026-04-26T09:01:16.914Z</time></trkpt><trkpt lat="42.5695007" lon="12.6646587"><ele>135.0</ele><time>2026-04-26T09:01:18.914Z</time></trkpt><trkpt lat="42.5695528" lon="12.6648018"><ele>135.2</ele><time>2026-04-26T09:01:20.914Z</time></trkpt><trkpt lat="42.569597" lon="12.664932"><ele>135.4</ele><time>2026-04-26T09:01:22.915Z</time></trkpt><trkpt lat="42.5696452" lon="12.6650774"><ele>135.6</ele><time>2026-04-26T09:01:24.914Z</time></trkpt><trkpt lat="42.5696854" lon="12.6652081"><ele>135.8</ele><time>2026-04-26T09:01:26.914Z</time></trkpt><trkpt lat="42.5697277" lon="12.6653395"><ele>136.0</ele><time>2026-04-26T09:01:28.914Z</time></trkpt><trkpt lat="42.569757" lon="12.6654237"><ele>135.99999999999997</ele><time>2026-04-26T09:01:29.914Z</time></trkpt><trkpt lat="42.5697927" lon="12.6655177"><ele>136.0</ele><time>2026-04-26T09:01:30.915Z</time></trkpt><trkpt lat="42.5698201" lon="12.6655948"><ele>136.0</ele><time>2026-04-26T09:01:31.915Z</time></trkpt><trkpt lat="42.5698534" lon="12.6656868"><ele>136.0</ele><time>2026-04-26T09:01:32.914Z</time></trkpt><trkpt lat="42.5698877" lon="12.6657832"><ele>136.0</ele><time>2026-04-26T09:01:33.914Z</time></trkpt><trkpt lat="42.5699199" lon="12.6658699"><ele>135.99999999999997</ele><time>2026-04-26T09:01:34.915Z</time></trkpt><trkpt lat="42.5699562" lon="12.665964"><ele>136.0</ele><time>2026-04-26T09:01:35.914Z</time></trkpt><trkpt lat="42.569994" lon="12.6660614"><ele>136.6</ele><time>2026-04-26T09:01:36.915Z</time></trkpt><trkpt lat="42.5700268" lon="12.6661497"><ele>137.2</ele><time>2026-04-26T09:01:37.914Z</time></trkpt><trkpt lat="42.570054" lon="12.6662287"><ele>137.8</ele><time>2026-04-26T09:01:38.914Z</time></trkpt><trkpt lat="42.5701097" lon="12.6663768"><ele>138.4</ele><time>2026-04-26T09:01:40.914Z</time></trkpt><trkpt lat="42.5701664" lon="12.6665141"><ele>139.0</ele><time>2026-04-26T09:01:42.914Z</time></trkpt><trkpt lat="42.5702268" lon="12.6666482"><ele>139.0</ele><time>2026-04-26T09:01:44.915Z</time></trkpt><trkpt lat="42.5703106" lon="12.6667664"><ele>139.0</ele><time>2026-04-26T09:01:46.915Z</time></trkpt><trkpt lat="42.5703585" lon="12.666826"><ele>139.0</ele><time>2026-04-26T09:01:47.914Z</time></trkpt><trkpt lat="42.5704244" lon="12.6668893"><ele>139.0</ele><time>2026-04-26T09:01:48.914Z</time></trkpt><trkpt lat="42.5704913" lon="12.6669581"><ele>139.0</ele><time>2026-04-26T09:01:49.914Z</time></trkpt><trkpt lat="42.57057" lon="12.6670329"><ele>139.0</ele><time>2026-04-26T09:01:50.914Z</time></trkpt><trkpt lat="42.5706493" lon="12.6671224"><ele>139.75</ele><time>2026-04-26T09:01:51.914Z</time></trkpt><trkpt lat="42.5707387" lon="12.667221"><ele>140.5</ele><time>2026-04-26T09:01:52.915Z</time></trkpt><trkpt lat="42.5708331" lon="12.6673256"><ele>141.25</ele><time>2026-04-26T09:01:53.915Z</time></trkpt><trkpt lat="42.5709349" lon="12.667432"><ele>142.0</ele><time>2026-04-26T09:01:54.915Z</time></trkpt><trkpt lat="42.5710307" lon="12.6675347"><ele>142.0</ele><time>2026-04-26T09:01:55.914Z</time></trkpt><trkpt lat="42.5711401" lon="12.6676413"><ele>142.0</ele><time>2026-04-26T09:01:56.914Z</time></trkpt><trkpt lat="42.5712415" lon="12.6677474"><ele>142.0</ele><time>2026-04-26T09:01:57.914Z</time></trkpt><trkpt lat="42.5713304" lon="12.6678305"><ele>142.0</ele><time>2026-04-26T09:01:58.914Z</time></trkpt><trkpt lat="42.5714257" lon="12.6679123"><ele>142.0</ele><time>2026-04-26T09:01:59.914Z</time></trkpt><trkpt lat="42.5715199" lon="12.6679988"><ele>142.0</ele><time>2026-04-26T09:02:00.915Z</time></trkpt><trkpt lat="42.57162" lon="12.6680973"><ele>142.0</ele><time>2026-04-26T09:02:01.915Z</time></trkpt><trkpt lat="42.5717171" lon="12.668202"><ele>142.0</ele><time>2026-04-26T09:02:02.914Z</time></trkpt><trkpt lat="42.5717919" lon="12.6682967"><ele>142.0</ele><time>2026-04-26T09:02:03.914Z</time></trkpt><trkpt lat="42.5718831" lon="12.6683734"><ele>142.0</ele><time>2026-04-26T09:02:04.914Z</time></trkpt><trkpt lat="42.5719732" lon="12.6684629"><ele>142.0</ele><time>2026-04-26T09:02:05.914Z</time></trkpt><trkpt lat="42.5720545" lon="12.6685584"><ele>142.0</ele><time>2026-04-26T09:02:06.914Z</time></trkpt><trkpt lat="42.5721376" lon="12.6686537"><ele>142.0</ele><time>2026-04-26T09:02:07.914Z</time></trkpt><trkpt lat="42.5721935" lon="12.6687624"><ele>142.4</ele><time>2026-04-26T09:02:08.914Z</time></trkpt><trkpt lat="42.5722722" lon="12.6688474"><ele>142.79999999999998</ele><time>2026-04-26T09:02:09.914Z</time></trkpt><trkpt lat="42.5723503" lon="12.6689303"><ele>143.2</ele><time>2026-04-26T09:02:10.914Z</time></trkpt><trkpt lat="42.572434" lon="12.6690286"><ele>143.6</ele><time>2026-04-26T09:02:11.914Z</time></trkpt><trkpt lat="42.5725019" lon="12.6691189"><ele>144.0</ele><time>2026-04-26T09:02:12.914Z</time></trkpt><trkpt lat="42.572575" lon="12.669231"><ele>144.0</ele><time>2026-04-26T09:02:13.915Z</time></trkpt><trkpt lat="42.5726591" lon="12.6693331"><ele>144.0</ele><time>2026-04-26T09:02:14.914Z</time></trkpt><trkpt lat="42.5727557" lon="12.669434"><ele>144.0</ele><time>2026-04-26T09:02:15.914Z</time></trkpt><trkpt lat="42.5728589" lon="12.6695406"><ele>144.0</ele><time>2026-04-26T09:02:16.914Z</time></trkpt><trkpt lat="42.5729579" lon="12.6696341"><ele>144.75</ele><time>2026-04-26T09:02:17.914Z</time></trkpt><trkpt lat="42.5730657" lon="12.6697242"><ele>145.5</ele><time>2026-04-26T09:02:18.914Z</time></trkpt><trkpt lat="42.5731508" lon="12.6698087"><ele>146.25</ele><time>2026-04-26T09:02:19.914Z</time></trkpt><trkpt lat="42.5732376" lon="12.6698879"><ele>147.0</ele><time>2026-04-26T09:02:20.914Z</time></trkpt><trkpt lat="42.5733503" lon="12.6699787"><ele>147.0</ele><time>2026-04-26T09:02:21.914Z</time></trkpt><trkpt lat="42.5734452" lon="12.6700757"><ele>147.0</ele><time>2026-04-26T09:02:22.915Z</time></trkpt><trkpt lat="42.5735428" lon="12.6701676"><ele>147.0</ele><time>2026-04-26T09:02:23.914Z</time></trkpt><trkpt lat="42.5736288" lon="12.6702567"><ele>147.0</ele><time>2026-04-26T09:02:24.914Z</time></trkpt><trkpt lat="42.5737185" lon="12.6703489"><ele>147.75</ele><time>2026-04-26T09:02:25.914Z</time></trkpt><trkpt lat="42.5738073" lon="12.6704455"><ele>148.5</ele><time>2026-04-26T09:02:26.914Z</time></trkpt><trkpt lat="42.573898" lon="12.6705406"><ele>149.25</ele><time>2026-04-26T09:02:27.914Z</time></trkpt><trkpt lat="42.5739885" lon="12.6706375"><ele>150.0</ele><time>2026-04-26T09:02:28.914Z</time></trkpt><trkpt lat="42.5740801" lon="12.6707422"><ele>150.0</ele><time>2026-04-26T09:02:29.915Z</time></trkpt><trkpt lat="42.5741771" lon="12.6708442"><ele>150.0</ele><time>2026-04-26T09:02:30.914Z</time></trkpt><trkpt lat="42.5742752" lon="12.6709436"><ele>150.0</ele><time>2026-04-26T09:02:31.914Z</time></trkpt><trkpt lat="42.5743716" lon="12.6710325"><ele>150.0</ele><time>2026-04-26T09:02:32.914Z</time></trkpt><trkpt lat="42.5744701" lon="12.6711318"><ele>150.0</ele><time>2026-04-26T09:02:33.915Z</time></trkpt><trkpt lat="42.5745501" lon="12.671212"><ele>150.0</ele><time>2026-04-26T09:02:34.914Z</time></trkpt><trkpt lat="42.5746466" lon="12.6713083"><ele>150.0</ele><time>2026-04-26T09:02:35.915Z</time></trkpt><trkpt lat="42.5747367" lon="12.671404"><ele>150.0</ele><time>2026-04-26T09:02:36.914Z</time></trkpt><trkpt lat="42.5748219" lon="12.6714906"><ele>150.0</ele><time>2026-04-26T09:02:37.913Z</time></trkpt><trkpt lat="42.5749077" lon="12.6715799"><ele>150.0</ele><time>2026-04-26T09:02:38.913Z</time></trkpt><trkpt lat="42.5749896" lon="12.6716732"><ele>150.0</ele><time>2026-04-26T09:02:39.914Z</time></trkpt><trkpt lat="42.5750739" lon="12.671768"><ele>150.0</ele><time>2026-04-26T09:02:40.913Z</time></trkpt><trkpt lat="42.5751671" lon="12.671862"><ele>150.0</ele><time>2026-04-26T09:02:41.913Z</time></trkpt><trkpt lat="42.5752633" lon="12.6719637"><ele>150.25</ele><time>2026-04-26T09:02:42.913Z</time></trkpt><trkpt lat="42.5753591" lon="12.6720692"><ele>150.5</ele><time>2026-04-26T09:02:43.914Z</time></trkpt><trkpt lat="42.5754601" lon="12.6721678"><ele>150.75</ele><time>2026-04-26T09:02:44.913Z</time></trkpt><trkpt lat="42.5755596" lon="12.6722684"><ele>151.0</ele><time>2026-04-26T09:02:45.913Z</time></trkpt><trkpt lat="42.5756542" lon="12.6723748"><ele>151.0</ele><time>2026-04-26T09:02:46.914Z</time></trkpt><trkpt lat="42.5757465" lon="12.6724791"><ele>151.0</ele><time>2026-04-26T09:02:47.913Z</time></trkpt><trkpt lat="42.5758425" lon="12.6725743"><ele>151.0</ele><time>2026-04-26T09:02:48.914Z</time></trkpt><trkpt lat="42.5759326" lon="12.6726742"><ele>151.0</ele><time>2026-04-26T09:02:49.913Z</time></trkpt><trkpt lat="42.5760181" lon="12.6727757"><ele>150.75</ele><time>2026-04-26T09:02:50.913Z</time></trkpt><trkpt lat="42.5761054" lon="12.6728794"><ele>150.5</ele><time>2026-04-26T09:02:51.914Z</time></trkpt><trkpt lat="42.5762021" lon="12.6729894"><ele>150.25</ele><time>2026-04-26T09:02:52.913Z</time></trkpt><trkpt lat="42.5763029" lon="12.673107"><ele>150.0</ele><time>2026-04-26T09:02:53.913Z</time></trkpt><trkpt lat="42.5764017" lon="12.6732313"><ele>150.5</ele><time>2026-04-26T09:02:54.913Z</time></trkpt><trkpt lat="42.5764952" lon="12.6733677"><ele>151.0</ele><time>2026-04-26T09:02:55.913Z</time></trkpt><trkpt lat="42.5765792" lon="12.6735195"><ele>151.5</ele><time>2026-04-26T09:02:56.913Z</time></trkpt><trkpt lat="42.5766542" lon="12.6736808"><ele>152.0</ele><time>2026-04-26T09:02:57.913Z</time></trkpt><trkpt lat="42.5767242" lon="12.6738312"><ele>152.2</ele><time>2026-04-26T09:02:58.913Z</time></trkpt><trkpt lat="42.5767844" lon="12.6739744"><ele>152.39999999999998</ele><time>2026-04-26T09:02:59.913Z</time></trkpt><trkpt lat="42.5768467" lon="12.6740999"><ele>152.60000000000002</ele><time>2026-04-26T09:03:00.913Z</time></trkpt><trkpt lat="42.5769013" lon="12.6742229"><ele>152.8</ele><time>2026-04-26T09:03:01.913Z</time></trkpt><trkpt lat="42.5769496" lon="12.6743433"><ele>153.0</ele><time>2026-04-26T09:03:02.913Z</time></trkpt><trkpt lat="42.5769939" lon="12.67445"><ele>153.20000000000002</ele><time>2026-04-26T09:03:03.914Z</time></trkpt><trkpt lat="42.5770826" lon="12.6745785"><ele>153.4</ele><time>2026-04-26T09:03:05.913Z</time></trkpt><trkpt lat="42.5771295" lon="12.6746735"><ele>153.60000000000002</ele><time>2026-04-26T09:03:06.913Z</time></trkpt><trkpt lat="42.5771729" lon="12.6747685"><ele>153.8</ele><time>2026-04-26T09:03:07.914Z</time></trkpt><trkpt lat="42.5772206" lon="12.674867"><ele>154.0</ele><time>2026-04-26T09:03:08.913Z</time></trkpt><trkpt lat="42.5772701" lon="12.6749776"><ele>154.0</ele><time>2026-04-26T09:03:09.913Z</time></trkpt><trkpt lat="42.577322" lon="12.6750974"><ele>154.0</ele><time>2026-04-26T09:03:10.913Z</time></trkpt><trkpt lat="42.5773879" lon="12.6752304"><ele>154.0</ele><time>2026-04-26T09:03:11.913Z</time></trkpt><trkpt lat="42.5774548" lon="12.6753739"><ele>154.0</ele><time>2026-04-26T09:03:12.914Z</time></trkpt><trkpt lat="42.5775201" lon="12.6755267"><ele>154.0</ele><time>2026-04-26T09:03:13.914Z</time></trkpt><trkpt lat="42.5775784" lon="12.6756906"><ele>154.0</ele><time>2026-04-26T09:03:14.913Z</time></trkpt><trkpt lat="42.5776303" lon="12.6758388"><ele>154.0</ele><time>2026-04-26T09:03:15.913Z</time></trkpt><trkpt lat="42.5777042" lon="12.67601"><ele>154.0</ele><time>2026-04-26T09:03:16.913Z</time></trkpt><trkpt lat="42.5777778" lon="12.6761842"><ele>153.66666666666669</ele><time>2026-04-26T09:03:17.914Z</time></trkpt><trkpt lat="42.5778534" lon="12.6763595"><ele>153.33333333333334</ele><time>2026-04-26T09:03:18.913Z</time></trkpt><trkpt lat="42.5779264" lon="12.6765372"><ele>153.0</ele><time>2026-04-26T09:03:19.914Z</time></trkpt><trkpt lat="42.5780064" lon="12.6767176"><ele>153.0</ele><time>2026-04-26T09:03:20.914Z</time></trkpt><trkpt lat="42.5780941" lon="12.6769015"><ele>153.0</ele><time>2026-04-26T09:03:21.913Z</time></trkpt><trkpt lat="42.5781784" lon="12.6770841"><ele>153.0</ele><time>2026-04-26T09:03:22.913Z</time></trkpt><trkpt lat="42.5782623" lon="12.6772705"><ele>153.66666666666666</ele><time>2026-04-26T09:03:23.913Z</time></trkpt><trkpt lat="42.5783423" lon="12.6774647"><ele>154.33333333333331</ele><time>2026-04-26T09:03:24.914Z</time></trkpt><trkpt lat="42.5784373" lon="12.6776747"><ele>155.0</ele><time>2026-04-26T09:03:25.913Z</time></trkpt><trkpt lat="42.578528" lon="12.6778817"><ele>157.66666666666666</ele><time>2026-04-26T09:03:26.913Z</time></trkpt><trkpt lat="42.5786197" lon="12.6780833"><ele>160.33333333333334</ele><time>2026-04-26T09:03:27.913Z</time></trkpt><trkpt lat="42.5787174" lon="12.6782896"><ele>163.0</ele><time>2026-04-26T09:03:28.913Z</time></trkpt><trkpt lat="42.5788084" lon="12.6785094"><ele>164.33333333333334</ele><time>2026-04-26T09:03:29.913Z</time></trkpt><trkpt lat="42.5789026" lon="12.6787332"><ele>165.66666666666666</ele><time>2026-04-26T09:03:30.914Z</time></trkpt><trkpt lat="42.5789913" lon="12.6789427"><ele>167.0</ele><time>2026-04-26T09:03:31.914Z</time></trkpt><trkpt lat="42.5790869" lon="12.6791445"><ele>167.0</ele><time>2026-04-26T09:03:32.913Z</time></trkpt><trkpt lat="42.5791723" lon="12.6793387"><ele>167.0</ele><time>2026-04-26T09:03:33.913Z</time></trkpt><trkpt lat="42.5792554" lon="12.6795244"><ele>167.0</ele><time>2026-04-26T09:03:34.913Z</time></trkpt><trkpt lat="42.5793209" lon="12.6796992"><ele>166.75</ele><time>2026-04-26T09:03:35.92Z</time></trkpt><trkpt lat="42.5793639" lon="12.6798871"><ele>166.5</ele><time>2026-04-26T09:03:36.92Z</time></trkpt><trkpt lat="42.5793786" lon="12.6800511"><ele>166.25</ele><time>2026-04-26T09:03:37.92Z</time></trkpt><trkpt lat="42.5793658" lon="12.6801906"><ele>166.0</ele><time>2026-04-26T09:03:38.92Z</time></trkpt><trkpt lat="42.5793339" lon="12.6803072"><ele>166.0</ele><time>2026-04-26T09:03:39.92Z</time></trkpt><trkpt lat="42.579303" lon="12.6804096"><ele>166.0</ele><time>2026-04-26T09:03:40.92Z</time></trkpt><trkpt lat="42.5792545" lon="12.6804858"><ele>166.0</ele><time>2026-04-26T09:03:41.92Z</time></trkpt><trkpt lat="42.5792004" lon="12.6805553"><ele>166.0</ele><time>2026-04-26T09:03:42.921Z</time></trkpt><trkpt lat="42.5791518" lon="12.6806347"><ele>166.0</ele><time>2026-04-26T09:03:43.92Z</time></trkpt><trkpt lat="42.5791384" lon="12.6807279"><ele>166.0</ele><time>2026-04-26T09:03:44.921Z</time></trkpt><trkpt lat="42.5791439" lon="12.680822"><ele>166.0</ele><time>2026-04-26T09:03:45.921Z</time></trkpt><trkpt lat="42.5791875" lon="12.6809035"><ele>166.0</ele><time>2026-04-26T09:03:46.92Z</time></trkpt><trkpt lat="42.5792557" lon="12.6809588"><ele>166.0</ele><time>2026-04-26T09:03:47.92Z</time></trkpt><trkpt lat="42.5793433" lon="12.6809784"><ele>166.0</ele><time>2026-04-26T09:03:48.92Z</time></trkpt><trkpt lat="42.5794329" lon="12.6809891"><ele>166.0</ele><time>2026-04-26T09:03:49.92Z</time></trkpt><trkpt lat="42.5795561" lon="12.6810124"><ele>166.0</ele><time>2026-04-26T09:03:50.92Z</time></trkpt><trkpt lat="42.5797032" lon="12.6810699"><ele>167.33333333333334</ele><time>2026-04-26T09:03:51.92Z</time></trkpt><trkpt lat="42.5798487" lon="12.6811519"><ele>168.66666666666666</ele><time>2026-04-26T09:03:52.92Z</time></trkpt><trkpt lat="42.5799928" lon="12.6812556"><ele>170.0</ele><time>2026-04-26T09:03:53.92Z</time></trkpt><trkpt lat="42.5801237" lon="12.6813808"><ele>170.0</ele><time>2026-04-26T09:03:54.921Z</time></trkpt><trkpt lat="42.5802504" lon="12.6815274"><ele>170.0</ele><time>2026-04-26T09:03:55.92Z</time></trkpt><trkpt lat="42.5803616" lon="12.6817067"><ele>170.0</ele><time>2026-04-26T09:03:56.92Z</time></trkpt><trkpt lat="42.5804567" lon="12.6819005"><ele>173.33333333333331</ele><time>2026-04-26T09:03:57.921Z</time></trkpt><trkpt lat="42.5805354" lon="12.6821161"><ele>176.66666666666666</ele><time>2026-04-26T09:03:58.92Z</time></trkpt><trkpt lat="42.5805867" lon="12.6823432"><ele>180.0</ele><time>2026-04-26T09:03:59.92Z</time></trkpt><trkpt lat="42.5806149" lon="12.6825775"><ele>180.66666666666666</ele><time>2026-04-26T09:04:00.92Z</time></trkpt><trkpt lat="42.5806271" lon="12.6828176"><ele>181.33333333333331</ele><time>2026-04-26T09:04:01.92Z</time></trkpt><trkpt lat="42.5806159" lon="12.68305"><ele>182.0</ele><time>2026-04-26T09:04:02.92Z</time></trkpt><trkpt lat="42.5805885" lon="12.68326"><ele>182.0</ele><time>2026-04-26T09:04:03.921Z</time></trkpt><trkpt lat="42.5805514" lon="12.6834618"><ele>182.0</ele><time>2026-04-26T09:04:04.92Z</time></trkpt><trkpt lat="42.5805105" lon="12.6836584"><ele>182.0</ele><time>2026-04-26T09:04:05.92Z</time></trkpt><trkpt lat="42.580467" lon="12.6838611"><ele>184.0</ele><time>2026-04-26T09:04:06.92Z</time></trkpt><trkpt lat="42.5804155" lon="12.6840726"><ele>186.0</ele><time>2026-04-26T09:04:07.92Z</time></trkpt><trkpt lat="42.5803638" lon="12.6842961"><ele>188.0</ele><time>2026-04-26T09:04:08.921Z</time></trkpt><trkpt lat="42.5803128" lon="12.6845326"><ele>188.66666666666666</ele><time>2026-04-26T09:04:09.92Z</time></trkpt><trkpt lat="42.5802663" lon="12.6847874"><ele>189.33333333333334</ele><time>2026-04-26T09:04:10.921Z</time></trkpt><trkpt lat="42.5802211" lon="12.6850599"><ele>190.0</ele><time>2026-04-26T09:04:11.92Z</time></trkpt><trkpt lat="42.5801797" lon="12.685339"><ele>192.0</ele><time>2026-04-26T09:04:12.921Z</time></trkpt><trkpt lat="42.5801382" lon="12.6856233"><ele>194.0</ele><time>2026-04-26T09:04:13.92Z</time></trkpt><trkpt lat="42.5801024" lon="12.6859106"><ele>196.0</ele><time>2026-04-26T09:04:14.921Z</time></trkpt><trkpt lat="42.5800601" lon="12.6862029"><ele>196.0</ele><time>2026-04-26T09:04:15.92Z</time></trkpt><trkpt lat="42.5800288" lon="12.6865077"><ele>196.0</ele><time>2026-04-26T09:04:16.921Z</time></trkpt><trkpt lat="42.5800086" lon="12.6868129"><ele>195.5</ele><time>2026-04-26T09:04:17.92Z</time></trkpt><trkpt lat="42.579996" lon="12.687116"><ele>195.0</ele><time>2026-04-26T09:04:18.92Z</time></trkpt><trkpt lat="42.5799939" lon="12.6874319"><ele>195.0</ele><time>2026-04-26T09:04:19.921Z</time></trkpt><trkpt lat="42.5799876" lon="12.6877381"><ele>195.0</ele><time>2026-04-26T09:04:20.92Z</time></trkpt><trkpt lat="42.5799962" lon="12.6880496"><ele>194.5</ele><time>2026-04-26T09:04:21.921Z</time></trkpt><trkpt lat="42.5800068" lon="12.6883571"><ele>194.0</ele><time>2026-04-26T09:04:22.92Z</time></trkpt><trkpt lat="42.5800274" lon="12.6886687"><ele>194.0</ele><time>2026-04-26T09:04:23.92Z</time></trkpt><trkpt lat="42.5800607" lon="12.6889868"><ele>194.0</ele><time>2026-04-26T09:04:24.92Z</time></trkpt><trkpt lat="42.5801036" lon="12.6893019"><ele>193.0</ele><time>2026-04-26T09:04:25.92Z</time></trkpt><trkpt lat="42.5801499" lon="12.6896118"><ele>192.0</ele><time>2026-04-26T09:04:26.92Z</time></trkpt><trkpt lat="42.580206" lon="12.6899184"><ele>192.0</ele><time>2026-04-26T09:04:27.92Z</time></trkpt><trkpt lat="42.5802683" lon="12.6902222"><ele>192.0</ele><time>2026-04-26T09:04:28.92Z</time></trkpt><trkpt lat="42.5803383" lon="12.6905177"><ele>194.0</ele><time>2026-04-26T09:04:29.92Z</time></trkpt><trkpt lat="42.580408" lon="12.6908093"><ele>196.0</ele><time>2026-04-26T09:04:30.92Z</time></trkpt><trkpt lat="42.5804894" lon="12.6910956"><ele>196.0</ele><time>2026-04-26T09:04:31.92Z</time></trkpt><trkpt lat="42.5805704" lon="12.6913713"><ele>196.0</ele><time>2026-04-26T09:04:32.92Z</time></trkpt><trkpt lat="42.5806592" lon="12.6916266"><ele>196.0</ele><time>2026-04-26T09:04:33.92Z</time></trkpt><trkpt lat="42.580752" lon="12.6918791"><ele>194.66666666666666</ele><time>2026-04-26T09:04:34.92Z</time></trkpt><trkpt lat="42.5808525" lon="12.6921294"><ele>193.33333333333331</ele><time>2026-04-26T09:04:35.92Z</time></trkpt><trkpt lat="42.5809651" lon="12.6923837"><ele>192.0</ele><time>2026-04-26T09:04:36.921Z</time></trkpt><trkpt lat="42.5810815" lon="12.692643"><ele>197.0</ele><time>2026-04-26T09:04:37.92Z</time></trkpt><trkpt lat="42.5812019" lon="12.6929112"><ele>202.0</ele><time>2026-04-26T09:04:38.921Z</time></trkpt><trkpt lat="42.581319" lon="12.6931922"><ele>202.0</ele><time>2026-04-26T09:04:39.921Z</time></trkpt><trkpt lat="42.5814399" lon="12.6934721"><ele>202.0</ele><time>2026-04-26T09:04:40.92Z</time></trkpt><trkpt lat="42.5815594" lon="12.6937519"><ele>200.0</ele><time>2026-04-26T09:04:41.92Z</time></trkpt><trkpt lat="42.5816843" lon="12.6940247"><ele>198.0</ele><time>2026-04-26T09:04:42.92Z</time></trkpt><trkpt lat="42.5818135" lon="12.6943036"><ele>196.5</ele><time>2026-04-26T09:04:43.92Z</time></trkpt><trkpt lat="42.5819452" lon="12.694585"><ele>195.0</ele><time>2026-04-26T09:04:44.92Z</time></trkpt><trkpt lat="42.582083" lon="12.6948825"><ele>199.0</ele><time>2026-04-26T09:04:45.92Z</time></trkpt><trkpt lat="42.582228" lon="12.6951866"><ele>203.0</ele><time>2026-04-26T09:04:46.92Z</time></trkpt><trkpt lat="42.5823713" lon="12.6955055"><ele>203.0</ele><time>2026-04-26T09:04:47.92Z</time></trkpt><trkpt lat="42.582505" lon="12.6958321"><ele>203.0</ele><time>2026-04-26T09:04:48.92Z</time></trkpt><trkpt lat="42.5826412" lon="12.6961603"><ele>200.0</ele><time>2026-04-26T09:04:49.921Z</time></trkpt><trkpt lat="42.5827729" lon="12.6964858"><ele>197.0</ele><time>2026-04-26T09:04:50.92Z</time></trkpt><trkpt lat="42.5829051" lon="12.6968032"><ele>202.0</ele><time>2026-04-26T09:04:51.921Z</time></trkpt><trkpt lat="42.5830317" lon="12.6971014"><ele>207.0</ele><time>2026-04-26T09:04:52.921Z</time></trkpt><trkpt lat="42.5831668" lon="12.6973892"><ele>207.0</ele><time>2026-04-26T09:04:53.921Z</time></trkpt><trkpt lat="42.5832841" lon="12.6976597"><ele>207.0</ele><time>2026-04-26T09:04:54.92Z</time></trkpt><trkpt lat="42.583395" lon="12.6979065"><ele>207.0</ele><time>2026-04-26T09:04:55.921Z</time></trkpt><trkpt lat="42.5835078" lon="12.698136"><ele>208.66666666666669</ele><time>2026-04-26T09:04:56.92Z</time></trkpt><trkpt lat="42.5836088" lon="12.6983383"><ele>210.33333333333334</ele><time>2026-04-26T09:04:57.92Z</time></trkpt><trkpt lat="42.5837063" lon="12.6985303"><ele>212.0</ele><time>2026-04-26T09:04:58.92Z</time></trkpt><trkpt lat="42.5837919" lon="12.6987048"><ele>212.0</ele><time>2026-04-26T09:04:59.921Z</time></trkpt><trkpt lat="42.583874" lon="12.6988762"><ele>212.0</ele><time>2026-04-26T09:05:00.921Z</time></trkpt><trkpt lat="42.5839351" lon="12.6990674"><ele>212.0</ele><time>2026-04-26T09:05:01.921Z</time></trkpt><trkpt lat="42.5839792" lon="12.6992601"><ele>210.5</ele><time>2026-04-26T09:05:02.92Z</time></trkpt><trkpt lat="42.5840025" lon="12.6994452"><ele>209.0</ele><time>2026-04-26T09:05:03.92Z</time></trkpt><trkpt lat="42.5840125" lon="12.6996234"><ele>207.5</ele><time>2026-04-26T09:05:04.92Z</time></trkpt><trkpt lat="42.5840091" lon="12.6997723"><ele>206.0</ele><time>2026-04-26T09:05:05.92Z</time></trkpt><trkpt lat="42.5839979" lon="12.6999058"><ele>206.0</ele><time>2026-04-26T09:05:06.92Z</time></trkpt><trkpt lat="42.5840016" lon="12.7000146"><ele>206.0</ele><time>2026-04-26T09:05:07.92Z</time></trkpt><trkpt lat="42.5840304" lon="12.7001205"><ele>206.0</ele><time>2026-04-26T09:05:08.92Z</time></trkpt><trkpt lat="42.5840929" lon="12.7002139"><ele>206.0</ele><time>2026-04-26T09:05:09.921Z</time></trkpt><trkpt lat="42.5841925" lon="12.7002826"><ele>206.0</ele><time>2026-04-26T09:05:10.92Z</time></trkpt><trkpt lat="42.5842952" lon="12.7003528"><ele>205.0</ele><time>2026-04-26T09:05:11.92Z</time></trkpt><trkpt lat="42.5843768" lon="12.7004919"><ele>204.0</ele><time>2026-04-26T09:05:12.92Z</time></trkpt><trkpt lat="42.5844748" lon="12.7006646"><ele>203.0</ele><time>2026-04-26T09:05:13.92Z</time></trkpt><trkpt lat="42.5845711" lon="12.7008724"><ele>210.0</ele><time>2026-04-26T09:05:14.92Z</time></trkpt><trkpt lat="42.5846549" lon="12.7010949"><ele>217.0</ele><time>2026-04-26T09:05:15.919Z</time></trkpt><trkpt lat="42.5847336" lon="12.7013242"><ele>224.0</ele><time>2026-04-26T09:05:16.919Z</time></trkpt><trkpt lat="42.5848135" lon="12.7015546"><ele>224.0</ele><time>2026-04-26T09:05:17.919Z</time></trkpt><trkpt lat="42.5848962" lon="12.7017854"><ele>224.0</ele><time>2026-04-26T09:05:18.919Z</time></trkpt><trkpt lat="42.5849788" lon="12.70202"><ele>224.0</ele><time>2026-04-26T09:05:19.92Z</time></trkpt><trkpt lat="42.5850589" lon="12.7022656"><ele>221.33333333333334</ele><time>2026-04-26T09:05:20.919Z</time></trkpt><trkpt lat="42.5851311" lon="12.7024984"><ele>218.66666666666669</ele><time>2026-04-26T09:05:21.92Z</time></trkpt><trkpt lat="42.5852014" lon="12.7027409"><ele>216.0</ele><time>2026-04-26T09:05:22.919Z</time></trkpt><trkpt lat="42.5852783" lon="12.7029701"><ele>223.33333333333331</ele><time>2026-04-26T09:05:23.919Z</time></trkpt><trkpt lat="42.585352" lon="12.703169"><ele>230.66666666666666</ele><time>2026-04-26T09:05:24.919Z</time></trkpt><trkpt lat="42.5854503" lon="12.7033496"><ele>238.0</ele><time>2026-04-26T09:05:25.92Z</time></trkpt><trkpt lat="42.5855612" lon="12.7035104"><ele>232.33333333333331</ele><time>2026-04-26T09:05:26.92Z</time></trkpt><trkpt lat="42.5856774" lon="12.7036485"><ele>226.66666666666669</ele><time>2026-04-26T09:05:27.919Z</time></trkpt><trkpt lat="42.5858054" lon="12.7037785"><ele>221.0</ele><time>2026-04-26T09:05:28.92Z</time></trkpt><trkpt lat="42.5859438" lon="12.7038984"><ele>221.0</ele><time>2026-04-26T09:05:29.919Z</time></trkpt><trkpt lat="42.5860879" lon="12.7040146"><ele>221.0</ele><time>2026-04-26T09:05:30.919Z</time></trkpt><trkpt lat="42.5862146" lon="12.7041571"><ele>221.0</ele><time>2026-04-26T09:05:31.919Z</time></trkpt><trkpt lat="42.5863122" lon="12.7043342"><ele>223.66666666666669</ele><time>2026-04-26T09:05:32.919Z</time></trkpt><trkpt lat="42.5864088" lon="12.7045167"><ele>226.33333333333331</ele><time>2026-04-26T09:05:33.919Z</time></trkpt><trkpt lat="42.5865064" lon="12.7046924"><ele>229.0</ele><time>2026-04-26T09:05:34.919Z</time></trkpt><trkpt lat="42.5866235" lon="12.7048502"><ele>229.0</ele><time>2026-04-26T09:05:35.92Z</time></trkpt><trkpt lat="42.586764" lon="12.7049955"><ele>229.0</ele><time>2026-04-26T09:05:36.919Z</time></trkpt><trkpt lat="42.5869074" lon="12.7051351"><ele>229.0</ele><time>2026-04-26T09:05:37.919Z</time></trkpt><trkpt lat="42.5870397" lon="12.7052847"><ele>229.33333333333331</ele><time>2026-04-26T09:05:38.92Z</time></trkpt><trkpt lat="42.587158" lon="12.7054531"><ele>229.66666666666669</ele><time>2026-04-26T09:05:39.92Z</time></trkpt><trkpt lat="42.5872625" lon="12.7056508"><ele>230.0</ele><time>2026-04-26T09:05:40.919Z</time></trkpt><trkpt lat="42.5873711" lon="12.7058474"><ele>230.0</ele><time>2026-04-26T09:05:41.92Z</time></trkpt><trkpt lat="42.587478" lon="12.70603"><ele>230.0</ele><time>2026-04-26T09:05:42.92Z</time></trkpt><trkpt lat="42.5875891" lon="12.7062045"><ele>230.0</ele><time>2026-04-26T09:05:43.919Z</time></trkpt><trkpt lat="42.5876939" lon="12.7063728"><ele>232.0</ele><time>2026-04-26T09:05:44.92Z</time></trkpt><trkpt lat="42.5877946" lon="12.7065319"><ele>234.0</ele><time>2026-04-26T09:05:45.919Z</time></trkpt><trkpt lat="42.587912" lon="12.706689"><ele>236.0</ele><time>2026-04-26T09:05:46.919Z</time></trkpt><trkpt lat="42.588056" lon="12.7068244"><ele>231.33333333333334</ele><time>2026-04-26T09:05:47.92Z</time></trkpt><trkpt lat="42.5882263" lon="12.7069298"><ele>226.66666666666669</ele><time>2026-04-26T09:05:48.919Z</time></trkpt><trkpt lat="42.5884301" lon="12.7070109"><ele>222.0</ele><time>2026-04-26T09:05:49.919Z</time></trkpt><trkpt lat="42.5886607" lon="12.7071147"><ele>227.5</ele><time>2026-04-26T09:05:50.92Z</time></trkpt><trkpt lat="42.588913" lon="12.7072699"><ele>233.0</ele><time>2026-04-26T09:05:51.919Z</time></trkpt><trkpt lat="42.5891719" lon="12.7074613"><ele>233.0</ele><time>2026-04-26T09:05:52.919Z</time></trkpt><trkpt lat="42.5894239" lon="12.7076364"><ele>233.0</ele><time>2026-04-26T09:05:53.919Z</time></trkpt><trkpt lat="42.5896309" lon="12.7077819"><ele>234.0</ele><time>2026-04-26T09:05:54.919Z</time></trkpt><trkpt lat="42.5898067" lon="12.7079631"><ele>235.0</ele><time>2026-04-26T09:05:55.919Z</time></trkpt><trkpt lat="42.5899663" lon="12.7081739"><ele>236.0</ele><time>2026-04-26T09:05:56.92Z</time></trkpt><trkpt lat="42.5901307" lon="12.7083983"><ele>235.5</ele><time>2026-04-26T09:05:57.92Z</time></trkpt><trkpt lat="42.5903195" lon="12.7086114"><ele>235.0</ele><time>2026-04-26T09:05:58.92Z</time></trkpt><trkpt lat="42.5905307" lon="12.7087986"><ele>235.0</ele><time>2026-04-26T09:05:59.919Z</time></trkpt><trkpt lat="42.5907395" lon="12.7089458"><ele>235.0</ele><time>2026-04-26T09:06:00.919Z</time></trkpt><trkpt lat="42.5909438" lon="12.7090385"><ele>235.0</ele><time>2026-04-26T09:06:01.919Z</time></trkpt><trkpt lat="42.5911459" lon="12.709135"><ele>235.0</ele><time>2026-04-26T09:06:02.92Z</time></trkpt><trkpt lat="42.59134" lon="12.7092379"><ele>235.0</ele><time>2026-04-26T09:06:03.92Z</time></trkpt><trkpt lat="42.591531" lon="12.7093836"><ele>234.33333333333331</ele><time>2026-04-26T09:06:04.92Z</time></trkpt><trkpt lat="42.5917002" lon="12.7095865"><ele>233.66666666666669</ele><time>2026-04-26T09:06:05.92Z</time></trkpt><trkpt lat="42.5918477" lon="12.7098119"><ele>233.0</ele><time>2026-04-26T09:06:06.92Z</time></trkpt><trkpt lat="42.5919886" lon="12.7100219"><ele>236.0</ele><time>2026-04-26T09:06:07.919Z</time></trkpt><trkpt lat="42.5921322" lon="12.7102026"><ele>239.0</ele><time>2026-04-26T09:06:08.919Z</time></trkpt><trkpt lat="42.5922978" lon="12.7103744"><ele>242.0</ele><time>2026-04-26T09:06:09.92Z</time></trkpt><trkpt lat="42.592494" lon="12.7105174"><ele>242.0</ele><time>2026-04-26T09:06:10.919Z</time></trkpt><trkpt lat="42.5927319" lon="12.7105968"><ele>242.0</ele><time>2026-04-26T09:06:11.92Z</time></trkpt><trkpt lat="42.5929414" lon="12.7106868"><ele>243.33333333333334</ele><time>2026-04-26T09:06:12.919Z</time></trkpt><trkpt lat="42.5931342" lon="12.7107989"><ele>244.66666666666669</ele><time>2026-04-26T09:06:13.919Z</time></trkpt><trkpt lat="42.5933113" lon="12.7109453"><ele>246.0</ele><time>2026-04-26T09:06:14.919Z</time></trkpt><trkpt lat="42.5934695" lon="12.7110947"><ele>246.0</ele><time>2026-04-26T09:06:15.92Z</time></trkpt><trkpt lat="42.5936158" lon="12.7112327"><ele>246.0</ele><time>2026-04-26T09:06:16.919Z</time></trkpt><trkpt lat="42.5937566" lon="12.7113609"><ele>246.0</ele><time>2026-04-26T09:06:17.919Z</time></trkpt><trkpt lat="42.5938979" lon="12.7114967"><ele>247.0</ele><time>2026-04-26T09:06:18.92Z</time></trkpt><trkpt lat="42.5940431" lon="12.7116226"><ele>248.0</ele><time>2026-04-26T09:06:19.919Z</time></trkpt><trkpt lat="42.5942032" lon="12.711722"><ele>249.0</ele><time>2026-04-26T09:06:20.919Z</time></trkpt><trkpt lat="42.5943857" lon="12.7117825"><ele>250.33333333333331</ele><time>2026-04-26T09:06:21.92Z</time></trkpt><trkpt lat="42.5945844" lon="12.7117923"><ele>251.66666666666666</ele><time>2026-04-26T09:06:22.919Z</time></trkpt><trkpt lat="42.5947693" lon="12.7117686"><ele>253.0</ele><time>2026-04-26T09:06:23.919Z</time></trkpt><trkpt lat="42.5949418" lon="12.7117239"><ele>253.0</ele><time>2026-04-26T09:06:24.919Z</time></trkpt><trkpt lat="42.5950978" lon="12.7116626"><ele>253.0</ele><time>2026-04-26T09:06:25.919Z</time></trkpt><trkpt lat="42.5952509" lon="12.711599"><ele>253.0</ele><time>2026-04-26T09:06:26.919Z</time></trkpt><trkpt lat="42.5953918" lon="12.7115523"><ele>253.5</ele><time>2026-04-26T09:06:27.919Z</time></trkpt><trkpt lat="42.5955312" lon="12.7115059"><ele>254.0</ele><time>2026-04-26T09:06:28.919Z</time></trkpt><trkpt lat="42.5956664" lon="12.711481"><ele>254.5</ele><time>2026-04-26T09:06:29.919Z</time></trkpt><trkpt lat="42.5958087" lon="12.7114765"><ele>255.0</ele><time>2026-04-26T09:06:30.919Z</time></trkpt><trkpt lat="42.5959535" lon="12.7115056"><ele>255.0</ele><time>2026-04-26T09:06:31.919Z</time></trkpt><trkpt lat="42.5960892" lon="12.7115722"><ele>255.0</ele><time>2026-04-26T09:06:32.919Z</time></trkpt><trkpt lat="42.5962206" lon="12.7116704"><ele>255.0</ele><time>2026-04-26T09:06:33.919Z</time></trkpt><trkpt lat="42.5963415" lon="12.7118012"><ele>255.0</ele><time>2026-04-26T09:06:34.919Z</time></trkpt><trkpt lat="42.5964684" lon="12.7119693"><ele>253.0</ele><time>2026-04-26T09:06:35.919Z</time></trkpt><trkpt lat="42.596599" lon="12.7121457"><ele>251.0</ele><time>2026-04-26T09:06:36.919Z</time></trkpt><trkpt lat="42.5967433" lon="12.7123125"><ele>249.0</ele><time>2026-04-26T09:06:37.919Z</time></trkpt><trkpt lat="42.5968978" lon="12.7124595"><ele>254.33333333333331</ele><time>2026-04-26T09:06:38.919Z</time></trkpt><trkpt lat="42.5970543" lon="12.7125611"><ele>259.66666666666663</ele><time>2026-04-26T09:06:39.919Z</time></trkpt><trkpt lat="42.597208" lon="12.7126372"><ele>265.0</ele><time>2026-04-26T09:06:40.919Z</time></trkpt><trkpt lat="42.5973675" lon="12.7126723"><ele>265.0</ele><time>2026-04-26T09:06:41.919Z</time></trkpt><trkpt lat="42.5975262" lon="12.7126726"><ele>265.0</ele><time>2026-04-26T09:06:42.919Z</time></trkpt><trkpt lat="42.5976839" lon="12.7126567"><ele>265.0</ele><time>2026-04-26T09:06:43.919Z</time></trkpt><trkpt lat="42.5978288" lon="12.7126595"><ele>264.5</ele><time>2026-04-26T09:06:44.919Z</time></trkpt><trkpt lat="42.5979662" lon="12.7126891"><ele>264.0</ele><time>2026-04-26T09:06:45.92Z</time></trkpt><trkpt lat="42.5980925" lon="12.7127327"><ele>263.5</ele><time>2026-04-26T09:06:46.919Z</time></trkpt><trkpt lat="42.5982047" lon="12.7127822"><ele>263.0</ele><time>2026-04-26T09:06:47.919Z</time></trkpt><trkpt lat="42.5983154" lon="12.7128355"><ele>263.0</ele><time>2026-04-26T09:06:48.92Z</time></trkpt><trkpt lat="42.5984128" lon="12.7129241"><ele>263.0</ele><time>2026-04-26T09:06:49.919Z</time></trkpt><trkpt lat="42.5984935" lon="12.7130581"><ele>263.0</ele><time>2026-04-26T09:06:50.92Z</time></trkpt><trkpt lat="42.5985512" lon="12.7132279"><ele>263.0</ele><time>2026-04-26T09:06:51.92Z</time></trkpt><trkpt lat="42.5985682" lon="12.7134083"><ele>263.75</ele><time>2026-04-26T09:06:52.919Z</time></trkpt><trkpt lat="42.5985594" lon="12.713588"><ele>264.5</ele><time>2026-04-26T09:06:53.919Z</time></trkpt><trkpt lat="42.5985218" lon="12.7137629"><ele>265.25</ele><time>2026-04-26T09:06:54.92Z</time></trkpt><trkpt lat="42.5984663" lon="12.7139542"><ele>266.0</ele><time>2026-04-26T09:06:55.919Z</time></trkpt><trkpt lat="42.5984179" lon="12.7141527"><ele>266.0</ele><time>2026-04-26T09:06:56.919Z</time></trkpt><trkpt lat="42.5984005" lon="12.7143513"><ele>266.0</ele><time>2026-04-26T09:06:57.919Z</time></trkpt><trkpt lat="42.5984158" lon="12.7145518"><ele>266.0</ele><time>2026-04-26T09:06:58.919Z</time></trkpt><trkpt lat="42.5984702" lon="12.7147506"><ele>266.6666666666667</ele><time>2026-04-26T09:06:59.92Z</time></trkpt><trkpt lat="42.5985563" lon="12.714923"><ele>267.3333333333333</ele><time>2026-04-26T09:07:00.919Z</time></trkpt><trkpt lat="42.5986598" lon="12.715076"><ele>268.0</ele><time>2026-04-26T09:07:01.919Z</time></trkpt><trkpt lat="42.5987596" lon="12.7152208"><ele>270.5</ele><time>2026-04-26T09:07:02.919Z</time></trkpt><trkpt lat="42.5988527" lon="12.7153581"><ele>273.0</ele><time>2026-04-26T09:07:03.919Z</time></trkpt><trkpt lat="42.5989395" lon="12.715497"><ele>275.5</ele><time>2026-04-26T09:07:04.92Z</time></trkpt><trkpt lat="42.59902" lon="12.7156344"><ele>278.0</ele><time>2026-04-26T09:07:05.919Z</time></trkpt><trkpt lat="42.5990995" lon="12.7157886"><ele>278.0</ele><time>2026-04-26T09:07:06.919Z</time></trkpt><trkpt lat="42.59915" lon="12.715963"><ele>278.0</ele><time>2026-04-26T09:07:07.919Z</time></trkpt><trkpt lat="42.5991666" lon="12.7161328"><ele>278.0</ele><time>2026-04-26T09:07:08.919Z</time></trkpt><trkpt lat="42.5991525" lon="12.7163146"><ele>278.0</ele><time>2026-04-26T09:07:09.919Z</time></trkpt><trkpt lat="42.5991012" lon="12.7164927"><ele>278.33333333333337</ele><time>2026-04-26T09:07:10.919Z</time></trkpt><trkpt lat="42.599011" lon="12.7166542"><ele>278.6666666666667</ele><time>2026-04-26T09:07:11.919Z</time></trkpt><trkpt lat="42.5989134" lon="12.7168188"><ele>279.0</ele><time>2026-04-26T09:07:12.919Z</time></trkpt><trkpt lat="42.5988036" lon="12.7170099"><ele>277.0</ele><time>2026-04-26T09:07:13.92Z</time></trkpt><trkpt lat="42.5986823" lon="12.7172165"><ele>275.0</ele><time>2026-04-26T09:07:14.919Z</time></trkpt><trkpt lat="42.5985535" lon="12.7174194"><ele>273.0</ele><time>2026-04-26T09:07:15.919Z</time></trkpt><trkpt lat="42.5984119" lon="12.717603"><ele>276.3333333333333</ele><time>2026-04-26T09:07:16.92Z</time></trkpt><trkpt lat="42.5982782" lon="12.7177636"><ele>279.66666666666663</ele><time>2026-04-26T09:07:17.919Z</time></trkpt><trkpt lat="42.5981585" lon="12.7179199"><ele>283.0</ele><time>2026-04-26T09:07:18.919Z</time></trkpt><trkpt lat="42.5980697" lon="12.718085"><ele>283.0</ele><time>2026-04-26T09:07:19.92Z</time></trkpt><trkpt lat="42.5980144" lon="12.7182798"><ele>283.0</ele><time>2026-04-26T09:07:20.919Z</time></trkpt><trkpt lat="42.5979907" lon="12.7184956"><ele>283.0</ele><time>2026-04-26T09:07:21.919Z</time></trkpt><trkpt lat="42.5979812" lon="12.7187093"><ele>285.66666666666663</ele><time>2026-04-26T09:07:22.919Z</time></trkpt><trkpt lat="42.5979704" lon="12.7189257"><ele>288.3333333333333</ele><time>2026-04-26T09:07:23.919Z</time></trkpt><trkpt lat="42.5979383" lon="12.719134"><ele>291.0</ele><time>2026-04-26T09:07:24.919Z</time></trkpt><trkpt lat="42.5978846" lon="12.7193345"><ele>286.25</ele><time>2026-04-26T09:07:25.919Z</time></trkpt><trkpt lat="42.5978216" lon="12.719519"><ele>281.5</ele><time>2026-04-26T09:07:26.92Z</time></trkpt><trkpt lat="42.5977383" lon="12.719686"><ele>276.75</ele><time>2026-04-26T09:07:27.919Z</time></trkpt><trkpt lat="42.5976422" lon="12.7198345"><ele>272.0</ele><time>2026-04-26T09:07:28.92Z</time></trkpt><trkpt lat="42.5975331" lon="12.7199562"><ele>272.0</ele><time>2026-04-26T09:07:29.919Z</time></trkpt><trkpt lat="42.5974355" lon="12.7200952"><ele>272.0</ele><time>2026-04-26T09:07:30.92Z</time></trkpt><trkpt lat="42.5973437" lon="12.7202385"><ele>272.0</ele><time>2026-04-26T09:07:31.92Z</time></trkpt><trkpt lat="42.5972693" lon="12.7203952"><ele>272.0</ele><time>2026-04-26T09:07:32.919Z</time></trkpt><trkpt lat="42.5972132" lon="12.7205714"><ele>275.5</ele><time>2026-04-26T09:07:33.919Z</time></trkpt><trkpt lat="42.5971705" lon="12.7207556"><ele>279.0</ele><time>2026-04-26T09:07:34.919Z</time></trkpt><trkpt lat="42.5971394" lon="12.7209521"><ele>282.5</ele><time>2026-04-26T09:07:35.919Z</time></trkpt><trkpt lat="42.5971236" lon="12.7211573"><ele>286.0</ele><time>2026-04-26T09:07:36.919Z</time></trkpt><trkpt lat="42.597118" lon="12.7213625"><ele>288.0</ele><time>2026-04-26T09:07:37.919Z</time></trkpt><trkpt lat="42.5971215" lon="12.7215692"><ele>290.0</ele><time>2026-04-26T09:07:38.919Z</time></trkpt><trkpt lat="42.5971378" lon="12.7217795"><ele>292.0</ele><time>2026-04-26T09:07:39.919Z</time></trkpt><trkpt lat="42.5971733" lon="12.7220044"><ele>292.0</ele><time>2026-04-26T09:07:40.919Z</time></trkpt><trkpt lat="42.5972192" lon="12.7222304"><ele>292.0</ele><time>2026-04-26T09:07:41.919Z</time></trkpt><trkpt lat="42.5972723" lon="12.7224496"><ele>292.0</ele><time>2026-04-26T09:07:42.919Z</time></trkpt><trkpt lat="42.5973416" lon="12.7226618"><ele>289.66666666666663</ele><time>2026-04-26T09:07:43.919Z</time></trkpt><trkpt lat="42.597424" lon="12.7228565"><ele>287.3333333333333</ele><time>2026-04-26T09:07:44.919Z</time></trkpt><trkpt lat="42.5975043" lon="12.723028"><ele>285.0</ele><time>2026-04-26T09:07:45.919Z</time></trkpt><trkpt lat="42.5975874" lon="12.7231956"><ele>285.0</ele><time>2026-04-26T09:07:46.92Z</time></trkpt><trkpt lat="42.5976721" lon="12.7233559"><ele>285.0</ele><time>2026-04-26T09:07:47.919Z</time></trkpt><trkpt lat="42.597758" lon="12.7235082"><ele>285.0</ele><time>2026-04-26T09:07:48.919Z</time></trkpt><trkpt lat="42.5978495" lon="12.723685"><ele>285.0</ele><time>2026-04-26T09:07:49.919Z</time></trkpt><trkpt lat="42.59797" lon="12.7238981"><ele>285.6666666666667</ele><time>2026-04-26T09:07:50.919Z</time></trkpt><trkpt lat="42.5980854" lon="12.724111"><ele>286.33333333333337</ele><time>2026-04-26T09:07:51.919Z</time></trkpt><trkpt lat="42.5981944" lon="12.7243204"><ele>287.0</ele><time>2026-04-26T09:07:52.92Z</time></trkpt><trkpt lat="42.598301" lon="12.7245315"><ele>287.0</ele><time>2026-04-26T09:07:53.919Z</time></trkpt><trkpt lat="42.5984097" lon="12.7247256"><ele>287.0</ele><time>2026-04-26T09:07:54.92Z</time></trkpt><trkpt lat="42.5985127" lon="12.7249071"><ele>287.0</ele><time>2026-04-26T09:07:55.919Z</time></trkpt><trkpt lat="42.5986355" lon="12.7250586"><ele>288.6666666666667</ele><time>2026-04-26T09:07:56.919Z</time></trkpt><trkpt lat="42.5987723" lon="12.7251912"><ele>290.3333333333333</ele><time>2026-04-26T09:07:57.919Z</time></trkpt><trkpt lat="42.5989304" lon="12.7252963"><ele>292.0</ele><time>2026-04-26T09:07:58.919Z</time></trkpt><trkpt lat="42.5990847" lon="12.7253757"><ele>292.0</ele><time>2026-04-26T09:07:59.919Z</time></trkpt><trkpt lat="42.5992325" lon="12.7254484"><ele>292.0</ele><time>2026-04-26T09:08:00.919Z</time></trkpt><trkpt lat="42.5993841" lon="12.725503"><ele>292.0</ele><time>2026-04-26T09:08:01.919Z</time></trkpt><trkpt lat="42.5995358" lon="12.7255255"><ele>291.3333333333333</ele><time>2026-04-26T09:08:02.919Z</time></trkpt><trkpt lat="42.5996945" lon="12.7255235"><ele>290.6666666666667</ele><time>2026-04-26T09:08:03.919Z</time></trkpt><trkpt lat="42.5998579" lon="12.7254992"><ele>290.0</ele><time>2026-04-26T09:08:04.919Z</time></trkpt><trkpt lat="42.6000287" lon="12.7254315"><ele>290.0</ele><time>2026-04-26T09:08:05.919Z</time></trkpt><trkpt lat="42.6002268" lon="12.725323"><ele>290.0</ele><time>2026-04-26T09:08:06.92Z</time></trkpt><trkpt lat="42.6004358" lon="12.7251922"><ele>290.0</ele><time>2026-04-26T09:08:07.919Z</time></trkpt><trkpt lat="42.6006526" lon="12.7250632"><ele>295.0</ele><time>2026-04-26T09:08:08.919Z</time></trkpt><trkpt lat="42.6008925" lon="12.7249301"><ele>300.0</ele><time>2026-04-26T09:08:09.919Z</time></trkpt><trkpt lat="42.6011638" lon="12.7248055"><ele>296.5</ele><time>2026-04-26T09:08:10.919Z</time></trkpt><trkpt lat="42.601437" lon="12.7247092"><ele>293.0</ele><time>2026-04-26T09:08:11.919Z</time></trkpt><trkpt lat="42.6017047" lon="12.7246343"><ele>293.0</ele><time>2026-04-26T09:08:12.92Z</time></trkpt><trkpt lat="42.6019504" lon="12.7245883"><ele>293.0</ele><time>2026-04-26T09:08:13.919Z</time></trkpt><trkpt lat="42.6021932" lon="12.7245603"><ele>293.0</ele><time>2026-04-26T09:08:14.92Z</time></trkpt><trkpt lat="42.6024295" lon="12.7245471"><ele>293.0</ele><time>2026-04-26T09:08:15.92Z</time></trkpt><trkpt lat="42.602653" lon="12.7245617"><ele>295.0</ele><time>2026-04-26T09:08:16.919Z</time></trkpt><trkpt lat="42.6028517" lon="12.724599"><ele>297.0</ele><time>2026-04-26T09:08:17.919Z</time></trkpt><trkpt lat="42.6030374" lon="12.7246617"><ele>299.0</ele><time>2026-04-26T09:08:18.92Z</time></trkpt><trkpt lat="42.6032154" lon="12.7247662"><ele>299.0</ele><time>2026-04-26T09:08:19.919Z</time></trkpt><trkpt lat="42.6033855" lon="12.7248924"><ele>299.0</ele><time>2026-04-26T09:08:20.919Z</time></trkpt><trkpt lat="42.603542" lon="12.7250285"><ele>299.0</ele><time>2026-04-26T09:08:21.919Z</time></trkpt><trkpt lat="42.6036869" lon="12.7251787"><ele>299.33333333333337</ele><time>2026-04-26T09:08:22.919Z</time></trkpt><trkpt lat="42.6038263" lon="12.7253391"><ele>299.6666666666667</ele><time>2026-04-26T09:08:23.919Z</time></trkpt><trkpt lat="42.6039666" lon="12.72549"><ele>300.0</ele><time>2026-04-26T09:08:24.919Z</time></trkpt><trkpt lat="42.6041017" lon="12.7256534"><ele>300.0</ele><time>2026-04-26T09:08:25.919Z</time></trkpt><trkpt lat="42.6042371" lon="12.725815"><ele>300.0</ele><time>2026-04-26T09:08:26.919Z</time></trkpt><trkpt lat="42.6043686" lon="12.7259837"><ele>300.0</ele><time>2026-04-26T09:08:27.919Z</time></trkpt><trkpt lat="42.6044922" lon="12.7261656"><ele>303.0</ele><time>2026-04-26T09:08:28.919Z</time></trkpt><trkpt lat="42.6046006" lon="12.7263672"><ele>306.0</ele><time>2026-04-26T09:08:29.92Z</time></trkpt><trkpt lat="42.6047082" lon="12.7265733"><ele>309.0</ele><time>2026-04-26T09:08:30.92Z</time></trkpt><trkpt lat="42.604805" lon="12.726796"><ele>308.6666666666667</ele><time>2026-04-26T09:08:31.919Z</time></trkpt><trkpt lat="42.6049031" lon="12.727028"><ele>308.33333333333337</ele><time>2026-04-26T09:08:32.919Z</time></trkpt><trkpt lat="42.6050073" lon="12.7272601"><ele>308.0</ele><time>2026-04-26T09:08:33.919Z</time></trkpt><trkpt lat="42.6051371" lon="12.7275074"><ele>312.0</ele><time>2026-04-26T09:08:34.92Z</time></trkpt><trkpt lat="42.605287" lon="12.7277652"><ele>316.0</ele><time>2026-04-26T09:08:35.92Z</time></trkpt><trkpt lat="42.6054481" lon="12.7280285"><ele>319.0</ele><time>2026-04-26T09:08:36.919Z</time></trkpt><trkpt lat="42.6056197" lon="12.7282749"><ele>322.0</ele><time>2026-04-26T09:08:37.919Z</time></trkpt><trkpt lat="42.6057691" lon="12.7285113"><ele>317.0</ele><time>2026-04-26T09:08:38.919Z</time></trkpt><trkpt lat="42.605907" lon="12.728743"><ele>312.0</ele><time>2026-04-26T09:08:39.919Z</time></trkpt><trkpt lat="42.6060298" lon="12.7289765"><ele>307.0</ele><time>2026-04-26T09:08:40.92Z</time></trkpt><trkpt lat="42.6061418" lon="12.7292037"><ele>310.0</ele><time>2026-04-26T09:08:41.919Z</time></trkpt><trkpt lat="42.6062575" lon="12.7294235"><ele>313.0</ele><time>2026-04-26T09:08:42.919Z</time></trkpt><trkpt lat="42.6063896" lon="12.7296378"><ele>316.0</ele><time>2026-04-26T09:08:43.92Z</time></trkpt><trkpt lat="42.6065431" lon="12.7298556"><ele>316.0</ele><time>2026-04-26T09:08:44.919Z</time></trkpt><trkpt lat="42.6067238" lon="12.730076"><ele>316.0</ele><time>2026-04-26T09:08:45.919Z</time></trkpt><trkpt lat="42.6069254" lon="12.7302983"><ele>320.5</ele><time>2026-04-26T09:08:46.92Z</time></trkpt><trkpt lat="42.6071353" lon="12.7305251"><ele>325.0</ele><time>2026-04-26T09:08:47.919Z</time></trkpt><trkpt lat="42.6073555" lon="12.7307572"><ele>325.0</ele><time>2026-04-26T09:08:48.919Z</time></trkpt><trkpt lat="42.6075771" lon="12.730995"><ele>325.0</ele><time>2026-04-26T09:08:49.919Z</time></trkpt><trkpt lat="42.6077967" lon="12.7312303"><ele>323.5</ele><time>2026-04-26T09:08:50.919Z</time></trkpt><trkpt lat="42.6080162" lon="12.7314635"><ele>322.0</ele><time>2026-04-26T09:08:51.919Z</time></trkpt><trkpt lat="42.6082341" lon="12.7316889"><ele>317.5</ele><time>2026-04-26T09:08:52.92Z</time></trkpt><trkpt lat="42.6084385" lon="12.7319087"><ele>313.0</ele><time>2026-04-26T09:08:53.919Z</time></trkpt><trkpt lat="42.6086245" lon="12.7321286"><ele>317.5</ele><time>2026-04-26T09:08:54.92Z</time></trkpt><trkpt lat="42.6087915" lon="12.7323686"><ele>322.0</ele><time>2026-04-26T09:08:55.919Z</time></trkpt><trkpt lat="42.6089389" lon="12.7326313"><ele>320.0</ele><time>2026-04-26T09:08:56.919Z</time></trkpt><trkpt lat="42.6090816" lon="12.7329106"><ele>318.0</ele><time>2026-04-26T09:08:57.919Z</time></trkpt><trkpt lat="42.609203" lon="12.733196"><ele>318.0</ele><time>2026-04-26T09:08:58.919Z</time></trkpt><trkpt lat="42.6093236" lon="12.7334862"><ele>318.0</ele><time>2026-04-26T09:08:59.92Z</time></trkpt><trkpt lat="42.6094403" lon="12.7337565"><ele>318.0</ele><time>2026-04-26T09:09:00.919Z</time></trkpt><trkpt lat="42.6095541" lon="12.7340063"><ele>318.0</ele><time>2026-04-26T09:09:01.919Z</time></trkpt><trkpt lat="42.6096711" lon="12.7342408"><ele>318.0</ele><time>2026-04-26T09:09:02.92Z</time></trkpt><trkpt lat="42.6097991" lon="12.7344525"><ele>318.0</ele><time>2026-04-26T09:09:03.919Z</time></trkpt><trkpt lat="42.6099478" lon="12.7346396"><ele>318.0</ele><time>2026-04-26T09:09:04.919Z</time></trkpt><trkpt lat="42.610113" lon="12.7347993"><ele>318.0</ele><time>2026-04-26T09:09:05.919Z</time></trkpt><trkpt lat="42.6102868" lon="12.734922"><ele>318.0</ele><time>2026-04-26T09:09:06.92Z</time></trkpt><trkpt lat="42.6104675" lon="12.7350385"><ele>318.0</ele><time>2026-04-26T09:09:07.92Z</time></trkpt><trkpt lat="42.6106524" lon="12.7351438"><ele>318.0</ele><time>2026-04-26T09:09:08.92Z</time></trkpt><trkpt lat="42.6108315" lon="12.7352455"><ele>318.0</ele><time>2026-04-26T09:09:09.919Z</time></trkpt><trkpt lat="42.6110117" lon="12.7353196"><ele>318.0</ele><time>2026-04-26T09:09:10.92Z</time></trkpt><trkpt lat="42.611202" lon="12.7353526"><ele>318.0</ele><time>2026-04-26T09:09:11.919Z</time></trkpt><trkpt lat="42.6114017" lon="12.7353553"><ele>319.3333333333333</ele><time>2026-04-26T09:09:12.919Z</time></trkpt><trkpt lat="42.611599" lon="12.7353238"><ele>320.66666666666663</ele><time>2026-04-26T09:09:13.919Z</time></trkpt><trkpt lat="42.6118059" lon="12.735282"><ele>322.0</ele><time>2026-04-26T09:09:14.92Z</time></trkpt><trkpt lat="42.6120024" lon="12.7352446"><ele>327.3333333333333</ele><time>2026-04-26T09:09:15.919Z</time></trkpt><trkpt lat="42.6121809" lon="12.7352125"><ele>332.6666666666667</ele><time>2026-04-26T09:09:16.919Z</time></trkpt><trkpt lat="42.6123551" lon="12.7351873"><ele>338.0</ele><time>2026-04-26T09:09:17.92Z</time></trkpt><trkpt lat="42.612512" lon="12.7351582"><ele>338.0</ele><time>2026-04-26T09:09:18.919Z</time></trkpt><trkpt lat="42.6126585" lon="12.735135"><ele>338.0</ele><time>2026-04-26T09:09:19.919Z</time></trkpt><trkpt lat="42.6127904" lon="12.7351056"><ele>338.0</ele><time>2026-04-26T09:09:20.919Z</time></trkpt><trkpt lat="42.6129145" lon="12.7350737"><ele>338.0</ele><time>2026-04-26T09:09:21.92Z</time></trkpt><trkpt lat="42.6130387" lon="12.7350407"><ele>335.75</ele><time>2026-04-26T09:09:22.919Z</time></trkpt><trkpt lat="42.6131675" lon="12.7350169"><ele>333.5</ele><time>2026-04-26T09:09:23.919Z</time></trkpt><trkpt lat="42.6133083" lon="12.7349937"><ele>331.25</ele><time>2026-04-26T09:09:24.92Z</time></trkpt><trkpt lat="42.613453" lon="12.7349652"><ele>329.0</ele><time>2026-04-26T09:09:25.919Z</time></trkpt><trkpt lat="42.6136075" lon="12.7349466"><ele>329.33333333333337</ele><time>2026-04-26T09:09:26.92Z</time></trkpt><trkpt lat="42.6137692" lon="12.7349176"><ele>329.6666666666667</ele><time>2026-04-26T09:09:27.92Z</time></trkpt><trkpt lat="42.6139386" lon="12.7348838"><ele>330.0</ele><time>2026-04-26T09:09:28.919Z</time></trkpt><trkpt lat="42.6141115" lon="12.734852"><ele>330.0</ele><time>2026-04-26T09:09:29.919Z</time></trkpt><trkpt lat="42.6142953" lon="12.7348272"><ele>330.0</ele><time>2026-04-26T09:09:30.919Z</time></trkpt><trkpt lat="42.6144788" lon="12.7347935"><ele>330.0</ele><time>2026-04-26T09:09:31.919Z</time></trkpt><trkpt lat="42.6146676" lon="12.7347614"><ele>331.0</ele><time>2026-04-26T09:09:32.92Z</time></trkpt><trkpt lat="42.6148553" lon="12.7347329"><ele>332.0</ele><time>2026-04-26T09:09:33.919Z</time></trkpt><trkpt lat="42.6150416" lon="12.7347172"><ele>333.0</ele><time>2026-04-26T09:09:34.919Z</time></trkpt><trkpt lat="42.6152106" lon="12.7346986"><ele>334.0</ele><time>2026-04-26T09:09:35.919Z</time></trkpt><trkpt lat="42.6153675" lon="12.7346728"><ele>335.0</ele><time>2026-04-26T09:09:36.919Z</time></trkpt><trkpt lat="42.6155186" lon="12.7346468"><ele>336.0</ele><time>2026-04-26T09:09:37.919Z</time></trkpt><trkpt lat="42.6156573" lon="12.7346215"><ele>336.0</ele><time>2026-04-26T09:09:38.919Z</time></trkpt><trkpt lat="42.6157842" lon="12.7345915"><ele>336.0</ele><time>2026-04-26T09:09:39.919Z</time></trkpt><trkpt lat="42.6159076" lon="12.7345673"><ele>336.0</ele><time>2026-04-26T09:09:40.919Z</time></trkpt><trkpt lat="42.616028" lon="12.734535"><ele>336.0</ele><time>2026-04-26T09:09:41.92Z</time></trkpt><trkpt lat="42.6161487" lon="12.7344883"><ele>337.75</ele><time>2026-04-26T09:09:42.919Z</time></trkpt><trkpt lat="42.6162696" lon="12.7344366"><ele>339.5</ele><time>2026-04-26T09:09:43.919Z</time></trkpt><trkpt lat="42.6163919" lon="12.7343746"><ele>341.25</ele><time>2026-04-26T09:09:44.92Z</time></trkpt><trkpt lat="42.6165146" lon="12.7343006"><ele>343.0</ele><time>2026-04-26T09:09:45.919Z</time></trkpt><trkpt lat="42.6166445" lon="12.7342163"><ele>343.75</ele><time>2026-04-26T09:09:46.919Z</time></trkpt><trkpt lat="42.6167691" lon="12.7341274"><ele>344.5</ele><time>2026-04-26T09:09:47.919Z</time></trkpt><trkpt lat="42.6168883" lon="12.7340339"><ele>345.25</ele><time>2026-04-26T09:09:48.919Z</time></trkpt><trkpt lat="42.6170032" lon="12.7339356"><ele>346.0</ele><time>2026-04-26T09:09:49.919Z</time></trkpt><trkpt lat="42.6171182" lon="12.7338376"><ele>344.25</ele><time>2026-04-26T09:09:50.919Z</time></trkpt><trkpt lat="42.6172305" lon="12.7337504"><ele>342.5</ele><time>2026-04-26T09:09:51.919Z</time></trkpt><trkpt lat="42.6173395" lon="12.7336588"><ele>340.75</ele><time>2026-04-26T09:09:52.919Z</time></trkpt><trkpt lat="42.6174445" lon="12.7335716"><ele>339.0</ele><time>2026-04-26T09:09:53.919Z</time></trkpt><trkpt lat="42.6175519" lon="12.7334816"><ele>338.75</ele><time>2026-04-26T09:09:54.919Z</time></trkpt><trkpt lat="42.6176557" lon="12.7333899"><ele>338.5</ele><time>2026-04-26T09:09:55.919Z</time></trkpt><trkpt lat="42.6177676" lon="12.7332959"><ele>338.25</ele><time>2026-04-26T09:09:56.919Z</time></trkpt><trkpt lat="42.6178824" lon="12.7331957"><ele>338.0</ele><time>2026-04-26T09:09:57.919Z</time></trkpt><trkpt lat="42.6179967" lon="12.7330974"><ele>338.0</ele><time>2026-04-26T09:09:58.92Z</time></trkpt><trkpt lat="42.6181113" lon="12.7330042"><ele>338.0</ele><time>2026-04-26T09:09:59.919Z</time></trkpt><trkpt lat="42.6182259" lon="12.732919"><ele>338.0</ele><time>2026-04-26T09:10:00.919Z</time></trkpt><trkpt lat="42.6183507" lon="12.7328354"><ele>338.0</ele><time>2026-04-26T09:10:01.919Z</time></trkpt><trkpt lat="42.6184719" lon="12.732752"><ele>339.25</ele><time>2026-04-26T09:10:02.919Z</time></trkpt><trkpt lat="42.618599" lon="12.7326839"><ele>340.5</ele><time>2026-04-26T09:10:03.919Z</time></trkpt><trkpt lat="42.6187207" lon="12.732631"><ele>341.75</ele><time>2026-04-26T09:10:04.919Z</time></trkpt><trkpt lat="42.6188417" lon="12.7325863"><ele>343.0</ele><time>2026-04-26T09:10:05.919Z</time></trkpt><trkpt lat="42.6189646" lon="12.7325446"><ele>343.0</ele><time>2026-04-26T09:10:06.919Z</time></trkpt><trkpt lat="42.6190851" lon="12.7325074"><ele>343.0</ele><time>2026-04-26T09:10:07.919Z</time></trkpt><trkpt lat="42.6192042" lon="12.7324778"><ele>343.0</ele><time>2026-04-26T09:10:08.919Z</time></trkpt><trkpt lat="42.6193254" lon="12.7324587"><ele>343.0</ele><time>2026-04-26T09:10:09.92Z</time></trkpt><trkpt lat="42.6194605" lon="12.7324394"><ele>343.25</ele><time>2026-04-26T09:10:10.919Z</time></trkpt><trkpt lat="42.6196004" lon="12.7324258"><ele>343.5</ele><time>2026-04-26T09:10:11.919Z</time></trkpt><trkpt lat="42.6197424" lon="12.7324187"><ele>343.75</ele><time>2026-04-26T09:10:12.92Z</time></trkpt><trkpt lat="42.6198886" lon="12.7324034"><ele>344.0</ele><time>2026-04-26T09:10:13.919Z</time></trkpt><trkpt lat="42.6200392" lon="12.7323995"><ele>344.0</ele><time>2026-04-26T09:10:14.919Z</time></trkpt><trkpt lat="42.6201865" lon="12.7323962"><ele>344.0</ele><time>2026-04-26T09:10:15.919Z</time></trkpt><trkpt lat="42.6203325" lon="12.7324015"><ele>344.0</ele><time>2026-04-26T09:10:16.927Z</time></trkpt><trkpt lat="42.6204758" lon="12.7324156"><ele>344.0</ele><time>2026-04-26T09:10:17.926Z</time></trkpt><trkpt lat="42.6206229" lon="12.7324339"><ele>344.5</ele><time>2026-04-26T09:10:18.926Z</time></trkpt><trkpt lat="42.6207723" lon="12.7324601"><ele>345.0</ele><time>2026-04-26T09:10:19.926Z</time></trkpt><trkpt lat="42.6209203" lon="12.7324803"><ele>345.5</ele><time>2026-04-26T09:10:20.926Z</time></trkpt><trkpt lat="42.621055" lon="12.7325073"><ele>346.0</ele><time>2026-04-26T09:10:21.926Z</time></trkpt><trkpt lat="42.6212042" lon="12.7325284"><ele>347.5</ele><time>2026-04-26T09:10:22.926Z</time></trkpt><trkpt lat="42.6213462" lon="12.7325578"><ele>349.0</ele><time>2026-04-26T09:10:23.927Z</time></trkpt><trkpt lat="42.6214833" lon="12.7325909"><ele>350.5</ele><time>2026-04-26T09:10:24.926Z</time></trkpt><trkpt lat="42.6216267" lon="12.7326194"><ele>352.0</ele><time>2026-04-26T09:10:25.927Z</time></trkpt><trkpt lat="42.6217778" lon="12.7326536"><ele>352.0</ele><time>2026-04-26T09:10:26.926Z</time></trkpt><trkpt lat="42.62193" lon="12.7327062"><ele>352.0</ele><time>2026-04-26T09:10:27.926Z</time></trkpt><trkpt lat="42.6220928" lon="12.7327619"><ele>352.0</ele><time>2026-04-26T09:10:28.926Z</time></trkpt><trkpt lat="42.6222619" lon="12.7328204"><ele>351.0</ele><time>2026-04-26T09:10:29.927Z</time></trkpt><trkpt lat="42.6224307" lon="12.7328764"><ele>350.0</ele><time>2026-04-26T09:10:30.926Z</time></trkpt><trkpt lat="42.6226183" lon="12.7329252"><ele>349.0</ele><time>2026-04-26T09:10:31.926Z</time></trkpt><trkpt lat="42.6228148" lon="12.7329528"><ele>349.0</ele><time>2026-04-26T09:10:32.926Z</time></trkpt><trkpt lat="42.6230169" lon="12.7329805"><ele>349.0</ele><time>2026-04-26T09:10:33.926Z</time></trkpt><trkpt lat="42.6232078" lon="12.7329932"><ele>349.0</ele><time>2026-04-26T09:10:34.926Z</time></trkpt><trkpt lat="42.6233806" lon="12.7329863"><ele>349.0</ele><time>2026-04-26T09:10:35.926Z</time></trkpt><trkpt lat="42.6235494" lon="12.7329855"><ele>349.0</ele><time>2026-04-26T09:10:36.926Z</time></trkpt><trkpt lat="42.6237143" lon="12.7329757"><ele>349.0</ele><time>2026-04-26T09:10:37.927Z</time></trkpt><trkpt lat="42.6238719" lon="12.7329598"><ele>349.75</ele><time>2026-04-26T09:10:38.927Z</time></trkpt><trkpt lat="42.6240155" lon="12.7329423"><ele>350.5</ele><time>2026-04-26T09:10:39.926Z</time></trkpt><trkpt lat="42.6241548" lon="12.7329166"><ele>351.25</ele><time>2026-04-26T09:10:40.926Z</time></trkpt><trkpt lat="42.6242963" lon="12.7328888"><ele>352.0</ele><time>2026-04-26T09:10:41.926Z</time></trkpt><trkpt lat="42.6244339" lon="12.7328523"><ele>352.75</ele><time>2026-04-26T09:10:42.926Z</time></trkpt><trkpt lat="42.624577" lon="12.7328136"><ele>353.5</ele><time>2026-04-26T09:10:43.926Z</time></trkpt><trkpt lat="42.6247218" lon="12.7327684"><ele>354.25</ele><time>2026-04-26T09:10:44.926Z</time></trkpt><trkpt lat="42.6248693" lon="12.7327181"><ele>355.0</ele><time>2026-04-26T09:10:45.926Z</time></trkpt><trkpt lat="42.6250116" lon="12.7326661"><ele>355.75</ele><time>2026-04-26T09:10:46.927Z</time></trkpt><trkpt lat="42.6251563" lon="12.7326062"><ele>356.5</ele><time>2026-04-26T09:10:47.926Z</time></trkpt><trkpt lat="42.6253018" lon="12.7325587"><ele>357.25</ele><time>2026-04-26T09:10:48.927Z</time></trkpt><trkpt lat="42.6254473" lon="12.7325269"><ele>358.0</ele><time>2026-04-26T09:10:49.926Z</time></trkpt><trkpt lat="42.6255854" lon="12.7324961"><ele>358.0</ele><time>2026-04-26T09:10:50.927Z</time></trkpt><trkpt lat="42.6257343" lon="12.7324653"><ele>358.0</ele><time>2026-04-26T09:10:51.926Z</time></trkpt><trkpt lat="42.6258674" lon="12.7324527"><ele>358.0</ele><time>2026-04-26T09:10:52.926Z</time></trkpt><trkpt lat="42.6259973" lon="12.7324298"><ele>358.0</ele><time>2026-04-26T09:10:53.926Z</time></trkpt><trkpt lat="42.6261108" lon="12.7323971"><ele>358.25</ele><time>2026-04-26T09:10:54.927Z</time></trkpt><trkpt lat="42.6262197" lon="12.7323534"><ele>358.5</ele><time>2026-04-26T09:10:55.926Z</time></trkpt><trkpt lat="42.6263239" lon="12.7322867"><ele>358.75</ele><time>2026-04-26T09:10:56.927Z</time></trkpt><trkpt lat="42.6264339" lon="12.7322304"><ele>359.0</ele><time>2026-04-26T09:10:57.926Z</time></trkpt><trkpt lat="42.6265487" lon="12.7321776"><ele>359.0</ele><time>2026-04-26T09:10:58.926Z</time></trkpt><trkpt lat="42.626661" lon="12.7321247"><ele>359.0</ele><time>2026-04-26T09:10:59.926Z</time></trkpt><trkpt lat="42.6267634" lon="12.7320677"><ele>359.0</ele><time>2026-04-26T09:11:00.926Z</time></trkpt><trkpt lat="42.6268641" lon="12.7320196"><ele>359.0</ele><time>2026-04-26T09:11:01.926Z</time></trkpt><trkpt lat="42.6269689" lon="12.7319821"><ele>359.0</ele><time>2026-04-26T09:11:02.926Z</time></trkpt><trkpt lat="42.627078" lon="12.7319517"><ele>360.25</ele><time>2026-04-26T09:11:03.926Z</time></trkpt><trkpt lat="42.627197" lon="12.7319255"><ele>361.5</ele><time>2026-04-26T09:11:04.926Z</time></trkpt><trkpt lat="42.6273085" lon="12.7319189"><ele>362.75</ele><time>2026-04-26T09:11:05.926Z</time></trkpt><trkpt lat="42.6274252" lon="12.7319158"><ele>364.0</ele><time>2026-04-26T09:11:06.926Z</time></trkpt><trkpt lat="42.6275336" lon="12.731901"><ele>364.0</ele><time>2026-04-26T09:11:07.926Z</time></trkpt><trkpt lat="42.6276318" lon="12.7319016"><ele>364.0</ele><time>2026-04-26T09:11:08.926Z</time></trkpt><trkpt lat="42.6277215" lon="12.731897"><ele>364.0</ele><time>2026-04-26T09:11:09.926Z</time></trkpt><trkpt lat="42.6278137" lon="12.7318995"><ele>364.0</ele><time>2026-04-26T09:11:10.926Z</time></trkpt><trkpt lat="42.6279016" lon="12.7319018"><ele>364.0</ele><time>2026-04-26T09:11:11.926Z</time></trkpt><trkpt lat="42.6279792" lon="12.7319065"><ele>364.0</ele><time>2026-04-26T09:11:12.926Z</time></trkpt><trkpt lat="42.6280506" lon="12.7319092"><ele>364.3333333333333</ele><time>2026-04-26T09:11:13.926Z</time></trkpt><trkpt lat="42.6281183" lon="12.7319072"><ele>364.66666666666663</ele><time>2026-04-26T09:11:14.926Z</time></trkpt><trkpt lat="42.6281888" lon="12.7319096"><ele>365.0</ele><time>2026-04-26T09:11:15.926Z</time></trkpt><trkpt lat="42.6282652" lon="12.7319103"><ele>365.3333333333333</ele><time>2026-04-26T09:11:16.927Z</time></trkpt><trkpt lat="42.6283432" lon="12.7319064"><ele>365.6666666666667</ele><time>2026-04-26T09:11:17.926Z</time></trkpt><trkpt lat="42.6284268" lon="12.7318952"><ele>366.0</ele><time>2026-04-26T09:11:18.927Z</time></trkpt><trkpt lat="42.6285035" lon="12.731877"><ele>366.0</ele><time>2026-04-26T09:11:19.927Z</time></trkpt><trkpt lat="42.628573" lon="12.7318565"><ele>366.0</ele><time>2026-04-26T09:11:20.926Z</time></trkpt><trkpt lat="42.6287007" lon="12.7318073"><ele>366.0</ele><time>2026-04-26T09:11:22.926Z</time></trkpt><trkpt lat="42.6287656" lon="12.73178"><ele>366.0</ele><time>2026-04-26T09:11:23.926Z</time></trkpt><trkpt lat="42.6288357" lon="12.7317555"><ele>366.0</ele><time>2026-04-26T09:11:24.926Z</time></trkpt><trkpt lat="42.6288982" lon="12.7317343"><ele>366.0</ele><time>2026-04-26T09:11:25.926Z</time></trkpt><trkpt lat="42.6289636" lon="12.7317194"><ele>366.1666666666667</ele><time>2026-04-26T09:11:26.926Z</time></trkpt><trkpt lat="42.6290842" lon="12.7316751"><ele>366.3333333333333</ele><time>2026-04-26T09:11:28.926Z</time></trkpt><trkpt lat="42.6291544" lon="12.731648"><ele>366.5</ele><time>2026-04-26T09:11:29.927Z</time></trkpt><trkpt lat="42.6292284" lon="12.7316129"><ele>366.66666666666663</ele><time>2026-04-26T09:11:30.927Z</time></trkpt><trkpt lat="42.6292982" lon="12.7315718"><ele>366.8333333333333</ele><time>2026-04-26T09:11:31.926Z</time></trkpt><trkpt lat="42.6293765" lon="12.7315377"><ele>367.0</ele><time>2026-04-26T09:11:32.927Z</time></trkpt><trkpt lat="42.6294464" lon="12.7314985"><ele>367.4285714285714</ele><time>2026-04-26T09:11:33.926Z</time></trkpt><trkpt lat="42.6295127" lon="12.7314671"><ele>367.8571428571429</ele><time>2026-04-26T09:11:34.927Z</time></trkpt><trkpt lat="42.6295795" lon="12.7314438"><ele>368.2857142857143</ele><time>2026-04-26T09:11:35.926Z</time></trkpt><trkpt lat="42.6296461" lon="12.7314284"><ele>368.71428571428567</ele><time>2026-04-26T09:11:36.926Z</time></trkpt><trkpt lat="42.6297133" lon="12.7314086"><ele>369.1428571428571</ele><time>2026-04-26T09:11:37.927Z</time></trkpt><trkpt lat="42.629783" lon="12.7313951"><ele>369.57142857142856</ele><time>2026-04-26T09:11:38.926Z</time></trkpt><trkpt lat="42.629848" lon="12.731381"><ele>370.0</ele><time>2026-04-26T09:11:39.926Z</time></trkpt><trkpt lat="42.6299106" lon="12.7313648"><ele>370.0</ele><time>2026-04-26T09:11:40.926Z</time></trkpt><trkpt lat="42.6300052" lon="12.7313378"><ele>370.0</ele><time>2026-04-26T09:11:42.926Z</time></trkpt><trkpt lat="42.6300453" lon="12.7312455"><ele>370.0</ele><time>2026-04-26T09:11:45.926Z</time></trkpt><trkpt lat="42.6300473" lon="12.7311018"><ele>370.0</ele><time>2026-04-26T09:11:47.926Z</time></trkpt><trkpt lat="42.6300585" lon="12.7310031"><ele>370.0</ele><time>2026-04-26T09:11:48.926Z</time></trkpt><trkpt lat="42.6300594" lon="12.7308847"><ele>370.0</ele><time>2026-04-26T09:11:49.926Z</time></trkpt><trkpt lat="42.6300663" lon="12.7307795"><ele>370.3333333333333</ele><time>2026-04-26T09:11:50.926Z</time></trkpt><trkpt lat="42.630089" lon="12.7306667"><ele>370.66666666666663</ele><time>2026-04-26T09:11:51.926Z</time></trkpt><trkpt lat="42.6301216" lon="12.730554"><ele>371.0</ele><time>2026-04-26T09:11:52.926Z</time></trkpt><trkpt lat="42.6301654" lon="12.7304412"><ele>371.3333333333333</ele><time>2026-04-26T09:11:53.926Z</time></trkpt><trkpt lat="42.6302097" lon="12.7303472"><ele>371.6666666666667</ele><time>2026-04-26T09:11:54.927Z</time></trkpt><trkpt lat="42.6302462" lon="12.7302695"><ele>372.0</ele><time>2026-04-26T09:11:55.926Z</time></trkpt><trkpt lat="42.630283" lon="12.7301666"><ele>373.0</ele><time>2026-04-26T09:11:57.927Z</time></trkpt><trkpt lat="42.6302694" lon="12.7300738"><ele>374.0</ele><time>2026-04-26T09:11:59.926Z</time></trkpt><trkpt lat="42.6301701" lon="12.7299696"><ele>375.0</ele><time>2026-04-26T09:12:01.926Z</time></trkpt><trkpt lat="42.630103" lon="12.7299448"><ele>376.0</ele><time>2026-04-26T09:12:02.926Z</time></trkpt><trkpt lat="42.6300318" lon="12.7299372"><ele>377.0</ele><time>2026-04-26T09:12:03.926Z</time></trkpt><trkpt lat="42.629959" lon="12.7299479"><ele>378.0</ele><time>2026-04-26T09:12:04.927Z</time></trkpt><trkpt lat="42.6298474" lon="12.7300298"><ele>378.0</ele><time>2026-04-26T09:12:06.927Z</time></trkpt><trkpt lat="42.6297494" lon="12.7301203"><ele>378.0</ele><time>2026-04-26T09:12:08.926Z</time></trkpt><trkpt lat="42.6296996" lon="12.7302075"><ele>378.0</ele><time>2026-04-26T09:12:10.926Z</time></trkpt><trkpt lat="42.6297718" lon="12.7303098"><ele>378.0</ele><time>2026-04-26T09:12:31.926Z</time></trkpt><trkpt lat="42.6298855" lon="12.7302827"><ele>378.0</ele><time>2026-04-26T09:12:33.927Z</time></trkpt><trkpt lat="42.6299686" lon="12.7302495"><ele>378.0</ele><time>2026-04-26T09:12:34.926Z</time></trkpt><trkpt lat="42.6300774" lon="12.7302175"><ele>378.0</ele><time>2026-04-26T09:12:35.926Z</time></trkpt><trkpt lat="42.6302026" lon="12.7301751"><ele>378.0</ele><time>2026-04-26T09:12:36.927Z</time></trkpt><trkpt lat="42.6303404" lon="12.7301357"><ele>378.0</ele><time>2026-04-26T09:12:37.927Z</time></trkpt><trkpt lat="42.6305184" lon="12.7300901"><ele>378.5</ele><time>2026-04-26T09:12:38.927Z</time></trkpt><trkpt lat="42.630746" lon="12.7300486"><ele>379.0</ele><time>2026-04-26T09:12:39.926Z</time></trkpt><trkpt lat="42.6310186" lon="12.7300092"><ele>382.0</ele><time>2026-04-26T09:12:40.927Z</time></trkpt><trkpt lat="42.6313356" lon="12.7299774"><ele>385.0</ele><time>2026-04-26T09:12:41.926Z</time></trkpt><trkpt lat="42.6316866" lon="12.729944"><ele>388.0</ele><time>2026-04-26T09:12:42.927Z</time></trkpt><trkpt lat="42.6320379" lon="12.7299047"><ele>391.0</ele><time>2026-04-26T09:12:43.926Z</time></trkpt><trkpt lat="42.6323556" lon="12.7298756"><ele>391.0</ele><time>2026-04-26T09:12:44.926Z</time></trkpt><trkpt lat="42.6326449" lon="12.7298425"><ele>391.0</ele><time>2026-04-26T09:12:45.927Z</time></trkpt><trkpt lat="42.6329077" lon="12.7298232"><ele>398.0</ele><time>2026-04-26T09:12:46.926Z</time></trkpt><trkpt lat="42.6331722" lon="12.7298202"><ele>405.0</ele><time>2026-04-26T09:12:47.927Z</time></trkpt><trkpt lat="42.6334527" lon="12.7298439"><ele>409.0</ele><time>2026-04-26T09:12:48.926Z</time></trkpt><trkpt lat="42.6337326" lon="12.7298853"><ele>413.0</ele><time>2026-04-26T09:12:49.926Z</time></trkpt><trkpt lat="42.634013" lon="12.7299345"><ele>413.0</ele><time>2026-04-26T09:12:50.926Z</time></trkpt><trkpt lat="42.6342898" lon="12.7299927"><ele>413.0</ele><time>2026-04-26T09:12:51.926Z</time></trkpt><trkpt lat="42.6345771" lon="12.7300465"><ele>411.0</ele><time>2026-04-26T09:12:52.926Z</time></trkpt><trkpt lat="42.6348672" lon="12.7300926"><ele>409.0</ele><time>2026-04-26T09:12:53.927Z</time></trkpt><trkpt lat="42.6351477" lon="12.7301444"><ele>409.0</ele><time>2026-04-26T09:12:54.926Z</time></trkpt><trkpt lat="42.6354234" lon="12.7301983"><ele>409.0</ele><time>2026-04-26T09:12:55.926Z</time></trkpt><trkpt lat="42.6356916" lon="12.7302445"><ele>409.0</ele><time>2026-04-26T09:12:56.926Z</time></trkpt><trkpt lat="42.635965" lon="12.7302827"><ele>409.0</ele><time>2026-04-26T09:12:57.925Z</time></trkpt><trkpt lat="42.6362373" lon="12.7303216"><ele>414.5</ele><time>2026-04-26T09:12:58.926Z</time></trkpt><trkpt lat="42.6365063" lon="12.7303572"><ele>420.0</ele><time>2026-04-26T09:12:59.925Z</time></trkpt><trkpt lat="42.6367732" lon="12.7303947"><ele>425.5</ele><time>2026-04-26T09:13:00.925Z</time></trkpt><trkpt lat="42.6370335" lon="12.7304417"><ele>431.0</ele><time>2026-04-26T09:13:01.925Z</time></trkpt><trkpt lat="42.6372793" lon="12.7304874"><ele>431.0</ele><time>2026-04-26T09:13:02.926Z</time></trkpt><trkpt lat="42.6375083" lon="12.7305278"><ele>431.0</ele><time>2026-04-26T09:13:03.925Z</time></trkpt><trkpt lat="42.6377187" lon="12.7305642"><ele>431.0</ele><time>2026-04-26T09:13:04.926Z</time></trkpt><trkpt lat="42.6379167" lon="12.7305718"><ele>433.3333333333333</ele><time>2026-04-26T09:13:05.925Z</time></trkpt><trkpt lat="42.6381163" lon="12.7305307"><ele>435.66666666666663</ele><time>2026-04-26T09:13:06.925Z</time></trkpt><trkpt lat="42.6383357" lon="12.7304494"><ele>438.0</ele><time>2026-04-26T09:13:07.926Z</time></trkpt><trkpt lat="42.6385503" lon="12.7303417"><ele>439.33333333333337</ele><time>2026-04-26T09:13:08.925Z</time></trkpt><trkpt lat="42.6387485" lon="12.7302184"><ele>440.6666666666667</ele><time>2026-04-26T09:13:09.925Z</time></trkpt><trkpt lat="42.6389327" lon="12.7301086"><ele>442.0</ele><time>2026-04-26T09:13:10.925Z</time></trkpt><trkpt lat="42.6391009" lon="12.730023"><ele>442.0</ele><time>2026-04-26T09:13:11.925Z</time></trkpt><trkpt lat="42.639264" lon="12.7299747"><ele>442.0</ele><time>2026-04-26T09:13:12.925Z</time></trkpt><trkpt lat="42.6394326" lon="12.7299563"><ele>442.0</ele><time>2026-04-26T09:13:13.925Z</time></trkpt><trkpt lat="42.6395987" lon="12.7299652"><ele>442.75</ele><time>2026-04-26T09:13:14.926Z</time></trkpt><trkpt lat="42.6397459" lon="12.730008"><ele>443.5</ele><time>2026-04-26T09:13:15.925Z</time></trkpt><trkpt lat="42.6398856" lon="12.7300607"><ele>444.25</ele><time>2026-04-26T09:13:16.925Z</time></trkpt><trkpt lat="42.6400047" lon="12.7301049"><ele>445.0</ele><time>2026-04-26T09:13:17.926Z</time></trkpt><trkpt lat="42.6401058" lon="12.7301394"><ele>445.0</ele><time>2026-04-26T09:13:18.925Z</time></trkpt><trkpt lat="42.6402018" lon="12.730173"><ele>445.0</ele><time>2026-04-26T09:13:19.926Z</time></trkpt><trkpt lat="42.6403252" lon="12.7302137"><ele>445.0</ele><time>2026-04-26T09:13:20.926Z</time></trkpt><trkpt lat="42.6404397" lon="12.7302575"><ele>445.0</ele><time>2026-04-26T09:13:21.925Z</time></trkpt><trkpt lat="42.6405305" lon="12.7302838"><ele>445.0</ele><time>2026-04-26T09:13:22.925Z</time></trkpt><trkpt lat="42.6406205" lon="12.730301"><ele>445.50000000000006</ele><time>2026-04-26T09:13:23.925Z</time></trkpt><trkpt lat="42.640701" lon="12.7303145"><ele>446.0</ele><time>2026-04-26T09:13:24.925Z</time></trkpt><trkpt lat="42.6407665" lon="12.7303016"><ele>446.5</ele><time>2026-04-26T09:13:25.926Z</time></trkpt><trkpt lat="42.6408471" lon="12.7303118"><ele>447.0</ele><time>2026-04-26T09:13:26.926Z</time></trkpt><trkpt lat="42.6409167" lon="12.7302723"><ele>447.50000000000006</ele><time>2026-04-26T09:13:27.925Z</time></trkpt><trkpt lat="42.6409953" lon="12.7302501"><ele>448.0</ele><time>2026-04-26T09:13:28.925Z</time></trkpt><trkpt lat="42.641066" lon="12.7301938"><ele>455.79999999999995</ele><time>2026-04-26T09:13:29.926Z</time></trkpt><trkpt lat="42.641149" lon="12.730139"><ele>463.59999999999997</ele><time>2026-04-26T09:13:30.925Z</time></trkpt><trkpt lat="42.6412424" lon="12.7300617"><ele>471.40000000000003</ele><time>2026-04-26T09:13:31.925Z</time></trkpt><trkpt lat="42.6413461" lon="12.7299976"><ele>479.20000000000005</ele><time>2026-04-26T09:13:32.925Z</time></trkpt><trkpt lat="42.6414469" lon="12.7299506"><ele>487.0</ele><time>2026-04-26T09:13:33.926Z</time></trkpt><trkpt lat="42.6415466" lon="12.7298722"><ele>487.0</ele><time>2026-04-26T09:13:34.925Z</time></trkpt><trkpt lat="42.6416461" lon="12.7298107"><ele>487.0</ele><time>2026-04-26T09:13:35.925Z</time></trkpt><trkpt lat="42.6417249" lon="12.7297765"><ele>487.0</ele><time>2026-04-26T09:13:36.926Z</time></trkpt><trkpt lat="42.6427451" lon="12.7299708"><ele>486.42857142857144</ele><time>2026-04-26T09:13:38.926Z</time></trkpt><trkpt lat="42.6428129" lon="12.7299447"><ele>485.85714285714283</ele><time>2026-04-26T09:14:14.926Z</time></trkpt><trkpt lat="42.6428378" lon="12.7300393"><ele>485.2857142857143</ele><time>2026-04-26T09:14:17.925Z</time></trkpt><trkpt lat="42.6427926" lon="12.7300998"><ele>484.7142857142857</ele><time>2026-04-26T09:14:22.925Z</time></trkpt><trkpt lat="42.6427497" lon="12.7301806"><ele>484.1428571428571</ele><time>2026-04-26T09:14:28.926Z</time></trkpt><trkpt lat="42.642811" lon="12.7302126"><ele>483.57142857142856</ele><time>2026-04-26T09:14:33.925Z</time></trkpt><trkpt lat="42.6428461" lon="12.7301032"><ele>483.0</ele><time>2026-04-26T09:14:36.925Z</time></trkpt><trkpt lat="42.6428476" lon="12.7300067"><ele>481.2</ele><time>2026-04-26T09:15:47.925Z</time></trkpt><trkpt lat="42.6428796" lon="12.7298967"><ele>479.4</ele><time>2026-04-26T09:16:45.925Z</time></trkpt><trkpt lat="42.6429351" lon="12.7298432"><ele>477.59999999999997</ele><time>2026-04-26T09:16:46.925Z</time></trkpt><trkpt lat="42.6430076" lon="12.7297874"><ele>475.79999999999995</ele><time>2026-04-26T09:16:47.926Z</time></trkpt><trkpt lat="42.6430864" lon="12.7297143"><ele>474.0</ele><time>2026-04-26T09:16:48.925Z</time></trkpt><trkpt lat="42.6432037" lon="12.7296323"><ele>474.0</ele><time>2026-04-26T09:16:49.926Z</time></trkpt><trkpt lat="42.6433342" lon="12.7295406"><ele>474.0</ele><time>2026-04-26T09:16:50.925Z</time></trkpt><trkpt lat="42.6434817" lon="12.7294337"><ele>474.0</ele><time>2026-04-26T09:16:51.926Z</time></trkpt><trkpt lat="42.6436533" lon="12.729305"><ele>479.0</ele><time>2026-04-26T09:16:52.925Z</time></trkpt><trkpt lat="42.6438652" lon="12.7291387"><ele>484.0</ele><time>2026-04-26T09:16:53.925Z</time></trkpt><trkpt lat="42.6441016" lon="12.7289263"><ele>484.0</ele><time>2026-04-26T09:16:54.925Z</time></trkpt><trkpt lat="42.6443494" lon="12.7287199"><ele>484.0</ele><time>2026-04-26T09:16:55.925Z</time></trkpt><trkpt lat="42.6445876" lon="12.7285432"><ele>491.5</ele><time>2026-04-26T09:16:56.932Z</time></trkpt><trkpt lat="42.6447877" lon="12.7283826"><ele>499.0</ele><time>2026-04-26T09:16:57.932Z</time></trkpt><trkpt lat="42.6449698" lon="12.7282189"><ele>499.0</ele><time>2026-04-26T09:16:58.932Z</time></trkpt><trkpt lat="42.6451368" lon="12.7280753"><ele>499.0</ele><time>2026-04-26T09:16:59.933Z</time></trkpt><trkpt lat="42.6453004" lon="12.7279356"><ele>499.0</ele><time>2026-04-26T09:17:00.932Z</time></trkpt><trkpt lat="42.6454565" lon="12.7278023"><ele>505.0</ele><time>2026-04-26T09:17:01.932Z</time></trkpt><trkpt lat="42.6456103" lon="12.7276814"><ele>511.0</ele><time>2026-04-26T09:17:02.932Z</time></trkpt><trkpt lat="42.6457672" lon="12.7276051"><ele>517.0</ele><time>2026-04-26T09:17:03.932Z</time></trkpt><trkpt lat="42.6459312" lon="12.7275611"><ele>517.0</ele><time>2026-04-26T09:17:04.932Z</time></trkpt><trkpt lat="42.6460925" lon="12.7275497"><ele>517.0</ele><time>2026-04-26T09:17:05.932Z</time></trkpt><trkpt lat="42.6462609" lon="12.7275845"><ele>517.0</ele><time>2026-04-26T09:17:06.932Z</time></trkpt><trkpt lat="42.6464216" lon="12.7276544"><ele>512.3333333333334</ele><time>2026-04-26T09:17:07.932Z</time></trkpt><trkpt lat="42.6465784" lon="12.7277749"><ele>507.66666666666663</ele><time>2026-04-26T09:17:08.932Z</time></trkpt><trkpt lat="42.6467377" lon="12.7279252"><ele>503.0</ele><time>2026-04-26T09:17:09.933Z</time></trkpt><trkpt lat="42.6468955" lon="12.7280945"><ele>510.3333333333333</ele><time>2026-04-26T09:17:10.932Z</time></trkpt><trkpt lat="42.6470384" lon="12.7282756"><ele>517.6666666666666</ele><time>2026-04-26T09:17:11.932Z</time></trkpt><trkpt lat="42.6471434" lon="12.7284728"><ele>525.0</ele><time>2026-04-26T09:17:12.932Z</time></trkpt><trkpt lat="42.647213" lon="12.7286812"><ele>525.0</ele><time>2026-04-26T09:17:13.932Z</time></trkpt><trkpt lat="42.6472537" lon="12.728906"><ele>525.0</ele><time>2026-04-26T09:17:14.932Z</time></trkpt><trkpt lat="42.6472581" lon="12.7291378"><ele>525.0</ele><time>2026-04-26T09:17:15.932Z</time></trkpt><trkpt lat="42.6472199" lon="12.7293928"><ele>531.3333333333334</ele><time>2026-04-26T09:17:16.932Z</time></trkpt><trkpt lat="42.6471429" lon="12.7296474"><ele>537.6666666666667</ele><time>2026-04-26T09:17:17.932Z</time></trkpt><trkpt lat="42.6470362" lon="12.7299052"><ele>544.0</ele><time>2026-04-26T09:17:18.932Z</time></trkpt><trkpt lat="42.6469197" lon="12.7301627"><ele>534.3333333333334</ele><time>2026-04-26T09:17:19.933Z</time></trkpt><trkpt lat="42.6468207" lon="12.7304234"><ele>524.6666666666666</ele><time>2026-04-26T09:17:20.932Z</time></trkpt><trkpt lat="42.6467376" lon="12.7306871"><ele>515.0</ele><time>2026-04-26T09:17:21.932Z</time></trkpt><trkpt lat="42.6466942" lon="12.7309603"><ele>515.3333333333333</ele><time>2026-04-26T09:17:22.932Z</time></trkpt><trkpt lat="42.6466834" lon="12.7312358"><ele>515.6666666666666</ele><time>2026-04-26T09:17:23.932Z</time></trkpt><trkpt lat="42.6467239" lon="12.7315151"><ele>516.0</ele><time>2026-04-26T09:17:24.933Z</time></trkpt><trkpt lat="42.6467986" lon="12.7317674"><ele>508.0</ele><time>2026-04-26T09:17:25.932Z</time></trkpt><trkpt lat="42.6469172" lon="12.7320008"><ele>500.0</ele><time>2026-04-26T09:17:26.932Z</time></trkpt><trkpt lat="42.6470736" lon="12.7322075"><ele>492.0</ele><time>2026-04-26T09:17:27.932Z</time></trkpt><trkpt lat="42.6472651" lon="12.7324304"><ele>496.5</ele><time>2026-04-26T09:17:28.932Z</time></trkpt><trkpt lat="42.6474726" lon="12.7326427"><ele>501.0</ele><time>2026-04-26T09:17:29.933Z</time></trkpt><trkpt lat="42.6476939" lon="12.7328669"><ele>520.5</ele><time>2026-04-26T09:17:30.932Z</time></trkpt><trkpt lat="42.6479089" lon="12.7330833"><ele>540.0</ele><time>2026-04-26T09:17:31.932Z</time></trkpt><trkpt lat="42.6481198" lon="12.7332848"><ele>540.0</ele><time>2026-04-26T09:17:32.932Z</time></trkpt><trkpt lat="42.648318" lon="12.7334541"><ele>540.0</ele><time>2026-04-26T09:17:33.933Z</time></trkpt><trkpt lat="42.6485191" lon="12.7335852"><ele>530.0</ele><time>2026-04-26T09:17:34.932Z</time></trkpt><trkpt lat="42.6487335" lon="12.7336711"><ele>520.0</ele><time>2026-04-26T09:17:35.932Z</time></trkpt><trkpt lat="42.6489637" lon="12.7337148"><ele>520.0</ele><time>2026-04-26T09:17:36.932Z</time></trkpt><trkpt lat="42.6492132" lon="12.7337106"><ele>520.0</ele><time>2026-04-26T09:17:37.932Z</time></trkpt><trkpt lat="42.6494727" lon="12.7336594"><ele>520.5</ele><time>2026-04-26T09:17:38.932Z</time></trkpt><trkpt lat="42.6497439" lon="12.733592"><ele>521.0</ele><time>2026-04-26T09:17:39.932Z</time></trkpt><trkpt lat="42.6500378" lon="12.7335217"><ele>539.0</ele><time>2026-04-26T09:17:40.932Z</time></trkpt><trkpt lat="42.6503635" lon="12.7334585"><ele>557.0</ele><time>2026-04-26T09:17:41.932Z</time></trkpt><trkpt lat="42.6507089" lon="12.7333814"><ele>557.0</ele><time>2026-04-26T09:17:42.932Z</time></trkpt><trkpt lat="42.6510685" lon="12.7332926"><ele>557.0</ele><time>2026-04-26T09:17:43.933Z</time></trkpt><trkpt lat="42.6513668" lon="12.7332268"><ele>556.0</ele><time>2026-04-26T09:17:44.932Z</time></trkpt><trkpt lat="42.6516717" lon="12.7331159"><ele>555.0</ele><time>2026-04-26T09:17:45.932Z</time></trkpt><trkpt lat="42.6519765" lon="12.7329874"><ele>549.0</ele><time>2026-04-26T09:17:46.932Z</time></trkpt><trkpt lat="42.6522832" lon="12.7328364"><ele>543.0</ele><time>2026-04-26T09:17:47.932Z</time></trkpt><trkpt lat="42.6525701" lon="12.7326759"><ele>549.5</ele><time>2026-04-26T09:17:48.933Z</time></trkpt><trkpt lat="42.6528496" lon="12.7325347"><ele>556.0</ele><time>2026-04-26T09:17:49.932Z</time></trkpt><trkpt lat="42.6531194" lon="12.732389"><ele>556.0</ele><time>2026-04-26T09:17:50.932Z</time></trkpt><trkpt lat="42.6533811" lon="12.7322641"><ele>556.0</ele><time>2026-04-26T09:17:51.932Z</time></trkpt><trkpt lat="42.6536399" lon="12.7321593"><ele>551.5</ele><time>2026-04-26T09:17:52.932Z</time></trkpt><trkpt lat="42.6539152" lon="12.732073"><ele>547.0</ele><time>2026-04-26T09:17:53.932Z</time></trkpt><trkpt lat="42.6541929" lon="12.7320197"><ele>550.5</ele><time>2026-04-26T09:17:54.932Z</time></trkpt><trkpt lat="42.654479" lon="12.731996"><ele>554.0</ele><time>2026-04-26T09:17:55.932Z</time></trkpt><trkpt lat="42.6547642" lon="12.7319986"><ele>554.0</ele><time>2026-04-26T09:17:56.932Z</time></trkpt><trkpt lat="42.6550528" lon="12.7320248"><ele>554.0</ele><time>2026-04-26T09:17:57.932Z</time></trkpt><trkpt lat="42.6553372" lon="12.7320717"><ele>561.0</ele><time>2026-04-26T09:17:58.932Z</time></trkpt><trkpt lat="42.6556242" lon="12.7321169"><ele>568.0</ele><time>2026-04-26T09:17:59.932Z</time></trkpt><trkpt lat="42.6559184" lon="12.732172"><ele>575.0</ele><time>2026-04-26T09:18:00.932Z</time></trkpt><trkpt lat="42.6562081" lon="12.7322162"><ele>582.0</ele><time>2026-04-26T09:18:01.932Z</time></trkpt><trkpt lat="42.6565078" lon="12.7322614"><ele>582.0</ele><time>2026-04-26T09:18:02.932Z</time></trkpt><trkpt lat="42.6568004" lon="12.7322992"><ele>582.0</ele><time>2026-04-26T09:18:03.932Z</time></trkpt><trkpt lat="42.657065" lon="12.7323485"><ele>587.5</ele><time>2026-04-26T09:18:04.932Z</time></trkpt><trkpt lat="42.657316" lon="12.732377"><ele>593.0</ele><time>2026-04-26T09:18:05.932Z</time></trkpt><trkpt lat="42.6575503" lon="12.7323834"><ele>593.0</ele><time>2026-04-26T09:18:06.932Z</time></trkpt><trkpt lat="42.6577717" lon="12.7323534"><ele>593.0</ele><time>2026-04-26T09:18:07.932Z</time></trkpt><trkpt lat="42.6579817" lon="12.732297"><ele>593.0</ele><time>2026-04-26T09:18:08.933Z</time></trkpt><trkpt lat="42.6581856" lon="12.7321819"><ele>588.5</ele><time>2026-04-26T09:18:09.932Z</time></trkpt><trkpt lat="42.6583854" lon="12.7320223"><ele>584.0</ele><time>2026-04-26T09:18:10.933Z</time></trkpt><trkpt lat="42.658568" lon="12.7318346"><ele>588.0</ele><time>2026-04-26T09:18:11.932Z</time></trkpt><trkpt lat="42.6587524" lon="12.7316248"><ele>592.0</ele><time>2026-04-26T09:18:12.932Z</time></trkpt><trkpt lat="42.6589306" lon="12.7314231"><ele>592.0</ele><time>2026-04-26T09:18:13.932Z</time></trkpt><trkpt lat="42.6591236" lon="12.7312512"><ele>592.0</ele><time>2026-04-26T09:18:14.932Z</time></trkpt><trkpt lat="42.6593237" lon="12.7311089"><ele>600.6666666666667</ele><time>2026-04-26T09:18:15.932Z</time></trkpt><trkpt lat="42.6595234" lon="12.7310214"><ele>609.3333333333334</ele><time>2026-04-26T09:18:16.932Z</time></trkpt><trkpt lat="42.6597503" lon="12.7309604"><ele>618.0</ele><time>2026-04-26T09:18:17.932Z</time></trkpt><trkpt lat="42.6599741" lon="12.7309265"><ele>618.0</ele><time>2026-04-26T09:18:18.932Z</time></trkpt><trkpt lat="42.6602065" lon="12.7309064"><ele>618.0</ele><time>2026-04-26T09:18:19.932Z</time></trkpt><trkpt lat="42.6604314" lon="12.7308899"><ele>618.6666666666666</ele><time>2026-04-26T09:18:20.932Z</time></trkpt><trkpt lat="42.6606457" lon="12.7308647"><ele>619.3333333333333</ele><time>2026-04-26T09:18:21.932Z</time></trkpt><trkpt lat="42.6608526" lon="12.7308123"><ele>620.0</ele><time>2026-04-26T09:18:22.932Z</time></trkpt><trkpt lat="42.6610419" lon="12.7307108"><ele>622.3333333333333</ele><time>2026-04-26T09:18:23.932Z</time></trkpt><trkpt lat="42.6612146" lon="12.7305672"><ele>624.6666666666666</ele><time>2026-04-26T09:18:24.932Z</time></trkpt><trkpt lat="42.6613701" lon="12.7303808"><ele>627.0</ele><time>2026-04-26T09:18:25.932Z</time></trkpt><trkpt lat="42.6615216" lon="12.7301627"><ele>627.0</ele><time>2026-04-26T09:18:26.933Z</time></trkpt><trkpt lat="42.6616742" lon="12.7299196"><ele>627.0</ele><time>2026-04-26T09:18:27.932Z</time></trkpt><trkpt lat="42.6618272" lon="12.729686"><ele>622.5</ele><time>2026-04-26T09:18:28.933Z</time></trkpt><trkpt lat="42.6619982" lon="12.7294774"><ele>618.0</ele><time>2026-04-26T09:18:29.932Z</time></trkpt><trkpt lat="42.6621929" lon="12.7292885"><ele>629.0</ele><time>2026-04-26T09:18:30.932Z</time></trkpt><trkpt lat="42.6624007" lon="12.729121"><ele>640.0</ele><time>2026-04-26T09:18:31.932Z</time></trkpt><trkpt lat="42.6626229" lon="12.7289683"><ele>636.0</ele><time>2026-04-26T09:18:32.932Z</time></trkpt><trkpt lat="42.6628542" lon="12.7288228"><ele>632.0</ele><time>2026-04-26T09:18:33.932Z</time></trkpt><trkpt lat="42.6630883" lon="12.7286748"><ele>641.5</ele><time>2026-04-26T09:18:34.933Z</time></trkpt><trkpt lat="42.663311" lon="12.7285385"><ele>651.0</ele><time>2026-04-26T09:18:35.932Z</time></trkpt><trkpt lat="42.6635253" lon="12.728427"><ele>648.3333333333334</ele><time>2026-04-26T09:18:36.932Z</time></trkpt><trkpt lat="42.6637219" lon="12.7283609"><ele>645.6666666666667</ele><time>2026-04-26T09:18:37.932Z</time></trkpt><trkpt lat="42.6639116" lon="12.7283218"><ele>643.0</ele><time>2026-04-26T09:18:38.933Z</time></trkpt><trkpt lat="42.6640965" lon="12.7283104"><ele>643.0</ele><time>2026-04-26T09:18:39.932Z</time></trkpt><trkpt lat="42.6642879" lon="12.7283373"><ele>643.0</ele><time>2026-04-26T09:18:40.932Z</time></trkpt><trkpt lat="42.6644769" lon="12.7283766"><ele>643.0</ele><time>2026-04-26T09:18:41.932Z</time></trkpt><trkpt lat="42.664667" lon="12.7284122"><ele>650.0</ele><time>2026-04-26T09:18:42.932Z</time></trkpt><trkpt lat="42.6648571" lon="12.7284385"><ele>657.0</ele><time>2026-04-26T09:18:43.932Z</time></trkpt><trkpt lat="42.6650515" lon="12.7284562"><ele>664.0</ele><time>2026-04-26T09:18:44.932Z</time></trkpt><trkpt lat="42.6652515" lon="12.7284837"><ele>668.3333333333334</ele><time>2026-04-26T09:18:45.932Z</time></trkpt><trkpt lat="42.6654613" lon="12.7285201"><ele>672.6666666666666</ele><time>2026-04-26T09:18:46.932Z</time></trkpt><trkpt lat="42.6656749" lon="12.7285563"><ele>677.0</ele><time>2026-04-26T09:18:47.932Z</time></trkpt><trkpt lat="42.6658926" lon="12.7286007"><ele>647.0</ele><time>2026-04-26T09:18:48.932Z</time></trkpt><trkpt lat="42.6669748" lon="12.7289535"><ele>647.0</ele><time>2026-04-26T09:18:53.932Z</time></trkpt><trkpt lat="42.6671516" lon="12.729068"><ele>647.0</ele><time>2026-04-26T09:18:54.932Z</time></trkpt><trkpt lat="42.6672755" lon="12.7292582"><ele>647.0</ele><time>2026-04-26T09:18:55.932Z</time></trkpt><trkpt lat="42.6673847" lon="12.7294856"><ele>651.5</ele><time>2026-04-26T09:18:56.932Z</time></trkpt><trkpt lat="42.6674836" lon="12.7297604"><ele>656.0</ele><time>2026-04-26T09:18:57.932Z</time></trkpt><trkpt lat="42.6675524" lon="12.730077"><ele>658.0</ele><time>2026-04-26T09:18:58.932Z</time></trkpt><trkpt lat="42.6676332" lon="12.7304067"><ele>660.0</ele><time>2026-04-26T09:18:59.933Z</time></trkpt><trkpt lat="42.6677066" lon="12.730732"><ele>660.0</ele><time>2026-04-26T09:19:00.932Z</time></trkpt><trkpt lat="42.6677739" lon="12.7310374"><ele>660.0</ele><time>2026-04-26T09:19:01.932Z</time></trkpt><trkpt lat="42.6678348" lon="12.7313228"><ele>649.6666666666666</ele><time>2026-04-26T09:19:02.933Z</time></trkpt><trkpt lat="42.6678648" lon="12.7315933"><ele>639.3333333333333</ele><time>2026-04-26T09:19:03.932Z</time></trkpt><trkpt lat="42.6678571" lon="12.7318585"><ele>629.0</ele><time>2026-04-26T09:19:04.932Z</time></trkpt><trkpt lat="42.6678044" lon="12.7321116"><ele>631.6666666666666</ele><time>2026-04-26T09:19:05.932Z</time></trkpt><trkpt lat="42.6677202" lon="12.732362"><ele>634.3333333333334</ele><time>2026-04-26T09:19:06.933Z</time></trkpt><trkpt lat="42.6675949" lon="12.7326025"><ele>637.0</ele><time>2026-04-26T09:19:07.932Z</time></trkpt><trkpt lat="42.6674391" lon="12.7328112"><ele>637.0</ele><time>2026-04-26T09:19:08.932Z</time></trkpt><trkpt lat="42.6672618" lon="12.7330185"><ele>637.0</ele><time>2026-04-26T09:19:09.932Z</time></trkpt><trkpt lat="42.6670778" lon="12.7332245"><ele>636.6666666666667</ele><time>2026-04-26T09:19:10.932Z</time></trkpt><trkpt lat="42.6669028" lon="12.7334162"><ele>636.3333333333334</ele><time>2026-04-26T09:19:11.932Z</time></trkpt><trkpt lat="42.6667494" lon="12.7335942"><ele>636.0</ele><time>2026-04-26T09:19:12.932Z</time></trkpt><trkpt lat="42.6666132" lon="12.7337658"><ele>636.0</ele><time>2026-04-26T09:19:13.932Z</time></trkpt><trkpt lat="42.6665121" lon="12.7339458"><ele>636.0</ele><time>2026-04-26T09:19:14.932Z</time></trkpt><trkpt lat="42.6664497" lon="12.7341439"><ele>636.0</ele><time>2026-04-26T09:19:15.932Z</time></trkpt><trkpt lat="42.666416" lon="12.7343601"><ele>635.0</ele><time>2026-04-26T09:19:16.932Z</time></trkpt><trkpt lat="42.6664362" lon="12.7345926"><ele>634.0</ele><time>2026-04-26T09:19:17.932Z</time></trkpt><trkpt lat="42.6664944" lon="12.7348125"><ele>633.0</ele><time>2026-04-26T09:19:18.933Z</time></trkpt><trkpt lat="42.666584" lon="12.7349999"><ele>633.0</ele><time>2026-04-26T09:19:19.932Z</time></trkpt><trkpt lat="42.666702" lon="12.7351477"><ele>633.0</ele><time>2026-04-26T09:19:20.933Z</time></trkpt><trkpt lat="42.6668615" lon="12.7352515"><ele>633.0</ele><time>2026-04-26T09:19:21.932Z</time></trkpt><trkpt lat="42.6670151" lon="12.7352997"><ele>631.6666666666666</ele><time>2026-04-26T09:19:22.932Z</time></trkpt><trkpt lat="42.6671787" lon="12.7352868"><ele>630.3333333333333</ele><time>2026-04-26T09:19:23.932Z</time></trkpt><trkpt lat="42.667341" lon="12.7352139"><ele>629.0</ele><time>2026-04-26T09:19:24.932Z</time></trkpt><trkpt lat="42.6674835" lon="12.735102"><ele>629.0</ele><time>2026-04-26T09:19:25.933Z</time></trkpt><trkpt lat="42.6675901" lon="12.7349812"><ele>629.0</ele><time>2026-04-26T09:19:26.933Z</time></trkpt><trkpt lat="42.6676705" lon="12.7348577"><ele>629.0</ele><time>2026-04-26T09:19:27.932Z</time></trkpt><trkpt lat="42.6677497" lon="12.7347215"><ele>629.0</ele><time>2026-04-26T09:19:28.932Z</time></trkpt><trkpt lat="42.6678328" lon="12.7345949"><ele>629.25</ele><time>2026-04-26T09:19:29.932Z</time></trkpt><trkpt lat="42.6679144" lon="12.7344647"><ele>629.5</ele><time>2026-04-26T09:19:30.932Z</time></trkpt><trkpt lat="42.6679958" lon="12.7343291"><ele>629.75</ele><time>2026-04-26T09:19:31.932Z</time></trkpt><trkpt lat="42.6680775" lon="12.7342014"><ele>630.0</ele><time>2026-04-26T09:19:32.933Z</time></trkpt><trkpt lat="42.6681666" lon="12.7340834"><ele>628.75</ele><time>2026-04-26T09:19:33.933Z</time></trkpt><trkpt lat="42.6682587" lon="12.7339556"><ele>627.5</ele><time>2026-04-26T09:19:34.932Z</time></trkpt><trkpt lat="42.6683486" lon="12.7338194"><ele>626.25</ele><time>2026-04-26T09:19:35.932Z</time></trkpt><trkpt lat="42.6684435" lon="12.7336786"><ele>625.0</ele><time>2026-04-26T09:19:36.932Z</time></trkpt><trkpt lat="42.6685495" lon="12.7335234"><ele>623.6666666666667</ele><time>2026-04-26T09:19:37.932Z</time></trkpt><trkpt lat="42.6686653" lon="12.7333489"><ele>622.3333333333334</ele><time>2026-04-26T09:19:38.932Z</time></trkpt><trkpt lat="42.6687906" lon="12.7331528"><ele>621.0</ele><time>2026-04-26T09:19:39.932Z</time></trkpt><trkpt lat="42.6689088" lon="12.7329271"><ele>619.3333333333334</ele><time>2026-04-26T09:19:40.932Z</time></trkpt><trkpt lat="42.669018" lon="12.7326745"><ele>617.6666666666667</ele><time>2026-04-26T09:19:41.932Z</time></trkpt><trkpt lat="42.6691212" lon="12.7323977"><ele>616.0</ele><time>2026-04-26T09:19:42.932Z</time></trkpt><trkpt lat="42.6692143" lon="12.7321066"><ele>612.5</ele><time>2026-04-26T09:19:43.932Z</time></trkpt><trkpt lat="42.6693067" lon="12.7317895"><ele>609.0</ele><time>2026-04-26T09:19:44.932Z</time></trkpt><trkpt lat="42.6694014" lon="12.7314585"><ele>615.5</ele><time>2026-04-26T09:19:45.932Z</time></trkpt><trkpt lat="42.669504" lon="12.7311191"><ele>622.0</ele><time>2026-04-26T09:19:46.933Z</time></trkpt><trkpt lat="42.669604" lon="12.7308057"><ele>622.0</ele><time>2026-04-26T09:19:47.932Z</time></trkpt><trkpt lat="42.6696974" lon="12.7304987"><ele>622.0</ele><time>2026-04-26T09:19:48.933Z</time></trkpt><trkpt lat="42.669789" lon="12.7302041"><ele>616.6666666666667</ele><time>2026-04-26T09:19:49.932Z</time></trkpt><trkpt lat="42.669882" lon="12.7299267"><ele>611.3333333333334</ele><time>2026-04-26T09:19:50.932Z</time></trkpt><trkpt lat="42.6699836" lon="12.7296717"><ele>606.0</ele><time>2026-04-26T09:19:51.932Z</time></trkpt><trkpt lat="42.6701004" lon="12.7294363"><ele>604.6666666666666</ele><time>2026-04-26T09:19:52.932Z</time></trkpt><trkpt lat="42.6702438" lon="12.7292298"><ele>603.3333333333333</ele><time>2026-04-26T09:19:53.932Z</time></trkpt><trkpt lat="42.6704166" lon="12.7290654"><ele>602.0</ele><time>2026-04-26T09:19:54.932Z</time></trkpt><trkpt lat="42.6706087" lon="12.728929"><ele>602.0</ele><time>2026-04-26T09:19:55.933Z</time></trkpt><trkpt lat="42.6708186" lon="12.7288269"><ele>602.0</ele><time>2026-04-26T09:19:56.932Z</time></trkpt><trkpt lat="42.6710375" lon="12.7287676"><ele>602.0</ele><time>2026-04-26T09:19:57.933Z</time></trkpt><trkpt lat="42.6712534" lon="12.7287448"><ele>596.6666666666666</ele><time>2026-04-26T09:19:58.933Z</time></trkpt><trkpt lat="42.6714619" lon="12.7287187"><ele>591.3333333333334</ele><time>2026-04-26T09:19:59.933Z</time></trkpt><trkpt lat="42.671663" lon="12.7286756"><ele>586.0</ele><time>2026-04-26T09:20:00.932Z</time></trkpt><trkpt lat="42.671859" lon="12.728595"><ele>584.6666666666667</ele><time>2026-04-26T09:20:01.933Z</time></trkpt><trkpt lat="42.6720577" lon="12.7284709"><ele>583.3333333333334</ele><time>2026-04-26T09:20:02.933Z</time></trkpt><trkpt lat="42.672248" lon="12.7283008"><ele>582.0</ele><time>2026-04-26T09:20:03.933Z</time></trkpt><trkpt lat="42.6724265" lon="12.7280897"><ele>582.0</ele><time>2026-04-26T09:20:04.933Z</time></trkpt><trkpt lat="42.6725941" lon="12.727836"><ele>582.0</ele><time>2026-04-26T09:20:05.933Z</time></trkpt><trkpt lat="42.6727689" lon="12.7275823"><ele>584.0</ele><time>2026-04-26T09:20:06.933Z</time></trkpt><trkpt lat="42.6729541" lon="12.7273584"><ele>586.0</ele><time>2026-04-26T09:20:07.932Z</time></trkpt><trkpt lat="42.6731678" lon="12.7271705"><ele>586.0</ele><time>2026-04-26T09:20:08.932Z</time></trkpt><trkpt lat="42.6733987" lon="12.7269993"><ele>586.0</ele><time>2026-04-26T09:20:09.932Z</time></trkpt><trkpt lat="42.673648" lon="12.7268505"><ele>581.5</ele><time>2026-04-26T09:20:10.932Z</time></trkpt><trkpt lat="42.6739083" lon="12.726712"><ele>577.0</ele><time>2026-04-26T09:20:11.932Z</time></trkpt><trkpt lat="42.6741693" lon="12.7265687"><ele>577.0</ele><time>2026-04-26T09:20:12.932Z</time></trkpt><trkpt lat="42.6744309" lon="12.7264261"><ele>577.0</ele><time>2026-04-26T09:20:13.932Z</time></trkpt><trkpt lat="42.6746887" lon="12.7262817"><ele>580.0</ele><time>2026-04-26T09:20:14.933Z</time></trkpt><trkpt lat="42.6749487" lon="12.7261422"><ele>583.0</ele><time>2026-04-26T09:20:15.932Z</time></trkpt><trkpt lat="42.6751986" lon="12.7260037"><ele>568.5</ele><time>2026-04-26T09:20:16.932Z</time></trkpt><trkpt lat="42.6754396" lon="12.7258772"><ele>554.0</ele><time>2026-04-26T09:20:17.932Z</time></trkpt><trkpt lat="42.6756622" lon="12.7257576"><ele>554.0</ele><time>2026-04-26T09:20:18.932Z</time></trkpt><trkpt lat="42.6758819" lon="12.7256457"><ele>554.0</ele><time>2026-04-26T09:20:19.932Z</time></trkpt><trkpt lat="42.6761003" lon="12.7255504"><ele>549.5</ele><time>2026-04-26T09:20:20.932Z</time></trkpt><trkpt lat="42.6763333" lon="12.7254901"><ele>545.0</ele><time>2026-04-26T09:20:21.932Z</time></trkpt><trkpt lat="42.6765744" lon="12.7254579"><ele>545.0</ele><time>2026-04-26T09:20:22.932Z</time></trkpt><trkpt lat="42.6768349" lon="12.7254555"><ele>545.0</ele><time>2026-04-26T09:20:23.932Z</time></trkpt><trkpt lat="42.6770972" lon="12.7254918"><ele>546.0</ele><time>2026-04-26T09:20:24.932Z</time></trkpt><trkpt lat="42.6773697" lon="12.7255496"><ele>547.0</ele><time>2026-04-26T09:20:25.932Z</time></trkpt><trkpt lat="42.6776449" lon="12.7256165"><ele>548.0</ele><time>2026-04-26T09:20:26.932Z</time></trkpt><trkpt lat="42.6779258" lon="12.7256735"><ele>549.0</ele><time>2026-04-26T09:20:27.932Z</time></trkpt><trkpt lat="42.6782026" lon="12.7257381"><ele>549.0</ele><time>2026-04-26T09:20:28.933Z</time></trkpt><trkpt lat="42.6784849" lon="12.7258035"><ele>549.0</ele><time>2026-04-26T09:20:29.932Z</time></trkpt><trkpt lat="42.6787643" lon="12.725865"><ele>552.5</ele><time>2026-04-26T09:20:30.932Z</time></trkpt><trkpt lat="42.6790376" lon="12.7259376"><ele>556.0</ele><time>2026-04-26T09:20:31.932Z</time></trkpt><trkpt lat="42.6793128" lon="12.7260338"><ele>544.5</ele><time>2026-04-26T09:20:32.932Z</time></trkpt><trkpt lat="42.679587" lon="12.7261507"><ele>533.0</ele><time>2026-04-26T09:20:33.933Z</time></trkpt><trkpt lat="42.6798478" lon="12.7262852"><ele>533.0</ele><time>2026-04-26T09:20:34.932Z</time></trkpt><trkpt lat="42.680098" lon="12.7264238"><ele>533.0</ele><time>2026-04-26T09:20:35.933Z</time></trkpt><trkpt lat="42.6803286" lon="12.7265538"><ele>536.0</ele><time>2026-04-26T09:20:36.932Z</time></trkpt><trkpt lat="42.6805606" lon="12.7266794"><ele>539.0</ele><time>2026-04-26T09:20:37.933Z</time></trkpt><trkpt lat="42.6807958" lon="12.7267882"><ele>539.0</ele><time>2026-04-26T09:20:38.932Z</time></trkpt><trkpt lat="42.681039" lon="12.7268775"><ele>539.0</ele><time>2026-04-26T09:20:39.932Z</time></trkpt><trkpt lat="42.6812902" lon="12.7269496"><ele>528.0</ele><time>2026-04-26T09:20:40.933Z</time></trkpt><trkpt lat="42.6815468" lon="12.7269944"><ele>517.0</ele><time>2026-04-26T09:20:41.932Z</time></trkpt><trkpt lat="42.6818179" lon="12.7270084"><ele>515.5</ele><time>2026-04-26T09:20:42.932Z</time></trkpt><trkpt lat="42.6821016" lon="12.7270085"><ele>514.0</ele><time>2026-04-26T09:20:43.932Z</time></trkpt><trkpt lat="42.682385" lon="12.7270078"><ele>514.0</ele><time>2026-04-26T09:20:44.932Z</time></trkpt><trkpt lat="42.6826667" lon="12.7270073"><ele>514.0</ele><time>2026-04-26T09:20:45.933Z</time></trkpt><trkpt lat="42.6829363" lon="12.7270033"><ele>510.5</ele><time>2026-04-26T09:20:46.933Z</time></trkpt><trkpt lat="42.6831972" lon="12.7269788"><ele>507.0</ele><time>2026-04-26T09:20:47.932Z</time></trkpt><trkpt lat="42.6834528" lon="12.7269187"><ele>509.0</ele><time>2026-04-26T09:20:48.932Z</time></trkpt><trkpt lat="42.683708" lon="12.7268163"><ele>511.0</ele><time>2026-04-26T09:20:49.933Z</time></trkpt><trkpt lat="42.6839628" lon="12.7266836"><ele>511.0</ele><time>2026-04-26T09:20:50.932Z</time></trkpt><trkpt lat="42.6842194" lon="12.7265074"><ele>511.0</ele><time>2026-04-26T09:20:51.932Z</time></trkpt><trkpt lat="42.6844805" lon="12.726317"><ele>501.0</ele><time>2026-04-26T09:20:52.932Z</time></trkpt><trkpt lat="42.6847552" lon="12.72613"><ele>491.0</ele><time>2026-04-26T09:20:53.932Z</time></trkpt><trkpt lat="42.685021" lon="12.72596"><ele>488.0</ele><time>2026-04-26T09:20:54.932Z</time></trkpt><trkpt lat="42.6852805" lon="12.7257962"><ele>485.0</ele><time>2026-04-26T09:20:55.932Z</time></trkpt><trkpt lat="42.6855424" lon="12.7256538"><ele>485.0</ele><time>2026-04-26T09:20:56.932Z</time></trkpt><trkpt lat="42.6858123" lon="12.7255238"><ele>485.0</ele><time>2026-04-26T09:20:57.932Z</time></trkpt><trkpt lat="42.6860904" lon="12.7254103"><ele>484.0</ele><time>2026-04-26T09:20:58.932Z</time></trkpt><trkpt lat="42.6863757" lon="12.7253046"><ele>483.0</ele><time>2026-04-26T09:20:59.932Z</time></trkpt><trkpt lat="42.6866593" lon="12.7252041"><ele>494.5</ele><time>2026-04-26T09:21:00.933Z</time></trkpt><trkpt lat="42.6869398" lon="12.7250986"><ele>506.0</ele><time>2026-04-26T09:21:01.932Z</time></trkpt><trkpt lat="42.687204" lon="12.7249907"><ele>506.0</ele><time>2026-04-26T09:21:02.933Z</time></trkpt><trkpt lat="42.6874553" lon="12.7248902"><ele>506.0</ele><time>2026-04-26T09:21:03.933Z</time></trkpt><trkpt lat="42.687694" lon="12.7247858"><ele>492.0</ele><time>2026-04-26T09:21:04.932Z</time></trkpt><trkpt lat="42.6879259" lon="12.7246364"><ele>478.0</ele><time>2026-04-26T09:21:05.932Z</time></trkpt><trkpt lat="42.6881431" lon="12.7244507"><ele>490.0</ele><time>2026-04-26T09:21:06.932Z</time></trkpt><trkpt lat="42.6883368" lon="12.7242033"><ele>502.0</ele><time>2026-04-26T09:21:07.932Z</time></trkpt><trkpt lat="42.6885143" lon="12.7239229"><ele>494.0</ele><time>2026-04-26T09:21:08.932Z</time></trkpt><trkpt lat="42.6886836" lon="12.723639"><ele>486.0</ele><time>2026-04-26T09:21:09.933Z</time></trkpt><trkpt lat="42.6888531" lon="12.7233547"><ele>486.0</ele><time>2026-04-26T09:21:10.933Z</time></trkpt><trkpt lat="42.6890264" lon="12.723087"><ele>486.0</ele><time>2026-04-26T09:21:11.932Z</time></trkpt><trkpt lat="42.6891942" lon="12.7228238"><ele>481.0</ele><time>2026-04-26T09:21:12.932Z</time></trkpt><trkpt lat="42.6893564" lon="12.7225774"><ele>476.0</ele><time>2026-04-26T09:21:13.933Z</time></trkpt><trkpt lat="42.6895219" lon="12.7223568"><ele>476.0</ele><time>2026-04-26T09:21:14.932Z</time></trkpt><trkpt lat="42.6896992" lon="12.7221764"><ele>476.0</ele><time>2026-04-26T09:21:15.932Z</time></trkpt><trkpt lat="42.6899118" lon="12.7220251"><ele>484.0</ele><time>2026-04-26T09:21:16.932Z</time></trkpt><trkpt lat="42.6901592" lon="12.7218978"><ele>492.0</ele><time>2026-04-26T09:21:17.933Z</time></trkpt><trkpt lat="42.690431" lon="12.7217956"><ele>492.0</ele><time>2026-04-26T09:21:18.932Z</time></trkpt><trkpt lat="42.6906874" lon="12.7216911"><ele>492.0</ele><time>2026-04-26T09:21:19.933Z</time></trkpt><trkpt lat="42.6909513" lon="12.721588"><ele>487.5</ele><time>2026-04-26T09:21:20.932Z</time></trkpt><trkpt lat="42.6912091" lon="12.7214948"><ele>483.0</ele><time>2026-04-26T09:21:21.932Z</time></trkpt><trkpt lat="42.6914547" lon="12.7214346"><ele>483.0</ele><time>2026-04-26T09:21:22.933Z</time></trkpt><trkpt lat="42.6917019" lon="12.7214132"><ele>483.0</ele><time>2026-04-26T09:21:23.933Z</time></trkpt><trkpt lat="42.6919685" lon="12.7214202"><ele>480.5</ele><time>2026-04-26T09:21:24.932Z</time></trkpt><trkpt lat="42.6922243" lon="12.7214433"><ele>478.0</ele><time>2026-04-26T09:21:25.932Z</time></trkpt><trkpt lat="42.692487" lon="12.7214853"><ele>478.0</ele><time>2026-04-26T09:21:26.933Z</time></trkpt><trkpt lat="42.6927477" lon="12.7215304"><ele>478.0</ele><time>2026-04-26T09:21:27.932Z</time></trkpt><trkpt lat="42.6930217" lon="12.7215745"><ele>478.0</ele><time>2026-04-26T09:21:28.933Z</time></trkpt><trkpt lat="42.6933098" lon="12.7216219"><ele>478.0</ele><time>2026-04-26T09:21:29.933Z</time></trkpt><trkpt lat="42.6936123" lon="12.7216687"><ele>472.0</ele><time>2026-04-26T09:21:30.932Z</time></trkpt><trkpt lat="42.6939252" lon="12.7217193"><ele>466.0</ele><time>2026-04-26T09:21:31.933Z</time></trkpt><trkpt lat="42.6942419" lon="12.7217709"><ele>461.5</ele><time>2026-04-26T09:21:32.932Z</time></trkpt><trkpt lat="42.6945607" lon="12.7218262"><ele>457.0</ele><time>2026-04-26T09:21:33.932Z</time></trkpt><trkpt lat="42.6948781" lon="12.7218769"><ele>453.5</ele><time>2026-04-26T09:21:34.933Z</time></trkpt><trkpt lat="42.6952024" lon="12.7219273"><ele>450.0</ele><time>2026-04-26T09:21:35.932Z</time></trkpt><trkpt lat="42.6955211" lon="12.7219831"><ele>450.0</ele><time>2026-04-26T09:21:36.932Z</time></trkpt><trkpt lat="42.6958253" lon="12.7220931"><ele>450.0</ele><time>2026-04-26T09:21:37.933Z</time></trkpt><trkpt lat="42.6961356" lon="12.7221342"><ele>449.0</ele><time>2026-04-26T09:21:38.932Z</time></trkpt><trkpt lat="42.6964432" lon="12.7221775"><ele>448.0</ele><time>2026-04-26T09:21:39.933Z</time></trkpt><trkpt lat="42.6967461" lon="12.7222243"><ele>449.0</ele><time>2026-04-26T09:21:40.932Z</time></trkpt><trkpt lat="42.6970417" lon="12.7222704"><ele>450.0</ele><time>2026-04-26T09:21:41.933Z</time></trkpt><trkpt lat="42.6973277" lon="12.7223179"><ele>450.0</ele><time>2026-04-26T09:21:42.932Z</time></trkpt><trkpt lat="42.6976072" lon="12.7223738"><ele>450.0</ele><time>2026-04-26T09:21:43.932Z</time></trkpt><trkpt lat="42.6978833" lon="12.7224457"><ele>449.0</ele><time>2026-04-26T09:21:44.932Z</time></trkpt><trkpt lat="42.698157" lon="12.7225307"><ele>448.0</ele><time>2026-04-26T09:21:45.932Z</time></trkpt><trkpt lat="42.6984314" lon="12.7226317"><ele>442.0</ele><time>2026-04-26T09:21:46.932Z</time></trkpt><trkpt lat="42.6987025" lon="12.7227372"><ele>436.0</ele><time>2026-04-26T09:21:47.932Z</time></trkpt><trkpt lat="42.6989794" lon="12.7228364"><ele>436.0</ele><time>2026-04-26T09:21:48.932Z</time></trkpt><trkpt lat="42.6992584" lon="12.7229387"><ele>436.0</ele><time>2026-04-26T09:21:49.932Z</time></trkpt><trkpt lat="42.6995277" lon="12.7230365"><ele>438.0</ele><time>2026-04-26T09:21:50.933Z</time></trkpt><trkpt lat="42.6997945" lon="12.723129"><ele>440.0</ele><time>2026-04-26T09:21:51.932Z</time></trkpt><trkpt lat="42.7000632" lon="12.7232032"><ele>439.0</ele><time>2026-04-26T09:21:52.933Z</time></trkpt><trkpt lat="42.7003185" lon="12.7232538"><ele>438.0</ele><time>2026-04-26T09:21:53.932Z</time></trkpt><trkpt lat="42.7005692" lon="12.7232741"><ele>438.0</ele><time>2026-04-26T09:21:54.932Z</time></trkpt><trkpt lat="42.7008227" lon="12.7232554"><ele>438.0</ele><time>2026-04-26T09:21:55.933Z</time></trkpt><trkpt lat="42.7010728" lon="12.7232034"><ele>434.0</ele><time>2026-04-26T09:21:56.932Z</time></trkpt><trkpt lat="42.7013205" lon="12.7231186"><ele>430.0</ele><time>2026-04-26T09:21:57.932Z</time></trkpt><trkpt lat="42.701567" lon="12.7230068"><ele>430.0</ele><time>2026-04-26T09:21:58.932Z</time></trkpt><trkpt lat="42.7018195" lon="12.7228756"><ele>430.0</ele><time>2026-04-26T09:21:59.932Z</time></trkpt><trkpt lat="42.7020797" lon="12.7227179"><ele>433.5</ele><time>2026-04-26T09:22:00.933Z</time></trkpt><trkpt lat="42.7023581" lon="12.7225561"><ele>437.0</ele><time>2026-04-26T09:22:01.933Z</time></trkpt><trkpt lat="42.702649" lon="12.7223828"><ele>432.0</ele><time>2026-04-26T09:22:02.932Z</time></trkpt><trkpt lat="42.7029448" lon="12.7222038"><ele>427.0</ele><time>2026-04-26T09:22:03.932Z</time></trkpt><trkpt lat="42.7032413" lon="12.7220277"><ele>425.5</ele><time>2026-04-26T09:22:04.932Z</time></trkpt><trkpt lat="42.7035326" lon="12.7218546"><ele>424.0</ele><time>2026-04-26T09:22:05.932Z</time></trkpt><trkpt lat="42.703826" lon="12.7216825"><ele>424.0</ele><time>2026-04-26T09:22:06.932Z</time></trkpt><trkpt lat="42.7041161" lon="12.7215098"><ele>424.0</ele><time>2026-04-26T09:22:07.932Z</time></trkpt><trkpt lat="42.7044007" lon="12.7213349"><ele>423.0</ele><time>2026-04-26T09:22:08.932Z</time></trkpt><trkpt lat="42.7046837" lon="12.7211614"><ele>422.0</ele><time>2026-04-26T09:22:09.933Z</time></trkpt><trkpt lat="42.7049656" lon="12.720997"><ele>422.0</ele><time>2026-04-26T09:22:10.932Z</time></trkpt><trkpt lat="42.7052434" lon="12.720831"><ele>422.0</ele><time>2026-04-26T09:22:11.932Z</time></trkpt><trkpt lat="42.7055196" lon="12.7206648"><ele>420.0</ele><time>2026-04-26T09:22:12.932Z</time></trkpt><trkpt lat="42.7057992" lon="12.7204967"><ele>418.0</ele><time>2026-04-26T09:22:13.932Z</time></trkpt><trkpt lat="42.7060756" lon="12.7203317"><ele>417.0</ele><time>2026-04-26T09:22:14.932Z</time></trkpt><trkpt lat="42.7063464" lon="12.7201742"><ele>416.0</ele><time>2026-04-26T09:22:15.933Z</time></trkpt><trkpt lat="42.7065958" lon="12.7200089"><ele>416.0</ele><time>2026-04-26T09:22:16.932Z</time></trkpt><trkpt lat="42.7068333" lon="12.7198652"><ele>416.0</ele><time>2026-04-26T09:22:17.932Z</time></trkpt><trkpt lat="42.7070638" lon="12.7197308"><ele>414.0</ele><time>2026-04-26T09:22:18.932Z</time></trkpt><trkpt lat="42.7072933" lon="12.7196042"><ele>412.0</ele><time>2026-04-26T09:22:19.932Z</time></trkpt><trkpt lat="42.7075326" lon="12.7194879"><ele>413.0</ele><time>2026-04-26T09:22:20.933Z</time></trkpt><trkpt lat="42.7077749" lon="12.719393"><ele>414.0</ele><time>2026-04-26T09:22:21.932Z</time></trkpt><trkpt lat="42.708015" lon="12.7193148"><ele>414.0</ele><time>2026-04-26T09:22:22.932Z</time></trkpt><trkpt lat="42.7082611" lon="12.7192644"><ele>414.0</ele><time>2026-04-26T09:22:23.932Z</time></trkpt><trkpt lat="42.7085135" lon="12.7192343"><ele>412.5</ele><time>2026-04-26T09:22:24.932Z</time></trkpt><trkpt lat="42.7087729" lon="12.7192216"><ele>411.0</ele><time>2026-04-26T09:22:25.933Z</time></trkpt><trkpt lat="42.7090392" lon="12.719233"><ele>411.0</ele><time>2026-04-26T09:22:26.932Z</time></trkpt><trkpt lat="42.7093052" lon="12.7192619"><ele>411.0</ele><time>2026-04-26T09:22:27.932Z</time></trkpt><trkpt lat="42.7095839" lon="12.7193143"><ele>410.0</ele><time>2026-04-26T09:22:28.932Z</time></trkpt><trkpt lat="42.7098592" lon="12.7193779"><ele>409.0</ele><time>2026-04-26T09:22:29.932Z</time></trkpt><trkpt lat="42.7101451" lon="12.7194408"><ele>407.5</ele><time>2026-04-26T09:22:30.932Z</time></trkpt><trkpt lat="42.710418" lon="12.7194991"><ele>406.0</ele><time>2026-04-26T09:22:31.932Z</time></trkpt><trkpt lat="42.7106926" lon="12.7195611"><ele>406.0</ele><time>2026-04-26T09:22:32.933Z</time></trkpt><trkpt lat="42.7109594" lon="12.7196261"><ele>406.0</ele><time>2026-04-26T09:22:33.932Z</time></trkpt><trkpt lat="42.7112314" lon="12.7196925"><ele>406.0</ele><time>2026-04-26T09:22:34.932Z</time></trkpt><trkpt lat="42.7114928" lon="12.7197654"><ele>406.0</ele><time>2026-04-26T09:22:35.932Z</time></trkpt><trkpt lat="42.7117524" lon="12.7198655"><ele>407.5</ele><time>2026-04-26T09:22:36.932Z</time></trkpt><trkpt lat="42.7119975" lon="12.7199888"><ele>409.0</ele><time>2026-04-26T09:22:37.932Z</time></trkpt><trkpt lat="42.7122384" lon="12.7201347"><ele>407.0</ele><time>2026-04-26T09:22:38.933Z</time></trkpt><trkpt lat="42.712476" lon="12.7202863"><ele>405.0</ele><time>2026-04-26T09:22:39.932Z</time></trkpt><trkpt lat="42.7126973" lon="12.7204633"><ele>406.0</ele><time>2026-04-26T09:22:40.933Z</time></trkpt><trkpt lat="42.7129033" lon="12.7206443"><ele>407.0</ele><time>2026-04-26T09:22:41.932Z</time></trkpt><trkpt lat="42.7130986" lon="12.7208497"><ele>407.0</ele><time>2026-04-26T09:22:42.932Z</time></trkpt><trkpt lat="42.7132835" lon="12.7210646"><ele>407.0</ele><time>2026-04-26T09:22:43.933Z</time></trkpt><trkpt lat="42.7134667" lon="12.7212812"><ele>410.5</ele><time>2026-04-26T09:22:44.932Z</time></trkpt><trkpt lat="42.7136426" lon="12.7215"><ele>414.0</ele><time>2026-04-26T09:22:45.933Z</time></trkpt><trkpt lat="42.7138263" lon="12.7217194"><ele>408.0</ele><time>2026-04-26T09:22:46.932Z</time></trkpt><trkpt lat="42.7140134" lon="12.7219389"><ele>402.0</ele><time>2026-04-26T09:22:47.932Z</time></trkpt><trkpt lat="42.7141955" lon="12.7221605"><ele>402.0</ele><time>2026-04-26T09:22:48.932Z</time></trkpt><trkpt lat="42.7143748" lon="12.7223847"><ele>402.0</ele><time>2026-04-26T09:22:49.932Z</time></trkpt><trkpt lat="42.7145555" lon="12.7226043"><ele>401.0</ele><time>2026-04-26T09:22:50.932Z</time></trkpt><trkpt lat="42.7147428" lon="12.7228235"><ele>400.0</ele><time>2026-04-26T09:22:51.932Z</time></trkpt><trkpt lat="42.7149314" lon="12.723053"><ele>400.0</ele><time>2026-04-26T09:22:52.933Z</time></trkpt><trkpt lat="42.7151167" lon="12.7232839"><ele>400.0</ele><time>2026-04-26T09:22:53.932Z</time></trkpt><trkpt lat="42.7152968" lon="12.7235011"><ele>399.0</ele><time>2026-04-26T09:22:54.932Z</time></trkpt><trkpt lat="42.7154748" lon="12.7237145"><ele>398.0</ele><time>2026-04-26T09:22:55.932Z</time></trkpt><trkpt lat="42.7156487" lon="12.7239223"><ele>398.0</ele><time>2026-04-26T09:22:56.932Z</time></trkpt><trkpt lat="42.7158108" lon="12.7241254"><ele>398.0</ele><time>2026-04-26T09:22:57.932Z</time></trkpt><trkpt lat="42.7159677" lon="12.7243242"><ele>398.0</ele><time>2026-04-26T09:22:58.932Z</time></trkpt><trkpt lat="42.716121" lon="12.7245155"><ele>397.0</ele><time>2026-04-26T09:22:59.932Z</time></trkpt><trkpt lat="42.7162765" lon="12.7247006"><ele>396.0</ele><time>2026-04-26T09:23:00.932Z</time></trkpt><trkpt lat="42.716441" lon="12.7248898"><ele>395.0</ele><time>2026-04-26T09:23:01.932Z</time></trkpt><trkpt lat="42.7166133" lon="12.7250937"><ele>395.0</ele><time>2026-04-26T09:23:02.932Z</time></trkpt><trkpt lat="42.7167844" lon="12.7253177"><ele>395.0</ele><time>2026-04-26T09:23:03.932Z</time></trkpt><trkpt lat="42.7169653" lon="12.7255469"><ele>395.0</ele><time>2026-04-26T09:23:04.932Z</time></trkpt><trkpt lat="42.7171601" lon="12.7257843"><ele>395.0</ele><time>2026-04-26T09:23:05.933Z</time></trkpt><trkpt lat="42.7173637" lon="12.7260215"><ele>395.0</ele><time>2026-04-26T09:23:06.932Z</time></trkpt><trkpt lat="42.7175758" lon="12.7262742"><ele>395.0</ele><time>2026-04-26T09:23:07.932Z</time></trkpt><trkpt lat="42.7177911" lon="12.726543"><ele>394.0</ele><time>2026-04-26T09:23:08.932Z</time></trkpt><trkpt lat="42.7180155" lon="12.7268218"><ele>393.0</ele><time>2026-04-26T09:23:09.933Z</time></trkpt><trkpt lat="42.7182472" lon="12.7271044"><ele>390.5</ele><time>2026-04-26T09:23:10.933Z</time></trkpt><trkpt lat="42.7184688" lon="12.7273912"><ele>388.0</ele><time>2026-04-26T09:23:11.932Z</time></trkpt><trkpt lat="42.7186958" lon="12.7276643"><ele>386.5</ele><time>2026-04-26T09:23:12.933Z</time></trkpt><trkpt lat="42.7189208" lon="12.7279389"><ele>385.0</ele><time>2026-04-26T09:23:13.932Z</time></trkpt><trkpt lat="42.7191435" lon="12.7282123"><ele>385.0</ele><time>2026-04-26T09:23:14.933Z</time></trkpt><trkpt lat="42.7193624" lon="12.7284805"><ele>385.0</ele><time>2026-04-26T09:23:15.932Z</time></trkpt><trkpt lat="42.7195744" lon="12.728734"><ele>385.5</ele><time>2026-04-26T09:23:16.932Z</time></trkpt><trkpt lat="42.7197744" lon="12.7289789"><ele>386.0</ele><time>2026-04-26T09:23:17.931Z</time></trkpt><trkpt lat="42.7199689" lon="12.7292078"><ele>385.0</ele><time>2026-04-26T09:23:18.932Z</time></trkpt><trkpt lat="42.7201515" lon="12.7294412"><ele>384.0</ele><time>2026-04-26T09:23:19.931Z</time></trkpt><trkpt lat="42.7203423" lon="12.7296616"><ele>384.0</ele><time>2026-04-26T09:23:20.932Z</time></trkpt><trkpt lat="42.7205218" lon="12.7298832"><ele>384.0</ele><time>2026-04-26T09:23:21.931Z</time></trkpt><trkpt lat="42.7206951" lon="12.730096"><ele>382.5</ele><time>2026-04-26T09:23:22.931Z</time></trkpt><trkpt lat="42.7208634" lon="12.7303072"><ele>381.0</ele><time>2026-04-26T09:23:23.931Z</time></trkpt><trkpt lat="42.7210319" lon="12.7305072"><ele>382.33333333333337</ele><time>2026-04-26T09:23:24.931Z</time></trkpt><trkpt lat="42.721192" lon="12.7307001"><ele>383.6666666666667</ele><time>2026-04-26T09:23:25.932Z</time></trkpt><trkpt lat="42.7213437" lon="12.7308934"><ele>385.0</ele><time>2026-04-26T09:23:26.932Z</time></trkpt><trkpt lat="42.721507" lon="12.7310844"><ele>385.0</ele><time>2026-04-26T09:23:27.931Z</time></trkpt><trkpt lat="42.7216582" lon="12.7312769"><ele>385.0</ele><time>2026-04-26T09:23:28.932Z</time></trkpt><trkpt lat="42.7218035" lon="12.7314694"><ele>385.0</ele><time>2026-04-26T09:23:29.931Z</time></trkpt><trkpt lat="42.721957" lon="12.7316798"><ele>384.0</ele><time>2026-04-26T09:23:30.931Z</time></trkpt><trkpt lat="42.7221016" lon="12.7319165"><ele>383.0</ele><time>2026-04-26T09:23:31.931Z</time></trkpt><trkpt lat="42.7222479" lon="12.7321724"><ele>383.0</ele><time>2026-04-26T09:23:32.931Z</time></trkpt><trkpt lat="42.722395" lon="12.7324342"><ele>383.0</ele><time>2026-04-26T09:23:33.931Z</time></trkpt><trkpt lat="42.7225447" lon="12.7327046"><ele>383.5</ele><time>2026-04-26T09:23:34.931Z</time></trkpt><trkpt lat="42.7226929" lon="12.7329778"><ele>384.0</ele><time>2026-04-26T09:23:35.931Z</time></trkpt><trkpt lat="42.7228433" lon="12.7332453"><ele>382.0</ele><time>2026-04-26T09:23:36.931Z</time></trkpt><trkpt lat="42.7229857" lon="12.733512"><ele>380.0</ele><time>2026-04-26T09:23:37.939Z</time></trkpt><trkpt lat="42.7231284" lon="12.7337611"><ele>380.0</ele><time>2026-04-26T09:23:38.94Z</time></trkpt><trkpt lat="42.7232805" lon="12.7339991"><ele>380.0</ele><time>2026-04-26T09:23:39.939Z</time></trkpt><trkpt lat="42.7234504" lon="12.7342051"><ele>379.0</ele><time>2026-04-26T09:23:40.939Z</time></trkpt><trkpt lat="42.7236505" lon="12.7343791"><ele>378.0</ele><time>2026-04-26T09:23:41.939Z</time></trkpt><trkpt lat="42.7238615" lon="12.7345139"><ele>378.0</ele><time>2026-04-26T09:23:42.939Z</time></trkpt><trkpt lat="42.7240969" lon="12.7346076"><ele>378.0</ele><time>2026-04-26T09:23:43.939Z</time></trkpt><trkpt lat="42.7243414" lon="12.7346657"><ele>377.0</ele><time>2026-04-26T09:23:44.939Z</time></trkpt><trkpt lat="42.7245913" lon="12.7347001"><ele>376.0</ele><time>2026-04-26T09:23:45.939Z</time></trkpt><trkpt lat="42.7248384" lon="12.7347327"><ele>376.0</ele><time>2026-04-26T09:23:46.94Z</time></trkpt><trkpt lat="42.7250908" lon="12.7347705"><ele>376.0</ele><time>2026-04-26T09:23:47.94Z</time></trkpt><trkpt lat="42.725342" lon="12.7348028"><ele>374.5</ele><time>2026-04-26T09:23:48.939Z</time></trkpt><trkpt lat="42.7255839" lon="12.7348376"><ele>373.0</ele><time>2026-04-26T09:23:49.939Z</time></trkpt><trkpt lat="42.7258177" lon="12.7348715"><ele>373.0</ele><time>2026-04-26T09:23:50.939Z</time></trkpt><trkpt lat="42.7260392" lon="12.7349055"><ele>373.0</ele><time>2026-04-26T09:23:51.94Z</time></trkpt><trkpt lat="42.7262443" lon="12.734942"><ele>373.0</ele><time>2026-04-26T09:23:52.94Z</time></trkpt><trkpt lat="42.7264345" lon="12.7349932"><ele>371.66666666666663</ele><time>2026-04-26T09:23:53.939Z</time></trkpt><trkpt lat="42.726594" lon="12.7350578"><ele>370.3333333333333</ele><time>2026-04-26T09:23:54.939Z</time></trkpt><trkpt lat="42.7267398" lon="12.7351463"><ele>369.0</ele><time>2026-04-26T09:23:55.94Z</time></trkpt><trkpt lat="42.7268738" lon="12.7352373"><ele>368.5</ele><time>2026-04-26T09:23:56.939Z</time></trkpt><trkpt lat="42.7269781" lon="12.7353351"><ele>368.0</ele><time>2026-04-26T09:23:57.94Z</time></trkpt><trkpt lat="42.7270717" lon="12.7354272"><ele>367.5</ele><time>2026-04-26T09:23:58.94Z</time></trkpt><trkpt lat="42.7271597" lon="12.7355119"><ele>367.0</ele><time>2026-04-26T09:23:59.939Z</time></trkpt><trkpt lat="42.7272401" lon="12.7355991"><ele>367.0</ele><time>2026-04-26T09:24:00.939Z</time></trkpt><trkpt lat="42.7273039" lon="12.7356828"><ele>367.0</ele><time>2026-04-26T09:24:01.939Z</time></trkpt><trkpt lat="42.7273604" lon="12.7357607"><ele>367.0</ele><time>2026-04-26T09:24:02.939Z</time></trkpt><trkpt lat="42.7274082" lon="12.7358358"><ele>367.0</ele><time>2026-04-26T09:24:03.939Z</time></trkpt><trkpt lat="42.7274556" lon="12.7359145"><ele>367.0</ele><time>2026-04-26T09:24:04.939Z</time></trkpt><trkpt lat="42.7274764" lon="12.7359986"><ele>367.0</ele><time>2026-04-26T09:24:05.939Z</time></trkpt><trkpt lat="42.7274979" lon="12.7360798"><ele>367.0</ele><time>2026-04-26T09:24:06.94Z</time></trkpt><trkpt lat="42.7275825" lon="12.7362124"><ele>366.75</ele><time>2026-04-26T09:24:08.939Z</time></trkpt><trkpt lat="42.7277119" lon="12.7362667"><ele>366.5</ele><time>2026-04-26T09:24:10.939Z</time></trkpt><trkpt lat="42.7277904" lon="12.7363262"><ele>366.25</ele><time>2026-04-26T09:24:11.939Z</time></trkpt><trkpt lat="42.7278703" lon="12.7364137"><ele>366.0</ele><time>2026-04-26T09:24:12.939Z</time></trkpt><trkpt lat="42.7279692" lon="12.7365335"><ele>366.0</ele><time>2026-04-26T09:24:13.939Z</time></trkpt><trkpt lat="42.7280766" lon="12.7366608"><ele>366.0</ele><time>2026-04-26T09:24:14.94Z</time></trkpt><trkpt lat="42.7281886" lon="12.7368008"><ele>366.0</ele><time>2026-04-26T09:24:15.939Z</time></trkpt><trkpt lat="42.7283256" lon="12.7369596"><ele>366.3333333333333</ele><time>2026-04-26T09:24:16.939Z</time></trkpt><trkpt lat="42.7284699" lon="12.7371225"><ele>366.66666666666663</ele><time>2026-04-26T09:24:17.939Z</time></trkpt><trkpt lat="42.7286139" lon="12.7373089"><ele>367.0</ele><time>2026-04-26T09:24:18.939Z</time></trkpt><trkpt lat="42.7287706" lon="12.7375054"><ele>365.5</ele><time>2026-04-26T09:24:19.939Z</time></trkpt><trkpt lat="42.7289438" lon="12.7377293"><ele>364.0</ele><time>2026-04-26T09:24:20.94Z</time></trkpt><trkpt lat="42.7291415" lon="12.7379746"><ele>364.0</ele><time>2026-04-26T09:24:21.939Z</time></trkpt><trkpt lat="42.7293333" lon="12.738224"><ele>364.0</ele><time>2026-04-26T09:24:22.939Z</time></trkpt><trkpt lat="42.7295164" lon="12.7384719"><ele>363.5</ele><time>2026-04-26T09:24:23.939Z</time></trkpt><trkpt lat="42.7296966" lon="12.7387029"><ele>363.0</ele><time>2026-04-26T09:24:24.94Z</time></trkpt><trkpt lat="42.7298676" lon="12.7389238"><ele>363.0</ele><time>2026-04-26T09:24:25.939Z</time></trkpt><trkpt lat="42.7300264" lon="12.7391334"><ele>363.0</ele><time>2026-04-26T09:24:26.94Z</time></trkpt><trkpt lat="42.7301831" lon="12.7393268"><ele>363.0</ele><time>2026-04-26T09:24:27.939Z</time></trkpt><trkpt lat="42.7303384" lon="12.7395124"><ele>363.0</ele><time>2026-04-26T09:24:28.939Z</time></trkpt><trkpt lat="42.7305038" lon="12.7396981"><ele>363.0</ele><time>2026-04-26T09:24:29.939Z</time></trkpt><trkpt lat="42.7306923" lon="12.7398675"><ele>363.0</ele><time>2026-04-26T09:24:30.939Z</time></trkpt><trkpt lat="42.7308988" lon="12.7400164"><ele>364.0</ele><time>2026-04-26T09:24:31.939Z</time></trkpt><trkpt lat="42.7310997" lon="12.7401328"><ele>365.0</ele><time>2026-04-26T09:24:32.939Z</time></trkpt><trkpt lat="42.7313073" lon="12.7402276"><ele>366.0</ele><time>2026-04-26T09:24:33.94Z</time></trkpt><trkpt lat="42.7315133" lon="12.7403107"><ele>366.0</ele><time>2026-04-26T09:24:34.939Z</time></trkpt><trkpt lat="42.7317165" lon="12.7403818"><ele>366.0</ele><time>2026-04-26T09:24:35.939Z</time></trkpt><trkpt lat="42.7319161" lon="12.7404524"><ele>366.0</ele><time>2026-04-26T09:24:36.94Z</time></trkpt><trkpt lat="42.7321217" lon="12.7405264"><ele>357.3333333333333</ele><time>2026-04-26T09:24:37.939Z</time></trkpt><trkpt lat="42.7323247" lon="12.7406033"><ele>348.66666666666663</ele><time>2026-04-26T09:24:38.94Z</time></trkpt><trkpt lat="42.7325278" lon="12.7406719"><ele>340.0</ele><time>2026-04-26T09:24:39.939Z</time></trkpt><trkpt lat="42.7366369" lon="12.7420198"><ele>340.0</ele><time>2026-04-26T09:24:59.939Z</time></trkpt><trkpt lat="42.7367316" lon="12.7420277"><ele>340.0</ele><time>2026-04-26T09:25:01.939Z</time></trkpt><trkpt lat="42.7368968" lon="12.7420465"><ele>340.0</ele><time>2026-04-26T09:25:02.939Z</time></trkpt><trkpt lat="42.7370591" lon="12.7420446"><ele>340.0</ele><time>2026-04-26T09:25:03.939Z</time></trkpt><trkpt lat="42.7372163" lon="12.7420322"><ele>338.0</ele><time>2026-04-26T09:25:04.939Z</time></trkpt><trkpt lat="42.7373707" lon="12.7420011"><ele>336.0</ele><time>2026-04-26T09:25:05.939Z</time></trkpt><trkpt lat="42.7375301" lon="12.7419558"><ele>334.0</ele><time>2026-04-26T09:25:06.939Z</time></trkpt><trkpt lat="42.7376906" lon="12.7418905"><ele>334.66666666666663</ele><time>2026-04-26T09:25:07.939Z</time></trkpt><trkpt lat="42.7378566" lon="12.7418191"><ele>335.3333333333333</ele><time>2026-04-26T09:25:08.939Z</time></trkpt><trkpt lat="42.7380422" lon="12.7417499"><ele>336.0</ele><time>2026-04-26T09:25:09.939Z</time></trkpt><trkpt lat="42.7382384" lon="12.7416769"><ele>336.0</ele><time>2026-04-26T09:25:10.94Z</time></trkpt><trkpt lat="42.7384396" lon="12.7416072"><ele>336.0</ele><time>2026-04-26T09:25:11.939Z</time></trkpt><trkpt lat="42.7386315" lon="12.7415414"><ele>336.0</ele><time>2026-04-26T09:25:12.939Z</time></trkpt><trkpt lat="42.7388139" lon="12.741475"><ele>339.6666666666667</ele><time>2026-04-26T09:25:13.94Z</time></trkpt><trkpt lat="42.7389888" lon="12.7414106"><ele>343.33333333333337</ele><time>2026-04-26T09:25:14.939Z</time></trkpt><trkpt lat="42.7391582" lon="12.7413488"><ele>347.0</ele><time>2026-04-26T09:25:15.939Z</time></trkpt><trkpt lat="42.7393264" lon="12.7412813"><ele>347.6666666666667</ele><time>2026-04-26T09:25:16.939Z</time></trkpt><trkpt lat="42.7395002" lon="12.7412086"><ele>348.3333333333333</ele><time>2026-04-26T09:25:17.939Z</time></trkpt><trkpt lat="42.739679" lon="12.741144"><ele>349.0</ele><time>2026-04-26T09:25:18.939Z</time></trkpt><trkpt lat="42.7398532" lon="12.7410816"><ele>344.3333333333333</ele><time>2026-04-26T09:25:19.939Z</time></trkpt><trkpt lat="42.7400291" lon="12.7410224"><ele>339.6666666666667</ele><time>2026-04-26T09:25:20.939Z</time></trkpt><trkpt lat="42.7402042" lon="12.7409697"><ele>335.0</ele><time>2026-04-26T09:25:21.939Z</time></trkpt><trkpt lat="42.7403811" lon="12.7409356"><ele>335.0</ele><time>2026-04-26T09:25:22.939Z</time></trkpt><trkpt lat="42.7405513" lon="12.7409098"><ele>335.0</ele><time>2026-04-26T09:25:23.939Z</time></trkpt><trkpt lat="42.7407277" lon="12.7409093"><ele>335.0</ele><time>2026-04-26T09:25:24.94Z</time></trkpt><trkpt lat="42.7409034" lon="12.7409253"><ele>334.6666666666667</ele><time>2026-04-26T09:25:25.939Z</time></trkpt><trkpt lat="42.7410745" lon="12.7409527"><ele>334.3333333333333</ele><time>2026-04-26T09:25:26.939Z</time></trkpt><trkpt lat="42.7412481" lon="12.7410065"><ele>334.0</ele><time>2026-04-26T09:25:27.939Z</time></trkpt><trkpt lat="42.7414215" lon="12.7410778"><ele>334.3333333333333</ele><time>2026-04-26T09:25:28.94Z</time></trkpt><trkpt lat="42.7415852" lon="12.7411632"><ele>334.6666666666667</ele><time>2026-04-26T09:25:29.939Z</time></trkpt><trkpt lat="42.74174" lon="12.7412612"><ele>335.0</ele><time>2026-04-26T09:25:30.939Z</time></trkpt><trkpt lat="42.7418992" lon="12.741371"><ele>335.0</ele><time>2026-04-26T09:25:31.939Z</time></trkpt><trkpt lat="42.7420507" lon="12.74149"><ele>335.0</ele><time>2026-04-26T09:25:32.939Z</time></trkpt><trkpt lat="42.742204" lon="12.7415926"><ele>335.0</ele><time>2026-04-26T09:25:33.94Z</time></trkpt><trkpt lat="42.7423461" lon="12.7416961"><ele>335.0</ele><time>2026-04-26T09:25:34.94Z</time></trkpt><trkpt lat="42.7424845" lon="12.7417914"><ele>335.0</ele><time>2026-04-26T09:25:35.939Z</time></trkpt><trkpt lat="42.7426169" lon="12.7418887"><ele>335.0</ele><time>2026-04-26T09:25:36.939Z</time></trkpt><trkpt lat="42.7427444" lon="12.7419857"><ele>334.75</ele><time>2026-04-26T09:25:37.939Z</time></trkpt><trkpt lat="42.7428691" lon="12.7420799"><ele>334.5</ele><time>2026-04-26T09:25:38.939Z</time></trkpt><trkpt lat="42.7429905" lon="12.7421734"><ele>334.25</ele><time>2026-04-26T09:25:39.938Z</time></trkpt><trkpt lat="42.7431106" lon="12.7422644"><ele>334.0</ele><time>2026-04-26T09:25:40.939Z</time></trkpt><trkpt lat="42.7432214" lon="12.7423508"><ele>334.0</ele><time>2026-04-26T09:25:41.938Z</time></trkpt><trkpt lat="42.7433308" lon="12.7424305"><ele>334.0</ele><time>2026-04-26T09:25:42.939Z</time></trkpt><trkpt lat="42.7434345" lon="12.742504"><ele>334.0</ele><time>2026-04-26T09:25:43.938Z</time></trkpt><trkpt lat="42.7435317" lon="12.7425792"><ele>334.0</ele><time>2026-04-26T09:25:44.938Z</time></trkpt><trkpt lat="42.7436246" lon="12.7426559"><ele>333.75</ele><time>2026-04-26T09:25:45.938Z</time></trkpt><trkpt lat="42.743722" lon="12.742729"><ele>333.5</ele><time>2026-04-26T09:25:46.939Z</time></trkpt><trkpt lat="42.7438174" lon="12.7428035"><ele>333.25</ele><time>2026-04-26T09:25:47.939Z</time></trkpt><trkpt lat="42.7439174" lon="12.7428827"><ele>333.0</ele><time>2026-04-26T09:25:48.938Z</time></trkpt><trkpt lat="42.7440179" lon="12.7429552"><ele>333.0</ele><time>2026-04-26T09:25:49.938Z</time></trkpt><trkpt lat="42.7441201" lon="12.7430288"><ele>333.0</ele><time>2026-04-26T09:25:50.938Z</time></trkpt><trkpt lat="42.7442259" lon="12.7431042"><ele>333.0</ele><time>2026-04-26T09:25:51.938Z</time></trkpt><trkpt lat="42.7443317" lon="12.7431832"><ele>333.0</ele><time>2026-04-26T09:25:52.938Z</time></trkpt><trkpt lat="42.744435" lon="12.7432523"><ele>332.4</ele><time>2026-04-26T09:25:53.938Z</time></trkpt><trkpt lat="42.7445294" lon="12.743323"><ele>331.79999999999995</ele><time>2026-04-26T09:25:54.938Z</time></trkpt><trkpt lat="42.7446209" lon="12.7433967"><ele>331.2</ele><time>2026-04-26T09:25:55.938Z</time></trkpt><trkpt lat="42.74472" lon="12.7434646"><ele>330.6</ele><time>2026-04-26T09:25:56.939Z</time></trkpt><trkpt lat="42.7448238" lon="12.7435423"><ele>330.0</ele><time>2026-04-26T09:25:57.938Z</time></trkpt><trkpt lat="42.7449411" lon="12.7436232"><ele>330.0</ele><time>2026-04-26T09:25:58.938Z</time></trkpt><trkpt lat="42.7450592" lon="12.7437091"><ele>330.0</ele><time>2026-04-26T09:25:59.938Z</time></trkpt><trkpt lat="42.7451841" lon="12.743801"><ele>330.0</ele><time>2026-04-26T09:26:00.938Z</time></trkpt><trkpt lat="42.745312" lon="12.7438962"><ele>330.0</ele><time>2026-04-26T09:26:01.938Z</time></trkpt><trkpt lat="42.7454353" lon="12.7440048"><ele>328.5</ele><time>2026-04-26T09:26:02.938Z</time></trkpt><trkpt lat="42.7455587" lon="12.7441105"><ele>327.0</ele><time>2026-04-26T09:26:03.938Z</time></trkpt><trkpt lat="42.7456789" lon="12.74421"><ele>325.5</ele><time>2026-04-26T09:26:04.938Z</time></trkpt><trkpt lat="42.7458039" lon="12.7442978"><ele>324.0</ele><time>2026-04-26T09:26:05.939Z</time></trkpt><trkpt lat="42.7459208" lon="12.7443882"><ele>323.5</ele><time>2026-04-26T09:26:06.938Z</time></trkpt><trkpt lat="42.7460152" lon="12.744487"><ele>323.0</ele><time>2026-04-26T09:26:07.938Z</time></trkpt><trkpt lat="42.7461012" lon="12.7446055"><ele>322.5</ele><time>2026-04-26T09:26:08.938Z</time></trkpt><trkpt lat="42.7461535" lon="12.7447357"><ele>322.0</ele><time>2026-04-26T09:26:09.938Z</time></trkpt><trkpt lat="42.7461773" lon="12.7448744"><ele>321.40000000000003</ele><time>2026-04-26T09:26:10.938Z</time></trkpt><trkpt lat="42.7461753" lon="12.7450134"><ele>320.8</ele><time>2026-04-26T09:26:11.938Z</time></trkpt><trkpt lat="42.7461533" lon="12.7451334"><ele>320.2</ele><time>2026-04-26T09:26:12.938Z</time></trkpt><trkpt lat="42.746104" lon="12.7452334"><ele>319.6</ele><time>2026-04-26T09:26:13.939Z</time></trkpt><trkpt lat="42.7460286" lon="12.7453413"><ele>319.0</ele><time>2026-04-26T09:26:14.939Z</time></trkpt><trkpt lat="42.7459528" lon="12.7454021"><ele>320.2</ele><time>2026-04-26T09:26:15.938Z</time></trkpt><trkpt lat="42.7458672" lon="12.7454387"><ele>321.4</ele><time>2026-04-26T09:26:16.939Z</time></trkpt><trkpt lat="42.7457785" lon="12.745434"><ele>322.6</ele><time>2026-04-26T09:26:17.938Z</time></trkpt><trkpt lat="42.7456816" lon="12.7454124"><ele>323.8</ele><time>2026-04-26T09:26:18.938Z</time></trkpt><trkpt lat="42.7455843" lon="12.7453564"><ele>325.0</ele><time>2026-04-26T09:26:19.938Z</time></trkpt><trkpt lat="42.7454776" lon="12.7452775"><ele>324.4</ele><time>2026-04-26T09:26:20.938Z</time></trkpt><trkpt lat="42.7453771" lon="12.7451938"><ele>323.8</ele><time>2026-04-26T09:26:21.938Z</time></trkpt><trkpt lat="42.7452916" lon="12.7451063"><ele>323.20000000000005</ele><time>2026-04-26T09:26:22.938Z</time></trkpt><trkpt lat="42.745216" lon="12.745016"><ele>322.6</ele><time>2026-04-26T09:26:23.938Z</time></trkpt><trkpt lat="42.7451587" lon="12.7449103"><ele>322.0</ele><time>2026-04-26T09:26:24.938Z</time></trkpt><trkpt lat="42.745118" lon="12.7447977"><ele>323.66666666666663</ele><time>2026-04-26T09:26:25.938Z</time></trkpt><trkpt lat="42.7450987" lon="12.7446987"><ele>325.3333333333333</ele><time>2026-04-26T09:26:26.938Z</time></trkpt><trkpt lat="42.7450675" lon="12.7445818"><ele>327.0</ele><time>2026-04-26T09:26:28.938Z</time></trkpt><trkpt lat="42.7450261" lon="12.7445108"><ele>328.6666666666667</ele><time>2026-04-26T09:26:32.938Z</time></trkpt><trkpt lat="42.7449637" lon="12.744456"><ele>330.33333333333337</ele><time>2026-04-26T09:26:34.939Z</time></trkpt><trkpt lat="42.7448777" lon="12.7444275"><ele>332.0</ele><time>2026-04-26T09:26:35.938Z</time></trkpt><trkpt lat="42.7447772" lon="12.7443896"><ele>331.5</ele><time>2026-04-26T09:26:36.938Z</time></trkpt><trkpt lat="42.7446843" lon="12.7443119"><ele>331.0</ele><time>2026-04-26T09:26:37.938Z</time></trkpt><trkpt lat="42.7445972" lon="12.744202"><ele>330.5</ele><time>2026-04-26T09:26:38.938Z</time></trkpt><trkpt lat="42.7445094" lon="12.7440738"><ele>330.0</ele><time>2026-04-26T09:26:39.938Z</time></trkpt><trkpt lat="42.7444118" lon="12.7439402"><ele>330.75</ele><time>2026-04-26T09:26:40.938Z</time></trkpt><trkpt lat="42.7443224" lon="12.7438008"><ele>331.5</ele><time>2026-04-26T09:26:41.938Z</time></trkpt><trkpt lat="42.7442379" lon="12.743653"><ele>332.25</ele><time>2026-04-26T09:26:42.938Z</time></trkpt><trkpt lat="42.7441524" lon="12.7435175"><ele>333.0</ele><time>2026-04-26T09:26:43.939Z</time></trkpt><trkpt lat="42.7440704" lon="12.743394"><ele>333.0</ele><time>2026-04-26T09:26:44.938Z</time></trkpt><trkpt lat="42.7439823" lon="12.7432814"><ele>333.0</ele><time>2026-04-26T09:26:45.939Z</time></trkpt><trkpt lat="42.7438886" lon="12.7432079"><ele>333.0</ele><time>2026-04-26T09:26:46.938Z</time></trkpt><trkpt lat="42.7437822" lon="12.7431924"><ele>333.0</ele><time>2026-04-26T09:26:47.938Z</time></trkpt><trkpt lat="42.743663" lon="12.7432177"><ele>333.0</ele><time>2026-04-26T09:26:48.938Z</time></trkpt><trkpt lat="42.743559" lon="12.7432713"><ele>333.0</ele><time>2026-04-26T09:26:49.938Z</time></trkpt><trkpt lat="42.743476" lon="12.7433487"><ele>333.0</ele><time>2026-04-26T09:26:50.938Z</time></trkpt><trkpt lat="42.7434194" lon="12.7434551"><ele>333.0</ele><time>2026-04-26T09:26:51.938Z</time></trkpt><trkpt lat="42.7433879" lon="12.7435666"><ele>333.0</ele><time>2026-04-26T09:26:52.938Z</time></trkpt><trkpt lat="42.7433847" lon="12.7436663"><ele>333.79999999999995</ele><time>2026-04-26T09:26:53.938Z</time></trkpt><trkpt lat="42.7433876" lon="12.7437546"><ele>334.6</ele><time>2026-04-26T09:26:54.938Z</time></trkpt><trkpt lat="42.7434241" lon="12.7439227"><ele>335.4</ele><time>2026-04-26T09:26:56.938Z</time></trkpt><trkpt lat="42.7434708" lon="12.7440203"><ele>336.20000000000005</ele><time>2026-04-26T09:26:57.939Z</time></trkpt><trkpt lat="42.7435225" lon="12.7441384"><ele>337.0</ele><time>2026-04-26T09:26:58.938Z</time></trkpt><trkpt lat="42.7435683" lon="12.7442683"><ele>339.5</ele><time>2026-04-26T09:26:59.939Z</time></trkpt><trkpt lat="42.7436141" lon="12.7444074"><ele>342.0</ele><time>2026-04-26T09:27:00.938Z</time></trkpt><trkpt lat="42.7436645" lon="12.7445469"><ele>344.5</ele><time>2026-04-26T09:27:01.938Z</time></trkpt><trkpt lat="42.7437179" lon="12.7446906"><ele>347.0</ele><time>2026-04-26T09:27:02.939Z</time></trkpt><trkpt lat="42.7437804" lon="12.7448372"><ele>347.0</ele><time>2026-04-26T09:27:03.938Z</time></trkpt><trkpt lat="42.7438609" lon="12.7449957"><ele>347.0</ele><time>2026-04-26T09:27:04.939Z</time></trkpt><trkpt lat="42.7439656" lon="12.7451739"><ele>347.0</ele><time>2026-04-26T09:27:05.938Z</time></trkpt><trkpt lat="42.7440839" lon="12.7453666"><ele>344.33333333333337</ele><time>2026-04-26T09:27:06.938Z</time></trkpt><trkpt lat="42.7442008" lon="12.7455646"><ele>341.6666666666667</ele><time>2026-04-26T09:27:07.938Z</time></trkpt><trkpt lat="42.7443169" lon="12.7457608"><ele>339.0</ele><time>2026-04-26T09:27:08.938Z</time></trkpt><trkpt lat="42.7444223" lon="12.7459451"><ele>341.3333333333333</ele><time>2026-04-26T09:27:09.938Z</time></trkpt><trkpt lat="42.7445117" lon="12.7461235"><ele>343.66666666666663</ele><time>2026-04-26T09:27:10.938Z</time></trkpt><trkpt lat="42.7445757" lon="12.7463206"><ele>346.0</ele><time>2026-04-26T09:27:11.939Z</time></trkpt><trkpt lat="42.7446261" lon="12.7465172"><ele>346.0</ele><time>2026-04-26T09:27:12.939Z</time></trkpt><trkpt lat="42.7446627" lon="12.7467061"><ele>346.0</ele><time>2026-04-26T09:27:13.938Z</time></trkpt><trkpt lat="42.7446627" lon="12.7468948"><ele>346.0</ele><time>2026-04-26T09:27:14.939Z</time></trkpt><trkpt lat="42.7446092" lon="12.7471008"><ele>346.0</ele><time>2026-04-26T09:27:15.938Z</time></trkpt><trkpt lat="42.7445363" lon="12.747294"><ele>347.0</ele><time>2026-04-26T09:27:16.938Z</time></trkpt><trkpt lat="42.7444575" lon="12.7474789"><ele>348.0</ele><time>2026-04-26T09:27:17.938Z</time></trkpt><trkpt lat="42.744402" lon="12.7476574"><ele>349.0</ele><time>2026-04-26T09:27:18.938Z</time></trkpt><trkpt lat="42.7443942" lon="12.7478428"><ele>350.0</ele><time>2026-04-26T09:27:19.938Z</time></trkpt><trkpt lat="42.7444323" lon="12.7480302"><ele>354.33333333333337</ele><time>2026-04-26T09:27:20.938Z</time></trkpt><trkpt lat="42.744511" lon="12.748206"><ele>358.6666666666667</ele><time>2026-04-26T09:27:21.938Z</time></trkpt><trkpt lat="42.7446239" lon="12.7483881"><ele>363.0</ele><time>2026-04-26T09:27:22.938Z</time></trkpt><trkpt lat="42.7447633" lon="12.748552"><ele>368.3333333333333</ele><time>2026-04-26T09:27:23.938Z</time></trkpt><trkpt lat="42.7449242" lon="12.7486522"><ele>373.66666666666663</ele><time>2026-04-26T09:27:24.938Z</time></trkpt><trkpt lat="42.7450717" lon="12.7487363"><ele>379.0</ele><time>2026-04-26T09:27:25.938Z</time></trkpt><trkpt lat="42.7451906" lon="12.7488316"><ele>372.75</ele><time>2026-04-26T09:27:26.938Z</time></trkpt><trkpt lat="42.7452792" lon="12.748972"><ele>366.5</ele><time>2026-04-26T09:27:27.938Z</time></trkpt><trkpt lat="42.745342" lon="12.749135"><ele>360.25</ele><time>2026-04-26T09:27:28.938Z</time></trkpt><trkpt lat="42.7453485" lon="12.7493123"><ele>354.0</ele><time>2026-04-26T09:27:29.938Z</time></trkpt><trkpt lat="42.7453081" lon="12.7494962"><ele>354.0</ele><time>2026-04-26T09:27:30.938Z</time></trkpt><trkpt lat="42.7452365" lon="12.7496666"><ele>354.0</ele><time>2026-04-26T09:27:31.938Z</time></trkpt><trkpt lat="42.7451456" lon="12.7498338"><ele>354.0</ele><time>2026-04-26T09:27:32.938Z</time></trkpt><trkpt lat="42.7450413" lon="12.7500034"><ele>363.0</ele><time>2026-04-26T09:27:33.938Z</time></trkpt><trkpt lat="42.7449393" lon="12.750203"><ele>372.0</ele><time>2026-04-26T09:27:34.938Z</time></trkpt><trkpt lat="42.7448528" lon="12.7503893"><ele>381.0</ele><time>2026-04-26T09:27:35.938Z</time></trkpt><trkpt lat="42.744788" lon="12.7505645"><ele>381.0</ele><time>2026-04-26T09:27:36.938Z</time></trkpt><trkpt lat="42.7447475" lon="12.7507279"><ele>381.0</ele><time>2026-04-26T09:27:37.938Z</time></trkpt><trkpt lat="42.7447303" lon="12.7508814"><ele>381.0</ele><time>2026-04-26T09:27:38.938Z</time></trkpt><trkpt lat="42.7447596" lon="12.7510273"><ele>381.0</ele><time>2026-04-26T09:27:39.938Z</time></trkpt><trkpt lat="42.7448303" lon="12.7511543"><ele>384.75</ele><time>2026-04-26T09:27:40.938Z</time></trkpt><trkpt lat="42.7449387" lon="12.7512423"><ele>388.5</ele><time>2026-04-26T09:27:41.939Z</time></trkpt><trkpt lat="42.7450757" lon="12.7513053"><ele>392.25</ele><time>2026-04-26T09:27:42.938Z</time></trkpt><trkpt lat="42.7452237" lon="12.7513657"><ele>396.0</ele><time>2026-04-26T09:27:43.939Z</time></trkpt><trkpt lat="42.7453832" lon="12.751424"><ele>396.0</ele><time>2026-04-26T09:27:44.939Z</time></trkpt><trkpt lat="42.7455464" lon="12.7514841"><ele>396.0</ele><time>2026-04-26T09:27:45.938Z</time></trkpt><trkpt lat="42.7457143" lon="12.7515486"><ele>396.0</ele><time>2026-04-26T09:27:46.938Z</time></trkpt><trkpt lat="42.7458824" lon="12.7516066"><ele>396.0</ele><time>2026-04-26T09:27:47.938Z</time></trkpt><trkpt lat="42.7460313" lon="12.7516823"><ele>396.0</ele><time>2026-04-26T09:27:48.939Z</time></trkpt><trkpt lat="42.7461645" lon="12.7517791"><ele>396.0</ele><time>2026-04-26T09:27:49.938Z</time></trkpt><trkpt lat="42.7462928" lon="12.7519056"><ele>399.5</ele><time>2026-04-26T09:27:50.939Z</time></trkpt><trkpt lat="42.7464201" lon="12.752005"><ele>403.0</ele><time>2026-04-26T09:27:51.938Z</time></trkpt><trkpt lat="42.7465654" lon="12.7520511"><ele>406.5</ele><time>2026-04-26T09:27:52.938Z</time></trkpt><trkpt lat="42.7467186" lon="12.7520424"><ele>410.0</ele><time>2026-04-26T09:27:53.938Z</time></trkpt><trkpt lat="42.7468754" lon="12.7520084"><ele>409.25</ele><time>2026-04-26T09:27:54.939Z</time></trkpt><trkpt lat="42.7470301" lon="12.7519946"><ele>408.5</ele><time>2026-04-26T09:27:55.938Z</time></trkpt><trkpt lat="42.7471701" lon="12.7520305"><ele>407.75</ele><time>2026-04-26T09:27:56.938Z</time></trkpt><trkpt lat="42.747303" lon="12.7520976"><ele>407.0</ele><time>2026-04-26T09:27:57.938Z</time></trkpt><trkpt lat="42.7474346" lon="12.7522095"><ele>407.0</ele><time>2026-04-26T09:27:58.938Z</time></trkpt><trkpt lat="42.7475595" lon="12.7523084"><ele>407.0</ele><time>2026-04-26T09:27:59.938Z</time></trkpt><trkpt lat="42.7476961" lon="12.7523699"><ele>407.0</ele><time>2026-04-26T09:28:00.939Z</time></trkpt><trkpt lat="42.7478427" lon="12.7524069"><ele>407.0</ele><time>2026-04-26T09:28:01.938Z</time></trkpt><trkpt lat="42.747977" lon="12.7524567"><ele>404.75</ele><time>2026-04-26T09:28:02.938Z</time></trkpt><trkpt lat="42.7480942" lon="12.752538"><ele>402.5</ele><time>2026-04-26T09:28:03.938Z</time></trkpt><trkpt lat="42.7481879" lon="12.7526646"><ele>400.25</ele><time>2026-04-26T09:28:04.939Z</time></trkpt><trkpt lat="42.7482369" lon="12.7528151"><ele>398.0</ele><time>2026-04-26T09:28:05.938Z</time></trkpt><trkpt lat="42.7482357" lon="12.7529873"><ele>398.0</ele><time>2026-04-26T09:28:06.938Z</time></trkpt><trkpt lat="42.7481878" lon="12.7531501"><ele>398.0</ele><time>2026-04-26T09:28:07.938Z</time></trkpt><trkpt lat="42.7480867" lon="12.7532735"><ele>398.0</ele><time>2026-04-26T09:28:08.939Z</time></trkpt><trkpt lat="42.747955" lon="12.7533627"><ele>398.0</ele><time>2026-04-26T09:28:09.938Z</time></trkpt><trkpt lat="42.7478053" lon="12.7534254"><ele>401.0</ele><time>2026-04-26T09:28:10.939Z</time></trkpt><trkpt lat="42.7476551" lon="12.7534334"><ele>404.0</ele><time>2026-04-26T09:28:11.939Z</time></trkpt><trkpt lat="42.7474832" lon="12.7533952"><ele>407.0</ele><time>2026-04-26T09:28:12.938Z</time></trkpt><trkpt lat="42.7472937" lon="12.7533336"><ele>407.0</ele><time>2026-04-26T09:28:13.939Z</time></trkpt><trkpt lat="42.7471017" lon="12.7532573"><ele>407.0</ele><time>2026-04-26T09:28:14.938Z</time></trkpt><trkpt lat="42.7468987" lon="12.7531919"><ele>407.0</ele><time>2026-04-26T09:28:15.938Z</time></trkpt><trkpt lat="42.7467011" lon="12.7531304"><ele>408.0</ele><time>2026-04-26T09:28:16.938Z</time></trkpt><trkpt lat="42.7465012" lon="12.7530934"><ele>409.0</ele><time>2026-04-26T09:28:17.938Z</time></trkpt><trkpt lat="42.7462815" lon="12.7531036"><ele>410.0</ele><time>2026-04-26T09:28:18.939Z</time></trkpt><trkpt lat="42.7460667" lon="12.7531373"><ele>413.0</ele><time>2026-04-26T09:28:19.938Z</time></trkpt><trkpt lat="42.7458614" lon="12.753185"><ele>416.0</ele><time>2026-04-26T09:28:20.938Z</time></trkpt><trkpt lat="42.745662" lon="12.7531982"><ele>419.0</ele><time>2026-04-26T09:28:21.938Z</time></trkpt><trkpt lat="42.7454573" lon="12.7531923"><ele>419.0</ele><time>2026-04-26T09:28:22.938Z</time></trkpt><trkpt lat="42.7452487" lon="12.7531616"><ele>419.0</ele><time>2026-04-26T09:28:23.938Z</time></trkpt><trkpt lat="42.7450233" lon="12.7531694"><ele>419.0</ele><time>2026-04-26T09:28:24.939Z</time></trkpt><trkpt lat="42.7447743" lon="12.7532136"><ele>420.0</ele><time>2026-04-26T09:28:25.938Z</time></trkpt><trkpt lat="42.7444952" lon="12.7532852"><ele>421.0</ele><time>2026-04-26T09:28:26.938Z</time></trkpt><trkpt lat="42.7442004" lon="12.7533621"><ele>427.0</ele><time>2026-04-26T09:28:27.938Z</time></trkpt><trkpt lat="42.7439093" lon="12.7534266"><ele>433.0</ele><time>2026-04-26T09:28:28.938Z</time></trkpt><trkpt lat="42.7436509" lon="12.7534816"><ele>430.0</ele><time>2026-04-26T09:28:29.938Z</time></trkpt><trkpt lat="42.7434062" lon="12.7535517"><ele>427.0</ele><time>2026-04-26T09:28:30.938Z</time></trkpt><trkpt lat="42.743182" lon="12.7536206"><ele>427.0</ele><time>2026-04-26T09:28:31.938Z</time></trkpt><trkpt lat="42.7429808" lon="12.7537061"><ele>427.0</ele><time>2026-04-26T09:28:32.938Z</time></trkpt><trkpt lat="42.7428" lon="12.7537742"><ele>427.0</ele><time>2026-04-26T09:28:33.938Z</time></trkpt><trkpt lat="42.7426447" lon="12.7538304"><ele>432.25</ele><time>2026-04-26T09:28:34.939Z</time></trkpt><trkpt lat="42.7425094" lon="12.7539284"><ele>437.5</ele><time>2026-04-26T09:28:35.938Z</time></trkpt><trkpt lat="42.7424158" lon="12.754062"><ele>442.75</ele><time>2026-04-26T09:28:36.938Z</time></trkpt><trkpt lat="42.7423552" lon="12.7542383"><ele>448.0</ele><time>2026-04-26T09:28:37.939Z</time></trkpt><trkpt lat="42.7423317" lon="12.7544528"><ele>448.0</ele><time>2026-04-26T09:28:38.938Z</time></trkpt><trkpt lat="42.7423043" lon="12.7546793"><ele>448.0</ele><time>2026-04-26T09:28:39.938Z</time></trkpt><trkpt lat="42.7422347" lon="12.7548918"><ele>448.0</ele><time>2026-04-26T09:28:40.938Z</time></trkpt><trkpt lat="42.742135" lon="12.7551062"><ele>449.33333333333337</ele><time>2026-04-26T09:28:41.939Z</time></trkpt><trkpt lat="42.7419953" lon="12.7552974"><ele>450.66666666666663</ele><time>2026-04-26T09:28:42.939Z</time></trkpt><trkpt lat="42.7418608" lon="12.7554641"><ele>452.0</ele><time>2026-04-26T09:28:43.939Z</time></trkpt><trkpt lat="42.741745" lon="12.7556069"><ele>454.5</ele><time>2026-04-26T09:28:44.939Z</time></trkpt><trkpt lat="42.7416686" lon="12.7557617"><ele>457.0</ele><time>2026-04-26T09:28:45.938Z</time></trkpt><trkpt lat="42.7416438" lon="12.7559181"><ele>459.5</ele><time>2026-04-26T09:28:46.938Z</time></trkpt><trkpt lat="42.7416672" lon="12.756083"><ele>462.0</ele><time>2026-04-26T09:28:47.938Z</time></trkpt><trkpt lat="42.7417352" lon="12.756229"><ele>461.5</ele><time>2026-04-26T09:28:48.938Z</time></trkpt><trkpt lat="42.7418357" lon="12.7563464"><ele>461.0</ele><time>2026-04-26T09:28:49.938Z</time></trkpt><trkpt lat="42.7419482" lon="12.7563881"><ele>460.5</ele><time>2026-04-26T09:28:50.938Z</time></trkpt><trkpt lat="42.7420644" lon="12.7563725"><ele>460.0</ele><time>2026-04-26T09:28:51.938Z</time></trkpt><trkpt lat="42.7421954" lon="12.7562972"><ele>460.0</ele><time>2026-04-26T09:28:52.938Z</time></trkpt><trkpt lat="42.7423308" lon="12.7562077"><ele>460.0</ele><time>2026-04-26T09:28:53.938Z</time></trkpt><trkpt lat="42.7424643" lon="12.7561283"><ele>460.0</ele><time>2026-04-26T09:28:54.938Z</time></trkpt><trkpt lat="42.7425938" lon="12.7560996"><ele>460.0</ele><time>2026-04-26T09:28:55.938Z</time></trkpt><trkpt lat="42.742718" lon="12.7561165"><ele>457.75</ele><time>2026-04-26T09:28:56.938Z</time></trkpt><trkpt lat="42.7428302" lon="12.7561899"><ele>455.5</ele><time>2026-04-26T09:28:57.938Z</time></trkpt><trkpt lat="42.7429054" lon="12.7562961"><ele>453.25</ele><time>2026-04-26T09:28:58.938Z</time></trkpt><trkpt lat="42.7429448" lon="12.7564463"><ele>451.0</ele><time>2026-04-26T09:28:59.938Z</time></trkpt><trkpt lat="42.7429377" lon="12.7566091"><ele>451.0</ele><time>2026-04-26T09:29:00.938Z</time></trkpt><trkpt lat="42.7428844" lon="12.7567497"><ele>451.0</ele><time>2026-04-26T09:29:01.938Z</time></trkpt><trkpt lat="42.7427966" lon="12.7568584"><ele>451.0</ele><time>2026-04-26T09:29:02.938Z</time></trkpt><trkpt lat="42.7426761" lon="12.7569196"><ele>451.0</ele><time>2026-04-26T09:29:03.939Z</time></trkpt><trkpt lat="42.742521" lon="12.75695"><ele>449.0</ele><time>2026-04-26T09:29:04.938Z</time></trkpt><trkpt lat="42.7423558" lon="12.7569712"><ele>447.0</ele><time>2026-04-26T09:29:05.938Z</time></trkpt><trkpt lat="42.7422017" lon="12.7570252"><ele>445.0</ele><time>2026-04-26T09:29:06.938Z</time></trkpt><trkpt lat="42.7420612" lon="12.7571359"><ele>445.0</ele><time>2026-04-26T09:29:07.938Z</time></trkpt><trkpt lat="42.7419549" lon="12.7572592"><ele>445.0</ele><time>2026-04-26T09:29:08.938Z</time></trkpt><trkpt lat="42.7418635" lon="12.7573858"><ele>445.0</ele><time>2026-04-26T09:29:09.939Z</time></trkpt><trkpt lat="42.7417771" lon="12.7575099"><ele>445.0</ele><time>2026-04-26T09:29:10.938Z</time></trkpt><trkpt lat="42.741673" lon="12.7576091"><ele>440.0</ele><time>2026-04-26T09:29:11.938Z</time></trkpt><trkpt lat="42.7415492" lon="12.7576658"><ele>435.0</ele><time>2026-04-26T09:29:12.938Z</time></trkpt><trkpt lat="42.741388" lon="12.7577047"><ele>430.0</ele><time>2026-04-26T09:29:13.938Z</time></trkpt><trkpt lat="42.7412284" lon="12.7577498"><ele>430.0</ele><time>2026-04-26T09:29:14.938Z</time></trkpt><trkpt lat="42.7410849" lon="12.7578079"><ele>430.0</ele><time>2026-04-26T09:29:15.938Z</time></trkpt><trkpt lat="42.740971" lon="12.757898"><ele>430.0</ele><time>2026-04-26T09:29:16.938Z</time></trkpt><trkpt lat="42.7408754" lon="12.758052"><ele>430.0</ele><time>2026-04-26T09:29:17.939Z</time></trkpt><trkpt lat="42.7407815" lon="12.7582138"><ele>437.33333333333337</ele><time>2026-04-26T09:29:18.939Z</time></trkpt><trkpt lat="42.7406716" lon="12.7583526"><ele>444.66666666666663</ele><time>2026-04-26T09:29:19.939Z</time></trkpt><trkpt lat="42.740529" lon="12.7584298"><ele>452.0</ele><time>2026-04-26T09:29:20.938Z</time></trkpt><trkpt lat="42.7403563" lon="12.7584766"><ele>450.3333333333333</ele><time>2026-04-26T09:29:21.938Z</time></trkpt><trkpt lat="42.7401597" lon="12.7585407"><ele>448.66666666666663</ele><time>2026-04-26T09:29:22.938Z</time></trkpt><trkpt lat="42.7399629" lon="12.7586391"><ele>447.0</ele><time>2026-04-26T09:29:23.939Z</time></trkpt><trkpt lat="42.7397537" lon="12.7587783"><ele>447.0</ele><time>2026-04-26T09:29:24.938Z</time></trkpt><trkpt lat="42.7395404" lon="12.7589346"><ele>447.0</ele><time>2026-04-26T09:29:25.938Z</time></trkpt><trkpt lat="42.7393347" lon="12.7590735"><ele>449.33333333333337</ele><time>2026-04-26T09:29:26.938Z</time></trkpt><trkpt lat="42.7391677" lon="12.7592062"><ele>451.6666666666667</ele><time>2026-04-26T09:29:27.938Z</time></trkpt><trkpt lat="42.739026" lon="12.759329"><ele>454.0</ele><time>2026-04-26T09:29:28.938Z</time></trkpt><trkpt lat="42.7389058" lon="12.7594692"><ele>454.0</ele><time>2026-04-26T09:29:29.939Z</time></trkpt><trkpt lat="42.7388227" lon="12.7596467"><ele>454.0</ele><time>2026-04-26T09:29:30.938Z</time></trkpt><trkpt lat="42.738732" lon="12.7598773"><ele>454.0</ele><time>2026-04-26T09:29:31.938Z</time></trkpt><trkpt lat="42.7386344" lon="12.7601144"><ele>458.0</ele><time>2026-04-26T09:29:32.938Z</time></trkpt><trkpt lat="42.7385382" lon="12.7603338"><ele>462.0</ele><time>2026-04-26T09:29:33.938Z</time></trkpt><trkpt lat="42.7384487" lon="12.7605214"><ele>466.0</ele><time>2026-04-26T09:29:34.938Z</time></trkpt><trkpt lat="42.7383892" lon="12.7606875"><ele>466.0</ele><time>2026-04-26T09:29:35.939Z</time></trkpt><trkpt lat="42.7383609" lon="12.7608311"><ele>466.0</ele><time>2026-04-26T09:29:36.939Z</time></trkpt><trkpt lat="42.7383785" lon="12.7609668"><ele>466.0</ele><time>2026-04-26T09:29:37.938Z</time></trkpt><trkpt lat="42.7384266" lon="12.7610907"><ele>466.0</ele><time>2026-04-26T09:29:38.938Z</time></trkpt><trkpt lat="42.7385015" lon="12.7611654"><ele>466.0</ele><time>2026-04-26T09:29:39.938Z</time></trkpt><trkpt lat="42.7385864" lon="12.7611501"><ele>467.5</ele><time>2026-04-26T09:29:40.938Z</time></trkpt><trkpt lat="42.7386808" lon="12.7610894"><ele>469.0</ele><time>2026-04-26T09:29:41.938Z</time></trkpt><trkpt lat="42.738792" lon="12.7609681"><ele>470.5</ele><time>2026-04-26T09:29:42.939Z</time></trkpt><trkpt lat="42.7389214" lon="12.7608138"><ele>472.0</ele><time>2026-04-26T09:29:43.938Z</time></trkpt><trkpt lat="42.7390833" lon="12.7606373"><ele>472.0</ele><time>2026-04-26T09:29:44.939Z</time></trkpt><trkpt lat="42.7392283" lon="12.7604758"><ele>472.0</ele><time>2026-04-26T09:29:45.938Z</time></trkpt><trkpt lat="42.739372" lon="12.760348"><ele>472.0</ele><time>2026-04-26T09:29:46.938Z</time></trkpt><trkpt lat="42.7395176" lon="12.7602651"><ele>478.6666666666667</ele><time>2026-04-26T09:29:47.938Z</time></trkpt><trkpt lat="42.7396744" lon="12.7602017"><ele>485.33333333333337</ele><time>2026-04-26T09:29:48.938Z</time></trkpt><trkpt lat="42.7398477" lon="12.7601813"><ele>492.0</ele><time>2026-04-26T09:29:49.938Z</time></trkpt><trkpt lat="42.7400285" lon="12.7601984"><ele>492.0</ele><time>2026-04-26T09:29:50.938Z</time></trkpt><trkpt lat="42.7401988" lon="12.7602597"><ele>492.0</ele><time>2026-04-26T09:29:51.939Z</time></trkpt><trkpt lat="42.7403581" lon="12.7603641"><ele>492.0</ele><time>2026-04-26T09:29:52.939Z</time></trkpt><trkpt lat="42.7405073" lon="12.7605058"><ele>487.33333333333337</ele><time>2026-04-26T09:29:53.938Z</time></trkpt><trkpt lat="42.7406464" lon="12.7606608"><ele>482.6666666666667</ele><time>2026-04-26T09:29:54.938Z</time></trkpt><trkpt lat="42.7408047" lon="12.7607873"><ele>478.0</ele><time>2026-04-26T09:29:55.939Z</time></trkpt><trkpt lat="42.7409791" lon="12.7608527"><ele>476.0</ele><time>2026-04-26T09:29:56.938Z</time></trkpt><trkpt lat="42.7411685" lon="12.7608335"><ele>474.0</ele><time>2026-04-26T09:29:57.938Z</time></trkpt><trkpt lat="42.7413488" lon="12.7607706"><ele>472.0</ele><time>2026-04-26T09:29:58.938Z</time></trkpt><trkpt lat="42.74152" lon="12.7607071"><ele>472.0</ele><time>2026-04-26T09:29:59.939Z</time></trkpt><trkpt lat="42.7416409" lon="12.7605718"><ele>472.0</ele><time>2026-04-26T09:30:00.938Z</time></trkpt><trkpt lat="42.7417606" lon="12.760419"><ele>472.0</ele><time>2026-04-26T09:30:01.938Z</time></trkpt><trkpt lat="42.74186" lon="12.7602617"><ele>470.6</ele><time>2026-04-26T09:30:02.938Z</time></trkpt><trkpt lat="42.7419481" lon="12.7601319"><ele>469.20000000000005</ele><time>2026-04-26T09:30:03.938Z</time></trkpt><trkpt lat="42.7420396" lon="12.7600709"><ele>467.8</ele><time>2026-04-26T09:30:04.938Z</time></trkpt><trkpt lat="42.7421467" lon="12.7600541"><ele>466.4</ele><time>2026-04-26T09:30:05.938Z</time></trkpt><trkpt lat="42.7422225" lon="12.7601115"><ele>465.0</ele><time>2026-04-26T09:30:06.939Z</time></trkpt><trkpt lat="42.7422486" lon="12.7602212"><ele>464.75</ele><time>2026-04-26T09:30:07.938Z</time></trkpt><trkpt lat="42.7422154" lon="12.760371"><ele>464.5</ele><time>2026-04-26T09:30:08.938Z</time></trkpt><trkpt lat="42.7421609" lon="12.7605055"><ele>464.25</ele><time>2026-04-26T09:30:09.938Z</time></trkpt><trkpt lat="42.7420468" lon="12.7606274"><ele>464.0</ele><time>2026-04-26T09:30:10.938Z</time></trkpt><trkpt lat="42.7419063" lon="12.7607671"><ele>466.66666666666663</ele><time>2026-04-26T09:30:11.939Z</time></trkpt><trkpt lat="42.7417697" lon="12.7609416"><ele>469.33333333333337</ele><time>2026-04-26T09:30:12.938Z</time></trkpt><trkpt lat="42.7416473" lon="12.7611018"><ele>472.0</ele><time>2026-04-26T09:30:13.938Z</time></trkpt><trkpt lat="42.7415328" lon="12.7612201"><ele>472.6666666666667</ele><time>2026-04-26T09:30:14.938Z</time></trkpt><trkpt lat="42.7414041" lon="12.7612599"><ele>473.33333333333337</ele><time>2026-04-26T09:30:15.939Z</time></trkpt><trkpt lat="42.7412514" lon="12.7612769"><ele>474.0</ele><time>2026-04-26T09:30:16.938Z</time></trkpt><trkpt lat="42.741067" lon="12.7612517"><ele>477.25</ele><time>2026-04-26T09:30:17.946Z</time></trkpt><trkpt lat="42.7408858" lon="12.7612245"><ele>480.5</ele><time>2026-04-26T09:30:18.946Z</time></trkpt><trkpt lat="42.7407352" lon="12.7612254"><ele>483.75</ele><time>2026-04-26T09:30:19.946Z</time></trkpt><trkpt lat="42.7406303" lon="12.7612935"><ele>487.0</ele><time>2026-04-26T09:30:20.946Z</time></trkpt><trkpt lat="42.7405361" lon="12.7614296"><ele>487.0</ele><time>2026-04-26T09:30:21.946Z</time></trkpt><trkpt lat="42.7404507" lon="12.7616157"><ele>487.0</ele><time>2026-04-26T09:30:22.947Z</time></trkpt><trkpt lat="42.7403836" lon="12.7618478"><ele>487.0</ele><time>2026-04-26T09:30:23.946Z</time></trkpt><trkpt lat="42.7403268" lon="12.7621258"><ele>485.0</ele><time>2026-04-26T09:30:24.946Z</time></trkpt><trkpt lat="42.7402722" lon="12.7624263"><ele>483.0</ele><time>2026-04-26T09:30:25.946Z</time></trkpt><trkpt lat="42.7402066" lon="12.7627449"><ele>494.0</ele><time>2026-04-26T09:30:26.946Z</time></trkpt><trkpt lat="42.740139" lon="12.7630632"><ele>505.0</ele><time>2026-04-26T09:30:27.946Z</time></trkpt><trkpt lat="42.7400723" lon="12.7633829"><ele>505.6666666666667</ele><time>2026-04-26T09:30:28.946Z</time></trkpt><trkpt lat="42.7400057" lon="12.7636843"><ele>506.33333333333337</ele><time>2026-04-26T09:30:29.946Z</time></trkpt><trkpt lat="42.7399414" lon="12.7639599"><ele>507.0</ele><time>2026-04-26T09:30:30.946Z</time></trkpt><trkpt lat="42.7398936" lon="12.7641822"><ele>506.6</ele><time>2026-04-26T09:30:31.946Z</time></trkpt><trkpt lat="42.7398532" lon="12.764373"><ele>506.20000000000005</ele><time>2026-04-26T09:30:32.946Z</time></trkpt><trkpt lat="42.739823" lon="12.7645385"><ele>505.8</ele><time>2026-04-26T09:30:33.947Z</time></trkpt><trkpt lat="42.7397808" lon="12.7646481"><ele>505.4</ele><time>2026-04-26T09:30:34.946Z</time></trkpt><trkpt lat="42.7397175" lon="12.7647303"><ele>505.0</ele><time>2026-04-26T09:30:35.946Z</time></trkpt><trkpt lat="42.7396382" lon="12.7647587"><ele>505.0</ele><time>2026-04-26T09:30:36.947Z</time></trkpt><trkpt lat="42.7395707" lon="12.7647051"><ele>505.0</ele><time>2026-04-26T09:30:37.946Z</time></trkpt><trkpt lat="42.7395272" lon="12.7645871"><ele>505.0</ele><time>2026-04-26T09:30:38.947Z</time></trkpt><trkpt lat="42.7395321" lon="12.7644375"><ele>505.0</ele><time>2026-04-26T09:30:39.946Z</time></trkpt><trkpt lat="42.7395673" lon="12.7642447"><ele>505.0</ele><time>2026-04-26T09:30:40.947Z</time></trkpt><trkpt lat="42.7396031" lon="12.7640212"><ele>505.0</ele><time>2026-04-26T09:30:41.946Z</time></trkpt><trkpt lat="42.739644" lon="12.7637851"><ele>505.0</ele><time>2026-04-26T09:30:42.947Z</time></trkpt><trkpt lat="42.739677" lon="12.7635794"><ele>505.0</ele><time>2026-04-26T09:30:43.946Z</time></trkpt><trkpt lat="42.7396969" lon="12.7634153"><ele>505.00000000000006</ele><time>2026-04-26T09:30:44.946Z</time></trkpt><trkpt lat="42.7396684" lon="12.7632669"><ele>505.0</ele><time>2026-04-26T09:30:45.946Z</time></trkpt><trkpt lat="42.7396158" lon="12.7631726"><ele>505.0</ele><time>2026-04-26T09:30:46.946Z</time></trkpt><trkpt lat="42.7395456" lon="12.7631537"><ele>505.0</ele><time>2026-04-26T09:30:47.946Z</time></trkpt><trkpt lat="42.7394659" lon="12.7631881"><ele>505.00000000000006</ele><time>2026-04-26T09:30:48.946Z</time></trkpt><trkpt lat="42.7394146" lon="12.7632804"><ele>505.0</ele><time>2026-04-26T09:30:49.947Z</time></trkpt><trkpt lat="42.7393822" lon="12.763419"><ele>505.6666666666667</ele><time>2026-04-26T09:30:50.946Z</time></trkpt><trkpt lat="42.7393888" lon="12.7635819"><ele>506.33333333333337</ele><time>2026-04-26T09:30:51.946Z</time></trkpt><trkpt lat="42.7393601" lon="12.7638357"><ele>507.0</ele><time>2026-04-26T09:30:52.946Z</time></trkpt><trkpt lat="42.739327" lon="12.7641409"><ele>518.0</ele><time>2026-04-26T09:30:53.946Z</time></trkpt><trkpt lat="42.7393016" lon="12.7644357"><ele>529.0</ele><time>2026-04-26T09:30:54.946Z</time></trkpt><trkpt lat="42.7392928" lon="12.7647539"><ele>529.0</ele><time>2026-04-26T09:30:55.946Z</time></trkpt><trkpt lat="42.7393212" lon="12.7650626"><ele>529.0</ele><time>2026-04-26T09:30:56.946Z</time></trkpt><trkpt lat="42.7393599" lon="12.765364"><ele>520.5</ele><time>2026-04-26T09:30:57.946Z</time></trkpt><trkpt lat="42.7394042" lon="12.7656703"><ele>512.0</ele><time>2026-04-26T09:30:58.946Z</time></trkpt><trkpt lat="42.7394424" lon="12.765988"><ele>518.5</ele><time>2026-04-26T09:30:59.946Z</time></trkpt><trkpt lat="42.7394887" lon="12.766311"><ele>525.0</ele><time>2026-04-26T09:31:00.945Z</time></trkpt><trkpt lat="42.7395327" lon="12.7666364"><ele>528.5</ele><time>2026-04-26T09:31:01.946Z</time></trkpt><trkpt lat="42.7395792" lon="12.7669776"><ele>532.0</ele><time>2026-04-26T09:31:02.945Z</time></trkpt><trkpt lat="42.7396309" lon="12.7673194"><ele>532.0</ele><time>2026-04-26T09:31:03.945Z</time></trkpt><trkpt lat="42.7396893" lon="12.7676414"><ele>532.0</ele><time>2026-04-26T09:31:04.945Z</time></trkpt><trkpt lat="42.7397533" lon="12.7679487"><ele>533.5</ele><time>2026-04-26T09:31:05.945Z</time></trkpt><trkpt lat="42.7398272" lon="12.7682414"><ele>535.0</ele><time>2026-04-26T09:31:06.945Z</time></trkpt><trkpt lat="42.7399038" lon="12.7685371"><ele>535.0</ele><time>2026-04-26T09:31:07.945Z</time></trkpt><trkpt lat="42.7399643" lon="12.7688333"><ele>535.0</ele><time>2026-04-26T09:31:08.945Z</time></trkpt><trkpt lat="42.7399955" lon="12.7691575"><ele>535.5</ele><time>2026-04-26T09:31:09.945Z</time></trkpt><trkpt lat="42.7399973" lon="12.7694956"><ele>536.0</ele><time>2026-04-26T09:31:10.945Z</time></trkpt><trkpt lat="42.7399974" lon="12.7698617"><ele>537.5</ele><time>2026-04-26T09:31:11.946Z</time></trkpt><trkpt lat="42.7399985" lon="12.7702302"><ele>539.0</ele><time>2026-04-26T09:31:12.946Z</time></trkpt><trkpt lat="42.7399895" lon="12.7705847"><ele>539.0</ele><time>2026-04-26T09:31:13.945Z</time></trkpt><trkpt lat="42.7399858" lon="12.7709372"><ele>539.0</ele><time>2026-04-26T09:31:14.945Z</time></trkpt><trkpt lat="42.7400059" lon="12.7713066"><ele>540.0</ele><time>2026-04-26T09:31:15.945Z</time></trkpt><trkpt lat="42.7400385" lon="12.7716898"><ele>541.0</ele><time>2026-04-26T09:31:16.945Z</time></trkpt><trkpt lat="42.7400791" lon="12.7720947"><ele>541.0</ele><time>2026-04-26T09:31:17.945Z</time></trkpt><trkpt lat="42.7401307" lon="12.7725098"><ele>541.0</ele><time>2026-04-26T09:31:18.945Z</time></trkpt><trkpt lat="42.7401843" lon="12.772918"><ele>560.0</ele><time>2026-04-26T09:31:19.945Z</time></trkpt><trkpt lat="42.7402338" lon="12.7732939"><ele>579.0</ele><time>2026-04-26T09:31:20.945Z</time></trkpt><trkpt lat="42.740274" lon="12.7736383"><ele>579.0</ele><time>2026-04-26T09:31:21.946Z</time></trkpt><trkpt lat="42.7403064" lon="12.7739582"><ele>579.0</ele><time>2026-04-26T09:31:22.946Z</time></trkpt><trkpt lat="42.7403324" lon="12.7742708"><ele>579.0</ele><time>2026-04-26T09:31:23.946Z</time></trkpt><trkpt lat="42.7403583" lon="12.7745732"><ele>579.0</ele><time>2026-04-26T09:31:24.945Z</time></trkpt><trkpt lat="42.7403569" lon="12.7748735"><ele>579.0</ele><time>2026-04-26T09:31:25.945Z</time></trkpt><trkpt lat="42.740323" lon="12.7752051"><ele>580.5</ele><time>2026-04-26T09:31:26.945Z</time></trkpt><trkpt lat="42.7402852" lon="12.7755643"><ele>582.0</ele><time>2026-04-26T09:31:27.945Z</time></trkpt><trkpt lat="42.7402455" lon="12.7759214"><ele>566.0</ele><time>2026-04-26T09:31:28.945Z</time></trkpt><trkpt lat="42.7402137" lon="12.7762905"><ele>550.0</ele><time>2026-04-26T09:31:29.945Z</time></trkpt><trkpt lat="42.7402014" lon="12.7766548"><ele>551.0</ele><time>2026-04-26T09:31:30.945Z</time></trkpt><trkpt lat="42.7401884" lon="12.7770041"><ele>552.0</ele><time>2026-04-26T09:31:31.945Z</time></trkpt><trkpt lat="42.7401599" lon="12.7773375"><ele>552.0</ele><time>2026-04-26T09:31:32.946Z</time></trkpt><trkpt lat="42.7401208" lon="12.7776591"><ele>552.0</ele><time>2026-04-26T09:31:33.946Z</time></trkpt><trkpt lat="42.7400791" lon="12.7779796"><ele>554.5</ele><time>2026-04-26T09:31:34.946Z</time></trkpt><trkpt lat="42.740067" lon="12.7783162"><ele>557.0</ele><time>2026-04-26T09:31:35.945Z</time></trkpt><trkpt lat="42.7400712" lon="12.7786684"><ele>557.0</ele><time>2026-04-26T09:31:36.945Z</time></trkpt><trkpt lat="42.740089" lon="12.7790082"><ele>557.0</ele><time>2026-04-26T09:31:37.945Z</time></trkpt><trkpt lat="42.7401076" lon="12.7793265"><ele>558.0</ele><time>2026-04-26T09:31:38.945Z</time></trkpt><trkpt lat="42.7401301" lon="12.7796237"><ele>559.0</ele><time>2026-04-26T09:31:39.946Z</time></trkpt><trkpt lat="42.740149" lon="12.7798985"><ele>560.0</ele><time>2026-04-26T09:31:40.946Z</time></trkpt><trkpt lat="42.7401628" lon="12.780154"><ele>560.0</ele><time>2026-04-26T09:31:41.945Z</time></trkpt><trkpt lat="42.7401884" lon="12.7803855"><ele>560.0</ele><time>2026-04-26T09:31:42.945Z</time></trkpt><trkpt lat="42.7402417" lon="12.7806141"><ele>560.0</ele><time>2026-04-26T09:31:43.946Z</time></trkpt><trkpt lat="42.7403287" lon="12.7808458"><ele>564.3333333333333</ele><time>2026-04-26T09:31:44.945Z</time></trkpt><trkpt lat="42.7404412" lon="12.7810617"><ele>568.6666666666666</ele><time>2026-04-26T09:31:45.946Z</time></trkpt><trkpt lat="42.7405547" lon="12.7812699"><ele>573.0</ele><time>2026-04-26T09:31:46.945Z</time></trkpt><trkpt lat="42.7406601" lon="12.7814747"><ele>573.0</ele><time>2026-04-26T09:31:47.945Z</time></trkpt><trkpt lat="42.7407544" lon="12.7816784"><ele>573.0</ele><time>2026-04-26T09:31:48.946Z</time></trkpt><trkpt lat="42.7408335" lon="12.781896"><ele>573.0</ele><time>2026-04-26T09:31:49.945Z</time></trkpt><trkpt lat="42.740902" lon="12.7821197"><ele>571.3333333333334</ele><time>2026-04-26T09:31:50.945Z</time></trkpt><trkpt lat="42.7409671" lon="12.7823471"><ele>569.6666666666667</ele><time>2026-04-26T09:31:51.945Z</time></trkpt><trkpt lat="42.7410224" lon="12.7825618"><ele>568.0</ele><time>2026-04-26T09:31:52.945Z</time></trkpt><trkpt lat="42.7410608" lon="12.7827632"><ele>567.8</ele><time>2026-04-26T09:31:53.945Z</time></trkpt><trkpt lat="42.7410845" lon="12.7829406"><ele>567.5999999999999</ele><time>2026-04-26T09:31:54.946Z</time></trkpt><trkpt lat="42.7410991" lon="12.783099"><ele>567.4000000000001</ele><time>2026-04-26T09:31:55.945Z</time></trkpt><trkpt lat="42.7411158" lon="12.7832306"><ele>567.2</ele><time>2026-04-26T09:31:56.945Z</time></trkpt><trkpt lat="42.7411394" lon="12.7833468"><ele>567.0</ele><time>2026-04-26T09:31:57.945Z</time></trkpt><trkpt lat="42.7411607" lon="12.7834549"><ele>569.4</ele><time>2026-04-26T09:31:58.945Z</time></trkpt><trkpt lat="42.7411866" lon="12.7835675"><ele>571.8000000000001</ele><time>2026-04-26T09:31:59.946Z</time></trkpt><trkpt lat="42.7412356" lon="12.7836931"><ele>574.2</ele><time>2026-04-26T09:32:00.946Z</time></trkpt><trkpt lat="42.7413166" lon="12.7838061"><ele>576.6</ele><time>2026-04-26T09:32:01.945Z</time></trkpt><trkpt lat="42.7414252" lon="12.7839099"><ele>579.0</ele><time>2026-04-26T09:32:02.945Z</time></trkpt><trkpt lat="42.7415483" lon="12.7840129"><ele>579.0</ele><time>2026-04-26T09:32:03.946Z</time></trkpt><trkpt lat="42.7416778" lon="12.7840814"><ele>579.0</ele><time>2026-04-26T09:32:04.945Z</time></trkpt><trkpt lat="42.7418076" lon="12.7841399"><ele>579.0</ele><time>2026-04-26T09:32:05.945Z</time></trkpt><trkpt lat="42.7419412" lon="12.7841881"><ele>579.0</ele><time>2026-04-26T09:32:06.945Z</time></trkpt><trkpt lat="42.7420717" lon="12.784221"><ele>577.8</ele><time>2026-04-26T09:32:07.945Z</time></trkpt><trkpt lat="42.7421964" lon="12.7842305"><ele>576.5999999999999</ele><time>2026-04-26T09:32:08.946Z</time></trkpt><trkpt lat="42.7423128" lon="12.7842417"><ele>575.4</ele><time>2026-04-26T09:32:09.945Z</time></trkpt><trkpt lat="42.7424182" lon="12.7842546"><ele>574.1999999999999</ele><time>2026-04-26T09:32:10.945Z</time></trkpt><trkpt lat="42.7425068" lon="12.7842703"><ele>573.0</ele><time>2026-04-26T09:32:11.945Z</time></trkpt><trkpt lat="42.7425731" lon="12.7842995"><ele>580.0</ele><time>2026-04-26T09:32:12.946Z</time></trkpt><trkpt lat="42.742644" lon="12.7844269"><ele>587.0</ele><time>2026-04-26T09:32:14.945Z</time></trkpt><trkpt lat="42.7426272" lon="12.7845333"><ele>594.0</ele><time>2026-04-26T09:32:15.945Z</time></trkpt><trkpt lat="42.7425612" lon="12.7846058"><ele>601.0</ele><time>2026-04-26T09:32:16.946Z</time></trkpt><trkpt lat="42.7424675" lon="12.7846129"><ele>608.0</ele><time>2026-04-26T09:32:17.946Z</time></trkpt><trkpt lat="42.7423691" lon="12.7845758"><ele>608.0</ele><time>2026-04-26T09:32:18.945Z</time></trkpt><trkpt lat="42.7422697" lon="12.7845373"><ele>608.0</ele><time>2026-04-26T09:32:19.945Z</time></trkpt><trkpt lat="42.7421676" lon="12.7845143"><ele>608.0</ele><time>2026-04-26T09:32:20.945Z</time></trkpt><trkpt lat="42.7420538" lon="12.7845124"><ele>608.0</ele><time>2026-04-26T09:32:21.945Z</time></trkpt><trkpt lat="42.741906" lon="12.7845214"><ele>606.0</ele><time>2026-04-26T09:32:22.945Z</time></trkpt><trkpt lat="42.7417303" lon="12.7845339"><ele>604.0</ele><time>2026-04-26T09:32:23.945Z</time></trkpt><trkpt lat="42.7415624" lon="12.7845384"><ele>602.0</ele><time>2026-04-26T09:32:24.945Z</time></trkpt><trkpt lat="42.7414037" lon="12.7845488"><ele>602.0</ele><time>2026-04-26T09:32:25.945Z</time></trkpt><trkpt lat="42.7412665" lon="12.7846007"><ele>602.0</ele><time>2026-04-26T09:32:26.945Z</time></trkpt><trkpt lat="42.7411476" lon="12.7846951"><ele>602.0</ele><time>2026-04-26T09:32:27.945Z</time></trkpt><trkpt lat="42.7410482" lon="12.784853"><ele>602.0</ele><time>2026-04-26T09:32:28.945Z</time></trkpt><trkpt lat="42.7409414" lon="12.785027"><ele>603.0</ele><time>2026-04-26T09:32:29.945Z</time></trkpt><trkpt lat="42.7408383" lon="12.7851785"><ele>604.0</ele><time>2026-04-26T09:32:30.945Z</time></trkpt><trkpt lat="42.7407516" lon="12.7853423"><ele>605.0</ele><time>2026-04-26T09:32:31.945Z</time></trkpt><trkpt lat="42.7406572" lon="12.7855051"><ele>605.0</ele><time>2026-04-26T09:32:32.945Z</time></trkpt><trkpt lat="42.7405434" lon="12.7856455"><ele>605.0</ele><time>2026-04-26T09:32:33.945Z</time></trkpt><trkpt lat="42.7404013" lon="12.7857438"><ele>605.0</ele><time>2026-04-26T09:32:34.945Z</time></trkpt><trkpt lat="42.7402316" lon="12.7858134"><ele>602.6666666666666</ele><time>2026-04-26T09:32:35.946Z</time></trkpt><trkpt lat="42.7400541" lon="12.7858719"><ele>600.3333333333334</ele><time>2026-04-26T09:32:36.945Z</time></trkpt><trkpt lat="42.7398913" lon="12.7859748"><ele>598.0</ele><time>2026-04-26T09:32:37.945Z</time></trkpt><trkpt lat="42.7397413" lon="12.7861264"><ele>603.3333333333334</ele><time>2026-04-26T09:32:38.946Z</time></trkpt><trkpt lat="42.7396278" lon="12.7863106"><ele>608.6666666666666</ele><time>2026-04-26T09:32:39.945Z</time></trkpt><trkpt lat="42.7395642" lon="12.7865259"><ele>614.0</ele><time>2026-04-26T09:32:40.946Z</time></trkpt><trkpt lat="42.7395339" lon="12.7867487"><ele>616.0</ele><time>2026-04-26T09:32:41.945Z</time></trkpt><trkpt lat="42.7395606" lon="12.7869706"><ele>618.0</ele><time>2026-04-26T09:32:42.945Z</time></trkpt><trkpt lat="42.7396316" lon="12.7872082"><ele>620.0</ele><time>2026-04-26T09:32:43.945Z</time></trkpt><trkpt lat="42.7397253" lon="12.7874528"><ele>620.6666666666666</ele><time>2026-04-26T09:32:44.946Z</time></trkpt><trkpt lat="42.7398138" lon="12.787702"><ele>621.3333333333334</ele><time>2026-04-26T09:32:45.945Z</time></trkpt><trkpt lat="42.7398917" lon="12.7879188"><ele>622.0</ele><time>2026-04-26T09:32:46.945Z</time></trkpt><trkpt lat="42.7399651" lon="12.788092"><ele>622.0</ele><time>2026-04-26T09:32:47.945Z</time></trkpt><trkpt lat="42.7400219" lon="12.7882268"><ele>622.0</ele><time>2026-04-26T09:32:48.945Z</time></trkpt><trkpt lat="42.7400908" lon="12.7883143"><ele>622.0</ele><time>2026-04-26T09:32:49.946Z</time></trkpt><trkpt lat="42.740172" lon="12.7883602"><ele>622.0</ele><time>2026-04-26T09:32:50.946Z</time></trkpt><trkpt lat="42.7402545" lon="12.7883601"><ele>622.0</ele><time>2026-04-26T09:32:51.945Z</time></trkpt><trkpt lat="42.7403103" lon="12.7882913"><ele>622.0</ele><time>2026-04-26T09:32:52.945Z</time></trkpt><trkpt lat="42.7403331" lon="12.7881941"><ele>622.0</ele><time>2026-04-26T09:32:53.945Z</time></trkpt><trkpt lat="42.7403059" lon="12.7880692"><ele>622.0</ele><time>2026-04-26T09:32:54.945Z</time></trkpt><trkpt lat="42.7402405" lon="12.7879356"><ele>622.0</ele><time>2026-04-26T09:32:55.945Z</time></trkpt><trkpt lat="42.7401548" lon="12.7877806"><ele>622.0</ele><time>2026-04-26T09:32:56.945Z</time></trkpt><trkpt lat="42.7400716" lon="12.7876129"><ele>621.5</ele><time>2026-04-26T09:32:57.945Z</time></trkpt><trkpt lat="42.7399932" lon="12.7874419"><ele>621.0</ele><time>2026-04-26T09:32:58.945Z</time></trkpt><trkpt lat="42.7399491" lon="12.7872815"><ele>620.5</ele><time>2026-04-26T09:32:59.945Z</time></trkpt><trkpt lat="42.7399438" lon="12.7871039"><ele>620.0</ele><time>2026-04-26T09:33:00.945Z</time></trkpt><trkpt lat="42.739974" lon="12.7869404"><ele>621.25</ele><time>2026-04-26T09:33:01.945Z</time></trkpt><trkpt lat="42.7400457" lon="12.7868117"><ele>622.5</ele><time>2026-04-26T09:33:02.945Z</time></trkpt><trkpt lat="42.7401535" lon="12.7867095"><ele>623.75</ele><time>2026-04-26T09:33:03.945Z</time></trkpt><trkpt lat="42.7402907" lon="12.7866428"><ele>625.0</ele><time>2026-04-26T09:33:04.945Z</time></trkpt><trkpt lat="42.7404574" lon="12.7866185"><ele>625.0</ele><time>2026-04-26T09:33:05.945Z</time></trkpt><trkpt lat="42.7406352" lon="12.7866158"><ele>625.0</ele><time>2026-04-26T09:33:06.945Z</time></trkpt><trkpt lat="42.7408123" lon="12.7866216"><ele>625.0</ele><time>2026-04-26T09:33:07.945Z</time></trkpt><trkpt lat="42.7409872" lon="12.7866432"><ele>627.6666666666667</ele><time>2026-04-26T09:33:08.946Z</time></trkpt><trkpt lat="42.7411676" lon="12.7866796"><ele>630.3333333333334</ele><time>2026-04-26T09:33:09.945Z</time></trkpt><trkpt lat="42.7413408" lon="12.7867223"><ele>633.0</ele><time>2026-04-26T09:33:10.946Z</time></trkpt><trkpt lat="42.7414885" lon="12.7867546"><ele>633.0</ele><time>2026-04-26T09:33:11.946Z</time></trkpt><trkpt lat="42.7416295" lon="12.7867504"><ele>633.0</ele><time>2026-04-26T09:33:12.945Z</time></trkpt><trkpt lat="42.7417598" lon="12.7866806"><ele>633.0</ele><time>2026-04-26T09:33:13.946Z</time></trkpt><trkpt lat="42.7418774" lon="12.7865557"><ele>633.0</ele><time>2026-04-26T09:33:14.945Z</time></trkpt><trkpt lat="42.7419716" lon="12.7863837"><ele>633.6666666666666</ele><time>2026-04-26T09:33:15.946Z</time></trkpt><trkpt lat="42.7420698" lon="12.7862024"><ele>634.3333333333333</ele><time>2026-04-26T09:33:16.945Z</time></trkpt><trkpt lat="42.7421889" lon="12.7860599"><ele>635.0</ele><time>2026-04-26T09:33:17.946Z</time></trkpt><trkpt lat="42.7423203" lon="12.7859569"><ele>635.0</ele><time>2026-04-26T09:33:18.946Z</time></trkpt><trkpt lat="42.74247" lon="12.7858911"><ele>635.0</ele><time>2026-04-26T09:33:19.945Z</time></trkpt><trkpt lat="42.7426426" lon="12.7858469"><ele>635.0</ele><time>2026-04-26T09:33:20.946Z</time></trkpt><trkpt lat="42.7428196" lon="12.7858426"><ele>636.6666666666666</ele><time>2026-04-26T09:33:21.945Z</time></trkpt><trkpt lat="42.7430071" lon="12.7858634"><ele>638.3333333333334</ele><time>2026-04-26T09:33:22.946Z</time></trkpt><trkpt lat="42.7432001" lon="12.7859239"><ele>640.0</ele><time>2026-04-26T09:33:23.945Z</time></trkpt><trkpt lat="42.743391" lon="12.7859876"><ele>644.3333333333334</ele><time>2026-04-26T09:33:24.945Z</time></trkpt><trkpt lat="42.743576" lon="12.7860726"><ele>648.6666666666666</ele><time>2026-04-26T09:33:25.945Z</time></trkpt><trkpt lat="42.7437461" lon="12.7861804"><ele>653.0</ele><time>2026-04-26T09:33:26.945Z</time></trkpt><trkpt lat="42.7439068" lon="12.7863427"><ele>653.0</ele><time>2026-04-26T09:33:27.945Z</time></trkpt><trkpt lat="42.7440507" lon="12.7865452"><ele>653.0</ele><time>2026-04-26T09:33:28.946Z</time></trkpt><trkpt lat="42.744197" lon="12.7867572"><ele>653.0</ele><time>2026-04-26T09:33:29.945Z</time></trkpt><trkpt lat="42.7443602" lon="12.7869509"><ele>653.0</ele><time>2026-04-26T09:33:30.945Z</time></trkpt><trkpt lat="42.7445459" lon="12.787105"><ele>653.0</ele><time>2026-04-26T09:33:31.946Z</time></trkpt><trkpt lat="42.7447252" lon="12.7872588"><ele>653.0</ele><time>2026-04-26T09:33:32.945Z</time></trkpt><trkpt lat="42.7448864" lon="12.787458"><ele>653.0</ele><time>2026-04-26T09:33:33.945Z</time></trkpt><trkpt lat="42.7450216" lon="12.787653"><ele>653.0</ele><time>2026-04-26T09:33:34.946Z</time></trkpt><trkpt lat="42.745142" lon="12.7878337"><ele>653.0</ele><time>2026-04-26T09:33:35.945Z</time></trkpt><trkpt lat="42.7452477" lon="12.7879837"><ele>658.0</ele><time>2026-04-26T09:33:36.945Z</time></trkpt><trkpt lat="42.7453453" lon="12.7880877"><ele>663.0</ele><time>2026-04-26T09:33:37.945Z</time></trkpt><trkpt lat="42.7454467" lon="12.7881572"><ele>668.0</ele><time>2026-04-26T09:33:38.945Z</time></trkpt><trkpt lat="42.7455651" lon="12.7881503"><ele>673.0</ele><time>2026-04-26T09:33:39.945Z</time></trkpt><trkpt lat="42.7456878" lon="12.7880869"><ele>673.0</ele><time>2026-04-26T09:33:40.945Z</time></trkpt><trkpt lat="42.7458195" lon="12.7879802"><ele>673.0</ele><time>2026-04-26T09:33:41.946Z</time></trkpt><trkpt lat="42.7459536" lon="12.7878581"><ele>673.0</ele><time>2026-04-26T09:33:42.945Z</time></trkpt><trkpt lat="42.7460766" lon="12.7877349"><ele>669.75</ele><time>2026-04-26T09:33:43.945Z</time></trkpt><trkpt lat="42.7461989" lon="12.7876334"><ele>666.5</ele><time>2026-04-26T09:33:44.945Z</time></trkpt><trkpt lat="42.7463336" lon="12.7875585"><ele>663.25</ele><time>2026-04-26T09:33:45.945Z</time></trkpt><trkpt lat="42.7464766" lon="12.787531"><ele>660.0</ele><time>2026-04-26T09:33:46.946Z</time></trkpt><trkpt lat="42.7466134" lon="12.7875734"><ele>660.0</ele><time>2026-04-26T09:33:47.945Z</time></trkpt><trkpt lat="42.7467555" lon="12.7876586"><ele>660.0</ele><time>2026-04-26T09:33:48.945Z</time></trkpt><trkpt lat="42.7468876" lon="12.7877926"><ele>660.0</ele><time>2026-04-26T09:33:49.946Z</time></trkpt><trkpt lat="42.7470118" lon="12.7879518"><ele>657.6666666666666</ele><time>2026-04-26T09:33:50.945Z</time></trkpt><trkpt lat="42.7471245" lon="12.7881338"><ele>655.3333333333333</ele><time>2026-04-26T09:33:51.945Z</time></trkpt><trkpt lat="42.7472183" lon="12.7883442"><ele>653.0</ele><time>2026-04-26T09:33:52.946Z</time></trkpt><trkpt lat="42.7472948" lon="12.7885746"><ele>658.0</ele><time>2026-04-26T09:33:53.945Z</time></trkpt><trkpt lat="42.747347" lon="12.788825"><ele>663.0</ele><time>2026-04-26T09:33:54.945Z</time></trkpt><trkpt lat="42.7473863" lon="12.7891029"><ele>668.0</ele><time>2026-04-26T09:33:55.945Z</time></trkpt><trkpt lat="42.7474323" lon="12.7893948"><ele>676.0</ele><time>2026-04-26T09:33:56.945Z</time></trkpt><trkpt lat="42.7474967" lon="12.7896909"><ele>684.0</ele><time>2026-04-26T09:33:57.945Z</time></trkpt><trkpt lat="42.7475592" lon="12.7899915"><ele>690.6666666666666</ele><time>2026-04-26T09:33:58.946Z</time></trkpt><trkpt lat="42.7476336" lon="12.7902781"><ele>697.3333333333333</ele><time>2026-04-26T09:33:59.945Z</time></trkpt><trkpt lat="42.7477211" lon="12.7905528"><ele>704.0</ele><time>2026-04-26T09:34:00.946Z</time></trkpt><trkpt lat="42.7478179" lon="12.7908145"><ele>697.3333333333333</ele><time>2026-04-26T09:34:01.945Z</time></trkpt><trkpt lat="42.7479271" lon="12.7910541"><ele>690.6666666666666</ele><time>2026-04-26T09:34:02.945Z</time></trkpt><trkpt lat="42.7480608" lon="12.791294"><ele>684.0</ele><time>2026-04-26T09:34:03.945Z</time></trkpt><trkpt lat="42.7482203" lon="12.7915312"><ele>684.0</ele><time>2026-04-26T09:34:04.945Z</time></trkpt><trkpt lat="42.7483965" lon="12.7917734"><ele>684.0</ele><time>2026-04-26T09:34:05.945Z</time></trkpt><trkpt lat="42.7485795" lon="12.7920081"><ele>681.0</ele><time>2026-04-26T09:34:06.945Z</time></trkpt><trkpt lat="42.7487451" lon="12.792245"><ele>678.0</ele><time>2026-04-26T09:34:07.945Z</time></trkpt><trkpt lat="42.7488995" lon="12.7924819"><ele>689.0</ele><time>2026-04-26T09:34:08.945Z</time></trkpt><trkpt lat="42.7490431" lon="12.7927256"><ele>700.0</ele><time>2026-04-26T09:34:09.945Z</time></trkpt><trkpt lat="42.7491782" lon="12.7929657"><ele>700.0</ele><time>2026-04-26T09:34:10.946Z</time></trkpt><trkpt lat="42.7493033" lon="12.7932043"><ele>700.0</ele><time>2026-04-26T09:34:11.945Z</time></trkpt><trkpt lat="42.7494181" lon="12.7934385"><ele>700.0</ele><time>2026-04-26T09:34:12.945Z</time></trkpt><trkpt lat="42.7495358" lon="12.7936563"><ele>700.0</ele><time>2026-04-26T09:34:13.945Z</time></trkpt><trkpt lat="42.7496621" lon="12.7938798"><ele>700.0</ele><time>2026-04-26T09:34:14.946Z</time></trkpt><trkpt lat="42.7497793" lon="12.7941083"><ele>700.0</ele><time>2026-04-26T09:34:15.945Z</time></trkpt><trkpt lat="42.7498731" lon="12.7943474"><ele>700.0</ele><time>2026-04-26T09:34:16.945Z</time></trkpt><trkpt lat="42.7499305" lon="12.7945944"><ele>700.0</ele><time>2026-04-26T09:34:17.946Z</time></trkpt><trkpt lat="42.7499601" lon="12.7948573"><ele>700.0</ele><time>2026-04-26T09:34:18.945Z</time></trkpt><trkpt lat="42.7499643" lon="12.7951267"><ele>701.0</ele><time>2026-04-26T09:34:19.946Z</time></trkpt><trkpt lat="42.7499772" lon="12.7954004"><ele>702.0</ele><time>2026-04-26T09:34:20.946Z</time></trkpt><trkpt lat="42.7500137" lon="12.7956561"><ele>703.0</ele><time>2026-04-26T09:34:21.945Z</time></trkpt><trkpt lat="42.7500483" lon="12.7958883"><ele>705.6666666666667</ele><time>2026-04-26T09:34:22.945Z</time></trkpt><trkpt lat="42.7500532" lon="12.7961199"><ele>708.3333333333334</ele><time>2026-04-26T09:34:23.945Z</time></trkpt><trkpt lat="42.7500304" lon="12.7963657"><ele>711.0</ele><time>2026-04-26T09:34:24.945Z</time></trkpt><trkpt lat="42.7499775" lon="12.7966085"><ele>714.3333333333334</ele><time>2026-04-26T09:34:25.945Z</time></trkpt><trkpt lat="42.7499401" lon="12.796847"><ele>717.6666666666667</ele><time>2026-04-26T09:34:26.945Z</time></trkpt><trkpt lat="42.7499444" lon="12.7970898"><ele>721.0</ele><time>2026-04-26T09:34:27.945Z</time></trkpt><trkpt lat="42.7499919" lon="12.79734"><ele>721.0</ele><time>2026-04-26T09:34:28.946Z</time></trkpt><trkpt lat="42.7500645" lon="12.7975881"><ele>721.0</ele><time>2026-04-26T09:34:29.946Z</time></trkpt><trkpt lat="42.7501681" lon="12.7978342"><ele>721.0</ele><time>2026-04-26T09:34:30.945Z</time></trkpt><trkpt lat="42.7502666" lon="12.7980857"><ele>719.3333333333334</ele><time>2026-04-26T09:34:31.946Z</time></trkpt><trkpt lat="42.7503405" lon="12.7983323"><ele>717.6666666666666</ele><time>2026-04-26T09:34:32.945Z</time></trkpt><trkpt lat="42.7504105" lon="12.7985817"><ele>716.0</ele><time>2026-04-26T09:34:33.945Z</time></trkpt><trkpt lat="42.7504973" lon="12.7988273"><ele>716.0</ele><time>2026-04-26T09:34:34.945Z</time></trkpt><trkpt lat="42.7506182" lon="12.7990629"><ele>716.0</ele><time>2026-04-26T09:34:35.946Z</time></trkpt><trkpt lat="42.7507644" lon="12.7992827"><ele>716.0</ele><time>2026-04-26T09:34:36.945Z</time></trkpt><trkpt lat="42.7509195" lon="12.7994836"><ele>715.3333333333333</ele><time>2026-04-26T09:34:37.945Z</time></trkpt><trkpt lat="42.7510772" lon="12.7996746"><ele>714.6666666666666</ele><time>2026-04-26T09:34:38.946Z</time></trkpt><trkpt lat="42.751222" lon="12.7998863"><ele>714.0</ele><time>2026-04-26T09:34:39.945Z</time></trkpt><trkpt lat="42.7513433" lon="12.8001206"><ele>718.3333333333334</ele><time>2026-04-26T09:34:40.946Z</time></trkpt><trkpt lat="42.7514524" lon="12.8003501"><ele>722.6666666666667</ele><time>2026-04-26T09:34:41.945Z</time></trkpt><trkpt lat="42.751538" lon="12.8005714"><ele>727.0</ele><time>2026-04-26T09:34:42.945Z</time></trkpt><trkpt lat="42.7516373" lon="12.8007539"><ele>727.0</ele><time>2026-04-26T09:34:43.945Z</time></trkpt><trkpt lat="42.7517643" lon="12.8009032"><ele>727.0</ele><time>2026-04-26T09:34:44.945Z</time></trkpt><trkpt lat="42.7519006" lon="12.8010323"><ele>727.0</ele><time>2026-04-26T09:34:45.945Z</time></trkpt><trkpt lat="42.7520344" lon="12.801145"><ele>728.0</ele><time>2026-04-26T09:34:46.945Z</time></trkpt><trkpt lat="42.7521438" lon="12.8012656"><ele>729.0</ele><time>2026-04-26T09:34:47.945Z</time></trkpt><trkpt lat="42.7522256" lon="12.8014005"><ele>730.0</ele><time>2026-04-26T09:34:48.945Z</time></trkpt><trkpt lat="42.7522907" lon="12.8015523"><ele>731.0</ele><time>2026-04-26T09:34:49.945Z</time></trkpt><trkpt lat="42.752351" lon="12.8017119"><ele>730.25</ele><time>2026-04-26T09:34:50.946Z</time></trkpt><trkpt lat="42.7524046" lon="12.8018879"><ele>729.5</ele><time>2026-04-26T09:34:51.945Z</time></trkpt><trkpt lat="42.7524582" lon="12.8020677"><ele>728.75</ele><time>2026-04-26T09:34:52.945Z</time></trkpt><trkpt lat="42.7525153" lon="12.8022634"><ele>728.0</ele><time>2026-04-26T09:34:53.945Z</time></trkpt><trkpt lat="42.7525684" lon="12.8024698"><ele>728.6666666666666</ele><time>2026-04-26T09:34:54.945Z</time></trkpt><trkpt lat="42.7526333" lon="12.8026718"><ele>729.3333333333334</ele><time>2026-04-26T09:34:55.945Z</time></trkpt><trkpt lat="42.7527034" lon="12.8028657"><ele>730.0</ele><time>2026-04-26T09:34:56.946Z</time></trkpt><trkpt lat="42.7527743" lon="12.8030479"><ele>730.0</ele><time>2026-04-26T09:34:57.945Z</time></trkpt><trkpt lat="42.7528483" lon="12.8032342"><ele>730.0</ele><time>2026-04-26T09:34:58.945Z</time></trkpt><trkpt lat="42.7529172" lon="12.8034137"><ele>730.0</ele><time>2026-04-26T09:34:59.946Z</time></trkpt><trkpt lat="42.7529858" lon="12.8035966"><ele>727.5</ele><time>2026-04-26T09:35:00.945Z</time></trkpt><trkpt lat="42.753054" lon="12.8037814"><ele>725.0</ele><time>2026-04-26T09:35:01.945Z</time></trkpt><trkpt lat="42.7531177" lon="12.8039613"><ele>722.5</ele><time>2026-04-26T09:35:02.945Z</time></trkpt><trkpt lat="42.7531831" lon="12.8041326"><ele>720.0</ele><time>2026-04-26T09:35:03.945Z</time></trkpt><trkpt lat="42.7532546" lon="12.8042829"><ele>719.75</ele><time>2026-04-26T09:35:04.945Z</time></trkpt><trkpt lat="42.7533277" lon="12.804422"><ele>719.5</ele><time>2026-04-26T09:35:05.945Z</time></trkpt><trkpt lat="42.7534079" lon="12.804549"><ele>719.25</ele><time>2026-04-26T09:35:06.945Z</time></trkpt><trkpt lat="42.7534906" lon="12.8046758"><ele>719.0</ele><time>2026-04-26T09:35:07.945Z</time></trkpt><trkpt lat="42.7535428" lon="12.8048114"><ele>719.75</ele><time>2026-04-26T09:35:08.946Z</time></trkpt><trkpt lat="42.7535613" lon="12.8049585"><ele>720.5</ele><time>2026-04-26T09:35:09.945Z</time></trkpt><trkpt lat="42.75354" lon="12.8051117"><ele>721.25</ele><time>2026-04-26T09:35:10.946Z</time></trkpt><trkpt lat="42.7534782" lon="12.8052646"><ele>722.0</ele><time>2026-04-26T09:35:11.946Z</time></trkpt><trkpt lat="42.7533837" lon="12.8054204"><ele>722.0</ele><time>2026-04-26T09:35:12.945Z</time></trkpt><trkpt lat="42.7532749" lon="12.8055989"><ele>722.0</ele><time>2026-04-26T09:35:13.945Z</time></trkpt><trkpt lat="42.7531699" lon="12.8058062"><ele>722.0</ele><time>2026-04-26T09:35:14.946Z</time></trkpt><trkpt lat="42.7530674" lon="12.8060318"><ele>724.6666666666666</ele><time>2026-04-26T09:35:15.946Z</time></trkpt><trkpt lat="42.7529639" lon="12.8062415"><ele>727.3333333333334</ele><time>2026-04-26T09:35:16.945Z</time></trkpt><trkpt lat="42.7528685" lon="12.8064374"><ele>730.0</ele><time>2026-04-26T09:35:17.945Z</time></trkpt><trkpt lat="42.7527834" lon="12.8066243"><ele>730.0</ele><time>2026-04-26T09:35:18.946Z</time></trkpt><trkpt lat="42.7527181" lon="12.8068275"><ele>730.0</ele><time>2026-04-26T09:35:19.945Z</time></trkpt><trkpt lat="42.7526747" lon="12.8070371"><ele>730.0</ele><time>2026-04-26T09:35:20.945Z</time></trkpt><trkpt lat="42.752658" lon="12.8072744"><ele>719.3333333333334</ele><time>2026-04-26T09:35:21.946Z</time></trkpt><trkpt lat="42.7526403" lon="12.8075258"><ele>708.6666666666666</ele><time>2026-04-26T09:35:22.945Z</time></trkpt><trkpt lat="42.7526183" lon="12.8078182"><ele>698.0</ele><time>2026-04-26T09:35:23.945Z</time></trkpt><trkpt lat="42.7525758" lon="12.8081328"><ele>698.0</ele><time>2026-04-26T09:35:24.945Z</time></trkpt><trkpt lat="42.7525002" lon="12.8084807"><ele>698.0</ele><time>2026-04-26T09:35:25.945Z</time></trkpt><trkpt lat="42.7524259" lon="12.8088228"><ele>699.5</ele><time>2026-04-26T09:35:26.946Z</time></trkpt><trkpt lat="42.7523503" lon="12.8091466"><ele>701.0</ele><time>2026-04-26T09:35:27.945Z</time></trkpt><trkpt lat="42.7522669" lon="12.8094451"><ele>705.6666666666666</ele><time>2026-04-26T09:35:28.945Z</time></trkpt><trkpt lat="42.7521778" lon="12.809717"><ele>710.3333333333334</ele><time>2026-04-26T09:35:29.946Z</time></trkpt><trkpt lat="42.7520869" lon="12.8099691"><ele>715.0</ele><time>2026-04-26T09:35:30.945Z</time></trkpt><trkpt lat="42.7520113" lon="12.8102178"><ele>717.3333333333334</ele><time>2026-04-26T09:35:31.945Z</time></trkpt><trkpt lat="42.7519506" lon="12.8104823"><ele>719.6666666666666</ele><time>2026-04-26T09:35:32.945Z</time></trkpt><trkpt lat="42.7519042" lon="12.8107517"><ele>722.0</ele><time>2026-04-26T09:35:33.946Z</time></trkpt><trkpt lat="42.7518677" lon="12.8110202"><ele>706.3333333333333</ele><time>2026-04-26T09:35:34.945Z</time></trkpt><trkpt lat="42.7518232" lon="12.8112735"><ele>690.6666666666666</ele><time>2026-04-26T09:35:35.946Z</time></trkpt><trkpt lat="42.7517656" lon="12.8115212"><ele>675.0</ele><time>2026-04-26T09:35:36.945Z</time></trkpt><trkpt lat="42.7517122" lon="12.8117514"><ele>674.3333333333334</ele><time>2026-04-26T09:35:37.945Z</time></trkpt><trkpt lat="42.7516805" lon="12.8119756"><ele>673.6666666666667</ele><time>2026-04-26T09:35:38.945Z</time></trkpt><trkpt lat="42.7516745" lon="12.8122101"><ele>673.0</ele><time>2026-04-26T09:35:39.945Z</time></trkpt><trkpt lat="42.7517022" lon="12.8124183"><ele>673.0</ele><time>2026-04-26T09:35:40.945Z</time></trkpt><trkpt lat="42.7517676" lon="12.8126137"><ele>673.0</ele><time>2026-04-26T09:35:41.945Z</time></trkpt><trkpt lat="42.7518671" lon="12.8127732"><ele>673.0</ele><time>2026-04-26T09:35:42.945Z</time></trkpt><trkpt lat="42.7519861" lon="12.8129024"><ele>674.6666666666667</ele><time>2026-04-26T09:35:43.945Z</time></trkpt><trkpt lat="42.7521276" lon="12.8130158"><ele>676.3333333333334</ele><time>2026-04-26T09:35:44.945Z</time></trkpt><trkpt lat="42.7522722" lon="12.8130949"><ele>678.0</ele><time>2026-04-26T09:35:45.945Z</time></trkpt><trkpt lat="42.7524107" lon="12.8131938"><ele>678.0</ele><time>2026-04-26T09:35:46.945Z</time></trkpt><trkpt lat="42.7525334" lon="12.8133109"><ele>678.0</ele><time>2026-04-26T09:35:47.946Z</time></trkpt><trkpt lat="42.752621" lon="12.8134661"><ele>678.0</ele><time>2026-04-26T09:35:48.945Z</time></trkpt><trkpt lat="42.7526797" lon="12.8136589"><ele>678.0</ele><time>2026-04-26T09:35:49.946Z</time></trkpt><trkpt lat="42.7526943" lon="12.8138592"><ele>675.4</ele><time>2026-04-26T09:35:50.945Z</time></trkpt><trkpt lat="42.7527077" lon="12.8140303"><ele>672.8</ele><time>2026-04-26T09:35:51.945Z</time></trkpt><trkpt lat="42.7527411" lon="12.8141715"><ele>670.2</ele><time>2026-04-26T09:35:52.946Z</time></trkpt><trkpt lat="42.7528165" lon="12.81428"><ele>667.6</ele><time>2026-04-26T09:35:53.945Z</time></trkpt><trkpt lat="42.7529106" lon="12.8143094"><ele>665.0</ele><time>2026-04-26T09:35:54.945Z</time></trkpt><trkpt lat="42.7530366" lon="12.8142812"><ele>665.0</ele><time>2026-04-26T09:35:55.945Z</time></trkpt><trkpt lat="42.7531619" lon="12.8141898"><ele>665.0</ele><time>2026-04-26T09:35:56.945Z</time></trkpt><trkpt lat="42.7532962" lon="12.8140995"><ele>665.0</ele><time>2026-04-26T09:35:57.946Z</time></trkpt><trkpt lat="42.7534512" lon="12.8140185"><ele>661.6666666666666</ele><time>2026-04-26T09:35:58.945Z</time></trkpt><trkpt lat="42.7536138" lon="12.8139599"><ele>658.3333333333334</ele><time>2026-04-26T09:35:59.946Z</time></trkpt><trkpt lat="42.7537834" lon="12.8139098"><ele>655.0</ele><time>2026-04-26T09:36:00.945Z</time></trkpt><trkpt lat="42.7539479" lon="12.8138839"><ele>655.0</ele><time>2026-04-26T09:36:01.945Z</time></trkpt><trkpt lat="42.754105" lon="12.813899"><ele>655.0</ele><time>2026-04-26T09:36:02.945Z</time></trkpt><trkpt lat="42.7542592" lon="12.813924"><ele>655.0</ele><time>2026-04-26T09:36:03.945Z</time></trkpt><trkpt lat="42.7544033" lon="12.8139186"><ele>651.6666666666667</ele><time>2026-04-26T09:36:04.945Z</time></trkpt><trkpt lat="42.7545414" lon="12.8138599"><ele>648.3333333333334</ele><time>2026-04-26T09:36:05.945Z</time></trkpt><trkpt lat="42.7546691" lon="12.8137368"><ele>645.0</ele><time>2026-04-26T09:36:06.945Z</time></trkpt><trkpt lat="42.7547714" lon="12.8135792"><ele>651.0</ele><time>2026-04-26T09:36:07.945Z</time></trkpt><trkpt lat="42.7548496" lon="12.8133825"><ele>657.0</ele><time>2026-04-26T09:36:08.946Z</time></trkpt><trkpt lat="42.754914" lon="12.8131955"><ele>663.0</ele><time>2026-04-26T09:36:09.945Z</time></trkpt><trkpt lat="42.7549672" lon="12.8130093"><ele>663.0</ele><time>2026-04-26T09:36:10.945Z</time></trkpt><trkpt lat="42.7550205" lon="12.8128465"><ele>663.0</ele><time>2026-04-26T09:36:11.946Z</time></trkpt><trkpt lat="42.7550686" lon="12.8127593"><ele>663.0</ele><time>2026-04-26T09:36:12.946Z</time></trkpt><trkpt lat="42.7551441" lon="12.8127269"><ele>663.0</ele><time>2026-04-26T09:36:13.945Z</time></trkpt><trkpt lat="42.7552333" lon="12.8127675"><ele>663.0</ele><time>2026-04-26T09:36:14.945Z</time></trkpt><trkpt lat="42.7553072" lon="12.8128731"><ele>662.6666666666666</ele><time>2026-04-26T09:36:15.946Z</time></trkpt><trkpt lat="42.755384" lon="12.8130255"><ele>662.3333333333333</ele><time>2026-04-26T09:36:16.946Z</time></trkpt><trkpt lat="42.7554739" lon="12.8131827"><ele>662.0</ele><time>2026-04-26T09:36:17.946Z</time></trkpt><trkpt lat="42.7556003" lon="12.8133363"><ele>662.0</ele><time>2026-04-26T09:36:18.946Z</time></trkpt><trkpt lat="42.755752" lon="12.813469"><ele>662.0</ele><time>2026-04-26T09:36:19.945Z</time></trkpt><trkpt lat="42.7559127" lon="12.813573"><ele>662.0</ele><time>2026-04-26T09:36:20.945Z</time></trkpt><trkpt lat="42.756077" lon="12.813673"><ele>660.5</ele><time>2026-04-26T09:36:21.945Z</time></trkpt><trkpt lat="42.7562245" lon="12.813771"><ele>659.0</ele><time>2026-04-26T09:36:22.945Z</time></trkpt><trkpt lat="42.7563549" lon="12.8138593"><ele>657.5</ele><time>2026-04-26T09:36:23.946Z</time></trkpt><trkpt lat="42.7564737" lon="12.8139439"><ele>656.0</ele><time>2026-04-26T09:36:24.945Z</time></trkpt><trkpt lat="42.7565705" lon="12.8140206"><ele>656.0</ele><time>2026-04-26T09:36:25.945Z</time></trkpt><trkpt lat="42.756641" lon="12.8141156"><ele>656.0</ele><time>2026-04-26T09:36:26.945Z</time></trkpt><trkpt lat="42.7566766" lon="12.8142409"><ele>656.0</ele><time>2026-04-26T09:36:27.945Z</time></trkpt><trkpt lat="42.7566662" lon="12.814375"><ele>656.0</ele><time>2026-04-26T09:36:28.945Z</time></trkpt><trkpt lat="42.7566149" lon="12.8144894"><ele>656.0</ele><time>2026-04-26T09:36:29.945Z</time></trkpt><trkpt lat="42.7565104" lon="12.8145963"><ele>659.5</ele><time>2026-04-26T09:36:30.945Z</time></trkpt><trkpt lat="42.7563877" lon="12.8146821"><ele>663.0</ele><time>2026-04-26T09:36:31.945Z</time></trkpt><trkpt lat="42.7562563" lon="12.8147848"><ele>666.5</ele><time>2026-04-26T09:36:32.945Z</time></trkpt><trkpt lat="42.7561253" lon="12.8148976"><ele>670.0</ele><time>2026-04-26T09:36:33.946Z</time></trkpt><trkpt lat="42.7559851" lon="12.8150242"><ele>668.3333333333334</ele><time>2026-04-26T09:36:34.945Z</time></trkpt><trkpt lat="42.7558515" lon="12.8151583"><ele>666.6666666666666</ele><time>2026-04-26T09:36:35.945Z</time></trkpt><trkpt lat="42.7557202" lon="12.8152942"><ele>665.0</ele><time>2026-04-26T09:36:36.945Z</time></trkpt><trkpt lat="42.7555884" lon="12.8154226"><ele>665.0</ele><time>2026-04-26T09:36:37.945Z</time></trkpt><trkpt lat="42.7554594" lon="12.8155585"><ele>665.0</ele><time>2026-04-26T09:36:38.946Z</time></trkpt><trkpt lat="42.7553406" lon="12.8156977"><ele>665.0</ele><time>2026-04-26T09:36:39.946Z</time></trkpt><trkpt lat="42.7552313" lon="12.8158313"><ele>659.0</ele><time>2026-04-26T09:36:40.945Z</time></trkpt><trkpt lat="42.7551192" lon="12.8159783"><ele>653.0</ele><time>2026-04-26T09:36:41.945Z</time></trkpt><trkpt lat="42.7550282" lon="12.8161307"><ele>647.0</ele><time>2026-04-26T09:36:42.945Z</time></trkpt><trkpt lat="42.7549449" lon="12.816288"><ele>641.0</ele><time>2026-04-26T09:36:43.945Z</time></trkpt><trkpt lat="42.7548826" lon="12.8164573"><ele>641.0</ele><time>2026-04-26T09:36:44.945Z</time></trkpt><trkpt lat="42.7548396" lon="12.8166281"><ele>641.0</ele><time>2026-04-26T09:36:45.945Z</time></trkpt><trkpt lat="42.7548111" lon="12.816831"><ele>641.0</ele><time>2026-04-26T09:36:46.945Z</time></trkpt><trkpt lat="42.7548057" lon="12.8170488"><ele>641.0</ele><time>2026-04-26T09:36:47.946Z</time></trkpt><trkpt lat="42.7547994" lon="12.8172735"><ele>644.0</ele><time>2026-04-26T09:36:48.946Z</time></trkpt><trkpt lat="42.7547856" lon="12.8175145"><ele>647.0</ele><time>2026-04-26T09:36:49.946Z</time></trkpt><trkpt lat="42.7547501" lon="12.8177549"><ele>650.0</ele><time>2026-04-26T09:36:50.945Z</time></trkpt><trkpt lat="42.7546792" lon="12.8179929"><ele>653.6666666666666</ele><time>2026-04-26T09:36:51.945Z</time></trkpt><trkpt lat="42.7545768" lon="12.8182353"><ele>657.3333333333334</ele><time>2026-04-26T09:36:52.945Z</time></trkpt><trkpt lat="42.7544589" lon="12.8184511"><ele>661.0</ele><time>2026-04-26T09:36:53.945Z</time></trkpt><trkpt lat="42.754335" lon="12.8186435"><ele>649.0</ele><time>2026-04-26T09:36:54.946Z</time></trkpt><trkpt lat="42.7542274" lon="12.8188349"><ele>637.0</ele><time>2026-04-26T09:36:55.945Z</time></trkpt><trkpt lat="42.7541428" lon="12.81904"><ele>625.0</ele><time>2026-04-26T09:36:56.945Z</time></trkpt><trkpt lat="42.7540817" lon="12.8192388"><ele>628.25</ele><time>2026-04-26T09:36:57.945Z</time></trkpt><trkpt lat="42.7540643" lon="12.8194354"><ele>631.5</ele><time>2026-04-26T09:36:58.953Z</time></trkpt><trkpt lat="42.7540373" lon="12.8196104"><ele>634.75</ele><time>2026-04-26T09:36:59.953Z</time></trkpt><trkpt lat="42.7539817" lon="12.8197445"><ele>638.0</ele><time>2026-04-26T09:37:00.953Z</time></trkpt><trkpt lat="42.7539077" lon="12.8198555"><ele>638.0</ele><time>2026-04-26T09:37:01.953Z</time></trkpt><trkpt lat="42.7538141" lon="12.8199089"><ele>638.0</ele><time>2026-04-26T09:37:02.954Z</time></trkpt><trkpt lat="42.7537062" lon="12.819915"><ele>638.0</ele><time>2026-04-26T09:37:03.953Z</time></trkpt><trkpt lat="42.7535811" lon="12.8198967"><ele>638.0</ele><time>2026-04-26T09:37:04.954Z</time></trkpt><trkpt lat="42.7534382" lon="12.8198882"><ele>633.0</ele><time>2026-04-26T09:37:05.953Z</time></trkpt><trkpt lat="42.7532814" lon="12.8198634"><ele>628.0</ele><time>2026-04-26T09:37:06.954Z</time></trkpt><trkpt lat="42.753122" lon="12.8198264"><ele>623.0</ele><time>2026-04-26T09:37:07.953Z</time></trkpt><trkpt lat="42.752952" lon="12.8197953"><ele>623.0</ele><time>2026-04-26T09:37:08.953Z</time></trkpt><trkpt lat="42.7527807" lon="12.8198018"><ele>623.0</ele><time>2026-04-26T09:37:09.954Z</time></trkpt><trkpt lat="42.7526052" lon="12.8198638"><ele>623.0</ele><time>2026-04-26T09:37:10.954Z</time></trkpt><trkpt lat="42.7524272" lon="12.8199591"><ele>619.3333333333333</ele><time>2026-04-26T09:37:11.953Z</time></trkpt><trkpt lat="42.7522541" lon="12.82008"><ele>615.6666666666666</ele><time>2026-04-26T09:37:12.953Z</time></trkpt><trkpt lat="42.7520818" lon="12.8201726"><ele>612.0</ele><time>2026-04-26T09:37:13.954Z</time></trkpt><trkpt lat="42.7519248" lon="12.8203044"><ele>613.6666666666666</ele><time>2026-04-26T09:37:14.953Z</time></trkpt><trkpt lat="42.751751" lon="12.8204175"><ele>615.3333333333333</ele><time>2026-04-26T09:37:15.953Z</time></trkpt><trkpt lat="42.7515938" lon="12.8205454"><ele>617.0</ele><time>2026-04-26T09:37:16.953Z</time></trkpt><trkpt lat="42.7514546" lon="12.8206582"><ele>617.0</ele><time>2026-04-26T09:37:17.953Z</time></trkpt><trkpt lat="42.7513299" lon="12.8207571"><ele>617.0</ele><time>2026-04-26T09:37:18.953Z</time></trkpt><trkpt lat="42.7512338" lon="12.8208448"><ele>617.0</ele><time>2026-04-26T09:37:19.954Z</time></trkpt><trkpt lat="42.7511812" lon="12.8209541"><ele>617.0</ele><time>2026-04-26T09:37:20.953Z</time></trkpt><trkpt lat="42.7511592" lon="12.8210764"><ele>617.0</ele><time>2026-04-26T09:37:21.953Z</time></trkpt><trkpt lat="42.751183" lon="12.8212177"><ele>618.75</ele><time>2026-04-26T09:37:22.954Z</time></trkpt><trkpt lat="42.7512407" lon="12.8213524"><ele>620.5</ele><time>2026-04-26T09:37:23.954Z</time></trkpt><trkpt lat="42.7513274" lon="12.8214777"><ele>622.25</ele><time>2026-04-26T09:37:24.953Z</time></trkpt><trkpt lat="42.7513871" lon="12.8216301"><ele>624.0</ele><time>2026-04-26T09:37:25.954Z</time></trkpt><trkpt lat="42.7514275" lon="12.8218081"><ele>618.3333333333334</ele><time>2026-04-26T09:37:26.953Z</time></trkpt><trkpt lat="42.7514342" lon="12.8220071"><ele>612.6666666666667</ele><time>2026-04-26T09:37:27.953Z</time></trkpt><trkpt lat="42.7514193" lon="12.8222186"><ele>607.0</ele><time>2026-04-26T09:37:28.954Z</time></trkpt><trkpt lat="42.7514078" lon="12.8224261"><ele>607.0</ele><time>2026-04-26T09:37:29.953Z</time></trkpt><trkpt lat="42.7514214" lon="12.822621"><ele>607.0</ele><time>2026-04-26T09:37:30.953Z</time></trkpt><trkpt lat="42.7514728" lon="12.8228205"><ele>607.0</ele><time>2026-04-26T09:37:31.954Z</time></trkpt><trkpt lat="42.7515533" lon="12.8230141"><ele>607.3333333333334</ele><time>2026-04-26T09:37:32.953Z</time></trkpt><trkpt lat="42.7516609" lon="12.8232167"><ele>607.6666666666666</ele><time>2026-04-26T09:37:33.954Z</time></trkpt><trkpt lat="42.7517797" lon="12.8234096"><ele>608.0</ele><time>2026-04-26T09:37:34.954Z</time></trkpt><trkpt lat="42.7518916" lon="12.8235961"><ele>608.0</ele><time>2026-04-26T09:37:35.953Z</time></trkpt><trkpt lat="42.7519965" lon="12.8237899"><ele>608.0</ele><time>2026-04-26T09:37:36.953Z</time></trkpt><trkpt lat="42.7520932" lon="12.8239941"><ele>608.0</ele><time>2026-04-26T09:37:37.954Z</time></trkpt><trkpt lat="42.7521831" lon="12.8242153"><ele>600.6666666666666</ele><time>2026-04-26T09:37:38.953Z</time></trkpt><trkpt lat="42.7522726" lon="12.8244318"><ele>593.3333333333334</ele><time>2026-04-26T09:37:39.953Z</time></trkpt><trkpt lat="42.7523627" lon="12.824659"><ele>586.0</ele><time>2026-04-26T09:37:40.954Z</time></trkpt><trkpt lat="42.752447" lon="12.8248771"><ele>586.0</ele><time>2026-04-26T09:37:41.954Z</time></trkpt><trkpt lat="42.7525225" lon="12.8250951"><ele>586.0</ele><time>2026-04-26T09:37:42.954Z</time></trkpt><trkpt lat="42.7525953" lon="12.8253075"><ele>586.0</ele><time>2026-04-26T09:37:43.953Z</time></trkpt><trkpt lat="42.7526758" lon="12.8255148"><ele>587.3333333333334</ele><time>2026-04-26T09:37:44.953Z</time></trkpt><trkpt lat="42.7527552" lon="12.8257175"><ele>588.6666666666666</ele><time>2026-04-26T09:37:45.953Z</time></trkpt><trkpt lat="42.7528224" lon="12.8259131"><ele>590.0</ele><time>2026-04-26T09:37:46.954Z</time></trkpt><trkpt lat="42.7528802" lon="12.8261148"><ele>590.0</ele><time>2026-04-26T09:37:47.953Z</time></trkpt><trkpt lat="42.75293" lon="12.8263442"><ele>590.0</ele><time>2026-04-26T09:37:48.953Z</time></trkpt><trkpt lat="42.7529706" lon="12.826573"><ele>590.0</ele><time>2026-04-26T09:37:49.953Z</time></trkpt><trkpt lat="42.7530222" lon="12.8267952"><ele>585.6666666666666</ele><time>2026-04-26T09:37:50.953Z</time></trkpt><trkpt lat="42.7530762" lon="12.8270081"><ele>581.3333333333334</ele><time>2026-04-26T09:37:51.953Z</time></trkpt><trkpt lat="42.7531353" lon="12.8272269"><ele>577.0</ele><time>2026-04-26T09:37:52.953Z</time></trkpt><trkpt lat="42.7532014" lon="12.8274409"><ele>577.0</ele><time>2026-04-26T09:37:53.953Z</time></trkpt><trkpt lat="42.753271" lon="12.8276373"><ele>577.0</ele><time>2026-04-26T09:37:54.953Z</time></trkpt><trkpt lat="42.7533241" lon="12.8278272"><ele>577.0</ele><time>2026-04-26T09:37:55.953Z</time></trkpt><trkpt lat="42.7533541" lon="12.8279895"><ele>577.0</ele><time>2026-04-26T09:37:56.953Z</time></trkpt><trkpt lat="42.7533518" lon="12.8281455"><ele>575.75</ele><time>2026-04-26T09:37:57.953Z</time></trkpt><trkpt lat="42.7533036" lon="12.8282971"><ele>574.5</ele><time>2026-04-26T09:37:58.954Z</time></trkpt><trkpt lat="42.7532258" lon="12.8284261"><ele>573.25</ele><time>2026-04-26T09:37:59.953Z</time></trkpt><trkpt lat="42.7531231" lon="12.8285234"><ele>572.0</ele><time>2026-04-26T09:38:00.954Z</time></trkpt><trkpt lat="42.7529955" lon="12.8285746"><ele>573.0</ele><time>2026-04-26T09:38:01.954Z</time></trkpt><trkpt lat="42.7528516" lon="12.8285967"><ele>574.0</ele><time>2026-04-26T09:38:02.953Z</time></trkpt><trkpt lat="42.7527018" lon="12.8286139"><ele>575.0</ele><time>2026-04-26T09:38:03.954Z</time></trkpt><trkpt lat="42.7525533" lon="12.8286416"><ele>576.0</ele><time>2026-04-26T09:38:04.954Z</time></trkpt><trkpt lat="42.7524152" lon="12.8286736"><ele>576.0</ele><time>2026-04-26T09:38:05.953Z</time></trkpt><trkpt lat="42.752279" lon="12.8287363"><ele>576.0</ele><time>2026-04-26T09:38:06.953Z</time></trkpt><trkpt lat="42.7521622" lon="12.8288339"><ele>576.0</ele><time>2026-04-26T09:38:07.953Z</time></trkpt><trkpt lat="42.7520452" lon="12.828966"><ele>576.0</ele><time>2026-04-26T09:38:08.953Z</time></trkpt><trkpt lat="42.7519588" lon="12.8291159"><ele>576.0</ele><time>2026-04-26T09:38:09.954Z</time></trkpt><trkpt lat="42.7519011" lon="12.8292759"><ele>576.0</ele><time>2026-04-26T09:38:10.953Z</time></trkpt><trkpt lat="42.7518747" lon="12.8294098"><ele>576.0</ele><time>2026-04-26T09:38:11.953Z</time></trkpt><trkpt lat="42.7518833" lon="12.8295464"><ele>576.0</ele><time>2026-04-26T09:38:12.953Z</time></trkpt><trkpt lat="42.7519421" lon="12.8296714"><ele>576.0</ele><time>2026-04-26T09:38:13.954Z</time></trkpt><trkpt lat="42.7520363" lon="12.8297713"><ele>573.3333333333334</ele><time>2026-04-26T09:38:14.954Z</time></trkpt><trkpt lat="42.7521586" lon="12.8298629"><ele>570.6666666666667</ele><time>2026-04-26T09:38:15.953Z</time></trkpt><trkpt lat="42.7522974" lon="12.8299571"><ele>568.0</ele><time>2026-04-26T09:38:16.953Z</time></trkpt><trkpt lat="42.7524312" lon="12.8300765"><ele>566.6666666666667</ele><time>2026-04-26T09:38:17.954Z</time></trkpt><trkpt lat="42.7525711" lon="12.830198"><ele>565.3333333333334</ele><time>2026-04-26T09:38:18.953Z</time></trkpt><trkpt lat="42.7527152" lon="12.830351"><ele>564.0</ele><time>2026-04-26T09:38:19.953Z</time></trkpt><trkpt lat="42.7528643" lon="12.8305175"><ele>564.0</ele><time>2026-04-26T09:38:20.954Z</time></trkpt><trkpt lat="42.7530139" lon="12.8306866"><ele>564.0</ele><time>2026-04-26T09:38:21.953Z</time></trkpt><trkpt lat="42.7531539" lon="12.8308638"><ele>564.0</ele><time>2026-04-26T09:38:22.954Z</time></trkpt><trkpt lat="42.7532947" lon="12.8310512"><ele>565.3333333333334</ele><time>2026-04-26T09:38:23.954Z</time></trkpt><trkpt lat="42.7534302" lon="12.8312432"><ele>566.6666666666667</ele><time>2026-04-26T09:38:24.953Z</time></trkpt><trkpt lat="42.75355" lon="12.8314391"><ele>568.0</ele><time>2026-04-26T09:38:25.953Z</time></trkpt><trkpt lat="42.7536598" lon="12.8316303"><ele>565.3333333333334</ele><time>2026-04-26T09:38:26.953Z</time></trkpt><trkpt lat="42.7537569" lon="12.831845"><ele>562.6666666666666</ele><time>2026-04-26T09:38:27.953Z</time></trkpt><trkpt lat="42.7538428" lon="12.8320764"><ele>560.0</ele><time>2026-04-26T09:38:28.953Z</time></trkpt><trkpt lat="42.7539238" lon="12.832311"><ele>560.0</ele><time>2026-04-26T09:38:29.953Z</time></trkpt><trkpt lat="42.7539935" lon="12.8325488"><ele>560.0</ele><time>2026-04-26T09:38:30.953Z</time></trkpt><trkpt lat="42.7540448" lon="12.8327753"><ele>560.0</ele><time>2026-04-26T09:38:31.953Z</time></trkpt><trkpt lat="42.7540948" lon="12.8329909"><ele>558.0</ele><time>2026-04-26T09:38:32.954Z</time></trkpt><trkpt lat="42.7541389" lon="12.8331943"><ele>556.0</ele><time>2026-04-26T09:38:33.953Z</time></trkpt><trkpt lat="42.7541669" lon="12.8334014"><ele>554.0</ele><time>2026-04-26T09:38:34.954Z</time></trkpt><trkpt lat="42.7541663" lon="12.8336007"><ele>551.6666666666666</ele><time>2026-04-26T09:38:35.953Z</time></trkpt><trkpt lat="42.7541416" lon="12.833807"><ele>549.3333333333334</ele><time>2026-04-26T09:38:36.953Z</time></trkpt><trkpt lat="42.7540833" lon="12.8340043"><ele>547.0</ele><time>2026-04-26T09:38:37.953Z</time></trkpt><trkpt lat="42.754015" lon="12.8341902"><ele>546.25</ele><time>2026-04-26T09:38:38.953Z</time></trkpt><trkpt lat="42.7539539" lon="12.8343798"><ele>545.5</ele><time>2026-04-26T09:38:39.954Z</time></trkpt><trkpt lat="42.7539264" lon="12.8345768"><ele>544.75</ele><time>2026-04-26T09:38:40.953Z</time></trkpt><trkpt lat="42.75394" lon="12.8347788"><ele>544.0</ele><time>2026-04-26T09:38:41.953Z</time></trkpt><trkpt lat="42.7539675" lon="12.8349793"><ele>543.6666666666667</ele><time>2026-04-26T09:38:42.954Z</time></trkpt><trkpt lat="42.7539791" lon="12.8351938"><ele>543.3333333333334</ele><time>2026-04-26T09:38:43.953Z</time></trkpt><trkpt lat="42.7539528" lon="12.8354304"><ele>543.0</ele><time>2026-04-26T09:38:44.953Z</time></trkpt><trkpt lat="42.7538986" lon="12.8356553"><ele>543.0</ele><time>2026-04-26T09:38:45.953Z</time></trkpt><trkpt lat="42.7538229" lon="12.8358781"><ele>543.0</ele><time>2026-04-26T09:38:46.953Z</time></trkpt><trkpt lat="42.7537577" lon="12.8361077"><ele>543.0</ele><time>2026-04-26T09:38:47.953Z</time></trkpt><trkpt lat="42.7537195" lon="12.8363868"><ele>544.0</ele><time>2026-04-26T09:38:48.953Z</time></trkpt><trkpt lat="42.7536952" lon="12.8366705"><ele>545.0</ele><time>2026-04-26T09:38:49.953Z</time></trkpt><trkpt lat="42.7536567" lon="12.8369401"><ele>546.0</ele><time>2026-04-26T09:38:50.953Z</time></trkpt><trkpt lat="42.7536245" lon="12.8371592"><ele>543.75</ele><time>2026-04-26T09:38:51.953Z</time></trkpt><trkpt lat="42.7535964" lon="12.8373346"><ele>541.5</ele><time>2026-04-26T09:38:52.953Z</time></trkpt><trkpt lat="42.7535894" lon="12.8374958"><ele>539.25</ele><time>2026-04-26T09:38:53.953Z</time></trkpt><trkpt lat="42.7536242" lon="12.8376252"><ele>537.0</ele><time>2026-04-26T09:38:54.953Z</time></trkpt><trkpt lat="42.753701" lon="12.8377196"><ele>532.5</ele><time>2026-04-26T09:38:55.954Z</time></trkpt><trkpt lat="42.753802" lon="12.8377713"><ele>528.0</ele><time>2026-04-26T09:38:56.953Z</time></trkpt><trkpt lat="42.7539274" lon="12.837788"><ele>523.5</ele><time>2026-04-26T09:38:57.953Z</time></trkpt><trkpt lat="42.7540924" lon="12.837807"><ele>519.0</ele><time>2026-04-26T09:38:58.953Z</time></trkpt><trkpt lat="42.7542589" lon="12.8378326"><ele>523.0</ele><time>2026-04-26T09:38:59.953Z</time></trkpt><trkpt lat="42.754413" lon="12.8378575"><ele>527.0</ele><time>2026-04-26T09:39:00.953Z</time></trkpt><trkpt lat="42.7545619" lon="12.8378993"><ele>531.0</ele><time>2026-04-26T09:39:01.954Z</time></trkpt><trkpt lat="42.7547093" lon="12.837974"><ele>531.0</ele><time>2026-04-26T09:39:02.954Z</time></trkpt><trkpt lat="42.7548456" lon="12.8380978"><ele>531.0</ele><time>2026-04-26T09:39:03.953Z</time></trkpt><trkpt lat="42.7549744" lon="12.8382717"><ele>531.0</ele><time>2026-04-26T09:39:04.953Z</time></trkpt><trkpt lat="42.7550927" lon="12.8384751"><ele>531.0</ele><time>2026-04-26T09:39:05.953Z</time></trkpt><trkpt lat="42.755205" lon="12.8386908"><ele>531.0</ele><time>2026-04-26T09:39:06.953Z</time></trkpt><trkpt lat="42.755311" lon="12.8388949"><ele>531.0</ele><time>2026-04-26T09:39:07.953Z</time></trkpt><trkpt lat="42.7554251" lon="12.8390715"><ele>531.0</ele><time>2026-04-26T09:39:08.953Z</time></trkpt><trkpt lat="42.7555561" lon="12.8392007"><ele>531.0</ele><time>2026-04-26T09:39:09.954Z</time></trkpt><trkpt lat="42.755707" lon="12.8393165"><ele>531.0</ele><time>2026-04-26T09:39:10.954Z</time></trkpt><trkpt lat="42.7558739" lon="12.8393855"><ele>528.6666666666666</ele><time>2026-04-26T09:39:11.954Z</time></trkpt><trkpt lat="42.7560365" lon="12.8394559"><ele>526.3333333333333</ele><time>2026-04-26T09:39:12.953Z</time></trkpt><trkpt lat="42.756192" lon="12.8395375"><ele>524.0</ele><time>2026-04-26T09:39:13.953Z</time></trkpt><trkpt lat="42.7563292" lon="12.8396439"><ele>524.0</ele><time>2026-04-26T09:39:14.953Z</time></trkpt><trkpt lat="42.7564449" lon="12.8397673"><ele>524.0</ele><time>2026-04-26T09:39:15.953Z</time></trkpt><trkpt lat="42.7565499" lon="12.8399021"><ele>524.0</ele><time>2026-04-26T09:39:16.954Z</time></trkpt><trkpt lat="42.7566293" lon="12.8400486"><ele>524.0</ele><time>2026-04-26T09:39:17.953Z</time></trkpt><trkpt lat="42.7566891" lon="12.8402106"><ele>523.25</ele><time>2026-04-26T09:39:18.954Z</time></trkpt><trkpt lat="42.7567148" lon="12.8403629"><ele>522.5</ele><time>2026-04-26T09:39:19.953Z</time></trkpt><trkpt lat="42.7566948" lon="12.8405128"><ele>521.75</ele><time>2026-04-26T09:39:20.954Z</time></trkpt><trkpt lat="42.7566226" lon="12.8406346"><ele>521.0</ele><time>2026-04-26T09:39:21.953Z</time></trkpt><trkpt lat="42.756521" lon="12.8407369"><ele>521.0</ele><time>2026-04-26T09:39:22.953Z</time></trkpt><trkpt lat="42.7563951" lon="12.8408333"><ele>521.0</ele><time>2026-04-26T09:39:23.953Z</time></trkpt><trkpt lat="42.7562619" lon="12.8409085"><ele>521.0</ele><time>2026-04-26T09:39:24.954Z</time></trkpt><trkpt lat="42.7561325" lon="12.8409871"><ele>521.0</ele><time>2026-04-26T09:39:25.953Z</time></trkpt><trkpt lat="42.7560103" lon="12.8410663"><ele>518.0</ele><time>2026-04-26T09:39:26.953Z</time></trkpt><trkpt lat="42.755904" lon="12.8411576"><ele>515.0</ele><time>2026-04-26T09:39:27.953Z</time></trkpt><trkpt lat="42.7558253" lon="12.8412741"><ele>512.0</ele><time>2026-04-26T09:39:28.953Z</time></trkpt><trkpt lat="42.7557832" lon="12.8413971"><ele>509.0</ele><time>2026-04-26T09:39:29.953Z</time></trkpt><trkpt lat="42.7557823" lon="12.8415437"><ele>506.0</ele><time>2026-04-26T09:39:30.954Z</time></trkpt><trkpt lat="42.7558166" lon="12.8416959"><ele>505.25</ele><time>2026-04-26T09:39:31.953Z</time></trkpt><trkpt lat="42.7558783" lon="12.8418328"><ele>504.5</ele><time>2026-04-26T09:39:32.953Z</time></trkpt><trkpt lat="42.7559443" lon="12.8419638"><ele>503.75</ele><time>2026-04-26T09:39:33.953Z</time></trkpt><trkpt lat="42.756011" lon="12.842106"><ele>503.0</ele><time>2026-04-26T09:39:34.953Z</time></trkpt><trkpt lat="42.7560841" lon="12.8422465"><ele>503.0</ele><time>2026-04-26T09:39:35.953Z</time></trkpt><trkpt lat="42.7561681" lon="12.8423749"><ele>503.0</ele><time>2026-04-26T09:39:36.953Z</time></trkpt><trkpt lat="42.7562658" lon="12.8424739"><ele>503.0</ele><time>2026-04-26T09:39:37.953Z</time></trkpt><trkpt lat="42.7563947" lon="12.8425422"><ele>503.0</ele><time>2026-04-26T09:39:38.953Z</time></trkpt><trkpt lat="42.7565414" lon="12.8425827"><ele>503.0</ele><time>2026-04-26T09:39:39.954Z</time></trkpt><trkpt lat="42.756698" lon="12.8425887"><ele>503.0</ele><time>2026-04-26T09:39:40.953Z</time></trkpt><trkpt lat="42.7568674" lon="12.8425703"><ele>503.0</ele><time>2026-04-26T09:39:41.953Z</time></trkpt><trkpt lat="42.7570542" lon="12.8425361"><ele>501.3333333333333</ele><time>2026-04-26T09:39:42.954Z</time></trkpt><trkpt lat="42.7572544" lon="12.8424971"><ele>499.66666666666663</ele><time>2026-04-26T09:39:43.954Z</time></trkpt><trkpt lat="42.7574567" lon="12.8424545"><ele>498.0</ele><time>2026-04-26T09:39:44.953Z</time></trkpt><trkpt lat="42.7576484" lon="12.8423925"><ele>496.66666666666663</ele><time>2026-04-26T09:39:45.953Z</time></trkpt><trkpt lat="42.7578337" lon="12.8423212"><ele>495.3333333333333</ele><time>2026-04-26T09:39:46.953Z</time></trkpt><trkpt lat="42.7580067" lon="12.8422724"><ele>494.0</ele><time>2026-04-26T09:39:47.953Z</time></trkpt><trkpt lat="42.758181" lon="12.8422544"><ele>494.0</ele><time>2026-04-26T09:39:48.954Z</time></trkpt><trkpt lat="42.7583541" lon="12.8422573"><ele>494.0</ele><time>2026-04-26T09:39:49.954Z</time></trkpt><trkpt lat="42.7585269" lon="12.8422412"><ele>494.0</ele><time>2026-04-26T09:39:50.953Z</time></trkpt><trkpt lat="42.7586913" lon="12.8421935"><ele>492.0</ele><time>2026-04-26T09:39:51.953Z</time></trkpt><trkpt lat="42.7588565" lon="12.8421197"><ele>490.0</ele><time>2026-04-26T09:39:52.953Z</time></trkpt><trkpt lat="42.7590082" lon="12.8420293"><ele>488.0</ele><time>2026-04-26T09:39:53.953Z</time></trkpt><trkpt lat="42.7591482" lon="12.8419416"><ele>488.0</ele><time>2026-04-26T09:39:54.954Z</time></trkpt><trkpt lat="42.759277" lon="12.8418739"><ele>488.0</ele><time>2026-04-26T09:39:55.953Z</time></trkpt><trkpt lat="42.7593917" lon="12.8418423"><ele>488.0</ele><time>2026-04-26T09:39:56.953Z</time></trkpt><trkpt lat="42.7594986" lon="12.8418613"><ele>488.0</ele><time>2026-04-26T09:39:57.953Z</time></trkpt><trkpt lat="42.7595839" lon="12.8419308"><ele>495.25</ele><time>2026-04-26T09:39:58.953Z</time></trkpt><trkpt lat="42.7596335" lon="12.8420496"><ele>502.5</ele><time>2026-04-26T09:39:59.953Z</time></trkpt><trkpt lat="42.7596571" lon="12.8422087"><ele>509.75</ele><time>2026-04-26T09:40:00.953Z</time></trkpt><trkpt lat="42.7596492" lon="12.8423983"><ele>517.0</ele><time>2026-04-26T09:40:01.954Z</time></trkpt><trkpt lat="42.7596232" lon="12.8426076"><ele>517.0</ele><time>2026-04-26T09:40:02.953Z</time></trkpt><trkpt lat="42.759595" lon="12.842822"><ele>517.0</ele><time>2026-04-26T09:40:03.953Z</time></trkpt><trkpt lat="42.75957" lon="12.843024"><ele>517.0</ele><time>2026-04-26T09:40:04.953Z</time></trkpt><trkpt lat="42.7595419" lon="12.8432369"><ele>517.0</ele><time>2026-04-26T09:40:05.953Z</time></trkpt><trkpt lat="42.7594944" lon="12.8434577"><ele>517.0</ele><time>2026-04-26T09:40:06.953Z</time></trkpt><trkpt lat="42.7594279" lon="12.8436816"><ele>517.0</ele><time>2026-04-26T09:40:07.954Z</time></trkpt><trkpt lat="42.7593668" lon="12.8439183"><ele>505.33333333333337</ele><time>2026-04-26T09:40:08.954Z</time></trkpt><trkpt lat="42.7593066" lon="12.8441457"><ele>493.66666666666663</ele><time>2026-04-26T09:40:09.954Z</time></trkpt><trkpt lat="42.7592468" lon="12.8443671"><ele>482.0</ele><time>2026-04-26T09:40:10.953Z</time></trkpt><trkpt lat="42.7591864" lon="12.8445798"><ele>482.0</ele><time>2026-04-26T09:40:11.953Z</time></trkpt><trkpt lat="42.7591425" lon="12.844781"><ele>482.0</ele><time>2026-04-26T09:40:12.953Z</time></trkpt><trkpt lat="42.759125" lon="12.8449887"><ele>482.0</ele><time>2026-04-26T09:40:13.953Z</time></trkpt><trkpt lat="42.7591375" lon="12.8451996"><ele>478.66666666666663</ele><time>2026-04-26T09:40:14.953Z</time></trkpt><trkpt lat="42.759188" lon="12.8454094"><ele>475.33333333333337</ele><time>2026-04-26T09:40:15.954Z</time></trkpt><trkpt lat="42.7592653" lon="12.8456005"><ele>472.0</ele><time>2026-04-26T09:40:16.953Z</time></trkpt><trkpt lat="42.7593597" lon="12.8457849"><ele>478.0</ele><time>2026-04-26T09:40:17.953Z</time></trkpt><trkpt lat="42.7594549" lon="12.8459643"><ele>484.0</ele><time>2026-04-26T09:40:18.953Z</time></trkpt><trkpt lat="42.7595427" lon="12.8461486"><ele>490.0</ele><time>2026-04-26T09:40:19.953Z</time></trkpt><trkpt lat="42.7596104" lon="12.8463242"><ele>490.0</ele><time>2026-04-26T09:40:20.953Z</time></trkpt><trkpt lat="42.7596524" lon="12.8464868"><ele>490.0</ele><time>2026-04-26T09:40:21.953Z</time></trkpt><trkpt lat="42.7596569" lon="12.8466371"><ele>490.0</ele><time>2026-04-26T09:40:22.953Z</time></trkpt><trkpt lat="42.759613" lon="12.8467883"><ele>490.0</ele><time>2026-04-26T09:40:23.953Z</time></trkpt><trkpt lat="42.7595366" lon="12.8469106"><ele>488.0</ele><time>2026-04-26T09:40:24.954Z</time></trkpt><trkpt lat="42.7594229" lon="12.8470127"><ele>486.0</ele><time>2026-04-26T09:40:25.953Z</time></trkpt><trkpt lat="42.7592963" lon="12.8470836"><ele>484.0</ele><time>2026-04-26T09:40:26.954Z</time></trkpt><trkpt lat="42.7591527" lon="12.8471686"><ele>482.0</ele><time>2026-04-26T09:40:27.953Z</time></trkpt><trkpt lat="42.7590068" lon="12.8473092"><ele>482.0</ele><time>2026-04-26T09:40:28.953Z</time></trkpt><trkpt lat="42.7588582" lon="12.8474767"><ele>482.0</ele><time>2026-04-26T09:40:29.954Z</time></trkpt><trkpt lat="42.7587247" lon="12.8476549"><ele>482.0</ele><time>2026-04-26T09:40:30.954Z</time></trkpt><trkpt lat="42.7585943" lon="12.8478146"><ele>478.3333333333333</ele><time>2026-04-26T09:40:31.953Z</time></trkpt><trkpt lat="42.7584527" lon="12.8479484"><ele>474.66666666666663</ele><time>2026-04-26T09:40:32.953Z</time></trkpt><trkpt lat="42.7583119" lon="12.8480636"><ele>471.0</ele><time>2026-04-26T09:40:33.954Z</time></trkpt><trkpt lat="42.7581819" lon="12.8481476"><ele>471.0</ele><time>2026-04-26T09:40:34.953Z</time></trkpt><trkpt lat="42.7580765" lon="12.8482553"><ele>471.0</ele><time>2026-04-26T09:40:35.953Z</time></trkpt><trkpt lat="42.758012" lon="12.8483692"><ele>471.0</ele><time>2026-04-26T09:40:36.953Z</time></trkpt><trkpt lat="42.7579971" lon="12.8485238"><ele>471.0</ele><time>2026-04-26T09:40:37.953Z</time></trkpt><trkpt lat="42.7580343" lon="12.8486635"><ele>471.25</ele><time>2026-04-26T09:40:38.953Z</time></trkpt><trkpt lat="42.7581059" lon="12.8488157"><ele>471.5</ele><time>2026-04-26T09:40:39.953Z</time></trkpt><trkpt lat="42.7581828" lon="12.848988"><ele>471.75</ele><time>2026-04-26T09:40:40.954Z</time></trkpt><trkpt lat="42.7582497" lon="12.8491666"><ele>472.0</ele><time>2026-04-26T09:40:41.953Z</time></trkpt><trkpt lat="42.7582983" lon="12.8493408"><ele>472.25</ele><time>2026-04-26T09:40:42.953Z</time></trkpt><trkpt lat="42.7583195" lon="12.8494999"><ele>472.5</ele><time>2026-04-26T09:40:43.953Z</time></trkpt><trkpt lat="42.7583182" lon="12.8496519"><ele>472.75</ele><time>2026-04-26T09:40:44.953Z</time></trkpt><trkpt lat="42.7582812" lon="12.8497996"><ele>473.0</ele><time>2026-04-26T09:40:45.954Z</time></trkpt><trkpt lat="42.7582183" lon="12.8499145"><ele>473.0</ele><time>2026-04-26T09:40:46.953Z</time></trkpt><trkpt lat="42.75812" lon="12.8499878"><ele>473.0</ele><time>2026-04-26T09:40:47.953Z</time></trkpt><trkpt lat="42.7580017" lon="12.850042"><ele>473.0</ele><time>2026-04-26T09:40:48.954Z</time></trkpt><trkpt lat="42.7578575" lon="12.8500594"><ele>473.0</ele><time>2026-04-26T09:40:49.954Z</time></trkpt><trkpt lat="42.7576955" lon="12.8500787"><ele>467.66666666666663</ele><time>2026-04-26T09:40:50.953Z</time></trkpt><trkpt lat="42.7575201" lon="12.8500984"><ele>462.33333333333337</ele><time>2026-04-26T09:40:51.953Z</time></trkpt><trkpt lat="42.7573449" lon="12.8501162"><ele>457.0</ele><time>2026-04-26T09:40:52.953Z</time></trkpt><trkpt lat="42.7571637" lon="12.850131"><ele>465.6666666666667</ele><time>2026-04-26T09:40:53.953Z</time></trkpt><trkpt lat="42.7569838" lon="12.8501419"><ele>474.33333333333337</ele><time>2026-04-26T09:40:54.953Z</time></trkpt><trkpt lat="42.7568111" lon="12.8501462"><ele>483.0</ele><time>2026-04-26T09:40:55.954Z</time></trkpt><trkpt lat="42.7566369" lon="12.8501851"><ele>483.0</ele><time>2026-04-26T09:40:56.953Z</time></trkpt><trkpt lat="42.7564535" lon="12.8502763"><ele>483.0</ele><time>2026-04-26T09:40:57.953Z</time></trkpt><trkpt lat="42.7562785" lon="12.8503877"><ele>483.0</ele><time>2026-04-26T09:40:58.953Z</time></trkpt><trkpt lat="42.7561179" lon="12.8505188"><ele>472.33333333333337</ele><time>2026-04-26T09:40:59.954Z</time></trkpt><trkpt lat="42.7559695" lon="12.8506263"><ele>461.6666666666667</ele><time>2026-04-26T09:41:00.953Z</time></trkpt><trkpt lat="42.7558252" lon="12.8507166"><ele>451.0</ele><time>2026-04-26T09:41:01.953Z</time></trkpt><trkpt lat="42.7556982" lon="12.8508013"><ele>451.0</ele><time>2026-04-26T09:41:02.953Z</time></trkpt><trkpt lat="42.7555871" lon="12.8508978"><ele>451.0</ele><time>2026-04-26T09:41:03.954Z</time></trkpt><trkpt lat="42.7555083" lon="12.8510339"><ele>451.0</ele><time>2026-04-26T09:41:04.953Z</time></trkpt><trkpt lat="42.7554669" lon="12.8512047"><ele>451.0</ele><time>2026-04-26T09:41:05.953Z</time></trkpt><trkpt lat="42.7554574" lon="12.8514076"><ele>453.6666666666667</ele><time>2026-04-26T09:41:06.953Z</time></trkpt><trkpt lat="42.7554788" lon="12.8516268"><ele>456.33333333333337</ele><time>2026-04-26T09:41:07.954Z</time></trkpt><trkpt lat="42.7555367" lon="12.8518569"><ele>459.0</ele><time>2026-04-26T09:41:08.953Z</time></trkpt><trkpt lat="42.7555934" lon="12.8521021"><ele>459.0</ele><time>2026-04-26T09:41:09.953Z</time></trkpt><trkpt lat="42.7556378" lon="12.8523467"><ele>459.0</ele><time>2026-04-26T09:41:10.953Z</time></trkpt><trkpt lat="42.7556786" lon="12.8525736"><ele>459.0</ele><time>2026-04-26T09:41:11.954Z</time></trkpt><trkpt lat="42.7557163" lon="12.8527882"><ele>455.33333333333337</ele><time>2026-04-26T09:41:12.953Z</time></trkpt><trkpt lat="42.7557502" lon="12.8530045"><ele>451.6666666666667</ele><time>2026-04-26T09:41:13.953Z</time></trkpt><trkpt lat="42.7557658" lon="12.8532241"><ele>448.0</ele><time>2026-04-26T09:41:14.954Z</time></trkpt><trkpt lat="42.7557615" lon="12.8534371"><ele>439.33333333333337</ele><time>2026-04-26T09:41:15.953Z</time></trkpt><trkpt lat="42.7557746" lon="12.8536389"><ele>430.66666666666663</ele><time>2026-04-26T09:41:16.954Z</time></trkpt><trkpt lat="42.7558164" lon="12.8538521"><ele>422.0</ele><time>2026-04-26T09:41:17.953Z</time></trkpt><trkpt lat="42.7558772" lon="12.8540505"><ele>422.0</ele><time>2026-04-26T09:41:18.953Z</time></trkpt><trkpt lat="42.7559451" lon="12.8542334"><ele>422.0</ele><time>2026-04-26T09:41:19.953Z</time></trkpt><trkpt lat="42.7560351" lon="12.8544018"><ele>422.0</ele><time>2026-04-26T09:41:20.953Z</time></trkpt><trkpt lat="42.7561507" lon="12.8545459"><ele>422.0</ele><time>2026-04-26T09:41:21.954Z</time></trkpt><trkpt lat="42.7562923" lon="12.8546547"><ele>422.0</ele><time>2026-04-26T09:41:22.953Z</time></trkpt><trkpt lat="42.7564605" lon="12.8547323"><ele>422.0</ele><time>2026-04-26T09:41:23.953Z</time></trkpt><trkpt lat="42.7566466" lon="12.8547895"><ele>422.0</ele><time>2026-04-26T09:41:24.953Z</time></trkpt><trkpt lat="42.7568316" lon="12.8548533"><ele>422.0</ele><time>2026-04-26T09:41:25.954Z</time></trkpt><trkpt lat="42.7570069" lon="12.8549646"><ele>422.0</ele><time>2026-04-26T09:41:26.953Z</time></trkpt><trkpt lat="42.75718" lon="12.8551131"><ele>417.3333333333333</ele><time>2026-04-26T09:41:27.953Z</time></trkpt><trkpt lat="42.7573555" lon="12.855283"><ele>412.66666666666663</ele><time>2026-04-26T09:41:28.953Z</time></trkpt><trkpt lat="42.7575312" lon="12.8554415"><ele>408.0</ele><time>2026-04-26T09:41:29.953Z</time></trkpt><trkpt lat="42.7576931" lon="12.855586"><ele>412.66666666666663</ele><time>2026-04-26T09:41:30.953Z</time></trkpt><trkpt lat="42.7578523" lon="12.8557138"><ele>417.3333333333333</ele><time>2026-04-26T09:41:31.953Z</time></trkpt><trkpt lat="42.7580058" lon="12.8558229"><ele>422.0</ele><time>2026-04-26T09:41:32.954Z</time></trkpt><trkpt lat="42.7581857" lon="12.8558932"><ele>422.0</ele><time>2026-04-26T09:41:33.953Z</time></trkpt><trkpt lat="42.7583761" lon="12.8559076"><ele>422.0</ele><time>2026-04-26T09:41:34.954Z</time></trkpt><trkpt lat="42.7585612" lon="12.8559177"><ele>422.0</ele><time>2026-04-26T09:41:35.953Z</time></trkpt><trkpt lat="42.7587287" lon="12.8558955"><ele>415.3333333333333</ele><time>2026-04-26T09:41:36.953Z</time></trkpt><trkpt lat="42.7588686" lon="12.8558295"><ele>408.66666666666663</ele><time>2026-04-26T09:41:37.953Z</time></trkpt><trkpt lat="42.7589795" lon="12.8556945"><ele>402.0</ele><time>2026-04-26T09:41:38.953Z</time></trkpt><trkpt lat="42.7590726" lon="12.8555279"><ele>402.0</ele><time>2026-04-26T09:41:39.953Z</time></trkpt><trkpt lat="42.7591574" lon="12.8553808"><ele>402.0</ele><time>2026-04-26T09:41:40.954Z</time></trkpt><trkpt lat="42.759248" lon="12.8552549"><ele>402.0</ele><time>2026-04-26T09:41:41.953Z</time></trkpt><trkpt lat="42.7593552" lon="12.8551446"><ele>402.0</ele><time>2026-04-26T09:41:42.953Z</time></trkpt><trkpt lat="42.7594681" lon="12.8550741"><ele>402.0</ele><time>2026-04-26T09:41:43.953Z</time></trkpt><trkpt lat="42.7595701" lon="12.8550539"><ele>402.0</ele><time>2026-04-26T09:41:44.953Z</time></trkpt><trkpt lat="42.7596723" lon="12.8550932"><ele>402.0</ele><time>2026-04-26T09:41:45.953Z</time></trkpt><trkpt lat="42.7597622" lon="12.8551932"><ele>402.0</ele><time>2026-04-26T09:41:46.953Z</time></trkpt><trkpt lat="42.7598502" lon="12.8553308"><ele>402.0</ele><time>2026-04-26T09:41:47.953Z</time></trkpt><trkpt lat="42.7599522" lon="12.8554774"><ele>402.0</ele><time>2026-04-26T09:41:48.953Z</time></trkpt><trkpt lat="42.7600606" lon="12.8556239"><ele>402.0</ele><time>2026-04-26T09:41:49.953Z</time></trkpt><trkpt lat="42.7601716" lon="12.8557693"><ele>406.66666666666663</ele><time>2026-04-26T09:41:50.953Z</time></trkpt><trkpt lat="42.7602851" lon="12.8559232"><ele>411.3333333333333</ele><time>2026-04-26T09:41:51.954Z</time></trkpt><trkpt lat="42.7603878" lon="12.8560835"><ele>416.0</ele><time>2026-04-26T09:41:52.953Z</time></trkpt><trkpt lat="42.7604874" lon="12.856225"><ele>416.0</ele><time>2026-04-26T09:41:53.953Z</time></trkpt><trkpt lat="42.7605692" lon="12.856358"><ele>416.0</ele><time>2026-04-26T09:41:54.954Z</time></trkpt><trkpt lat="42.7606261" lon="12.8564919"><ele>416.0</ele><time>2026-04-26T09:41:55.953Z</time></trkpt><trkpt lat="42.7606438" lon="12.8566291"><ele>416.0</ele><time>2026-04-26T09:41:56.953Z</time></trkpt><trkpt lat="42.7606287" lon="12.8567761"><ele>413.25</ele><time>2026-04-26T09:41:57.953Z</time></trkpt><trkpt lat="42.7605784" lon="12.8569154"><ele>410.5</ele><time>2026-04-26T09:41:58.953Z</time></trkpt><trkpt lat="42.7605204" lon="12.8570776"><ele>407.75</ele><time>2026-04-26T09:41:59.953Z</time></trkpt><trkpt lat="42.7604762" lon="12.8572432"><ele>405.0</ele><time>2026-04-26T09:42:00.954Z</time></trkpt><trkpt lat="42.7604686" lon="12.8573925"><ele>405.0</ele><time>2026-04-26T09:42:01.954Z</time></trkpt><trkpt lat="42.7604986" lon="12.8575389"><ele>405.0</ele><time>2026-04-26T09:42:02.953Z</time></trkpt><trkpt lat="42.7605697" lon="12.857657"><ele>405.0</ele><time>2026-04-26T09:42:03.953Z</time></trkpt><trkpt lat="42.7606704" lon="12.8577612"><ele>405.0</ele><time>2026-04-26T09:42:04.953Z</time></trkpt><trkpt lat="42.7608109" lon="12.8578431"><ele>401.66666666666663</ele><time>2026-04-26T09:42:05.953Z</time></trkpt><trkpt lat="42.7609738" lon="12.8579128"><ele>398.3333333333333</ele><time>2026-04-26T09:42:06.953Z</time></trkpt><trkpt lat="42.7611421" lon="12.8579941"><ele>395.0</ele><time>2026-04-26T09:42:07.953Z</time></trkpt><trkpt lat="42.7613194" lon="12.8580785"><ele>395.0</ele><time>2026-04-26T09:42:08.953Z</time></trkpt><trkpt lat="42.7615078" lon="12.8581713"><ele>395.0</ele><time>2026-04-26T09:42:09.954Z</time></trkpt><trkpt lat="42.7616892" lon="12.8582666"><ele>395.0</ele><time>2026-04-26T09:42:10.954Z</time></trkpt><trkpt lat="42.7618666" lon="12.8583593"><ele>400.3333333333333</ele><time>2026-04-26T09:42:11.953Z</time></trkpt><trkpt lat="42.7620381" lon="12.8584508"><ele>405.66666666666663</ele><time>2026-04-26T09:42:12.954Z</time></trkpt><trkpt lat="42.7622105" lon="12.8585383"><ele>411.0</ele><time>2026-04-26T09:42:13.953Z</time></trkpt><trkpt lat="42.7623797" lon="12.8586203"><ele>402.0</ele><time>2026-04-26T09:42:14.953Z</time></trkpt><trkpt lat="42.7625398" lon="12.8586939"><ele>393.0</ele><time>2026-04-26T09:42:15.953Z</time></trkpt><trkpt lat="42.7626974" lon="12.8587599"><ele>384.0</ele><time>2026-04-26T09:42:16.953Z</time></trkpt><trkpt lat="42.7628589" lon="12.8588033"><ele>384.0</ele><time>2026-04-26T09:42:17.953Z</time></trkpt><trkpt lat="42.7630094" lon="12.8588462"><ele>384.0</ele><time>2026-04-26T09:42:18.953Z</time></trkpt><trkpt lat="42.76315" lon="12.8589166"><ele>384.0</ele><time>2026-04-26T09:42:19.953Z</time></trkpt><trkpt lat="42.7632826" lon="12.8590244"><ele>384.0</ele><time>2026-04-26T09:42:20.954Z</time></trkpt><trkpt lat="42.7634238" lon="12.8591688"><ele>384.0</ele><time>2026-04-26T09:42:21.953Z</time></trkpt><trkpt lat="42.7635613" lon="12.8593372"><ele>384.0</ele><time>2026-04-26T09:42:22.953Z</time></trkpt><trkpt lat="42.7637139" lon="12.8595022"><ele>380.3333333333333</ele><time>2026-04-26T09:42:23.953Z</time></trkpt><trkpt lat="42.7638553" lon="12.8596567"><ele>376.66666666666663</ele><time>2026-04-26T09:42:24.954Z</time></trkpt><trkpt lat="42.7639887" lon="12.8597995"><ele>373.0</ele><time>2026-04-26T09:42:25.953Z</time></trkpt><trkpt lat="42.7641146" lon="12.8599424"><ele>373.0</ele><time>2026-04-26T09:42:26.953Z</time></trkpt><trkpt lat="42.7642492" lon="12.8600754"><ele>373.0</ele><time>2026-04-26T09:42:27.953Z</time></trkpt><trkpt lat="42.7643942" lon="12.860172"><ele>373.0</ele><time>2026-04-26T09:42:28.953Z</time></trkpt><trkpt lat="42.7645534" lon="12.8602364"><ele>364.66666666666663</ele><time>2026-04-26T09:42:29.953Z</time></trkpt><trkpt lat="42.7647113" lon="12.8602641"><ele>356.3333333333333</ele><time>2026-04-26T09:42:30.953Z</time></trkpt><trkpt lat="42.7648693" lon="12.8602633"><ele>348.0</ele><time>2026-04-26T09:42:31.953Z</time></trkpt><trkpt lat="42.7650104" lon="12.8602208"><ele>348.0</ele><time>2026-04-26T09:42:32.953Z</time></trkpt><trkpt lat="42.7651386" lon="12.8601552"><ele>348.0</ele><time>2026-04-26T09:42:33.953Z</time></trkpt><trkpt lat="42.7652265" lon="12.8600769"><ele>348.0</ele><time>2026-04-26T09:42:34.953Z</time></trkpt><trkpt lat="42.7652925" lon="12.8600077"><ele>348.0</ele><time>2026-04-26T09:42:35.953Z</time></trkpt><trkpt lat="42.7653567" lon="12.8599851"><ele>348.0</ele><time>2026-04-26T09:42:36.953Z</time></trkpt><trkpt lat="42.765423" lon="12.8600149"><ele>348.0</ele><time>2026-04-26T09:42:37.953Z</time></trkpt><trkpt lat="42.7654564" lon="12.8601"><ele>348.0</ele><time>2026-04-26T09:42:38.953Z</time></trkpt><trkpt lat="42.7654714" lon="12.8602238"><ele>348.0</ele><time>2026-04-26T09:42:39.953Z</time></trkpt><trkpt lat="42.7654683" lon="12.8603541"><ele>348.0</ele><time>2026-04-26T09:42:40.953Z</time></trkpt><trkpt lat="42.7654623" lon="12.8604783"><ele>348.0</ele><time>2026-04-26T09:42:41.953Z</time></trkpt><trkpt lat="42.76549" lon="12.8605774"><ele>348.0</ele><time>2026-04-26T09:42:42.954Z</time></trkpt><trkpt lat="42.7655453" lon="12.8606461"><ele>348.0</ele><time>2026-04-26T09:42:43.953Z</time></trkpt><trkpt lat="42.7656275" lon="12.8606731"><ele>348.0</ele><time>2026-04-26T09:42:44.954Z</time></trkpt><trkpt lat="42.7657319" lon="12.8606856"><ele>348.0</ele><time>2026-04-26T09:42:45.953Z</time></trkpt><trkpt lat="42.7658537" lon="12.8606943"><ele>348.0</ele><time>2026-04-26T09:42:46.953Z</time></trkpt><trkpt lat="42.765981" lon="12.8607037"><ele>348.0</ele><time>2026-04-26T09:42:47.953Z</time></trkpt><trkpt lat="42.7661112" lon="12.8607211"><ele>350.25</ele><time>2026-04-26T09:42:48.953Z</time></trkpt><trkpt lat="42.7662359" lon="12.8607366"><ele>352.5</ele><time>2026-04-26T09:42:49.953Z</time></trkpt><trkpt lat="42.7663788" lon="12.8607434"><ele>354.75</ele><time>2026-04-26T09:42:50.953Z</time></trkpt><trkpt lat="42.7665292" lon="12.8607554"><ele>357.0</ele><time>2026-04-26T09:42:51.953Z</time></trkpt><trkpt lat="42.7666924" lon="12.8607658"><ele>358.0</ele><time>2026-04-26T09:42:52.953Z</time></trkpt><trkpt lat="42.7668673" lon="12.8607821"><ele>359.0</ele><time>2026-04-26T09:42:53.954Z</time></trkpt><trkpt lat="42.7670462" lon="12.8608077"><ele>360.0</ele><time>2026-04-26T09:42:54.953Z</time></trkpt><trkpt lat="42.7672199" lon="12.860839"><ele>360.0</ele><time>2026-04-26T09:42:55.953Z</time></trkpt><trkpt lat="42.7673912" lon="12.8608704"><ele>360.0</ele><time>2026-04-26T09:42:56.953Z</time></trkpt><trkpt lat="42.7675606" lon="12.8609082"><ele>360.0</ele><time>2026-04-26T09:42:57.953Z</time></trkpt><trkpt lat="42.7677301" lon="12.8609585"><ele>352.0</ele><time>2026-04-26T09:42:58.954Z</time></trkpt><trkpt lat="42.7678921" lon="12.8610201"><ele>344.0</ele><time>2026-04-26T09:42:59.953Z</time></trkpt><trkpt lat="42.768044" lon="12.861089"><ele>336.0</ele><time>2026-04-26T09:43:00.953Z</time></trkpt><trkpt lat="42.7681897" lon="12.8611719"><ele>336.0</ele><time>2026-04-26T09:43:01.953Z</time></trkpt><trkpt lat="42.7683285" lon="12.8612703"><ele>336.0</ele><time>2026-04-26T09:43:02.953Z</time></trkpt><trkpt lat="42.768463" lon="12.8613755"><ele>336.0</ele><time>2026-04-26T09:43:03.953Z</time></trkpt><trkpt lat="42.7686041" lon="12.8614965"><ele>334.3333333333333</ele><time>2026-04-26T09:43:04.953Z</time></trkpt><trkpt lat="42.7687445" lon="12.8616276"><ele>332.66666666666663</ele><time>2026-04-26T09:43:05.953Z</time></trkpt><trkpt lat="42.7688556" lon="12.8618707"><ele>331.0</ele><time>2026-04-26T09:43:06.954Z</time></trkpt><trkpt lat="42.7689693" lon="12.8619855"><ele>331.0</ele><time>2026-04-26T09:43:07.953Z</time></trkpt><trkpt lat="42.7690685" lon="12.8620903"><ele>331.0</ele><time>2026-04-26T09:43:08.954Z</time></trkpt><trkpt lat="42.7691567" lon="12.8621872"><ele>331.0</ele><time>2026-04-26T09:43:09.953Z</time></trkpt><trkpt lat="42.7692403" lon="12.8622685"><ele>331.0</ele><time>2026-04-26T09:43:10.953Z</time></trkpt><trkpt lat="42.7693199" lon="12.862338"><ele>331.0</ele><time>2026-04-26T09:43:11.954Z</time></trkpt><trkpt lat="42.7693823" lon="12.8623974"><ele>331.0</ele><time>2026-04-26T09:43:12.953Z</time></trkpt><trkpt lat="42.7694383" lon="12.8625065"><ele>331.0</ele><time>2026-04-26T09:43:14.952Z</time></trkpt><trkpt lat="42.7693998" lon="12.862583"><ele>331.0</ele><time>2026-04-26T09:43:16.952Z</time></trkpt><trkpt lat="42.7692938" lon="12.8625567"><ele>331.0</ele><time>2026-04-26T09:43:18.952Z</time></trkpt><trkpt lat="42.7692172" lon="12.8625047"><ele>331.0</ele><time>2026-04-26T09:43:19.952Z</time></trkpt><trkpt lat="42.7691313" lon="12.8624355"><ele>331.0</ele><time>2026-04-26T09:43:20.952Z</time></trkpt><trkpt lat="42.769037" lon="12.8623444"><ele>331.0</ele><time>2026-04-26T09:43:21.952Z</time></trkpt><trkpt lat="42.7689313" lon="12.8622394"><ele>331.0</ele><time>2026-04-26T09:43:22.953Z</time></trkpt><trkpt lat="42.7688194" lon="12.8621235"><ele>331.0</ele><time>2026-04-26T09:43:23.952Z</time></trkpt><trkpt lat="42.7687096" lon="12.8619936"><ele>331.0</ele><time>2026-04-26T09:43:24.952Z</time></trkpt><trkpt lat="42.768594" lon="12.861865"><ele>331.0</ele><time>2026-04-26T09:43:25.952Z</time></trkpt><trkpt lat="42.7684721" lon="12.861723"><ele>331.0</ele><time>2026-04-26T09:43:26.952Z</time></trkpt><trkpt lat="42.7683474" lon="12.8615925"><ele>332.66666666666663</ele><time>2026-04-26T09:43:27.952Z</time></trkpt><trkpt lat="42.7682058" lon="12.8614954"><ele>334.3333333333333</ele><time>2026-04-26T09:43:28.952Z</time></trkpt><trkpt lat="42.7680577" lon="12.8614189"><ele>336.0</ele><time>2026-04-26T09:43:29.952Z</time></trkpt><trkpt lat="42.7679009" lon="12.8613715"><ele>336.0</ele><time>2026-04-26T09:43:30.953Z</time></trkpt><trkpt lat="42.7677337" lon="12.8613394"><ele>336.0</ele><time>2026-04-26T09:43:31.952Z</time></trkpt><trkpt lat="42.7675575" lon="12.8613267"><ele>336.0</ele><time>2026-04-26T09:43:32.953Z</time></trkpt><trkpt lat="42.7673787" lon="12.8613439"><ele>332.0</ele><time>2026-04-26T09:43:33.952Z</time></trkpt><trkpt lat="42.767215" lon="12.8613588"><ele>328.0</ele><time>2026-04-26T09:43:34.952Z</time></trkpt><trkpt lat="42.7670623" lon="12.8613729"><ele>324.0</ele><time>2026-04-26T09:43:35.952Z</time></trkpt><trkpt lat="42.7669195" lon="12.8613819"><ele>322.5</ele><time>2026-04-26T09:43:36.952Z</time></trkpt><trkpt lat="42.7667786" lon="12.8613951"><ele>321.0</ele><time>2026-04-26T09:43:37.952Z</time></trkpt><trkpt lat="42.766642" lon="12.8614024"><ele>319.5</ele><time>2026-04-26T09:43:38.959Z</time></trkpt><trkpt lat="42.7665049" lon="12.86142"><ele>318.0</ele><time>2026-04-26T09:43:39.96Z</time></trkpt><trkpt lat="42.7663752" lon="12.8614397"><ele>318.0</ele><time>2026-04-26T09:43:40.959Z</time></trkpt><trkpt lat="42.766258" lon="12.8614496"><ele>318.0</ele><time>2026-04-26T09:43:41.96Z</time></trkpt><trkpt lat="42.7661454" lon="12.8614588"><ele>318.0</ele><time>2026-04-26T09:43:42.959Z</time></trkpt><trkpt lat="42.7660444" lon="12.8614543"><ele>318.0</ele><time>2026-04-26T09:43:43.959Z</time></trkpt><trkpt lat="42.7659681" lon="12.8614465"><ele>318.0</ele><time>2026-04-26T09:43:44.959Z</time></trkpt><trkpt lat="42.7658855" lon="12.8614884"><ele>317.4</ele><time>2026-04-26T09:43:46.959Z</time></trkpt><trkpt lat="42.7659067" lon="12.8616251"><ele>316.8</ele><time>2026-04-26T09:45:00.96Z</time></trkpt><trkpt lat="42.7659736" lon="12.8617492"><ele>316.2</ele><time>2026-04-26T09:45:02.959Z</time></trkpt><trkpt lat="42.7660552" lon="12.8618295"><ele>315.6</ele><time>2026-04-26T09:45:03.959Z</time></trkpt><trkpt lat="42.7661653" lon="12.8619096"><ele>315.0</ele><time>2026-04-26T09:45:04.959Z</time></trkpt><trkpt lat="42.7662956" lon="12.8619865"><ele>314.0</ele><time>2026-04-26T09:45:05.96Z</time></trkpt><trkpt lat="42.7664428" lon="12.8620743"><ele>313.0</ele><time>2026-04-26T09:45:06.959Z</time></trkpt><trkpt lat="42.766605" lon="12.8621783"><ele>312.0</ele><time>2026-04-26T09:45:07.959Z</time></trkpt><trkpt lat="42.7667681" lon="12.862282"><ele>312.6666666666667</ele><time>2026-04-26T09:45:08.959Z</time></trkpt><trkpt lat="42.7669378" lon="12.8623958"><ele>313.33333333333337</ele><time>2026-04-26T09:45:09.959Z</time></trkpt><trkpt lat="42.7670982" lon="12.8625221"><ele>314.0</ele><time>2026-04-26T09:45:10.959Z</time></trkpt><trkpt lat="42.7672526" lon="12.8626565"><ele>314.0</ele><time>2026-04-26T09:45:11.96Z</time></trkpt><trkpt lat="42.7674287" lon="12.8627904"><ele>314.0</ele><time>2026-04-26T09:45:12.959Z</time></trkpt><trkpt lat="42.7676018" lon="12.8629254"><ele>314.0</ele><time>2026-04-26T09:45:13.959Z</time></trkpt><trkpt lat="42.7677822" lon="12.8630563"><ele>314.0</ele><time>2026-04-26T09:45:14.959Z</time></trkpt><trkpt lat="42.7679639" lon="12.8631903"><ele>314.0</ele><time>2026-04-26T09:45:15.959Z</time></trkpt><trkpt lat="42.7681561" lon="12.8633205"><ele>314.0</ele><time>2026-04-26T09:45:16.959Z</time></trkpt><trkpt lat="42.7683565" lon="12.863451"><ele>314.5</ele><time>2026-04-26T09:45:17.959Z</time></trkpt><trkpt lat="42.768566" lon="12.863588"><ele>315.0</ele><time>2026-04-26T09:45:18.96Z</time></trkpt><trkpt lat="42.7687769" lon="12.8637265"><ele>315.0</ele><time>2026-04-26T09:45:19.959Z</time></trkpt><trkpt lat="42.7689862" lon="12.8638666"><ele>315.0</ele><time>2026-04-26T09:45:20.959Z</time></trkpt><trkpt lat="42.7691967" lon="12.8640099"><ele>317.5</ele><time>2026-04-26T09:45:21.959Z</time></trkpt><trkpt lat="42.7694108" lon="12.8641526"><ele>320.0</ele><time>2026-04-26T09:45:22.959Z</time></trkpt><trkpt lat="42.7696234" lon="12.864292"><ele>320.0</ele><time>2026-04-26T09:45:23.959Z</time></trkpt><trkpt lat="42.7698349" lon="12.8644341"><ele>320.0</ele><time>2026-04-26T09:45:24.959Z</time></trkpt><trkpt lat="42.7700671" lon="12.8645754"><ele>322.5</ele><time>2026-04-26T09:45:25.959Z</time></trkpt><trkpt lat="42.7703098" lon="12.8647182"><ele>325.0</ele><time>2026-04-26T09:45:26.959Z</time></trkpt><trkpt lat="42.7705545" lon="12.8648598"><ele>325.0</ele><time>2026-04-26T09:45:27.959Z</time></trkpt><trkpt lat="42.7708036" lon="12.8650078"><ele>325.0</ele><time>2026-04-26T09:45:28.96Z</time></trkpt><trkpt lat="42.7710569" lon="12.8651525"><ele>321.5</ele><time>2026-04-26T09:45:29.959Z</time></trkpt><trkpt lat="42.7713108" lon="12.8653027"><ele>318.0</ele><time>2026-04-26T09:45:30.96Z</time></trkpt><trkpt lat="42.7715641" lon="12.8654478"><ele>318.0</ele><time>2026-04-26T09:45:31.96Z</time></trkpt><trkpt lat="42.771831" lon="12.8655902"><ele>318.0</ele><time>2026-04-26T09:45:32.959Z</time></trkpt><trkpt lat="42.7721122" lon="12.865748"><ele>318.5</ele><time>2026-04-26T09:45:33.959Z</time></trkpt><trkpt lat="42.7723914" lon="12.8659081"><ele>319.0</ele><time>2026-04-26T09:45:34.96Z</time></trkpt><trkpt lat="42.7726617" lon="12.8660619"><ele>319.0</ele><time>2026-04-26T09:45:35.959Z</time></trkpt><trkpt lat="42.772932" lon="12.8661971"><ele>319.0</ele><time>2026-04-26T09:45:36.959Z</time></trkpt><trkpt lat="42.7732031" lon="12.8663194"><ele>319.0</ele><time>2026-04-26T09:45:37.959Z</time></trkpt><trkpt lat="42.7734786" lon="12.8664193"><ele>319.0</ele><time>2026-04-26T09:45:38.96Z</time></trkpt><trkpt lat="42.7737459" lon="12.8664902"><ele>321.0</ele><time>2026-04-26T09:45:39.959Z</time></trkpt><trkpt lat="42.7740079" lon="12.8665305"><ele>323.0</ele><time>2026-04-26T09:45:40.959Z</time></trkpt><trkpt lat="42.7742592" lon="12.866555"><ele>327.5</ele><time>2026-04-26T09:45:41.96Z</time></trkpt><trkpt lat="42.7744965" lon="12.8665797"><ele>332.0</ele><time>2026-04-26T09:45:42.959Z</time></trkpt><trkpt lat="42.7747137" lon="12.8666114"><ele>332.0</ele><time>2026-04-26T09:45:43.959Z</time></trkpt><trkpt lat="42.7749163" lon="12.8666511"><ele>332.0</ele><time>2026-04-26T09:45:44.96Z</time></trkpt><trkpt lat="42.7751057" lon="12.8667061"><ele>332.0</ele><time>2026-04-26T09:45:45.96Z</time></trkpt><trkpt lat="42.7752808" lon="12.866765"><ele>327.6666666666667</ele><time>2026-04-26T09:45:46.959Z</time></trkpt><trkpt lat="42.7754664" lon="12.8668239"><ele>323.3333333333333</ele><time>2026-04-26T09:45:47.959Z</time></trkpt><trkpt lat="42.7756796" lon="12.8668939"><ele>319.0</ele><time>2026-04-26T09:45:48.959Z</time></trkpt><trkpt lat="42.7759029" lon="12.8669927"><ele>325.0</ele><time>2026-04-26T09:45:49.959Z</time></trkpt><trkpt lat="42.776127" lon="12.8671184"><ele>331.0</ele><time>2026-04-26T09:45:50.959Z</time></trkpt><trkpt lat="42.7763535" lon="12.8672616"><ele>331.0</ele><time>2026-04-26T09:45:51.959Z</time></trkpt><trkpt lat="42.7765703" lon="12.8674226"><ele>331.0</ele><time>2026-04-26T09:45:52.959Z</time></trkpt><trkpt lat="42.7767739" lon="12.8675839"><ele>328.66666666666663</ele><time>2026-04-26T09:45:53.959Z</time></trkpt><trkpt lat="42.7769719" lon="12.8677397"><ele>326.3333333333333</ele><time>2026-04-26T09:45:54.96Z</time></trkpt><trkpt lat="42.7771606" lon="12.8678708"><ele>324.0</ele><time>2026-04-26T09:45:55.959Z</time></trkpt><trkpt lat="42.7773445" lon="12.8679616"><ele>324.0</ele><time>2026-04-26T09:45:56.959Z</time></trkpt><trkpt lat="42.7775282" lon="12.8680083"><ele>324.0</ele><time>2026-04-26T09:45:57.959Z</time></trkpt><trkpt lat="42.7777227" lon="12.8680094"><ele>324.0</ele><time>2026-04-26T09:45:58.96Z</time></trkpt><trkpt lat="42.7779239" lon="12.8679949"><ele>324.0</ele><time>2026-04-26T09:45:59.959Z</time></trkpt><trkpt lat="42.7781289" lon="12.8679725"><ele>324.0</ele><time>2026-04-26T09:46:00.959Z</time></trkpt><trkpt lat="42.7783238" lon="12.8679563"><ele>324.0</ele><time>2026-04-26T09:46:01.959Z</time></trkpt><trkpt lat="42.778514" lon="12.8679613"><ele>325.6666666666667</ele><time>2026-04-26T09:46:02.96Z</time></trkpt><trkpt lat="42.7787054" lon="12.867994"><ele>327.33333333333337</ele><time>2026-04-26T09:46:03.959Z</time></trkpt><trkpt lat="42.7789055" lon="12.8680389"><ele>329.0</ele><time>2026-04-26T09:46:04.96Z</time></trkpt><trkpt lat="42.77911" lon="12.8681023"><ele>329.0</ele><time>2026-04-26T09:46:05.959Z</time></trkpt><trkpt lat="42.7793194" lon="12.868179"><ele>329.0</ele><time>2026-04-26T09:46:06.959Z</time></trkpt><trkpt lat="42.7795364" lon="12.8682592"><ele>329.0</ele><time>2026-04-26T09:46:07.959Z</time></trkpt><trkpt lat="42.7797616" lon="12.8683378"><ele>330.5</ele><time>2026-04-26T09:46:08.959Z</time></trkpt><trkpt lat="42.7799942" lon="12.8684167"><ele>332.0</ele><time>2026-04-26T09:46:09.959Z</time></trkpt><trkpt lat="42.780228" lon="12.8684934"><ele>327.0</ele><time>2026-04-26T09:46:10.959Z</time></trkpt><trkpt lat="42.780467" lon="12.8685576"><ele>322.0</ele><time>2026-04-26T09:46:11.959Z</time></trkpt><trkpt lat="42.7807125" lon="12.8686254"><ele>322.0</ele><time>2026-04-26T09:46:12.96Z</time></trkpt><trkpt lat="42.780951" lon="12.8686953"><ele>322.0</ele><time>2026-04-26T09:46:13.96Z</time></trkpt><trkpt lat="42.7811825" lon="12.8687453"><ele>323.0</ele><time>2026-04-26T09:46:14.96Z</time></trkpt><trkpt lat="42.7814018" lon="12.8687644"><ele>324.0</ele><time>2026-04-26T09:46:15.959Z</time></trkpt><trkpt lat="42.7816035" lon="12.8687705"><ele>325.0</ele><time>2026-04-26T09:46:16.959Z</time></trkpt><trkpt lat="42.7817974" lon="12.8688184"><ele>329.0</ele><time>2026-04-26T09:46:17.959Z</time></trkpt><trkpt lat="42.7819784" lon="12.8689174"><ele>333.0</ele><time>2026-04-26T09:46:18.959Z</time></trkpt><trkpt lat="42.7821525" lon="12.8690746"><ele>337.0</ele><time>2026-04-26T09:46:19.959Z</time></trkpt><trkpt lat="42.7823268" lon="12.8692643"><ele>334.66666666666663</ele><time>2026-04-26T09:46:20.959Z</time></trkpt><trkpt lat="42.7824239" lon="12.8694978"><ele>332.3333333333333</ele><time>2026-04-26T09:46:21.959Z</time></trkpt><trkpt lat="42.7825974" lon="12.86968"><ele>330.0</ele><time>2026-04-26T09:46:22.959Z</time></trkpt><trkpt lat="42.7827735" lon="12.8698348"><ele>330.0</ele><time>2026-04-26T09:46:23.959Z</time></trkpt><trkpt lat="42.782923" lon="12.870019"><ele>330.0</ele><time>2026-04-26T09:46:24.959Z</time></trkpt><trkpt lat="42.7830512" lon="12.8702537"><ele>330.0</ele><time>2026-04-26T09:46:25.959Z</time></trkpt><trkpt lat="42.7831596" lon="12.8705325"><ele>331.0</ele><time>2026-04-26T09:46:26.959Z</time></trkpt><trkpt lat="42.7832542" lon="12.8708431"><ele>332.0</ele><time>2026-04-26T09:46:27.96Z</time></trkpt><trkpt lat="42.7833447" lon="12.8711358"><ele>332.0</ele><time>2026-04-26T09:46:28.959Z</time></trkpt><trkpt lat="42.7834231" lon="12.8714297"><ele>332.0</ele><time>2026-04-26T09:46:29.959Z</time></trkpt><trkpt lat="42.7834627" lon="12.8717451"><ele>332.0</ele><time>2026-04-26T09:46:30.959Z</time></trkpt><trkpt lat="42.7834699" lon="12.8720916"><ele>332.0</ele><time>2026-04-26T09:46:31.959Z</time></trkpt><trkpt lat="42.7834655" lon="12.8724355"><ele>330.6666666666667</ele><time>2026-04-26T09:46:32.959Z</time></trkpt><trkpt lat="42.7834652" lon="12.8727371"><ele>329.3333333333333</ele><time>2026-04-26T09:46:33.96Z</time></trkpt><trkpt lat="42.7834771" lon="12.8729882"><ele>328.0</ele><time>2026-04-26T09:46:34.959Z</time></trkpt><trkpt lat="42.7835326" lon="12.8732092"><ele>327.0</ele><time>2026-04-26T09:46:35.959Z</time></trkpt><trkpt lat="42.7836425" lon="12.8734032"><ele>326.0</ele><time>2026-04-26T09:46:36.959Z</time></trkpt><trkpt lat="42.7838034" lon="12.8735715"><ele>325.0</ele><time>2026-04-26T09:46:37.959Z</time></trkpt><trkpt lat="42.7839819" lon="12.8737141"><ele>325.0</ele><time>2026-04-26T09:46:38.959Z</time></trkpt><trkpt lat="42.7841719" lon="12.8738398"><ele>325.0</ele><time>2026-04-26T09:46:39.959Z</time></trkpt><trkpt lat="42.7843761" lon="12.8738856"><ele>325.0</ele><time>2026-04-26T09:46:40.959Z</time></trkpt><trkpt lat="42.7845897" lon="12.8738908"><ele>326.66666666666663</ele><time>2026-04-26T09:46:41.959Z</time></trkpt><trkpt lat="42.7847921" lon="12.8738865"><ele>328.3333333333333</ele><time>2026-04-26T09:46:42.959Z</time></trkpt><trkpt lat="42.7849717" lon="12.8738885"><ele>330.0</ele><time>2026-04-26T09:46:43.959Z</time></trkpt><trkpt lat="42.7851468" lon="12.8738806"><ele>331.6666666666667</ele><time>2026-04-26T09:46:44.959Z</time></trkpt><trkpt lat="42.7853335" lon="12.8738825"><ele>333.33333333333337</ele><time>2026-04-26T09:46:45.96Z</time></trkpt><trkpt lat="42.7855497" lon="12.8739177"><ele>335.0</ele><time>2026-04-26T09:46:46.959Z</time></trkpt><trkpt lat="42.7857711" lon="12.8740162"><ele>335.0</ele><time>2026-04-26T09:46:47.96Z</time></trkpt><trkpt lat="42.7859835" lon="12.8741387"><ele>335.0</ele><time>2026-04-26T09:46:48.96Z</time></trkpt><trkpt lat="42.7861683" lon="12.8742641"><ele>335.0</ele><time>2026-04-26T09:46:49.959Z</time></trkpt><trkpt lat="42.7863365" lon="12.8743807"><ele>336.33333333333337</ele><time>2026-04-26T09:46:50.96Z</time></trkpt><trkpt lat="42.7864789" lon="12.874521"><ele>337.6666666666667</ele><time>2026-04-26T09:46:51.959Z</time></trkpt><trkpt lat="42.7865942" lon="12.8746744"><ele>339.0</ele><time>2026-04-26T09:46:52.96Z</time></trkpt><trkpt lat="42.7866944" lon="12.8748381"><ele>339.0</ele><time>2026-04-26T09:46:53.959Z</time></trkpt><trkpt lat="42.7867591" lon="12.8750388"><ele>339.0</ele><time>2026-04-26T09:46:54.959Z</time></trkpt><trkpt lat="42.7868132" lon="12.8752314"><ele>339.0</ele><time>2026-04-26T09:46:55.959Z</time></trkpt><trkpt lat="42.7868477" lon="12.8754177"><ele>347.5</ele><time>2026-04-26T09:46:56.96Z</time></trkpt><trkpt lat="42.7868805" lon="12.8755912"><ele>356.0</ele><time>2026-04-26T09:46:57.96Z</time></trkpt><trkpt lat="42.7869166" lon="12.8757611"><ele>364.5</ele><time>2026-04-26T09:46:58.96Z</time></trkpt><trkpt lat="42.786947" lon="12.875923"><ele>373.0</ele><time>2026-04-26T09:46:59.959Z</time></trkpt><trkpt lat="42.7869818" lon="12.8760809"><ele>373.0</ele><time>2026-04-26T09:47:00.959Z</time></trkpt><trkpt lat="42.7870147" lon="12.8762512"><ele>373.0</ele><time>2026-04-26T09:47:01.959Z</time></trkpt><trkpt lat="42.7870525" lon="12.876436"><ele>373.0</ele><time>2026-04-26T09:47:02.959Z</time></trkpt><trkpt lat="42.7870935" lon="12.8766273"><ele>373.0</ele><time>2026-04-26T09:47:03.959Z</time></trkpt><trkpt lat="42.7871349" lon="12.8768096"><ele>366.25</ele><time>2026-04-26T09:47:04.959Z</time></trkpt><trkpt lat="42.7871815" lon="12.876977"><ele>359.5</ele><time>2026-04-26T09:47:05.96Z</time></trkpt><trkpt lat="42.7872239" lon="12.8771388"><ele>352.75</ele><time>2026-04-26T09:47:06.96Z</time></trkpt><trkpt lat="42.7872687" lon="12.87729"><ele>346.0</ele><time>2026-04-26T09:47:07.959Z</time></trkpt><trkpt lat="42.7873213" lon="12.8774345"><ele>346.0</ele><time>2026-04-26T09:47:08.96Z</time></trkpt><trkpt lat="42.7873767" lon="12.8775996"><ele>346.0</ele><time>2026-04-26T09:47:09.96Z</time></trkpt><trkpt lat="42.7874391" lon="12.8778001"><ele>346.0</ele><time>2026-04-26T09:47:10.96Z</time></trkpt><trkpt lat="42.7875054" lon="12.8780154"><ele>341.66666666666663</ele><time>2026-04-26T09:47:11.96Z</time></trkpt><trkpt lat="42.7875876" lon="12.8782336"><ele>337.3333333333333</ele><time>2026-04-26T09:47:12.959Z</time></trkpt><trkpt lat="42.7876817" lon="12.8785179"><ele>333.0</ele><time>2026-04-26T09:47:13.96Z</time></trkpt><trkpt lat="42.7877665" lon="12.8788325"><ele>341.0</ele><time>2026-04-26T09:47:14.959Z</time></trkpt><trkpt lat="42.7878575" lon="12.8791408"><ele>349.0</ele><time>2026-04-26T09:47:15.959Z</time></trkpt><trkpt lat="42.7879442" lon="12.8794323"><ele>349.0</ele><time>2026-04-26T09:47:16.959Z</time></trkpt><trkpt lat="42.7880247" lon="12.8797001"><ele>349.0</ele><time>2026-04-26T09:47:17.96Z</time></trkpt><trkpt lat="42.7881129" lon="12.879942"><ele>349.0</ele><time>2026-04-26T09:47:18.959Z</time></trkpt><trkpt lat="42.7882159" lon="12.8801513"><ele>345.0</ele><time>2026-04-26T09:47:19.959Z</time></trkpt><trkpt lat="42.788356" lon="12.8803233"><ele>341.0</ele><time>2026-04-26T09:47:20.959Z</time></trkpt><trkpt lat="42.7885299" lon="12.880456"><ele>337.0</ele><time>2026-04-26T09:47:21.959Z</time></trkpt><trkpt lat="42.7887382" lon="12.8805456"><ele>337.0</ele><time>2026-04-26T09:47:22.959Z</time></trkpt><trkpt lat="42.7889598" lon="12.8806401"><ele>337.0</ele><time>2026-04-26T09:47:23.959Z</time></trkpt><trkpt lat="42.789172" lon="12.8807785"><ele>341.5</ele><time>2026-04-26T09:47:24.959Z</time></trkpt><trkpt lat="42.7893754" lon="12.880965"><ele>346.0</ele><time>2026-04-26T09:47:25.959Z</time></trkpt><trkpt lat="42.7895922" lon="12.8812024"><ele>346.0</ele><time>2026-04-26T09:47:26.959Z</time></trkpt><trkpt lat="42.7898057" lon="12.881468"><ele>346.0</ele><time>2026-04-26T09:47:27.959Z</time></trkpt><trkpt lat="42.79001" lon="12.8817354"><ele>350.5</ele><time>2026-04-26T09:47:28.96Z</time></trkpt><trkpt lat="42.7902177" lon="12.8819817"><ele>355.0</ele><time>2026-04-26T09:47:29.959Z</time></trkpt><trkpt lat="42.790403" lon="12.8822429"><ele>355.0</ele><time>2026-04-26T09:47:30.959Z</time></trkpt><trkpt lat="42.7905704" lon="12.8825046"><ele>355.0</ele><time>2026-04-26T09:47:31.959Z</time></trkpt><trkpt lat="42.790726" lon="12.8827582"><ele>350.66666666666663</ele><time>2026-04-26T09:47:32.96Z</time></trkpt><trkpt lat="42.7908612" lon="12.8829983"><ele>346.3333333333333</ele><time>2026-04-26T09:47:33.959Z</time></trkpt><trkpt lat="42.7909647" lon="12.8832347"><ele>342.0</ele><time>2026-04-26T09:47:34.959Z</time></trkpt><trkpt lat="42.7910293" lon="12.8834926"><ele>353.6666666666667</ele><time>2026-04-26T09:47:35.96Z</time></trkpt><trkpt lat="42.7910489" lon="12.8837782"><ele>365.33333333333337</ele><time>2026-04-26T09:47:36.96Z</time></trkpt><trkpt lat="42.7910451" lon="12.8840721"><ele>377.0</ele><time>2026-04-26T09:47:37.959Z</time></trkpt><trkpt lat="42.7910293" lon="12.8843937"><ele>377.5</ele><time>2026-04-26T09:47:38.959Z</time></trkpt><trkpt lat="42.7910223" lon="12.8847336"><ele>378.0</ele><time>2026-04-26T09:47:39.959Z</time></trkpt><trkpt lat="42.7910205" lon="12.8850303"><ele>371.6666666666667</ele><time>2026-04-26T09:47:40.959Z</time></trkpt><trkpt lat="42.7910287" lon="12.8853178"><ele>365.33333333333337</ele><time>2026-04-26T09:47:41.96Z</time></trkpt><trkpt lat="42.791072" lon="12.8855606"><ele>359.0</ele><time>2026-04-26T09:47:42.959Z</time></trkpt><trkpt lat="42.7911555" lon="12.8857715"><ele>353.6666666666667</ele><time>2026-04-26T09:47:43.96Z</time></trkpt><trkpt lat="42.7912796" lon="12.8859478"><ele>348.3333333333333</ele><time>2026-04-26T09:47:44.959Z</time></trkpt><trkpt lat="42.7914425" lon="12.8861178"><ele>343.0</ele><time>2026-04-26T09:47:45.959Z</time></trkpt><trkpt lat="42.7916168" lon="12.8862838"><ele>343.0</ele><time>2026-04-26T09:47:46.959Z</time></trkpt><trkpt lat="42.7917974" lon="12.8864681"><ele>343.0</ele><time>2026-04-26T09:47:47.959Z</time></trkpt><trkpt lat="42.7919878" lon="12.8866658"><ele>342.0</ele><time>2026-04-26T09:47:48.959Z</time></trkpt><trkpt lat="42.7921699" lon="12.8868719"><ele>341.0</ele><time>2026-04-26T09:47:49.959Z</time></trkpt><trkpt lat="42.7923553" lon="12.8870671"><ele>341.0</ele><time>2026-04-26T09:47:50.96Z</time></trkpt><trkpt lat="42.7925495" lon="12.8872326"><ele>341.0</ele><time>2026-04-26T09:47:51.959Z</time></trkpt><trkpt lat="42.7927571" lon="12.8873639"><ele>346.0</ele><time>2026-04-26T09:47:52.96Z</time></trkpt><trkpt lat="42.7929742" lon="12.8874676"><ele>351.0</ele><time>2026-04-26T09:47:53.959Z</time></trkpt><trkpt lat="42.7932034" lon="12.8875487"><ele>345.0</ele><time>2026-04-26T09:47:54.959Z</time></trkpt><trkpt lat="42.7934548" lon="12.887633"><ele>339.0</ele><time>2026-04-26T09:47:55.959Z</time></trkpt><trkpt lat="42.7937494" lon="12.8877289"><ele>339.0</ele><time>2026-04-26T09:47:56.959Z</time></trkpt><trkpt lat="42.794045" lon="12.8878422"><ele>339.0</ele><time>2026-04-26T09:47:57.959Z</time></trkpt><trkpt lat="42.7943403" lon="12.8879525"><ele>341.0</ele><time>2026-04-26T09:47:58.959Z</time></trkpt><trkpt lat="42.7946244" lon="12.8880652"><ele>343.0</ele><time>2026-04-26T09:47:59.959Z</time></trkpt><trkpt lat="42.7949023" lon="12.8881639"><ele>343.0</ele><time>2026-04-26T09:48:00.96Z</time></trkpt><trkpt lat="42.7951682" lon="12.8882503"><ele>343.0</ele><time>2026-04-26T09:48:01.959Z</time></trkpt><trkpt lat="42.7954271" lon="12.8883136"><ele>347.5</ele><time>2026-04-26T09:48:02.959Z</time></trkpt><trkpt lat="42.7956706" lon="12.8883617"><ele>352.0</ele><time>2026-04-26T09:48:03.96Z</time></trkpt><trkpt lat="42.7959014" lon="12.8884085"><ele>348.0</ele><time>2026-04-26T09:48:04.959Z</time></trkpt><trkpt lat="42.7961183" lon="12.8884883"><ele>344.0</ele><time>2026-04-26T09:48:05.959Z</time></trkpt><trkpt lat="42.7963379" lon="12.8886124"><ele>344.0</ele><time>2026-04-26T09:48:06.959Z</time></trkpt><trkpt lat="42.7965541" lon="12.8887683"><ele>344.0</ele><time>2026-04-26T09:48:07.959Z</time></trkpt><trkpt lat="42.7967719" lon="12.8889605"><ele>344.5</ele><time>2026-04-26T09:48:08.959Z</time></trkpt><trkpt lat="42.7969954" lon="12.8891519"><ele>345.0</ele><time>2026-04-26T09:48:09.959Z</time></trkpt><trkpt lat="42.7972101" lon="12.8893289"><ele>345.0</ele><time>2026-04-26T09:48:10.959Z</time></trkpt><trkpt lat="42.7974113" lon="12.8894911"><ele>345.0</ele><time>2026-04-26T09:48:11.959Z</time></trkpt><trkpt lat="42.7976104" lon="12.8896607"><ele>350.0</ele><time>2026-04-26T09:48:12.959Z</time></trkpt><trkpt lat="42.7977871" lon="12.8898282"><ele>355.0</ele><time>2026-04-26T09:48:13.959Z</time></trkpt><trkpt lat="42.7979377" lon="12.8899978"><ele>360.0</ele><time>2026-04-26T09:48:14.959Z</time></trkpt><trkpt lat="42.7980671" lon="12.8901757"><ele>361.3333333333333</ele><time>2026-04-26T09:48:15.959Z</time></trkpt><trkpt lat="42.7981749" lon="12.8903597"><ele>362.66666666666663</ele><time>2026-04-26T09:48:16.96Z</time></trkpt><trkpt lat="42.7982654" lon="12.8905557"><ele>364.0</ele><time>2026-04-26T09:48:17.96Z</time></trkpt><trkpt lat="42.7983423" lon="12.8907358"><ele>364.0</ele><time>2026-04-26T09:48:18.96Z</time></trkpt><trkpt lat="42.7984037" lon="12.890911"><ele>364.0</ele><time>2026-04-26T09:48:19.959Z</time></trkpt><trkpt lat="42.7984556" lon="12.8910893"><ele>364.0</ele><time>2026-04-26T09:48:20.96Z</time></trkpt><trkpt lat="42.7985092" lon="12.89129"><ele>364.0</ele><time>2026-04-26T09:48:21.96Z</time></trkpt><trkpt lat="42.798579" lon="12.8915205"><ele>372.3333333333333</ele><time>2026-04-26T09:48:22.959Z</time></trkpt><trkpt lat="42.7986389" lon="12.8917796"><ele>380.66666666666663</ele><time>2026-04-26T09:48:23.959Z</time></trkpt><trkpt lat="42.7986895" lon="12.8920398"><ele>389.0</ele><time>2026-04-26T09:48:24.959Z</time></trkpt><trkpt lat="42.7987328" lon="12.8923373"><ele>387.0</ele><time>2026-04-26T09:48:25.959Z</time></trkpt><trkpt lat="42.7987559" lon="12.8926758"><ele>385.0</ele><time>2026-04-26T09:48:26.96Z</time></trkpt><trkpt lat="42.7987554" lon="12.8930606"><ele>381.5</ele><time>2026-04-26T09:48:27.959Z</time></trkpt><trkpt lat="42.7987611" lon="12.8934384"><ele>378.0</ele><time>2026-04-26T09:48:28.959Z</time></trkpt><trkpt lat="42.798767" lon="12.8937879"><ele>378.0</ele><time>2026-04-26T09:48:29.96Z</time></trkpt><trkpt lat="42.7987739" lon="12.8941056"><ele>378.0</ele><time>2026-04-26T09:48:30.959Z</time></trkpt><trkpt lat="42.798794" lon="12.8943849"><ele>378.0</ele><time>2026-04-26T09:48:31.959Z</time></trkpt><trkpt lat="42.7988495" lon="12.8946499"><ele>371.6666666666667</ele><time>2026-04-26T09:48:32.959Z</time></trkpt><trkpt lat="42.7989482" lon="12.8949109"><ele>365.33333333333337</ele><time>2026-04-26T09:48:33.959Z</time></trkpt><trkpt lat="42.7990847" lon="12.8951641"><ele>359.0</ele><time>2026-04-26T09:48:34.959Z</time></trkpt><trkpt lat="42.7992321" lon="12.8953963"><ele>358.0</ele><time>2026-04-26T09:48:35.959Z</time></trkpt><trkpt lat="42.7993813" lon="12.8956217"><ele>357.0</ele><time>2026-04-26T09:48:36.959Z</time></trkpt><trkpt lat="42.7995421" lon="12.8958267"><ele>356.0</ele><time>2026-04-26T09:48:37.959Z</time></trkpt><trkpt lat="42.7997365" lon="12.8960029"><ele>352.0</ele><time>2026-04-26T09:48:38.96Z</time></trkpt><trkpt lat="42.799945" lon="12.8961421"><ele>348.0</ele><time>2026-04-26T09:48:39.96Z</time></trkpt><trkpt lat="42.8001829" lon="12.8962422"><ele>346.5</ele><time>2026-04-26T09:48:40.96Z</time></trkpt><trkpt lat="42.800436" lon="12.8962922"><ele>345.0</ele><time>2026-04-26T09:48:41.96Z</time></trkpt><trkpt lat="42.8007002" lon="12.8963192"><ele>345.0</ele><time>2026-04-26T09:48:42.959Z</time></trkpt><trkpt lat="42.8009551" lon="12.896343"><ele>345.0</ele><time>2026-04-26T09:48:43.959Z</time></trkpt><trkpt lat="42.8012111" lon="12.8963589"><ele>345.5</ele><time>2026-04-26T09:48:44.959Z</time></trkpt><trkpt lat="42.8014514" lon="12.8963398"><ele>346.0</ele><time>2026-04-26T09:48:45.96Z</time></trkpt><trkpt lat="42.8016778" lon="12.8962909"><ele>348.0</ele><time>2026-04-26T09:48:46.96Z</time></trkpt><trkpt lat="42.8018907" lon="12.896232"><ele>350.0</ele><time>2026-04-26T09:48:47.959Z</time></trkpt><trkpt lat="42.8021012" lon="12.8961771"><ele>352.0</ele><time>2026-04-26T09:48:48.959Z</time></trkpt><trkpt lat="42.8022797" lon="12.896164"><ele>352.0</ele><time>2026-04-26T09:48:49.959Z</time></trkpt><trkpt lat="42.8024576" lon="12.8962001"><ele>352.0</ele><time>2026-04-26T09:48:50.959Z</time></trkpt><trkpt lat="42.8026268" lon="12.8963005"><ele>352.0</ele><time>2026-04-26T09:48:51.959Z</time></trkpt><trkpt lat="42.8027869" lon="12.8964556"><ele>352.0</ele><time>2026-04-26T09:48:52.959Z</time></trkpt><trkpt lat="42.8029364" lon="12.8966701"><ele>352.0</ele><time>2026-04-26T09:48:53.959Z</time></trkpt><trkpt lat="42.8030748" lon="12.8969301"><ele>352.0</ele><time>2026-04-26T09:48:54.959Z</time></trkpt><trkpt lat="42.8032199" lon="12.8972046"><ele>352.0</ele><time>2026-04-26T09:48:55.959Z</time></trkpt><trkpt lat="42.8033629" lon="12.8974502"><ele>351.3333333333333</ele><time>2026-04-26T09:48:56.959Z</time></trkpt><trkpt lat="42.8034819" lon="12.8976642"><ele>350.6666666666667</ele><time>2026-04-26T09:48:57.96Z</time></trkpt><trkpt lat="42.8036177" lon="12.8978414"><ele>350.0</ele><time>2026-04-26T09:48:58.959Z</time></trkpt><trkpt lat="42.8037814" lon="12.897949"><ele>350.0</ele><time>2026-04-26T09:48:59.959Z</time></trkpt><trkpt lat="42.8039777" lon="12.8980085"><ele>350.0</ele><time>2026-04-26T09:49:00.959Z</time></trkpt><trkpt lat="42.8041947" lon="12.898006"><ele>350.0</ele><time>2026-04-26T09:49:01.959Z</time></trkpt><trkpt lat="42.8044288" lon="12.8979661"><ele>351.0</ele><time>2026-04-26T09:49:02.959Z</time></trkpt><trkpt lat="42.8046807" lon="12.8979279"><ele>352.0</ele><time>2026-04-26T09:49:03.958Z</time></trkpt><trkpt lat="42.804953" lon="12.8979189"><ele>350.0</ele><time>2026-04-26T09:49:04.958Z</time></trkpt><trkpt lat="42.8052316" lon="12.8979276"><ele>348.0</ele><time>2026-04-26T09:49:05.958Z</time></trkpt><trkpt lat="42.8055009" lon="12.8979133"><ele>348.0</ele><time>2026-04-26T09:49:06.958Z</time></trkpt><trkpt lat="42.805763" lon="12.8978763"><ele>348.0</ele><time>2026-04-26T09:49:07.959Z</time></trkpt><trkpt lat="42.8060149" lon="12.8978742"><ele>349.5</ele><time>2026-04-26T09:49:08.958Z</time></trkpt><trkpt lat="42.8062769" lon="12.8979273"><ele>351.0</ele><time>2026-04-26T09:49:09.959Z</time></trkpt><trkpt lat="42.8065569" lon="12.8979963"><ele>352.5</ele><time>2026-04-26T09:49:10.958Z</time></trkpt><trkpt lat="42.8068535" lon="12.8980738"><ele>354.0</ele><time>2026-04-26T09:49:11.958Z</time></trkpt><trkpt lat="42.8071601" lon="12.8981496"><ele>354.0</ele><time>2026-04-26T09:49:12.958Z</time></trkpt><trkpt lat="42.8074485" lon="12.8982179"><ele>354.0</ele><time>2026-04-26T09:49:13.959Z</time></trkpt><trkpt lat="42.807717" lon="12.8982877"><ele>354.5</ele><time>2026-04-26T09:49:14.958Z</time></trkpt><trkpt lat="42.8079641" lon="12.8983615"><ele>355.0</ele><time>2026-04-26T09:49:15.958Z</time></trkpt><trkpt lat="42.8081931" lon="12.8984445"><ele>355.0</ele><time>2026-04-26T09:49:16.959Z</time></trkpt><trkpt lat="42.8084013" lon="12.8985488"><ele>355.0</ele><time>2026-04-26T09:49:17.958Z</time></trkpt><trkpt lat="42.8085977" lon="12.8986959"><ele>355.0</ele><time>2026-04-26T09:49:18.959Z</time></trkpt><trkpt lat="42.8087805" lon="12.8988759"><ele>356.3333333333333</ele><time>2026-04-26T09:49:19.958Z</time></trkpt><trkpt lat="42.8089398" lon="12.8990871"><ele>357.6666666666667</ele><time>2026-04-26T09:49:20.958Z</time></trkpt><trkpt lat="42.8090583" lon="12.8993248"><ele>359.0</ele><time>2026-04-26T09:49:21.958Z</time></trkpt><trkpt lat="42.8091461" lon="12.8995862"><ele>359.0</ele><time>2026-04-26T09:49:22.958Z</time></trkpt><trkpt lat="42.809196" lon="12.8998691"><ele>359.0</ele><time>2026-04-26T09:49:23.959Z</time></trkpt><trkpt lat="42.8091975" lon="12.9001509"><ele>359.0</ele><time>2026-04-26T09:49:24.958Z</time></trkpt><trkpt lat="42.8091579" lon="12.9004261"><ele>362.0</ele><time>2026-04-26T09:49:25.958Z</time></trkpt><trkpt lat="42.8090863" lon="12.9007044"><ele>365.0</ele><time>2026-04-26T09:49:26.958Z</time></trkpt><trkpt lat="42.8089886" lon="12.9009771"><ele>368.0</ele><time>2026-04-26T09:49:27.959Z</time></trkpt><trkpt lat="42.8088971" lon="12.9012517"><ele>371.33333333333337</ele><time>2026-04-26T09:49:28.958Z</time></trkpt><trkpt lat="42.8088336" lon="12.9015337"><ele>374.6666666666667</ele><time>2026-04-26T09:49:29.958Z</time></trkpt><trkpt lat="42.8088001" lon="12.9018282"><ele>378.0</ele><time>2026-04-26T09:49:30.958Z</time></trkpt><trkpt lat="42.8088058" lon="12.9021501"><ele>378.0</ele><time>2026-04-26T09:49:31.959Z</time></trkpt><trkpt lat="42.8088509" lon="12.902494"><ele>378.0</ele><time>2026-04-26T09:49:32.958Z</time></trkpt><trkpt lat="42.8089102" lon="12.9028233"><ele>375.5</ele><time>2026-04-26T09:49:33.958Z</time></trkpt><trkpt lat="42.808955" lon="12.9031384"><ele>373.0</ele><time>2026-04-26T09:49:34.958Z</time></trkpt><trkpt lat="42.8089722" lon="12.9034313"><ele>373.0</ele><time>2026-04-26T09:49:35.958Z</time></trkpt><trkpt lat="42.8089749" lon="12.9037108"><ele>373.0</ele><time>2026-04-26T09:49:36.958Z</time></trkpt><trkpt lat="42.8089578" lon="12.9039888"><ele>373.0</ele><time>2026-04-26T09:49:37.959Z</time></trkpt><trkpt lat="42.8089311" lon="12.9042589"><ele>373.0</ele><time>2026-04-26T09:49:38.958Z</time></trkpt><trkpt lat="42.8088941" lon="12.9045312"><ele>373.0</ele><time>2026-04-26T09:49:39.958Z</time></trkpt><trkpt lat="42.8088608" lon="12.9048021"><ele>373.0</ele><time>2026-04-26T09:49:40.958Z</time></trkpt><trkpt lat="42.8088621" lon="12.9050773"><ele>371.0</ele><time>2026-04-26T09:49:41.959Z</time></trkpt><trkpt lat="42.8088994" lon="12.9053488"><ele>369.0</ele><time>2026-04-26T09:49:42.958Z</time></trkpt><trkpt lat="42.8089797" lon="12.9056156"><ele>367.0</ele><time>2026-04-26T09:49:43.959Z</time></trkpt><trkpt lat="42.80909" lon="12.9058706"><ele>362.0</ele><time>2026-04-26T09:49:44.958Z</time></trkpt><trkpt lat="42.8092299" lon="12.9061175"><ele>357.0</ele><time>2026-04-26T09:49:45.958Z</time></trkpt><trkpt lat="42.8093715" lon="12.9063732"><ele>368.0</ele><time>2026-04-26T09:49:46.959Z</time></trkpt><trkpt lat="42.8094776" lon="12.9066613"><ele>379.0</ele><time>2026-04-26T09:49:47.958Z</time></trkpt><trkpt lat="42.8095706" lon="12.9069615"><ele>379.0</ele><time>2026-04-26T09:49:48.958Z</time></trkpt><trkpt lat="42.8096296" lon="12.9072831"><ele>379.0</ele><time>2026-04-26T09:49:49.958Z</time></trkpt><trkpt lat="42.8096735" lon="12.9076117"><ele>375.5</ele><time>2026-04-26T09:49:50.958Z</time></trkpt><trkpt lat="42.809718" lon="12.9079501"><ele>372.0</ele><time>2026-04-26T09:49:51.959Z</time></trkpt><trkpt lat="42.8097598" lon="12.9082649"><ele>369.3333333333333</ele><time>2026-04-26T09:49:52.958Z</time></trkpt><trkpt lat="42.8098014" lon="12.9085507"><ele>366.66666666666663</ele><time>2026-04-26T09:49:53.959Z</time></trkpt><trkpt lat="42.8098557" lon="12.9088151"><ele>364.0</ele><time>2026-04-26T09:49:54.958Z</time></trkpt><trkpt lat="42.8099489" lon="12.9090565"><ele>361.0</ele><time>2026-04-26T09:49:55.959Z</time></trkpt><trkpt lat="42.81008" lon="12.9092605"><ele>358.0</ele><time>2026-04-26T09:49:56.958Z</time></trkpt><trkpt lat="42.8102267" lon="12.9094354"><ele>355.0</ele><time>2026-04-26T09:49:57.958Z</time></trkpt><trkpt lat="42.8103536" lon="12.9096141"><ele>363.3333333333333</ele><time>2026-04-26T09:49:58.958Z</time></trkpt><trkpt lat="42.8104433" lon="12.909805"><ele>371.6666666666667</ele><time>2026-04-26T09:49:59.958Z</time></trkpt><trkpt lat="42.8104979" lon="12.9100246"><ele>380.0</ele><time>2026-04-26T09:50:00.959Z</time></trkpt><trkpt lat="42.8105135" lon="12.9102705"><ele>380.0</ele><time>2026-04-26T09:50:01.958Z</time></trkpt><trkpt lat="42.8104806" lon="12.9105121"><ele>380.0</ele><time>2026-04-26T09:50:02.958Z</time></trkpt><trkpt lat="42.8104337" lon="12.9107484"><ele>380.0</ele><time>2026-04-26T09:50:03.958Z</time></trkpt><trkpt lat="42.8103895" lon="12.9109864"><ele>379.0</ele><time>2026-04-26T09:50:04.959Z</time></trkpt><trkpt lat="42.8103749" lon="12.9112367"><ele>378.0</ele><time>2026-04-26T09:50:05.959Z</time></trkpt><trkpt lat="42.8103742" lon="12.9114917"><ele>377.0</ele><time>2026-04-26T09:50:06.958Z</time></trkpt><trkpt lat="42.8103759" lon="12.9117404"><ele>373.0</ele><time>2026-04-26T09:50:07.959Z</time></trkpt><trkpt lat="42.8104042" lon="12.9119519"><ele>369.0</ele><time>2026-04-26T09:50:08.959Z</time></trkpt><trkpt lat="42.8104671" lon="12.9121416"><ele>365.0</ele><time>2026-04-26T09:50:09.958Z</time></trkpt><trkpt lat="42.8105822" lon="12.9122837"><ele>365.0</ele><time>2026-04-26T09:50:10.958Z</time></trkpt><trkpt lat="42.8107293" lon="12.9123692"><ele>365.0</ele><time>2026-04-26T09:50:11.958Z</time></trkpt><trkpt lat="42.8108941" lon="12.9124576"><ele>365.0</ele><time>2026-04-26T09:50:12.959Z</time></trkpt><trkpt lat="42.8110563" lon="12.9125827"><ele>365.33333333333337</ele><time>2026-04-26T09:50:13.958Z</time></trkpt><trkpt lat="42.8112226" lon="12.9127398"><ele>365.6666666666667</ele><time>2026-04-26T09:50:14.958Z</time></trkpt><trkpt lat="42.8113688" lon="12.9129163"><ele>366.0</ele><time>2026-04-26T09:50:15.958Z</time></trkpt><trkpt lat="42.8115069" lon="12.9131076"><ele>366.0</ele><time>2026-04-26T09:50:16.958Z</time></trkpt><trkpt lat="42.8116496" lon="12.9132822"><ele>366.0</ele><time>2026-04-26T09:50:17.958Z</time></trkpt><trkpt lat="42.8117983" lon="12.9134283"><ele>366.0</ele><time>2026-04-26T09:50:18.967Z</time></trkpt><trkpt lat="42.811956" lon="12.9135267"><ele>363.3333333333333</ele><time>2026-04-26T09:50:19.967Z</time></trkpt><trkpt lat="42.8121187" lon="12.9135827"><ele>360.66666666666663</ele><time>2026-04-26T09:50:20.966Z</time></trkpt><trkpt lat="42.8122743" lon="12.9136421"><ele>358.0</ele><time>2026-04-26T09:50:21.966Z</time></trkpt><trkpt lat="42.8124195" lon="12.9136988"><ele>358.0</ele><time>2026-04-26T09:50:22.966Z</time></trkpt><trkpt lat="42.8125213" lon="12.9137482"><ele>358.0</ele><time>2026-04-26T09:50:23.967Z</time></trkpt><trkpt lat="42.8125872" lon="12.9137861"><ele>358.0</ele><time>2026-04-26T09:50:24.966Z</time></trkpt><trkpt lat="42.8126633" lon="12.9138097"><ele>358.0</ele><time>2026-04-26T09:50:25.966Z</time></trkpt><trkpt lat="42.8127421" lon="12.9138367"><ele>358.0</ele><time>2026-04-26T09:50:26.966Z</time></trkpt><trkpt lat="42.8128297" lon="12.9138586"><ele>358.0</ele><time>2026-04-26T09:50:27.967Z</time></trkpt><trkpt lat="42.8129246" lon="12.9138986"><ele>359.79999999999995</ele><time>2026-04-26T09:50:28.966Z</time></trkpt><trkpt lat="42.8130191" lon="12.9139385"><ele>361.6</ele><time>2026-04-26T09:50:29.966Z</time></trkpt><trkpt lat="42.8131176" lon="12.9139716"><ele>363.4</ele><time>2026-04-26T09:50:30.967Z</time></trkpt><trkpt lat="42.8132136" lon="12.9140111"><ele>365.20000000000005</ele><time>2026-04-26T09:50:31.966Z</time></trkpt><trkpt lat="42.8133091" lon="12.9140565"><ele>367.0</ele><time>2026-04-26T09:50:32.966Z</time></trkpt><trkpt lat="42.8134112" lon="12.9140931"><ele>367.40000000000003</ele><time>2026-04-26T09:50:33.967Z</time></trkpt><trkpt lat="42.8135055" lon="12.9141342"><ele>367.8</ele><time>2026-04-26T09:50:34.967Z</time></trkpt><trkpt lat="42.8136031" lon="12.9141778"><ele>368.2</ele><time>2026-04-26T09:50:35.967Z</time></trkpt><trkpt lat="42.8137031" lon="12.9142314"><ele>368.6</ele><time>2026-04-26T09:50:36.966Z</time></trkpt><trkpt lat="42.8137952" lon="12.9142802"><ele>369.0</ele><time>2026-04-26T09:50:37.966Z</time></trkpt><trkpt lat="42.8138839" lon="12.9143324"><ele>366.6</ele><time>2026-04-26T09:50:38.967Z</time></trkpt><trkpt lat="42.8139646" lon="12.9143828"><ele>364.2</ele><time>2026-04-26T09:50:39.966Z</time></trkpt><trkpt lat="42.8140346" lon="12.9144404"><ele>361.8</ele><time>2026-04-26T09:50:40.967Z</time></trkpt><trkpt lat="42.8141068" lon="12.9144944"><ele>359.40000000000003</ele><time>2026-04-26T09:50:41.966Z</time></trkpt><trkpt lat="42.8141666" lon="12.9145487"><ele>357.0</ele><time>2026-04-26T09:50:42.966Z</time></trkpt><trkpt lat="42.8142718" lon="12.9146405"><ele>357.6</ele><time>2026-04-26T09:50:44.966Z</time></trkpt><trkpt lat="42.8143392" lon="12.9147032"><ele>358.20000000000005</ele><time>2026-04-26T09:50:46.966Z</time></trkpt><trkpt lat="42.814412" lon="12.9147625"><ele>358.8</ele><time>2026-04-26T09:50:48.967Z</time></trkpt><trkpt lat="42.8144927" lon="12.9148298"><ele>359.4</ele><time>2026-04-26T09:50:50.967Z</time></trkpt><trkpt lat="42.814578" lon="12.9149208"><ele>360.0</ele><time>2026-04-26T09:50:52.966Z</time></trkpt><trkpt lat="42.8146728" lon="12.9150253"><ele>360.0</ele><time>2026-04-26T09:50:54.966Z</time></trkpt><trkpt lat="42.8147233" lon="12.9150863"><ele>360.0</ele><time>2026-04-26T09:50:55.966Z</time></trkpt><trkpt lat="42.8147742" lon="12.915145"><ele>360.0</ele><time>2026-04-26T09:50:56.966Z</time></trkpt><trkpt lat="42.8148255" lon="12.9152019"><ele>360.0</ele><time>2026-04-26T09:50:57.967Z</time></trkpt><trkpt lat="42.8148779" lon="12.9152708"><ele>360.0</ele><time>2026-04-26T09:50:58.966Z</time></trkpt><trkpt lat="42.8149284" lon="12.9153301"><ele>360.0</ele><time>2026-04-26T09:50:59.966Z</time></trkpt><trkpt lat="42.8149851" lon="12.9153962"><ele>360.0</ele><time>2026-04-26T09:51:00.966Z</time></trkpt><trkpt lat="42.815038" lon="12.9154588"><ele>360.0</ele><time>2026-04-26T09:51:01.966Z</time></trkpt><trkpt lat="42.8150951" lon="12.9155163"><ele>360.0</ele><time>2026-04-26T09:51:02.966Z</time></trkpt><trkpt lat="42.815155" lon="12.9155754"><ele>360.0</ele><time>2026-04-26T09:51:03.966Z</time></trkpt><trkpt lat="42.8152208" lon="12.9156251"><ele>360.0</ele><time>2026-04-26T09:51:04.967Z</time></trkpt><trkpt lat="42.8152965" lon="12.915672"><ele>360.0</ele><time>2026-04-26T09:51:05.966Z</time></trkpt><trkpt lat="42.815379" lon="12.9157126"><ele>360.0</ele><time>2026-04-26T09:51:06.966Z</time></trkpt><trkpt lat="42.8154639" lon="12.9157473"><ele>360.2</ele><time>2026-04-26T09:51:07.966Z</time></trkpt><trkpt lat="42.8155538" lon="12.9157772"><ele>360.4</ele><time>2026-04-26T09:51:08.966Z</time></trkpt><trkpt lat="42.8156537" lon="12.9158109"><ele>360.6</ele><time>2026-04-26T09:51:09.967Z</time></trkpt><trkpt lat="42.8157508" lon="12.9158515"><ele>360.8</ele><time>2026-04-26T09:51:10.966Z</time></trkpt><trkpt lat="42.8158492" lon="12.9159025"><ele>361.0</ele><time>2026-04-26T09:51:11.966Z</time></trkpt><trkpt lat="42.8159621" lon="12.9159548"><ele>362.0</ele><time>2026-04-26T09:51:12.967Z</time></trkpt><trkpt lat="42.8160762" lon="12.9160147"><ele>363.0</ele><time>2026-04-26T09:51:13.966Z</time></trkpt><trkpt lat="42.8161832" lon="12.9160883"><ele>364.0</ele><time>2026-04-26T09:51:14.966Z</time></trkpt><trkpt lat="42.8162834" lon="12.916171"><ele>365.0</ele><time>2026-04-26T09:51:15.967Z</time></trkpt><trkpt lat="42.8163773" lon="12.916275"><ele>365.0</ele><time>2026-04-26T09:51:16.966Z</time></trkpt><trkpt lat="42.8164618" lon="12.9163748"><ele>365.0</ele><time>2026-04-26T09:51:17.966Z</time></trkpt><trkpt lat="42.816535" lon="12.9164721"><ele>365.0</ele><time>2026-04-26T09:51:18.966Z</time></trkpt><trkpt lat="42.8166002" lon="12.9165741"><ele>365.0</ele><time>2026-04-26T09:51:19.966Z</time></trkpt><trkpt lat="42.8166483" lon="12.9166784"><ele>365.0</ele><time>2026-04-26T09:51:20.967Z</time></trkpt><trkpt lat="42.8166933" lon="12.9167839"><ele>364.33333333333337</ele><time>2026-04-26T09:51:21.966Z</time></trkpt><trkpt lat="42.8167258" lon="12.9168796"><ele>363.6666666666667</ele><time>2026-04-26T09:51:22.967Z</time></trkpt><trkpt lat="42.8167517" lon="12.9169609"><ele>363.0</ele><time>2026-04-26T09:51:23.966Z</time></trkpt><trkpt lat="42.8167751" lon="12.9170448"><ele>362.3333333333333</ele><time>2026-04-26T09:51:24.966Z</time></trkpt><trkpt lat="42.816798" lon="12.9171472"><ele>361.66666666666663</ele><time>2026-04-26T09:51:25.966Z</time></trkpt><trkpt lat="42.8168278" lon="12.9172526"><ele>361.0</ele><time>2026-04-26T09:51:26.966Z</time></trkpt><trkpt lat="42.8168606" lon="12.9173739"><ele>366.8</ele><time>2026-04-26T09:51:27.966Z</time></trkpt><trkpt lat="42.8168946" lon="12.9175013"><ele>372.6</ele><time>2026-04-26T09:51:28.966Z</time></trkpt><trkpt lat="42.8169321" lon="12.9176365"><ele>378.4</ele><time>2026-04-26T09:51:29.966Z</time></trkpt><trkpt lat="42.8169678" lon="12.9177815"><ele>384.2</ele><time>2026-04-26T09:51:30.966Z</time></trkpt><trkpt lat="42.8170016" lon="12.9179303"><ele>390.0</ele><time>2026-04-26T09:51:31.966Z</time></trkpt><trkpt lat="42.8170394" lon="12.9180867"><ele>390.0</ele><time>2026-04-26T09:51:32.966Z</time></trkpt><trkpt lat="42.8170739" lon="12.918252"><ele>390.0</ele><time>2026-04-26T09:51:33.967Z</time></trkpt><trkpt lat="42.817102" lon="12.9184205"><ele>390.0</ele><time>2026-04-26T09:51:34.966Z</time></trkpt><trkpt lat="42.8171098" lon="12.9186044"><ele>390.0</ele><time>2026-04-26T09:51:35.966Z</time></trkpt><trkpt lat="42.8171041" lon="12.9188044"><ele>386.75</ele><time>2026-04-26T09:51:36.966Z</time></trkpt><trkpt lat="42.8170942" lon="12.9190008"><ele>383.5</ele><time>2026-04-26T09:51:37.966Z</time></trkpt><trkpt lat="42.8170919" lon="12.9191877"><ele>380.25</ele><time>2026-04-26T09:51:38.966Z</time></trkpt><trkpt lat="42.8171196" lon="12.9193612"><ele>377.0</ele><time>2026-04-26T09:51:39.966Z</time></trkpt><trkpt lat="42.8171801" lon="12.9195307"><ele>371.0</ele><time>2026-04-26T09:51:40.966Z</time></trkpt><trkpt lat="42.817283" lon="12.919671"><ele>365.0</ele><time>2026-04-26T09:51:41.967Z</time></trkpt><trkpt lat="42.8174224" lon="12.9197502"><ele>359.0</ele><time>2026-04-26T09:51:42.966Z</time></trkpt><trkpt lat="42.8175754" lon="12.9197673"><ele>358.6666666666667</ele><time>2026-04-26T09:51:43.966Z</time></trkpt><trkpt lat="42.8177288" lon="12.9197389"><ele>358.3333333333333</ele><time>2026-04-26T09:51:44.966Z</time></trkpt><trkpt lat="42.8178748" lon="12.9196907"><ele>358.0</ele><time>2026-04-26T09:51:45.966Z</time></trkpt><trkpt lat="42.8180272" lon="12.9196557"><ele>358.0</ele><time>2026-04-26T09:51:46.966Z</time></trkpt><trkpt lat="42.8181862" lon="12.9196257"><ele>358.0</ele><time>2026-04-26T09:51:47.966Z</time></trkpt><trkpt lat="42.8183473" lon="12.9196022"><ele>358.0</ele><time>2026-04-26T09:51:48.966Z</time></trkpt><trkpt lat="42.8185114" lon="12.9195975"><ele>363.3333333333333</ele><time>2026-04-26T09:51:49.966Z</time></trkpt><trkpt lat="42.8186805" lon="12.919614"><ele>368.6666666666667</ele><time>2026-04-26T09:51:50.967Z</time></trkpt><trkpt lat="42.8188537" lon="12.919646"><ele>374.0</ele><time>2026-04-26T09:51:51.966Z</time></trkpt><trkpt lat="42.8190185" lon="12.9196919"><ele>374.0</ele><time>2026-04-26T09:51:52.966Z</time></trkpt><trkpt lat="42.8191668" lon="12.919744"><ele>374.0</ele><time>2026-04-26T09:51:53.966Z</time></trkpt><trkpt lat="42.8192971" lon="12.9198251"><ele>374.0</ele><time>2026-04-26T09:51:54.966Z</time></trkpt><trkpt lat="42.8194015" lon="12.9199419"><ele>374.0</ele><time>2026-04-26T09:51:55.966Z</time></trkpt><trkpt lat="42.8194871" lon="12.9200965"><ele>382.6666666666667</ele><time>2026-04-26T09:51:56.966Z</time></trkpt><trkpt lat="42.8195416" lon="12.9202928"><ele>391.33333333333337</ele><time>2026-04-26T09:51:57.966Z</time></trkpt><trkpt lat="42.8195729" lon="12.9205255"><ele>400.0</ele><time>2026-04-26T09:51:58.966Z</time></trkpt><trkpt lat="42.8196067" lon="12.92076"><ele>403.6666666666667</ele><time>2026-04-26T09:51:59.966Z</time></trkpt><trkpt lat="42.8196154" lon="12.9209824"><ele>407.33333333333337</ele><time>2026-04-26T09:52:00.966Z</time></trkpt><trkpt lat="42.8195921" lon="12.9212088"><ele>411.0</ele><time>2026-04-26T09:52:01.965Z</time></trkpt><trkpt lat="42.8195328" lon="12.9214121"><ele>411.0</ele><time>2026-04-26T09:52:02.965Z</time></trkpt><trkpt lat="42.819444" lon="12.9216392"><ele>411.0</ele><time>2026-04-26T09:52:03.965Z</time></trkpt><trkpt lat="42.8193375" lon="12.9218605"><ele>411.0</ele><time>2026-04-26T09:52:04.965Z</time></trkpt><trkpt lat="42.8192342" lon="12.9220645"><ele>398.6666666666667</ele><time>2026-04-26T09:52:05.965Z</time></trkpt><trkpt lat="42.8191375" lon="12.9222437"><ele>386.33333333333337</ele><time>2026-04-26T09:52:06.966Z</time></trkpt><trkpt lat="42.8190636" lon="12.9224356"><ele>374.0</ele><time>2026-04-26T09:52:07.965Z</time></trkpt><trkpt lat="42.8190378" lon="12.9226409"><ele>372.0</ele><time>2026-04-26T09:52:08.965Z</time></trkpt><trkpt lat="42.8190632" lon="12.9228473"><ele>370.0</ele><time>2026-04-26T09:52:09.965Z</time></trkpt><trkpt lat="42.8191378" lon="12.9230212"><ele>368.0</ele><time>2026-04-26T09:52:10.965Z</time></trkpt><trkpt lat="42.8192674" lon="12.9231586"><ele>373.6666666666667</ele><time>2026-04-26T09:52:11.965Z</time></trkpt><trkpt lat="42.8194278" lon="12.9232877"><ele>379.33333333333337</ele><time>2026-04-26T09:52:12.965Z</time></trkpt><trkpt lat="42.8195834" lon="12.9234322"><ele>385.0</ele><time>2026-04-26T09:52:13.965Z</time></trkpt><trkpt lat="42.8197056" lon="12.9235972"><ele>385.0</ele><time>2026-04-26T09:52:14.965Z</time></trkpt><trkpt lat="42.819805" lon="12.9237822"><ele>385.0</ele><time>2026-04-26T09:52:15.965Z</time></trkpt><trkpt lat="42.8198919" lon="12.9239896"><ele>385.0</ele><time>2026-04-26T09:52:16.965Z</time></trkpt><trkpt lat="42.8199818" lon="12.9242241"><ele>381.0</ele><time>2026-04-26T09:52:17.965Z</time></trkpt><trkpt lat="42.8200756" lon="12.9244903"><ele>377.0</ele><time>2026-04-26T09:52:18.966Z</time></trkpt><trkpt lat="42.8201824" lon="12.9247715"><ele>373.0</ele><time>2026-04-26T09:52:19.965Z</time></trkpt><trkpt lat="42.8202883" lon="12.9250703"><ele>385.3333333333333</ele><time>2026-04-26T09:52:20.966Z</time></trkpt><trkpt lat="42.8203849" lon="12.925356"><ele>397.66666666666663</ele><time>2026-04-26T09:52:21.965Z</time></trkpt><trkpt lat="42.8204793" lon="12.9256228"><ele>410.0</ele><time>2026-04-26T09:52:22.965Z</time></trkpt><trkpt lat="42.8205524" lon="12.9258902"><ele>406.3333333333333</ele><time>2026-04-26T09:52:23.965Z</time></trkpt><trkpt lat="42.8205976" lon="12.9261654"><ele>402.66666666666663</ele><time>2026-04-26T09:52:24.966Z</time></trkpt><trkpt lat="42.8206201" lon="12.9264451"><ele>399.0</ele><time>2026-04-26T09:52:25.965Z</time></trkpt><trkpt lat="42.8206311" lon="12.9267144"><ele>394.0</ele><time>2026-04-26T09:52:26.965Z</time></trkpt><trkpt lat="42.820682" lon="12.9269745"><ele>389.0</ele><time>2026-04-26T09:52:27.965Z</time></trkpt><trkpt lat="42.8207748" lon="12.9272237"><ele>384.0</ele><time>2026-04-26T09:52:28.965Z</time></trkpt><trkpt lat="42.8208885" lon="12.9274388"><ele>389.0</ele><time>2026-04-26T09:52:29.965Z</time></trkpt><trkpt lat="42.8210042" lon="12.9276502"><ele>394.0</ele><time>2026-04-26T09:52:30.965Z</time></trkpt><trkpt lat="42.8210946" lon="12.9278788"><ele>399.0</ele><time>2026-04-26T09:52:31.965Z</time></trkpt><trkpt lat="42.8211617" lon="12.9281118"><ele>399.0</ele><time>2026-04-26T09:52:32.966Z</time></trkpt><trkpt lat="42.8211904" lon="12.9283731"><ele>399.0</ele><time>2026-04-26T09:52:33.966Z</time></trkpt><trkpt lat="42.8212093" lon="12.928639"><ele>399.0</ele><time>2026-04-26T09:52:34.966Z</time></trkpt><trkpt lat="42.8212193" lon="12.9289167"><ele>399.0</ele><time>2026-04-26T09:52:35.966Z</time></trkpt><trkpt lat="42.8212377" lon="12.929182"><ele>399.0</ele><time>2026-04-26T09:52:36.965Z</time></trkpt><trkpt lat="42.8212532" lon="12.9294481"><ele>399.0</ele><time>2026-04-26T09:52:37.966Z</time></trkpt><trkpt lat="42.8212711" lon="12.9297174"><ele>399.66666666666663</ele><time>2026-04-26T09:52:38.965Z</time></trkpt><trkpt lat="42.821289" lon="12.9299963"><ele>400.3333333333333</ele><time>2026-04-26T09:52:39.965Z</time></trkpt><trkpt lat="42.8213026" lon="12.9302693"><ele>401.0</ele><time>2026-04-26T09:52:40.965Z</time></trkpt><trkpt lat="42.8213162" lon="12.9305459"><ele>399.3333333333333</ele><time>2026-04-26T09:52:41.965Z</time></trkpt><trkpt lat="42.8213281" lon="12.9308121"><ele>397.66666666666663</ele><time>2026-04-26T09:52:42.965Z</time></trkpt><trkpt lat="42.8213368" lon="12.9310642"><ele>396.0</ele><time>2026-04-26T09:52:43.965Z</time></trkpt><trkpt lat="42.8213454" lon="12.9313074"><ele>393.33333333333337</ele><time>2026-04-26T09:52:44.965Z</time></trkpt><trkpt lat="42.8213456" lon="12.9315544"><ele>390.6666666666667</ele><time>2026-04-26T09:52:45.965Z</time></trkpt><trkpt lat="42.821327" lon="12.9318031"><ele>388.0</ele><time>2026-04-26T09:52:46.965Z</time></trkpt><trkpt lat="42.8212997" lon="12.9320626"><ele>383.33333333333337</ele><time>2026-04-26T09:52:47.965Z</time></trkpt><trkpt lat="42.8212641" lon="12.932333"><ele>378.6666666666667</ele><time>2026-04-26T09:52:48.965Z</time></trkpt><trkpt lat="42.8212167" lon="12.9325917"><ele>374.0</ele><time>2026-04-26T09:52:49.965Z</time></trkpt><trkpt lat="42.8211543" lon="12.9328508"><ele>372.33333333333337</ele><time>2026-04-26T09:52:50.965Z</time></trkpt><trkpt lat="42.8210829" lon="12.9331095"><ele>370.6666666666667</ele><time>2026-04-26T09:52:51.965Z</time></trkpt><trkpt lat="42.8210011" lon="12.9333602"><ele>369.0</ele><time>2026-04-26T09:52:52.965Z</time></trkpt><trkpt lat="42.8209094" lon="12.9336102"><ele>369.0</ele><time>2026-04-26T09:52:53.966Z</time></trkpt><trkpt lat="42.8208069" lon="12.9338513"><ele>369.0</ele><time>2026-04-26T09:52:54.965Z</time></trkpt><trkpt lat="42.8206946" lon="12.9340822"><ele>369.0</ele><time>2026-04-26T09:52:55.966Z</time></trkpt><trkpt lat="42.8205746" lon="12.9343051"><ele>376.33333333333337</ele><time>2026-04-26T09:52:56.966Z</time></trkpt><trkpt lat="42.8204466" lon="12.9345188"><ele>383.6666666666667</ele><time>2026-04-26T09:52:57.965Z</time></trkpt><trkpt lat="42.8203057" lon="12.9347165"><ele>391.0</ele><time>2026-04-26T09:52:58.965Z</time></trkpt><trkpt lat="42.820159" lon="12.9349054"><ele>404.33333333333337</ele><time>2026-04-26T09:52:59.965Z</time></trkpt><trkpt lat="42.8200087" lon="12.9350837"><ele>417.66666666666663</ele><time>2026-04-26T09:53:00.965Z</time></trkpt><trkpt lat="42.819856" lon="12.935259"><ele>431.0</ele><time>2026-04-26T09:53:01.965Z</time></trkpt><trkpt lat="42.8197068" lon="12.9354254"><ele>431.0</ele><time>2026-04-26T09:53:02.965Z</time></trkpt><trkpt lat="42.8195572" lon="12.935606"><ele>431.0</ele><time>2026-04-26T09:53:03.965Z</time></trkpt><trkpt lat="42.8111987" lon="12.9452119"><ele>428.5</ele><time>2026-04-26T09:53:47.965Z</time></trkpt><trkpt lat="42.810986" lon="12.9454989"><ele>426.0</ele><time>2026-04-26T09:53:48.966Z</time></trkpt><trkpt lat="42.8107941" lon="12.9457163"><ele>440.0</ele><time>2026-04-26T09:53:49.965Z</time></trkpt><trkpt lat="42.8105902" lon="12.9459472"><ele>454.0</ele><time>2026-04-26T09:53:50.965Z</time></trkpt><trkpt lat="42.8103885" lon="12.9461878"><ele>454.0</ele><time>2026-04-26T09:53:51.965Z</time></trkpt><trkpt lat="42.8101892" lon="12.9464166"><ele>454.0</ele><time>2026-04-26T09:53:52.965Z</time></trkpt><trkpt lat="42.8099906" lon="12.9466478"><ele>464.5</ele><time>2026-04-26T09:53:53.965Z</time></trkpt><trkpt lat="42.8097926" lon="12.9468892"><ele>475.0</ele><time>2026-04-26T09:53:54.966Z</time></trkpt><trkpt lat="42.8096031" lon="12.9471325"><ele>475.0</ele><time>2026-04-26T09:53:55.966Z</time></trkpt><trkpt lat="42.8094013" lon="12.9473141"><ele>475.0</ele><time>2026-04-26T09:53:56.966Z</time></trkpt><trkpt lat="42.8091924" lon="12.9474874"><ele>488.0</ele><time>2026-04-26T09:53:57.966Z</time></trkpt><trkpt lat="42.8089815" lon="12.947642"><ele>501.0</ele><time>2026-04-26T09:53:58.965Z</time></trkpt><trkpt lat="42.8087577" lon="12.9477888"><ele>501.0</ele><time>2026-04-26T09:53:59.965Z</time></trkpt><trkpt lat="42.8085171" lon="12.9479189"><ele>501.0</ele><time>2026-04-26T09:54:00.966Z</time></trkpt><trkpt lat="42.8082753" lon="12.9480407"><ele>479.5</ele><time>2026-04-26T09:54:01.966Z</time></trkpt><trkpt lat="42.808028" lon="12.9481737"><ele>458.0</ele><time>2026-04-26T09:54:02.966Z</time></trkpt><trkpt lat="42.8077836" lon="12.9483031"><ele>471.0</ele><time>2026-04-26T09:54:03.965Z</time></trkpt><trkpt lat="42.8075275" lon="12.9484372"><ele>484.0</ele><time>2026-04-26T09:54:04.965Z</time></trkpt><trkpt lat="42.8072685" lon="12.9485654"><ele>484.0</ele><time>2026-04-26T09:54:05.966Z</time></trkpt><trkpt lat="42.8070014" lon="12.948697"><ele>484.0</ele><time>2026-04-26T09:54:06.965Z</time></trkpt><trkpt lat="42.8067365" lon="12.9488323"><ele>469.5</ele><time>2026-04-26T09:54:07.965Z</time></trkpt><trkpt lat="42.8064736" lon="12.9489714"><ele>455.0</ele><time>2026-04-26T09:54:08.965Z</time></trkpt><trkpt lat="42.8062138" lon="12.949108"><ele>465.0</ele><time>2026-04-26T09:54:09.965Z</time></trkpt><trkpt lat="42.8059546" lon="12.9492538"><ele>475.0</ele><time>2026-04-26T09:54:10.965Z</time></trkpt><trkpt lat="42.8057164" lon="12.9493875"><ele>475.0</ele><time>2026-04-26T09:54:11.965Z</time></trkpt><trkpt lat="42.8054942" lon="12.949533"><ele>475.0</ele><time>2026-04-26T09:54:12.966Z</time></trkpt><trkpt lat="42.8052869" lon="12.9496734"><ele>466.33333333333337</ele><time>2026-04-26T09:54:13.965Z</time></trkpt><trkpt lat="42.805086" lon="12.9497846"><ele>457.66666666666663</ele><time>2026-04-26T09:54:14.965Z</time></trkpt><trkpt lat="42.8048906" lon="12.9498623"><ele>449.0</ele><time>2026-04-26T09:54:15.966Z</time></trkpt><trkpt lat="42.8046976" lon="12.9498951"><ele>449.0</ele><time>2026-04-26T09:54:16.966Z</time></trkpt><trkpt lat="42.8044931" lon="12.9498961"><ele>449.0</ele><time>2026-04-26T09:54:17.965Z</time></trkpt><trkpt lat="42.8042841" lon="12.9498709"><ele>449.0</ele><time>2026-04-26T09:54:18.966Z</time></trkpt><trkpt lat="42.8040634" lon="12.9498929"><ele>446.5</ele><time>2026-04-26T09:54:19.965Z</time></trkpt><trkpt lat="42.8038503" lon="12.9499674"><ele>444.0</ele><time>2026-04-26T09:54:20.965Z</time></trkpt><trkpt lat="42.8036278" lon="12.9500845"><ele>450.0</ele><time>2026-04-26T09:54:21.965Z</time></trkpt><trkpt lat="42.8034133" lon="12.9502361"><ele>456.0</ele><time>2026-04-26T09:54:22.965Z</time></trkpt><trkpt lat="42.8032078" lon="12.9504119"><ele>456.0</ele><time>2026-04-26T09:54:23.965Z</time></trkpt><trkpt lat="42.8030046" lon="12.9506017"><ele>456.0</ele><time>2026-04-26T09:54:24.965Z</time></trkpt><trkpt lat="42.8028114" lon="12.9507872"><ele>461.5</ele><time>2026-04-26T09:54:25.966Z</time></trkpt><trkpt lat="42.8026327" lon="12.9509886"><ele>467.0</ele><time>2026-04-26T09:54:26.966Z</time></trkpt><trkpt lat="42.8024517" lon="12.951218"><ele>498.0</ele><time>2026-04-26T09:54:27.966Z</time></trkpt><trkpt lat="42.8012426" lon="12.9527578"><ele>498.0</ele><time>2026-04-26T09:54:34.965Z</time></trkpt><trkpt lat="42.8010409" lon="12.952958"><ele>498.0</ele><time>2026-04-26T09:54:35.966Z</time></trkpt><trkpt lat="42.8008293" lon="12.9531031"><ele>485.0</ele><time>2026-04-26T09:54:36.965Z</time></trkpt><trkpt lat="42.8006324" lon="12.9532192"><ele>472.0</ele><time>2026-04-26T09:54:37.965Z</time></trkpt><trkpt lat="42.800436" lon="12.9532936"><ele>459.0</ele><time>2026-04-26T09:54:38.965Z</time></trkpt><trkpt lat="42.8002452" lon="12.9533285"><ele>457.33333333333337</ele><time>2026-04-26T09:54:39.965Z</time></trkpt><trkpt lat="42.8000391" lon="12.9533108"><ele>455.6666666666667</ele><time>2026-04-26T09:54:40.965Z</time></trkpt><trkpt lat="42.799815" lon="12.9533198"><ele>454.0</ele><time>2026-04-26T09:54:41.966Z</time></trkpt><trkpt lat="42.7995705" lon="12.953381"><ele>474.5</ele><time>2026-04-26T09:54:42.965Z</time></trkpt><trkpt lat="42.7993209" lon="12.9534694"><ele>495.0</ele><time>2026-04-26T09:54:43.965Z</time></trkpt><trkpt lat="42.7990632" lon="12.9535624"><ele>495.0</ele><time>2026-04-26T09:54:44.965Z</time></trkpt><trkpt lat="42.7988104" lon="12.9536649"><ele>495.0</ele><time>2026-04-26T09:54:45.965Z</time></trkpt><trkpt lat="42.7985653" lon="12.9537431"><ele>488.0</ele><time>2026-04-26T09:54:46.965Z</time></trkpt><trkpt lat="42.7983234" lon="12.9538008"><ele>481.0</ele><time>2026-04-26T09:54:47.965Z</time></trkpt><trkpt lat="42.7980838" lon="12.953831"><ele>481.0</ele><time>2026-04-26T09:54:48.966Z</time></trkpt><trkpt lat="42.7978512" lon="12.9538443"><ele>481.0</ele><time>2026-04-26T09:54:49.966Z</time></trkpt><trkpt lat="42.7976223" lon="12.9538681"><ele>474.6666666666667</ele><time>2026-04-26T09:54:50.965Z</time></trkpt><trkpt lat="42.7974061" lon="12.9539245"><ele>468.33333333333337</ele><time>2026-04-26T09:54:51.965Z</time></trkpt><trkpt lat="42.7971921" lon="12.9540288"><ele>462.0</ele><time>2026-04-26T09:54:52.966Z</time></trkpt><trkpt lat="42.7969768" lon="12.9541966"><ele>461.5</ele><time>2026-04-26T09:54:53.965Z</time></trkpt><trkpt lat="42.7967652" lon="12.9543851"><ele>461.0</ele><time>2026-04-26T09:54:54.965Z</time></trkpt><trkpt lat="42.7965393" lon="12.9545542"><ele>461.0</ele><time>2026-04-26T09:54:55.966Z</time></trkpt><trkpt lat="42.7962913" lon="12.9547029"><ele>461.0</ele><time>2026-04-26T09:54:56.965Z</time></trkpt><trkpt lat="42.7960331" lon="12.9548447"><ele>466.5</ele><time>2026-04-26T09:54:57.966Z</time></trkpt><trkpt lat="42.7957747" lon="12.9550124"><ele>472.0</ele><time>2026-04-26T09:54:58.965Z</time></trkpt><trkpt lat="42.7955088" lon="12.9551843"><ele>472.0</ele><time>2026-04-26T09:54:59.966Z</time></trkpt><trkpt lat="42.7952624" lon="12.9553461"><ele>472.0</ele><time>2026-04-26T09:55:00.965Z</time></trkpt><trkpt lat="42.7950301" lon="12.9554922"><ele>462.0</ele><time>2026-04-26T09:55:01.966Z</time></trkpt><trkpt lat="42.7948099" lon="12.9556414"><ele>452.0</ele><time>2026-04-26T09:55:02.965Z</time></trkpt><trkpt lat="42.7945997" lon="12.9558121"><ele>455.0</ele><time>2026-04-26T09:55:03.966Z</time></trkpt><trkpt lat="42.7943827" lon="12.9560275"><ele>458.0</ele><time>2026-04-26T09:55:04.965Z</time></trkpt><trkpt lat="42.7941738" lon="12.9562736"><ele>458.0</ele><time>2026-04-26T09:55:05.966Z</time></trkpt><trkpt lat="42.793961" lon="12.9565277"><ele>458.0</ele><time>2026-04-26T09:55:06.965Z</time></trkpt><trkpt lat="42.7937476" lon="12.9567716"><ele>456.5</ele><time>2026-04-26T09:55:07.965Z</time></trkpt><trkpt lat="42.7935393" lon="12.9570098"><ele>455.0</ele><time>2026-04-26T09:55:08.965Z</time></trkpt><trkpt lat="42.7933413" lon="12.9572363"><ele>455.0</ele><time>2026-04-26T09:55:09.966Z</time></trkpt><trkpt lat="42.7931501" lon="12.9574564"><ele>455.0</ele><time>2026-04-26T09:55:10.965Z</time></trkpt><trkpt lat="42.7929592" lon="12.9576582"><ele>458.5</ele><time>2026-04-26T09:55:11.965Z</time></trkpt><trkpt lat="42.792762" lon="12.9578253"><ele>462.0</ele><time>2026-04-26T09:55:12.965Z</time></trkpt><trkpt lat="42.7925399" lon="12.9579561"><ele>462.0</ele><time>2026-04-26T09:55:13.966Z</time></trkpt><trkpt lat="42.7923129" lon="12.9580636"><ele>462.0</ele><time>2026-04-26T09:55:14.965Z</time></trkpt><trkpt lat="42.7920972" lon="12.9581605"><ele>462.0</ele><time>2026-04-26T09:55:15.966Z</time></trkpt><trkpt lat="42.7919019" lon="12.9582696"><ele>462.0</ele><time>2026-04-26T09:55:16.965Z</time></trkpt><trkpt lat="42.7917233" lon="12.9584027"><ele>462.0</ele><time>2026-04-26T09:55:17.965Z</time></trkpt><trkpt lat="42.7915462" lon="12.9585687"><ele>466.0</ele><time>2026-04-26T09:55:18.966Z</time></trkpt><trkpt lat="42.7913792" lon="12.9587442"><ele>470.0</ele><time>2026-04-26T09:55:19.965Z</time></trkpt><trkpt lat="42.7912349" lon="12.9589031"><ele>474.0</ele><time>2026-04-26T09:55:20.965Z</time></trkpt><trkpt lat="42.7911163" lon="12.959041"><ele>474.0</ele><time>2026-04-26T09:55:21.965Z</time></trkpt><trkpt lat="42.791021" lon="12.9591615"><ele>474.0</ele><time>2026-04-26T09:55:22.965Z</time></trkpt><trkpt lat="42.7909506" lon="12.9592887"><ele>474.0</ele><time>2026-04-26T09:55:23.965Z</time></trkpt><trkpt lat="42.7909215" lon="12.9594427"><ele>474.0</ele><time>2026-04-26T09:55:24.965Z</time></trkpt><trkpt lat="42.7909326" lon="12.9596149"><ele>476.33333333333337</ele><time>2026-04-26T09:55:25.965Z</time></trkpt><trkpt lat="42.790962" lon="12.9598159"><ele>478.6666666666667</ele><time>2026-04-26T09:55:26.966Z</time></trkpt><trkpt lat="42.7909833" lon="12.9600218"><ele>481.0</ele><time>2026-04-26T09:55:27.965Z</time></trkpt><trkpt lat="42.7909731" lon="12.9602475"><ele>481.0</ele><time>2026-04-26T09:55:28.965Z</time></trkpt><trkpt lat="42.790947" lon="12.9604859"><ele>481.0</ele><time>2026-04-26T09:55:29.965Z</time></trkpt><trkpt lat="42.790916" lon="12.9607391"><ele>481.0</ele><time>2026-04-26T09:55:30.965Z</time></trkpt><trkpt lat="42.7908872" lon="12.9610027"><ele>483.5</ele><time>2026-04-26T09:55:31.965Z</time></trkpt><trkpt lat="42.7908759" lon="12.961277"><ele>486.0</ele><time>2026-04-26T09:55:32.965Z</time></trkpt><trkpt lat="42.7907427" lon="12.9621336"><ele>481.0</ele><time>2026-04-26T09:55:35.965Z</time></trkpt><trkpt lat="42.7907375" lon="12.9624257"><ele>476.0</ele><time>2026-04-26T09:55:36.965Z</time></trkpt><trkpt lat="42.79076" lon="12.9627003"><ele>471.0</ele><time>2026-04-26T09:55:37.965Z</time></trkpt><trkpt lat="42.7908423" lon="12.9629864"><ele>471.0</ele><time>2026-04-26T09:55:38.965Z</time></trkpt><trkpt lat="42.7909088" lon="12.9632789"><ele>471.0</ele><time>2026-04-26T09:55:39.966Z</time></trkpt><trkpt lat="42.7909394" lon="12.9635899"><ele>471.0</ele><time>2026-04-26T09:55:40.965Z</time></trkpt><trkpt lat="42.7909232" lon="12.9638901"><ele>471.0</ele><time>2026-04-26T09:55:41.965Z</time></trkpt><trkpt lat="42.7908959" lon="12.9641823"><ele>471.0</ele><time>2026-04-26T09:55:42.965Z</time></trkpt><trkpt lat="42.7909026" lon="12.9644348"><ele>487.0</ele><time>2026-04-26T09:55:43.965Z</time></trkpt><trkpt lat="42.7908859" lon="12.9646812"><ele>503.0</ele><time>2026-04-26T09:55:44.966Z</time></trkpt><trkpt lat="42.7908819" lon="12.9649246"><ele>519.0</ele><time>2026-04-26T09:55:45.965Z</time></trkpt><trkpt lat="42.7908587" lon="12.9651666"><ele>519.0</ele><time>2026-04-26T09:55:46.965Z</time></trkpt><trkpt lat="42.7908224" lon="12.9654085"><ele>519.0</ele><time>2026-04-26T09:55:47.965Z</time></trkpt><trkpt lat="42.7907748" lon="12.9656185"><ele>519.0</ele><time>2026-04-26T09:55:48.965Z</time></trkpt><trkpt lat="42.7907448" lon="12.9658397"><ele>512.0</ele><time>2026-04-26T09:55:49.965Z</time></trkpt><trkpt lat="42.790727" lon="12.9660625"><ele>505.0</ele><time>2026-04-26T09:55:50.965Z</time></trkpt><trkpt lat="42.790763" lon="12.966292"><ele>498.0</ele><time>2026-04-26T09:55:51.965Z</time></trkpt><trkpt lat="42.7908301" lon="12.9665285"><ele>500.0</ele><time>2026-04-26T09:55:52.966Z</time></trkpt><trkpt lat="42.7909288" lon="12.9667817"><ele>502.0</ele><time>2026-04-26T09:55:53.966Z</time></trkpt><trkpt lat="42.7910746" lon="12.9670747"><ele>502.0</ele><time>2026-04-26T09:55:54.965Z</time></trkpt><trkpt lat="42.7912834" lon="12.9673417"><ele>502.0</ele><time>2026-04-26T09:55:55.965Z</time></trkpt><trkpt lat="42.7913966" lon="12.9676261"><ele>498.0</ele><time>2026-04-26T09:55:56.965Z</time></trkpt><trkpt lat="42.7915128" lon="12.9678946"><ele>494.0</ele><time>2026-04-26T09:55:57.965Z</time></trkpt><trkpt lat="42.7915996" lon="12.9681187"><ele>490.0</ele><time>2026-04-26T09:55:58.966Z</time></trkpt><trkpt lat="42.7917228" lon="12.9683555"><ele>489.33333333333337</ele><time>2026-04-26T09:55:59.966Z</time></trkpt><trkpt lat="42.7917125" lon="12.9685871"><ele>488.66666666666663</ele><time>2026-04-26T09:56:00.965Z</time></trkpt><trkpt lat="42.7916929" lon="12.9688359"><ele>488.0</ele><time>2026-04-26T09:56:01.965Z</time></trkpt><trkpt lat="42.7915552" lon="12.9691278"><ele>492.0</ele><time>2026-04-26T09:56:02.965Z</time></trkpt><trkpt lat="42.7914345" lon="12.9693886"><ele>496.0</ele><time>2026-04-26T09:56:03.965Z</time></trkpt><trkpt lat="42.7912334" lon="12.969652"><ele>496.0</ele><time>2026-04-26T09:56:04.965Z</time></trkpt><trkpt lat="42.7910793" lon="12.9699666"><ele>496.0</ele><time>2026-04-26T09:56:05.966Z</time></trkpt><trkpt lat="42.7909409" lon="12.9702144"><ele>491.0</ele><time>2026-04-26T09:56:06.966Z</time></trkpt><trkpt lat="42.7907882" lon="12.9704306"><ele>486.0</ele><time>2026-04-26T09:56:07.965Z</time></trkpt><trkpt lat="42.7906196" lon="12.9706142"><ele>481.0</ele><time>2026-04-26T09:56:08.965Z</time></trkpt><trkpt lat="42.7904459" lon="12.9707678"><ele>475.5</ele><time>2026-04-26T09:56:09.965Z</time></trkpt><trkpt lat="42.7902657" lon="12.9709537"><ele>470.0</ele><time>2026-04-26T09:56:10.965Z</time></trkpt><trkpt lat="42.7901001" lon="12.9711825"><ele>470.0</ele><time>2026-04-26T09:56:11.965Z</time></trkpt><trkpt lat="42.7899456" lon="12.9714297"><ele>470.0</ele><time>2026-04-26T09:56:12.966Z</time></trkpt><trkpt lat="42.7898067" lon="12.971686"><ele>482.66666666666663</ele><time>2026-04-26T09:56:13.965Z</time></trkpt><trkpt lat="42.7896915" lon="12.9719432"><ele>495.33333333333337</ele><time>2026-04-26T09:56:14.965Z</time></trkpt><trkpt lat="42.789598" lon="12.9721986"><ele>508.0</ele><time>2026-04-26T09:56:15.965Z</time></trkpt><trkpt lat="42.7895413" lon="12.9724667"><ele>518.0</ele><time>2026-04-26T09:56:16.965Z</time></trkpt><trkpt lat="42.7895053" lon="12.9727353"><ele>528.0</ele><time>2026-04-26T09:56:17.965Z</time></trkpt><trkpt lat="42.7891339" lon="12.9763312"><ele>513.3333333333334</ele><time>2026-04-26T09:56:29.965Z</time></trkpt><trkpt lat="42.7890515" lon="12.97664"><ele>498.6666666666667</ele><time>2026-04-26T09:56:30.965Z</time></trkpt><trkpt lat="42.789014" lon="12.9768957"><ele>484.0</ele><time>2026-04-26T09:56:31.965Z</time></trkpt><trkpt lat="42.7889813" lon="12.9771587"><ele>484.0</ele><time>2026-04-26T09:56:32.965Z</time></trkpt><trkpt lat="42.7890257" lon="12.9774235"><ele>484.0</ele><time>2026-04-26T09:56:33.966Z</time></trkpt><trkpt lat="42.789088" lon="12.9776969"><ele>484.0</ele><time>2026-04-26T09:56:34.966Z</time></trkpt><trkpt lat="42.789187" lon="12.9779837"><ele>480.0</ele><time>2026-04-26T09:56:35.965Z</time></trkpt><trkpt lat="42.789292" lon="12.9782749"><ele>476.0</ele><time>2026-04-26T09:56:36.965Z</time></trkpt><trkpt lat="42.7893702" lon="12.9785865"><ele>494.0</ele><time>2026-04-26T09:56:37.965Z</time></trkpt><trkpt lat="42.7894166" lon="12.9789039"><ele>512.0</ele><time>2026-04-26T09:56:38.965Z</time></trkpt><trkpt lat="42.7894465" lon="12.9792314"><ele>512.0</ele><time>2026-04-26T09:56:39.965Z</time></trkpt><trkpt lat="42.7894677" lon="12.9795553"><ele>512.0</ele><time>2026-04-26T09:56:40.965Z</time></trkpt><trkpt lat="42.7894936" lon="12.9798765"><ele>501.0</ele><time>2026-04-26T09:56:41.965Z</time></trkpt><trkpt lat="42.7895525" lon="12.9801869"><ele>490.0</ele><time>2026-04-26T09:56:42.965Z</time></trkpt><trkpt lat="42.7896452" lon="12.9804807"><ele>490.0</ele><time>2026-04-26T09:56:43.966Z</time></trkpt><trkpt lat="42.7897581" lon="12.9807436"><ele>490.0</ele><time>2026-04-26T09:56:44.965Z</time></trkpt><trkpt lat="42.7898722" lon="12.9809907"><ele>490.0</ele><time>2026-04-26T09:56:45.965Z</time></trkpt><trkpt lat="42.7899595" lon="12.9812571"><ele>484.0</ele><time>2026-04-26T09:56:46.965Z</time></trkpt><trkpt lat="42.7900127" lon="12.9815528"><ele>478.0</ele><time>2026-04-26T09:56:47.965Z</time></trkpt><trkpt lat="42.7900472" lon="12.981883"><ele>478.0</ele><time>2026-04-26T09:56:48.966Z</time></trkpt><trkpt lat="42.7900826" lon="12.9822091"><ele>478.0</ele><time>2026-04-26T09:56:49.966Z</time></trkpt><trkpt lat="42.7901209" lon="12.9825327"><ele>476.6666666666667</ele><time>2026-04-26T09:56:50.966Z</time></trkpt><trkpt lat="42.7901442" lon="12.9828101"><ele>475.33333333333337</ele><time>2026-04-26T09:56:51.966Z</time></trkpt><trkpt lat="42.7901798" lon="12.9830463"><ele>474.0</ele><time>2026-04-26T09:56:52.965Z</time></trkpt><trkpt lat="42.7902494" lon="12.9832442"><ele>476.0</ele><time>2026-04-26T09:56:53.965Z</time></trkpt><trkpt lat="42.7903512" lon="12.9834085"><ele>478.0</ele><time>2026-04-26T09:56:54.966Z</time></trkpt><trkpt lat="42.790499" lon="12.9835283"><ele>480.0</ele><time>2026-04-26T09:56:55.965Z</time></trkpt><trkpt lat="42.7906633" lon="12.983619"><ele>480.0</ele><time>2026-04-26T09:56:56.965Z</time></trkpt><trkpt lat="42.7908257" lon="12.9837293"><ele>480.0</ele><time>2026-04-26T09:56:57.965Z</time></trkpt><trkpt lat="42.7909648" lon="12.9838763"><ele>480.0</ele><time>2026-04-26T09:56:58.965Z</time></trkpt><trkpt lat="42.7910674" lon="12.9840656"><ele>492.66666666666663</ele><time>2026-04-26T09:56:59.973Z</time></trkpt><trkpt lat="42.7911461" lon="12.9842823"><ele>505.3333333333333</ele><time>2026-04-26T09:57:00.972Z</time></trkpt><trkpt lat="42.7911877" lon="12.984527"><ele>518.0</ele><time>2026-04-26T09:57:01.972Z</time></trkpt><trkpt lat="42.7911979" lon="12.9847864"><ele>522.6666666666666</ele><time>2026-04-26T09:57:02.972Z</time></trkpt><trkpt lat="42.7911803" lon="12.9850584"><ele>527.3333333333334</ele><time>2026-04-26T09:57:03.972Z</time></trkpt><trkpt lat="42.7911173" lon="12.9853218"><ele>532.0</ele><time>2026-04-26T09:57:04.972Z</time></trkpt><trkpt lat="42.7910139" lon="12.9855663"><ele>522.3333333333334</ele><time>2026-04-26T09:57:05.973Z</time></trkpt><trkpt lat="42.7908784" lon="12.9858011"><ele>512.6666666666666</ele><time>2026-04-26T09:57:06.972Z</time></trkpt><trkpt lat="42.7907269" lon="12.9860216"><ele>503.0</ele><time>2026-04-26T09:57:07.972Z</time></trkpt><trkpt lat="42.7905766" lon="12.9862354"><ele>503.0</ele><time>2026-04-26T09:57:08.972Z</time></trkpt><trkpt lat="42.790447" lon="12.9864443"><ele>503.0</ele><time>2026-04-26T09:57:09.973Z</time></trkpt><trkpt lat="42.7903471" lon="12.9866687"><ele>503.0</ele><time>2026-04-26T09:57:10.972Z</time></trkpt><trkpt lat="42.7902787" lon="12.9869193"><ele>502.3333333333333</ele><time>2026-04-26T09:57:11.973Z</time></trkpt><trkpt lat="42.7902629" lon="12.9871939"><ele>501.66666666666663</ele><time>2026-04-26T09:57:12.972Z</time></trkpt><trkpt lat="42.7902791" lon="12.9874821"><ele>501.0</ele><time>2026-04-26T09:57:13.972Z</time></trkpt><trkpt lat="42.7903159" lon="12.9877835"><ele>495.5</ele><time>2026-04-26T09:57:14.972Z</time></trkpt><trkpt lat="42.7903576" lon="12.9881001"><ele>490.0</ele><time>2026-04-26T09:57:15.972Z</time></trkpt><trkpt lat="42.7903898" lon="12.9884319"><ele>490.0</ele><time>2026-04-26T09:57:16.972Z</time></trkpt><trkpt lat="42.7904254" lon="12.9887728"><ele>490.0</ele><time>2026-04-26T09:57:17.973Z</time></trkpt><trkpt lat="42.7904617" lon="12.9891214"><ele>494.5</ele><time>2026-04-26T09:57:18.972Z</time></trkpt><trkpt lat="42.7904977" lon="12.9894728"><ele>499.0</ele><time>2026-04-26T09:57:19.973Z</time></trkpt><trkpt lat="42.7905343" lon="12.9898293"><ele>494.0</ele><time>2026-04-26T09:57:20.972Z</time></trkpt><trkpt lat="42.7905774" lon="12.990192"><ele>489.0</ele><time>2026-04-26T09:57:21.973Z</time></trkpt><trkpt lat="42.7906236" lon="12.9905577"><ele>484.0</ele><time>2026-04-26T09:57:22.972Z</time></trkpt><trkpt lat="42.7906629" lon="12.9909306"><ele>479.0</ele><time>2026-04-26T09:57:23.972Z</time></trkpt><trkpt lat="42.7907092" lon="12.9912991"><ele>479.0</ele><time>2026-04-26T09:57:24.972Z</time></trkpt><trkpt lat="42.790751" lon="12.9916617"><ele>479.0</ele><time>2026-04-26T09:57:25.972Z</time></trkpt><trkpt lat="42.7907965" lon="12.9920183"><ele>478.5</ele><time>2026-04-26T09:57:26.973Z</time></trkpt><trkpt lat="42.7908387" lon="12.9923656"><ele>478.0</ele><time>2026-04-26T09:57:27.972Z</time></trkpt><trkpt lat="42.7908786" lon="12.9927097"><ele>479.5</ele><time>2026-04-26T09:57:28.972Z</time></trkpt><trkpt lat="42.79092" lon="12.993049"><ele>481.0</ele><time>2026-04-26T09:57:29.973Z</time></trkpt><trkpt lat="42.7909589" lon="12.993383"><ele>485.0</ele><time>2026-04-26T09:57:30.972Z</time></trkpt><trkpt lat="42.7909977" lon="12.9937167"><ele>489.0</ele><time>2026-04-26T09:57:31.972Z</time></trkpt><trkpt lat="42.7910357" lon="12.9940526"><ele>499.0</ele><time>2026-04-26T09:57:32.972Z</time></trkpt><trkpt lat="42.791078" lon="12.9943889"><ele>509.0</ele><time>2026-04-26T09:57:33.972Z</time></trkpt><trkpt lat="42.7920055" lon="13.0024579"><ele>521.0</ele><time>2026-04-26T09:57:54.973Z</time></trkpt><trkpt lat="42.7921178" lon="13.0028348"><ele>533.0</ele><time>2026-04-26T09:57:55.973Z</time></trkpt><trkpt lat="42.7921515" lon="13.0031922"><ele>531.5</ele><time>2026-04-26T09:57:56.973Z</time></trkpt><trkpt lat="42.7921766" lon="13.0035365"><ele>530.0</ele><time>2026-04-26T09:57:57.972Z</time></trkpt><trkpt lat="42.7921811" lon="13.0038892"><ele>536.0</ele><time>2026-04-26T09:57:58.973Z</time></trkpt><trkpt lat="42.7921536" lon="13.0042639"><ele>542.0</ele><time>2026-04-26T09:57:59.973Z</time></trkpt><trkpt lat="42.7921167" lon="13.0046419"><ele>510.0</ele><time>2026-04-26T09:58:00.972Z</time></trkpt><trkpt lat="42.7916042" lon="13.0091307"><ele>508.0</ele><time>2026-04-26T09:58:12.972Z</time></trkpt><trkpt lat="42.7914978" lon="13.0094699"><ele>506.0</ele><time>2026-04-26T09:58:13.972Z</time></trkpt><trkpt lat="42.7913559" lon="13.0097969"><ele>511.5</ele><time>2026-04-26T09:58:14.973Z</time></trkpt><trkpt lat="42.7912" lon="13.0101413"><ele>517.0</ele><time>2026-04-26T09:58:15.972Z</time></trkpt><trkpt lat="42.7910625" lon="13.0104726"><ele>507.0</ele><time>2026-04-26T09:58:16.972Z</time></trkpt><trkpt lat="42.7909331" lon="13.0108037"><ele>497.0</ele><time>2026-04-26T09:58:17.972Z</time></trkpt><trkpt lat="42.790826" lon="13.0111468"><ele>497.0</ele><time>2026-04-26T09:58:18.972Z</time></trkpt><trkpt lat="42.7907407" lon="13.0115055"><ele>497.0</ele><time>2026-04-26T09:58:19.972Z</time></trkpt><trkpt lat="42.7906728" lon="13.011881"><ele>503.0</ele><time>2026-04-26T09:58:20.972Z</time></trkpt><trkpt lat="42.7906126" lon="13.0122672"><ele>509.0</ele><time>2026-04-26T09:58:21.973Z</time></trkpt><trkpt lat="42.7905494" lon="13.0126517"><ele>507.0</ele><time>2026-04-26T09:58:22.972Z</time></trkpt><trkpt lat="42.7904922" lon="13.0130191"><ele>505.0</ele><time>2026-04-26T09:58:23.972Z</time></trkpt><trkpt lat="42.7904439" lon="13.013371"><ele>505.0</ele><time>2026-04-26T09:58:24.972Z</time></trkpt><trkpt lat="42.7903939" lon="13.013703"><ele>505.0</ele><time>2026-04-26T09:58:25.972Z</time></trkpt><trkpt lat="42.7903288" lon="13.0139982"><ele>501.5</ele><time>2026-04-26T09:58:26.972Z</time></trkpt><trkpt lat="42.7902211" lon="13.0142695"><ele>498.0</ele><time>2026-04-26T09:58:27.972Z</time></trkpt><trkpt lat="42.7900947" lon="13.0145282"><ele>497.66666666666663</ele><time>2026-04-26T09:58:28.973Z</time></trkpt><trkpt lat="42.789949" lon="13.0147396"><ele>497.3333333333333</ele><time>2026-04-26T09:58:29.973Z</time></trkpt><trkpt lat="42.7897842" lon="13.0149147"><ele>497.0</ele><time>2026-04-26T09:58:30.972Z</time></trkpt><trkpt lat="42.7896246" lon="13.0150618"><ele>497.0</ele><time>2026-04-26T09:58:31.972Z</time></trkpt><trkpt lat="42.7894722" lon="13.0151921"><ele>497.0</ele><time>2026-04-26T09:58:32.973Z</time></trkpt><trkpt lat="42.7893408" lon="13.015311"><ele>497.0</ele><time>2026-04-26T09:58:33.972Z</time></trkpt><trkpt lat="42.7892141" lon="13.015452"><ele>497.66666666666663</ele><time>2026-04-26T09:58:34.973Z</time></trkpt><trkpt lat="42.7891166" lon="13.0156254"><ele>498.33333333333337</ele><time>2026-04-26T09:58:35.972Z</time></trkpt><trkpt lat="42.7890343" lon="13.0158118"><ele>499.0</ele><time>2026-04-26T09:58:36.972Z</time></trkpt><trkpt lat="42.7889627" lon="13.0160188"><ele>499.0</ele><time>2026-04-26T09:58:37.972Z</time></trkpt><trkpt lat="42.788912" lon="13.0162264"><ele>499.0</ele><time>2026-04-26T09:58:38.972Z</time></trkpt><trkpt lat="42.7888812" lon="13.0164496"><ele>499.0</ele><time>2026-04-26T09:58:39.972Z</time></trkpt><trkpt lat="42.7888593" lon="13.0166829"><ele>500.0</ele><time>2026-04-26T09:58:40.972Z</time></trkpt><trkpt lat="42.788854" lon="13.0169109"><ele>501.0</ele><time>2026-04-26T09:58:41.972Z</time></trkpt><trkpt lat="42.7888633" lon="13.0171412"><ele>502.0</ele><time>2026-04-26T09:58:42.972Z</time></trkpt><trkpt lat="42.788887" lon="13.0173965"><ele>504.0</ele><time>2026-04-26T09:58:43.973Z</time></trkpt><trkpt lat="42.7889339" lon="13.017657"><ele>506.0</ele><time>2026-04-26T09:58:44.972Z</time></trkpt><trkpt lat="42.7890053" lon="13.01792"><ele>508.0</ele><time>2026-04-26T09:58:45.972Z</time></trkpt><trkpt lat="42.7890651" lon="13.0181734"><ele>510.0</ele><time>2026-04-26T09:58:46.972Z</time></trkpt><trkpt lat="42.7891104" lon="13.0184055"><ele>512.0</ele><time>2026-04-26T09:58:47.973Z</time></trkpt><trkpt lat="42.7891427" lon="13.0186348"><ele>514.0</ele><time>2026-04-26T09:58:48.972Z</time></trkpt><trkpt lat="42.7891703" lon="13.0188495"><ele>514.0</ele><time>2026-04-26T09:58:49.972Z</time></trkpt><trkpt lat="42.7891846" lon="13.0190557"><ele>514.0</ele><time>2026-04-26T09:58:50.972Z</time></trkpt><trkpt lat="42.7891798" lon="13.0192576"><ele>514.0</ele><time>2026-04-26T09:58:51.972Z</time></trkpt><trkpt lat="42.7891438" lon="13.0194526"><ele>514.0</ele><time>2026-04-26T09:58:52.973Z</time></trkpt><trkpt lat="42.7890858" lon="13.0196327"><ele>514.3333333333334</ele><time>2026-04-26T09:58:53.972Z</time></trkpt><trkpt lat="42.7890093" lon="13.0198031"><ele>514.6666666666666</ele><time>2026-04-26T09:58:54.972Z</time></trkpt><trkpt lat="42.7889107" lon="13.019975"><ele>515.0</ele><time>2026-04-26T09:58:55.972Z</time></trkpt><trkpt lat="42.7887851" lon="13.020131"><ele>520.0</ele><time>2026-04-26T09:58:56.972Z</time></trkpt><trkpt lat="42.7886381" lon="13.0202395"><ele>525.0</ele><time>2026-04-26T09:58:57.972Z</time></trkpt><trkpt lat="42.7884811" lon="13.020303"><ele>530.0</ele><time>2026-04-26T09:58:58.972Z</time></trkpt><trkpt lat="42.7882993" lon="13.0203391"><ele>520.0</ele><time>2026-04-26T09:58:59.972Z</time></trkpt><trkpt lat="42.7881176" lon="13.020361"><ele>510.0</ele><time>2026-04-26T09:59:00.973Z</time></trkpt><trkpt lat="42.7879381" lon="13.0204035"><ele>500.0</ele><time>2026-04-26T09:59:01.972Z</time></trkpt><trkpt lat="42.787778" lon="13.0204577"><ele>500.3333333333333</ele><time>2026-04-26T09:59:02.972Z</time></trkpt><trkpt lat="42.7876258" lon="13.0205066"><ele>500.66666666666663</ele><time>2026-04-26T09:59:03.972Z</time></trkpt><trkpt lat="42.7874689" lon="13.0205351"><ele>501.0</ele><time>2026-04-26T09:59:04.973Z</time></trkpt><trkpt lat="42.7873097" lon="13.0205449"><ele>501.0</ele><time>2026-04-26T09:59:05.972Z</time></trkpt><trkpt lat="42.7871554" lon="13.020537"><ele>501.0</ele><time>2026-04-26T09:59:06.973Z</time></trkpt><trkpt lat="42.7870005" lon="13.0205383"><ele>501.0</ele><time>2026-04-26T09:59:07.972Z</time></trkpt><trkpt lat="42.786859" lon="13.0205266"><ele>501.5</ele><time>2026-04-26T09:59:08.972Z</time></trkpt><trkpt lat="42.7867244" lon="13.0205095"><ele>502.0</ele><time>2026-04-26T09:59:09.972Z</time></trkpt><trkpt lat="42.7865989" lon="13.0204718"><ele>502.5</ele><time>2026-04-26T09:59:10.972Z</time></trkpt><trkpt lat="42.786479" lon="13.0204365"><ele>503.0</ele><time>2026-04-26T09:59:11.973Z</time></trkpt><trkpt lat="42.7863677" lon="13.0204253"><ele>503.0</ele><time>2026-04-26T09:59:12.972Z</time></trkpt><trkpt lat="42.7862691" lon="13.0204516"><ele>502.99999999999994</ele><time>2026-04-26T09:59:13.972Z</time></trkpt><trkpt lat="42.7861814" lon="13.020497"><ele>502.99999999999994</ele><time>2026-04-26T09:59:14.972Z</time></trkpt><trkpt lat="42.7861098" lon="13.0205734"><ele>503.0</ele><time>2026-04-26T09:59:15.972Z</time></trkpt><trkpt lat="42.7860336" lon="13.0206729"><ele>503.0</ele><time>2026-04-26T09:59:16.973Z</time></trkpt><trkpt lat="42.7859673" lon="13.0207664"><ele>504.2</ele><time>2026-04-26T09:59:17.972Z</time></trkpt><trkpt lat="42.7858986" lon="13.0208532"><ele>505.4</ele><time>2026-04-26T09:59:18.973Z</time></trkpt><trkpt lat="42.7858318" lon="13.0209401"><ele>506.59999999999997</ele><time>2026-04-26T09:59:19.972Z</time></trkpt><trkpt lat="42.7857703" lon="13.0210224"><ele>507.79999999999995</ele><time>2026-04-26T09:59:20.972Z</time></trkpt><trkpt lat="42.7857181" lon="13.0211204"><ele>509.0</ele><time>2026-04-26T09:59:21.972Z</time></trkpt><trkpt lat="42.7856727" lon="13.0212366"><ele>509.0</ele><time>2026-04-26T09:59:22.972Z</time></trkpt><trkpt lat="42.7856451" lon="13.0213795"><ele>509.0</ele><time>2026-04-26T09:59:23.972Z</time></trkpt><trkpt lat="42.7856424" lon="13.0215395"><ele>509.0</ele><time>2026-04-26T09:59:24.972Z</time></trkpt><trkpt lat="42.7856591" lon="13.0216823"><ele>509.0</ele><time>2026-04-26T09:59:25.972Z</time></trkpt><trkpt lat="42.7856721" lon="13.0218215"><ele>509.0</ele><time>2026-04-26T09:59:26.972Z</time></trkpt><trkpt lat="42.7856871" lon="13.0219477"><ele>510.66666666666663</ele><time>2026-04-26T09:59:27.972Z</time></trkpt><trkpt lat="42.7856972" lon="13.0220585"><ele>512.3333333333333</ele><time>2026-04-26T09:59:28.972Z</time></trkpt><trkpt lat="42.7857042" lon="13.0221572"><ele>514.0</ele><time>2026-04-26T09:59:29.972Z</time></trkpt><trkpt lat="42.785708" lon="13.0222602"><ele>515.6666666666666</ele><time>2026-04-26T09:59:31.972Z</time></trkpt><trkpt lat="42.7857262" lon="13.0223514"><ele>517.3333333333334</ele><time>2026-04-26T09:59:52.972Z</time></trkpt><trkpt lat="42.7857332" lon="13.0224589"><ele>519.0</ele><time>2026-04-26T09:59:55.973Z</time></trkpt><trkpt lat="42.7857348" lon="13.0225887"><ele>519.0</ele><time>2026-04-26T10:00:00.973Z</time></trkpt><trkpt lat="42.7857531" lon="13.0227532"><ele>519.0</ele><time>2026-04-26T10:00:02.973Z</time></trkpt><trkpt lat="42.7857548" lon="13.0228517"><ele>519.0</ele><time>2026-04-26T10:00:03.973Z</time></trkpt><trkpt lat="42.7857573" lon="13.0229666"><ele>519.0</ele><time>2026-04-26T10:00:04.972Z</time></trkpt><trkpt lat="42.7857581" lon="13.0231009"><ele>519.0</ele><time>2026-04-26T10:00:05.972Z</time></trkpt><trkpt lat="42.7857581" lon="13.0232427"><ele>519.75</ele><time>2026-04-26T10:00:06.972Z</time></trkpt><trkpt lat="42.7857546" lon="13.023397"><ele>520.5</ele><time>2026-04-26T10:00:07.973Z</time></trkpt><trkpt lat="42.7857504" lon="13.0235776"><ele>521.25</ele><time>2026-04-26T10:00:08.973Z</time></trkpt><trkpt lat="42.7857483" lon="13.0237791"><ele>522.0</ele><time>2026-04-26T10:00:09.972Z</time></trkpt><trkpt lat="42.785749" lon="13.0239893"><ele>521.75</ele><time>2026-04-26T10:00:10.973Z</time></trkpt><trkpt lat="42.7857565" lon="13.02419"><ele>521.5</ele><time>2026-04-26T10:00:11.973Z</time></trkpt><trkpt lat="42.7857565" lon="13.0243916"><ele>521.25</ele><time>2026-04-26T10:00:12.972Z</time></trkpt><trkpt lat="42.7857653" lon="13.024589"><ele>521.0</ele><time>2026-04-26T10:00:13.972Z</time></trkpt><trkpt lat="42.7857812" lon="13.0247794"><ele>518.6666666666666</ele><time>2026-04-26T10:00:14.972Z</time></trkpt><trkpt lat="42.7858121" lon="13.0249813"><ele>516.3333333333334</ele><time>2026-04-26T10:00:15.972Z</time></trkpt><trkpt lat="42.7858655" lon="13.025205"><ele>514.0</ele><time>2026-04-26T10:00:16.973Z</time></trkpt><trkpt lat="42.7859311" lon="13.0254534"><ele>514.0</ele><time>2026-04-26T10:00:17.972Z</time></trkpt><trkpt lat="42.7860111" lon="13.0257375"><ele>514.0</ele><time>2026-04-26T10:00:18.972Z</time></trkpt><trkpt lat="42.7860938" lon="13.0260522"><ele>539.0</ele><time>2026-04-26T10:00:19.972Z</time></trkpt><trkpt lat="42.7861701" lon="13.0264135"><ele>564.0</ele><time>2026-04-26T10:00:20.972Z</time></trkpt><trkpt lat="42.7862847" lon="13.0271055"><ele>548.0</ele><time>2026-04-26T10:00:22.973Z</time></trkpt><trkpt lat="42.7866477" lon="13.0282036"><ele>557.0</ele><time>2026-04-26T10:00:25.972Z</time></trkpt><trkpt lat="42.7867688" lon="13.0285476"><ele>566.0</ele><time>2026-04-26T10:00:26.973Z</time></trkpt><trkpt lat="42.7868577" lon="13.0289561"><ele>559.5</ele><time>2026-04-26T10:00:27.972Z</time></trkpt><trkpt lat="42.7869424" lon="13.0293663"><ele>553.0</ele><time>2026-04-26T10:00:28.973Z</time></trkpt><trkpt lat="42.7870233" lon="13.0297777"><ele>550.5</ele><time>2026-04-26T10:00:29.973Z</time></trkpt><trkpt lat="42.7871046" lon="13.0301896"><ele>548.0</ele><time>2026-04-26T10:00:30.973Z</time></trkpt><trkpt lat="42.7871847" lon="13.0306035"><ele>541.5</ele><time>2026-04-26T10:00:31.972Z</time></trkpt><trkpt lat="42.7872632" lon="13.031013"><ele>535.0</ele><time>2026-04-26T10:00:32.972Z</time></trkpt><trkpt lat="42.7873389" lon="13.0314111"><ele>533.5</ele><time>2026-04-26T10:00:33.973Z</time></trkpt><trkpt lat="42.7873977" lon="13.0318017"><ele>532.0</ele><time>2026-04-26T10:00:34.972Z</time></trkpt><trkpt lat="42.7874578" lon="13.0321861"><ele>531.0</ele><time>2026-04-26T10:00:35.973Z</time></trkpt><trkpt lat="42.7875034" lon="13.0325623"><ele>530.0</ele><time>2026-04-26T10:00:36.972Z</time></trkpt><trkpt lat="42.7875459" lon="13.0329268"><ele>530.0</ele><time>2026-04-26T10:00:37.972Z</time></trkpt><trkpt lat="42.7875703" lon="13.0332761"><ele>530.0</ele><time>2026-04-26T10:00:38.972Z</time></trkpt><trkpt lat="42.7875779" lon="13.033623"><ele>528.5</ele><time>2026-04-26T10:00:39.972Z</time></trkpt><trkpt lat="42.7875753" lon="13.033961"><ele>527.0</ele><time>2026-04-26T10:00:40.972Z</time></trkpt><trkpt lat="42.7875948" lon="13.0342915"><ele>525.5</ele><time>2026-04-26T10:00:41.972Z</time></trkpt><trkpt lat="42.7876448" lon="13.0346405"><ele>524.0</ele><time>2026-04-26T10:00:42.972Z</time></trkpt><trkpt lat="42.7877239" lon="13.0350275"><ele>541.5</ele><time>2026-04-26T10:00:43.972Z</time></trkpt><trkpt lat="42.7878352" lon="13.0354071"><ele>559.0</ele><time>2026-04-26T10:00:44.973Z</time></trkpt><trkpt lat="42.7879567" lon="13.0357962"><ele>550.5</ele><time>2026-04-26T10:00:45.972Z</time></trkpt><trkpt lat="42.7880775" lon="13.036184"><ele>542.0</ele><time>2026-04-26T10:00:46.972Z</time></trkpt><trkpt lat="42.7882012" lon="13.0365944"><ele>534.0</ele><time>2026-04-26T10:00:47.973Z</time></trkpt><trkpt lat="42.7883301" lon="13.0370244"><ele>526.0</ele><time>2026-04-26T10:00:48.972Z</time></trkpt><trkpt lat="42.7884676" lon="13.0374609"><ele>530.5</ele><time>2026-04-26T10:00:49.972Z</time></trkpt><trkpt lat="42.7886001" lon="13.0378875"><ele>535.0</ele><time>2026-04-26T10:00:50.973Z</time></trkpt><trkpt lat="42.7887153" lon="13.0382953"><ele>535.0</ele><time>2026-04-26T10:00:51.972Z</time></trkpt><trkpt lat="42.7888364" lon="13.0386926"><ele>535.0</ele><time>2026-04-26T10:00:52.972Z</time></trkpt><trkpt lat="42.7889521" lon="13.0390739"><ele>535.5</ele><time>2026-04-26T10:00:53.972Z</time></trkpt><trkpt lat="42.7890663" lon="13.0394495"><ele>536.0</ele><time>2026-04-26T10:00:54.972Z</time></trkpt><trkpt lat="42.7891804" lon="13.0398124"><ele>535.0</ele><time>2026-04-26T10:00:55.973Z</time></trkpt><trkpt lat="42.7892883" lon="13.0401513"><ele>534.0</ele><time>2026-04-26T10:00:56.972Z</time></trkpt><trkpt lat="42.7893854" lon="13.0404891"><ele>551.0</ele><time>2026-04-26T10:00:57.973Z</time></trkpt><trkpt lat="42.7894666" lon="13.0408404"><ele>568.0</ele><time>2026-04-26T10:00:58.972Z</time></trkpt><trkpt lat="42.7895229" lon="13.0412011"><ele>568.0</ele><time>2026-04-26T10:00:59.972Z</time></trkpt><trkpt lat="42.7895575" lon="13.0415751"><ele>568.0</ele><time>2026-04-26T10:01:00.972Z</time></trkpt><trkpt lat="42.7895534" lon="13.0419511"><ele>567.0</ele><time>2026-04-26T10:01:01.972Z</time></trkpt><trkpt lat="42.7895212" lon="13.0423252"><ele>566.0</ele><time>2026-04-26T10:01:02.973Z</time></trkpt><trkpt lat="42.7894541" lon="13.0426994"><ele>566.0</ele><time>2026-04-26T10:01:03.972Z</time></trkpt><trkpt lat="42.7893558" lon="13.0430732"><ele>566.0</ele><time>2026-04-26T10:01:04.972Z</time></trkpt><trkpt lat="42.7892511" lon="13.0434245"><ele>549.5</ele><time>2026-04-26T10:01:05.972Z</time></trkpt><trkpt lat="42.7891561" lon="13.0437663"><ele>533.0</ele><time>2026-04-26T10:01:06.972Z</time></trkpt><trkpt lat="42.7890746" lon="13.044117"><ele>538.5</ele><time>2026-04-26T10:01:07.972Z</time></trkpt><trkpt lat="42.7890099" lon="13.0444894"><ele>544.0</ele><time>2026-04-26T10:01:08.972Z</time></trkpt><trkpt lat="42.7889814" lon="13.0448806"><ele>546.0</ele><time>2026-04-26T10:01:09.973Z</time></trkpt><trkpt lat="42.7889792" lon="13.0452758"><ele>548.0</ele><time>2026-04-26T10:01:10.972Z</time></trkpt><trkpt lat="42.7890065" lon="13.0456669"><ele>546.0</ele><time>2026-04-26T10:01:11.972Z</time></trkpt><trkpt lat="42.7890531" lon="13.0460428"><ele>544.0</ele><time>2026-04-26T10:01:12.972Z</time></trkpt><trkpt lat="42.7891287" lon="13.0464221"><ele>542.5</ele><time>2026-04-26T10:01:13.972Z</time></trkpt><trkpt lat="42.7892405" lon="13.0467821"><ele>541.0</ele><time>2026-04-26T10:01:14.972Z</time></trkpt><trkpt lat="42.7893785" lon="13.0471546"><ele>553.5</ele><time>2026-04-26T10:01:15.972Z</time></trkpt><trkpt lat="42.7895207" lon="13.0475039"><ele>566.0</ele><time>2026-04-26T10:01:16.972Z</time></trkpt><trkpt lat="42.7896443" lon="13.0478285"><ele>566.0</ele><time>2026-04-26T10:01:17.973Z</time></trkpt><trkpt lat="42.7897563" lon="13.0481394"><ele>566.0</ele><time>2026-04-26T10:01:18.972Z</time></trkpt><trkpt lat="42.7898471" lon="13.0484382"><ele>558.3333333333333</ele><time>2026-04-26T10:01:19.972Z</time></trkpt><trkpt lat="42.7899189" lon="13.0487309"><ele>550.6666666666666</ele><time>2026-04-26T10:01:20.973Z</time></trkpt><trkpt lat="42.7899708" lon="13.0490164"><ele>543.0</ele><time>2026-04-26T10:01:21.972Z</time></trkpt><trkpt lat="42.7900002" lon="13.0493177"><ele>542.6666666666666</ele><time>2026-04-26T10:01:22.973Z</time></trkpt><trkpt lat="42.7900126" lon="13.0495998"><ele>542.3333333333333</ele><time>2026-04-26T10:01:23.973Z</time></trkpt><trkpt lat="42.7900146" lon="13.0498696"><ele>542.0</ele><time>2026-04-26T10:01:24.972Z</time></trkpt><trkpt lat="42.7900096" lon="13.0501248"><ele>542.0</ele><time>2026-04-26T10:01:25.972Z</time></trkpt><trkpt lat="42.7900077" lon="13.0503761"><ele>542.0</ele><time>2026-04-26T10:01:26.972Z</time></trkpt><trkpt lat="42.7900112" lon="13.0506677"><ele>542.0</ele><time>2026-04-26T10:01:27.972Z</time></trkpt><trkpt lat="42.7900083" lon="13.0509944"><ele>542.0</ele><time>2026-04-26T10:01:28.973Z</time></trkpt><trkpt lat="42.7899945" lon="13.0513722"><ele>542.0</ele><time>2026-04-26T10:01:29.973Z</time></trkpt><trkpt lat="42.7899775" lon="13.0517935"><ele>542.0</ele><time>2026-04-26T10:01:30.972Z</time></trkpt><trkpt lat="42.7899607" lon="13.0522338"><ele>542.0</ele><time>2026-04-26T10:01:31.973Z</time></trkpt><trkpt lat="42.7899502" lon="13.0526973"><ele>541.0</ele><time>2026-04-26T10:01:32.973Z</time></trkpt><trkpt lat="42.7899373" lon="13.0531874"><ele>540.0</ele><time>2026-04-26T10:01:33.972Z</time></trkpt><trkpt lat="42.7899254" lon="13.0536706"><ele>537.5</ele><time>2026-04-26T10:01:34.972Z</time></trkpt><trkpt lat="42.7899096" lon="13.0541513"><ele>535.0</ele><time>2026-04-26T10:01:35.973Z</time></trkpt><trkpt lat="42.7898987" lon="13.0546044"><ele>537.0</ele><time>2026-04-26T10:01:36.973Z</time></trkpt><trkpt lat="42.7898879" lon="13.0550336"><ele>539.0</ele><time>2026-04-26T10:01:37.973Z</time></trkpt><trkpt lat="42.7898791" lon="13.0554453"><ele>539.0</ele><time>2026-04-26T10:01:38.972Z</time></trkpt><trkpt lat="42.7898689" lon="13.0558257"><ele>539.0</ele><time>2026-04-26T10:01:39.972Z</time></trkpt><trkpt lat="42.7898585" lon="13.056182"><ele>539.0</ele><time>2026-04-26T10:01:40.972Z</time></trkpt><trkpt lat="42.7898479" lon="13.0565372"><ele>539.0</ele><time>2026-04-26T10:01:41.972Z</time></trkpt><trkpt lat="42.7898521" lon="13.0568921"><ele>541.5</ele><time>2026-04-26T10:01:42.972Z</time></trkpt><trkpt lat="42.7898879" lon="13.0572214"><ele>544.0</ele><time>2026-04-26T10:01:43.972Z</time></trkpt><trkpt lat="42.7899549" lon="13.0575482"><ele>545.0</ele><time>2026-04-26T10:01:44.972Z</time></trkpt><trkpt lat="42.7900585" lon="13.0578758"><ele>546.0</ele><time>2026-04-26T10:01:45.972Z</time></trkpt><trkpt lat="42.7901805" lon="13.0582167"><ele>558.5</ele><time>2026-04-26T10:01:46.973Z</time></trkpt><trkpt lat="42.7903224" lon="13.058564"><ele>571.0</ele><time>2026-04-26T10:01:47.972Z</time></trkpt><trkpt lat="42.7904569" lon="13.0589273"><ele>565.0</ele><time>2026-04-26T10:01:48.972Z</time></trkpt><trkpt lat="42.7905907" lon="13.0592961"><ele>559.0</ele><time>2026-04-26T10:01:49.972Z</time></trkpt><trkpt lat="42.7907265" lon="13.0596685"><ele>554.0</ele><time>2026-04-26T10:01:50.972Z</time></trkpt><trkpt lat="42.7908607" lon="13.0600405"><ele>549.0</ele><time>2026-04-26T10:01:51.972Z</time></trkpt><trkpt lat="42.7909984" lon="13.0604066"><ele>552.5</ele><time>2026-04-26T10:01:52.972Z</time></trkpt><trkpt lat="42.7911282" lon="13.0607669"><ele>556.0</ele><time>2026-04-26T10:01:53.972Z</time></trkpt><trkpt lat="42.791255" lon="13.0611237"><ele>556.0</ele><time>2026-04-26T10:01:54.972Z</time></trkpt><trkpt lat="42.7913855" lon="13.061475"><ele>556.0</ele><time>2026-04-26T10:01:55.973Z</time></trkpt><trkpt lat="42.7915127" lon="13.0618193"><ele>555.5</ele><time>2026-04-26T10:01:56.972Z</time></trkpt><trkpt lat="42.7916395" lon="13.0621618"><ele>555.0</ele><time>2026-04-26T10:01:57.973Z</time></trkpt><trkpt lat="42.7917741" lon="13.0625029"><ele>561.5</ele><time>2026-04-26T10:01:58.972Z</time></trkpt><trkpt lat="42.7919126" lon="13.062856"><ele>568.0</ele><time>2026-04-26T10:01:59.973Z</time></trkpt><trkpt lat="42.7920691" lon="13.0632012"><ele>565.0</ele><time>2026-04-26T10:02:00.972Z</time></trkpt><trkpt lat="42.7922396" lon="13.0635382"><ele>562.0</ele><time>2026-04-26T10:02:01.972Z</time></trkpt><trkpt lat="42.7924147" lon="13.0638694"><ele>559.5</ele><time>2026-04-26T10:02:02.972Z</time></trkpt><trkpt lat="42.7925899" lon="13.0641952"><ele>557.0</ele><time>2026-04-26T10:02:03.972Z</time></trkpt><trkpt lat="42.7927661" lon="13.0645281"><ele>562.5</ele><time>2026-04-26T10:02:04.972Z</time></trkpt><trkpt lat="42.7929453" lon="13.0648559"><ele>568.0</ele><time>2026-04-26T10:02:05.972Z</time></trkpt><trkpt lat="42.7931245" lon="13.0651824"><ele>568.0</ele><time>2026-04-26T10:02:06.972Z</time></trkpt><trkpt lat="42.793303" lon="13.0655178"><ele>568.0</ele><time>2026-04-26T10:02:07.972Z</time></trkpt><trkpt lat="42.7934799" lon="13.06586"><ele>572.0</ele><time>2026-04-26T10:02:08.973Z</time></trkpt><trkpt lat="42.7936683" lon="13.0662065"><ele>576.0</ele><time>2026-04-26T10:02:09.972Z</time></trkpt><trkpt lat="42.7938568" lon="13.0665502"><ele>569.5</ele><time>2026-04-26T10:02:10.972Z</time></trkpt><trkpt lat="42.7940426" lon="13.06689"><ele>563.0</ele><time>2026-04-26T10:02:11.972Z</time></trkpt><trkpt lat="42.7942205" lon="13.0672268"><ele>562.0</ele><time>2026-04-26T10:02:12.972Z</time></trkpt><trkpt lat="42.794399" lon="13.0675529"><ele>561.0</ele><time>2026-04-26T10:02:13.973Z</time></trkpt><trkpt lat="42.7945687" lon="13.0678693"><ele>561.0</ele><time>2026-04-26T10:02:14.973Z</time></trkpt><trkpt lat="42.7947345" lon="13.0681879"><ele>561.0</ele><time>2026-04-26T10:02:15.972Z</time></trkpt><trkpt lat="42.7948856" lon="13.0685116"><ele>560.0</ele><time>2026-04-26T10:02:16.972Z</time></trkpt><trkpt lat="42.7950165" lon="13.0688489"><ele>559.0</ele><time>2026-04-26T10:02:17.972Z</time></trkpt><trkpt lat="42.7951314" lon="13.0691954"><ele>559.5</ele><time>2026-04-26T10:02:18.972Z</time></trkpt><trkpt lat="42.7952328" lon="13.0695579"><ele>560.0</ele><time>2026-04-26T10:02:19.972Z</time></trkpt><trkpt lat="42.7953132" lon="13.0699268"><ele>559.0</ele><time>2026-04-26T10:02:20.972Z</time></trkpt><trkpt lat="42.7953691" lon="13.0703057"><ele>558.0</ele><time>2026-04-26T10:02:21.973Z</time></trkpt><trkpt lat="42.7954086" lon="13.0706942"><ele>558.5</ele><time>2026-04-26T10:02:22.972Z</time></trkpt><trkpt lat="42.7954504" lon="13.0710851"><ele>559.0</ele><time>2026-04-26T10:02:23.972Z</time></trkpt><trkpt lat="42.7954886" lon="13.0714449"><ele>560.0</ele><time>2026-04-26T10:02:24.972Z</time></trkpt><trkpt lat="42.7955302" lon="13.0717906"><ele>561.0</ele><time>2026-04-26T10:02:25.972Z</time></trkpt><trkpt lat="42.7955747" lon="13.0721537"><ele>562.0</ele><time>2026-04-26T10:02:26.972Z</time></trkpt><trkpt lat="42.795617" lon="13.0725325"><ele>563.0</ele><time>2026-04-26T10:02:27.972Z</time></trkpt><trkpt lat="42.7956626" lon="13.072924"><ele>560.5</ele><time>2026-04-26T10:02:28.972Z</time></trkpt><trkpt lat="42.7957055" lon="13.0733146"><ele>558.0</ele><time>2026-04-26T10:02:29.972Z</time></trkpt><trkpt lat="42.7957504" lon="13.0737057"><ele>557.5</ele><time>2026-04-26T10:02:30.972Z</time></trkpt><trkpt lat="42.7958009" lon="13.0741072"><ele>557.0</ele><time>2026-04-26T10:02:31.973Z</time></trkpt><trkpt lat="42.7958509" lon="13.0745059"><ele>557.0</ele><time>2026-04-26T10:02:32.972Z</time></trkpt><trkpt lat="42.7958893" lon="13.0749105"><ele>557.0</ele><time>2026-04-26T10:02:33.972Z</time></trkpt><trkpt lat="42.7959213" lon="13.0753145"><ele>557.0</ele><time>2026-04-26T10:02:34.972Z</time></trkpt><trkpt lat="42.795956" lon="13.0757012"><ele>557.0</ele><time>2026-04-26T10:02:35.973Z</time></trkpt><trkpt lat="42.7959905" lon="13.0760806"><ele>561.0</ele><time>2026-04-26T10:02:36.972Z</time></trkpt><trkpt lat="42.7960175" lon="13.0764499"><ele>565.0</ele><time>2026-04-26T10:02:37.972Z</time></trkpt><trkpt lat="42.7960242" lon="13.076821"><ele>567.0</ele><time>2026-04-26T10:02:38.972Z</time></trkpt><trkpt lat="42.7960108" lon="13.0772031"><ele>569.0</ele><time>2026-04-26T10:02:39.973Z</time></trkpt><trkpt lat="42.7959768" lon="13.0775869"><ele>563.0</ele><time>2026-04-26T10:02:40.973Z</time></trkpt><trkpt lat="42.7959311" lon="13.0779801"><ele>557.0</ele><time>2026-04-26T10:02:41.972Z</time></trkpt><trkpt lat="42.7958863" lon="13.0783708"><ele>557.0</ele><time>2026-04-26T10:02:42.973Z</time></trkpt><trkpt lat="42.7958424" lon="13.0787695"><ele>557.0</ele><time>2026-04-26T10:02:43.972Z</time></trkpt><trkpt lat="42.7958014" lon="13.0791712"><ele>558.5</ele><time>2026-04-26T10:02:44.972Z</time></trkpt><trkpt lat="42.795762" lon="13.0795785"><ele>560.0</ele><time>2026-04-26T10:02:45.973Z</time></trkpt><trkpt lat="42.795719" lon="13.0799835"><ele>560.0</ele><time>2026-04-26T10:02:46.973Z</time></trkpt><trkpt lat="42.7956768" lon="13.0803842"><ele>560.0</ele><time>2026-04-26T10:02:47.972Z</time></trkpt><trkpt lat="42.7956337" lon="13.0807717"><ele>561.0</ele><time>2026-04-26T10:02:48.973Z</time></trkpt><trkpt lat="42.7955933" lon="13.0811533"><ele>562.0</ele><time>2026-04-26T10:02:49.972Z</time></trkpt><trkpt lat="42.7955531" lon="13.0815299"><ele>561.5</ele><time>2026-04-26T10:02:50.972Z</time></trkpt><trkpt lat="42.7955031" lon="13.0819093"><ele>561.0</ele><time>2026-04-26T10:02:51.972Z</time></trkpt><trkpt lat="42.795443" lon="13.0822949"><ele>560.5</ele><time>2026-04-26T10:02:52.972Z</time></trkpt><trkpt lat="42.7953767" lon="13.0826824"><ele>560.0</ele><time>2026-04-26T10:02:53.973Z</time></trkpt><trkpt lat="42.7952933" lon="13.0830682"><ele>560.5</ele><time>2026-04-26T10:02:54.972Z</time></trkpt><trkpt lat="42.7951998" lon="13.0834389"><ele>561.0</ele><time>2026-04-26T10:02:55.973Z</time></trkpt><trkpt lat="42.7951049" lon="13.0838067"><ele>563.5</ele><time>2026-04-26T10:02:56.972Z</time></trkpt><trkpt lat="42.7950144" lon="13.084178"><ele>566.0</ele><time>2026-04-26T10:02:57.972Z</time></trkpt><trkpt lat="42.79493" lon="13.0845232"><ele>566.0</ele><time>2026-04-26T10:02:58.972Z</time></trkpt><trkpt lat="42.7948574" lon="13.0848351"><ele>566.0</ele><time>2026-04-26T10:02:59.973Z</time></trkpt><trkpt lat="42.7947852" lon="13.0851316"><ele>566.3333333333333</ele><time>2026-04-26T10:03:00.972Z</time></trkpt><trkpt lat="42.794719" lon="13.0853969"><ele>566.6666666666666</ele><time>2026-04-26T10:03:01.972Z</time></trkpt><trkpt lat="42.7946583" lon="13.0856502"><ele>567.0</ele><time>2026-04-26T10:03:02.972Z</time></trkpt><trkpt lat="42.7946085" lon="13.085896"><ele>568.3333333333334</ele><time>2026-04-26T10:03:03.972Z</time></trkpt><trkpt lat="42.7945771" lon="13.0861288"><ele>569.6666666666667</ele><time>2026-04-26T10:03:04.972Z</time></trkpt><trkpt lat="42.7945707" lon="13.0863513"><ele>571.0</ele><time>2026-04-26T10:03:05.972Z</time></trkpt><trkpt lat="42.794575" lon="13.0865783"><ele>574.0</ele><time>2026-04-26T10:03:06.972Z</time></trkpt><trkpt lat="42.7945862" lon="13.086809"><ele>577.0</ele><time>2026-04-26T10:03:07.972Z</time></trkpt><trkpt lat="42.7946106" lon="13.0870265"><ele>580.0</ele><time>2026-04-26T10:03:08.972Z</time></trkpt><trkpt lat="42.794658" lon="13.0872232"><ele>580.0</ele><time>2026-04-26T10:03:09.972Z</time></trkpt><trkpt lat="42.7947112" lon="13.0873953"><ele>580.0</ele><time>2026-04-26T10:03:10.972Z</time></trkpt><trkpt lat="42.7947656" lon="13.0875627"><ele>580.0</ele><time>2026-04-26T10:03:11.972Z</time></trkpt><trkpt lat="42.7948136" lon="13.0877284"><ele>580.0</ele><time>2026-04-26T10:03:12.972Z</time></trkpt><trkpt lat="42.7948629" lon="13.0878943"><ele>581.0</ele><time>2026-04-26T10:03:13.972Z</time></trkpt><trkpt lat="42.7949167" lon="13.0880589"><ele>582.0</ele><time>2026-04-26T10:03:14.973Z</time></trkpt><trkpt lat="42.7949694" lon="13.088219"><ele>583.0</ele><time>2026-04-26T10:03:15.972Z</time></trkpt><trkpt lat="42.7950179" lon="13.0883654"><ele>584.0</ele><time>2026-04-26T10:03:16.972Z</time></trkpt><trkpt lat="42.7950553" lon="13.0885"><ele>584.4</ele><time>2026-04-26T10:03:17.972Z</time></trkpt><trkpt lat="42.7950922" lon="13.0886249"><ele>584.8</ele><time>2026-04-26T10:03:18.972Z</time></trkpt><trkpt lat="42.7951211" lon="13.0887292"><ele>585.2</ele><time>2026-04-26T10:03:19.973Z</time></trkpt><trkpt lat="42.7951418" lon="13.0888186"><ele>585.6</ele><time>2026-04-26T10:03:20.972Z</time></trkpt><trkpt lat="42.7951861" lon="13.0889721"><ele>586.0</ele><time>2026-04-26T10:03:22.972Z</time></trkpt><trkpt lat="42.7952324" lon="13.0891186"><ele>586.6666666666667</ele><time>2026-04-26T10:03:24.973Z</time></trkpt><trkpt lat="42.7952803" lon="13.0892849"><ele>587.3333333333334</ele><time>2026-04-26T10:03:26.973Z</time></trkpt><trkpt lat="42.7953075" lon="13.0893719"><ele>588.0</ele><time>2026-04-26T10:03:27.972Z</time></trkpt><trkpt lat="42.7953345" lon="13.0894511"><ele>588.6666666666666</ele><time>2026-04-26T10:03:28.972Z</time></trkpt><trkpt lat="42.7953612" lon="13.0895364"><ele>589.3333333333333</ele><time>2026-04-26T10:03:29.972Z</time></trkpt><trkpt lat="42.7953903" lon="13.0896275"><ele>590.0</ele><time>2026-04-26T10:03:30.973Z</time></trkpt><trkpt lat="42.795414" lon="13.0897162"><ele>590.0</ele><time>2026-04-26T10:03:31.972Z</time></trkpt><trkpt lat="42.7954401" lon="13.0898056"><ele>590.0</ele><time>2026-04-26T10:03:32.972Z</time></trkpt><trkpt lat="42.795466" lon="13.0898964"><ele>590.0</ele><time>2026-04-26T10:03:33.973Z</time></trkpt><trkpt lat="42.7954903" lon="13.0899889"><ele>590.0</ele><time>2026-04-26T10:03:34.972Z</time></trkpt><trkpt lat="42.7955112" lon="13.0900852"><ele>590.0</ele><time>2026-04-26T10:03:35.973Z</time></trkpt><trkpt lat="42.795521" lon="13.0902432"><ele>590.0</ele><time>2026-04-26T10:03:37.972Z</time></trkpt><trkpt lat="42.7955015" lon="13.0903988"><ele>590.0</ele><time>2026-04-26T10:03:38.972Z</time></trkpt><trkpt lat="42.7954368" lon="13.0905007"><ele>590.0</ele><time>2026-04-26T10:03:40.98Z</time></trkpt><trkpt lat="42.7953184" lon="13.0905655"><ele>590.0</ele><time>2026-04-26T10:03:42.979Z</time></trkpt><trkpt lat="42.7952393" lon="13.0905818"><ele>590.0</ele><time>2026-04-26T10:03:43.979Z</time></trkpt><trkpt lat="42.7951531" lon="13.0905762"><ele>590.0</ele><time>2026-04-26T10:03:44.979Z</time></trkpt><trkpt lat="42.7950621" lon="13.0905467"><ele>590.0</ele><time>2026-04-26T10:03:45.98Z</time></trkpt><trkpt lat="42.79497" lon="13.0904685"><ele>590.0</ele><time>2026-04-26T10:03:46.979Z</time></trkpt><trkpt lat="42.7948755" lon="13.0903504"><ele>590.0</ele><time>2026-04-26T10:03:47.979Z</time></trkpt><trkpt lat="42.7947677" lon="13.0902354"><ele>590.0</ele><time>2026-04-26T10:03:48.979Z</time></trkpt><trkpt lat="42.7946952" lon="13.0901329"><ele>590.0</ele><time>2026-04-26T10:03:49.98Z</time></trkpt><trkpt lat="42.794615" lon="13.090034"><ele>590.0</ele><time>2026-04-26T10:03:50.98Z</time></trkpt><trkpt lat="42.7945375" lon="13.0899355"><ele>590.0</ele><time>2026-04-26T10:03:51.98Z</time></trkpt><trkpt lat="42.7944617" lon="13.0898497"><ele>590.0</ele><time>2026-04-26T10:03:52.979Z</time></trkpt><trkpt lat="42.7943842" lon="13.0897715"><ele>590.0</ele><time>2026-04-26T10:03:53.98Z</time></trkpt><trkpt lat="42.7943119" lon="13.0896994"><ele>589.1666666666666</ele><time>2026-04-26T10:03:54.98Z</time></trkpt><trkpt lat="42.7942437" lon="13.0896288"><ele>588.3333333333333</ele><time>2026-04-26T10:03:55.979Z</time></trkpt><trkpt lat="42.7941826" lon="13.0895646"><ele>587.5</ele><time>2026-04-26T10:03:56.979Z</time></trkpt><trkpt lat="42.7941141" lon="13.0895018"><ele>586.6666666666666</ele><time>2026-04-26T10:03:57.979Z</time></trkpt><trkpt lat="42.7940368" lon="13.089433"><ele>585.8333333333334</ele><time>2026-04-26T10:03:58.979Z</time></trkpt><trkpt lat="42.793945" lon="13.0893604"><ele>585.0</ele><time>2026-04-26T10:03:59.979Z</time></trkpt><trkpt lat="42.7938444" lon="13.0892948"><ele>585.0</ele><time>2026-04-26T10:04:00.979Z</time></trkpt><trkpt lat="42.7937355" lon="13.0892486"><ele>585.0</ele><time>2026-04-26T10:04:01.979Z</time></trkpt><trkpt lat="42.7936201" lon="13.0892341"><ele>585.0</ele><time>2026-04-26T10:04:02.979Z</time></trkpt><trkpt lat="42.7935009" lon="13.0892486"><ele>585.0</ele><time>2026-04-26T10:04:03.979Z</time></trkpt><trkpt lat="42.7933876" lon="13.0892863"><ele>584.75</ele><time>2026-04-26T10:04:04.979Z</time></trkpt><trkpt lat="42.7932731" lon="13.0893603"><ele>584.5</ele><time>2026-04-26T10:04:05.979Z</time></trkpt><trkpt lat="42.7931582" lon="13.0894681"><ele>584.25</ele><time>2026-04-26T10:04:06.979Z</time></trkpt><trkpt lat="42.7930305" lon="13.0895824"><ele>584.0</ele><time>2026-04-26T10:04:07.979Z</time></trkpt><trkpt lat="42.7929084" lon="13.0897056"><ele>584.0</ele><time>2026-04-26T10:04:08.979Z</time></trkpt><trkpt lat="42.7927881" lon="13.0898355"><ele>584.0</ele><time>2026-04-26T10:04:09.979Z</time></trkpt><trkpt lat="42.7926701" lon="13.0899583"><ele>584.0</ele><time>2026-04-26T10:04:10.979Z</time></trkpt><trkpt lat="42.7925541" lon="13.0900773"><ele>584.0</ele><time>2026-04-26T10:04:11.979Z</time></trkpt><trkpt lat="42.7924401" lon="13.0901962"><ele>584.25</ele><time>2026-04-26T10:04:12.979Z</time></trkpt><trkpt lat="42.7923315" lon="13.0903136"><ele>584.5</ele><time>2026-04-26T10:04:13.98Z</time></trkpt><trkpt lat="42.792234" lon="13.090423"><ele>584.75</ele><time>2026-04-26T10:04:14.979Z</time></trkpt><trkpt lat="42.7921452" lon="13.0905257"><ele>585.0</ele><time>2026-04-26T10:04:15.98Z</time></trkpt><trkpt lat="42.7920647" lon="13.0906282"><ele>585.0</ele><time>2026-04-26T10:04:16.979Z</time></trkpt><trkpt lat="42.7919909" lon="13.0907277"><ele>585.0</ele><time>2026-04-26T10:04:17.979Z</time></trkpt><trkpt lat="42.7919255" lon="13.090822"><ele>585.0</ele><time>2026-04-26T10:04:18.979Z</time></trkpt><trkpt lat="42.7918585" lon="13.0909087"><ele>585.0</ele><time>2026-04-26T10:04:19.98Z</time></trkpt><trkpt lat="42.7917846" lon="13.0909882"><ele>585.0</ele><time>2026-04-26T10:04:20.98Z</time></trkpt><trkpt lat="42.7916871" lon="13.0910658"><ele>584.6</ele><time>2026-04-26T10:04:21.979Z</time></trkpt><trkpt lat="42.7916081" lon="13.0911501"><ele>584.2</ele><time>2026-04-26T10:04:22.98Z</time></trkpt><trkpt lat="42.7915311" lon="13.0912307"><ele>583.8</ele><time>2026-04-26T10:04:23.98Z</time></trkpt><trkpt lat="42.7914626" lon="13.0913108"><ele>583.4</ele><time>2026-04-26T10:04:24.979Z</time></trkpt><trkpt lat="42.7914074" lon="13.0913901"><ele>583.0</ele><time>2026-04-26T10:04:25.979Z</time></trkpt><trkpt lat="42.7913473" lon="13.0914828"><ele>583.0</ele><time>2026-04-26T10:04:26.98Z</time></trkpt><trkpt lat="42.7912846" lon="13.0915859"><ele>583.0</ele><time>2026-04-26T10:04:27.98Z</time></trkpt><trkpt lat="42.7912076" lon="13.0916826"><ele>583.0</ele><time>2026-04-26T10:04:28.979Z</time></trkpt><trkpt lat="42.7911399" lon="13.0917754"><ele>583.0</ele><time>2026-04-26T10:04:29.979Z</time></trkpt><trkpt lat="42.7910821" lon="13.0918506"><ele>583.0</ele><time>2026-04-26T10:04:30.98Z</time></trkpt><trkpt lat="42.7910272" lon="13.0919241"><ele>583.5</ele><time>2026-04-26T10:04:31.979Z</time></trkpt><trkpt lat="42.7909713" lon="13.091994"><ele>584.0</ele><time>2026-04-26T10:04:32.979Z</time></trkpt><trkpt lat="42.7908985" lon="13.0921222"><ele>584.5</ele><time>2026-04-26T10:04:34.979Z</time></trkpt><trkpt lat="42.7908438" lon="13.092179"><ele>585.0</ele><time>2026-04-26T10:04:35.979Z</time></trkpt><trkpt lat="42.7907922" lon="13.0922383"><ele>585.5</ele><time>2026-04-26T10:04:36.979Z</time></trkpt><trkpt lat="42.7907406" lon="13.0922959"><ele>586.0</ele><time>2026-04-26T10:04:37.979Z</time></trkpt><trkpt lat="42.790686" lon="13.0923499"><ele>585.9999999999999</ele><time>2026-04-26T10:04:38.98Z</time></trkpt><trkpt lat="42.790632" lon="13.0924055"><ele>586.0</ele><time>2026-04-26T10:04:39.979Z</time></trkpt><trkpt lat="42.7905772" lon="13.0924626"><ele>586.0</ele><time>2026-04-26T10:04:40.979Z</time></trkpt><trkpt lat="42.7905191" lon="13.0925185"><ele>586.0</ele><time>2026-04-26T10:04:41.98Z</time></trkpt><trkpt lat="42.7904647" lon="13.0925701"><ele>586.0</ele><time>2026-04-26T10:04:42.979Z</time></trkpt><trkpt lat="42.7904065" lon="13.0926273"><ele>585.9999999999999</ele><time>2026-04-26T10:04:43.979Z</time></trkpt><trkpt lat="42.7903508" lon="13.0926889"><ele>586.0</ele><time>2026-04-26T10:04:44.979Z</time></trkpt><trkpt lat="42.7903004" lon="13.0927498"><ele>586.0</ele><time>2026-04-26T10:04:45.979Z</time></trkpt><trkpt lat="42.7902094" lon="13.0928524"><ele>586.0</ele><time>2026-04-26T10:04:47.979Z</time></trkpt><trkpt lat="42.7901343" lon="13.092957"><ele>586.0</ele><time>2026-04-26T10:04:49.979Z</time></trkpt><trkpt lat="42.7900633" lon="13.0930607"><ele>586.0</ele><time>2026-04-26T10:04:51.979Z</time></trkpt><trkpt lat="42.7900013" lon="13.0931946"><ele>586.0</ele><time>2026-04-26T10:04:53.979Z</time></trkpt><trkpt lat="42.7899786" lon="13.0933611"><ele>587.0</ele><time>2026-04-26T10:04:55.979Z</time></trkpt><trkpt lat="42.7899761" lon="13.0934481"><ele>588.0</ele><time>2026-04-26T10:04:56.979Z</time></trkpt><trkpt lat="42.7899857" lon="13.0936083"><ele>589.0</ele><time>2026-04-26T10:04:58.979Z</time></trkpt><trkpt lat="42.7899912" lon="13.093748"><ele>590.0</ele><time>2026-04-26T10:05:00.979Z</time></trkpt><trkpt lat="42.7899852" lon="13.0938395"><ele>591.0</ele><time>2026-04-26T10:05:01.979Z</time></trkpt><trkpt lat="42.7899619" lon="13.0939511"><ele>592.0</ele><time>2026-04-26T10:05:02.98Z</time></trkpt><trkpt lat="42.7899445" lon="13.0940761"><ele>592.2</ele><time>2026-04-26T10:05:03.979Z</time></trkpt><trkpt lat="42.7899259" lon="13.0942094"><ele>592.4000000000001</ele><time>2026-04-26T10:05:04.98Z</time></trkpt><trkpt lat="42.7899106" lon="13.0943446"><ele>592.5999999999999</ele><time>2026-04-26T10:05:05.98Z</time></trkpt><trkpt lat="42.7898981" lon="13.0944617"><ele>592.8</ele><time>2026-04-26T10:05:06.979Z</time></trkpt><trkpt lat="42.789882" lon="13.0945814"><ele>593.0</ele><time>2026-04-26T10:05:07.979Z</time></trkpt><trkpt lat="42.7898733" lon="13.0946906"><ele>593.0</ele><time>2026-04-26T10:05:08.979Z</time></trkpt><trkpt lat="42.7898541" lon="13.0947862"><ele>593.0</ele><time>2026-04-26T10:05:09.98Z</time></trkpt><trkpt lat="42.7898293" lon="13.0948702"><ele>593.0</ele><time>2026-04-26T10:05:10.979Z</time></trkpt><trkpt lat="42.7897651" lon="13.0950201"><ele>593.0</ele><time>2026-04-26T10:05:12.979Z</time></trkpt><trkpt lat="42.789712" lon="13.0951663"><ele>593.0</ele><time>2026-04-26T10:05:14.979Z</time></trkpt><trkpt lat="42.7896763" lon="13.0952977"><ele>593.1999999999999</ele><time>2026-04-26T10:05:16.98Z</time></trkpt><trkpt lat="42.7896416" lon="13.0953757"><ele>593.4</ele><time>2026-04-26T10:05:18.98Z</time></trkpt><trkpt lat="42.7895627" lon="13.0954376"><ele>593.5999999999999</ele><time>2026-04-26T10:05:20.98Z</time></trkpt><trkpt lat="42.7894324" lon="13.0954872"><ele>593.8</ele><time>2026-04-26T10:05:22.98Z</time></trkpt><trkpt lat="42.7893466" lon="13.0955181"><ele>594.0</ele><time>2026-04-26T10:05:23.98Z</time></trkpt><trkpt lat="42.7892442" lon="13.0955587"><ele>594.25</ele><time>2026-04-26T10:05:24.979Z</time></trkpt><trkpt lat="42.7891285" lon="13.0956263"><ele>594.5</ele><time>2026-04-26T10:05:25.98Z</time></trkpt><trkpt lat="42.7890126" lon="13.0956781"><ele>594.75</ele><time>2026-04-26T10:05:26.98Z</time></trkpt><trkpt lat="42.7889078" lon="13.0957424"><ele>595.0</ele><time>2026-04-26T10:05:27.979Z</time></trkpt><trkpt lat="42.7887689" lon="13.0958705"><ele>595.0</ele><time>2026-04-26T10:05:28.979Z</time></trkpt><trkpt lat="42.7886804" lon="13.0959235"><ele>595.0</ele><time>2026-04-26T10:05:29.98Z</time></trkpt><trkpt lat="42.7885754" lon="13.0959641"><ele>595.0</ele><time>2026-04-26T10:05:30.979Z</time></trkpt><trkpt lat="42.7884627" lon="13.0960197"><ele>595.0</ele><time>2026-04-26T10:05:31.979Z</time></trkpt><trkpt lat="42.7883472" lon="13.0960713"><ele>595.0</ele><time>2026-04-26T10:05:32.979Z</time></trkpt><trkpt lat="42.7882278" lon="13.0961209"><ele>593.6</ele><time>2026-04-26T10:05:33.979Z</time></trkpt><trkpt lat="42.788112" lon="13.0961701"><ele>592.2</ele><time>2026-04-26T10:05:34.979Z</time></trkpt><trkpt lat="42.7880044" lon="13.0962146"><ele>590.8</ele><time>2026-04-26T10:05:35.979Z</time></trkpt><trkpt lat="42.7879066" lon="13.0962599"><ele>589.4</ele><time>2026-04-26T10:05:36.979Z</time></trkpt><trkpt lat="42.7878074" lon="13.0962981"><ele>588.0</ele><time>2026-04-26T10:05:37.979Z</time></trkpt><trkpt lat="42.7877126" lon="13.0963423"><ele>587.4</ele><time>2026-04-26T10:05:38.979Z</time></trkpt><trkpt lat="42.7876141" lon="13.0963847"><ele>586.8</ele><time>2026-04-26T10:05:39.979Z</time></trkpt><trkpt lat="42.7875172" lon="13.0964228"><ele>586.2</ele><time>2026-04-26T10:05:40.979Z</time></trkpt><trkpt lat="42.7874228" lon="13.0964605"><ele>585.6</ele><time>2026-04-26T10:05:41.979Z</time></trkpt><trkpt lat="42.7873283" lon="13.0964987"><ele>585.0</ele><time>2026-04-26T10:05:42.979Z</time></trkpt><trkpt lat="42.7872347" lon="13.0965342"><ele>585.0</ele><time>2026-04-26T10:05:43.979Z</time></trkpt><trkpt lat="42.7871404" lon="13.0965683"><ele>585.0</ele><time>2026-04-26T10:05:44.979Z</time></trkpt><trkpt lat="42.7870478" lon="13.0966052"><ele>585.0</ele><time>2026-04-26T10:05:45.979Z</time></trkpt><trkpt lat="42.7869516" lon="13.0966407"><ele>585.0</ele><time>2026-04-26T10:05:46.979Z</time></trkpt><trkpt lat="42.7868588" lon="13.0966764"><ele>585.0</ele><time>2026-04-26T10:05:47.979Z</time></trkpt><trkpt lat="42.7867635" lon="13.0967111"><ele>585.8</ele><time>2026-04-26T10:05:48.979Z</time></trkpt><trkpt lat="42.7866661" lon="13.0967484"><ele>586.6</ele><time>2026-04-26T10:05:49.979Z</time></trkpt><trkpt lat="42.7865708" lon="13.0967857"><ele>587.4</ele><time>2026-04-26T10:05:50.979Z</time></trkpt><trkpt lat="42.786471" lon="13.0968219"><ele>588.2</ele><time>2026-04-26T10:05:51.979Z</time></trkpt><trkpt lat="42.78637" lon="13.0968685"><ele>589.0</ele><time>2026-04-26T10:05:52.979Z</time></trkpt><trkpt lat="42.7862709" lon="13.0969048"><ele>589.0</ele><time>2026-04-26T10:05:53.979Z</time></trkpt><trkpt lat="42.7861714" lon="13.0969429"><ele>589.0</ele><time>2026-04-26T10:05:54.979Z</time></trkpt><trkpt lat="42.7860724" lon="13.0969764"><ele>589.0</ele><time>2026-04-26T10:05:55.979Z</time></trkpt><trkpt lat="42.785974" lon="13.0970129"><ele>589.0</ele><time>2026-04-26T10:05:56.98Z</time></trkpt><trkpt lat="42.7858781" lon="13.0970513"><ele>589.0</ele><time>2026-04-26T10:05:57.98Z</time></trkpt><trkpt lat="42.7857844" lon="13.0970859"><ele>589.2</ele><time>2026-04-26T10:05:58.979Z</time></trkpt><trkpt lat="42.78569" lon="13.0971237"><ele>589.4</ele><time>2026-04-26T10:05:59.979Z</time></trkpt><trkpt lat="42.7855967" lon="13.0971609"><ele>589.6</ele><time>2026-04-26T10:06:00.979Z</time></trkpt><trkpt lat="42.7855054" lon="13.0971962"><ele>589.8</ele><time>2026-04-26T10:06:01.979Z</time></trkpt><trkpt lat="42.7854246" lon="13.0972334"><ele>590.0</ele><time>2026-04-26T10:06:02.979Z</time></trkpt><trkpt lat="42.78534" lon="13.0972692"><ele>590.0</ele><time>2026-04-26T10:06:03.979Z</time></trkpt><trkpt lat="42.7852501" lon="13.097308"><ele>590.0</ele><time>2026-04-26T10:06:04.979Z</time></trkpt><trkpt lat="42.7851608" lon="13.0973426"><ele>590.0</ele><time>2026-04-26T10:06:05.98Z</time></trkpt><trkpt lat="42.7850742" lon="13.097374"><ele>590.0</ele><time>2026-04-26T10:06:06.979Z</time></trkpt><trkpt lat="42.7849859" lon="13.0974081"><ele>590.0</ele><time>2026-04-26T10:06:07.98Z</time></trkpt><trkpt lat="42.7848945" lon="13.0974434"><ele>590.4</ele><time>2026-04-26T10:06:08.979Z</time></trkpt><trkpt lat="42.7848018" lon="13.0974803"><ele>590.8</ele><time>2026-04-26T10:06:09.979Z</time></trkpt><trkpt lat="42.7847061" lon="13.0975139"><ele>591.2</ele><time>2026-04-26T10:06:10.979Z</time></trkpt><trkpt lat="42.7846117" lon="13.0975502"><ele>591.6</ele><time>2026-04-26T10:06:11.98Z</time></trkpt><trkpt lat="42.7845152" lon="13.097586"><ele>592.0</ele><time>2026-04-26T10:06:12.979Z</time></trkpt><trkpt lat="42.784415" lon="13.0976236"><ele>592.4</ele><time>2026-04-26T10:06:13.979Z</time></trkpt><trkpt lat="42.7843133" lon="13.0976595"><ele>592.8000000000001</ele><time>2026-04-26T10:06:14.979Z</time></trkpt><trkpt lat="42.7842202" lon="13.097701"><ele>593.2</ele><time>2026-04-26T10:06:15.98Z</time></trkpt><trkpt lat="42.7841289" lon="13.0977361"><ele>593.6</ele><time>2026-04-26T10:06:16.979Z</time></trkpt><trkpt lat="42.7840383" lon="13.0977667"><ele>594.0</ele><time>2026-04-26T10:06:17.979Z</time></trkpt><trkpt lat="42.7839503" lon="13.0978034"><ele>594.0</ele><time>2026-04-26T10:06:18.979Z</time></trkpt><trkpt lat="42.7838611" lon="13.0978382"><ele>594.0</ele><time>2026-04-26T10:06:19.979Z</time></trkpt><trkpt lat="42.783784" lon="13.0978702"><ele>594.0</ele><time>2026-04-26T10:06:20.979Z</time></trkpt><trkpt lat="42.7837127" lon="13.0979025"><ele>594.0</ele><time>2026-04-26T10:06:21.979Z</time></trkpt><trkpt lat="42.7836108" lon="13.097947"><ele>594.0</ele><time>2026-04-26T10:06:22.98Z</time></trkpt><trkpt lat="42.7834742" lon="13.0979929"><ele>596.0</ele><time>2026-04-26T10:06:23.979Z</time></trkpt><trkpt lat="42.7833155" lon="13.0980472"><ele>598.0</ele><time>2026-04-26T10:06:24.979Z</time></trkpt><trkpt lat="42.7831606" lon="13.0980912"><ele>600.0</ele><time>2026-04-26T10:06:25.979Z</time></trkpt><trkpt lat="42.7830088" lon="13.0981337"><ele>600.0</ele><time>2026-04-26T10:06:26.979Z</time></trkpt><trkpt lat="42.782876" lon="13.0981858"><ele>600.0</ele><time>2026-04-26T10:06:27.979Z</time></trkpt><trkpt lat="42.7827577" lon="13.0982473"><ele>600.0</ele><time>2026-04-26T10:06:28.979Z</time></trkpt><trkpt lat="42.7826263" lon="13.0982912"><ele>600.0</ele><time>2026-04-26T10:06:29.979Z</time></trkpt><trkpt lat="42.7825031" lon="13.0983403"><ele>600.25</ele><time>2026-04-26T10:06:30.979Z</time></trkpt><trkpt lat="42.7823851" lon="13.0983873"><ele>600.5</ele><time>2026-04-26T10:06:31.979Z</time></trkpt><trkpt lat="42.7822881" lon="13.0984345"><ele>600.75</ele><time>2026-04-26T10:06:32.979Z</time></trkpt><trkpt lat="42.7821757" lon="13.0984875"><ele>601.0</ele><time>2026-04-26T10:06:33.979Z</time></trkpt><trkpt lat="42.7820586" lon="13.0985376"><ele>601.0</ele><time>2026-04-26T10:06:34.979Z</time></trkpt><trkpt lat="42.7819311" lon="13.0985987"><ele>601.0</ele><time>2026-04-26T10:06:35.98Z</time></trkpt><trkpt lat="42.7817973" lon="13.0986585"><ele>601.0</ele><time>2026-04-26T10:06:36.98Z</time></trkpt><trkpt lat="42.7816531" lon="13.0987106"><ele>601.0</ele><time>2026-04-26T10:06:37.979Z</time></trkpt><trkpt lat="42.781506" lon="13.0987595"><ele>602.0</ele><time>2026-04-26T10:06:38.979Z</time></trkpt><trkpt lat="42.7813556" lon="13.098808"><ele>603.0</ele><time>2026-04-26T10:06:39.98Z</time></trkpt><trkpt lat="42.7812096" lon="13.0988632"><ele>604.0</ele><time>2026-04-26T10:06:40.98Z</time></trkpt><trkpt lat="42.7810622" lon="13.0989113"><ele>605.0</ele><time>2026-04-26T10:06:41.979Z</time></trkpt><trkpt lat="42.7809057" lon="13.0989695"><ele>606.0</ele><time>2026-04-26T10:06:42.98Z</time></trkpt><trkpt lat="42.7807382" lon="13.0990291"><ele>607.0</ele><time>2026-04-26T10:06:43.98Z</time></trkpt><trkpt lat="42.7805654" lon="13.0990881"><ele>607.0</ele><time>2026-04-26T10:06:44.979Z</time></trkpt><trkpt lat="42.7803805" lon="13.0991647"><ele>607.0</ele><time>2026-04-26T10:06:45.979Z</time></trkpt><trkpt lat="42.7801833" lon="13.099231"><ele>607.0</ele><time>2026-04-26T10:06:46.979Z</time></trkpt><trkpt lat="42.7799812" lon="13.099304"><ele>608.0</ele><time>2026-04-26T10:06:47.979Z</time></trkpt><trkpt lat="42.7797765" lon="13.0993803"><ele>609.0</ele><time>2026-04-26T10:06:48.979Z</time></trkpt><trkpt lat="42.7795816" lon="13.0994563"><ele>610.0</ele><time>2026-04-26T10:06:49.979Z</time></trkpt><trkpt lat="42.7793955" lon="13.09953"><ele>610.6666666666667</ele><time>2026-04-26T10:06:50.98Z</time></trkpt><trkpt lat="42.7792117" lon="13.0996017"><ele>611.3333333333334</ele><time>2026-04-26T10:06:51.979Z</time></trkpt><trkpt lat="42.7790346" lon="13.0996738"><ele>612.0</ele><time>2026-04-26T10:06:52.979Z</time></trkpt><trkpt lat="42.7788597" lon="13.0997439"><ele>612.0</ele><time>2026-04-26T10:06:53.979Z</time></trkpt><trkpt lat="42.7786776" lon="13.0998145"><ele>612.0</ele><time>2026-04-26T10:06:54.979Z</time></trkpt><trkpt lat="42.7785035" lon="13.0998873"><ele>612.0</ele><time>2026-04-26T10:06:55.979Z</time></trkpt><trkpt lat="42.7783309" lon="13.0999525"><ele>613.3333333333334</ele><time>2026-04-26T10:06:56.979Z</time></trkpt><trkpt lat="42.7781606" lon="13.1000196"><ele>614.6666666666667</ele><time>2026-04-26T10:06:57.979Z</time></trkpt><trkpt lat="42.7779902" lon="13.1000862"><ele>616.0</ele><time>2026-04-26T10:06:58.98Z</time></trkpt><trkpt lat="42.777821" lon="13.1001521"><ele>617.3333333333334</ele><time>2026-04-26T10:06:59.979Z</time></trkpt><trkpt lat="42.7776501" lon="13.1002142"><ele>618.6666666666666</ele><time>2026-04-26T10:07:00.979Z</time></trkpt><trkpt lat="42.7774807" lon="13.1002771"><ele>620.0</ele><time>2026-04-26T10:07:01.98Z</time></trkpt><trkpt lat="42.7773175" lon="13.1003443"><ele>620.0</ele><time>2026-04-26T10:07:02.979Z</time></trkpt><trkpt lat="42.7771541" lon="13.1004114"><ele>620.0</ele><time>2026-04-26T10:07:03.98Z</time></trkpt><trkpt lat="42.7769891" lon="13.1004697"><ele>620.0</ele><time>2026-04-26T10:07:04.979Z</time></trkpt><trkpt lat="42.776826" lon="13.1005331"><ele>620.6666666666666</ele><time>2026-04-26T10:07:05.979Z</time></trkpt><trkpt lat="42.7766622" lon="13.1005963"><ele>621.3333333333334</ele><time>2026-04-26T10:07:06.98Z</time></trkpt><trkpt lat="42.7765016" lon="13.1006631"><ele>622.0</ele><time>2026-04-26T10:07:07.979Z</time></trkpt><trkpt lat="42.7763405" lon="13.1007257"><ele>622.3333333333334</ele><time>2026-04-26T10:07:08.979Z</time></trkpt><trkpt lat="42.7761787" lon="13.1007914"><ele>622.6666666666666</ele><time>2026-04-26T10:07:09.979Z</time></trkpt><trkpt lat="42.7760222" lon="13.1008568"><ele>623.0</ele><time>2026-04-26T10:07:10.98Z</time></trkpt><trkpt lat="42.7758681" lon="13.1009292"><ele>624.6666666666666</ele><time>2026-04-26T10:07:11.979Z</time></trkpt><trkpt lat="42.7757229" lon="13.1010022"><ele>626.3333333333334</ele><time>2026-04-26T10:07:12.979Z</time></trkpt><trkpt lat="42.775575" lon="13.1010794"><ele>628.0</ele><time>2026-04-26T10:07:13.979Z</time></trkpt><trkpt lat="42.7754242" lon="13.1011443"><ele>628.0</ele><time>2026-04-26T10:07:14.979Z</time></trkpt><trkpt lat="42.7752773" lon="13.1012014"><ele>628.0</ele><time>2026-04-26T10:07:15.979Z</time></trkpt><trkpt lat="42.7751267" lon="13.1012596"><ele>628.0</ele><time>2026-04-26T10:07:16.979Z</time></trkpt><trkpt lat="42.7749774" lon="13.101322"><ele>629.0</ele><time>2026-04-26T10:07:17.979Z</time></trkpt><trkpt lat="42.774827" lon="13.1013793"><ele>630.0</ele><time>2026-04-26T10:07:18.979Z</time></trkpt><trkpt lat="42.7746795" lon="13.1014234"><ele>631.0</ele><time>2026-04-26T10:07:19.979Z</time></trkpt><trkpt lat="42.7745366" lon="13.1014753"><ele>631.0</ele><time>2026-04-26T10:07:20.979Z</time></trkpt><trkpt lat="42.774391" lon="13.1015318"><ele>631.0</ele><time>2026-04-26T10:07:21.979Z</time></trkpt><trkpt lat="42.7742407" lon="13.1015881"><ele>631.0</ele><time>2026-04-26T10:07:22.979Z</time></trkpt><trkpt lat="42.7740854" lon="13.1016462"><ele>632.3333333333334</ele><time>2026-04-26T10:07:23.979Z</time></trkpt><trkpt lat="42.7739293" lon="13.1016962"><ele>633.6666666666666</ele><time>2026-04-26T10:07:24.979Z</time></trkpt><trkpt lat="42.7737891" lon="13.1017451"><ele>635.0</ele><time>2026-04-26T10:07:25.98Z</time></trkpt><trkpt lat="42.7736441" lon="13.101806"><ele>636.0</ele><time>2026-04-26T10:07:26.979Z</time></trkpt><trkpt lat="42.7735046" lon="13.1018655"><ele>637.0</ele><time>2026-04-26T10:07:27.979Z</time></trkpt><trkpt lat="42.7733649" lon="13.101921"><ele>638.0</ele><time>2026-04-26T10:07:28.979Z</time></trkpt><trkpt lat="42.7732257" lon="13.1019764"><ele>639.0</ele><time>2026-04-26T10:07:29.979Z</time></trkpt><trkpt lat="42.7730876" lon="13.1020332"><ele>639.0</ele><time>2026-04-26T10:07:30.98Z</time></trkpt><trkpt lat="42.772951" lon="13.1020895"><ele>639.0</ele><time>2026-04-26T10:07:31.98Z</time></trkpt><trkpt lat="42.7728106" lon="13.1021458"><ele>639.0</ele><time>2026-04-26T10:07:32.979Z</time></trkpt><trkpt lat="42.7726646" lon="13.1022025"><ele>639.0</ele><time>2026-04-26T10:07:33.98Z</time></trkpt><trkpt lat="42.7725186" lon="13.1022579"><ele>639.6666666666666</ele><time>2026-04-26T10:07:34.98Z</time></trkpt><trkpt lat="42.7723688" lon="13.1023138"><ele>640.3333333333333</ele><time>2026-04-26T10:07:35.98Z</time></trkpt><trkpt lat="42.7722122" lon="13.1023673"><ele>641.0</ele><time>2026-04-26T10:07:36.979Z</time></trkpt><trkpt lat="42.7720529" lon="13.1024185"><ele>641.3333333333333</ele><time>2026-04-26T10:07:37.98Z</time></trkpt><trkpt lat="42.7718873" lon="13.1024684"><ele>641.6666666666666</ele><time>2026-04-26T10:07:38.98Z</time></trkpt><trkpt lat="42.7717432" lon="13.1025299"><ele>642.0</ele><time>2026-04-26T10:07:39.979Z</time></trkpt><trkpt lat="42.7716119" lon="13.1025889"><ele>643.0</ele><time>2026-04-26T10:07:40.98Z</time></trkpt><trkpt lat="42.7714843" lon="13.1026345"><ele>644.0</ele><time>2026-04-26T10:07:41.979Z</time></trkpt><trkpt lat="42.7713604" lon="13.1026822"><ele>645.0</ele><time>2026-04-26T10:07:42.979Z</time></trkpt><trkpt lat="42.7712421" lon="13.102727"><ele>646.0</ele><time>2026-04-26T10:07:43.98Z</time></trkpt><trkpt lat="42.7711264" lon="13.1027754"><ele>646.0</ele><time>2026-04-26T10:07:44.98Z</time></trkpt><trkpt lat="42.7710091" lon="13.1028186"><ele>646.0</ele><time>2026-04-26T10:07:45.979Z</time></trkpt><trkpt lat="42.7708936" lon="13.1028621"><ele>646.0</ele><time>2026-04-26T10:07:46.979Z</time></trkpt><trkpt lat="42.7707818" lon="13.1029029"><ele>646.0</ele><time>2026-04-26T10:07:47.98Z</time></trkpt><trkpt lat="42.7706877" lon="13.1029466"><ele>646.0</ele><time>2026-04-26T10:07:48.979Z</time></trkpt><trkpt lat="42.7706011" lon="13.1029834"><ele>646.0</ele><time>2026-04-26T10:07:49.98Z</time></trkpt><trkpt lat="42.7705225" lon="13.1030181"><ele>646.0</ele><time>2026-04-26T10:07:50.979Z</time></trkpt><trkpt lat="42.7704464" lon="13.1030541"><ele>646.0</ele><time>2026-04-26T10:07:51.979Z</time></trkpt><trkpt lat="42.7703709" lon="13.1030857"><ele>646.0</ele><time>2026-04-26T10:07:52.979Z</time></trkpt><trkpt lat="42.7703023" lon="13.1031121"><ele>646.0</ele><time>2026-04-26T10:07:53.98Z</time></trkpt><trkpt lat="42.7702361" lon="13.103119"><ele>646.1666666666667</ele><time>2026-04-26T10:07:54.979Z</time></trkpt><trkpt lat="42.7701319" lon="13.1031984"><ele>646.3333333333334</ele><time>2026-04-26T10:07:56.979Z</time></trkpt><trkpt lat="42.7700869" lon="13.1032625"><ele>646.5</ele><time>2026-04-26T10:07:57.979Z</time></trkpt><trkpt lat="42.7700586" lon="13.1033411"><ele>646.6666666666666</ele><time>2026-04-26T10:07:58.979Z</time></trkpt><trkpt lat="42.7700408" lon="13.1034297"><ele>646.8333333333333</ele><time>2026-04-26T10:07:59.979Z</time></trkpt><trkpt lat="42.7700317" lon="13.1035179"><ele>647.0</ele><time>2026-04-26T10:08:00.979Z</time></trkpt><trkpt lat="42.7700122" lon="13.103619"><ele>647.6666666666666</ele><time>2026-04-26T10:08:01.979Z</time></trkpt><trkpt lat="42.7699906" lon="13.1037137"><ele>648.3333333333333</ele><time>2026-04-26T10:08:02.979Z</time></trkpt><trkpt lat="42.7699696" lon="13.1038064"><ele>649.0</ele><time>2026-04-26T10:08:03.979Z</time></trkpt><trkpt lat="42.7699555" lon="13.1039057"><ele>649.6666666666666</ele><time>2026-04-26T10:08:04.979Z</time></trkpt><trkpt lat="42.769927" lon="13.1040026"><ele>650.3333333333334</ele><time>2026-04-26T10:08:05.979Z</time></trkpt><trkpt lat="42.7698881" lon="13.1041067"><ele>651.0</ele><time>2026-04-26T10:08:06.98Z</time></trkpt><trkpt lat="42.7698438" lon="13.1042139"><ele>653.4</ele><time>2026-04-26T10:08:07.98Z</time></trkpt><trkpt lat="42.7697994" lon="13.1043213"><ele>655.8</ele><time>2026-04-26T10:08:08.979Z</time></trkpt><trkpt lat="42.7697528" lon="13.1044276"><ele>658.1999999999999</ele><time>2026-04-26T10:08:09.979Z</time></trkpt><trkpt lat="42.7696921" lon="13.1045513"><ele>660.5999999999999</ele><time>2026-04-26T10:08:10.979Z</time></trkpt><trkpt lat="42.7696246" lon="13.1046879"><ele>663.0</ele><time>2026-04-26T10:08:11.979Z</time></trkpt><trkpt lat="42.7695553" lon="13.1048165"><ele>662.0</ele><time>2026-04-26T10:08:12.979Z</time></trkpt><trkpt lat="42.7694765" lon="13.1049511"><ele>661.0</ele><time>2026-04-26T10:08:13.98Z</time></trkpt><trkpt lat="42.7693972" lon="13.1051059"><ele>660.0</ele><time>2026-04-26T10:08:14.98Z</time></trkpt><trkpt lat="42.7693356" lon="13.1052886"><ele>659.0</ele><time>2026-04-26T10:08:15.979Z</time></trkpt><trkpt lat="42.7692947" lon="13.1055005"><ele>659.0</ele><time>2026-04-26T10:08:16.98Z</time></trkpt><trkpt lat="42.7692724" lon="13.1057355"><ele>659.0</ele><time>2026-04-26T10:08:17.979Z</time></trkpt><trkpt lat="42.7692539" lon="13.1059854"><ele>659.0</ele><time>2026-04-26T10:08:18.978Z</time></trkpt><trkpt lat="42.7692395" lon="13.1062522"><ele>660.3333333333333</ele><time>2026-04-26T10:08:19.978Z</time></trkpt><trkpt lat="42.7692225" lon="13.1065218"><ele>661.6666666666666</ele><time>2026-04-26T10:08:20.978Z</time></trkpt><trkpt lat="42.7692093" lon="13.1067892"><ele>663.0</ele><time>2026-04-26T10:08:21.979Z</time></trkpt><trkpt lat="42.7692022" lon="13.1070537"><ele>664.6666666666666</ele><time>2026-04-26T10:08:22.978Z</time></trkpt><trkpt lat="42.7691948" lon="13.1073192"><ele>666.3333333333333</ele><time>2026-04-26T10:08:23.978Z</time></trkpt><trkpt lat="42.7691901" lon="13.1075928"><ele>668.0</ele><time>2026-04-26T10:08:24.978Z</time></trkpt><trkpt lat="42.7691879" lon="13.10787"><ele>669.3333333333333</ele><time>2026-04-26T10:08:25.979Z</time></trkpt><trkpt lat="42.7691932" lon="13.10816"><ele>670.6666666666666</ele><time>2026-04-26T10:08:26.979Z</time></trkpt><trkpt lat="42.7691925" lon="13.108456"><ele>672.0</ele><time>2026-04-26T10:08:27.979Z</time></trkpt><trkpt lat="42.7691924" lon="13.1087484"><ele>672.6666666666666</ele><time>2026-04-26T10:08:28.978Z</time></trkpt><trkpt lat="42.7692065" lon="13.1090471"><ele>673.3333333333333</ele><time>2026-04-26T10:08:29.978Z</time></trkpt><trkpt lat="42.7692345" lon="13.1093529"><ele>674.0</ele><time>2026-04-26T10:08:30.979Z</time></trkpt><trkpt lat="42.7692781" lon="13.1096639"><ele>676.0</ele><time>2026-04-26T10:08:31.978Z</time></trkpt><trkpt lat="42.7693335" lon="13.1099778"><ele>678.0</ele><time>2026-04-26T10:08:32.979Z</time></trkpt><trkpt lat="42.7693919" lon="13.1102969"><ele>688.5</ele><time>2026-04-26T10:08:33.978Z</time></trkpt><trkpt lat="42.7694464" lon="13.1106131"><ele>699.0</ele><time>2026-04-26T10:08:34.978Z</time></trkpt><trkpt lat="42.769499" lon="13.1109294"><ele>700.5</ele><time>2026-04-26T10:08:35.978Z</time></trkpt><trkpt lat="42.7695516" lon="13.1112414"><ele>702.0</ele><time>2026-04-26T10:08:36.978Z</time></trkpt><trkpt lat="42.7696141" lon="13.111551"><ele>701.0</ele><time>2026-04-26T10:08:37.978Z</time></trkpt><trkpt lat="42.7697406" lon="13.1118686"><ele>700.0</ele><time>2026-04-26T10:08:38.978Z</time></trkpt><trkpt lat="42.7698378" lon="13.112168"><ele>699.3333333333334</ele><time>2026-04-26T10:08:39.979Z</time></trkpt><trkpt lat="42.7699346" lon="13.1124413"><ele>698.6666666666666</ele><time>2026-04-26T10:08:40.978Z</time></trkpt><trkpt lat="42.7700154" lon="13.1126797"><ele>698.0</ele><time>2026-04-26T10:08:41.978Z</time></trkpt><trkpt lat="42.7700949" lon="13.1128771"><ele>703.6666666666666</ele><time>2026-04-26T10:08:42.979Z</time></trkpt><trkpt lat="42.7701997" lon="13.113028"><ele>709.3333333333334</ele><time>2026-04-26T10:08:43.978Z</time></trkpt><trkpt lat="42.7703481" lon="13.1131268"><ele>715.0</ele><time>2026-04-26T10:08:44.978Z</time></trkpt><trkpt lat="42.7705125" lon="13.1131914"><ele>712.0</ele><time>2026-04-26T10:08:45.979Z</time></trkpt><trkpt lat="42.7706725" lon="13.1132455"><ele>709.0</ele><time>2026-04-26T10:08:46.979Z</time></trkpt><trkpt lat="42.7708036" lon="13.1133461"><ele>706.0</ele><time>2026-04-26T10:08:47.979Z</time></trkpt><trkpt lat="42.7708985" lon="13.113484"><ele>706.0</ele><time>2026-04-26T10:08:48.979Z</time></trkpt><trkpt lat="42.7709545" lon="13.1136648"><ele>706.0</ele><time>2026-04-26T10:08:49.978Z</time></trkpt><trkpt lat="42.770976" lon="13.1138826"><ele>706.0</ele><time>2026-04-26T10:08:50.978Z</time></trkpt><trkpt lat="42.77099" lon="13.1140959"><ele>703.6666666666667</ele><time>2026-04-26T10:08:51.978Z</time></trkpt><trkpt lat="42.7710089" lon="13.114307"><ele>701.3333333333334</ele><time>2026-04-26T10:08:52.979Z</time></trkpt><trkpt lat="42.7710281" lon="13.1145131"><ele>699.0</ele><time>2026-04-26T10:08:53.979Z</time></trkpt><trkpt lat="42.7710654" lon="13.1147154"><ele>705.6666666666666</ele><time>2026-04-26T10:08:54.978Z</time></trkpt><trkpt lat="42.7711135" lon="13.1149194"><ele>712.3333333333333</ele><time>2026-04-26T10:08:55.978Z</time></trkpt><trkpt lat="42.771187" lon="13.1151192"><ele>719.0</ele><time>2026-04-26T10:08:56.978Z</time></trkpt><trkpt lat="42.7712895" lon="13.115302"><ele>719.0</ele><time>2026-04-26T10:08:57.978Z</time></trkpt><trkpt lat="42.7714148" lon="13.1154604"><ele>719.0</ele><time>2026-04-26T10:08:58.979Z</time></trkpt><trkpt lat="42.7715417" lon="13.1156029"><ele>719.0</ele><time>2026-04-26T10:08:59.978Z</time></trkpt><trkpt lat="42.7716525" lon="13.1157588"><ele>717.0</ele><time>2026-04-26T10:09:00.978Z</time></trkpt><trkpt lat="42.7717497" lon="13.115937"><ele>715.0</ele><time>2026-04-26T10:09:01.978Z</time></trkpt><trkpt lat="42.7718311" lon="13.1161232"><ele>713.0</ele><time>2026-04-26T10:09:02.979Z</time></trkpt><trkpt lat="42.7718783" lon="13.1163122"><ele>712.75</ele><time>2026-04-26T10:09:03.978Z</time></trkpt><trkpt lat="42.7718945" lon="13.1165066"><ele>712.5</ele><time>2026-04-26T10:09:04.978Z</time></trkpt><trkpt lat="42.7718828" lon="13.1166827"><ele>712.25</ele><time>2026-04-26T10:09:05.979Z</time></trkpt><trkpt lat="42.7718425" lon="13.1168701"><ele>712.0</ele><time>2026-04-26T10:09:06.978Z</time></trkpt><trkpt lat="42.7717769" lon="13.1170502"><ele>712.0</ele><time>2026-04-26T10:09:07.978Z</time></trkpt><trkpt lat="42.771688" lon="13.1172054"><ele>712.0</ele><time>2026-04-26T10:09:08.978Z</time></trkpt><trkpt lat="42.7715813" lon="13.1173473"><ele>712.0</ele><time>2026-04-26T10:09:09.978Z</time></trkpt><trkpt lat="42.7714871" lon="13.1175086"><ele>712.0</ele><time>2026-04-26T10:09:10.978Z</time></trkpt><trkpt lat="42.7714164" lon="13.1176937"><ele>716.6666666666667</ele><time>2026-04-26T10:09:11.978Z</time></trkpt><trkpt lat="42.7713769" lon="13.1178935"><ele>721.3333333333334</ele><time>2026-04-26T10:09:12.978Z</time></trkpt><trkpt lat="42.7713657" lon="13.1181055"><ele>726.0</ele><time>2026-04-26T10:09:13.978Z</time></trkpt><trkpt lat="42.7713856" lon="13.1183219"><ele>728.3333333333334</ele><time>2026-04-26T10:09:14.978Z</time></trkpt><trkpt lat="42.7714315" lon="13.1185431"><ele>730.6666666666667</ele><time>2026-04-26T10:09:15.978Z</time></trkpt><trkpt lat="42.7714912" lon="13.1187584"><ele>733.0</ele><time>2026-04-26T10:09:16.978Z</time></trkpt><trkpt lat="42.7715454" lon="13.1189658"><ele>733.0</ele><time>2026-04-26T10:09:17.978Z</time></trkpt><trkpt lat="42.7715676" lon="13.1191609"><ele>733.0</ele><time>2026-04-26T10:09:18.979Z</time></trkpt><trkpt lat="42.7715428" lon="13.119342"><ele>733.0</ele><time>2026-04-26T10:09:19.979Z</time></trkpt><trkpt lat="42.7714778" lon="13.1195071"><ele>733.0</ele><time>2026-04-26T10:09:20.979Z</time></trkpt><trkpt lat="42.7713727" lon="13.1196466"><ele>733.0</ele><time>2026-04-26T10:09:21.978Z</time></trkpt><trkpt lat="42.7712335" lon="13.119742"><ele>733.0</ele><time>2026-04-26T10:09:22.978Z</time></trkpt><trkpt lat="42.7710668" lon="13.1198104"><ele>733.0</ele><time>2026-04-26T10:09:23.979Z</time></trkpt><trkpt lat="42.7708806" lon="13.1198783"><ele>736.5</ele><time>2026-04-26T10:09:24.978Z</time></trkpt><trkpt lat="42.770665" lon="13.1199932"><ele>740.0</ele><time>2026-04-26T10:09:25.978Z</time></trkpt><trkpt lat="42.7704376" lon="13.1201437"><ele>734.5</ele><time>2026-04-26T10:09:26.978Z</time></trkpt><trkpt lat="42.7701888" lon="13.120317"><ele>729.0</ele><time>2026-04-26T10:09:27.979Z</time></trkpt><trkpt lat="42.769944" lon="13.1205292"><ele>738.5</ele><time>2026-04-26T10:09:28.979Z</time></trkpt><trkpt lat="42.7697191" lon="13.1207392"><ele>748.0</ele><time>2026-04-26T10:09:29.979Z</time></trkpt><trkpt lat="42.7695259" lon="13.1209251"><ele>744.6666666666667</ele><time>2026-04-26T10:09:30.978Z</time></trkpt><trkpt lat="42.7693481" lon="13.1210903"><ele>741.3333333333334</ele><time>2026-04-26T10:09:31.978Z</time></trkpt><trkpt lat="42.7691652" lon="13.1212177"><ele>738.0</ele><time>2026-04-26T10:09:32.978Z</time></trkpt><trkpt lat="42.7689921" lon="13.1213151"><ele>738.0</ele><time>2026-04-26T10:09:33.978Z</time></trkpt><trkpt lat="42.768827" lon="13.1214039"><ele>738.0</ele><time>2026-04-26T10:09:34.978Z</time></trkpt><trkpt lat="42.7686741" lon="13.1215084"><ele>738.0</ele><time>2026-04-26T10:09:35.978Z</time></trkpt><trkpt lat="42.7685306" lon="13.1216375"><ele>741.3333333333334</ele><time>2026-04-26T10:09:36.978Z</time></trkpt><trkpt lat="42.7683927" lon="13.1217805"><ele>744.6666666666667</ele><time>2026-04-26T10:09:37.978Z</time></trkpt><trkpt lat="42.7682701" lon="13.1219645"><ele>748.0</ele><time>2026-04-26T10:09:38.978Z</time></trkpt><trkpt lat="42.7681354" lon="13.1221997"><ele>753.6666666666667</ele><time>2026-04-26T10:09:39.978Z</time></trkpt><trkpt lat="42.7680017" lon="13.1224432"><ele>759.3333333333334</ele><time>2026-04-26T10:09:40.978Z</time></trkpt><trkpt lat="42.7678632" lon="13.1226286"><ele>765.0</ele><time>2026-04-26T10:09:41.978Z</time></trkpt><trkpt lat="42.767709" lon="13.1227833"><ele>756.0</ele><time>2026-04-26T10:09:42.978Z</time></trkpt><trkpt lat="42.7674967" lon="13.1229405"><ele>747.0</ele><time>2026-04-26T10:09:43.978Z</time></trkpt><trkpt lat="42.767257" lon="13.1230627"><ele>747.0</ele><time>2026-04-26T10:09:44.978Z</time></trkpt><trkpt lat="42.7670135" lon="13.1231706"><ele>747.0</ele><time>2026-04-26T10:09:45.978Z</time></trkpt><trkpt lat="42.7667507" lon="13.1233938"><ele>754.0</ele><time>2026-04-26T10:09:46.978Z</time></trkpt><trkpt lat="42.7664826" lon="13.1235756"><ele>761.0</ele><time>2026-04-26T10:09:47.978Z</time></trkpt><trkpt lat="42.7662441" lon="13.1237027"><ele>756.0</ele><time>2026-04-26T10:09:48.978Z</time></trkpt><trkpt lat="42.7660271" lon="13.1238471"><ele>751.0</ele><time>2026-04-26T10:09:49.978Z</time></trkpt><trkpt lat="42.7658447" lon="13.1240322"><ele>758.0</ele><time>2026-04-26T10:09:50.978Z</time></trkpt><trkpt lat="42.7656841" lon="13.1242072"><ele>765.0</ele><time>2026-04-26T10:09:51.978Z</time></trkpt><trkpt lat="42.7655207" lon="13.1243481"><ele>772.0</ele><time>2026-04-26T10:09:52.978Z</time></trkpt><trkpt lat="42.7653347" lon="13.1244442"><ele>769.0</ele><time>2026-04-26T10:09:53.979Z</time></trkpt><trkpt lat="42.7651061" lon="13.1245007"><ele>766.0</ele><time>2026-04-26T10:09:54.978Z</time></trkpt><trkpt lat="42.76487" lon="13.1245715"><ele>766.0</ele><time>2026-04-26T10:09:55.978Z</time></trkpt><trkpt lat="42.7646382" lon="13.1246988"><ele>766.0</ele><time>2026-04-26T10:09:56.978Z</time></trkpt><trkpt lat="42.7643961" lon="13.124884"><ele>772.5</ele><time>2026-04-26T10:09:57.978Z</time></trkpt><trkpt lat="42.764146" lon="13.1250933"><ele>779.0</ele><time>2026-04-26T10:09:58.978Z</time></trkpt><trkpt lat="42.7638661" lon="13.1252814"><ele>779.0</ele><time>2026-04-26T10:09:59.978Z</time></trkpt><trkpt lat="42.7635618" lon="13.1254597"><ele>779.0</ele><time>2026-04-26T10:10:00.978Z</time></trkpt><trkpt lat="42.7632644" lon="13.1256085"><ele>786.0</ele><time>2026-04-26T10:10:01.978Z</time></trkpt><trkpt lat="42.7629839" lon="13.1257679"><ele>793.0</ele><time>2026-04-26T10:10:02.978Z</time></trkpt><trkpt lat="42.7627374" lon="13.125918"><ele>791.3333333333333</ele><time>2026-04-26T10:10:03.979Z</time></trkpt><trkpt lat="42.7625118" lon="13.1260525"><ele>789.6666666666667</ele><time>2026-04-26T10:10:04.978Z</time></trkpt><trkpt lat="42.7623348" lon="13.1261682"><ele>788.0</ele><time>2026-04-26T10:10:05.978Z</time></trkpt><trkpt lat="42.7621758" lon="13.1263287"><ele>788.0</ele><time>2026-04-26T10:10:06.978Z</time></trkpt><trkpt lat="42.7620449" lon="13.1265103"><ele>788.0</ele><time>2026-04-26T10:10:07.978Z</time></trkpt><trkpt lat="42.7619204" lon="13.1267024"><ele>788.0</ele><time>2026-04-26T10:10:08.979Z</time></trkpt><trkpt lat="42.7618311" lon="13.1269623"><ele>788.0</ele><time>2026-04-26T10:10:09.978Z</time></trkpt><trkpt lat="42.7617695" lon="13.1272451"><ele>788.0</ele><time>2026-04-26T10:10:10.978Z</time></trkpt><trkpt lat="42.7617322" lon="13.1275378"><ele>788.0</ele><time>2026-04-26T10:10:11.978Z</time></trkpt><trkpt lat="42.7617322" lon="13.1278232"><ele>788.0</ele><time>2026-04-26T10:10:12.978Z</time></trkpt><trkpt lat="42.7617664" lon="13.1281283"><ele>788.0</ele><time>2026-04-26T10:10:13.978Z</time></trkpt><trkpt lat="42.7618368" lon="13.1284519"><ele>798.5</ele><time>2026-04-26T10:10:14.979Z</time></trkpt><trkpt lat="42.7619316" lon="13.128808"><ele>809.0</ele><time>2026-04-26T10:10:15.978Z</time></trkpt><trkpt lat="42.7620444" lon="13.1291385"><ele>809.0</ele><time>2026-04-26T10:10:16.979Z</time></trkpt><trkpt lat="42.7621577" lon="13.1294489"><ele>809.0</ele><time>2026-04-26T10:10:17.978Z</time></trkpt><trkpt lat="42.7622927" lon="13.1297248"><ele>805.0</ele><time>2026-04-26T10:10:18.978Z</time></trkpt><trkpt lat="42.7624408" lon="13.1299965"><ele>801.0</ele><time>2026-04-26T10:10:19.987Z</time></trkpt><trkpt lat="42.7626075" lon="13.1302758"><ele>808.0</ele><time>2026-04-26T10:10:20.986Z</time></trkpt><trkpt lat="42.7627996" lon="13.1305558"><ele>815.0</ele><time>2026-04-26T10:10:21.986Z</time></trkpt><trkpt lat="42.7630254" lon="13.1308598"><ele>815.0</ele><time>2026-04-26T10:10:22.986Z</time></trkpt><trkpt lat="42.7632596" lon="13.1311785"><ele>815.0</ele><time>2026-04-26T10:10:23.986Z</time></trkpt><trkpt lat="42.7634922" lon="13.1315004"><ele>821.5</ele><time>2026-04-26T10:10:24.986Z</time></trkpt><trkpt lat="42.7637118" lon="13.1317985"><ele>828.0</ele><time>2026-04-26T10:10:25.987Z</time></trkpt><trkpt lat="42.7639157" lon="13.1320655"><ele>828.0</ele><time>2026-04-26T10:10:26.986Z</time></trkpt><trkpt lat="42.7641179" lon="13.1323228"><ele>828.0</ele><time>2026-04-26T10:10:27.986Z</time></trkpt><trkpt lat="42.7643272" lon="13.1325878"><ele>832.0</ele><time>2026-04-26T10:10:28.986Z</time></trkpt><trkpt lat="42.7645504" lon="13.132863"><ele>836.0</ele><time>2026-04-26T10:10:29.986Z</time></trkpt><trkpt lat="42.7647827" lon="13.133144"><ele>838.0</ele><time>2026-04-26T10:10:30.986Z</time></trkpt><trkpt lat="42.7650092" lon="13.1334039"><ele>840.0</ele><time>2026-04-26T10:10:31.986Z</time></trkpt><trkpt lat="42.7652363" lon="13.1336389"><ele>840.0</ele><time>2026-04-26T10:10:32.986Z</time></trkpt><trkpt lat="42.7654474" lon="13.1338642"><ele>840.0</ele><time>2026-04-26T10:10:33.986Z</time></trkpt><trkpt lat="42.7656393" lon="13.1340654"><ele>838.3333333333333</ele><time>2026-04-26T10:10:34.986Z</time></trkpt><trkpt lat="42.765826" lon="13.1342459"><ele>836.6666666666666</ele><time>2026-04-26T10:10:35.986Z</time></trkpt><trkpt lat="42.7660078" lon="13.1344055"><ele>835.0</ele><time>2026-04-26T10:10:36.986Z</time></trkpt><trkpt lat="42.7661967" lon="13.1345392"><ele>835.0</ele><time>2026-04-26T10:10:37.986Z</time></trkpt><trkpt lat="42.7663815" lon="13.1346565"><ele>835.0</ele><time>2026-04-26T10:10:38.986Z</time></trkpt><trkpt lat="42.7665455" lon="13.1347887"><ele>835.0</ele><time>2026-04-26T10:10:39.986Z</time></trkpt><trkpt lat="42.7666882" lon="13.1349307"><ele>830.5</ele><time>2026-04-26T10:10:40.986Z</time></trkpt><trkpt lat="42.766815" lon="13.1350709"><ele>826.0</ele><time>2026-04-26T10:10:41.987Z</time></trkpt><trkpt lat="42.7669333" lon="13.135188"><ele>821.5</ele><time>2026-04-26T10:10:42.986Z</time></trkpt><trkpt lat="42.767044" lon="13.1352942"><ele>817.0</ele><time>2026-04-26T10:10:43.986Z</time></trkpt><trkpt lat="42.7671497" lon="13.1353891"><ele>817.0</ele><time>2026-04-26T10:10:44.986Z</time></trkpt><trkpt lat="42.7672331" lon="13.1354999"><ele>817.0</ele><time>2026-04-26T10:10:45.986Z</time></trkpt><trkpt lat="42.7672906" lon="13.1356543"><ele>817.0</ele><time>2026-04-26T10:10:46.986Z</time></trkpt><trkpt lat="42.7673225" lon="13.1358248"><ele>817.0</ele><time>2026-04-26T10:10:47.987Z</time></trkpt><trkpt lat="42.7673419" lon="13.136019"><ele>815.5</ele><time>2026-04-26T10:10:48.987Z</time></trkpt><trkpt lat="42.7673537" lon="13.1362007"><ele>814.0</ele><time>2026-04-26T10:10:49.987Z</time></trkpt><trkpt lat="42.7673711" lon="13.1363538"><ele>812.5</ele><time>2026-04-26T10:10:50.986Z</time></trkpt><trkpt lat="42.7673952" lon="13.1365059"><ele>811.0</ele><time>2026-04-26T10:10:51.986Z</time></trkpt><trkpt lat="42.7674324" lon="13.1366585"><ele>811.0</ele><time>2026-04-26T10:10:52.986Z</time></trkpt><trkpt lat="42.7674855" lon="13.1368015"><ele>811.0</ele><time>2026-04-26T10:10:53.986Z</time></trkpt><trkpt lat="42.7675474" lon="13.136936"><ele>811.0</ele><time>2026-04-26T10:10:54.986Z</time></trkpt><trkpt lat="42.7676326" lon="13.1370513"><ele>811.0</ele><time>2026-04-26T10:10:55.986Z</time></trkpt><trkpt lat="42.7677404" lon="13.1371486"><ele>814.3333333333333</ele><time>2026-04-26T10:10:56.986Z</time></trkpt><trkpt lat="42.7678906" lon="13.1372482"><ele>817.6666666666667</ele><time>2026-04-26T10:10:57.987Z</time></trkpt><trkpt lat="42.7680595" lon="13.1373788"><ele>821.0</ele><time>2026-04-26T10:10:58.986Z</time></trkpt><trkpt lat="42.7682478" lon="13.137535"><ele>821.0</ele><time>2026-04-26T10:10:59.986Z</time></trkpt><trkpt lat="42.7684292" lon="13.1376856"><ele>821.0</ele><time>2026-04-26T10:11:00.986Z</time></trkpt><trkpt lat="42.7685811" lon="13.1378276"><ele>821.0</ele><time>2026-04-26T10:11:01.986Z</time></trkpt><trkpt lat="42.7687184" lon="13.1379384"><ele>817.3333333333334</ele><time>2026-04-26T10:11:02.986Z</time></trkpt><trkpt lat="42.7688558" lon="13.1380265"><ele>813.6666666666667</ele><time>2026-04-26T10:11:03.986Z</time></trkpt><trkpt lat="42.7690331" lon="13.1381086"><ele>810.0</ele><time>2026-04-26T10:11:04.986Z</time></trkpt><trkpt lat="42.7692305" lon="13.1381959"><ele>812.0</ele><time>2026-04-26T10:11:05.987Z</time></trkpt><trkpt lat="42.7694326" lon="13.1382963"><ele>814.0</ele><time>2026-04-26T10:11:06.987Z</time></trkpt><trkpt lat="42.7696241" lon="13.1384283"><ele>816.0</ele><time>2026-04-26T10:11:07.987Z</time></trkpt><trkpt lat="42.7697929" lon="13.1385884"><ele>816.0</ele><time>2026-04-26T10:11:08.986Z</time></trkpt><trkpt lat="42.7699319" lon="13.1387631"><ele>816.0</ele><time>2026-04-26T10:11:09.986Z</time></trkpt><trkpt lat="42.7700534" lon="13.1389415"><ele>816.0</ele><time>2026-04-26T10:11:10.987Z</time></trkpt><trkpt lat="42.7701648" lon="13.1391216"><ele>815.3333333333333</ele><time>2026-04-26T10:11:11.986Z</time></trkpt><trkpt lat="42.7702737" lon="13.1393218"><ele>814.6666666666666</ele><time>2026-04-26T10:11:12.986Z</time></trkpt><trkpt lat="42.770386" lon="13.1395696"><ele>814.0</ele><time>2026-04-26T10:11:13.986Z</time></trkpt><trkpt lat="42.7705274" lon="13.1398632"><ele>825.0</ele><time>2026-04-26T10:11:14.986Z</time></trkpt><trkpt lat="42.7706704" lon="13.1401581"><ele>836.0</ele><time>2026-04-26T10:11:15.986Z</time></trkpt><trkpt lat="42.7708168" lon="13.1404176"><ele>836.0</ele><time>2026-04-26T10:11:16.986Z</time></trkpt><trkpt lat="42.7709512" lon="13.140662"><ele>836.0</ele><time>2026-04-26T10:11:17.986Z</time></trkpt><trkpt lat="42.7710626" lon="13.1409223"><ele>836.0</ele><time>2026-04-26T10:11:18.986Z</time></trkpt><trkpt lat="42.7711437" lon="13.1411926"><ele>834.3333333333334</ele><time>2026-04-26T10:11:19.986Z</time></trkpt><trkpt lat="42.7711972" lon="13.14146"><ele>832.6666666666667</ele><time>2026-04-26T10:11:20.986Z</time></trkpt><trkpt lat="42.7712221" lon="13.1417075"><ele>831.0</ele><time>2026-04-26T10:11:21.986Z</time></trkpt><trkpt lat="42.7712251" lon="13.1419444"><ele>831.0</ele><time>2026-04-26T10:11:22.986Z</time></trkpt><trkpt lat="42.7712149" lon="13.1421641"><ele>831.0</ele><time>2026-04-26T10:11:23.986Z</time></trkpt><trkpt lat="42.7711836" lon="13.1423696"><ele>831.0</ele><time>2026-04-26T10:11:24.986Z</time></trkpt><trkpt lat="42.7711459" lon="13.1425791"><ele>833.0</ele><time>2026-04-26T10:11:25.986Z</time></trkpt><trkpt lat="42.7711027" lon="13.1428022"><ele>835.0</ele><time>2026-04-26T10:11:26.987Z</time></trkpt><trkpt lat="42.7710649" lon="13.1429951"><ele>837.0</ele><time>2026-04-26T10:11:27.987Z</time></trkpt><trkpt lat="42.7710308" lon="13.1431609"><ele>839.0</ele><time>2026-04-26T10:11:28.987Z</time></trkpt><trkpt lat="42.770997" lon="13.1433157"><ele>844.2</ele><time>2026-04-26T10:11:29.987Z</time></trkpt><trkpt lat="42.770971" lon="13.1434561"><ele>849.4000000000001</ele><time>2026-04-26T10:11:30.987Z</time></trkpt><trkpt lat="42.7709485" lon="13.1435827"><ele>854.6</ele><time>2026-04-26T10:11:31.986Z</time></trkpt><trkpt lat="42.7709217" lon="13.1437016"><ele>859.8</ele><time>2026-04-26T10:11:32.986Z</time></trkpt><trkpt lat="42.7709085" lon="13.1438272"><ele>865.0</ele><time>2026-04-26T10:11:33.986Z</time></trkpt><trkpt lat="42.770925" lon="13.1439461"><ele>864.8</ele><time>2026-04-26T10:11:34.986Z</time></trkpt><trkpt lat="42.7709691" lon="13.1440558"><ele>864.6</ele><time>2026-04-26T10:11:35.986Z</time></trkpt><trkpt lat="42.7710332" lon="13.1441298"><ele>864.4000000000001</ele><time>2026-04-26T10:11:36.986Z</time></trkpt><trkpt lat="42.7711141" lon="13.1441842"><ele>864.2</ele><time>2026-04-26T10:11:37.986Z</time></trkpt><trkpt lat="42.7712249" lon="13.1442193"><ele>864.0</ele><time>2026-04-26T10:11:38.986Z</time></trkpt><trkpt lat="42.7713565" lon="13.144228"><ele>864.0</ele><time>2026-04-26T10:11:39.987Z</time></trkpt><trkpt lat="42.7715065" lon="13.1442349"><ele>864.0</ele><time>2026-04-26T10:11:40.986Z</time></trkpt><trkpt lat="42.771669" lon="13.1442467"><ele>864.0</ele><time>2026-04-26T10:11:41.986Z</time></trkpt><trkpt lat="42.7718378" lon="13.1442607"><ele>864.0</ele><time>2026-04-26T10:11:42.986Z</time></trkpt><trkpt lat="42.7720163" lon="13.1442775"><ele>864.0</ele><time>2026-04-26T10:11:43.986Z</time></trkpt><trkpt lat="42.7722099" lon="13.1442909"><ele>864.0</ele><time>2026-04-26T10:11:44.987Z</time></trkpt><trkpt lat="42.7724186" lon="13.1443013"><ele>864.0</ele><time>2026-04-26T10:11:45.986Z</time></trkpt><trkpt lat="42.7726512" lon="13.1443127"><ele>864.0</ele><time>2026-04-26T10:11:46.987Z</time></trkpt><trkpt lat="42.7728997" lon="13.144338"><ele>864.0</ele><time>2026-04-26T10:11:47.986Z</time></trkpt><trkpt lat="42.7731542" lon="13.1443733"><ele>864.0</ele><time>2026-04-26T10:11:48.986Z</time></trkpt><trkpt lat="42.7733916" lon="13.1444249"><ele>865.3333333333333</ele><time>2026-04-26T10:11:49.986Z</time></trkpt><trkpt lat="42.7736052" lon="13.1444802"><ele>866.6666666666666</ele><time>2026-04-26T10:11:50.986Z</time></trkpt><trkpt lat="42.7737945" lon="13.1445359"><ele>868.0</ele><time>2026-04-26T10:11:51.986Z</time></trkpt><trkpt lat="42.7740022" lon="13.1445476"><ele>868.0</ele><time>2026-04-26T10:11:52.986Z</time></trkpt><trkpt lat="42.7742003" lon="13.1445317"><ele>868.0</ele><time>2026-04-26T10:11:53.986Z</time></trkpt><trkpt lat="42.7744068" lon="13.1444734"><ele>868.0</ele><time>2026-04-26T10:11:54.986Z</time></trkpt><trkpt lat="42.7746191" lon="13.1443826"><ele>871.3333333333333</ele><time>2026-04-26T10:11:55.986Z</time></trkpt><trkpt lat="42.7748189" lon="13.1442804"><ele>874.6666666666667</ele><time>2026-04-26T10:11:56.986Z</time></trkpt><trkpt lat="42.7750032" lon="13.1441782"><ele>878.0</ele><time>2026-04-26T10:11:57.987Z</time></trkpt><trkpt lat="42.7751729" lon="13.1440711"><ele>874.0</ele><time>2026-04-26T10:11:58.986Z</time></trkpt><trkpt lat="42.7753309" lon="13.1439944"><ele>870.0</ele><time>2026-04-26T10:11:59.986Z</time></trkpt><trkpt lat="42.7754887" lon="13.143963"><ele>866.0</ele><time>2026-04-26T10:12:00.986Z</time></trkpt><trkpt lat="42.775662" lon="13.1440048"><ele>872.6666666666667</ele><time>2026-04-26T10:12:01.986Z</time></trkpt><trkpt lat="42.7758459" lon="13.1440747"><ele>879.3333333333333</ele><time>2026-04-26T10:12:02.986Z</time></trkpt><trkpt lat="42.7760406" lon="13.1441539"><ele>886.0</ele><time>2026-04-26T10:12:03.987Z</time></trkpt><trkpt lat="42.7762247" lon="13.1442224"><ele>886.6666666666666</ele><time>2026-04-26T10:12:04.986Z</time></trkpt><trkpt lat="42.77638" lon="13.144268"><ele>887.3333333333333</ele><time>2026-04-26T10:12:05.986Z</time></trkpt><trkpt lat="42.7765288" lon="13.1443027"><ele>888.0</ele><time>2026-04-26T10:12:06.986Z</time></trkpt><trkpt lat="42.7766809" lon="13.1442918"><ele>888.0</ele><time>2026-04-26T10:12:07.986Z</time></trkpt><trkpt lat="42.7768506" lon="13.1442325"><ele>888.0</ele><time>2026-04-26T10:12:08.986Z</time></trkpt><trkpt lat="42.777042" lon="13.1441261"><ele>888.0</ele><time>2026-04-26T10:12:09.987Z</time></trkpt><trkpt lat="42.7772534" lon="13.1440148"><ele>884.0</ele><time>2026-04-26T10:12:10.986Z</time></trkpt><trkpt lat="42.777474" lon="13.1438712"><ele>880.0</ele><time>2026-04-26T10:12:11.987Z</time></trkpt><trkpt lat="42.7776969" lon="13.1436965"><ele>892.0</ele><time>2026-04-26T10:12:12.986Z</time></trkpt><trkpt lat="42.7779149" lon="13.1435065"><ele>904.0</ele><time>2026-04-26T10:12:13.986Z</time></trkpt><trkpt lat="42.7781166" lon="13.1433501"><ele>902.3333333333333</ele><time>2026-04-26T10:12:14.986Z</time></trkpt><trkpt lat="42.7782982" lon="13.143202"><ele>900.6666666666667</ele><time>2026-04-26T10:12:15.986Z</time></trkpt><trkpt lat="42.7784606" lon="13.1430615"><ele>899.0</ele><time>2026-04-26T10:12:16.987Z</time></trkpt><trkpt lat="42.7786137" lon="13.1429341"><ele>899.0</ele><time>2026-04-26T10:12:17.987Z</time></trkpt><trkpt lat="42.7787722" lon="13.1428253"><ele>899.0</ele><time>2026-04-26T10:12:18.986Z</time></trkpt><trkpt lat="42.7789506" lon="13.1427421"><ele>899.0</ele><time>2026-04-26T10:12:19.987Z</time></trkpt><trkpt lat="42.7791401" lon="13.1426841"><ele>899.0</ele><time>2026-04-26T10:12:20.987Z</time></trkpt><trkpt lat="42.7793453" lon="13.14266"><ele>899.0</ele><time>2026-04-26T10:12:21.986Z</time></trkpt><trkpt lat="42.7795637" lon="13.1426647"><ele>899.0</ele><time>2026-04-26T10:12:22.986Z</time></trkpt><trkpt lat="42.7797878" lon="13.1426968"><ele>901.0</ele><time>2026-04-26T10:12:23.986Z</time></trkpt><trkpt lat="42.7799992" lon="13.1427158"><ele>903.0</ele><time>2026-04-26T10:12:24.986Z</time></trkpt><trkpt lat="42.7802149" lon="13.1427122"><ele>905.0</ele><time>2026-04-26T10:12:25.986Z</time></trkpt><trkpt lat="42.7804418" lon="13.1426816"><ele>909.0</ele><time>2026-04-26T10:12:26.986Z</time></trkpt><trkpt lat="42.7806815" lon="13.1426231"><ele>913.0</ele><time>2026-04-26T10:12:27.986Z</time></trkpt><trkpt lat="42.7809197" lon="13.1425404"><ele>920.0</ele><time>2026-04-26T10:12:28.986Z</time></trkpt><trkpt lat="42.7811546" lon="13.1424708"><ele>927.0</ele><time>2026-04-26T10:12:29.987Z</time></trkpt><trkpt lat="42.7813834" lon="13.1424231"><ele>927.0</ele><time>2026-04-26T10:12:30.986Z</time></trkpt><trkpt lat="42.7815918" lon="13.1424142"><ele>927.0</ele><time>2026-04-26T10:12:31.986Z</time></trkpt><trkpt lat="42.7817839" lon="13.1424197"><ele>927.0</ele><time>2026-04-26T10:12:32.986Z</time></trkpt><trkpt lat="42.7819535" lon="13.1424256"><ele>925.0</ele><time>2026-04-26T10:12:33.986Z</time></trkpt><trkpt lat="42.7820923" lon="13.1424083"><ele>923.0</ele><time>2026-04-26T10:12:34.987Z</time></trkpt><trkpt lat="42.7822173" lon="13.1423547"><ele>921.0</ele><time>2026-04-26T10:12:35.986Z</time></trkpt><trkpt lat="42.7823465" lon="13.1422465"><ele>919.0</ele><time>2026-04-26T10:12:36.986Z</time></trkpt><trkpt lat="42.782501" lon="13.1420861"><ele>930.5</ele><time>2026-04-26T10:12:37.987Z</time></trkpt><trkpt lat="42.7826831" lon="13.1418959"><ele>942.0</ele><time>2026-04-26T10:12:38.987Z</time></trkpt><trkpt lat="42.7828871" lon="13.1417044"><ele>931.5</ele><time>2026-04-26T10:12:39.986Z</time></trkpt><trkpt lat="42.7830878" lon="13.1415271"><ele>921.0</ele><time>2026-04-26T10:12:40.986Z</time></trkpt><trkpt lat="42.7832829" lon="13.1413745"><ele>921.0</ele><time>2026-04-26T10:12:41.986Z</time></trkpt><trkpt lat="42.7834697" lon="13.1412546"><ele>921.0</ele><time>2026-04-26T10:12:42.986Z</time></trkpt><trkpt lat="42.7836171" lon="13.1411684"><ele>921.0</ele><time>2026-04-26T10:12:43.986Z</time></trkpt><trkpt lat="42.7837513" lon="13.1410996"><ele>924.5</ele><time>2026-04-26T10:12:44.986Z</time></trkpt><trkpt lat="42.783867" lon="13.1410064"><ele>928.0</ele><time>2026-04-26T10:12:45.986Z</time></trkpt><trkpt lat="42.7839564" lon="13.1408646"><ele>931.5</ele><time>2026-04-26T10:12:46.987Z</time></trkpt><trkpt lat="42.784038" lon="13.140678"><ele>935.0</ele><time>2026-04-26T10:12:47.986Z</time></trkpt><trkpt lat="42.7840864" lon="13.1402781"><ele>935.0</ele><time>2026-04-26T10:12:48.986Z</time></trkpt><trkpt lat="42.7841979" lon="13.1400236"><ele>935.0</ele><time>2026-04-26T10:12:49.987Z</time></trkpt><trkpt lat="42.7843732" lon="13.1397722"><ele>942.5</ele><time>2026-04-26T10:12:50.986Z</time></trkpt><trkpt lat="42.7845586" lon="13.1395187"><ele>950.0</ele><time>2026-04-26T10:12:51.986Z</time></trkpt><trkpt lat="42.7847374" lon="13.1392689"><ele>937.5</ele><time>2026-04-26T10:12:52.986Z</time></trkpt><trkpt lat="42.7849215" lon="13.1390117"><ele>925.0</ele><time>2026-04-26T10:12:53.986Z</time></trkpt><trkpt lat="42.785127" lon="13.1387691"><ele>942.0</ele><time>2026-04-26T10:12:54.986Z</time></trkpt><trkpt lat="42.7853494" lon="13.138523"><ele>959.0</ele><time>2026-04-26T10:12:55.986Z</time></trkpt><trkpt lat="42.7855872" lon="13.1382814"><ele>961.0</ele><time>2026-04-26T10:12:56.987Z</time></trkpt><trkpt lat="42.7858377" lon="13.1380311"><ele>963.0</ele><time>2026-04-26T10:12:57.986Z</time></trkpt><trkpt lat="42.7861005" lon="13.1377998"><ele>963.0</ele><time>2026-04-26T10:12:58.986Z</time></trkpt><trkpt lat="42.7863566" lon="13.1375829"><ele>963.0</ele><time>2026-04-26T10:12:59.986Z</time></trkpt><trkpt lat="42.7866079" lon="13.1373733"><ele>959.0</ele><time>2026-04-26T10:13:00.986Z</time></trkpt><trkpt lat="42.7868549" lon="13.1371891"><ele>955.0</ele><time>2026-04-26T10:13:01.986Z</time></trkpt><trkpt lat="42.7870956" lon="13.1370236"><ele>955.0</ele><time>2026-04-26T10:13:02.986Z</time></trkpt><trkpt lat="42.7873299" lon="13.1368769"><ele>955.0</ele><time>2026-04-26T10:13:03.986Z</time></trkpt><trkpt lat="42.7875617" lon="13.1367493"><ele>946.0</ele><time>2026-04-26T10:13:04.986Z</time></trkpt><trkpt lat="42.787805" lon="13.1366317"><ele>937.0</ele><time>2026-04-26T10:13:05.986Z</time></trkpt><trkpt lat="42.7880485" lon="13.1365362"><ele>937.0</ele><time>2026-04-26T10:13:06.986Z</time></trkpt><trkpt lat="42.7883015" lon="13.1364544"><ele>937.0</ele><time>2026-04-26T10:13:07.986Z</time></trkpt><trkpt lat="42.788542" lon="13.1363865"><ele>944.0</ele><time>2026-04-26T10:13:08.986Z</time></trkpt><trkpt lat="42.7887751" lon="13.1363302"><ele>951.0</ele><time>2026-04-26T10:13:09.986Z</time></trkpt><trkpt lat="42.7889913" lon="13.1362743"><ele>951.0</ele><time>2026-04-26T10:13:10.987Z</time></trkpt><trkpt lat="42.7891956" lon="13.1362352"><ele>951.0</ele><time>2026-04-26T10:13:11.987Z</time></trkpt><trkpt lat="42.78939" lon="13.1362126"><ele>951.0</ele><time>2026-04-26T10:13:12.986Z</time></trkpt><trkpt lat="42.7895631" lon="13.1362112"><ele>952.3333333333333</ele><time>2026-04-26T10:13:13.987Z</time></trkpt><trkpt lat="42.7897327" lon="13.1362384"><ele>953.6666666666666</ele><time>2026-04-26T10:13:14.986Z</time></trkpt><trkpt lat="42.7898986" lon="13.1363086"><ele>955.0</ele><time>2026-04-26T10:13:15.987Z</time></trkpt><trkpt lat="42.7900508" lon="13.1363668"><ele>960.75</ele><time>2026-04-26T10:13:16.986Z</time></trkpt><trkpt lat="42.7901906" lon="13.1363833"><ele>966.5</ele><time>2026-04-26T10:13:17.986Z</time></trkpt><trkpt lat="42.790328" lon="13.1363608"><ele>972.25</ele><time>2026-04-26T10:13:18.986Z</time></trkpt><trkpt lat="42.7904633" lon="13.1362751"><ele>978.0</ele><time>2026-04-26T10:13:19.986Z</time></trkpt><trkpt lat="42.7905691" lon="13.1361187"><ele>978.0</ele><time>2026-04-26T10:13:20.986Z</time></trkpt><trkpt lat="42.790687" lon="13.1359316"><ele>978.0</ele><time>2026-04-26T10:13:21.986Z</time></trkpt><trkpt lat="42.7908176" lon="13.1357394"><ele>978.0</ele><time>2026-04-26T10:13:22.987Z</time></trkpt><trkpt lat="42.7909426" lon="13.1355708"><ele>977.0</ele><time>2026-04-26T10:13:23.986Z</time></trkpt><trkpt lat="42.7910778" lon="13.1354468"><ele>976.0</ele><time>2026-04-26T10:13:24.986Z</time></trkpt><trkpt lat="42.7912404" lon="13.1353368"><ele>975.0</ele><time>2026-04-26T10:13:25.986Z</time></trkpt><trkpt lat="42.7914247" lon="13.135262"><ele>975.0</ele><time>2026-04-26T10:13:26.986Z</time></trkpt><trkpt lat="42.7916189" lon="13.135199"><ele>975.0</ele><time>2026-04-26T10:13:27.986Z</time></trkpt><trkpt lat="42.7918042" lon="13.1351704"><ele>975.0</ele><time>2026-04-26T10:13:28.986Z</time></trkpt><trkpt lat="42.7919687" lon="13.135145"><ele>973.0</ele><time>2026-04-26T10:13:29.986Z</time></trkpt><trkpt lat="42.7920996" lon="13.1351044"><ele>971.0</ele><time>2026-04-26T10:13:30.986Z</time></trkpt><trkpt lat="42.7922051" lon="13.1350166"><ele>969.0</ele><time>2026-04-26T10:13:31.986Z</time></trkpt><trkpt lat="42.7923096" lon="13.1348605"><ele>967.0</ele><time>2026-04-26T10:13:32.986Z</time></trkpt><trkpt lat="42.7924131" lon="13.1346914"><ele>967.0</ele><time>2026-04-26T10:13:33.986Z</time></trkpt><trkpt lat="42.792588" lon="13.1345773"><ele>967.0</ele><time>2026-04-26T10:13:34.986Z</time></trkpt><trkpt lat="42.7927985" lon="13.1344458"><ele>967.0</ele><time>2026-04-26T10:13:35.986Z</time></trkpt><trkpt lat="42.7930397" lon="13.1342936"><ele>980.5</ele><time>2026-04-26T10:13:36.986Z</time></trkpt><trkpt lat="42.7932964" lon="13.1341334"><ele>994.0</ele><time>2026-04-26T10:13:37.986Z</time></trkpt><trkpt lat="42.7935259" lon="13.1339764"><ele>994.0</ele><time>2026-04-26T10:13:38.986Z</time></trkpt><trkpt lat="42.7937323" lon="13.1338094"><ele>994.0</ele><time>2026-04-26T10:13:39.986Z</time></trkpt><trkpt lat="42.7939435" lon="13.1336454"><ele>994.0</ele><time>2026-04-26T10:13:40.986Z</time></trkpt><trkpt lat="42.7941779" lon="13.1334967"><ele>994.0</ele><time>2026-04-26T10:13:41.986Z</time></trkpt><trkpt lat="42.7944129" lon="13.1333777"><ele>989.0</ele><time>2026-04-26T10:13:42.986Z</time></trkpt><trkpt lat="42.7946312" lon="13.1332746"><ele>984.0</ele><time>2026-04-26T10:13:43.986Z</time></trkpt><trkpt lat="42.7948324" lon="13.1331566"><ele>984.0</ele><time>2026-04-26T10:13:44.986Z</time></trkpt><trkpt lat="42.7950114" lon="13.1330139"><ele>984.0</ele><time>2026-04-26T10:13:45.986Z</time></trkpt><trkpt lat="42.7951732" lon="13.1328714"><ele>984.0</ele><time>2026-04-26T10:13:46.986Z</time></trkpt><trkpt lat="42.7953083" lon="13.1327538"><ele>988.2</ele><time>2026-04-26T10:13:47.987Z</time></trkpt><trkpt lat="42.7954298" lon="13.1326635"><ele>992.4000000000001</ele><time>2026-04-26T10:13:48.986Z</time></trkpt><trkpt lat="42.7955275" lon="13.1326243"><ele>996.6</ele><time>2026-04-26T10:13:49.986Z</time></trkpt><trkpt lat="42.7955972" lon="13.1326416"><ele>1000.8</ele><time>2026-04-26T10:13:50.986Z</time></trkpt><trkpt lat="42.7956375" lon="13.1327925"><ele>1005.0</ele><time>2026-04-26T10:13:52.986Z</time></trkpt><trkpt lat="42.7955891" lon="13.1328819"><ele>1005.0</ele><time>2026-04-26T10:13:53.987Z</time></trkpt><trkpt lat="42.7955" lon="13.132948"><ele>1005.0</ele><time>2026-04-26T10:13:54.987Z</time></trkpt><trkpt lat="42.7953709" lon="13.1330046"><ele>1005.0</ele><time>2026-04-26T10:13:55.987Z</time></trkpt><trkpt lat="42.7952271" lon="13.1330957"><ele>1005.0</ele><time>2026-04-26T10:13:56.986Z</time></trkpt><trkpt lat="42.795062" lon="13.1332239"><ele>1008.0</ele><time>2026-04-26T10:13:57.986Z</time></trkpt><trkpt lat="42.7948743" lon="13.1333888"><ele>1011.0</ele><time>2026-04-26T10:13:58.986Z</time></trkpt><trkpt lat="42.7946841" lon="13.1335461"><ele>1014.0</ele><time>2026-04-26T10:13:59.987Z</time></trkpt><trkpt lat="42.7944983" lon="13.1336835"><ele>1018.3333333333333</ele><time>2026-04-26T10:14:00.986Z</time></trkpt><trkpt lat="42.7943271" lon="13.1338047"><ele>1022.6666666666666</ele><time>2026-04-26T10:14:01.986Z</time></trkpt><trkpt lat="42.7941557" lon="13.1339364"><ele>1027.0</ele><time>2026-04-26T10:14:02.986Z</time></trkpt><trkpt lat="42.7939901" lon="13.1341203"><ele>1027.0</ele><time>2026-04-26T10:14:03.986Z</time></trkpt><trkpt lat="42.7938131" lon="13.1343499"><ele>1027.0</ele><time>2026-04-26T10:14:04.986Z</time></trkpt><trkpt lat="42.7935938" lon="13.1345639"><ele>1031.5</ele><time>2026-04-26T10:14:05.986Z</time></trkpt><trkpt lat="42.7933723" lon="13.1347703"><ele>1036.0</ele><time>2026-04-26T10:14:06.986Z</time></trkpt><trkpt lat="42.7931768" lon="13.1349493"><ele>1036.0</ele><time>2026-04-26T10:14:07.986Z</time></trkpt><trkpt lat="42.7929988" lon="13.1351232"><ele>1036.0</ele><time>2026-04-26T10:14:08.986Z</time></trkpt><trkpt lat="42.7928509" lon="13.1352914"><ele>1036.0</ele><time>2026-04-26T10:14:09.986Z</time></trkpt><trkpt lat="42.7927277" lon="13.1354748"><ele>1036.3333333333333</ele><time>2026-04-26T10:14:10.987Z</time></trkpt><trkpt lat="42.7926232" lon="13.1356471"><ele>1036.6666666666667</ele><time>2026-04-26T10:14:11.987Z</time></trkpt><trkpt lat="42.7925145" lon="13.1357974"><ele>1037.0</ele><time>2026-04-26T10:14:12.986Z</time></trkpt><trkpt lat="42.7923776" lon="13.1359018"><ele>1037.0</ele><time>2026-04-26T10:14:13.986Z</time></trkpt><trkpt lat="42.7921966" lon="13.1359988"><ele>1037.0</ele><time>2026-04-26T10:14:14.987Z</time></trkpt><trkpt lat="42.7920112" lon="13.1360947"><ele>1037.0</ele><time>2026-04-26T10:14:15.986Z</time></trkpt><trkpt lat="42.7918407" lon="13.1361986"><ele>1040.0</ele><time>2026-04-26T10:14:16.986Z</time></trkpt><trkpt lat="42.7916882" lon="13.1363357"><ele>1043.0</ele><time>2026-04-26T10:14:17.986Z</time></trkpt><trkpt lat="42.7915464" lon="13.136541"><ele>1046.0</ele><time>2026-04-26T10:14:18.986Z</time></trkpt><trkpt lat="42.7914067" lon="13.1367941"><ele>1046.0</ele><time>2026-04-26T10:14:19.986Z</time></trkpt><trkpt lat="42.7912694" lon="13.1370642"><ele>1046.0</ele><time>2026-04-26T10:14:20.987Z</time></trkpt><trkpt lat="42.7911323" lon="13.137318"><ele>1045.3333333333335</ele><time>2026-04-26T10:14:21.986Z</time></trkpt><trkpt lat="42.7910052" lon="13.1375291"><ele>1044.6666666666667</ele><time>2026-04-26T10:14:22.987Z</time></trkpt><trkpt lat="42.7908988" lon="13.1377028"><ele>1044.0</ele><time>2026-04-26T10:14:23.986Z</time></trkpt><trkpt lat="42.7908177" lon="13.1378218"><ele>1044.0</ele><time>2026-04-26T10:14:24.986Z</time></trkpt><trkpt lat="42.790715" lon="13.1378917"><ele>1044.0</ele><time>2026-04-26T10:14:25.987Z</time></trkpt><trkpt lat="42.7905911" lon="13.1379198"><ele>1044.0</ele><time>2026-04-26T10:14:26.986Z</time></trkpt><trkpt lat="42.7904337" lon="13.1378873"><ele>1044.0</ele><time>2026-04-26T10:14:27.986Z</time></trkpt><trkpt lat="42.7902616" lon="13.1378793"><ele>1039.6666666666667</ele><time>2026-04-26T10:14:28.987Z</time></trkpt><trkpt lat="42.7900852" lon="13.1379214"><ele>1035.3333333333335</ele><time>2026-04-26T10:14:29.986Z</time></trkpt><trkpt lat="42.7899352" lon="13.1379854"><ele>1031.0</ele><time>2026-04-26T10:14:30.986Z</time></trkpt><trkpt lat="42.7897783" lon="13.1379878"><ele>1031.0</ele><time>2026-04-26T10:14:31.986Z</time></trkpt><trkpt lat="42.7896241" lon="13.1379406"><ele>1031.0</ele><time>2026-04-26T10:14:32.986Z</time></trkpt><trkpt lat="42.789468" lon="13.1379102"><ele>1031.0</ele><time>2026-04-26T10:14:33.986Z</time></trkpt><trkpt lat="42.7893041" lon="13.137927"><ele>1031.0</ele><time>2026-04-26T10:14:34.986Z</time></trkpt><trkpt lat="42.7891215" lon="13.1380146"><ele>1031.0</ele><time>2026-04-26T10:14:35.986Z</time></trkpt><trkpt lat="42.7889283" lon="13.1381495"><ele>1031.0</ele><time>2026-04-26T10:14:36.986Z</time></trkpt><trkpt lat="42.7887039" lon="13.1383193"><ele>1040.5</ele><time>2026-04-26T10:14:37.986Z</time></trkpt><trkpt lat="42.7884824" lon="13.1384895"><ele>1050.0</ele><time>2026-04-26T10:14:38.987Z</time></trkpt><trkpt lat="42.788269" lon="13.1386545"><ele>1050.0</ele><time>2026-04-26T10:14:39.986Z</time></trkpt><trkpt lat="42.7880735" lon="13.138825"><ele>1050.0</ele><time>2026-04-26T10:14:40.986Z</time></trkpt><trkpt lat="42.7878891" lon="13.1390172"><ele>1052.5</ele><time>2026-04-26T10:14:41.986Z</time></trkpt><trkpt lat="42.7877129" lon="13.1392387"><ele>1055.0</ele><time>2026-04-26T10:14:42.986Z</time></trkpt><trkpt lat="42.7875499" lon="13.1394704"><ele>1055.0</ele><time>2026-04-26T10:14:43.986Z</time></trkpt><trkpt lat="42.7873885" lon="13.139724"><ele>1055.0</ele><time>2026-04-26T10:14:44.986Z</time></trkpt><trkpt lat="42.7872392" lon="13.1400019"><ele>1072.5</ele><time>2026-04-26T10:14:45.986Z</time></trkpt><trkpt lat="42.7870993" lon="13.1402939"><ele>1090.0</ele><time>2026-04-26T10:14:46.987Z</time></trkpt><trkpt lat="42.7869608" lon="13.1405805"><ele>1080.5</ele><time>2026-04-26T10:14:47.986Z</time></trkpt><trkpt lat="42.7868338" lon="13.140845"><ele>1071.0</ele><time>2026-04-26T10:14:48.986Z</time></trkpt><trkpt lat="42.7867147" lon="13.1411062"><ele>1071.0</ele><time>2026-04-26T10:14:49.986Z</time></trkpt><trkpt lat="42.7866066" lon="13.1413816"><ele>1071.0</ele><time>2026-04-26T10:14:50.986Z</time></trkpt><trkpt lat="42.7865243" lon="13.1416697"><ele>1076.0</ele><time>2026-04-26T10:14:51.986Z</time></trkpt><trkpt lat="42.78647" lon="13.1419598"><ele>1081.0</ele><time>2026-04-26T10:14:52.986Z</time></trkpt><trkpt lat="42.7864205" lon="13.142259"><ele>1086.0</ele><time>2026-04-26T10:14:53.987Z</time></trkpt><trkpt lat="42.7863914" lon="13.1425743"><ele>1090.0</ele><time>2026-04-26T10:14:54.986Z</time></trkpt><trkpt lat="42.7863734" lon="13.1428864"><ele>1094.0</ele><time>2026-04-26T10:14:55.987Z</time></trkpt><trkpt lat="42.7863631" lon="13.1431791"><ele>1098.0</ele><time>2026-04-26T10:14:56.987Z</time></trkpt><trkpt lat="42.7863352" lon="13.1434622"><ele>1102.3333333333333</ele><time>2026-04-26T10:14:57.986Z</time></trkpt><trkpt lat="42.7862779" lon="13.143737"><ele>1106.6666666666665</ele><time>2026-04-26T10:14:58.986Z</time></trkpt><trkpt lat="42.7861908" lon="13.1440022"><ele>1111.0</ele><time>2026-04-26T10:14:59.986Z</time></trkpt><trkpt lat="42.7861211" lon="13.1442761"><ele>1114.3333333333333</ele><time>2026-04-26T10:15:00.986Z</time></trkpt><trkpt lat="42.7860709" lon="13.1445592"><ele>1117.6666666666667</ele><time>2026-04-26T10:15:01.986Z</time></trkpt><trkpt lat="42.7860353" lon="13.1448021"><ele>1121.0</ele><time>2026-04-26T10:15:02.986Z</time></trkpt><trkpt lat="42.7860031" lon="13.1450062"><ele>1114.25</ele><time>2026-04-26T10:15:03.986Z</time></trkpt><trkpt lat="42.7859619" lon="13.1451657"><ele>1107.5</ele><time>2026-04-26T10:15:04.986Z</time></trkpt><trkpt lat="42.7858939" lon="13.1452961"><ele>1100.75</ele><time>2026-04-26T10:15:05.986Z</time></trkpt><trkpt lat="42.78578" lon="13.1453599"><ele>1094.0</ele><time>2026-04-26T10:15:06.986Z</time></trkpt><trkpt lat="42.7856438" lon="13.1453741"><ele>1094.0</ele><time>2026-04-26T10:15:07.986Z</time></trkpt><trkpt lat="42.7855068" lon="13.1453624"><ele>1094.0</ele><time>2026-04-26T10:15:08.986Z</time></trkpt><trkpt lat="42.7853666" lon="13.1454536"><ele>1094.0</ele><time>2026-04-26T10:15:09.986Z</time></trkpt><trkpt lat="42.7852122" lon="13.1455879"><ele>1095.6666666666667</ele><time>2026-04-26T10:15:10.986Z</time></trkpt><trkpt lat="42.7850586" lon="13.1457593"><ele>1097.3333333333333</ele><time>2026-04-26T10:15:11.986Z</time></trkpt><trkpt lat="42.7849288" lon="13.1459614"><ele>1099.0</ele><time>2026-04-26T10:15:12.986Z</time></trkpt><trkpt lat="42.7847831" lon="13.1462064"><ele>1099.0</ele><time>2026-04-26T10:15:13.987Z</time></trkpt><trkpt lat="42.784625" lon="13.1464198"><ele>1099.0</ele><time>2026-04-26T10:15:14.987Z</time></trkpt><trkpt lat="42.7844678" lon="13.1465887"><ele>1099.0</ele><time>2026-04-26T10:15:15.986Z</time></trkpt><trkpt lat="42.7843015" lon="13.146711"><ele>1102.6666666666665</ele><time>2026-04-26T10:15:16.986Z</time></trkpt><trkpt lat="42.7841217" lon="13.1467798"><ele>1106.3333333333333</ele><time>2026-04-26T10:15:17.986Z</time></trkpt><trkpt lat="42.7839158" lon="13.1467839"><ele>1110.0</ele><time>2026-04-26T10:15:18.986Z</time></trkpt><trkpt lat="42.783692" lon="13.1467979"><ele>1106.5</ele><time>2026-04-26T10:15:19.986Z</time></trkpt><trkpt lat="42.7834517" lon="13.1468537"><ele>1103.0</ele><time>2026-04-26T10:15:20.987Z</time></trkpt><trkpt lat="42.7831884" lon="13.1469601"><ele>1103.0</ele><time>2026-04-26T10:15:21.986Z</time></trkpt><trkpt lat="42.7829136" lon="13.1470975"><ele>1103.0</ele><time>2026-04-26T10:15:22.986Z</time></trkpt><trkpt lat="42.7826147" lon="13.147248"><ele>1114.5</ele><time>2026-04-26T10:15:23.986Z</time></trkpt><trkpt lat="42.7823112" lon="13.1474387"><ele>1126.0</ele><time>2026-04-26T10:15:24.986Z</time></trkpt><trkpt lat="42.7820215" lon="13.1476216"><ele>1116.5</ele><time>2026-04-26T10:15:25.987Z</time></trkpt><trkpt lat="42.7817748" lon="13.1477885"><ele>1107.0</ele><time>2026-04-26T10:15:26.986Z</time></trkpt><trkpt lat="42.7815569" lon="13.1479401"><ele>1107.0</ele><time>2026-04-26T10:15:27.986Z</time></trkpt><trkpt lat="42.7813552" lon="13.1480964"><ele>1107.0</ele><time>2026-04-26T10:15:28.986Z</time></trkpt><trkpt lat="42.7811617" lon="13.1482683"><ele>1117.0</ele><time>2026-04-26T10:15:29.986Z</time></trkpt><trkpt lat="42.7809795" lon="13.1484664"><ele>1127.0</ele><time>2026-04-26T10:15:30.987Z</time></trkpt><trkpt lat="42.780801" lon="13.1486616"><ele>1127.0</ele><time>2026-04-26T10:15:31.987Z</time></trkpt><trkpt lat="42.7805969" lon="13.1488185"><ele>1127.0</ele><time>2026-04-26T10:15:32.986Z</time></trkpt><trkpt lat="42.7803573" lon="13.1489526"><ele>1134.0</ele><time>2026-04-26T10:15:33.986Z</time></trkpt><trkpt lat="42.7801052" lon="13.1491146"><ele>1141.0</ele><time>2026-04-26T10:15:34.986Z</time></trkpt><trkpt lat="42.7798726" lon="13.1492829"><ele>1141.0</ele><time>2026-04-26T10:15:35.987Z</time></trkpt><trkpt lat="42.7796572" lon="13.1494154"><ele>1141.0</ele><time>2026-04-26T10:15:36.987Z</time></trkpt><trkpt lat="42.7794556" lon="13.1495174"><ele>1136.0</ele><time>2026-04-26T10:15:37.986Z</time></trkpt><trkpt lat="42.7792662" lon="13.1496285"><ele>1131.0</ele><time>2026-04-26T10:15:38.986Z</time></trkpt><trkpt lat="42.7790671" lon="13.1497874"><ele>1126.0</ele><time>2026-04-26T10:15:39.986Z</time></trkpt><trkpt lat="42.7788618" lon="13.1499905"><ele>1131.0</ele><time>2026-04-26T10:15:40.986Z</time></trkpt><trkpt lat="42.7786679" lon="13.1501994"><ele>1136.0</ele><time>2026-04-26T10:15:41.986Z</time></trkpt><trkpt lat="42.7784836" lon="13.1504162"><ele>1136.0</ele><time>2026-04-26T10:15:42.986Z</time></trkpt><trkpt lat="42.7783026" lon="13.1506385"><ele>1136.0</ele><time>2026-04-26T10:15:43.986Z</time></trkpt><trkpt lat="42.7781251" lon="13.1508851"><ele>1149.5</ele><time>2026-04-26T10:15:44.987Z</time></trkpt><trkpt lat="42.7779512" lon="13.1511368"><ele>1163.0</ele><time>2026-04-26T10:15:45.986Z</time></trkpt><trkpt lat="42.7777774" lon="13.1513793"><ele>1160.0</ele><time>2026-04-26T10:15:46.986Z</time></trkpt><trkpt lat="42.7776178" lon="13.1516109"><ele>1157.0</ele><time>2026-04-26T10:15:47.986Z</time></trkpt><trkpt lat="42.7774785" lon="13.151835"><ele>1154.0</ele><time>2026-04-26T10:15:48.987Z</time></trkpt><trkpt lat="42.7773738" lon="13.152027"><ele>1154.0</ele><time>2026-04-26T10:15:49.986Z</time></trkpt><trkpt lat="42.777284" lon="13.1521921"><ele>1154.0</ele><time>2026-04-26T10:15:50.986Z</time></trkpt><trkpt lat="42.777196" lon="13.1523182"><ele>1154.0</ele><time>2026-04-26T10:15:51.987Z</time></trkpt><trkpt lat="42.7770941" lon="13.1524001"><ele>1154.0</ele><time>2026-04-26T10:15:52.986Z</time></trkpt><trkpt lat="42.7769795" lon="13.1524031"><ele>1154.0</ele><time>2026-04-26T10:15:53.986Z</time></trkpt><trkpt lat="42.7768642" lon="13.1523002"><ele>1154.0</ele><time>2026-04-26T10:15:54.986Z</time></trkpt><trkpt lat="42.776748" lon="13.1521514"><ele>1154.0</ele><time>2026-04-26T10:15:55.987Z</time></trkpt><trkpt lat="42.7766462" lon="13.1519465"><ele>1151.3333333333335</ele><time>2026-04-26T10:15:56.986Z</time></trkpt><trkpt lat="42.7765514" lon="13.1517736"><ele>1148.6666666666667</ele><time>2026-04-26T10:15:57.986Z</time></trkpt><trkpt lat="42.7764355" lon="13.1516434"><ele>1146.0</ele><time>2026-04-26T10:15:58.987Z</time></trkpt><trkpt lat="42.7762789" lon="13.1515543"><ele>1145.6666666666667</ele><time>2026-04-26T10:15:59.987Z</time></trkpt><trkpt lat="42.7760808" lon="13.1514693"><ele>1145.3333333333335</ele><time>2026-04-26T10:16:00.987Z</time></trkpt><trkpt lat="42.7758738" lon="13.1513584"><ele>1145.0</ele><time>2026-04-26T10:16:01.986Z</time></trkpt><trkpt lat="42.7756824" lon="13.1512542"><ele>1145.0</ele><time>2026-04-26T10:16:02.986Z</time></trkpt><trkpt lat="42.7755239" lon="13.1511339"><ele>1145.0</ele><time>2026-04-26T10:16:03.987Z</time></trkpt><trkpt lat="42.7753867" lon="13.1510441"><ele>1145.0</ele><time>2026-04-26T10:16:04.986Z</time></trkpt><trkpt lat="42.7752421" lon="13.1510031"><ele>1152.0</ele><time>2026-04-26T10:16:05.986Z</time></trkpt><trkpt lat="42.7750622" lon="13.1509959"><ele>1159.0</ele><time>2026-04-26T10:16:06.987Z</time></trkpt><trkpt lat="42.774872" lon="13.1509751"><ele>1166.0</ele><time>2026-04-26T10:16:07.986Z</time></trkpt><trkpt lat="42.7746956" lon="13.1509558"><ele>1166.0</ele><time>2026-04-26T10:16:08.986Z</time></trkpt><trkpt lat="42.7744971" lon="13.1509901"><ele>1166.0</ele><time>2026-04-26T10:16:09.986Z</time></trkpt><trkpt lat="42.7742896" lon="13.1510917"><ele>1166.0</ele><time>2026-04-26T10:16:10.986Z</time></trkpt><trkpt lat="42.7740544" lon="13.1512288"><ele>1162.0</ele><time>2026-04-26T10:16:11.986Z</time></trkpt><trkpt lat="42.7738219" lon="13.1513638"><ele>1158.0</ele><time>2026-04-26T10:16:12.986Z</time></trkpt><trkpt lat="42.7736273" lon="13.1514938"><ele>1168.3333333333333</ele><time>2026-04-26T10:16:13.986Z</time></trkpt><trkpt lat="42.7734583" lon="13.1515942"><ele>1178.6666666666665</ele><time>2026-04-26T10:16:14.987Z</time></trkpt><trkpt lat="42.7732904" lon="13.1516508"><ele>1189.0</ele><time>2026-04-26T10:16:15.986Z</time></trkpt><trkpt lat="42.7731038" lon="13.1516028"><ele>1177.6666666666665</ele><time>2026-04-26T10:16:16.986Z</time></trkpt><trkpt lat="42.7729308" lon="13.1515197"><ele>1166.3333333333333</ele><time>2026-04-26T10:16:17.987Z</time></trkpt><trkpt lat="42.7727531" lon="13.1514926"><ele>1155.0</ele><time>2026-04-26T10:16:18.986Z</time></trkpt><trkpt lat="42.7725745" lon="13.1515291"><ele>1173.5</ele><time>2026-04-26T10:16:19.986Z</time></trkpt><trkpt lat="42.7723641" lon="13.1515897"><ele>1192.0</ele><time>2026-04-26T10:16:20.987Z</time></trkpt><trkpt lat="42.7721259" lon="13.1516027"><ele>1192.0</ele><time>2026-04-26T10:16:21.987Z</time></trkpt><trkpt lat="42.7718606" lon="13.1515799"><ele>1192.0</ele><time>2026-04-26T10:16:22.986Z</time></trkpt><trkpt lat="42.771588" lon="13.1515487"><ele>1182.0</ele><time>2026-04-26T10:16:23.986Z</time></trkpt><trkpt lat="42.7713457" lon="13.1515147"><ele>1172.0</ele><time>2026-04-26T10:16:24.986Z</time></trkpt><trkpt lat="42.7711583" lon="13.1514661"><ele>1162.0</ele><time>2026-04-26T10:16:25.986Z</time></trkpt><trkpt lat="42.7709862" lon="13.1514383"><ele>1162.0</ele><time>2026-04-26T10:16:26.986Z</time></trkpt><trkpt lat="42.7708137" lon="13.1514664"><ele>1162.0</ele><time>2026-04-26T10:16:27.986Z</time></trkpt><trkpt lat="42.7706488" lon="13.1515263"><ele>1162.0</ele><time>2026-04-26T10:16:28.987Z</time></trkpt><trkpt lat="42.7705045" lon="13.1516076"><ele>1174.6666666666665</ele><time>2026-04-26T10:16:29.987Z</time></trkpt><trkpt lat="42.7703833" lon="13.1517281"><ele>1187.3333333333333</ele><time>2026-04-26T10:16:30.986Z</time></trkpt><trkpt lat="42.7702892" lon="13.1518685"><ele>1200.0</ele><time>2026-04-26T10:16:31.986Z</time></trkpt><trkpt lat="42.7702224" lon="13.1520731"><ele>1197.6666666666667</ele><time>2026-04-26T10:16:32.986Z</time></trkpt><trkpt lat="42.7701538" lon="13.1523166"><ele>1195.3333333333335</ele><time>2026-04-26T10:16:33.986Z</time></trkpt><trkpt lat="42.7700722" lon="13.1526002"><ele>1193.0</ele><time>2026-04-26T10:16:34.986Z</time></trkpt><trkpt lat="42.7699843" lon="13.1529225"><ele>1204.0</ele><time>2026-04-26T10:16:35.986Z</time></trkpt><trkpt lat="42.7698911" lon="13.1532528"><ele>1215.0</ele><time>2026-04-26T10:16:36.986Z</time></trkpt><trkpt lat="42.7697909" lon="13.1535685"><ele>1215.0</ele><time>2026-04-26T10:16:37.987Z</time></trkpt><trkpt lat="42.769672" lon="13.1538608"><ele>1215.0</ele><time>2026-04-26T10:16:38.986Z</time></trkpt><trkpt lat="42.7695229" lon="13.1541384"><ele>1206.0</ele><time>2026-04-26T10:16:39.986Z</time></trkpt><trkpt lat="42.7693474" lon="13.1544229"><ele>1197.0</ele><time>2026-04-26T10:16:40.986Z</time></trkpt><trkpt lat="42.7691773" lon="13.1546979"><ele>1211.0</ele><time>2026-04-26T10:16:41.986Z</time></trkpt><trkpt lat="42.7690234" lon="13.1549768"><ele>1225.0</ele><time>2026-04-26T10:16:42.986Z</time></trkpt><trkpt lat="42.768875" lon="13.1551982"><ele>1225.0</ele><time>2026-04-26T10:16:43.986Z</time></trkpt><trkpt lat="42.7687212" lon="13.1553974"><ele>1225.0</ele><time>2026-04-26T10:16:44.986Z</time></trkpt><trkpt lat="42.7685556" lon="13.1555492"><ele>1225.0</ele><time>2026-04-26T10:16:45.986Z</time></trkpt><trkpt lat="42.7683965" lon="13.1556874"><ele>1223.3333333333333</ele><time>2026-04-26T10:16:46.986Z</time></trkpt><trkpt lat="42.7682437" lon="13.1558289"><ele>1221.6666666666667</ele><time>2026-04-26T10:16:47.986Z</time></trkpt><trkpt lat="42.7681142" lon="13.1559817"><ele>1220.0</ele><time>2026-04-26T10:16:48.986Z</time></trkpt><trkpt lat="42.7679954" lon="13.1561632"><ele>1220.0</ele><time>2026-04-26T10:16:49.986Z</time></trkpt><trkpt lat="42.7678923" lon="13.1563689"><ele>1220.0</ele><time>2026-04-26T10:16:50.986Z</time></trkpt><trkpt lat="42.7677983" lon="13.156559"><ele>1220.0</ele><time>2026-04-26T10:16:51.986Z</time></trkpt><trkpt lat="42.7677106" lon="13.1567318"><ele>1216.3333333333335</ele><time>2026-04-26T10:16:52.987Z</time></trkpt><trkpt lat="42.7676272" lon="13.1569111"><ele>1212.6666666666667</ele><time>2026-04-26T10:16:53.986Z</time></trkpt><trkpt lat="42.7675467" lon="13.1570887"><ele>1209.0</ele><time>2026-04-26T10:16:54.986Z</time></trkpt><trkpt lat="42.7674655" lon="13.1572732"><ele>1216.0</ele><time>2026-04-26T10:16:55.986Z</time></trkpt><trkpt lat="42.7673935" lon="13.1574685"><ele>1223.0</ele><time>2026-04-26T10:16:56.986Z</time></trkpt><trkpt lat="42.7673289" lon="13.1576838"><ele>1230.0</ele><time>2026-04-26T10:16:57.987Z</time></trkpt><trkpt lat="42.7672804" lon="13.1579171"><ele>1230.0</ele><time>2026-04-26T10:16:58.986Z</time></trkpt><trkpt lat="42.7672458" lon="13.1581386"><ele>1230.0</ele><time>2026-04-26T10:16:59.986Z</time></trkpt><trkpt lat="42.7672063" lon="13.1583696"><ele>1230.0</ele><time>2026-04-26T10:17:00.994Z</time></trkpt><trkpt lat="42.7671692" lon="13.1585983"><ele>1235.3333333333333</ele><time>2026-04-26T10:17:01.994Z</time></trkpt><trkpt lat="42.7671337" lon="13.1588287"><ele>1240.6666666666665</ele><time>2026-04-26T10:17:02.994Z</time></trkpt><trkpt lat="42.7671033" lon="13.1590463"><ele>1246.0</ele><time>2026-04-26T10:17:03.994Z</time></trkpt><trkpt lat="42.7670758" lon="13.159257"><ele>1249.6666666666665</ele><time>2026-04-26T10:17:04.994Z</time></trkpt><trkpt lat="42.7670436" lon="13.1594529"><ele>1253.3333333333333</ele><time>2026-04-26T10:17:05.994Z</time></trkpt><trkpt lat="42.7670074" lon="13.159656"><ele>1257.0</ele><time>2026-04-26T10:17:06.994Z</time></trkpt><trkpt lat="42.7669886" lon="13.1598756"><ele>1260.6666666666667</ele><time>2026-04-26T10:17:07.995Z</time></trkpt><trkpt lat="42.7669858" lon="13.1601015"><ele>1264.3333333333335</ele><time>2026-04-26T10:17:08.994Z</time></trkpt><trkpt lat="42.7670032" lon="13.1603287"><ele>1268.0</ele><time>2026-04-26T10:17:09.994Z</time></trkpt><trkpt lat="42.7670413" lon="13.1605452"><ele>1268.3333333333335</ele><time>2026-04-26T10:17:10.994Z</time></trkpt><trkpt lat="42.7671028" lon="13.1607668"><ele>1268.6666666666667</ele><time>2026-04-26T10:17:11.995Z</time></trkpt><trkpt lat="42.7671631" lon="13.1610002"><ele>1269.0</ele><time>2026-04-26T10:17:12.994Z</time></trkpt><trkpt lat="42.7672178" lon="13.1612521"><ele>1269.0</ele><time>2026-04-26T10:17:13.994Z</time></trkpt><trkpt lat="42.7672588" lon="13.1614886"><ele>1269.0</ele><time>2026-04-26T10:17:14.995Z</time></trkpt><trkpt lat="42.7672926" lon="13.1617052"><ele>1269.0</ele><time>2026-04-26T10:17:15.994Z</time></trkpt><trkpt lat="42.7673303" lon="13.1619165"><ele>1268.0</ele><time>2026-04-26T10:17:16.994Z</time></trkpt><trkpt lat="42.767367" lon="13.162123"><ele>1267.0</ele><time>2026-04-26T10:17:17.994Z</time></trkpt><trkpt lat="42.7674058" lon="13.1623432"><ele>1266.0</ele><time>2026-04-26T10:17:18.994Z</time></trkpt><trkpt lat="42.7674544" lon="13.1625451"><ele>1264.75</ele><time>2026-04-26T10:17:19.994Z</time></trkpt><trkpt lat="42.7675027" lon="13.1627131"><ele>1263.5</ele><time>2026-04-26T10:17:20.994Z</time></trkpt><trkpt lat="42.7675468" lon="13.1628661"><ele>1262.25</ele><time>2026-04-26T10:17:21.995Z</time></trkpt><trkpt lat="42.7675669" lon="13.1630155"><ele>1261.0</ele><time>2026-04-26T10:17:22.994Z</time></trkpt><trkpt lat="42.7675579" lon="13.1631422"><ele>1262.0</ele><time>2026-04-26T10:17:23.995Z</time></trkpt><trkpt lat="42.7675254" lon="13.1632403"><ele>1263.0</ele><time>2026-04-26T10:17:24.994Z</time></trkpt><trkpt lat="42.7674499" lon="13.1633156"><ele>1264.0</ele><time>2026-04-26T10:17:25.994Z</time></trkpt><trkpt lat="42.7673363" lon="13.1633683"><ele>1265.0</ele><time>2026-04-26T10:17:26.994Z</time></trkpt><trkpt lat="42.7672028" lon="13.163385"><ele>1266.0</ele><time>2026-04-26T10:17:27.995Z</time></trkpt><trkpt lat="42.7670424" lon="13.1633831"><ele>1264.0</ele><time>2026-04-26T10:17:28.994Z</time></trkpt><trkpt lat="42.7668601" lon="13.1633901"><ele>1262.0</ele><time>2026-04-26T10:17:29.994Z</time></trkpt><trkpt lat="42.7666224" lon="13.1633891"><ele>1260.0</ele><time>2026-04-26T10:17:30.994Z</time></trkpt><trkpt lat="42.7663551" lon="13.1633681"><ele>1260.0</ele><time>2026-04-26T10:17:31.995Z</time></trkpt><trkpt lat="42.7660672" lon="13.1633161"><ele>1260.0</ele><time>2026-04-26T10:17:32.994Z</time></trkpt><trkpt lat="42.7657996" lon="13.163273"><ele>1263.0</ele><time>2026-04-26T10:17:33.994Z</time></trkpt><trkpt lat="42.7655753" lon="13.1631981"><ele>1266.0</ele><time>2026-04-26T10:17:34.994Z</time></trkpt><trkpt lat="42.7653818" lon="13.1630994"><ele>1269.0</ele><time>2026-04-26T10:17:35.994Z</time></trkpt><trkpt lat="42.7652017" lon="13.1629965"><ele>1263.0</ele><time>2026-04-26T10:17:36.994Z</time></trkpt><trkpt lat="42.7650255" lon="13.1629075"><ele>1257.0</ele><time>2026-04-26T10:17:37.995Z</time></trkpt><trkpt lat="42.7648567" lon="13.1628645"><ele>1251.0</ele><time>2026-04-26T10:17:38.994Z</time></trkpt><trkpt lat="42.764687" lon="13.162875"><ele>1251.0</ele><time>2026-04-26T10:17:39.994Z</time></trkpt><trkpt lat="42.7644871" lon="13.1629417"><ele>1251.0</ele><time>2026-04-26T10:17:40.994Z</time></trkpt><trkpt lat="42.7642908" lon="13.1630311"><ele>1251.0</ele><time>2026-04-26T10:17:41.994Z</time></trkpt><trkpt lat="42.7641195" lon="13.1631114"><ele>1250.5</ele><time>2026-04-26T10:17:42.994Z</time></trkpt><trkpt lat="42.7639814" lon="13.1631886"><ele>1250.0</ele><time>2026-04-26T10:17:43.995Z</time></trkpt><trkpt lat="42.7638852" lon="13.1632968"><ele>1249.5</ele><time>2026-04-26T10:17:44.995Z</time></trkpt><trkpt lat="42.7638204" lon="13.1634486"><ele>1249.0</ele><time>2026-04-26T10:17:45.994Z</time></trkpt><trkpt lat="42.7637801" lon="13.1636456"><ele>1258.3333333333333</ele><time>2026-04-26T10:17:46.994Z</time></trkpt><trkpt lat="42.7638087" lon="13.1638767"><ele>1267.6666666666667</ele><time>2026-04-26T10:17:47.994Z</time></trkpt><trkpt lat="42.763861" lon="13.1641332"><ele>1277.0</ele><time>2026-04-26T10:17:48.994Z</time></trkpt><trkpt lat="42.7639106" lon="13.1644242"><ele>1282.6666666666667</ele><time>2026-04-26T10:17:49.994Z</time></trkpt><trkpt lat="42.7639254" lon="13.1646947"><ele>1288.3333333333333</ele><time>2026-04-26T10:17:50.994Z</time></trkpt><trkpt lat="42.7639335" lon="13.1649352"><ele>1294.0</ele><time>2026-04-26T10:17:51.995Z</time></trkpt><trkpt lat="42.7639698" lon="13.1651482"><ele>1294.6666666666665</ele><time>2026-04-26T10:17:52.994Z</time></trkpt><trkpt lat="42.7640548" lon="13.1653496"><ele>1295.3333333333333</ele><time>2026-04-26T10:17:53.994Z</time></trkpt><trkpt lat="42.7641963" lon="13.165537"><ele>1296.0</ele><time>2026-04-26T10:17:54.994Z</time></trkpt><trkpt lat="42.7643836" lon="13.1657276"><ele>1312.0</ele><time>2026-04-26T10:17:55.994Z</time></trkpt><trkpt lat="42.7645812" lon="13.1659235"><ele>1328.0</ele><time>2026-04-26T10:17:56.994Z</time></trkpt><trkpt lat="42.7647596" lon="13.1661162"><ele>1328.0</ele><time>2026-04-26T10:17:57.994Z</time></trkpt><trkpt lat="42.76492" lon="13.166331"><ele>1328.0</ele><time>2026-04-26T10:17:58.995Z</time></trkpt><trkpt lat="42.7650688" lon="13.1665742"><ele>1341.5</ele><time>2026-04-26T10:17:59.994Z</time></trkpt><trkpt lat="42.7652164" lon="13.1668382"><ele>1355.0</ele><time>2026-04-26T10:18:00.994Z</time></trkpt><trkpt lat="42.7653684" lon="13.1670805"><ele>1355.0</ele><time>2026-04-26T10:18:01.994Z</time></trkpt><trkpt lat="42.7655053" lon="13.1673105"><ele>1355.0</ele><time>2026-04-26T10:18:02.995Z</time></trkpt><trkpt lat="42.7656274" lon="13.167538"><ele>1355.0</ele><time>2026-04-26T10:18:03.995Z</time></trkpt><trkpt lat="42.7657645" lon="13.1677367"><ele>1357.6666666666667</ele><time>2026-04-26T10:18:04.994Z</time></trkpt><trkpt lat="42.7659287" lon="13.167895"><ele>1360.3333333333333</ele><time>2026-04-26T10:18:05.994Z</time></trkpt><trkpt lat="42.7661175" lon="13.1680308"><ele>1363.0</ele><time>2026-04-26T10:18:06.994Z</time></trkpt><trkpt lat="42.7662952" lon="13.1681975"><ele>1347.0</ele><time>2026-04-26T10:18:07.995Z</time></trkpt><trkpt lat="42.7664576" lon="13.1684336"><ele>1331.0</ele><time>2026-04-26T10:18:08.994Z</time></trkpt><trkpt lat="42.7666302" lon="13.168712"><ele>1320.5</ele><time>2026-04-26T10:18:09.994Z</time></trkpt><trkpt lat="42.7668118" lon="13.1690426"><ele>1310.0</ele><time>2026-04-26T10:18:10.994Z</time></trkpt><trkpt lat="42.7669965" lon="13.1693902"><ele>1319.5</ele><time>2026-04-26T10:18:11.994Z</time></trkpt><trkpt lat="42.7671874" lon="13.1697312"><ele>1329.0</ele><time>2026-04-26T10:18:12.994Z</time></trkpt><trkpt lat="42.7673505" lon="13.1700402"><ele>1329.0</ele><time>2026-04-26T10:18:13.994Z</time></trkpt><trkpt lat="42.7674995" lon="13.1703333"><ele>1329.0</ele><time>2026-04-26T10:18:14.995Z</time></trkpt><trkpt lat="42.7676335" lon="13.1705995"><ele>1337.6666666666667</ele><time>2026-04-26T10:18:15.994Z</time></trkpt><trkpt lat="42.7677499" lon="13.1708439"><ele>1346.3333333333335</ele><time>2026-04-26T10:18:16.994Z</time></trkpt><trkpt lat="42.7678457" lon="13.1710626"><ele>1355.0</ele><time>2026-04-26T10:18:17.994Z</time></trkpt><trkpt lat="42.7679084" lon="13.1712672"><ele>1355.0</ele><time>2026-04-26T10:18:18.994Z</time></trkpt><trkpt lat="42.7679374" lon="13.1714572"><ele>1355.0</ele><time>2026-04-26T10:18:19.994Z</time></trkpt><trkpt lat="42.7679338" lon="13.1716482"><ele>1355.0</ele><time>2026-04-26T10:18:20.994Z</time></trkpt><trkpt lat="42.7678825" lon="13.171814"><ele>1355.0</ele><time>2026-04-26T10:18:21.994Z</time></trkpt><trkpt lat="42.7677866" lon="13.1719319"><ele>1343.0</ele><time>2026-04-26T10:18:22.995Z</time></trkpt><trkpt lat="42.7676402" lon="13.1720198"><ele>1331.0</ele><time>2026-04-26T10:18:23.995Z</time></trkpt><trkpt lat="42.7674477" lon="13.1720707"><ele>1319.0</ele><time>2026-04-26T10:18:24.994Z</time></trkpt><trkpt lat="42.7672344" lon="13.1721224"><ele>1319.0</ele><time>2026-04-26T10:18:25.994Z</time></trkpt><trkpt lat="42.7670017" lon="13.1721724"><ele>1319.0</ele><time>2026-04-26T10:18:26.994Z</time></trkpt><trkpt lat="42.7667772" lon="13.1722288"><ele>1315.0</ele><time>2026-04-26T10:18:27.995Z</time></trkpt><trkpt lat="42.7665783" lon="13.172286"><ele>1311.0</ele><time>2026-04-26T10:18:28.994Z</time></trkpt><trkpt lat="42.7664041" lon="13.1723646"><ele>1307.0</ele><time>2026-04-26T10:18:29.994Z</time></trkpt><trkpt lat="42.7662593" lon="13.1724701"><ele>1309.3333333333335</ele><time>2026-04-26T10:18:30.995Z</time></trkpt><trkpt lat="42.7661251" lon="13.1726241"><ele>1311.6666666666667</ele><time>2026-04-26T10:18:31.994Z</time></trkpt><trkpt lat="42.7660078" lon="13.1728399"><ele>1314.0</ele><time>2026-04-26T10:18:32.994Z</time></trkpt><trkpt lat="42.7658749" lon="13.1730926"><ele>1327.5</ele><time>2026-04-26T10:18:33.994Z</time></trkpt><trkpt lat="42.7657339" lon="13.1733827"><ele>1341.0</ele><time>2026-04-26T10:18:34.994Z</time></trkpt><trkpt lat="42.7655611" lon="13.1737087"><ele>1354.5</ele><time>2026-04-26T10:18:35.994Z</time></trkpt><trkpt lat="42.7654097" lon="13.1740364"><ele>1368.0</ele><time>2026-04-26T10:18:36.995Z</time></trkpt><trkpt lat="42.7652685" lon="13.1742994"><ele>1357.0</ele><time>2026-04-26T10:18:37.995Z</time></trkpt><trkpt lat="42.7651379" lon="13.1744962"><ele>1346.0</ele><time>2026-04-26T10:18:38.994Z</time></trkpt><trkpt lat="42.7650089" lon="13.1746502"><ele>1335.0</ele><time>2026-04-26T10:18:39.994Z</time></trkpt><trkpt lat="42.7648855" lon="13.1747165"><ele>1335.0</ele><time>2026-04-26T10:18:40.994Z</time></trkpt><trkpt lat="42.7647405" lon="13.1747166"><ele>1335.0</ele><time>2026-04-26T10:18:41.995Z</time></trkpt><trkpt lat="42.7645902" lon="13.1746615"><ele>1335.0</ele><time>2026-04-26T10:18:42.994Z</time></trkpt><trkpt lat="42.7644396" lon="13.1746396"><ele>1335.0</ele><time>2026-04-26T10:18:43.994Z</time></trkpt><trkpt lat="42.7643131" lon="13.1747223"><ele>1335.0</ele><time>2026-04-26T10:18:44.994Z</time></trkpt><trkpt lat="42.7641909" lon="13.1748386"><ele>1335.0</ele><time>2026-04-26T10:18:45.994Z</time></trkpt><trkpt lat="42.7640964" lon="13.1749661"><ele>1335.0</ele><time>2026-04-26T10:18:46.994Z</time></trkpt><trkpt lat="42.7639982" lon="13.1750293"><ele>1335.0</ele><time>2026-04-26T10:18:47.994Z</time></trkpt><trkpt lat="42.7638893" lon="13.1750231"><ele>1335.0</ele><time>2026-04-26T10:18:48.994Z</time></trkpt><trkpt lat="42.7637989" lon="13.174932"><ele>1335.0</ele><time>2026-04-26T10:18:49.994Z</time></trkpt><trkpt lat="42.7637106" lon="13.1747656"><ele>1335.0</ele><time>2026-04-26T10:18:50.994Z</time></trkpt><trkpt lat="42.7635832" lon="13.1745886"><ele>1344.5</ele><time>2026-04-26T10:18:51.994Z</time></trkpt><trkpt lat="42.7634199" lon="13.1743964"><ele>1354.0</ele><time>2026-04-26T10:18:52.995Z</time></trkpt><trkpt lat="42.7632252" lon="13.1741885"><ele>1345.0</ele><time>2026-04-26T10:18:53.994Z</time></trkpt><trkpt lat="42.7630549" lon="13.1739932"><ele>1336.0</ele><time>2026-04-26T10:18:54.994Z</time></trkpt><trkpt lat="42.7629066" lon="13.1738341"><ele>1327.0</ele><time>2026-04-26T10:18:55.995Z</time></trkpt><trkpt lat="42.762777" lon="13.1737026"><ele>1330.0</ele><time>2026-04-26T10:18:56.994Z</time></trkpt><trkpt lat="42.7626447" lon="13.173621"><ele>1333.0</ele><time>2026-04-26T10:18:57.995Z</time></trkpt><trkpt lat="42.7625039" lon="13.1736273"><ele>1336.0</ele><time>2026-04-26T10:18:58.994Z</time></trkpt><trkpt lat="42.7623486" lon="13.1736799"><ele>1339.0</ele><time>2026-04-26T10:18:59.994Z</time></trkpt><trkpt lat="42.7621961" lon="13.1737569"><ele>1339.0</ele><time>2026-04-26T10:19:00.994Z</time></trkpt><trkpt lat="42.7620663" lon="13.1738556"><ele>1339.0</ele><time>2026-04-26T10:19:01.994Z</time></trkpt><trkpt lat="42.7619764" lon="13.1739906"><ele>1339.0</ele><time>2026-04-26T10:19:02.995Z</time></trkpt><trkpt lat="42.7619296" lon="13.1741933"><ele>1339.0</ele><time>2026-04-26T10:19:03.994Z</time></trkpt><trkpt lat="42.7618589" lon="13.174425"><ele>1340.6666666666665</ele><time>2026-04-26T10:19:04.994Z</time></trkpt><trkpt lat="42.7617902" lon="13.174672"><ele>1342.3333333333333</ele><time>2026-04-26T10:19:05.995Z</time></trkpt><trkpt lat="42.7617322" lon="13.174965"><ele>1344.0</ele><time>2026-04-26T10:19:06.994Z</time></trkpt><trkpt lat="42.7616834" lon="13.1753108"><ele>1349.6666666666667</ele><time>2026-04-26T10:19:07.994Z</time></trkpt><trkpt lat="42.7616456" lon="13.1756342"><ele>1355.3333333333335</ele><time>2026-04-26T10:19:08.995Z</time></trkpt><trkpt lat="42.761617" lon="13.1759098"><ele>1361.0</ele><time>2026-04-26T10:19:09.994Z</time></trkpt><trkpt lat="42.7615897" lon="13.1761595"><ele>1363.75</ele><time>2026-04-26T10:19:10.994Z</time></trkpt><trkpt lat="42.7615719" lon="13.1763737"><ele>1366.5</ele><time>2026-04-26T10:19:11.994Z</time></trkpt><trkpt lat="42.7615465" lon="13.1765538"><ele>1369.25</ele><time>2026-04-26T10:19:12.995Z</time></trkpt><trkpt lat="42.7615252" lon="13.176711"><ele>1372.0</ele><time>2026-04-26T10:19:13.995Z</time></trkpt><trkpt lat="42.76151" lon="13.1768181"><ele>1373.6666666666665</ele><time>2026-04-26T10:19:14.995Z</time></trkpt><trkpt lat="42.7614919" lon="13.1769065"><ele>1375.3333333333333</ele><time>2026-04-26T10:19:15.994Z</time></trkpt><trkpt lat="42.7614898" lon="13.1769958"><ele>1377.0</ele><time>2026-04-26T10:20:26.994Z</time></trkpt><trkpt lat="42.7614904" lon="13.1771154"><ele>1378.6666666666667</ele><time>2026-04-26T10:20:28.994Z</time></trkpt><trkpt lat="42.7614684" lon="13.1772307"><ele>1380.3333333333335</ele><time>2026-04-26T10:20:29.994Z</time></trkpt><trkpt lat="42.7614515" lon="13.1773726"><ele>1382.0</ele><time>2026-04-26T10:20:30.994Z</time></trkpt><trkpt lat="42.7614387" lon="13.1775417"><ele>1384.6666666666667</ele><time>2026-04-26T10:20:31.995Z</time></trkpt><trkpt lat="42.7614217" lon="13.1777545"><ele>1387.3333333333333</ele><time>2026-04-26T10:20:32.994Z</time></trkpt><trkpt lat="42.7614112" lon="13.1779896"><ele>1390.0</ele><time>2026-04-26T10:20:33.995Z</time></trkpt><trkpt lat="42.7614012" lon="13.1782253"><ele>1393.25</ele><time>2026-04-26T10:20:34.995Z</time></trkpt><trkpt lat="42.7613906" lon="13.1784458"><ele>1396.5</ele><time>2026-04-26T10:20:35.994Z</time></trkpt><trkpt lat="42.7613704" lon="13.1786404"><ele>1399.75</ele><time>2026-04-26T10:20:36.994Z</time></trkpt><trkpt lat="42.7613557" lon="13.1788115"><ele>1403.0</ele><time>2026-04-26T10:20:37.994Z</time></trkpt><trkpt lat="42.7613357" lon="13.1789745"><ele>1402.4</ele><time>2026-04-26T10:20:38.995Z</time></trkpt><trkpt lat="42.7613103" lon="13.1791207"><ele>1401.8000000000002</ele><time>2026-04-26T10:20:39.995Z</time></trkpt><trkpt lat="42.7612551" lon="13.1792422"><ele>1401.2</ele><time>2026-04-26T10:20:40.994Z</time></trkpt><trkpt lat="42.7611782" lon="13.1793414"><ele>1400.6</ele><time>2026-04-26T10:20:41.994Z</time></trkpt><trkpt lat="42.7610878" lon="13.1793792"><ele>1400.0</ele><time>2026-04-26T10:20:42.994Z</time></trkpt><trkpt lat="42.7609873" lon="13.1793425"><ele>1400.0</ele><time>2026-04-26T10:20:43.994Z</time></trkpt><trkpt lat="42.7608907" lon="13.179243"><ele>1400.0</ele><time>2026-04-26T10:20:44.994Z</time></trkpt><trkpt lat="42.7608073" lon="13.1790722"><ele>1400.0</ele><time>2026-04-26T10:20:45.994Z</time></trkpt><trkpt lat="42.760734" lon="13.1788679"><ele>1400.0</ele><time>2026-04-26T10:20:46.994Z</time></trkpt><trkpt lat="42.7606289" lon="13.1786285"><ele>1391.5</ele><time>2026-04-26T10:20:47.994Z</time></trkpt><trkpt lat="42.760456" lon="13.1783297"><ele>1383.0</ele><time>2026-04-26T10:20:48.994Z</time></trkpt><trkpt lat="42.7602666" lon="13.1780315"><ele>1389.5</ele><time>2026-04-26T10:20:49.995Z</time></trkpt><trkpt lat="42.7600862" lon="13.1777622"><ele>1396.0</ele><time>2026-04-26T10:20:50.994Z</time></trkpt><trkpt lat="42.7599247" lon="13.1775244"><ele>1387.0</ele><time>2026-04-26T10:20:51.995Z</time></trkpt><trkpt lat="42.7597879" lon="13.1773275"><ele>1378.0</ele><time>2026-04-26T10:20:52.994Z</time></trkpt><trkpt lat="42.7596823" lon="13.1771756"><ele>1369.0</ele><time>2026-04-26T10:20:53.994Z</time></trkpt><trkpt lat="42.7595986" lon="13.1770622"><ele>1369.0</ele><time>2026-04-26T10:20:54.994Z</time></trkpt><trkpt lat="42.7595351" lon="13.1769792"><ele>1369.0</ele><time>2026-04-26T10:20:55.995Z</time></trkpt><trkpt lat="42.7594604" lon="13.1768764"><ele>1369.0</ele><time>2026-04-26T10:20:57.994Z</time></trkpt><trkpt lat="42.7593903" lon="13.1768256"><ele>1369.0</ele><time>2026-04-26T10:21:03.995Z</time></trkpt><trkpt lat="42.7593517" lon="13.1769023"><ele>1369.0</ele><time>2026-04-26T10:21:07.994Z</time></trkpt><trkpt lat="42.7593959" lon="13.1770325"><ele>1369.0</ele><time>2026-04-26T10:21:09.994Z</time></trkpt><trkpt lat="42.7594441" lon="13.1771171"><ele>1369.0</ele><time>2026-04-26T10:21:10.995Z</time></trkpt><trkpt lat="42.7595073" lon="13.177219"><ele>1369.0</ele><time>2026-04-26T10:21:11.994Z</time></trkpt><trkpt lat="42.7596038" lon="13.1773712"><ele>1369.0</ele><time>2026-04-26T10:21:12.994Z</time></trkpt><trkpt lat="42.7597194" lon="13.1775648"><ele>1369.0</ele><time>2026-04-26T10:21:13.994Z</time></trkpt><trkpt lat="42.7598508" lon="13.1777967"><ele>1382.5</ele><time>2026-04-26T10:21:14.994Z</time></trkpt><trkpt lat="42.7599843" lon="13.1780687"><ele>1396.0</ele><time>2026-04-26T10:21:15.995Z</time></trkpt><trkpt lat="42.7601228" lon="13.1783893"><ele>1398.0</ele><time>2026-04-26T10:21:16.994Z</time></trkpt><trkpt lat="42.7602551" lon="13.1787094"><ele>1400.0</ele><time>2026-04-26T10:21:17.994Z</time></trkpt><trkpt lat="42.7603706" lon="13.1790182"><ele>1400.0</ele><time>2026-04-26T10:21:18.995Z</time></trkpt><trkpt lat="42.7604682" lon="13.1793321"><ele>1400.0</ele><time>2026-04-26T10:21:19.994Z</time></trkpt><trkpt lat="42.7605579" lon="13.1796437"><ele>1405.0</ele><time>2026-04-26T10:21:20.994Z</time></trkpt><trkpt lat="42.7606291" lon="13.1799245"><ele>1410.0</ele><time>2026-04-26T10:21:21.994Z</time></trkpt><trkpt lat="42.7606763" lon="13.1801722"><ele>1415.0</ele><time>2026-04-26T10:21:22.995Z</time></trkpt><trkpt lat="42.7607045" lon="13.1803926"><ele>1415.0</ele><time>2026-04-26T10:21:23.994Z</time></trkpt><trkpt lat="42.7606959" lon="13.1805672"><ele>1415.0</ele><time>2026-04-26T10:21:24.994Z</time></trkpt><trkpt lat="42.7606423" lon="13.1807397"><ele>1415.0</ele><time>2026-04-26T10:21:25.994Z</time></trkpt><trkpt lat="42.7605374" lon="13.1809007"><ele>1415.0</ele><time>2026-04-26T10:21:26.994Z</time></trkpt><trkpt lat="42.7604265" lon="13.18107"><ele>1417.2</ele><time>2026-04-26T10:21:27.995Z</time></trkpt><trkpt lat="42.7603566" lon="13.1812154"><ele>1419.4</ele><time>2026-04-26T10:21:28.994Z</time></trkpt><trkpt lat="42.7603482" lon="13.1813637"><ele>1421.6</ele><time>2026-04-26T10:21:29.994Z</time></trkpt><trkpt lat="42.7603859" lon="13.1815051"><ele>1423.8</ele><time>2026-04-26T10:21:30.994Z</time></trkpt><trkpt lat="42.7604682" lon="13.1815863"><ele>1426.0</ele><time>2026-04-26T10:21:31.995Z</time></trkpt><trkpt lat="42.7605876" lon="13.1816243"><ele>1430.3333333333333</ele><time>2026-04-26T10:21:32.994Z</time></trkpt><trkpt lat="42.7607353" lon="13.181623"><ele>1434.6666666666667</ele><time>2026-04-26T10:21:33.994Z</time></trkpt><trkpt lat="42.7608924" lon="13.1816065"><ele>1439.0</ele><time>2026-04-26T10:21:34.994Z</time></trkpt><trkpt lat="42.761076" lon="13.1815935"><ele>1439.0</ele><time>2026-04-26T10:21:35.995Z</time></trkpt><trkpt lat="42.7612572" lon="13.1815305"><ele>1439.0</ele><time>2026-04-26T10:21:36.994Z</time></trkpt><trkpt lat="42.7614299" lon="13.1814181"><ele>1439.0</ele><time>2026-04-26T10:21:37.994Z</time></trkpt><trkpt lat="42.7615745" lon="13.181228"><ele>1439.0</ele><time>2026-04-26T10:21:38.994Z</time></trkpt><trkpt lat="42.7616882" lon="13.1809808"><ele>1439.0</ele><time>2026-04-26T10:21:39.994Z</time></trkpt><trkpt lat="42.7617827" lon="13.1806649"><ele>1434.5</ele><time>2026-04-26T10:21:40.995Z</time></trkpt><trkpt lat="42.7618433" lon="13.1802955"><ele>1430.0</ele><time>2026-04-26T10:21:41.994Z</time></trkpt><trkpt lat="42.7619492" lon="13.1799179"><ele>1451.5</ele><time>2026-04-26T10:21:42.994Z</time></trkpt><trkpt lat="42.7620896" lon="13.1795064"><ele>1473.0</ele><time>2026-04-26T10:21:43.995Z</time></trkpt><trkpt lat="42.7622126" lon="13.1790701"><ele>1467.0</ele><time>2026-04-26T10:21:44.994Z</time></trkpt><trkpt lat="42.7623292" lon="13.1786472"><ele>1461.0</ele><time>2026-04-26T10:21:45.994Z</time></trkpt><trkpt lat="42.7624349" lon="13.1782707"><ele>1455.5</ele><time>2026-04-26T10:21:46.994Z</time></trkpt><trkpt lat="42.7625321" lon="13.1779257"><ele>1450.0</ele><time>2026-04-26T10:21:47.994Z</time></trkpt><trkpt lat="42.7626259" lon="13.1776178"><ele>1447.3333333333333</ele><time>2026-04-26T10:21:48.994Z</time></trkpt><trkpt lat="42.7627087" lon="13.177354"><ele>1444.6666666666667</ele><time>2026-04-26T10:21:49.995Z</time></trkpt><trkpt lat="42.7627933" lon="13.1771749"><ele>1442.0</ele><time>2026-04-26T10:21:50.994Z</time></trkpt><trkpt lat="42.7628773" lon="13.1770526"><ele>1442.0</ele><time>2026-04-26T10:21:51.995Z</time></trkpt><trkpt lat="42.7629669" lon="13.1769991"><ele>1442.0</ele><time>2026-04-26T10:21:52.995Z</time></trkpt><trkpt lat="42.7630437" lon="13.1770239"><ele>1442.0</ele><time>2026-04-26T10:21:53.994Z</time></trkpt><trkpt lat="42.7631019" lon="13.1770966"><ele>1442.0</ele><time>2026-04-26T10:21:54.995Z</time></trkpt><trkpt lat="42.7631777" lon="13.1772231"><ele>1442.0</ele><time>2026-04-26T10:21:55.994Z</time></trkpt><trkpt lat="42.7632816" lon="13.1773725"><ele>1444.6666666666667</ele><time>2026-04-26T10:21:56.994Z</time></trkpt><trkpt lat="42.763428" lon="13.1775476"><ele>1447.3333333333333</ele><time>2026-04-26T10:21:57.994Z</time></trkpt><trkpt lat="42.7635986" lon="13.1777643"><ele>1450.0</ele><time>2026-04-26T10:21:58.994Z</time></trkpt><trkpt lat="42.7638054" lon="13.1780168"><ele>1461.0</ele><time>2026-04-26T10:21:59.994Z</time></trkpt><trkpt lat="42.7640205" lon="13.1782864"><ele>1472.0</ele><time>2026-04-26T10:22:00.994Z</time></trkpt><trkpt lat="42.7642205" lon="13.1785318"><ele>1472.0</ele><time>2026-04-26T10:22:01.994Z</time></trkpt><trkpt lat="42.7643901" lon="13.1787472"><ele>1472.0</ele><time>2026-04-26T10:22:02.994Z</time></trkpt></trkseg><trkseg><trkpt lat="42.7662361" lon="13.1835926"><ele>1510.0</ele><time>2026-04-26T10:36:44.006Z</time></trkpt><trkpt lat="42.7661692" lon="13.1835039"><ele>1510.0</ele><time>2026-04-26T10:37:04.014Z</time></trkpt><trkpt lat="42.7661022" lon="13.183461"><ele>1510.0</ele><time>2026-04-26T10:37:06.014Z</time></trkpt><trkpt lat="42.7660178" lon="13.1834041"><ele>1510.0</ele><time>2026-04-26T10:37:09.015Z</time></trkpt><trkpt lat="42.7659574" lon="13.1833433"><ele>1510.0</ele><time>2026-04-26T10:37:11.014Z</time></trkpt><trkpt lat="42.7658971" lon="13.1832576"><ele>1510.0</ele><time>2026-04-26T10:37:13.014Z</time></trkpt><trkpt lat="42.7658433" lon="13.1831603"><ele>1510.5</ele><time>2026-04-26T10:37:15.014Z</time></trkpt><trkpt lat="42.7658149" lon="13.1830527"><ele>1511.0</ele><time>2026-04-26T10:37:17.014Z</time></trkpt><trkpt lat="42.7657944" lon="13.1829576"><ele>1511.5</ele><time>2026-04-26T10:37:20.014Z</time></trkpt><trkpt lat="42.7657765" lon="13.1828726"><ele>1512.0</ele><time>2026-04-26T10:40:15.013Z</time></trkpt><trkpt lat="42.765728" lon="13.1827044"><ele>1512.5</ele><time>2026-04-26T10:40:17.013Z</time></trkpt><trkpt lat="42.7657085" lon="13.1825998"><ele>1513.0</ele><time>2026-04-26T10:40:18.013Z</time></trkpt><trkpt lat="42.7656937" lon="13.1824702"><ele>1511.75</ele><time>2026-04-26T10:40:19.014Z</time></trkpt><trkpt lat="42.7656823" lon="13.182315"><ele>1510.5</ele><time>2026-04-26T10:40:20.013Z</time></trkpt><trkpt lat="42.7656726" lon="13.1821403"><ele>1509.25</ele><time>2026-04-26T10:40:21.013Z</time></trkpt><trkpt lat="42.7656701" lon="13.1819621"><ele>1508.0</ele><time>2026-04-26T10:40:22.014Z</time></trkpt><trkpt lat="42.765673" lon="13.1817752"><ele>1508.0</ele><time>2026-04-26T10:40:23.013Z</time></trkpt><trkpt lat="42.7656827" lon="13.1815911"><ele>1508.0</ele><time>2026-04-26T10:40:24.013Z</time></trkpt><trkpt lat="42.7657038" lon="13.1814295"><ele>1508.0</ele><time>2026-04-26T10:40:25.013Z</time></trkpt><trkpt lat="42.765741" lon="13.1812713"><ele>1508.0</ele><time>2026-04-26T10:40:26.013Z</time></trkpt><trkpt lat="42.7657868" lon="13.181122"><ele>1505.75</ele><time>2026-04-26T10:40:27.013Z</time></trkpt><trkpt lat="42.7658449" lon="13.1809862"><ele>1503.5</ele><time>2026-04-26T10:40:28.013Z</time></trkpt><trkpt lat="42.7659183" lon="13.1808623"><ele>1501.25</ele><time>2026-04-26T10:40:29.013Z</time></trkpt><trkpt lat="42.7660032" lon="13.1807493"><ele>1499.0</ele><time>2026-04-26T10:40:30.014Z</time></trkpt><trkpt lat="42.7660956" lon="13.1806383"><ele>1499.0</ele><time>2026-04-26T10:40:31.013Z</time></trkpt><trkpt lat="42.7661851" lon="13.1805291"><ele>1499.0</ele><time>2026-04-26T10:40:32.013Z</time></trkpt><trkpt lat="42.7662592" lon="13.1804231"><ele>1499.0</ele><time>2026-04-26T10:40:33.014Z</time></trkpt><trkpt lat="42.7663101" lon="13.1803136"><ele>1499.0</ele><time>2026-04-26T10:40:34.013Z</time></trkpt><trkpt lat="42.7663472" lon="13.1802048"><ele>1499.0</ele><time>2026-04-26T10:40:35.013Z</time></trkpt><trkpt lat="42.7663519" lon="13.1800812"><ele>1499.0</ele><time>2026-04-26T10:40:36.013Z</time></trkpt><trkpt lat="42.7663334" lon="13.1799613"><ele>1499.0</ele><time>2026-04-26T10:40:37.013Z</time></trkpt><trkpt lat="42.7662974" lon="13.1798625"><ele>1499.0</ele><time>2026-04-26T10:40:38.013Z</time></trkpt><trkpt lat="42.7662427" lon="13.1797856"><ele>1499.0</ele><time>2026-04-26T10:40:39.014Z</time></trkpt><trkpt lat="42.7661721" lon="13.1797414"><ele>1499.0</ele><time>2026-04-26T10:40:40.013Z</time></trkpt><trkpt lat="42.7660913" lon="13.1797454"><ele>1499.0</ele><time>2026-04-26T10:40:41.013Z</time></trkpt><trkpt lat="42.7660042" lon="13.1798035"><ele>1496.0</ele><time>2026-04-26T10:40:42.013Z</time></trkpt><trkpt lat="42.7659048" lon="13.179885"><ele>1493.0</ele><time>2026-04-26T10:40:43.014Z</time></trkpt><trkpt lat="42.765797" lon="13.1799833"><ele>1490.0</ele><time>2026-04-26T10:40:44.013Z</time></trkpt><trkpt lat="42.7656831" lon="13.1800853"><ele>1487.0</ele><time>2026-04-26T10:40:45.013Z</time></trkpt><trkpt lat="42.7655653" lon="13.1801759"><ele>1487.0</ele><time>2026-04-26T10:40:46.013Z</time></trkpt><trkpt lat="42.7654498" lon="13.1802506"><ele>1487.0</ele><time>2026-04-26T10:40:47.014Z</time></trkpt><trkpt lat="42.765341" lon="13.180301"><ele>1487.0</ele><time>2026-04-26T10:40:48.013Z</time></trkpt><trkpt lat="42.7652387" lon="13.1803263"><ele>1487.0</ele><time>2026-04-26T10:40:49.014Z</time></trkpt><trkpt lat="42.7651273" lon="13.1803227"><ele>1484.75</ele><time>2026-04-26T10:40:50.013Z</time></trkpt><trkpt lat="42.7650255" lon="13.1802669"><ele>1482.5</ele><time>2026-04-26T10:40:51.013Z</time></trkpt><trkpt lat="42.7649501" lon="13.1801667"><ele>1480.25</ele><time>2026-04-26T10:40:52.013Z</time></trkpt><trkpt lat="42.7648946" lon="13.1800258"><ele>1478.0</ele><time>2026-04-26T10:40:53.013Z</time></trkpt><trkpt lat="42.7648586" lon="13.1798385"><ele>1477.0</ele><time>2026-04-26T10:40:54.014Z</time></trkpt><trkpt lat="42.764837" lon="13.1796429"><ele>1476.0</ele><time>2026-04-26T10:40:55.013Z</time></trkpt><trkpt lat="42.7648006" lon="13.179441"><ele>1475.0</ele><time>2026-04-26T10:40:56.013Z</time></trkpt><trkpt lat="42.7647363" lon="13.1792416"><ele>1475.0</ele><time>2026-04-26T10:40:57.013Z</time></trkpt><trkpt lat="42.7646287" lon="13.1790348"><ele>1475.0</ele><time>2026-04-26T10:40:58.013Z</time></trkpt><trkpt lat="42.7644704" lon="13.1788126"><ele>1475.0</ele><time>2026-04-26T10:40:59.013Z</time></trkpt><trkpt lat="42.7642801" lon="13.178562"><ele>1473.5</ele><time>2026-04-26T10:41:00.013Z</time></trkpt><trkpt lat="42.7640625" lon="13.1782997"><ele>1472.0</ele><time>2026-04-26T10:41:01.013Z</time></trkpt><trkpt lat="42.763857" lon="13.1780485"><ele>1468.0</ele><time>2026-04-26T10:41:02.013Z</time></trkpt><trkpt lat="42.7636785" lon="13.1778231"><ele>1464.0</ele><time>2026-04-26T10:41:03.013Z</time></trkpt><trkpt lat="42.7635235" lon="13.1776223"><ele>1464.0</ele><time>2026-04-26T10:41:04.013Z</time></trkpt><trkpt lat="42.7633907" lon="13.1774427"><ele>1464.0</ele><time>2026-04-26T10:41:05.014Z</time></trkpt><trkpt lat="42.7632702" lon="13.1772795"><ele>1464.0</ele><time>2026-04-26T10:41:06.014Z</time></trkpt><trkpt lat="42.7631769" lon="13.1771487"><ele>1459.6</ele><time>2026-04-26T10:41:07.013Z</time></trkpt><trkpt lat="42.7630968" lon="13.1770324"><ele>1455.2</ele><time>2026-04-26T10:41:08.013Z</time></trkpt><trkpt lat="42.7630142" lon="13.1769605"><ele>1450.8</ele><time>2026-04-26T10:41:09.013Z</time></trkpt><trkpt lat="42.762933" lon="13.1769459"><ele>1446.3999999999999</ele><time>2026-04-26T10:41:10.014Z</time></trkpt><trkpt lat="42.7628604" lon="13.1770026"><ele>1442.0</ele><time>2026-04-26T10:41:11.013Z</time></trkpt><trkpt lat="42.762797" lon="13.177113"><ele>1442.0</ele><time>2026-04-26T10:41:12.014Z</time></trkpt><trkpt lat="42.762724" lon="13.1772992"><ele>1442.0</ele><time>2026-04-26T10:41:13.013Z</time></trkpt><trkpt lat="42.7626603" lon="13.1775393"><ele>1442.0</ele><time>2026-04-26T10:41:14.013Z</time></trkpt><trkpt lat="42.762574" lon="13.1778182"><ele>1446.0</ele><time>2026-04-26T10:41:15.014Z</time></trkpt><trkpt lat="42.7624768" lon="13.1781223"><ele>1450.0</ele><time>2026-04-26T10:41:16.013Z</time></trkpt><trkpt lat="42.7623814" lon="13.1784679"><ele>1455.5</ele><time>2026-04-26T10:41:17.013Z</time></trkpt><trkpt lat="42.7622882" lon="13.1788225"><ele>1461.0</ele><time>2026-04-26T10:41:18.014Z</time></trkpt><trkpt lat="42.7622129" lon="13.1791386"><ele>1465.0</ele><time>2026-04-26T10:41:19.013Z</time></trkpt><trkpt lat="42.7621483" lon="13.1794124"><ele>1469.0</ele><time>2026-04-26T10:41:20.014Z</time></trkpt><trkpt lat="42.7620784" lon="13.1796543"><ele>1473.0</ele><time>2026-04-26T10:41:21.013Z</time></trkpt><trkpt lat="42.7620187" lon="13.179847"><ele>1474.0</ele><time>2026-04-26T10:41:22.013Z</time></trkpt><trkpt lat="42.7619703" lon="13.1800104"><ele>1475.0</ele><time>2026-04-26T10:41:23.013Z</time></trkpt><trkpt lat="42.7619285" lon="13.1801243"><ele>1476.0</ele><time>2026-04-26T10:41:24.013Z</time></trkpt><trkpt lat="42.7618909" lon="13.1802479"><ele>1477.0</ele><time>2026-04-26T10:41:26.013Z</time></trkpt><trkpt lat="42.7618435" lon="13.1803417"><ele>1478.0</ele><time>2026-04-26T10:41:34.013Z</time></trkpt><trkpt lat="42.7618336" lon="13.1804409"><ele>1471.5</ele><time>2026-04-26T10:41:36.013Z</time></trkpt><trkpt lat="42.7618047" lon="13.1805655"><ele>1465.0</ele><time>2026-04-26T10:41:38.013Z</time></trkpt><trkpt lat="42.7617797" lon="13.180702"><ele>1458.5</ele><time>2026-04-26T10:41:40.014Z</time></trkpt><trkpt lat="42.7617359" lon="13.1808473"><ele>1452.0</ele><time>2026-04-26T10:41:42.014Z</time></trkpt><trkpt lat="42.7617063" lon="13.1809292"><ele>1445.5</ele><time>2026-04-26T10:41:43.013Z</time></trkpt><trkpt lat="42.7616771" lon="13.1810085"><ele>1439.0</ele><time>2026-04-26T10:41:44.014Z</time></trkpt><trkpt lat="42.7616444" lon="13.1810898"><ele>1439.0000000000002</ele><time>2026-04-26T10:41:45.013Z</time></trkpt><trkpt lat="42.7616112" lon="13.1811648"><ele>1439.0</ele><time>2026-04-26T10:41:46.014Z</time></trkpt><trkpt lat="42.7615693" lon="13.1812396"><ele>1439.0</ele><time>2026-04-26T10:41:47.013Z</time></trkpt><trkpt lat="42.7615197" lon="13.1813126"><ele>1439.0</ele><time>2026-04-26T10:41:48.013Z</time></trkpt><trkpt lat="42.7614692" lon="13.1813833"><ele>1439.0</ele><time>2026-04-26T10:41:49.014Z</time></trkpt><trkpt lat="42.7614052" lon="13.1814435"><ele>1439.0000000000002</ele><time>2026-04-26T10:41:50.013Z</time></trkpt><trkpt lat="42.7613375" lon="13.181505"><ele>1439.0</ele><time>2026-04-26T10:41:51.013Z</time></trkpt><trkpt lat="42.761264" lon="13.1815483"><ele>1439.0</ele><time>2026-04-26T10:41:52.013Z</time></trkpt><trkpt lat="42.7611883" lon="13.1815734"><ele>1439.0</ele><time>2026-04-26T10:41:53.013Z</time></trkpt><trkpt lat="42.7611104" lon="13.1815856"><ele>1439.0</ele><time>2026-04-26T10:41:54.013Z</time></trkpt><trkpt lat="42.7610273" lon="13.1815925"><ele>1439.0</ele><time>2026-04-26T10:41:55.013Z</time></trkpt><trkpt lat="42.7609414" lon="13.1815943"><ele>1439.0</ele><time>2026-04-26T10:41:56.013Z</time></trkpt><trkpt lat="42.7608546" lon="13.181592"><ele>1439.0</ele><time>2026-04-26T10:41:57.014Z</time></trkpt><trkpt lat="42.7607684" lon="13.1815948"><ele>1439.0000000000002</ele><time>2026-04-26T10:41:58.013Z</time></trkpt><trkpt lat="42.7606856" lon="13.1815968"><ele>1439.0</ele><time>2026-04-26T10:41:59.013Z</time></trkpt><trkpt lat="42.7606041" lon="13.1815996"><ele>1439.0</ele><time>2026-04-26T10:42:00.013Z</time></trkpt><trkpt lat="42.760534" lon="13.1815828"><ele>1439.0</ele><time>2026-04-26T10:42:01.013Z</time></trkpt><trkpt lat="42.7604719" lon="13.1815404"><ele>1439.0</ele><time>2026-04-26T10:42:02.013Z</time></trkpt><trkpt lat="42.760425" lon="13.1814735"><ele>1439.0000000000002</ele><time>2026-04-26T10:42:03.014Z</time></trkpt><trkpt lat="42.7603929" lon="13.1813865"><ele>1439.0</ele><time>2026-04-26T10:42:04.014Z</time></trkpt><trkpt lat="42.7603863" lon="13.181292"><ele>1436.8333333333335</ele><time>2026-04-26T10:42:05.013Z</time></trkpt><trkpt lat="42.7604028" lon="13.1812046"><ele>1434.6666666666667</ele><time>2026-04-26T10:42:06.014Z</time></trkpt><trkpt lat="42.7604398" lon="13.1811239"><ele>1432.5</ele><time>2026-04-26T10:42:07.013Z</time></trkpt><trkpt lat="42.7604858" lon="13.1810457"><ele>1430.3333333333333</ele><time>2026-04-26T10:42:08.013Z</time></trkpt><trkpt lat="42.7605401" lon="13.1809564"><ele>1428.1666666666665</ele><time>2026-04-26T10:42:09.014Z</time></trkpt><trkpt lat="42.7606021" lon="13.1808598"><ele>1426.0</ele><time>2026-04-26T10:42:10.013Z</time></trkpt><trkpt lat="42.7606667" lon="13.1807551"><ele>1423.8</ele><time>2026-04-26T10:42:11.014Z</time></trkpt><trkpt lat="42.7607186" lon="13.1806294"><ele>1421.6</ele><time>2026-04-26T10:42:12.013Z</time></trkpt><trkpt lat="42.7607456" lon="13.1804862"><ele>1419.4</ele><time>2026-04-26T10:42:13.013Z</time></trkpt><trkpt lat="42.7607478" lon="13.1803378"><ele>1417.2</ele><time>2026-04-26T10:42:14.013Z</time></trkpt><trkpt lat="42.7607236" lon="13.1801801"><ele>1415.0</ele><time>2026-04-26T10:42:15.014Z</time></trkpt><trkpt lat="42.760682" lon="13.1800069"><ele>1410.0</ele><time>2026-04-26T10:42:16.013Z</time></trkpt><trkpt lat="42.7606336" lon="13.179805"><ele>1405.0</ele><time>2026-04-26T10:42:17.013Z</time></trkpt><trkpt lat="42.7605831" lon="13.1795989"><ele>1400.0</ele><time>2026-04-26T10:42:18.013Z</time></trkpt><trkpt lat="42.7605246" lon="13.1793927"><ele>1400.0</ele><time>2026-04-26T10:42:19.013Z</time></trkpt><trkpt lat="42.7604628" lon="13.179178"><ele>1400.0</ele><time>2026-04-26T10:42:20.013Z</time></trkpt><trkpt lat="42.7603963" lon="13.1789634"><ele>1400.0</ele><time>2026-04-26T10:42:21.013Z</time></trkpt><trkpt lat="42.7603248" lon="13.1787677"><ele>1399.0</ele><time>2026-04-26T10:42:22.013Z</time></trkpt><trkpt lat="42.7602526" lon="13.1785848"><ele>1398.0</ele><time>2026-04-26T10:42:23.013Z</time></trkpt><trkpt lat="42.7601769" lon="13.1784073"><ele>1397.0</ele><time>2026-04-26T10:42:24.013Z</time></trkpt><trkpt lat="42.7601031" lon="13.1782462"><ele>1396.0</ele><time>2026-04-26T10:42:25.013Z</time></trkpt><trkpt lat="42.7600298" lon="13.1780901"><ele>1396.0</ele><time>2026-04-26T10:42:26.013Z</time></trkpt><trkpt lat="42.7599631" lon="13.1779346"><ele>1396.0</ele><time>2026-04-26T10:42:27.013Z</time></trkpt><trkpt lat="42.7598964" lon="13.1777911"><ele>1396.0</ele><time>2026-04-26T10:42:28.014Z</time></trkpt><trkpt lat="42.7598208" lon="13.1776663"><ele>1396.0</ele><time>2026-04-26T10:42:29.013Z</time></trkpt><trkpt lat="42.7597491" lon="13.1775565"><ele>1396.0</ele><time>2026-04-26T10:42:30.013Z</time></trkpt><trkpt lat="42.7596842" lon="13.1774573"><ele>1396.0</ele><time>2026-04-26T10:42:31.013Z</time></trkpt><trkpt lat="42.759619" lon="13.1773636"><ele>1396.0</ele><time>2026-04-26T10:42:32.014Z</time></trkpt><trkpt lat="42.7595634" lon="13.1772762"><ele>1396.0</ele><time>2026-04-26T10:42:33.013Z</time></trkpt><trkpt lat="42.7595112" lon="13.1771957"><ele>1396.0</ele><time>2026-04-26T10:42:34.014Z</time></trkpt><trkpt lat="42.7594698" lon="13.1771223"><ele>1396.0</ele><time>2026-04-26T10:42:35.013Z</time></trkpt><trkpt lat="42.7594133" lon="13.1770005"><ele>1398.3333333333333</ele><time>2026-04-26T10:42:37.013Z</time></trkpt><trkpt lat="42.7593929" lon="13.1769051"><ele>1400.6666666666665</ele><time>2026-04-26T10:42:39.013Z</time></trkpt><trkpt lat="42.7593754" lon="13.176812"><ele>1403.0</ele><time>2026-04-26T10:42:41.013Z</time></trkpt><trkpt lat="42.7593337" lon="13.176723"><ele>1405.3333333333333</ele><time>2026-04-26T10:42:43.013Z</time></trkpt><trkpt lat="42.7592858" lon="13.1766294"><ele>1407.6666666666667</ele><time>2026-04-26T10:42:52.014Z</time></trkpt><trkpt lat="42.7592188" lon="13.1764868"><ele>1410.0</ele><time>2026-04-26T10:42:54.013Z</time></trkpt><trkpt lat="42.7591862" lon="13.1763826"><ele>1403.0</ele><time>2026-04-26T10:42:55.013Z</time></trkpt><trkpt lat="42.7591527" lon="13.1762672"><ele>1396.0</ele><time>2026-04-26T10:42:56.013Z</time></trkpt><trkpt lat="42.75908" lon="13.1761551"><ele>1389.0</ele><time>2026-04-26T10:42:57.013Z</time></trkpt><trkpt lat="42.7589587" lon="13.1760423"><ele>1382.0</ele><time>2026-04-26T10:42:58.014Z</time></trkpt><trkpt lat="42.7588246" lon="13.1759475"><ele>1382.0</ele><time>2026-04-26T10:42:59.013Z</time></trkpt><trkpt lat="42.7586604" lon="13.1758474"><ele>1382.0</ele><time>2026-04-26T10:43:00.014Z</time></trkpt><trkpt lat="42.7584712" lon="13.1757281"><ele>1382.0</ele><time>2026-04-26T10:43:01.014Z</time></trkpt><trkpt lat="42.7582679" lon="13.1756152"><ele>1377.6666666666667</ele><time>2026-04-26T10:43:02.013Z</time></trkpt><trkpt lat="42.758082" lon="13.1755116"><ele>1373.3333333333333</ele><time>2026-04-26T10:43:03.013Z</time></trkpt><trkpt lat="42.7579043" lon="13.1754231"><ele>1369.0</ele><time>2026-04-26T10:43:04.014Z</time></trkpt><trkpt lat="42.7577533" lon="13.1753522"><ele>1372.75</ele><time>2026-04-26T10:43:05.013Z</time></trkpt><trkpt lat="42.7576175" lon="13.1753022"><ele>1376.5</ele><time>2026-04-26T10:43:06.014Z</time></trkpt><trkpt lat="42.7574835" lon="13.1752798"><ele>1380.25</ele><time>2026-04-26T10:43:07.013Z</time></trkpt><trkpt lat="42.7573583" lon="13.1752916"><ele>1384.0</ele><time>2026-04-26T10:43:08.013Z</time></trkpt><trkpt lat="42.7572462" lon="13.1753888"><ele>1384.0</ele><time>2026-04-26T10:43:09.013Z</time></trkpt><trkpt lat="42.7571212" lon="13.1755357"><ele>1384.0</ele><time>2026-04-26T10:43:10.013Z</time></trkpt><trkpt lat="42.7569812" lon="13.1757294"><ele>1384.0</ele><time>2026-04-26T10:43:11.013Z</time></trkpt><trkpt lat="42.7568174" lon="13.1759345"><ele>1391.5</ele><time>2026-04-26T10:43:12.014Z</time></trkpt><trkpt lat="42.7566404" lon="13.1761499"><ele>1399.0</ele><time>2026-04-26T10:43:13.013Z</time></trkpt><trkpt lat="42.7564784" lon="13.1763591"><ele>1409.3333333333333</ele><time>2026-04-26T10:43:14.013Z</time></trkpt><trkpt lat="42.7563365" lon="13.1765839"><ele>1419.6666666666667</ele><time>2026-04-26T10:43:15.013Z</time></trkpt><trkpt lat="42.7562067" lon="13.1768097"><ele>1430.0</ele><time>2026-04-26T10:43:16.013Z</time></trkpt><trkpt lat="42.7560685" lon="13.1769953"><ele>1423.6666666666667</ele><time>2026-04-26T10:43:17.013Z</time></trkpt><trkpt lat="42.7559489" lon="13.1771732"><ele>1417.3333333333333</ele><time>2026-04-26T10:43:18.013Z</time></trkpt><trkpt lat="42.7558478" lon="13.1773792"><ele>1411.0</ele><time>2026-04-26T10:43:19.013Z</time></trkpt><trkpt lat="42.755784" lon="13.1776149"><ele>1411.0</ele><time>2026-04-26T10:43:20.013Z</time></trkpt><trkpt lat="42.7557517" lon="13.1778604"><ele>1411.0</ele><time>2026-04-26T10:43:21.014Z</time></trkpt><trkpt lat="42.7557559" lon="13.1780915"><ele>1411.0</ele><time>2026-04-26T10:43:22.013Z</time></trkpt><trkpt lat="42.7557896" lon="13.1783223"><ele>1414.0</ele><time>2026-04-26T10:43:23.013Z</time></trkpt><trkpt lat="42.7558615" lon="13.1785757"><ele>1417.0</ele><time>2026-04-26T10:43:24.013Z</time></trkpt><trkpt lat="42.7559339" lon="13.1788674"><ele>1420.0</ele><time>2026-04-26T10:43:25.014Z</time></trkpt><trkpt lat="42.7559969" lon="13.179166"><ele>1438.6666666666665</ele><time>2026-04-26T10:43:26.013Z</time></trkpt><trkpt lat="42.7560713" lon="13.1794563"><ele>1457.3333333333333</ele><time>2026-04-26T10:43:27.014Z</time></trkpt><trkpt lat="42.7561495" lon="13.1797148"><ele>1476.0</ele><time>2026-04-26T10:43:28.013Z</time></trkpt><trkpt lat="42.7562206" lon="13.1799538"><ele>1476.0</ele><time>2026-04-26T10:43:29.014Z</time></trkpt><trkpt lat="42.7562479" lon="13.1802098"><ele>1476.0</ele><time>2026-04-26T10:43:30.014Z</time></trkpt><trkpt lat="42.7562409" lon="13.180485"><ele>1476.0</ele><time>2026-04-26T10:43:31.013Z</time></trkpt><trkpt lat="42.75622" lon="13.1807514"><ele>1474.3333333333333</ele><time>2026-04-26T10:43:32.013Z</time></trkpt><trkpt lat="42.7562294" lon="13.1810085"><ele>1472.6666666666665</ele><time>2026-04-26T10:43:33.013Z</time></trkpt><trkpt lat="42.756275" lon="13.1812777"><ele>1471.0</ele><time>2026-04-26T10:43:34.014Z</time></trkpt><trkpt lat="42.7563628" lon="13.1815505"><ele>1467.0</ele><time>2026-04-26T10:43:35.013Z</time></trkpt><trkpt lat="42.7564417" lon="13.181838"><ele>1463.0</ele><time>2026-04-26T10:43:36.013Z</time></trkpt><trkpt lat="42.7564922" lon="13.1821445"><ele>1460.5</ele><time>2026-04-26T10:43:37.013Z</time></trkpt><trkpt lat="42.756514" lon="13.18248"><ele>1458.0</ele><time>2026-04-26T10:43:38.013Z</time></trkpt><trkpt lat="42.7565176" lon="13.1828261"><ele>1458.0</ele><time>2026-04-26T10:43:39.013Z</time></trkpt><trkpt lat="42.7565162" lon="13.183157"><ele>1458.0</ele><time>2026-04-26T10:43:40.013Z</time></trkpt><trkpt lat="42.7565145" lon="13.1834699"><ele>1458.6666666666667</ele><time>2026-04-26T10:43:41.013Z</time></trkpt><trkpt lat="42.756528" lon="13.1837565"><ele>1459.3333333333335</ele><time>2026-04-26T10:43:42.021Z</time></trkpt><trkpt lat="42.75658" lon="13.1840366"><ele>1460.0</ele><time>2026-04-26T10:43:43.02Z</time></trkpt><trkpt lat="42.7566624" lon="13.1843174"><ele>1458.6666666666667</ele><time>2026-04-26T10:43:44.02Z</time></trkpt><trkpt lat="42.7567559" lon="13.1845726"><ele>1457.3333333333333</ele><time>2026-04-26T10:43:45.02Z</time></trkpt><trkpt lat="42.7568343" lon="13.1847888"><ele>1456.0</ele><time>2026-04-26T10:43:46.02Z</time></trkpt><trkpt lat="42.7569027" lon="13.1849672"><ele>1454.0</ele><time>2026-04-26T10:43:47.02Z</time></trkpt><trkpt lat="42.7569394" lon="13.185147"><ele>1452.0</ele><time>2026-04-26T10:43:48.02Z</time></trkpt><trkpt lat="42.7569272" lon="13.1853183"><ele>1450.0</ele><time>2026-04-26T10:43:49.02Z</time></trkpt><trkpt lat="42.7568682" lon="13.1854752"><ele>1448.0</ele><time>2026-04-26T10:43:50.02Z</time></trkpt><trkpt lat="42.7567714" lon="13.1856207"><ele>1449.3333333333335</ele><time>2026-04-26T10:43:51.02Z</time></trkpt><trkpt lat="42.7566527" lon="13.1857974"><ele>1450.6666666666667</ele><time>2026-04-26T10:43:52.021Z</time></trkpt><trkpt lat="42.7565272" lon="13.1859994"><ele>1452.0</ele><time>2026-04-26T10:43:53.021Z</time></trkpt><trkpt lat="42.7563929" lon="13.1862273"><ele>1452.0</ele><time>2026-04-26T10:43:54.02Z</time></trkpt><trkpt lat="42.7562703" lon="13.1864169"><ele>1452.0</ele><time>2026-04-26T10:43:55.02Z</time></trkpt><trkpt lat="42.7561771" lon="13.1865929"><ele>1452.0</ele><time>2026-04-26T10:43:56.02Z</time></trkpt><trkpt lat="42.7561137" lon="13.1867759"><ele>1460.6666666666667</ele><time>2026-04-26T10:43:57.02Z</time></trkpt><trkpt lat="42.7561035" lon="13.1869635"><ele>1469.3333333333335</ele><time>2026-04-26T10:43:58.02Z</time></trkpt><trkpt lat="42.7561459" lon="13.1871743"><ele>1478.0</ele><time>2026-04-26T10:43:59.021Z</time></trkpt><trkpt lat="42.7562222" lon="13.1874143"><ele>1480.0</ele><time>2026-04-26T10:44:00.02Z</time></trkpt><trkpt lat="42.7563262" lon="13.1876592"><ele>1482.0</ele><time>2026-04-26T10:44:01.02Z</time></trkpt><trkpt lat="42.7564673" lon="13.1879081"><ele>1484.0</ele><time>2026-04-26T10:44:02.02Z</time></trkpt><trkpt lat="42.7566391" lon="13.1881502"><ele>1477.3333333333335</ele><time>2026-04-26T10:44:03.02Z</time></trkpt><trkpt lat="42.7568106" lon="13.1883722"><ele>1470.6666666666667</ele><time>2026-04-26T10:44:04.02Z</time></trkpt><trkpt lat="42.7569292" lon="13.1885523"><ele>1464.0</ele><time>2026-04-26T10:44:05.02Z</time></trkpt><trkpt lat="42.7570184" lon="13.1887077"><ele>1476.3333333333333</ele><time>2026-04-26T10:44:06.02Z</time></trkpt><trkpt lat="42.7570762" lon="13.1888909"><ele>1488.6666666666665</ele><time>2026-04-26T10:44:07.02Z</time></trkpt><trkpt lat="42.7570844" lon="13.1890888"><ele>1501.0</ele><time>2026-04-26T10:44:08.02Z</time></trkpt><trkpt lat="42.7570178" lon="13.1893042"><ele>1501.0</ele><time>2026-04-26T10:44:09.021Z</time></trkpt><trkpt lat="42.7569194" lon="13.1895258"><ele>1501.0</ele><time>2026-04-26T10:44:10.02Z</time></trkpt><trkpt lat="42.7568341" lon="13.1897341"><ele>1501.0</ele><time>2026-04-26T10:44:11.02Z</time></trkpt><trkpt lat="42.7567748" lon="13.1899499"><ele>1490.0</ele><time>2026-04-26T10:44:12.02Z</time></trkpt><trkpt lat="42.7567541" lon="13.1901911"><ele>1479.0</ele><time>2026-04-26T10:44:13.02Z</time></trkpt><trkpt lat="42.7567804" lon="13.1904667"><ele>1468.0</ele><time>2026-04-26T10:44:14.02Z</time></trkpt><trkpt lat="42.7568248" lon="13.1907946"><ele>1482.6666666666665</ele><time>2026-04-26T10:44:15.021Z</time></trkpt><trkpt lat="42.7568798" lon="13.1911091"><ele>1497.3333333333333</ele><time>2026-04-26T10:44:16.021Z</time></trkpt><trkpt lat="42.7569173" lon="13.1913698"><ele>1512.0</ele><time>2026-04-26T10:44:17.02Z</time></trkpt><trkpt lat="42.7569439" lon="13.191577"><ele>1512.0</ele><time>2026-04-26T10:44:18.02Z</time></trkpt><trkpt lat="42.7569411" lon="13.1917571"><ele>1512.0</ele><time>2026-04-26T10:44:19.021Z</time></trkpt><trkpt lat="42.7568898" lon="13.1919155"><ele>1512.0</ele><time>2026-04-26T10:44:20.02Z</time></trkpt><trkpt lat="42.7567999" lon="13.1920711"><ele>1512.0</ele><time>2026-04-26T10:44:21.021Z</time></trkpt><trkpt lat="42.7566653" lon="13.1922098"><ele>1505.6666666666667</ele><time>2026-04-26T10:44:22.02Z</time></trkpt><trkpt lat="42.7564856" lon="13.1923588"><ele>1499.3333333333335</ele><time>2026-04-26T10:44:23.02Z</time></trkpt><trkpt lat="42.7562771" lon="13.1925154"><ele>1493.0</ele><time>2026-04-26T10:44:24.02Z</time></trkpt><trkpt lat="42.7560577" lon="13.1926875"><ele>1488.0</ele><time>2026-04-26T10:44:25.02Z</time></trkpt><trkpt lat="42.7558445" lon="13.1928475"><ele>1483.0</ele><time>2026-04-26T10:44:26.02Z</time></trkpt><trkpt lat="42.7556489" lon="13.1929923"><ele>1483.0</ele><time>2026-04-26T10:44:27.02Z</time></trkpt><trkpt lat="42.7554537" lon="13.1931159"><ele>1483.0</ele><time>2026-04-26T10:44:28.02Z</time></trkpt><trkpt lat="42.7552681" lon="13.1932044"><ele>1483.0</ele><time>2026-04-26T10:44:29.021Z</time></trkpt><trkpt lat="42.7550859" lon="13.1932652"><ele>1487.6666666666665</ele><time>2026-04-26T10:44:30.021Z</time></trkpt><trkpt lat="42.7549205" lon="13.1933137"><ele>1492.3333333333333</ele><time>2026-04-26T10:44:31.02Z</time></trkpt><trkpt lat="42.7547811" lon="13.1933833"><ele>1497.0</ele><time>2026-04-26T10:44:32.021Z</time></trkpt><trkpt lat="42.7546634" lon="13.1935111"><ele>1497.0</ele><time>2026-04-26T10:44:33.02Z</time></trkpt><trkpt lat="42.7545669" lon="13.1936737"><ele>1497.0</ele><time>2026-04-26T10:44:34.02Z</time></trkpt><trkpt lat="42.7544831" lon="13.1938801"><ele>1497.0</ele><time>2026-04-26T10:44:35.02Z</time></trkpt><trkpt lat="42.7543925" lon="13.1941135"><ele>1496.3333333333333</ele><time>2026-04-26T10:44:36.02Z</time></trkpt><trkpt lat="42.754277" lon="13.1943474"><ele>1495.6666666666665</ele><time>2026-04-26T10:44:37.02Z</time></trkpt><trkpt lat="42.7541424" lon="13.1945822"><ele>1495.0</ele><time>2026-04-26T10:44:38.02Z</time></trkpt><trkpt lat="42.7539986" lon="13.1948264"><ele>1501.5</ele><time>2026-04-26T10:44:39.02Z</time></trkpt><trkpt lat="42.753853" lon="13.195098"><ele>1508.0</ele><time>2026-04-26T10:44:40.021Z</time></trkpt><trkpt lat="42.7537244" lon="13.1953795"><ele>1508.0</ele><time>2026-04-26T10:44:41.02Z</time></trkpt><trkpt lat="42.7536034" lon="13.1956665"><ele>1508.0</ele><time>2026-04-26T10:44:42.02Z</time></trkpt><trkpt lat="42.7534612" lon="13.1959368"><ele>1504.5</ele><time>2026-04-26T10:44:43.02Z</time></trkpt><trkpt lat="42.753294" lon="13.1961914"><ele>1501.0</ele><time>2026-04-26T10:44:44.021Z</time></trkpt><trkpt lat="42.7531019" lon="13.1964331"><ele>1503.5</ele><time>2026-04-26T10:44:45.02Z</time></trkpt><trkpt lat="42.7528912" lon="13.1966763"><ele>1506.0</ele><time>2026-04-26T10:44:46.02Z</time></trkpt><trkpt lat="42.7526739" lon="13.1969249"><ele>1506.0</ele><time>2026-04-26T10:44:47.02Z</time></trkpt><trkpt lat="42.7524632" lon="13.1971678"><ele>1506.0</ele><time>2026-04-26T10:44:48.021Z</time></trkpt><trkpt lat="42.7522547" lon="13.1973982"><ele>1509.0</ele><time>2026-04-26T10:44:49.021Z</time></trkpt><trkpt lat="42.7520424" lon="13.1976235"><ele>1512.0</ele><time>2026-04-26T10:44:50.02Z</time></trkpt><trkpt lat="42.7518167" lon="13.197834"><ele>1512.0</ele><time>2026-04-26T10:44:51.02Z</time></trkpt><trkpt lat="42.7515854" lon="13.1980287"><ele>1512.0</ele><time>2026-04-26T10:44:52.021Z</time></trkpt><trkpt lat="42.7513431" lon="13.1982027"><ele>1518.5</ele><time>2026-04-26T10:44:53.021Z</time></trkpt><trkpt lat="42.7511025" lon="13.1983571"><ele>1525.0</ele><time>2026-04-26T10:44:54.02Z</time></trkpt><trkpt lat="42.7508891" lon="13.1984983"><ele>1525.0</ele><time>2026-04-26T10:44:55.02Z</time></trkpt><trkpt lat="42.7506981" lon="13.1986278"><ele>1525.0</ele><time>2026-04-26T10:44:56.02Z</time></trkpt><trkpt lat="42.7504929" lon="13.1986969"><ele>1525.0</ele><time>2026-04-26T10:44:57.02Z</time></trkpt><trkpt lat="42.7502696" lon="13.1987352"><ele>1524.0</ele><time>2026-04-26T10:44:58.02Z</time></trkpt><trkpt lat="42.7500455" lon="13.1987331"><ele>1523.0</ele><time>2026-04-26T10:44:59.02Z</time></trkpt><trkpt lat="42.7498364" lon="13.1987434"><ele>1522.0</ele><time>2026-04-26T10:45:00.02Z</time></trkpt><trkpt lat="42.7496403" lon="13.1987755"><ele>1522.0</ele><time>2026-04-26T10:45:01.021Z</time></trkpt><trkpt lat="42.7494631" lon="13.1988077"><ele>1522.0</ele><time>2026-04-26T10:45:02.02Z</time></trkpt><trkpt lat="42.7493014" lon="13.1988285"><ele>1522.0</ele><time>2026-04-26T10:45:03.021Z</time></trkpt><trkpt lat="42.749149" lon="13.1988507"><ele>1523.25</ele><time>2026-04-26T10:45:04.02Z</time></trkpt><trkpt lat="42.7490127" lon="13.1988778"><ele>1524.5</ele><time>2026-04-26T10:45:05.02Z</time></trkpt><trkpt lat="42.7488943" lon="13.1989354"><ele>1525.75</ele><time>2026-04-26T10:45:06.02Z</time></trkpt><trkpt lat="42.748808" lon="13.199011"><ele>1527.0</ele><time>2026-04-26T10:45:07.02Z</time></trkpt><trkpt lat="42.7487494" lon="13.199097"><ele>1529.0</ele><time>2026-04-26T10:45:08.02Z</time></trkpt><trkpt lat="42.7486987" lon="13.1991843"><ele>1531.0</ele><time>2026-04-26T10:45:09.02Z</time></trkpt><trkpt lat="42.7486646" lon="13.1992623"><ele>1533.0</ele><time>2026-04-26T10:45:10.02Z</time></trkpt><trkpt lat="42.7486338" lon="13.1993625"><ele>1535.0</ele><time>2026-04-26T10:45:11.02Z</time></trkpt><trkpt lat="42.7486147" lon="13.1994769"><ele>1537.0</ele><time>2026-04-26T10:45:12.02Z</time></trkpt><trkpt lat="42.7486237" lon="13.1996039"><ele>1539.0</ele><time>2026-04-26T10:45:13.021Z</time></trkpt><trkpt lat="42.7486745" lon="13.1997441"><ele>1540.0</ele><time>2026-04-26T10:45:14.02Z</time></trkpt><trkpt lat="42.7487686" lon="13.1998838"><ele>1541.0</ele><time>2026-04-26T10:45:15.02Z</time></trkpt><trkpt lat="42.7488878" lon="13.2000421"><ele>1542.0</ele><time>2026-04-26T10:45:16.02Z</time></trkpt><trkpt lat="42.7490096" lon="13.2002107"><ele>1542.0</ele><time>2026-04-26T10:45:17.02Z</time></trkpt><trkpt lat="42.7491321" lon="13.2003762"><ele>1542.0</ele><time>2026-04-26T10:45:18.02Z</time></trkpt><trkpt lat="42.7492463" lon="13.2005319"><ele>1542.0</ele><time>2026-04-26T10:45:19.02Z</time></trkpt><trkpt lat="42.7493606" lon="13.2006938"><ele>1545.0</ele><time>2026-04-26T10:45:20.02Z</time></trkpt><trkpt lat="42.749456" lon="13.2008724"><ele>1548.0</ele><time>2026-04-26T10:45:21.02Z</time></trkpt><trkpt lat="42.7495201" lon="13.2010777"><ele>1551.0</ele><time>2026-04-26T10:45:22.02Z</time></trkpt><trkpt lat="42.7495629" lon="13.2013276"><ele>1547.0</ele><time>2026-04-26T10:45:23.02Z</time></trkpt><trkpt lat="42.7495823" lon="13.2015893"><ele>1543.0</ele><time>2026-04-26T10:45:24.021Z</time></trkpt><trkpt lat="42.7496113" lon="13.2018426"><ele>1539.0</ele><time>2026-04-26T10:45:25.02Z</time></trkpt><trkpt lat="42.7496634" lon="13.2021026"><ele>1535.0</ele><time>2026-04-26T10:45:26.02Z</time></trkpt><trkpt lat="42.7497454" lon="13.2023815"><ele>1531.0</ele><time>2026-04-26T10:45:27.02Z</time></trkpt><trkpt lat="42.7498344" lon="13.2026632"><ele>1527.0</ele><time>2026-04-26T10:45:28.021Z</time></trkpt><trkpt lat="42.7499321" lon="13.2029233"><ele>1523.0</ele><time>2026-04-26T10:45:29.02Z</time></trkpt><trkpt lat="42.7500125" lon="13.2031733"><ele>1519.0</ele><time>2026-04-26T10:45:30.021Z</time></trkpt><trkpt lat="42.7500866" lon="13.2034079"><ele>1515.0</ele><time>2026-04-26T10:45:31.02Z</time></trkpt><trkpt lat="42.7501692" lon="13.2036159"><ele>1514.0</ele><time>2026-04-26T10:45:32.02Z</time></trkpt><trkpt lat="42.7502661" lon="13.2038033"><ele>1513.0</ele><time>2026-04-26T10:45:33.02Z</time></trkpt><trkpt lat="42.7503828" lon="13.2039466"><ele>1512.0</ele><time>2026-04-26T10:45:34.02Z</time></trkpt><trkpt lat="42.7505161" lon="13.2040665"><ele>1512.0</ele><time>2026-04-26T10:45:35.02Z</time></trkpt><trkpt lat="42.7506581" lon="13.2041358"><ele>1512.0</ele><time>2026-04-26T10:45:36.02Z</time></trkpt><trkpt lat="42.7507764" lon="13.20414"><ele>1512.0</ele><time>2026-04-26T10:45:37.02Z</time></trkpt><trkpt lat="42.7508897" lon="13.2040927"><ele>1512.0</ele><time>2026-04-26T10:45:38.02Z</time></trkpt><trkpt lat="42.7510155" lon="13.2040076"><ele>1513.3333333333333</ele><time>2026-04-26T10:45:39.02Z</time></trkpt><trkpt lat="42.7511503" lon="13.203921"><ele>1514.6666666666665</ele><time>2026-04-26T10:45:40.02Z</time></trkpt><trkpt lat="42.7512935" lon="13.203823"><ele>1516.0</ele><time>2026-04-26T10:45:41.02Z</time></trkpt><trkpt lat="42.7514125" lon="13.2036915"><ele>1516.0</ele><time>2026-04-26T10:45:42.02Z</time></trkpt><trkpt lat="42.7515209" lon="13.2035412"><ele>1516.0</ele><time>2026-04-26T10:45:43.02Z</time></trkpt><trkpt lat="42.7516574" lon="13.2034067"><ele>1516.0</ele><time>2026-04-26T10:45:44.02Z</time></trkpt><trkpt lat="42.7518304" lon="13.2033276"><ele>1515.3333333333333</ele><time>2026-04-26T10:45:45.02Z</time></trkpt><trkpt lat="42.7519729" lon="13.2032405"><ele>1514.6666666666667</ele><time>2026-04-26T10:45:46.02Z</time></trkpt><trkpt lat="42.7521065" lon="13.2030953"><ele>1514.0</ele><time>2026-04-26T10:45:47.021Z</time></trkpt><trkpt lat="42.7522245" lon="13.2028909"><ele>1514.0</ele><time>2026-04-26T10:45:48.02Z</time></trkpt><trkpt lat="42.7523231" lon="13.2027212"><ele>1514.0</ele><time>2026-04-26T10:45:49.02Z</time></trkpt><trkpt lat="42.7524003" lon="13.2025807"><ele>1514.0</ele><time>2026-04-26T10:45:50.02Z</time></trkpt><trkpt lat="42.7524962" lon="13.2024823"><ele>1514.0</ele><time>2026-04-26T10:45:51.02Z</time></trkpt><trkpt lat="42.7526089" lon="13.2024374"><ele>1511.6666666666667</ele><time>2026-04-26T10:45:52.02Z</time></trkpt><trkpt lat="42.7527528" lon="13.2024532"><ele>1509.3333333333333</ele><time>2026-04-26T10:45:53.02Z</time></trkpt><trkpt lat="42.7529254" lon="13.2024737"><ele>1507.0</ele><time>2026-04-26T10:45:54.02Z</time></trkpt><trkpt lat="42.7531011" lon="13.2025042"><ele>1507.0</ele><time>2026-04-26T10:45:55.02Z</time></trkpt><trkpt lat="42.7532552" lon="13.2025474"><ele>1507.0</ele><time>2026-04-26T10:45:56.02Z</time></trkpt><trkpt lat="42.7533948" lon="13.2025942"><ele>1507.0</ele><time>2026-04-26T10:45:57.02Z</time></trkpt><trkpt lat="42.7535083" lon="13.2026638"><ele>1507.0</ele><time>2026-04-26T10:45:58.021Z</time></trkpt><trkpt lat="42.7535875" lon="13.2027936"><ele>1505.6666666666665</ele><time>2026-04-26T10:45:59.02Z</time></trkpt><trkpt lat="42.7536368" lon="13.2029624"><ele>1504.3333333333333</ele><time>2026-04-26T10:46:00.02Z</time></trkpt><trkpt lat="42.7536594" lon="13.2031694"><ele>1503.0</ele><time>2026-04-26T10:46:01.021Z</time></trkpt><trkpt lat="42.7536725" lon="13.2034144"><ele>1503.0</ele><time>2026-04-26T10:46:02.021Z</time></trkpt><trkpt lat="42.7536669" lon="13.2036685"><ele>1503.0</ele><time>2026-04-26T10:46:03.02Z</time></trkpt><trkpt lat="42.7536321" lon="13.2039184"><ele>1503.0</ele><time>2026-04-26T10:46:04.021Z</time></trkpt><trkpt lat="42.7535754" lon="13.2041533"><ele>1498.0</ele><time>2026-04-26T10:46:05.02Z</time></trkpt><trkpt lat="42.7535245" lon="13.2043808"><ele>1493.0</ele><time>2026-04-26T10:46:06.02Z</time></trkpt><trkpt lat="42.7534975" lon="13.204607"><ele>1488.0</ele><time>2026-04-26T10:46:07.02Z</time></trkpt><trkpt lat="42.7534805" lon="13.2048189"><ele>1486.5</ele><time>2026-04-26T10:46:08.02Z</time></trkpt><trkpt lat="42.7534876" lon="13.2050291"><ele>1485.0</ele><time>2026-04-26T10:46:09.02Z</time></trkpt><trkpt lat="42.7535301" lon="13.2052184"><ele>1483.5</ele><time>2026-04-26T10:46:10.02Z</time></trkpt><trkpt lat="42.753581" lon="13.2053973"><ele>1482.0</ele><time>2026-04-26T10:46:11.02Z</time></trkpt><trkpt lat="42.7536442" lon="13.2055612"><ele>1482.0</ele><time>2026-04-26T10:46:12.02Z</time></trkpt><trkpt lat="42.7537262" lon="13.2056848"><ele>1482.0</ele><time>2026-04-26T10:46:13.02Z</time></trkpt><trkpt lat="42.7538209" lon="13.2057669"><ele>1482.0</ele><time>2026-04-26T10:46:14.02Z</time></trkpt><trkpt lat="42.7539365" lon="13.2058132"><ele>1482.0</ele><time>2026-04-26T10:46:15.02Z</time></trkpt><trkpt lat="42.754061" lon="13.2058299"><ele>1482.0</ele><time>2026-04-26T10:46:16.02Z</time></trkpt><trkpt lat="42.7541961" lon="13.2058139"><ele>1482.0</ele><time>2026-04-26T10:46:17.02Z</time></trkpt><trkpt lat="42.7543117" lon="13.2058055"><ele>1482.0</ele><time>2026-04-26T10:46:18.02Z</time></trkpt><trkpt lat="42.7543974" lon="13.2058511"><ele>1482.0</ele><time>2026-04-26T10:46:19.02Z</time></trkpt><trkpt lat="42.7544368" lon="13.2059512"><ele>1482.0</ele><time>2026-04-26T10:46:20.02Z</time></trkpt><trkpt lat="42.7544294" lon="13.2060776"><ele>1482.0</ele><time>2026-04-26T10:46:21.02Z</time></trkpt><trkpt lat="42.7543723" lon="13.2061961"><ele>1482.0</ele><time>2026-04-26T10:46:22.02Z</time></trkpt><trkpt lat="42.7542833" lon="13.2063415"><ele>1482.0</ele><time>2026-04-26T10:46:23.02Z</time></trkpt><trkpt lat="42.7541898" lon="13.2065323"><ele>1482.0</ele><time>2026-04-26T10:46:24.02Z</time></trkpt><trkpt lat="42.754107" lon="13.2067604"><ele>1480.0</ele><time>2026-04-26T10:46:25.02Z</time></trkpt><trkpt lat="42.754032" lon="13.2069743"><ele>1478.0</ele><time>2026-04-26T10:46:26.02Z</time></trkpt><trkpt lat="42.7539986" lon="13.2072013"><ele>1476.0</ele><time>2026-04-26T10:46:27.021Z</time></trkpt><trkpt lat="42.7539837" lon="13.2074172"><ele>1474.75</ele><time>2026-04-26T10:46:28.02Z</time></trkpt><trkpt lat="42.753986" lon="13.2076037"><ele>1473.5</ele><time>2026-04-26T10:46:29.02Z</time></trkpt><trkpt lat="42.7540158" lon="13.2077487"><ele>1472.25</ele><time>2026-04-26T10:46:30.02Z</time></trkpt><trkpt lat="42.7540836" lon="13.2078674"><ele>1471.0</ele><time>2026-04-26T10:46:31.02Z</time></trkpt><trkpt lat="42.7542005" lon="13.2079495"><ele>1471.0</ele><time>2026-04-26T10:46:32.021Z</time></trkpt><trkpt lat="42.7543616" lon="13.2079836"><ele>1471.0</ele><time>2026-04-26T10:46:33.02Z</time></trkpt><trkpt lat="42.7545516" lon="13.2079835"><ele>1471.0</ele><time>2026-04-26T10:46:34.021Z</time></trkpt><trkpt lat="42.7547785" lon="13.2079558"><ele>1474.3333333333333</ele><time>2026-04-26T10:46:35.021Z</time></trkpt><trkpt lat="42.7550051" lon="13.2079071"><ele>1477.6666666666667</ele><time>2026-04-26T10:46:36.02Z</time></trkpt><trkpt lat="42.7551868" lon="13.207858"><ele>1481.0</ele><time>2026-04-26T10:46:37.02Z</time></trkpt><trkpt lat="42.7553322" lon="13.2078208"><ele>1480.8</ele><time>2026-04-26T10:46:38.02Z</time></trkpt><trkpt lat="42.7554449" lon="13.2078053"><ele>1480.6</ele><time>2026-04-26T10:46:39.02Z</time></trkpt><trkpt lat="42.7555257" lon="13.2078506"><ele>1480.4</ele><time>2026-04-26T10:46:40.02Z</time></trkpt><trkpt lat="42.7555891" lon="13.2079454"><ele>1480.2</ele><time>2026-04-26T10:46:41.02Z</time></trkpt><trkpt lat="42.7555922" lon="13.2080737"><ele>1480.0</ele><time>2026-04-26T10:46:42.02Z</time></trkpt><trkpt lat="42.7555416" lon="13.2082319"><ele>1480.0</ele><time>2026-04-26T10:46:43.02Z</time></trkpt><trkpt lat="42.7554521" lon="13.20844"><ele>1480.0</ele><time>2026-04-26T10:46:44.021Z</time></trkpt><trkpt lat="42.7553525" lon="13.2087168"><ele>1480.0</ele><time>2026-04-26T10:46:45.021Z</time></trkpt><trkpt lat="42.7552527" lon="13.2090389"><ele>1462.0</ele><time>2026-04-26T10:46:46.02Z</time></trkpt><trkpt lat="42.7551537" lon="13.2093468"><ele>1444.0</ele><time>2026-04-26T10:46:47.02Z</time></trkpt><trkpt lat="42.7550579" lon="13.2096227"><ele>1446.3333333333333</ele><time>2026-04-26T10:46:48.02Z</time></trkpt><trkpt lat="42.7549546" lon="13.2098682"><ele>1448.6666666666667</ele><time>2026-04-26T10:46:49.02Z</time></trkpt><trkpt lat="42.754852" lon="13.2100714"><ele>1451.0</ele><time>2026-04-26T10:46:50.02Z</time></trkpt><trkpt lat="42.7547519" lon="13.210251"><ele>1451.0</ele><time>2026-04-26T10:46:51.02Z</time></trkpt><trkpt lat="42.754663" lon="13.2104252"><ele>1451.0</ele><time>2026-04-26T10:46:52.021Z</time></trkpt><trkpt lat="42.7546089" lon="13.2106077"><ele>1451.0</ele><time>2026-04-26T10:46:53.02Z</time></trkpt><trkpt lat="42.7545945" lon="13.2108028"><ele>1451.0</ele><time>2026-04-26T10:46:54.02Z</time></trkpt><trkpt lat="42.754627" lon="13.2109935"><ele>1451.25</ele><time>2026-04-26T10:46:55.02Z</time></trkpt><trkpt lat="42.7546962" lon="13.2111892"><ele>1451.5</ele><time>2026-04-26T10:46:56.02Z</time></trkpt><trkpt lat="42.7547762" lon="13.2113673"><ele>1451.75</ele><time>2026-04-26T10:46:57.021Z</time></trkpt><trkpt lat="42.7548377" lon="13.2115129"><ele>1452.0</ele><time>2026-04-26T10:46:58.02Z</time></trkpt><trkpt lat="42.754905" lon="13.211621"><ele>1447.25</ele><time>2026-04-26T10:46:59.02Z</time></trkpt><trkpt lat="42.7549895" lon="13.2116685"><ele>1442.5</ele><time>2026-04-26T10:47:00.02Z</time></trkpt><trkpt lat="42.75509" lon="13.2116361"><ele>1437.75</ele><time>2026-04-26T10:47:01.021Z</time></trkpt><trkpt lat="42.7552107" lon="13.2115751"><ele>1433.0</ele><time>2026-04-26T10:47:02.02Z</time></trkpt><trkpt lat="42.7553832" lon="13.2115211"><ele>1432.6666666666667</ele><time>2026-04-26T10:47:03.021Z</time></trkpt><trkpt lat="42.7555866" lon="13.211493"><ele>1432.3333333333333</ele><time>2026-04-26T10:47:04.02Z</time></trkpt><trkpt lat="42.7558119" lon="13.2114725"><ele>1432.0</ele><time>2026-04-26T10:47:05.02Z</time></trkpt><trkpt lat="42.7560328" lon="13.2114099"><ele>1438.3333333333333</ele><time>2026-04-26T10:47:06.02Z</time></trkpt><trkpt lat="42.7562395" lon="13.2113025"><ele>1444.6666666666667</ele><time>2026-04-26T10:47:07.02Z</time></trkpt><trkpt lat="42.7564254" lon="13.2112154"><ele>1451.0</ele><time>2026-04-26T10:47:08.021Z</time></trkpt><trkpt lat="42.7565835" lon="13.2111565"><ele>1451.0</ele><time>2026-04-26T10:47:09.021Z</time></trkpt><trkpt lat="42.7567175" lon="13.2111193"><ele>1451.0</ele><time>2026-04-26T10:47:10.02Z</time></trkpt><trkpt lat="42.7568293" lon="13.2111006"><ele>1451.0</ele><time>2026-04-26T10:47:11.02Z</time></trkpt><trkpt lat="42.756898" lon="13.2111277"><ele>1451.0</ele><time>2026-04-26T10:47:12.02Z</time></trkpt><trkpt lat="42.7569427" lon="13.2111979"><ele>1451.0</ele><time>2026-04-26T10:47:13.02Z</time></trkpt><trkpt lat="42.7569446" lon="13.2112921"><ele>1452.0</ele><time>2026-04-26T10:47:14.02Z</time></trkpt><trkpt lat="42.7568865" lon="13.211393"><ele>1453.0</ele><time>2026-04-26T10:47:15.021Z</time></trkpt><trkpt lat="42.7567914" lon="13.2115233"><ele>1454.0</ele><time>2026-04-26T10:47:16.021Z</time></trkpt><trkpt lat="42.7566787" lon="13.2116865"><ele>1455.0</ele><time>2026-04-26T10:47:17.02Z</time></trkpt><trkpt lat="42.7565562" lon="13.2118947"><ele>1449.6666666666667</ele><time>2026-04-26T10:47:18.02Z</time></trkpt><trkpt lat="42.7564227" lon="13.2121501"><ele>1444.3333333333335</ele><time>2026-04-26T10:47:19.02Z</time></trkpt><trkpt lat="42.7563078" lon="13.2123979"><ele>1439.0</ele><time>2026-04-26T10:47:20.021Z</time></trkpt><trkpt lat="42.7562175" lon="13.2126077"><ele>1439.0</ele><time>2026-04-26T10:47:21.02Z</time></trkpt><trkpt lat="42.7561709" lon="13.2127857"><ele>1439.0</ele><time>2026-04-26T10:47:22.02Z</time></trkpt><trkpt lat="42.7561512" lon="13.2129468"><ele>1439.0</ele><time>2026-04-26T10:47:23.02Z</time></trkpt><trkpt lat="42.7561246" lon="13.2131037"><ele>1439.0</ele><time>2026-04-26T10:47:24.02Z</time></trkpt><trkpt lat="42.7560109" lon="13.213207"><ele>1432.0</ele><time>2026-04-26T10:47:25.02Z</time></trkpt><trkpt lat="42.7558422" lon="13.2132573"><ele>1425.0</ele><time>2026-04-26T10:47:26.02Z</time></trkpt><trkpt lat="42.7556596" lon="13.2133406"><ele>1418.0</ele><time>2026-04-26T10:47:27.021Z</time></trkpt><trkpt lat="42.7554699" lon="13.2134524"><ele>1418.0</ele><time>2026-04-26T10:47:28.02Z</time></trkpt><trkpt lat="42.7553118" lon="13.2135674"><ele>1418.0</ele><time>2026-04-26T10:47:29.021Z</time></trkpt><trkpt lat="42.7551888" lon="13.2136777"><ele>1418.0</ele><time>2026-04-26T10:47:30.02Z</time></trkpt><trkpt lat="42.755103" lon="13.2137943"><ele>1418.0</ele><time>2026-04-26T10:47:31.02Z</time></trkpt><trkpt lat="42.755025" lon="13.2138942"><ele>1414.8000000000002</ele><time>2026-04-26T10:47:32.02Z</time></trkpt><trkpt lat="42.7549422" lon="13.2139494"><ele>1411.6</ele><time>2026-04-26T10:47:33.02Z</time></trkpt><trkpt lat="42.754845" lon="13.213921"><ele>1408.4</ele><time>2026-04-26T10:47:34.021Z</time></trkpt><trkpt lat="42.7547574" lon="13.2138129"><ele>1405.1999999999998</ele><time>2026-04-26T10:47:35.021Z</time></trkpt><trkpt lat="42.7546666" lon="13.2136843"><ele>1402.0</ele><time>2026-04-26T10:47:36.02Z</time></trkpt><trkpt lat="42.7545465" lon="13.2135756"><ele>1402.0</ele><time>2026-04-26T10:47:37.02Z</time></trkpt><trkpt lat="42.7544023" lon="13.213529"><ele>1402.0</ele><time>2026-04-26T10:47:38.021Z</time></trkpt><trkpt lat="42.7542625" lon="13.2136087"><ele>1402.0</ele><time>2026-04-26T10:47:39.021Z</time></trkpt><trkpt lat="42.7541332" lon="13.2137546"><ele>1398.3333333333333</ele><time>2026-04-26T10:47:40.02Z</time></trkpt><trkpt lat="42.7539626" lon="13.213932"><ele>1394.6666666666667</ele><time>2026-04-26T10:47:41.02Z</time></trkpt><trkpt lat="42.7537844" lon="13.2140763"><ele>1391.0</ele><time>2026-04-26T10:47:42.021Z</time></trkpt><trkpt lat="42.7536091" lon="13.2141641"><ele>1390.5</ele><time>2026-04-26T10:47:43.021Z</time></trkpt><trkpt lat="42.7534566" lon="13.2142299"><ele>1390.0</ele><time>2026-04-26T10:47:44.02Z</time></trkpt><trkpt lat="42.7533253" lon="13.2143124"><ele>1389.5</ele><time>2026-04-26T10:47:45.02Z</time></trkpt><trkpt lat="42.7532397" lon="13.214458"><ele>1389.0</ele><time>2026-04-26T10:47:46.02Z</time></trkpt><trkpt lat="42.7532012" lon="13.2146568"><ele>1392.0</ele><time>2026-04-26T10:47:47.02Z</time></trkpt><trkpt lat="42.7531854" lon="13.2148984"><ele>1395.0</ele><time>2026-04-26T10:47:48.02Z</time></trkpt><trkpt lat="42.7531844" lon="13.2151124"><ele>1398.0</ele><time>2026-04-26T10:47:49.02Z</time></trkpt><trkpt lat="42.7532164" lon="13.2152926"><ele>1398.0</ele><time>2026-04-26T10:47:50.021Z</time></trkpt><trkpt lat="42.7532536" lon="13.2154415"><ele>1398.0</ele><time>2026-04-26T10:47:51.02Z</time></trkpt><trkpt lat="42.7532601" lon="13.2155742"><ele>1398.0</ele><time>2026-04-26T10:47:52.02Z</time></trkpt><trkpt lat="42.75321" lon="13.2156799"><ele>1398.0</ele><time>2026-04-26T10:47:53.02Z</time></trkpt><trkpt lat="42.7531216" lon="13.2157635"><ele>1398.0</ele><time>2026-04-26T10:47:54.02Z</time></trkpt><trkpt lat="42.7529922" lon="13.2158192"><ele>1399.3333333333333</ele><time>2026-04-26T10:47:55.021Z</time></trkpt><trkpt lat="42.7528167" lon="13.2158925"><ele>1400.6666666666665</ele><time>2026-04-26T10:47:56.02Z</time></trkpt><trkpt lat="42.752642" lon="13.2159999"><ele>1402.0</ele><time>2026-04-26T10:47:57.02Z</time></trkpt><trkpt lat="42.7524917" lon="13.2161175"><ele>1398.6666666666665</ele><time>2026-04-26T10:47:58.02Z</time></trkpt><trkpt lat="42.7523725" lon="13.2162377"><ele>1395.3333333333333</ele><time>2026-04-26T10:47:59.02Z</time></trkpt><trkpt lat="42.752278" lon="13.216404"><ele>1392.0</ele><time>2026-04-26T10:48:00.021Z</time></trkpt><trkpt lat="42.7522237" lon="13.2166006"><ele>1392.0</ele><time>2026-04-26T10:48:01.02Z</time></trkpt><trkpt lat="42.7522168" lon="13.2167458"><ele>1392.0</ele><time>2026-04-26T10:48:02.02Z</time></trkpt><trkpt lat="42.752227" lon="13.2168824"><ele>1392.0</ele><time>2026-04-26T10:48:03.021Z</time></trkpt><trkpt lat="42.7522169" lon="13.216975"><ele>1392.0</ele><time>2026-04-26T10:48:04.021Z</time></trkpt><trkpt lat="42.7521112" lon="13.2169805"><ele>1392.0</ele><time>2026-04-26T10:48:06.02Z</time></trkpt><trkpt lat="42.7520825" lon="13.216808"><ele>1392.0</ele><time>2026-04-26T10:48:08.02Z</time></trkpt><trkpt lat="42.7520973" lon="13.2166442"><ele>1392.0</ele><time>2026-04-26T10:48:09.02Z</time></trkpt><trkpt lat="42.7521298" lon="13.2164465"><ele>1392.0</ele><time>2026-04-26T10:48:10.02Z</time></trkpt><trkpt lat="42.7522013" lon="13.2162113"><ele>1389.0</ele><time>2026-04-26T10:48:11.02Z</time></trkpt><trkpt lat="42.7522881" lon="13.2159619"><ele>1386.0</ele><time>2026-04-26T10:48:12.02Z</time></trkpt><trkpt lat="42.752394" lon="13.2157466"><ele>1383.0</ele><time>2026-04-26T10:48:13.02Z</time></trkpt><trkpt lat="42.7525022" lon="13.2155742"><ele>1379.5</ele><time>2026-04-26T10:48:14.021Z</time></trkpt><trkpt lat="42.7526181" lon="13.2154544"><ele>1376.0</ele><time>2026-04-26T10:48:15.02Z</time></trkpt><trkpt lat="42.7526864" lon="13.2153186"><ele>1372.5</ele><time>2026-04-26T10:48:16.02Z</time></trkpt><trkpt lat="42.7527328" lon="13.2151305"><ele>1369.0</ele><time>2026-04-26T10:48:17.02Z</time></trkpt><trkpt lat="42.7527722" lon="13.2148896"><ele>1375.6666666666665</ele><time>2026-04-26T10:48:18.021Z</time></trkpt><trkpt lat="42.752823" lon="13.214624"><ele>1382.3333333333333</ele><time>2026-04-26T10:48:19.02Z</time></trkpt><trkpt lat="42.7528924" lon="13.214396"><ele>1389.0</ele><time>2026-04-26T10:48:20.021Z</time></trkpt><trkpt lat="42.7529455" lon="13.2141579"><ele>1383.3333333333333</ele><time>2026-04-26T10:48:21.021Z</time></trkpt><trkpt lat="42.7529662" lon="13.2139201"><ele>1377.6666666666665</ele><time>2026-04-26T10:48:22.02Z</time></trkpt><trkpt lat="42.7529764" lon="13.2136973"><ele>1372.0</ele><time>2026-04-26T10:48:23.02Z</time></trkpt><trkpt lat="42.7530352" lon="13.2135053"><ele>1372.0</ele><time>2026-04-26T10:48:24.02Z</time></trkpt><trkpt lat="42.7531302" lon="13.2133396"><ele>1372.0</ele><time>2026-04-26T10:48:25.021Z</time></trkpt><trkpt lat="42.7532489" lon="13.2132484"><ele>1372.0</ele><time>2026-04-26T10:48:26.02Z</time></trkpt><trkpt lat="42.7533657" lon="13.2131716"><ele>1372.0</ele><time>2026-04-26T10:48:27.021Z</time></trkpt><trkpt lat="42.7534567" lon="13.2130996"><ele>1368.0</ele><time>2026-04-26T10:48:28.02Z</time></trkpt><trkpt lat="42.753506" lon="13.2130281"><ele>1364.0</ele><time>2026-04-26T10:48:29.02Z</time></trkpt><trkpt lat="42.7534723" lon="13.2129466"><ele>1360.0</ele><time>2026-04-26T10:48:30.02Z</time></trkpt><trkpt lat="42.7533902" lon="13.2128847"><ele>1356.0</ele><time>2026-04-26T10:48:31.02Z</time></trkpt><trkpt lat="42.7532772" lon="13.2129021"><ele>1352.0</ele><time>2026-04-26T10:48:32.021Z</time></trkpt><trkpt lat="42.7531429" lon="13.2129786"><ele>1352.0</ele><time>2026-04-26T10:48:33.021Z</time></trkpt><trkpt lat="42.7529982" lon="13.213085"><ele>1352.0</ele><time>2026-04-26T10:48:34.021Z</time></trkpt><trkpt lat="42.7528695" lon="13.2132128"><ele>1352.0</ele><time>2026-04-26T10:48:35.02Z</time></trkpt><trkpt lat="42.752746" lon="13.2133757"><ele>1353.25</ele><time>2026-04-26T10:48:36.02Z</time></trkpt><trkpt lat="42.7526846" lon="13.2135701"><ele>1354.5</ele><time>2026-04-26T10:48:37.02Z</time></trkpt><trkpt lat="42.7526581" lon="13.2137647"><ele>1355.75</ele><time>2026-04-26T10:48:38.021Z</time></trkpt><trkpt lat="42.7526709" lon="13.2139524"><ele>1357.0</ele><time>2026-04-26T10:48:39.021Z</time></trkpt><trkpt lat="42.7526547" lon="13.2141133"><ele>1357.0</ele><time>2026-04-26T10:48:40.02Z</time></trkpt><trkpt lat="42.7525932" lon="13.2142653"><ele>1357.0</ele><time>2026-04-26T10:48:41.02Z</time></trkpt><trkpt lat="42.7524603" lon="13.2144194"><ele>1357.0</ele><time>2026-04-26T10:48:42.02Z</time></trkpt><trkpt lat="42.7523163" lon="13.2145682"><ele>1357.0</ele><time>2026-04-26T10:48:43.02Z</time></trkpt><trkpt lat="42.7521925" lon="13.2146756"><ele>1357.0</ele><time>2026-04-26T10:48:44.02Z</time></trkpt><trkpt lat="42.7520657" lon="13.21473"><ele>1357.0</ele><time>2026-04-26T10:48:45.021Z</time></trkpt><trkpt lat="42.7519348" lon="13.2147091"><ele>1357.0</ele><time>2026-04-26T10:48:46.02Z</time></trkpt><trkpt lat="42.7517908" lon="13.2146566"><ele>1349.0</ele><time>2026-04-26T10:48:47.02Z</time></trkpt><trkpt lat="42.7516348" lon="13.2146269"><ele>1341.0</ele><time>2026-04-26T10:48:48.02Z</time></trkpt><trkpt lat="42.7514412" lon="13.2146563"><ele>1333.0</ele><time>2026-04-26T10:48:49.021Z</time></trkpt><trkpt lat="42.7512514" lon="13.2147318"><ele>1333.0</ele><time>2026-04-26T10:48:50.021Z</time></trkpt><trkpt lat="42.7510917" lon="13.2148541"><ele>1333.0</ele><time>2026-04-26T10:48:51.021Z</time></trkpt><trkpt lat="42.7509384" lon="13.2150328"><ele>1333.0</ele><time>2026-04-26T10:48:52.021Z</time></trkpt><trkpt lat="42.7507843" lon="13.2152231"><ele>1333.0</ele><time>2026-04-26T10:48:53.02Z</time></trkpt><trkpt lat="42.7505996" lon="13.2153539"><ele>1333.0</ele><time>2026-04-26T10:48:54.02Z</time></trkpt><trkpt lat="42.7504036" lon="13.2154866"><ele>1333.0</ele><time>2026-04-26T10:48:55.021Z</time></trkpt><trkpt lat="42.7502302" lon="13.2156276"><ele>1332.0</ele><time>2026-04-26T10:48:56.02Z</time></trkpt><trkpt lat="42.7500831" lon="13.2158033"><ele>1331.0</ele><time>2026-04-26T10:48:57.02Z</time></trkpt><trkpt lat="42.7499563" lon="13.2159624"><ele>1330.0</ele><time>2026-04-26T10:48:58.02Z</time></trkpt><trkpt lat="42.7498651" lon="13.2161397"><ele>1330.0</ele><time>2026-04-26T10:48:59.02Z</time></trkpt><trkpt lat="42.7498257" lon="13.2163444"><ele>1330.0</ele><time>2026-04-26T10:49:00.021Z</time></trkpt><trkpt lat="42.749829" lon="13.2165454"><ele>1330.0</ele><time>2026-04-26T10:49:01.021Z</time></trkpt><trkpt lat="42.7498581" lon="13.21671"><ele>1330.0</ele><time>2026-04-26T10:49:02.02Z</time></trkpt><trkpt lat="42.7499201" lon="13.2168295"><ele>1329.75</ele><time>2026-04-26T10:49:03.021Z</time></trkpt><trkpt lat="42.7500164" lon="13.2168983"><ele>1329.5</ele><time>2026-04-26T10:49:04.02Z</time></trkpt><trkpt lat="42.7501474" lon="13.2169017"><ele>1329.25</ele><time>2026-04-26T10:49:05.021Z</time></trkpt><trkpt lat="42.7502903" lon="13.2168695"><ele>1329.0</ele><time>2026-04-26T10:49:06.02Z</time></trkpt><trkpt lat="42.7504445" lon="13.2168369"><ele>1331.5</ele><time>2026-04-26T10:49:07.02Z</time></trkpt><trkpt lat="42.7505821" lon="13.2168733"><ele>1334.0</ele><time>2026-04-26T10:49:08.02Z</time></trkpt><trkpt lat="42.7506843" lon="13.2169549"><ele>1336.5</ele><time>2026-04-26T10:49:09.021Z</time></trkpt><trkpt lat="42.7507297" lon="13.2170939"><ele>1339.0</ele><time>2026-04-26T10:49:10.02Z</time></trkpt><trkpt lat="42.7507305" lon="13.2172737"><ele>1335.3333333333333</ele><time>2026-04-26T10:49:11.02Z</time></trkpt><trkpt lat="42.7507202" lon="13.2174942"><ele>1331.6666666666667</ele><time>2026-04-26T10:49:12.02Z</time></trkpt><trkpt lat="42.7507421" lon="13.2177639"><ele>1328.0</ele><time>2026-04-26T10:49:13.02Z</time></trkpt><trkpt lat="42.7508077" lon="13.2180448"><ele>1323.6666666666667</ele><time>2026-04-26T10:49:14.021Z</time></trkpt><trkpt lat="42.750884" lon="13.2183218"><ele>1319.3333333333333</ele><time>2026-04-26T10:49:15.02Z</time></trkpt><trkpt lat="42.7509747" lon="13.2185687"><ele>1315.0</ele><time>2026-04-26T10:49:16.02Z</time></trkpt><trkpt lat="42.7510649" lon="13.2187882"><ele>1323.0</ele><time>2026-04-26T10:49:17.02Z</time></trkpt><trkpt lat="42.7511416" lon="13.2189619"><ele>1331.0</ele><time>2026-04-26T10:49:18.021Z</time></trkpt><trkpt lat="42.7511896" lon="13.2191164"><ele>1339.0</ele><time>2026-04-26T10:49:19.02Z</time></trkpt><trkpt lat="42.7511666" lon="13.219239"><ele>1347.0</ele><time>2026-04-26T10:49:20.021Z</time></trkpt><trkpt lat="42.7511054" lon="13.2193326"><ele>1340.0</ele><time>2026-04-26T10:49:21.02Z</time></trkpt><trkpt lat="42.7510296" lon="13.2193583"><ele>1333.0</ele><time>2026-04-26T10:49:22.021Z</time></trkpt><trkpt lat="42.750939" lon="13.2192953"><ele>1326.0</ele><time>2026-04-26T10:49:23.02Z</time></trkpt><trkpt lat="42.7508188" lon="13.2192012"><ele>1319.0</ele><time>2026-04-26T10:49:24.02Z</time></trkpt><trkpt lat="42.7506493" lon="13.2191362"><ele>1319.0</ele><time>2026-04-26T10:49:25.02Z</time></trkpt><trkpt lat="42.7504637" lon="13.2191064"><ele>1319.0</ele><time>2026-04-26T10:49:26.02Z</time></trkpt><trkpt lat="42.750285" lon="13.2191177"><ele>1319.0</ele><time>2026-04-26T10:49:27.02Z</time></trkpt><trkpt lat="42.7500974" lon="13.2191997"><ele>1311.5</ele><time>2026-04-26T10:49:28.021Z</time></trkpt><trkpt lat="42.7498874" lon="13.219352"><ele>1304.0</ele><time>2026-04-26T10:49:29.02Z</time></trkpt><trkpt lat="42.7496633" lon="13.2195109"><ele>1304.0</ele><time>2026-04-26T10:49:30.02Z</time></trkpt><trkpt lat="42.7494274" lon="13.219647"><ele>1304.0</ele><time>2026-04-26T10:49:31.02Z</time></trkpt><trkpt lat="42.7491971" lon="13.2197892"><ele>1305.5</ele><time>2026-04-26T10:49:32.02Z</time></trkpt><trkpt lat="42.7489714" lon="13.2199741"><ele>1307.0</ele><time>2026-04-26T10:49:33.02Z</time></trkpt><trkpt lat="42.7487462" lon="13.2201908"><ele>1292.0</ele><time>2026-04-26T10:49:34.02Z</time></trkpt><trkpt lat="42.7485035" lon="13.2203709"><ele>1277.0</ele><time>2026-04-26T10:49:35.02Z</time></trkpt><trkpt lat="42.7482738" lon="13.2204999"><ele>1277.0</ele><time>2026-04-26T10:49:36.021Z</time></trkpt><trkpt lat="42.7480628" lon="13.2205605"><ele>1277.0</ele><time>2026-04-26T10:49:37.02Z</time></trkpt><trkpt lat="42.7478733" lon="13.2206143"><ele>1277.0</ele><time>2026-04-26T10:49:38.021Z</time></trkpt><trkpt lat="42.7477007" lon="13.2207055"><ele>1281.0</ele><time>2026-04-26T10:49:39.02Z</time></trkpt><trkpt lat="42.7475122" lon="13.2208799"><ele>1285.0</ele><time>2026-04-26T10:49:40.02Z</time></trkpt><trkpt lat="42.7473031" lon="13.2210999"><ele>1285.0</ele><time>2026-04-26T10:49:41.02Z</time></trkpt><trkpt lat="42.7470951" lon="13.2213101"><ele>1285.0</ele><time>2026-04-26T10:49:42.02Z</time></trkpt><trkpt lat="42.7468923" lon="13.2214961"><ele>1286.0</ele><time>2026-04-26T10:49:43.02Z</time></trkpt><trkpt lat="42.7467007" lon="13.2216659"><ele>1287.0</ele><time>2026-04-26T10:49:44.02Z</time></trkpt><trkpt lat="42.7465063" lon="13.2218184"><ele>1287.0</ele><time>2026-04-26T10:49:45.02Z</time></trkpt><trkpt lat="42.7463108" lon="13.2219436"><ele>1287.0</ele><time>2026-04-26T10:49:46.021Z</time></trkpt><trkpt lat="42.7461186" lon="13.2220513"><ele>1287.0</ele><time>2026-04-26T10:49:47.02Z</time></trkpt><trkpt lat="42.7459374" lon="13.2221738"><ele>1285.6666666666667</ele><time>2026-04-26T10:49:48.02Z</time></trkpt><trkpt lat="42.7457718" lon="13.2223216"><ele>1284.3333333333335</ele><time>2026-04-26T10:49:49.02Z</time></trkpt><trkpt lat="42.7456409" lon="13.2224996"><ele>1283.0</ele><time>2026-04-26T10:49:50.02Z</time></trkpt><trkpt lat="42.7455446" lon="13.2227081"><ele>1283.0</ele><time>2026-04-26T10:49:51.02Z</time></trkpt><trkpt lat="42.7454847" lon="13.2229703"><ele>1283.0</ele><time>2026-04-26T10:49:52.02Z</time></trkpt><trkpt lat="42.7454441" lon="13.2233246"><ele>1288.0</ele><time>2026-04-26T10:49:53.02Z</time></trkpt><trkpt lat="42.7453859" lon="13.2237477"><ele>1293.0</ele><time>2026-04-26T10:49:54.02Z</time></trkpt><trkpt lat="42.7453255" lon="13.2242323"><ele>1296.5</ele><time>2026-04-26T10:49:55.021Z</time></trkpt><trkpt lat="42.7452648" lon="13.2247333"><ele>1300.0</ele><time>2026-04-26T10:49:56.02Z</time></trkpt><trkpt lat="42.7452088" lon="13.2252019"><ele>1276.5</ele><time>2026-04-26T10:49:57.021Z</time></trkpt><trkpt lat="42.7451609" lon="13.2256162"><ele>1253.0</ele><time>2026-04-26T10:49:58.02Z</time></trkpt><trkpt lat="42.7451261" lon="13.2260129"><ele>1252.5</ele><time>2026-04-26T10:49:59.02Z</time></trkpt><trkpt lat="42.7450838" lon="13.2263962"><ele>1252.0</ele><time>2026-04-26T10:50:00.02Z</time></trkpt><trkpt lat="42.7450349" lon="13.2267651"><ele>1254.0</ele><time>2026-04-26T10:50:01.02Z</time></trkpt><trkpt lat="42.7449686" lon="13.227129"><ele>1256.0</ele><time>2026-04-26T10:50:02.02Z</time></trkpt><trkpt lat="42.7448784" lon="13.2274785"><ele>1259.0</ele><time>2026-04-26T10:50:03.021Z</time></trkpt><trkpt lat="42.7447741" lon="13.2277986"><ele>1262.0</ele><time>2026-04-26T10:50:04.021Z</time></trkpt><trkpt lat="42.7446593" lon="13.2281104"><ele>1267.5</ele><time>2026-04-26T10:50:05.02Z</time></trkpt><trkpt lat="42.7445318" lon="13.2284304"><ele>1273.0</ele><time>2026-04-26T10:50:06.02Z</time></trkpt><trkpt lat="42.7443785" lon="13.2287373"><ele>1255.5</ele><time>2026-04-26T10:50:07.021Z</time></trkpt><trkpt lat="42.7442125" lon="13.2290012"><ele>1238.0</ele><time>2026-04-26T10:50:08.02Z</time></trkpt><trkpt lat="42.7440549" lon="13.2292512"><ele>1238.0</ele><time>2026-04-26T10:50:09.02Z</time></trkpt><trkpt lat="42.7439248" lon="13.2294916"><ele>1238.0</ele><time>2026-04-26T10:50:10.02Z</time></trkpt><trkpt lat="42.74384" lon="13.2297199"><ele>1238.0</ele><time>2026-04-26T10:50:11.02Z</time></trkpt><trkpt lat="42.7437805" lon="13.2299153"><ele>1241.25</ele><time>2026-04-26T10:50:12.02Z</time></trkpt><trkpt lat="42.7437616" lon="13.2300725"><ele>1244.5</ele><time>2026-04-26T10:50:13.02Z</time></trkpt><trkpt lat="42.7437929" lon="13.2302317"><ele>1247.75</ele><time>2026-04-26T10:50:14.021Z</time></trkpt><trkpt lat="42.7438622" lon="13.2303772"><ele>1251.0</ele><time>2026-04-26T10:50:15.021Z</time></trkpt><trkpt lat="42.7439649" lon="13.2304659"><ele>1251.0</ele><time>2026-04-26T10:50:16.02Z</time></trkpt><trkpt lat="42.744048" lon="13.2305379"><ele>1251.0</ele><time>2026-04-26T10:50:17.02Z</time></trkpt><trkpt lat="42.7440733" lon="13.2306285"><ele>1251.0</ele><time>2026-04-26T10:50:18.02Z</time></trkpt><trkpt lat="42.7440495" lon="13.2307294"><ele>1251.0</ele><time>2026-04-26T10:50:19.019Z</time></trkpt><trkpt lat="42.7439805" lon="13.2307663"><ele>1251.0</ele><time>2026-04-26T10:50:20.019Z</time></trkpt><trkpt lat="42.7438993" lon="13.2307175"><ele>1251.0</ele><time>2026-04-26T10:50:21.019Z</time></trkpt><trkpt lat="42.7437953" lon="13.2306076"><ele>1251.0</ele><time>2026-04-26T10:50:22.028Z</time></trkpt><trkpt lat="42.7436865" lon="13.2304647"><ele>1251.0</ele><time>2026-04-26T10:50:23.029Z</time></trkpt><trkpt lat="42.7436088" lon="13.2303074"><ele>1251.0</ele><time>2026-04-26T10:50:24.028Z</time></trkpt><trkpt lat="42.7435809" lon="13.2301172"><ele>1251.0</ele><time>2026-04-26T10:50:25.028Z</time></trkpt><trkpt lat="42.7435821" lon="13.2298892"><ele>1246.6666666666667</ele><time>2026-04-26T10:50:26.028Z</time></trkpt><trkpt lat="42.7436358" lon="13.2296259"><ele>1242.3333333333335</ele><time>2026-04-26T10:50:27.028Z</time></trkpt><trkpt lat="42.7437303" lon="13.2293382"><ele>1238.0</ele><time>2026-04-26T10:50:28.028Z</time></trkpt><trkpt lat="42.743859" lon="13.2290379"><ele>1232.5</ele><time>2026-04-26T10:50:29.028Z</time></trkpt><trkpt lat="42.7440185" lon="13.2287371"><ele>1227.0</ele><time>2026-04-26T10:50:30.028Z</time></trkpt><trkpt lat="42.7441331" lon="13.2283856"><ele>1220.0</ele><time>2026-04-26T10:50:31.028Z</time></trkpt><trkpt lat="42.744264" lon="13.2280623"><ele>1213.0</ele><time>2026-04-26T10:50:32.028Z</time></trkpt><trkpt lat="42.7443447" lon="13.2277157"><ele>1234.5</ele><time>2026-04-26T10:50:33.028Z</time></trkpt><trkpt lat="42.7444255" lon="13.2273738"><ele>1256.0</ele><time>2026-04-26T10:50:34.029Z</time></trkpt><trkpt lat="42.7444641" lon="13.2269875"><ele>1256.0</ele><time>2026-04-26T10:50:35.027Z</time></trkpt><trkpt lat="42.7445029" lon="13.2265988"><ele>1256.0</ele><time>2026-04-26T10:50:36.027Z</time></trkpt><trkpt lat="42.7444942" lon="13.2262135"><ele>1254.5</ele><time>2026-04-26T10:50:37.027Z</time></trkpt><trkpt lat="42.7444625" lon="13.2257926"><ele>1253.0</ele><time>2026-04-26T10:50:38.027Z</time></trkpt><trkpt lat="42.7444377" lon="13.2253722"><ele>1253.0</ele><time>2026-04-26T10:50:39.027Z</time></trkpt><trkpt lat="42.7444232" lon="13.2250009"><ele>1253.0</ele><time>2026-04-26T10:50:40.027Z</time></trkpt><trkpt lat="42.7444151" lon="13.2246383"><ele>1250.5</ele><time>2026-04-26T10:50:41.028Z</time></trkpt><trkpt lat="42.7444085" lon="13.2243077"><ele>1248.0</ele><time>2026-04-26T10:50:42.027Z</time></trkpt><trkpt lat="42.74438" lon="13.2239895"><ele>1221.5</ele><time>2026-04-26T10:50:43.027Z</time></trkpt><trkpt lat="42.7443334" lon="13.2236836"><ele>1195.0</ele><time>2026-04-26T10:50:44.027Z</time></trkpt><trkpt lat="42.7442763" lon="13.2233859"><ele>1195.3333333333333</ele><time>2026-04-26T10:50:45.027Z</time></trkpt><trkpt lat="42.7442014" lon="13.2231097"><ele>1195.6666666666667</ele><time>2026-04-26T10:50:46.027Z</time></trkpt><trkpt lat="42.7441149" lon="13.2228506"><ele>1196.0</ele><time>2026-04-26T10:50:47.027Z</time></trkpt><trkpt lat="42.7440482" lon="13.2225826"><ele>1196.0</ele><time>2026-04-26T10:50:48.028Z</time></trkpt><trkpt lat="42.7440149" lon="13.222339"><ele>1196.0</ele><time>2026-04-26T10:50:49.028Z</time></trkpt><trkpt lat="42.7440058" lon="13.2221199"><ele>1196.0</ele><time>2026-04-26T10:50:50.028Z</time></trkpt><trkpt lat="42.7440462" lon="13.2219314"><ele>1192.6666666666667</ele><time>2026-04-26T10:50:51.027Z</time></trkpt><trkpt lat="42.7441432" lon="13.2217721"><ele>1189.3333333333333</ele><time>2026-04-26T10:50:52.027Z</time></trkpt><trkpt lat="42.7442755" lon="13.2216432"><ele>1186.0</ele><time>2026-04-26T10:50:53.028Z</time></trkpt><trkpt lat="42.7444633" lon="13.2215316"><ele>1179.0</ele><time>2026-04-26T10:50:54.027Z</time></trkpt><trkpt lat="42.7446902" lon="13.2214021"><ele>1172.0</ele><time>2026-04-26T10:50:55.027Z</time></trkpt><trkpt lat="42.7449407" lon="13.2211836"><ele>1172.0</ele><time>2026-04-26T10:50:56.027Z</time></trkpt><trkpt lat="42.7452058" lon="13.2209472"><ele>1172.0</ele><time>2026-04-26T10:50:57.027Z</time></trkpt><trkpt lat="42.7454412" lon="13.22072"><ele>1165.5</ele><time>2026-04-26T10:50:58.027Z</time></trkpt><trkpt lat="42.7456582" lon="13.2204951"><ele>1159.0</ele><time>2026-04-26T10:50:59.027Z</time></trkpt><trkpt lat="42.7458542" lon="13.2203129"><ele>1159.0</ele><time>2026-04-26T10:51:00.027Z</time></trkpt><trkpt lat="42.7460321" lon="13.2201023"><ele>1159.0</ele><time>2026-04-26T10:51:01.027Z</time></trkpt><trkpt lat="42.7461828" lon="13.219882"><ele>1162.0</ele><time>2026-04-26T10:51:02.027Z</time></trkpt><trkpt lat="42.7463342" lon="13.2196622"><ele>1165.0</ele><time>2026-04-26T10:51:03.027Z</time></trkpt><trkpt lat="42.746496" lon="13.2194474"><ele>1168.0</ele><time>2026-04-26T10:51:04.028Z</time></trkpt><trkpt lat="42.7466643" lon="13.219244"><ele>1168.0</ele><time>2026-04-26T10:51:05.027Z</time></trkpt><trkpt lat="42.7468209" lon="13.2190771"><ele>1168.0</ele><time>2026-04-26T10:51:06.028Z</time></trkpt><trkpt lat="42.7469538" lon="13.2189411"><ele>1168.0</ele><time>2026-04-26T10:51:07.027Z</time></trkpt><trkpt lat="42.747069" lon="13.2188451"><ele>1170.3333333333333</ele><time>2026-04-26T10:51:08.027Z</time></trkpt><trkpt lat="42.7471549" lon="13.2187371"><ele>1172.6666666666665</ele><time>2026-04-26T10:51:09.027Z</time></trkpt><trkpt lat="42.7472022" lon="13.2186259"><ele>1175.0</ele><time>2026-04-26T10:51:10.027Z</time></trkpt><trkpt lat="42.7471929" lon="13.2185118"><ele>1177.3333333333333</ele><time>2026-04-26T10:51:11.027Z</time></trkpt><trkpt lat="42.7471325" lon="13.2184536"><ele>1179.6666666666667</ele><time>2026-04-26T10:51:12.027Z</time></trkpt><trkpt lat="42.747067" lon="13.2184494"><ele>1182.0</ele><time>2026-04-26T10:51:13.028Z</time></trkpt><trkpt lat="42.7469928" lon="13.2185403"><ele>1182.0</ele><time>2026-04-26T10:51:14.027Z</time></trkpt><trkpt lat="42.7469016" lon="13.2186856"><ele>1182.0</ele><time>2026-04-26T10:51:15.027Z</time></trkpt><trkpt lat="42.7468283" lon="13.2188869"><ele>1182.0</ele><time>2026-04-26T10:51:16.027Z</time></trkpt><trkpt lat="42.7466964" lon="13.2190801"><ele>1175.0</ele><time>2026-04-26T10:51:17.027Z</time></trkpt><trkpt lat="42.7464427" lon="13.2193104"><ele>1168.0</ele><time>2026-04-26T10:51:18.028Z</time></trkpt><trkpt lat="42.7461823" lon="13.2195611"><ele>1163.5</ele><time>2026-04-26T10:51:19.027Z</time></trkpt><trkpt lat="42.7459505" lon="13.2197897"><ele>1159.0</ele><time>2026-04-26T10:51:20.027Z</time></trkpt><trkpt lat="42.7457125" lon="13.219984"><ele>1159.0</ele><time>2026-04-26T10:51:21.027Z</time></trkpt><trkpt lat="42.7454657" lon="13.2201554"><ele>1159.0</ele><time>2026-04-26T10:51:22.027Z</time></trkpt><trkpt lat="42.7452065" lon="13.2203124"><ele>1142.0</ele><time>2026-04-26T10:51:23.027Z</time></trkpt><trkpt lat="42.7449696" lon="13.2204654"><ele>1125.0</ele><time>2026-04-26T10:51:24.027Z</time></trkpt><trkpt lat="42.7447715" lon="13.2206196"><ele>1132.3333333333333</ele><time>2026-04-26T10:51:25.027Z</time></trkpt><trkpt lat="42.7445858" lon="13.2207487"><ele>1139.6666666666665</ele><time>2026-04-26T10:51:26.028Z</time></trkpt><trkpt lat="42.7443911" lon="13.2208292"><ele>1147.0</ele><time>2026-04-26T10:51:27.027Z</time></trkpt><trkpt lat="42.7441841" lon="13.2208563"><ele>1147.0</ele><time>2026-04-26T10:51:28.027Z</time></trkpt><trkpt lat="42.7439541" lon="13.220836"><ele>1147.0</ele><time>2026-04-26T10:51:29.027Z</time></trkpt><trkpt lat="42.7437358" lon="13.2208118"><ele>1147.0</ele><time>2026-04-26T10:51:30.027Z</time></trkpt><trkpt lat="42.7435421" lon="13.220815"><ele>1142.6666666666665</ele><time>2026-04-26T10:51:31.027Z</time></trkpt><trkpt lat="42.7433537" lon="13.2208562"><ele>1138.3333333333333</ele><time>2026-04-26T10:51:32.027Z</time></trkpt><trkpt lat="42.7431859" lon="13.2209503"><ele>1134.0</ele><time>2026-04-26T10:51:33.027Z</time></trkpt><trkpt lat="42.7430673" lon="13.2210894"><ele>1134.0</ele><time>2026-04-26T10:51:34.027Z</time></trkpt><trkpt lat="42.7429798" lon="13.2212319"><ele>1134.0</ele><time>2026-04-26T10:51:35.027Z</time></trkpt><trkpt lat="42.7429541" lon="13.221432"><ele>1134.0</ele><time>2026-04-26T10:51:36.027Z</time></trkpt><trkpt lat="42.7429606" lon="13.2217004"><ele>1143.5</ele><time>2026-04-26T10:51:37.027Z</time></trkpt><trkpt lat="42.7429728" lon="13.2220125"><ele>1153.0</ele><time>2026-04-26T10:51:38.027Z</time></trkpt><trkpt lat="42.7429702" lon="13.2223663"><ele>1153.0</ele><time>2026-04-26T10:51:39.027Z</time></trkpt><trkpt lat="42.7429736" lon="13.222741"><ele>1153.0</ele><time>2026-04-26T10:51:40.027Z</time></trkpt><trkpt lat="42.742986" lon="13.223108"><ele>1149.5</ele><time>2026-04-26T10:51:41.027Z</time></trkpt><trkpt lat="42.7430082" lon="13.2234658"><ele>1146.0</ele><time>2026-04-26T10:51:42.028Z</time></trkpt><trkpt lat="42.7430148" lon="13.2238262"><ele>1142.5</ele><time>2026-04-26T10:51:43.027Z</time></trkpt><trkpt lat="42.7429981" lon="13.2242239"><ele>1139.0</ele><time>2026-04-26T10:51:44.027Z</time></trkpt><trkpt lat="42.742964" lon="13.2246366"><ele>1139.0</ele><time>2026-04-26T10:51:45.027Z</time></trkpt><trkpt lat="42.7429331" lon="13.2250246"><ele>1139.0</ele><time>2026-04-26T10:51:46.027Z</time></trkpt><trkpt lat="42.7429142" lon="13.2253976"><ele>1140.0</ele><time>2026-04-26T10:51:47.027Z</time></trkpt><trkpt lat="42.7429" lon="13.2257349"><ele>1141.0</ele><time>2026-04-26T10:51:48.027Z</time></trkpt><trkpt lat="42.7428785" lon="13.2260313"><ele>1141.0</ele><time>2026-04-26T10:51:49.027Z</time></trkpt><trkpt lat="42.7428431" lon="13.226295"><ele>1141.0</ele><time>2026-04-26T10:51:50.028Z</time></trkpt><trkpt lat="42.7427643" lon="13.2265481"><ele>1141.0</ele><time>2026-04-26T10:51:51.027Z</time></trkpt><trkpt lat="42.7426494" lon="13.2268115"><ele>1128.5</ele><time>2026-04-26T10:51:52.027Z</time></trkpt><trkpt lat="42.7424737" lon="13.2270748"><ele>1116.0</ele><time>2026-04-26T10:51:53.027Z</time></trkpt><trkpt lat="42.7422622" lon="13.2273486"><ele>1116.0</ele><time>2026-04-26T10:51:54.028Z</time></trkpt><trkpt lat="42.7420461" lon="13.2276293"><ele>1116.0</ele><time>2026-04-26T10:51:55.027Z</time></trkpt><trkpt lat="42.7418466" lon="13.2278991"><ele>1103.0</ele><time>2026-04-26T10:51:56.027Z</time></trkpt><trkpt lat="42.7416875" lon="13.2281672"><ele>1090.0</ele><time>2026-04-26T10:51:57.027Z</time></trkpt><trkpt lat="42.7415298" lon="13.2284263"><ele>1090.0</ele><time>2026-04-26T10:51:58.027Z</time></trkpt><trkpt lat="42.7413534" lon="13.228658"><ele>1090.0</ele><time>2026-04-26T10:51:59.027Z</time></trkpt><trkpt lat="42.7411675" lon="13.2288519"><ele>1085.0</ele><time>2026-04-26T10:52:00.027Z</time></trkpt><trkpt lat="42.7409808" lon="13.2290129"><ele>1080.0</ele><time>2026-04-26T10:52:01.027Z</time></trkpt><trkpt lat="42.7408051" lon="13.2291641"><ele>1075.0</ele><time>2026-04-26T10:52:02.028Z</time></trkpt><trkpt lat="42.7406425" lon="13.2293119"><ele>1075.0</ele><time>2026-04-26T10:52:03.028Z</time></trkpt><trkpt lat="42.7405044" lon="13.2294923"><ele>1075.0</ele><time>2026-04-26T10:52:04.028Z</time></trkpt><trkpt lat="42.7404049" lon="13.2297071"><ele>1075.0</ele><time>2026-04-26T10:52:05.028Z</time></trkpt><trkpt lat="42.7403556" lon="13.2299401"><ele>1080.6666666666665</ele><time>2026-04-26T10:52:06.027Z</time></trkpt><trkpt lat="42.7403622" lon="13.2301831"><ele>1086.3333333333333</ele><time>2026-04-26T10:52:07.027Z</time></trkpt><trkpt lat="42.7403996" lon="13.2304441"><ele>1092.0</ele><time>2026-04-26T10:52:08.027Z</time></trkpt><trkpt lat="42.7404698" lon="13.2307062"><ele>1092.0</ele><time>2026-04-26T10:52:09.027Z</time></trkpt><trkpt lat="42.7405672" lon="13.230955"><ele>1092.0</ele><time>2026-04-26T10:52:10.027Z</time></trkpt><trkpt lat="42.7406492" lon="13.231187"><ele>1092.0</ele><time>2026-04-26T10:52:11.028Z</time></trkpt><trkpt lat="42.7406853" lon="13.2314154"><ele>1091.3333333333333</ele><time>2026-04-26T10:52:12.027Z</time></trkpt><trkpt lat="42.7406705" lon="13.2316474"><ele>1090.6666666666665</ele><time>2026-04-26T10:52:13.028Z</time></trkpt><trkpt lat="42.7405909" lon="13.2318889"><ele>1090.0</ele><time>2026-04-26T10:52:14.027Z</time></trkpt><trkpt lat="42.7405115" lon="13.2321146"><ele>1089.6666666666665</ele><time>2026-04-26T10:52:15.027Z</time></trkpt><trkpt lat="42.7404422" lon="13.2323282"><ele>1089.3333333333333</ele><time>2026-04-26T10:52:16.028Z</time></trkpt><trkpt lat="42.7404228" lon="13.2325686"><ele>1089.0</ele><time>2026-04-26T10:52:17.027Z</time></trkpt><trkpt lat="42.7404449" lon="13.2328667"><ele>1086.3333333333333</ele><time>2026-04-26T10:52:18.028Z</time></trkpt><trkpt lat="42.7404786" lon="13.2331698"><ele>1083.6666666666665</ele><time>2026-04-26T10:52:19.028Z</time></trkpt><trkpt lat="42.7405073" lon="13.2334261"><ele>1081.0</ele><time>2026-04-26T10:52:20.027Z</time></trkpt><trkpt lat="42.7405601" lon="13.2336589"><ele>1081.0</ele><time>2026-04-26T10:52:21.027Z</time></trkpt><trkpt lat="42.7406417" lon="13.2338598"><ele>1081.0</ele><time>2026-04-26T10:52:22.028Z</time></trkpt><trkpt lat="42.7407704" lon="13.2340158"><ele>1081.0</ele><time>2026-04-26T10:52:23.027Z</time></trkpt><trkpt lat="42.7409252" lon="13.2341265"><ele>1082.3333333333333</ele><time>2026-04-26T10:52:24.028Z</time></trkpt><trkpt lat="42.7411053" lon="13.2342016"><ele>1083.6666666666667</ele><time>2026-04-26T10:52:25.027Z</time></trkpt><trkpt lat="42.7413185" lon="13.2342761"><ele>1085.0</ele><time>2026-04-26T10:52:26.027Z</time></trkpt><trkpt lat="42.7415331" lon="13.2344002"><ele>1085.0</ele><time>2026-04-26T10:52:27.027Z</time></trkpt><trkpt lat="42.7417487" lon="13.2344905"><ele>1085.0</ele><time>2026-04-26T10:52:28.027Z</time></trkpt><trkpt lat="42.7419506" lon="13.2345395"><ele>1085.0</ele><time>2026-04-26T10:52:29.027Z</time></trkpt><trkpt lat="42.7421411" lon="13.2346028"><ele>1090.0</ele><time>2026-04-26T10:52:30.028Z</time></trkpt><trkpt lat="42.7423039" lon="13.2347377"><ele>1095.0</ele><time>2026-04-26T10:52:31.027Z</time></trkpt><trkpt lat="42.7424607" lon="13.2349321"><ele>1100.0</ele><time>2026-04-26T10:52:32.027Z</time></trkpt><trkpt lat="42.742608" lon="13.2351261"><ele>1089.3333333333335</ele><time>2026-04-26T10:52:33.027Z</time></trkpt><trkpt lat="42.74274" lon="13.2352865"><ele>1078.6666666666667</ele><time>2026-04-26T10:52:34.028Z</time></trkpt><trkpt lat="42.7428663" lon="13.2354206"><ele>1068.0</ele><time>2026-04-26T10:52:35.027Z</time></trkpt><trkpt lat="42.7429955" lon="13.2354909"><ele>1068.0</ele><time>2026-04-26T10:52:36.027Z</time></trkpt><trkpt lat="42.74311" lon="13.2354857"><ele>1068.0</ele><time>2026-04-26T10:52:37.027Z</time></trkpt><trkpt lat="42.743245" lon="13.2354178"><ele>1068.0</ele><time>2026-04-26T10:52:38.027Z</time></trkpt><trkpt lat="42.7434039" lon="13.2353103"><ele>1068.0</ele><time>2026-04-26T10:52:39.027Z</time></trkpt><trkpt lat="42.7435816" lon="13.2352117"><ele>1060.0</ele><time>2026-04-26T10:52:40.027Z</time></trkpt><trkpt lat="42.7437683" lon="13.2351822"><ele>1052.0</ele><time>2026-04-26T10:52:41.027Z</time></trkpt><trkpt lat="42.743964" lon="13.2351622"><ele>1044.0</ele><time>2026-04-26T10:52:42.027Z</time></trkpt><trkpt lat="42.7441528" lon="13.2350745"><ele>1044.0</ele><time>2026-04-26T10:52:43.027Z</time></trkpt><trkpt lat="42.7443355" lon="13.2349685"><ele>1044.0</ele><time>2026-04-26T10:52:44.027Z</time></trkpt><trkpt lat="42.7445119" lon="13.2349103"><ele>1044.0</ele><time>2026-04-26T10:52:45.028Z</time></trkpt><trkpt lat="42.7447041" lon="13.2349382"><ele>1040.0</ele><time>2026-04-26T10:52:46.028Z</time></trkpt><trkpt lat="42.7449052" lon="13.2349906"><ele>1036.0</ele><time>2026-04-26T10:52:47.027Z</time></trkpt><trkpt lat="42.7451144" lon="13.2350196"><ele>1032.0</ele><time>2026-04-26T10:52:48.028Z</time></trkpt><trkpt lat="42.7453011" lon="13.235031"><ele>1032.0</ele><time>2026-04-26T10:52:49.027Z</time></trkpt><trkpt lat="42.7454866" lon="13.2350165"><ele>1032.0</ele><time>2026-04-26T10:52:50.027Z</time></trkpt><trkpt lat="42.7456447" lon="13.2349811"><ele>1032.0</ele><time>2026-04-26T10:52:51.027Z</time></trkpt><trkpt lat="42.7457836" lon="13.2349653"><ele>1032.0</ele><time>2026-04-26T10:52:52.028Z</time></trkpt><trkpt lat="42.7459029" lon="13.2350169"><ele>1032.0</ele><time>2026-04-26T10:52:53.028Z</time></trkpt><trkpt lat="42.7460073" lon="13.2351012"><ele>1032.0</ele><time>2026-04-26T10:52:54.027Z</time></trkpt><trkpt lat="42.7460762" lon="13.2352103"><ele>1032.0</ele><time>2026-04-26T10:52:55.027Z</time></trkpt><trkpt lat="42.7460735" lon="13.235392"><ele>1032.0</ele><time>2026-04-26T10:52:56.027Z</time></trkpt><trkpt lat="42.7460282" lon="13.2355822"><ele>1032.0</ele><time>2026-04-26T10:52:57.028Z</time></trkpt><trkpt lat="42.7459221" lon="13.2357644"><ele>1032.0</ele><time>2026-04-26T10:52:58.027Z</time></trkpt><trkpt lat="42.7457632" lon="13.2359477"><ele>1026.5</ele><time>2026-04-26T10:52:59.028Z</time></trkpt><trkpt lat="42.745583" lon="13.236179"><ele>1021.0</ele><time>2026-04-26T10:53:00.027Z</time></trkpt><trkpt lat="42.7453782" lon="13.2364489"><ele>1012.5</ele><time>2026-04-26T10:53:01.027Z</time></trkpt><trkpt lat="42.745194" lon="13.2367412"><ele>1004.0</ele><time>2026-04-26T10:53:02.027Z</time></trkpt><trkpt lat="42.7450361" lon="13.2369767"><ele>1004.0</ele><time>2026-04-26T10:53:03.027Z</time></trkpt><trkpt lat="42.7448988" lon="13.2371573"><ele>1004.0</ele><time>2026-04-26T10:53:04.027Z</time></trkpt><trkpt lat="42.7447998" lon="13.2373002"><ele>1004.0</ele><time>2026-04-26T10:53:05.027Z</time></trkpt><trkpt lat="42.7447372" lon="13.237435"><ele>1006.0</ele><time>2026-04-26T10:53:06.027Z</time></trkpt><trkpt lat="42.7447378" lon="13.2375688"><ele>1008.0</ele><time>2026-04-26T10:53:07.027Z</time></trkpt><trkpt lat="42.7447849" lon="13.2377035"><ele>1010.0</ele><time>2026-04-26T10:53:08.027Z</time></trkpt><trkpt lat="42.7448864" lon="13.2378405"><ele>1012.0</ele><time>2026-04-26T10:53:09.027Z</time></trkpt><trkpt lat="42.7450056" lon="13.2379827"><ele>1012.0</ele><time>2026-04-26T10:53:10.027Z</time></trkpt><trkpt lat="42.7450931" lon="13.2381095"><ele>1012.0</ele><time>2026-04-26T10:53:11.027Z</time></trkpt><trkpt lat="42.745122" lon="13.2382217"><ele>1012.0</ele><time>2026-04-26T10:53:12.028Z</time></trkpt><trkpt lat="42.745108" lon="13.2383389"><ele>1012.0</ele><time>2026-04-26T10:53:13.028Z</time></trkpt><trkpt lat="42.7450556" lon="13.2384492"><ele>1012.0</ele><time>2026-04-26T10:53:14.027Z</time></trkpt><trkpt lat="42.7449593" lon="13.2385019"><ele>1013.25</ele><time>2026-04-26T10:53:15.027Z</time></trkpt><trkpt lat="42.7448466" lon="13.2384764"><ele>1014.5</ele><time>2026-04-26T10:53:16.027Z</time></trkpt><trkpt lat="42.7447358" lon="13.2384396"><ele>1015.75</ele><time>2026-04-26T10:53:17.027Z</time></trkpt><trkpt lat="42.7445934" lon="13.2384163"><ele>1017.0</ele><time>2026-04-26T10:53:18.027Z</time></trkpt><trkpt lat="42.7444465" lon="13.2384072"><ele>1012.0</ele><time>2026-04-26T10:53:19.027Z</time></trkpt><trkpt lat="42.7442792" lon="13.2384045"><ele>1007.0</ele><time>2026-04-26T10:53:20.027Z</time></trkpt><trkpt lat="42.7441001" lon="13.2383814"><ele>1002.0</ele><time>2026-04-26T10:53:21.027Z</time></trkpt><trkpt lat="42.7439217" lon="13.238349"><ele>1002.0</ele><time>2026-04-26T10:53:22.027Z</time></trkpt><trkpt lat="42.7437577" lon="13.2383438"><ele>1002.0</ele><time>2026-04-26T10:53:23.028Z</time></trkpt><trkpt lat="42.7435994" lon="13.238373"><ele>1002.0</ele><time>2026-04-26T10:53:24.027Z</time></trkpt><trkpt lat="42.7434394" lon="13.2384186"><ele>995.6666666666667</ele><time>2026-04-26T10:53:25.027Z</time></trkpt><trkpt lat="42.7432807" lon="13.2385206"><ele>989.3333333333334</ele><time>2026-04-26T10:53:26.027Z</time></trkpt><trkpt lat="42.7430998" lon="13.2386504"><ele>983.0</ele><time>2026-04-26T10:53:27.027Z</time></trkpt><trkpt lat="42.7428963" lon="13.2387015"><ele>979.0</ele><time>2026-04-26T10:53:28.027Z</time></trkpt><trkpt lat="42.7426897" lon="13.2387097"><ele>975.0</ele><time>2026-04-26T10:53:29.028Z</time></trkpt><trkpt lat="42.7425127" lon="13.2387164"><ele>971.0</ele><time>2026-04-26T10:53:30.027Z</time></trkpt><trkpt lat="42.7423643" lon="13.2387199"><ele>971.0</ele><time>2026-04-26T10:53:31.027Z</time></trkpt><trkpt lat="42.7422392" lon="13.2387301"><ele>970.9999999999999</ele><time>2026-04-26T10:53:32.027Z</time></trkpt><trkpt lat="42.7421307" lon="13.238738"><ele>970.9999999999999</ele><time>2026-04-26T10:53:33.027Z</time></trkpt><trkpt lat="42.7420453" lon="13.2387486"><ele>971.0</ele><time>2026-04-26T10:53:34.027Z</time></trkpt><trkpt lat="42.7419534" lon="13.2387374"><ele>971.0</ele><time>2026-04-26T10:53:36.027Z</time></trkpt><trkpt lat="42.7418887" lon="13.2387476"><ele>969.6666666666667</ele><time>2026-04-26T10:57:52.034Z</time></trkpt><trkpt lat="42.7418032" lon="13.2387647"><ele>968.3333333333334</ele><time>2026-04-26T10:57:55.034Z</time></trkpt><trkpt lat="42.7417446" lon="13.2387287"><ele>967.0</ele><time>2026-04-26T10:58:03.035Z</time></trkpt><trkpt lat="42.7416454" lon="13.2387138"><ele>965.6666666666667</ele><time>2026-04-26T10:58:05.035Z</time></trkpt><trkpt lat="42.7415787" lon="13.2387143"><ele>964.3333333333334</ele><time>2026-04-26T10:58:06.034Z</time></trkpt><trkpt lat="42.7415009" lon="13.2387283"><ele>963.0</ele><time>2026-04-26T10:58:07.034Z</time></trkpt><trkpt lat="42.7414213" lon="13.2387507"><ele>963.0</ele><time>2026-04-26T10:58:08.034Z</time></trkpt><trkpt lat="42.7413397" lon="13.2387779"><ele>963.0</ele><time>2026-04-26T10:58:09.034Z</time></trkpt><trkpt lat="42.7412533" lon="13.2388006"><ele>963.0</ele><time>2026-04-26T10:58:10.034Z</time></trkpt><trkpt lat="42.7411681" lon="13.2388319"><ele>963.0</ele><time>2026-04-26T10:58:11.034Z</time></trkpt><trkpt lat="42.7410851" lon="13.2388836"><ele>963.0</ele><time>2026-04-26T10:58:12.035Z</time></trkpt><trkpt lat="42.7410069" lon="13.2389591"><ele>963.0</ele><time>2026-04-26T10:58:13.034Z</time></trkpt><trkpt lat="42.740932" lon="13.2390411"><ele>963.4</ele><time>2026-04-26T10:58:14.034Z</time></trkpt><trkpt lat="42.7408613" lon="13.2391234"><ele>963.8</ele><time>2026-04-26T10:58:15.034Z</time></trkpt><trkpt lat="42.7407889" lon="13.2392028"><ele>964.2</ele><time>2026-04-26T10:58:16.034Z</time></trkpt><trkpt lat="42.7407209" lon="13.2392945"><ele>964.6</ele><time>2026-04-26T10:58:17.035Z</time></trkpt><trkpt lat="42.7406525" lon="13.2393987"><ele>965.0</ele><time>2026-04-26T10:58:18.034Z</time></trkpt><trkpt lat="42.7406194" lon="13.2395455"><ele>965.0</ele><time>2026-04-26T10:58:19.034Z</time></trkpt><trkpt lat="42.7406036" lon="13.2397257"><ele>965.0</ele><time>2026-04-26T10:58:20.034Z</time></trkpt><trkpt lat="42.740592" lon="13.2399295"><ele>965.0</ele><time>2026-04-26T10:58:21.034Z</time></trkpt><trkpt lat="42.7405822" lon="13.2401441"><ele>965.0</ele><time>2026-04-26T10:58:22.034Z</time></trkpt><trkpt lat="42.7405534" lon="13.240355"><ele>971.0</ele><time>2026-04-26T10:58:23.034Z</time></trkpt><trkpt lat="42.7405114" lon="13.2405644"><ele>977.0</ele><time>2026-04-26T10:58:24.034Z</time></trkpt><trkpt lat="42.7404647" lon="13.2407567"><ele>983.0</ele><time>2026-04-26T10:58:25.034Z</time></trkpt><trkpt lat="42.7404068" lon="13.2409447"><ele>987.0</ele><time>2026-04-26T10:58:26.035Z</time></trkpt><trkpt lat="42.7403395" lon="13.241122"><ele>991.0</ele><time>2026-04-26T10:58:27.034Z</time></trkpt><trkpt lat="42.7402664" lon="13.241291"><ele>995.0</ele><time>2026-04-26T10:58:28.034Z</time></trkpt><trkpt lat="42.7401937" lon="13.241462"><ele>999.0</ele><time>2026-04-26T10:58:29.034Z</time></trkpt><trkpt lat="42.7401141" lon="13.2416302"><ele>988.25</ele><time>2026-04-26T10:58:30.034Z</time></trkpt><trkpt lat="42.7400303" lon="13.2417891"><ele>977.5</ele><time>2026-04-26T10:58:31.035Z</time></trkpt><trkpt lat="42.7399437" lon="13.2419319"><ele>966.75</ele><time>2026-04-26T10:58:32.034Z</time></trkpt><trkpt lat="42.7398467" lon="13.2420555"><ele>956.0</ele><time>2026-04-26T10:58:33.035Z</time></trkpt><trkpt lat="42.7397443" lon="13.242155"><ele>956.0</ele><time>2026-04-26T10:58:34.034Z</time></trkpt><trkpt lat="42.7396387" lon="13.2422409"><ele>956.0</ele><time>2026-04-26T10:58:35.035Z</time></trkpt><trkpt lat="42.7395371" lon="13.2423274"><ele>956.0</ele><time>2026-04-26T10:58:36.034Z</time></trkpt><trkpt lat="42.7394596" lon="13.2424447"><ele>956.0</ele><time>2026-04-26T10:58:37.034Z</time></trkpt><trkpt lat="42.7394037" lon="13.2425548"><ele>951.25</ele><time>2026-04-26T10:58:38.034Z</time></trkpt><trkpt lat="42.7393711" lon="13.2426914"><ele>946.5</ele><time>2026-04-26T10:58:39.034Z</time></trkpt><trkpt lat="42.7393558" lon="13.2428636"><ele>941.75</ele><time>2026-04-26T10:58:40.034Z</time></trkpt><trkpt lat="42.7393527" lon="13.2430818"><ele>937.0</ele><time>2026-04-26T10:58:41.034Z</time></trkpt><trkpt lat="42.7393452" lon="13.2433277"><ele>937.0</ele><time>2026-04-26T10:58:42.034Z</time></trkpt><trkpt lat="42.7393284" lon="13.243571"><ele>937.0</ele><time>2026-04-26T10:58:43.034Z</time></trkpt><trkpt lat="42.7393049" lon="13.2438162"><ele>937.0</ele><time>2026-04-26T10:58:44.034Z</time></trkpt><trkpt lat="42.7392751" lon="13.244059"><ele>936.6666666666666</ele><time>2026-04-26T10:58:45.034Z</time></trkpt><trkpt lat="42.7392501" lon="13.24429"><ele>936.3333333333333</ele><time>2026-04-26T10:58:46.034Z</time></trkpt><trkpt lat="42.7392279" lon="13.2444996"><ele>936.0</ele><time>2026-04-26T10:58:47.035Z</time></trkpt><trkpt lat="42.739209" lon="13.2447021"><ele>939.25</ele><time>2026-04-26T10:58:48.034Z</time></trkpt><trkpt lat="42.7391923" lon="13.2448942"><ele>942.5</ele><time>2026-04-26T10:58:49.034Z</time></trkpt><trkpt lat="42.7391742" lon="13.2450831"><ele>945.75</ele><time>2026-04-26T10:58:50.034Z</time></trkpt><trkpt lat="42.7391579" lon="13.2452702"><ele>949.0</ele><time>2026-04-26T10:58:51.034Z</time></trkpt><trkpt lat="42.7391403" lon="13.245458"><ele>951.3333333333333</ele><time>2026-04-26T10:58:52.034Z</time></trkpt><trkpt lat="42.7391158" lon="13.245676"><ele>953.6666666666667</ele><time>2026-04-26T10:58:53.035Z</time></trkpt><trkpt lat="42.73909" lon="13.2459017"><ele>956.0</ele><time>2026-04-26T10:58:54.034Z</time></trkpt><trkpt lat="42.7390672" lon="13.2461352"><ele>956.0</ele><time>2026-04-26T10:58:55.034Z</time></trkpt><trkpt lat="42.7390512" lon="13.2463838"><ele>956.0</ele><time>2026-04-26T10:58:56.034Z</time></trkpt><trkpt lat="42.7390418" lon="13.2466437"><ele>956.0</ele><time>2026-04-26T10:58:57.035Z</time></trkpt><trkpt lat="42.7390322" lon="13.2469158"><ele>955.3333333333334</ele><time>2026-04-26T10:58:58.034Z</time></trkpt><trkpt lat="42.7390254" lon="13.2471992"><ele>954.6666666666667</ele><time>2026-04-26T10:58:59.034Z</time></trkpt><trkpt lat="42.7390297" lon="13.2474952"><ele>954.0</ele><time>2026-04-26T10:59:00.034Z</time></trkpt><trkpt lat="42.7390408" lon="13.2477906"><ele>950.6666666666667</ele><time>2026-04-26T10:59:01.034Z</time></trkpt><trkpt lat="42.7390555" lon="13.2480917"><ele>947.3333333333334</ele><time>2026-04-26T10:59:02.034Z</time></trkpt><trkpt lat="42.7390781" lon="13.2483944"><ele>944.0</ele><time>2026-04-26T10:59:03.034Z</time></trkpt><trkpt lat="42.7391089" lon="13.2486942"><ele>941.5</ele><time>2026-04-26T10:59:04.034Z</time></trkpt><trkpt lat="42.739146" lon="13.2489974"><ele>939.0</ele><time>2026-04-26T10:59:05.034Z</time></trkpt><trkpt lat="42.7391965" lon="13.2493024"><ele>939.0</ele><time>2026-04-26T10:59:06.034Z</time></trkpt><trkpt lat="42.7392472" lon="13.249601"><ele>939.0</ele><time>2026-04-26T10:59:07.035Z</time></trkpt><trkpt lat="42.7394384" lon="13.2506372"><ele>942.0</ele><time>2026-04-26T10:59:10.034Z</time></trkpt><trkpt lat="42.7395487" lon="13.2509852"><ele>945.0</ele><time>2026-04-26T10:59:11.034Z</time></trkpt><trkpt lat="42.7396128" lon="13.2513717"><ele>934.5</ele><time>2026-04-26T10:59:12.034Z</time></trkpt><trkpt lat="42.739721" lon="13.2516918"><ele>924.0</ele><time>2026-04-26T10:59:13.034Z</time></trkpt><trkpt lat="42.7398201" lon="13.2519973"><ele>919.0</ele><time>2026-04-26T10:59:14.034Z</time></trkpt><trkpt lat="42.7399035" lon="13.2523415"><ele>914.0</ele><time>2026-04-26T10:59:15.034Z</time></trkpt><trkpt lat="42.7399792" lon="13.2526807"><ele>914.0</ele><time>2026-04-26T10:59:16.035Z</time></trkpt><trkpt lat="42.7400532" lon="13.2530055"><ele>914.0</ele><time>2026-04-26T10:59:17.034Z</time></trkpt><trkpt lat="42.7401337" lon="13.2533251"><ele>925.0</ele><time>2026-04-26T10:59:18.035Z</time></trkpt><trkpt lat="42.7402188" lon="13.2536427"><ele>936.0</ele><time>2026-04-26T10:59:19.034Z</time></trkpt><trkpt lat="42.7403128" lon="13.2539649"><ele>936.0</ele><time>2026-04-26T10:59:20.034Z</time></trkpt><trkpt lat="42.7404138" lon="13.2542722"><ele>936.0</ele><time>2026-04-26T10:59:21.035Z</time></trkpt><trkpt lat="42.7405218" lon="13.2545719"><ele>935.5</ele><time>2026-04-26T10:59:22.035Z</time></trkpt><trkpt lat="42.7406362" lon="13.2548652"><ele>935.0</ele><time>2026-04-26T10:59:23.034Z</time></trkpt><trkpt lat="42.7412449" lon="13.25612"><ele>928.5</ele><time>2026-04-26T10:59:27.035Z</time></trkpt><trkpt lat="42.7414358" lon="13.2563956"><ele>922.0</ele><time>2026-04-26T10:59:28.034Z</time></trkpt><trkpt lat="42.741621" lon="13.2566843"><ele>918.0</ele><time>2026-04-26T10:59:29.034Z</time></trkpt><trkpt lat="42.7418163" lon="13.2569673"><ele>914.0</ele><time>2026-04-26T10:59:30.035Z</time></trkpt><trkpt lat="42.7420197" lon="13.2572536"><ele>898.0</ele><time>2026-04-26T10:59:31.035Z</time></trkpt><trkpt lat="42.7422234" lon="13.2575426"><ele>882.0</ele><time>2026-04-26T10:59:32.035Z</time></trkpt><trkpt lat="42.7424303" lon="13.2578345"><ele>883.5</ele><time>2026-04-26T10:59:33.034Z</time></trkpt><trkpt lat="42.7426267" lon="13.2581208"><ele>885.0</ele><time>2026-04-26T10:59:34.035Z</time></trkpt><trkpt lat="42.7428277" lon="13.2584088"><ele>885.0</ele><time>2026-04-26T10:59:35.034Z</time></trkpt><trkpt lat="42.7430318" lon="13.2587056"><ele>885.0</ele><time>2026-04-26T10:59:36.034Z</time></trkpt><trkpt lat="42.7432304" lon="13.2589927"><ele>886.5</ele><time>2026-04-26T10:59:37.034Z</time></trkpt><trkpt lat="42.7434296" lon="13.2592726"><ele>888.0</ele><time>2026-04-26T10:59:38.034Z</time></trkpt><trkpt lat="42.7436219" lon="13.2595496"><ele>874.0</ele><time>2026-04-26T10:59:39.034Z</time></trkpt><trkpt lat="42.7438078" lon="13.259813"><ele>860.0</ele><time>2026-04-26T10:59:40.035Z</time></trkpt><trkpt lat="42.7439846" lon="13.2600691"><ele>860.0</ele><time>2026-04-26T10:59:41.035Z</time></trkpt><trkpt lat="42.7441385" lon="13.2602754"><ele>860.0</ele><time>2026-04-26T10:59:42.035Z</time></trkpt><trkpt lat="42.7442765" lon="13.2604556"><ele>860.0</ele><time>2026-04-26T10:59:43.034Z</time></trkpt><trkpt lat="42.7444212" lon="13.2606241"><ele>859.6666666666667</ele><time>2026-04-26T10:59:44.034Z</time></trkpt><trkpt lat="42.7445706" lon="13.2607937"><ele>859.3333333333333</ele><time>2026-04-26T10:59:45.034Z</time></trkpt><trkpt lat="42.7447244" lon="13.2609585"><ele>859.0</ele><time>2026-04-26T10:59:46.034Z</time></trkpt><trkpt lat="42.7448855" lon="13.2611196"><ele>859.0</ele><time>2026-04-26T10:59:47.034Z</time></trkpt><trkpt lat="42.7450615" lon="13.2612852"><ele>859.0</ele><time>2026-04-26T10:59:48.034Z</time></trkpt><trkpt lat="42.7452492" lon="13.2614685"><ele>859.0</ele><time>2026-04-26T10:59:49.034Z</time></trkpt><trkpt lat="42.7454514" lon="13.2616624"><ele>857.5</ele><time>2026-04-26T10:59:50.034Z</time></trkpt><trkpt lat="42.7456608" lon="13.2618564"><ele>856.0</ele><time>2026-04-26T10:59:51.034Z</time></trkpt><trkpt lat="42.7458679" lon="13.2620505"><ele>850.0</ele><time>2026-04-26T10:59:52.034Z</time></trkpt><trkpt lat="42.7460845" lon="13.2622507"><ele>844.0</ele><time>2026-04-26T10:59:53.034Z</time></trkpt><trkpt lat="42.7463075" lon="13.2624544"><ele>844.0</ele><time>2026-04-26T10:59:54.035Z</time></trkpt><trkpt lat="42.7465322" lon="13.262659"><ele>844.0</ele><time>2026-04-26T10:59:55.035Z</time></trkpt><trkpt lat="42.746756" lon="13.2628534"><ele>841.0</ele><time>2026-04-26T10:59:56.035Z</time></trkpt><trkpt lat="42.7469751" lon="13.2630556"><ele>838.0</ele><time>2026-04-26T10:59:57.034Z</time></trkpt><trkpt lat="42.7471928" lon="13.2632611"><ele>838.0</ele><time>2026-04-26T10:59:58.034Z</time></trkpt><trkpt lat="42.7474025" lon="13.263461"><ele>838.0</ele><time>2026-04-26T10:59:59.034Z</time></trkpt><trkpt lat="42.7475975" lon="13.2636418"><ele>845.5</ele><time>2026-04-26T11:00:00.035Z</time></trkpt><trkpt lat="42.7477905" lon="13.2638164"><ele>853.0</ele><time>2026-04-26T11:00:01.034Z</time></trkpt><trkpt lat="42.7479777" lon="13.2639951"><ele>825.0</ele><time>2026-04-26T11:00:02.035Z</time></trkpt><trkpt lat="42.7499988" lon="13.2658093"><ele>831.0</ele><time>2026-04-26T11:00:11.034Z</time></trkpt><trkpt lat="42.7502142" lon="13.2660191"><ele>837.0</ele><time>2026-04-26T11:00:12.034Z</time></trkpt><trkpt lat="42.7504316" lon="13.2662197"><ele>837.0</ele><time>2026-04-26T11:00:13.034Z</time></trkpt><trkpt lat="42.7506348" lon="13.2664199"><ele>837.0</ele><time>2026-04-26T11:00:14.034Z</time></trkpt><trkpt lat="42.750841" lon="13.2666171"><ele>830.5</ele><time>2026-04-26T11:00:15.034Z</time></trkpt><trkpt lat="42.7510512" lon="13.2668176"><ele>824.0</ele><time>2026-04-26T11:00:16.034Z</time></trkpt><trkpt lat="42.7512661" lon="13.2670332"><ele>824.0</ele><time>2026-04-26T11:00:17.035Z</time></trkpt><trkpt lat="42.751466" lon="13.2672621"><ele>824.0</ele><time>2026-04-26T11:00:18.034Z</time></trkpt><trkpt lat="42.7516556" lon="13.2674998"><ele>815.0</ele><time>2026-04-26T11:00:19.035Z</time></trkpt><trkpt lat="42.7518332" lon="13.2677543"><ele>806.0</ele><time>2026-04-26T11:00:20.034Z</time></trkpt><trkpt lat="42.752011" lon="13.2680287"><ele>793.5</ele><time>2026-04-26T11:00:21.034Z</time></trkpt><trkpt lat="42.75218" lon="13.2683163"><ele>781.0</ele><time>2026-04-26T11:00:22.035Z</time></trkpt><trkpt lat="42.7523406" lon="13.2686267"><ele>772.0</ele><time>2026-04-26T11:00:23.034Z</time></trkpt><trkpt lat="42.7524926" lon="13.2689461"><ele>763.0</ele><time>2026-04-26T11:00:24.034Z</time></trkpt><trkpt lat="42.7526376" lon="13.269278"><ele>783.5</ele><time>2026-04-26T11:00:25.034Z</time></trkpt><trkpt lat="42.7527721" lon="13.2696188"><ele>804.0</ele><time>2026-04-26T11:00:26.034Z</time></trkpt><trkpt lat="42.7529002" lon="13.2699673"><ele>804.0</ele><time>2026-04-26T11:00:27.034Z</time></trkpt><trkpt lat="42.7530241" lon="13.2703104"><ele>804.0</ele><time>2026-04-26T11:00:28.034Z</time></trkpt><trkpt lat="42.7531479" lon="13.2706542"><ele>801.0</ele><time>2026-04-26T11:00:29.034Z</time></trkpt><trkpt lat="42.7532782" lon="13.2710089"><ele>798.0</ele><time>2026-04-26T11:00:30.034Z</time></trkpt><trkpt lat="42.753414" lon="13.2713505"><ele>809.5</ele><time>2026-04-26T11:00:31.034Z</time></trkpt><trkpt lat="42.7535415" lon="13.2716936"><ele>821.0</ele><time>2026-04-26T11:00:32.034Z</time></trkpt><trkpt lat="42.7536977" lon="13.2720335"><ele>809.0</ele><time>2026-04-26T11:00:33.035Z</time></trkpt><trkpt lat="42.7538542" lon="13.2723749"><ele>797.0</ele><time>2026-04-26T11:00:34.034Z</time></trkpt><trkpt lat="42.7540236" lon="13.272699"><ele>789.0</ele><time>2026-04-26T11:00:35.035Z</time></trkpt><trkpt lat="42.7545403" lon="13.2736651"><ele>774.5</ele><time>2026-04-26T11:00:38.035Z</time></trkpt><trkpt lat="42.7546757" lon="13.2740114"><ele>760.0</ele><time>2026-04-26T11:00:39.034Z</time></trkpt><trkpt lat="42.7548359" lon="13.274354"><ele>760.0</ele><time>2026-04-26T11:00:40.034Z</time></trkpt><trkpt lat="42.7550069" lon="13.2746698"><ele>760.0</ele><time>2026-04-26T11:00:41.034Z</time></trkpt><trkpt lat="42.7551752" lon="13.2749905"><ele>757.0</ele><time>2026-04-26T11:00:42.034Z</time></trkpt><trkpt lat="42.7553401" lon="13.2753083"><ele>754.0</ele><time>2026-04-26T11:00:43.035Z</time></trkpt><trkpt lat="42.7555066" lon="13.2756245"><ele>754.0</ele><time>2026-04-26T11:00:44.034Z</time></trkpt><trkpt lat="42.7556572" lon="13.2759405"><ele>754.0</ele><time>2026-04-26T11:00:45.034Z</time></trkpt><trkpt lat="42.7558167" lon="13.2762512"><ele>759.0</ele><time>2026-04-26T11:00:46.034Z</time></trkpt><trkpt lat="42.7559691" lon="13.2765555"><ele>764.0</ele><time>2026-04-26T11:00:47.034Z</time></trkpt><trkpt lat="42.7561136" lon="13.276855"><ele>764.0</ele><time>2026-04-26T11:00:48.034Z</time></trkpt><trkpt lat="42.7562596" lon="13.2771479"><ele>764.0</ele><time>2026-04-26T11:00:49.035Z</time></trkpt><trkpt lat="42.7564102" lon="13.2774289"><ele>753.5</ele><time>2026-04-26T11:00:50.034Z</time></trkpt><trkpt lat="42.7565578" lon="13.2776872"><ele>743.0</ele><time>2026-04-26T11:00:51.034Z</time></trkpt><trkpt lat="42.756712" lon="13.2779349"><ele>750.0</ele><time>2026-04-26T11:00:52.035Z</time></trkpt><trkpt lat="42.7568769" lon="13.2781666"><ele>757.0</ele><time>2026-04-26T11:00:53.035Z</time></trkpt><trkpt lat="42.7570498" lon="13.2783881"><ele>757.0</ele><time>2026-04-26T11:00:54.034Z</time></trkpt><trkpt lat="42.7572485" lon="13.2785875"><ele>757.0</ele><time>2026-04-26T11:00:55.034Z</time></trkpt><trkpt lat="42.7574587" lon="13.2787709"><ele>753.0</ele><time>2026-04-26T11:00:56.035Z</time></trkpt><trkpt lat="42.757682" lon="13.2789419"><ele>749.0</ele><time>2026-04-26T11:00:57.035Z</time></trkpt><trkpt lat="42.7579057" lon="13.279104"><ele>749.0</ele><time>2026-04-26T11:00:58.034Z</time></trkpt><trkpt lat="42.7581328" lon="13.2792545"><ele>749.0</ele><time>2026-04-26T11:00:59.034Z</time></trkpt><trkpt lat="42.7583589" lon="13.2794099"><ele>751.5</ele><time>2026-04-26T11:01:00.035Z</time></trkpt><trkpt lat="42.758573" lon="13.279569"><ele>754.0</ele><time>2026-04-26T11:01:01.034Z</time></trkpt><trkpt lat="42.7587699" lon="13.2797292"><ele>747.6666666666667</ele><time>2026-04-26T11:01:02.035Z</time></trkpt><trkpt lat="42.7589537" lon="13.2798959"><ele>741.3333333333334</ele><time>2026-04-26T11:01:03.034Z</time></trkpt><trkpt lat="42.759132" lon="13.2800872"><ele>735.0</ele><time>2026-04-26T11:01:04.034Z</time></trkpt><trkpt lat="42.7592949" lon="13.2803101"><ele>740.0</ele><time>2026-04-26T11:01:05.034Z</time></trkpt><trkpt lat="42.7598337" lon="13.2810226"><ele>740.0</ele><time>2026-04-26T11:01:08.035Z</time></trkpt><trkpt lat="42.7599585" lon="13.2812512"><ele>740.0</ele><time>2026-04-26T11:01:09.034Z</time></trkpt><trkpt lat="42.7601319" lon="13.2815119"><ele>732.0</ele><time>2026-04-26T11:01:10.035Z</time></trkpt><trkpt lat="42.7603081" lon="13.2817763"><ele>724.0</ele><time>2026-04-26T11:01:11.034Z</time></trkpt><trkpt lat="42.7604771" lon="13.2820454"><ele>720.5</ele><time>2026-04-26T11:01:12.034Z</time></trkpt><trkpt lat="42.7606511" lon="13.2822958"><ele>717.0</ele><time>2026-04-26T11:01:13.034Z</time></trkpt><trkpt lat="42.7608327" lon="13.2825252"><ele>717.0</ele><time>2026-04-26T11:01:14.034Z</time></trkpt><trkpt lat="42.7610127" lon="13.2827512"><ele>717.0</ele><time>2026-04-26T11:01:15.034Z</time></trkpt><trkpt lat="42.7612101" lon="13.2829587"><ele>722.0</ele><time>2026-04-26T11:01:16.034Z</time></trkpt><trkpt lat="42.76239" lon="13.2836971"><ele>722.0</ele><time>2026-04-26T11:01:21.034Z</time></trkpt><trkpt lat="42.7626817" lon="13.2839121"><ele>722.0</ele><time>2026-04-26T11:01:22.035Z</time></trkpt><trkpt lat="42.7629208" lon="13.284035"><ele>709.5</ele><time>2026-04-26T11:01:23.034Z</time></trkpt><trkpt lat="42.7631618" lon="13.284169"><ele>697.0</ele><time>2026-04-26T11:01:24.034Z</time></trkpt><trkpt lat="42.7634104" lon="13.2843038"><ele>701.0</ele><time>2026-04-26T11:01:25.034Z</time></trkpt><trkpt lat="42.7636488" lon="13.2844449"><ele>705.0</ele><time>2026-04-26T11:01:26.034Z</time></trkpt><trkpt lat="42.7638883" lon="13.2845948"><ele>705.0</ele><time>2026-04-26T11:01:27.034Z</time></trkpt><trkpt lat="42.7641269" lon="13.284753"><ele>705.0</ele><time>2026-04-26T11:01:28.035Z</time></trkpt><trkpt lat="42.7643637" lon="13.2849322"><ele>702.5</ele><time>2026-04-26T11:01:29.034Z</time></trkpt><trkpt lat="42.7645813" lon="13.2851421"><ele>700.0</ele><time>2026-04-26T11:01:30.034Z</time></trkpt><trkpt lat="42.7647925" lon="13.28537"><ele>684.5</ele><time>2026-04-26T11:01:31.034Z</time></trkpt><trkpt lat="42.7649967" lon="13.285622"><ele>669.0</ele><time>2026-04-26T11:01:32.034Z</time></trkpt><trkpt lat="42.7651806" lon="13.2858933"><ele>685.0</ele><time>2026-04-26T11:01:33.034Z</time></trkpt><trkpt lat="42.7653561" lon="13.2861634"><ele>701.0</ele><time>2026-04-26T11:01:34.035Z</time></trkpt><trkpt lat="42.7655217" lon="13.2864152"><ele>693.5</ele><time>2026-04-26T11:01:35.034Z</time></trkpt><trkpt lat="42.7656794" lon="13.2866581"><ele>686.0</ele><time>2026-04-26T11:01:36.034Z</time></trkpt><trkpt lat="42.7658393" lon="13.2868955"><ele>686.0</ele><time>2026-04-26T11:01:37.034Z</time></trkpt><trkpt lat="42.7659866" lon="13.287121"><ele>686.0</ele><time>2026-04-26T11:01:38.035Z</time></trkpt><trkpt lat="42.7661247" lon="13.2873386"><ele>686.0</ele><time>2026-04-26T11:01:39.034Z</time></trkpt><trkpt lat="42.7662577" lon="13.2875503"><ele>687.3333333333333</ele><time>2026-04-26T11:01:40.034Z</time></trkpt><trkpt lat="42.7663898" lon="13.2877527"><ele>688.6666666666666</ele><time>2026-04-26T11:01:41.034Z</time></trkpt><trkpt lat="42.7665144" lon="13.2879504"><ele>690.0</ele><time>2026-04-26T11:01:42.034Z</time></trkpt><trkpt lat="42.766636" lon="13.2881366"><ele>684.0</ele><time>2026-04-26T11:01:43.034Z</time></trkpt><trkpt lat="42.766758" lon="13.2883179"><ele>678.0</ele><time>2026-04-26T11:01:44.035Z</time></trkpt><trkpt lat="42.7668662" lon="13.2884871"><ele>672.0</ele><time>2026-04-26T11:01:45.034Z</time></trkpt><trkpt lat="42.7669674" lon="13.2886476"><ele>672.0</ele><time>2026-04-26T11:01:46.034Z</time></trkpt><trkpt lat="42.7670577" lon="13.2887896"><ele>672.0</ele><time>2026-04-26T11:01:47.034Z</time></trkpt><trkpt lat="42.7671222" lon="13.2889249"><ele>672.0</ele><time>2026-04-26T11:01:48.034Z</time></trkpt><trkpt lat="42.7671633" lon="13.289052"><ele>672.0</ele><time>2026-04-26T11:01:49.034Z</time></trkpt><trkpt lat="42.7671721" lon="13.2891814"><ele>669.6</ele><time>2026-04-26T11:01:50.034Z</time></trkpt><trkpt lat="42.7671393" lon="13.2892998"><ele>667.2</ele><time>2026-04-26T11:01:51.034Z</time></trkpt><trkpt lat="42.7670717" lon="13.289386"><ele>664.8</ele><time>2026-04-26T11:01:52.034Z</time></trkpt><trkpt lat="42.7669888" lon="13.289434"><ele>662.4</ele><time>2026-04-26T11:01:53.034Z</time></trkpt><trkpt lat="42.7668924" lon="13.289428"><ele>660.0</ele><time>2026-04-26T11:01:54.035Z</time></trkpt><trkpt lat="42.766806" lon="13.2893668"><ele>659.6</ele><time>2026-04-26T11:01:55.035Z</time></trkpt><trkpt lat="42.7667414" lon="13.2892745"><ele>659.2</ele><time>2026-04-26T11:01:56.034Z</time></trkpt><trkpt lat="42.7666945" lon="13.2891669"><ele>658.8</ele><time>2026-04-26T11:01:57.034Z</time></trkpt><trkpt lat="42.766652" lon="13.2890604"><ele>658.4</ele><time>2026-04-26T11:01:58.034Z</time></trkpt><trkpt lat="42.7666123" lon="13.2889514"><ele>658.0</ele><time>2026-04-26T11:01:59.035Z</time></trkpt><trkpt lat="42.7665644" lon="13.2888538"><ele>658.0</ele><time>2026-04-26T11:02:00.035Z</time></trkpt><trkpt lat="42.7665132" lon="13.288754"><ele>658.0</ele><time>2026-04-26T11:02:01.034Z</time></trkpt><trkpt lat="42.766461" lon="13.2886628"><ele>658.0</ele><time>2026-04-26T11:02:02.034Z</time></trkpt><trkpt lat="42.766409" lon="13.2885789"><ele>658.0</ele><time>2026-04-26T11:02:03.034Z</time></trkpt><trkpt lat="42.7663429" lon="13.2884918"><ele>658.0</ele><time>2026-04-26T11:02:04.034Z</time></trkpt><trkpt lat="42.7662545" lon="13.2884077"><ele>658.0</ele><time>2026-04-26T11:02:05.034Z</time></trkpt><trkpt lat="42.7661435" lon="13.2883328"><ele>658.0</ele><time>2026-04-26T11:02:06.035Z</time></trkpt><trkpt lat="42.7660265" lon="13.2882765"><ele>658.0</ele><time>2026-04-26T11:02:07.034Z</time></trkpt><trkpt lat="42.7659162" lon="13.2882323"><ele>658.0</ele><time>2026-04-26T11:02:08.034Z</time></trkpt><trkpt lat="42.765805" lon="13.2881848"><ele>659.2</ele><time>2026-04-26T11:02:09.034Z</time></trkpt><trkpt lat="42.7656945" lon="13.2881325"><ele>660.4</ele><time>2026-04-26T11:02:10.034Z</time></trkpt><trkpt lat="42.7655899" lon="13.2880743"><ele>661.6</ele><time>2026-04-26T11:02:11.034Z</time></trkpt><trkpt lat="42.7654993" lon="13.2880111"><ele>662.8000000000001</ele><time>2026-04-26T11:02:12.034Z</time></trkpt><trkpt lat="42.7654119" lon="13.2879374"><ele>664.0</ele><time>2026-04-26T11:02:13.034Z</time></trkpt><trkpt lat="42.7653325" lon="13.2878663"><ele>664.0</ele><time>2026-04-26T11:02:14.034Z</time></trkpt><trkpt lat="42.7652663" lon="13.2878075"><ele>664.0</ele><time>2026-04-26T11:02:15.035Z</time></trkpt><trkpt lat="42.765174" lon="13.2877244"><ele>664.0</ele><time>2026-04-26T11:02:17.034Z</time></trkpt><trkpt lat="42.7651123" lon="13.2876742"><ele>664.0</ele><time>2026-04-26T11:03:15.034Z</time></trkpt><trkpt lat="42.7649667" lon="13.2875785"><ele>664.0</ele><time>2026-04-26T11:03:17.034Z</time></trkpt><trkpt lat="42.7648757" lon="13.2875097"><ele>661.25</ele><time>2026-04-26T11:03:18.034Z</time></trkpt><trkpt lat="42.7647736" lon="13.287431"><ele>658.5</ele><time>2026-04-26T11:03:19.034Z</time></trkpt><trkpt lat="42.7646662" lon="13.2873258"><ele>655.75</ele><time>2026-04-26T11:03:20.034Z</time></trkpt><trkpt lat="42.764537" lon="13.2871978"><ele>653.0</ele><time>2026-04-26T11:03:21.034Z</time></trkpt><trkpt lat="42.7643959" lon="13.2870688"><ele>648.3333333333333</ele><time>2026-04-26T11:03:22.034Z</time></trkpt><trkpt lat="42.7642414" lon="13.2869174"><ele>643.6666666666666</ele><time>2026-04-26T11:03:23.035Z</time></trkpt><trkpt lat="42.7640727" lon="13.2867626"><ele>639.0</ele><time>2026-04-26T11:03:24.034Z</time></trkpt><trkpt lat="42.7638978" lon="13.2865971"><ele>639.0</ele><time>2026-04-26T11:03:25.034Z</time></trkpt><trkpt lat="42.7637128" lon="13.2864338"><ele>639.0</ele><time>2026-04-26T11:03:26.034Z</time></trkpt><trkpt lat="42.7635181" lon="13.2862889"><ele>639.0</ele><time>2026-04-26T11:03:27.034Z</time></trkpt><trkpt lat="42.763316" lon="13.2861593"><ele>640.0</ele><time>2026-04-26T11:03:28.035Z</time></trkpt><trkpt lat="42.7630994" lon="13.286037"><ele>641.0</ele><time>2026-04-26T11:03:29.035Z</time></trkpt><trkpt lat="42.7628792" lon="13.2859272"><ele>641.0</ele><time>2026-04-26T11:03:30.034Z</time></trkpt><trkpt lat="42.7626504" lon="13.285827"><ele>641.0</ele><time>2026-04-26T11:03:31.035Z</time></trkpt><trkpt lat="42.762417" lon="13.2857481"><ele>641.0</ele><time>2026-04-26T11:03:32.035Z</time></trkpt><trkpt lat="42.7621658" lon="13.285676"><ele>641.0</ele><time>2026-04-26T11:03:33.034Z</time></trkpt><trkpt lat="42.761909" lon="13.2855977"><ele>645.0</ele><time>2026-04-26T11:03:34.034Z</time></trkpt><trkpt lat="42.7616517" lon="13.2855226"><ele>649.0</ele><time>2026-04-26T11:03:35.034Z</time></trkpt><trkpt lat="42.761393" lon="13.2854473"><ele>649.0</ele><time>2026-04-26T11:03:36.034Z</time></trkpt><trkpt lat="42.7611353" lon="13.2853676"><ele>649.0</ele><time>2026-04-26T11:03:37.034Z</time></trkpt><trkpt lat="42.7608886" lon="13.2852934"><ele>648.0</ele><time>2026-04-26T11:03:38.034Z</time></trkpt><trkpt lat="42.760642" lon="13.2852102"><ele>647.0</ele><time>2026-04-26T11:03:39.034Z</time></trkpt><trkpt lat="42.7603944" lon="13.2851258"><ele>645.0</ele><time>2026-04-26T11:03:40.034Z</time></trkpt><trkpt lat="42.7601474" lon="13.2850334"><ele>643.0</ele><time>2026-04-26T11:03:41.034Z</time></trkpt><trkpt lat="42.7599062" lon="13.2849177"><ele>643.0</ele><time>2026-04-26T11:03:42.034Z</time></trkpt><trkpt lat="42.7596641" lon="13.2847824"><ele>643.0</ele><time>2026-04-26T11:03:43.039Z</time></trkpt><trkpt lat="42.7594225" lon="13.2846311"><ele>647.5</ele><time>2026-04-26T11:03:44.039Z</time></trkpt><trkpt lat="42.7591769" lon="13.2844484"><ele>652.0</ele><time>2026-04-26T11:03:45.04Z</time></trkpt><trkpt lat="42.7589306" lon="13.2842623"><ele>652.0</ele><time>2026-04-26T11:03:46.039Z</time></trkpt><trkpt lat="42.7586925" lon="13.2840377"><ele>652.0</ele><time>2026-04-26T11:03:47.04Z</time></trkpt><trkpt lat="42.7584556" lon="13.2837924"><ele>649.0</ele><time>2026-04-26T11:03:48.04Z</time></trkpt><trkpt lat="42.758217" lon="13.2835462"><ele>646.0</ele><time>2026-04-26T11:03:49.039Z</time></trkpt><trkpt lat="42.7579686" lon="13.2832951"><ele>645.5</ele><time>2026-04-26T11:03:50.04Z</time></trkpt><trkpt lat="42.7577137" lon="13.2830449"><ele>645.0</ele><time>2026-04-26T11:03:51.039Z</time></trkpt><trkpt lat="42.7574536" lon="13.2828024"><ele>645.0</ele><time>2026-04-26T11:03:52.039Z</time></trkpt><trkpt lat="42.7571841" lon="13.2825871"><ele>645.0</ele><time>2026-04-26T11:03:53.04Z</time></trkpt><trkpt lat="42.7569088" lon="13.2824062"><ele>648.0</ele><time>2026-04-26T11:03:54.039Z</time></trkpt><trkpt lat="42.7566363" lon="13.2822466"><ele>651.0</ele><time>2026-04-26T11:03:55.039Z</time></trkpt><trkpt lat="42.7563756" lon="13.2820839"><ele>651.0</ele><time>2026-04-26T11:03:56.039Z</time></trkpt><trkpt lat="42.7561232" lon="13.2818947"><ele>651.0</ele><time>2026-04-26T11:03:57.039Z</time></trkpt><trkpt lat="42.7559049" lon="13.2816662"><ele>662.0</ele><time>2026-04-26T11:03:58.039Z</time></trkpt><trkpt lat="42.7556951" lon="13.2813974"><ele>673.0</ele><time>2026-04-26T11:03:59.039Z</time></trkpt><trkpt lat="42.7555199" lon="13.2810958"><ele>673.0</ele><time>2026-04-26T11:04:00.04Z</time></trkpt><trkpt lat="42.7553773" lon="13.2807776"><ele>673.0</ele><time>2026-04-26T11:04:01.039Z</time></trkpt><trkpt lat="42.7552628" lon="13.2804314"><ele>669.0</ele><time>2026-04-26T11:04:02.039Z</time></trkpt><trkpt lat="42.7551688" lon="13.2800451"><ele>665.0</ele><time>2026-04-26T11:04:03.04Z</time></trkpt><trkpt lat="42.7550894" lon="13.2796571"><ele>665.0</ele><time>2026-04-26T11:04:04.04Z</time></trkpt><trkpt lat="42.7550105" lon="13.2792964"><ele>665.0</ele><time>2026-04-26T11:04:05.039Z</time></trkpt><trkpt lat="42.7549214" lon="13.278938"><ele>670.5</ele><time>2026-04-26T11:04:06.04Z</time></trkpt><trkpt lat="42.7548072" lon="13.2785996"><ele>676.0</ele><time>2026-04-26T11:04:07.039Z</time></trkpt><trkpt lat="42.7546688" lon="13.2782785"><ele>680.0</ele><time>2026-04-26T11:04:08.04Z</time></trkpt><trkpt lat="42.7545055" lon="13.2779801"><ele>684.0</ele><time>2026-04-26T11:04:09.039Z</time></trkpt><trkpt lat="42.7543146" lon="13.2777107"><ele>684.5</ele><time>2026-04-26T11:04:10.039Z</time></trkpt><trkpt lat="42.7540981" lon="13.2774642"><ele>685.0</ele><time>2026-04-26T11:04:11.039Z</time></trkpt><trkpt lat="42.753863" lon="13.277242"><ele>685.0</ele><time>2026-04-26T11:04:12.04Z</time></trkpt><trkpt lat="42.7536036" lon="13.2770254"><ele>685.0</ele><time>2026-04-26T11:04:13.04Z</time></trkpt><trkpt lat="42.7533503" lon="13.2768078"><ele>687.0</ele><time>2026-04-26T11:04:14.039Z</time></trkpt><trkpt lat="42.7531035" lon="13.2765877"><ele>689.0</ele><time>2026-04-26T11:04:15.039Z</time></trkpt><trkpt lat="42.7528647" lon="13.2763525"><ele>677.5</ele><time>2026-04-26T11:04:16.039Z</time></trkpt><trkpt lat="42.7526302" lon="13.2760843"><ele>666.0</ele><time>2026-04-26T11:04:17.039Z</time></trkpt><trkpt lat="42.7524093" lon="13.2757898"><ele>672.5</ele><time>2026-04-26T11:04:18.04Z</time></trkpt><trkpt lat="42.7522052" lon="13.2754737"><ele>679.0</ele><time>2026-04-26T11:04:19.039Z</time></trkpt><trkpt lat="42.7520085" lon="13.2751361"><ele>669.5</ele><time>2026-04-26T11:04:20.039Z</time></trkpt><trkpt lat="42.7518195" lon="13.2747732"><ele>660.0</ele><time>2026-04-26T11:04:21.039Z</time></trkpt><trkpt lat="42.7516332" lon="13.2743987"><ele>660.0</ele><time>2026-04-26T11:04:22.04Z</time></trkpt><trkpt lat="42.7514455" lon="13.2740326"><ele>660.0</ele><time>2026-04-26T11:04:23.039Z</time></trkpt><trkpt lat="42.751262" lon="13.2736904"><ele>668.0</ele><time>2026-04-26T11:04:24.039Z</time></trkpt><trkpt lat="42.7510879" lon="13.2733583"><ele>676.0</ele><time>2026-04-26T11:04:25.039Z</time></trkpt><trkpt lat="42.7509075" lon="13.2730362"><ele>676.0</ele><time>2026-04-26T11:04:26.039Z</time></trkpt><trkpt lat="42.7507127" lon="13.2727313"><ele>676.0</ele><time>2026-04-26T11:04:27.039Z</time></trkpt><trkpt lat="42.7505017" lon="13.27245"><ele>680.0</ele><time>2026-04-26T11:04:28.039Z</time></trkpt><trkpt lat="42.7502724" lon="13.2721931"><ele>684.0</ele><time>2026-04-26T11:04:29.039Z</time></trkpt><trkpt lat="42.7500416" lon="13.2719765"><ele>684.0</ele><time>2026-04-26T11:04:30.039Z</time></trkpt><trkpt lat="42.7498205" lon="13.271784"><ele>684.0</ele><time>2026-04-26T11:04:31.04Z</time></trkpt><trkpt lat="42.7496117" lon="13.2716218"><ele>684.0</ele><time>2026-04-26T11:04:32.039Z</time></trkpt><trkpt lat="42.7494176" lon="13.2714814"><ele>684.0</ele><time>2026-04-26T11:04:33.04Z</time></trkpt><trkpt lat="42.7492379" lon="13.2713479"><ele>684.0</ele><time>2026-04-26T11:04:34.039Z</time></trkpt><trkpt lat="42.7490669" lon="13.2712231"><ele>685.6666666666666</ele><time>2026-04-26T11:04:35.039Z</time></trkpt><trkpt lat="42.7488962" lon="13.2710985"><ele>687.3333333333333</ele><time>2026-04-26T11:04:36.039Z</time></trkpt><trkpt lat="42.7487235" lon="13.2709711"><ele>689.0</ele><time>2026-04-26T11:04:37.039Z</time></trkpt><trkpt lat="42.7485475" lon="13.2708372"><ele>690.6666666666666</ele><time>2026-04-26T11:04:38.039Z</time></trkpt><trkpt lat="42.7483639" lon="13.2706995"><ele>692.3333333333334</ele><time>2026-04-26T11:04:39.04Z</time></trkpt><trkpt lat="42.748174" lon="13.2705534"><ele>694.0</ele><time>2026-04-26T11:04:40.04Z</time></trkpt><trkpt lat="42.7479784" lon="13.270406"><ele>694.0</ele><time>2026-04-26T11:04:41.04Z</time></trkpt><trkpt lat="42.747777" lon="13.2702516"><ele>694.0</ele><time>2026-04-26T11:04:42.039Z</time></trkpt><trkpt lat="42.7475707" lon="13.2700745"><ele>690.0</ele><time>2026-04-26T11:04:43.04Z</time></trkpt><trkpt lat="42.7473625" lon="13.2698787"><ele>686.0</ele><time>2026-04-26T11:04:44.04Z</time></trkpt><trkpt lat="42.7471522" lon="13.2696736"><ele>686.0</ele><time>2026-04-26T11:04:45.039Z</time></trkpt><trkpt lat="42.7469425" lon="13.2694568"><ele>686.0</ele><time>2026-04-26T11:04:46.04Z</time></trkpt><trkpt lat="42.7467361" lon="13.2692299"><ele>683.0</ele><time>2026-04-26T11:04:47.039Z</time></trkpt><trkpt lat="42.7465219" lon="13.2689988"><ele>680.0</ele><time>2026-04-26T11:04:48.039Z</time></trkpt><trkpt lat="42.7463171" lon="13.2687748"><ele>680.0</ele><time>2026-04-26T11:04:49.039Z</time></trkpt><trkpt lat="42.7461083" lon="13.2685526"><ele>680.0</ele><time>2026-04-26T11:04:50.04Z</time></trkpt><trkpt lat="42.7458958" lon="13.2683324"><ele>680.5</ele><time>2026-04-26T11:04:51.039Z</time></trkpt><trkpt lat="42.7456837" lon="13.2681153"><ele>681.0</ele><time>2026-04-26T11:04:52.04Z</time></trkpt><trkpt lat="42.7454742" lon="13.2679019"><ele>681.0</ele><time>2026-04-26T11:04:53.039Z</time></trkpt><trkpt lat="42.7452627" lon="13.2677013"><ele>681.0</ele><time>2026-04-26T11:04:54.039Z</time></trkpt><trkpt lat="42.7450469" lon="13.2675045"><ele>684.0</ele><time>2026-04-26T11:04:55.039Z</time></trkpt><trkpt lat="42.7448234" lon="13.2673088"><ele>687.0</ele><time>2026-04-26T11:04:56.039Z</time></trkpt><trkpt lat="42.7445904" lon="13.2671054"><ele>678.5</ele><time>2026-04-26T11:04:57.039Z</time></trkpt><trkpt lat="42.7443488" lon="13.2669074"><ele>670.0</ele><time>2026-04-26T11:04:58.039Z</time></trkpt><trkpt lat="42.7440823" lon="13.266712"><ele>670.0</ele><time>2026-04-26T11:04:59.039Z</time></trkpt><trkpt lat="42.7438297" lon="13.2665262"><ele>670.0</ele><time>2026-04-26T11:05:00.039Z</time></trkpt><trkpt lat="42.743573" lon="13.2663449"><ele>672.5</ele><time>2026-04-26T11:05:01.039Z</time></trkpt><trkpt lat="42.7433103" lon="13.2661663"><ele>675.0</ele><time>2026-04-26T11:05:02.039Z</time></trkpt><trkpt lat="42.743044" lon="13.2659963"><ele>675.0</ele><time>2026-04-26T11:05:03.039Z</time></trkpt><trkpt lat="42.7427765" lon="13.2658277"><ele>675.0</ele><time>2026-04-26T11:05:04.04Z</time></trkpt><trkpt lat="42.7425066" lon="13.265668"><ele>681.5</ele><time>2026-04-26T11:05:05.04Z</time></trkpt><trkpt lat="42.7422322" lon="13.265517"><ele>688.0</ele><time>2026-04-26T11:05:06.039Z</time></trkpt><trkpt lat="42.7419598" lon="13.2653699"><ele>682.0</ele><time>2026-04-26T11:05:07.039Z</time></trkpt><trkpt lat="42.7416875" lon="13.2652398"><ele>676.0</ele><time>2026-04-26T11:05:08.039Z</time></trkpt><trkpt lat="42.7414136" lon="13.2651202"><ele>676.0</ele><time>2026-04-26T11:05:09.039Z</time></trkpt><trkpt lat="42.7411447" lon="13.2650188"><ele>676.0</ele><time>2026-04-26T11:05:10.039Z</time></trkpt><trkpt lat="42.7408754" lon="13.264928"><ele>673.5</ele><time>2026-04-26T11:05:11.04Z</time></trkpt><trkpt lat="42.7406112" lon="13.2648509"><ele>671.0</ele><time>2026-04-26T11:05:12.04Z</time></trkpt><trkpt lat="42.7403521" lon="13.2647807"><ele>673.0</ele><time>2026-04-26T11:05:13.039Z</time></trkpt><trkpt lat="42.7400925" lon="13.2647233"><ele>675.0</ele><time>2026-04-26T11:05:14.04Z</time></trkpt><trkpt lat="42.7398341" lon="13.2646823"><ele>675.0</ele><time>2026-04-26T11:05:15.039Z</time></trkpt><trkpt lat="42.7395822" lon="13.264649"><ele>675.0</ele><time>2026-04-26T11:05:16.039Z</time></trkpt><trkpt lat="42.7393379" lon="13.264626"><ele>674.0</ele><time>2026-04-26T11:05:17.039Z</time></trkpt><trkpt lat="42.7391014" lon="13.264614"><ele>673.0</ele><time>2026-04-26T11:05:18.039Z</time></trkpt><trkpt lat="42.7388613" lon="13.264606"><ele>673.0</ele><time>2026-04-26T11:05:19.039Z</time></trkpt><trkpt lat="42.7386233" lon="13.2646273"><ele>673.0</ele><time>2026-04-26T11:05:20.039Z</time></trkpt><trkpt lat="42.7383998" lon="13.2646455"><ele>672.3333333333334</ele><time>2026-04-26T11:05:21.039Z</time></trkpt><trkpt lat="42.7381791" lon="13.2646706"><ele>671.6666666666666</ele><time>2026-04-26T11:05:22.039Z</time></trkpt><trkpt lat="42.7379636" lon="13.2646977"><ele>671.0</ele><time>2026-04-26T11:05:23.039Z</time></trkpt><trkpt lat="42.7377524" lon="13.264742"><ele>672.3333333333333</ele><time>2026-04-26T11:05:24.039Z</time></trkpt><trkpt lat="42.7375608" lon="13.2647863"><ele>673.6666666666666</ele><time>2026-04-26T11:05:25.04Z</time></trkpt><trkpt lat="42.7373856" lon="13.2648358"><ele>675.0</ele><time>2026-04-26T11:05:26.039Z</time></trkpt><trkpt lat="42.7372322" lon="13.2648849"><ele>675.0</ele><time>2026-04-26T11:05:27.039Z</time></trkpt><trkpt lat="42.7371" lon="13.2649218"><ele>675.0</ele><time>2026-04-26T11:05:28.039Z</time></trkpt><trkpt lat="42.7369822" lon="13.2649327"><ele>675.0</ele><time>2026-04-26T11:05:29.04Z</time></trkpt><trkpt lat="42.7368781" lon="13.264906"><ele>675.0</ele><time>2026-04-26T11:05:30.039Z</time></trkpt><trkpt lat="42.7367832" lon="13.2648711"><ele>675.8</ele><time>2026-04-26T11:05:31.039Z</time></trkpt><trkpt lat="42.7366925" lon="13.2648592"><ele>676.6</ele><time>2026-04-26T11:05:32.039Z</time></trkpt><trkpt lat="42.7365975" lon="13.2648871"><ele>677.4000000000001</ele><time>2026-04-26T11:05:33.04Z</time></trkpt><trkpt lat="42.7365351" lon="13.2649703"><ele>678.2</ele><time>2026-04-26T11:05:34.039Z</time></trkpt><trkpt lat="42.7364758" lon="13.2650709"><ele>679.0</ele><time>2026-04-26T11:05:35.039Z</time></trkpt><trkpt lat="42.736395" lon="13.2651553"><ele>679.0</ele><time>2026-04-26T11:05:36.039Z</time></trkpt><trkpt lat="42.7362964" lon="13.2652237"><ele>679.0</ele><time>2026-04-26T11:05:37.039Z</time></trkpt><trkpt lat="42.7361741" lon="13.2652866"><ele>679.0</ele><time>2026-04-26T11:05:38.039Z</time></trkpt><trkpt lat="42.7360476" lon="13.265351"><ele>679.0</ele><time>2026-04-26T11:05:39.039Z</time></trkpt><trkpt lat="42.7359142" lon="13.2654258"><ele>679.3333333333334</ele><time>2026-04-26T11:05:40.04Z</time></trkpt><trkpt lat="42.7357663" lon="13.265509"><ele>679.6666666666666</ele><time>2026-04-26T11:05:41.039Z</time></trkpt><trkpt lat="42.7355954" lon="13.2656034"><ele>680.0</ele><time>2026-04-26T11:05:42.039Z</time></trkpt><trkpt lat="42.7354181" lon="13.2657227"><ele>680.3333333333333</ele><time>2026-04-26T11:05:43.039Z</time></trkpt><trkpt lat="42.7352258" lon="13.2658527"><ele>680.6666666666666</ele><time>2026-04-26T11:05:44.04Z</time></trkpt><trkpt lat="42.7350302" lon="13.2659857"><ele>681.0</ele><time>2026-04-26T11:05:45.04Z</time></trkpt><trkpt lat="42.7348347" lon="13.2661381"><ele>682.0</ele><time>2026-04-26T11:05:46.04Z</time></trkpt><trkpt lat="42.7346419" lon="13.2663017"><ele>683.0</ele><time>2026-04-26T11:05:47.039Z</time></trkpt><trkpt lat="42.7344441" lon="13.2664717"><ele>684.0</ele><time>2026-04-26T11:05:48.04Z</time></trkpt><trkpt lat="42.7342515" lon="13.2666424"><ele>685.0</ele><time>2026-04-26T11:05:49.04Z</time></trkpt><trkpt lat="42.7340647" lon="13.2668218"><ele>685.0</ele><time>2026-04-26T11:05:50.04Z</time></trkpt><trkpt lat="42.7338791" lon="13.2670115"><ele>685.0</ele><time>2026-04-26T11:05:51.04Z</time></trkpt><trkpt lat="42.733697" lon="13.2672149"><ele>685.5</ele><time>2026-04-26T11:05:52.04Z</time></trkpt><trkpt lat="42.7335093" lon="13.2674298"><ele>686.0</ele><time>2026-04-26T11:05:53.04Z</time></trkpt><trkpt lat="42.7333214" lon="13.2676546"><ele>686.0</ele><time>2026-04-26T11:05:54.039Z</time></trkpt><trkpt lat="42.7331333" lon="13.2678727"><ele>686.0</ele><time>2026-04-26T11:05:55.039Z</time></trkpt><trkpt lat="42.7329403" lon="13.268092"><ele>686.5</ele><time>2026-04-26T11:05:56.039Z</time></trkpt><trkpt lat="42.7327397" lon="13.2683096"><ele>687.0</ele><time>2026-04-26T11:05:57.039Z</time></trkpt><trkpt lat="42.7325346" lon="13.2685132"><ele>685.0</ele><time>2026-04-26T11:05:58.039Z</time></trkpt><trkpt lat="42.7323217" lon="13.2686944"><ele>683.0</ele><time>2026-04-26T11:05:59.039Z</time></trkpt><trkpt lat="42.7321029" lon="13.2688453"><ele>684.5</ele><time>2026-04-26T11:06:00.04Z</time></trkpt><trkpt lat="42.731878" lon="13.2689811"><ele>686.0</ele><time>2026-04-26T11:06:01.039Z</time></trkpt><trkpt lat="42.7316332" lon="13.269098"><ele>686.0</ele><time>2026-04-26T11:06:02.039Z</time></trkpt><trkpt lat="42.7313797" lon="13.2691955"><ele>686.0</ele><time>2026-04-26T11:06:03.039Z</time></trkpt><trkpt lat="42.7311255" lon="13.26926"><ele>685.5</ele><time>2026-04-26T11:06:04.04Z</time></trkpt><trkpt lat="42.7308655" lon="13.2693106"><ele>685.0</ele><time>2026-04-26T11:06:05.04Z</time></trkpt><trkpt lat="42.7305981" lon="13.2693324"><ele>685.0</ele><time>2026-04-26T11:06:06.039Z</time></trkpt><trkpt lat="42.7303259" lon="13.2693199"><ele>685.0</ele><time>2026-04-26T11:06:07.039Z</time></trkpt><trkpt lat="42.730065" lon="13.2692876"><ele>686.0</ele><time>2026-04-26T11:06:08.039Z</time></trkpt><trkpt lat="42.7297987" lon="13.2692275"><ele>687.0</ele><time>2026-04-26T11:06:09.039Z</time></trkpt><trkpt lat="42.7295355" lon="13.2691336"><ele>687.5</ele><time>2026-04-26T11:06:10.039Z</time></trkpt><trkpt lat="42.7292802" lon="13.2690121"><ele>688.0</ele><time>2026-04-26T11:06:11.039Z</time></trkpt><trkpt lat="42.7290271" lon="13.2688686"><ele>688.0</ele><time>2026-04-26T11:06:12.039Z</time></trkpt><trkpt lat="42.728789" lon="13.2686985"><ele>688.0</ele><time>2026-04-26T11:06:13.039Z</time></trkpt><trkpt lat="42.7285578" lon="13.2685074"><ele>688.0</ele><time>2026-04-26T11:06:14.039Z</time></trkpt><trkpt lat="42.7283346" lon="13.2682956"><ele>688.0</ele><time>2026-04-26T11:06:15.039Z</time></trkpt><trkpt lat="42.7281213" lon="13.2680661"><ele>688.0</ele><time>2026-04-26T11:06:16.039Z</time></trkpt><trkpt lat="42.7279288" lon="13.2678008"><ele>688.0</ele><time>2026-04-26T11:06:17.04Z</time></trkpt><trkpt lat="42.7277503" lon="13.2675248"><ele>687.5</ele><time>2026-04-26T11:06:18.039Z</time></trkpt><trkpt lat="42.7275907" lon="13.2672189"><ele>687.0</ele><time>2026-04-26T11:06:19.04Z</time></trkpt><trkpt lat="42.7274299" lon="13.2669095"><ele>687.0</ele><time>2026-04-26T11:06:20.039Z</time></trkpt><trkpt lat="42.727264" lon="13.2666105"><ele>687.0</ele><time>2026-04-26T11:06:21.04Z</time></trkpt><trkpt lat="42.7270882" lon="13.2663226"><ele>689.5</ele><time>2026-04-26T11:06:22.039Z</time></trkpt><trkpt lat="42.7268975" lon="13.2660612"><ele>692.0</ele><time>2026-04-26T11:06:23.039Z</time></trkpt><trkpt lat="42.7266953" lon="13.2658149"><ele>694.5</ele><time>2026-04-26T11:06:24.039Z</time></trkpt><trkpt lat="42.7264756" lon="13.2655811"><ele>697.0</ele><time>2026-04-26T11:06:25.039Z</time></trkpt><trkpt lat="42.7262439" lon="13.2653816"><ele>694.5</ele><time>2026-04-26T11:06:26.04Z</time></trkpt><trkpt lat="42.725999" lon="13.26521"><ele>692.0</ele><time>2026-04-26T11:06:27.039Z</time></trkpt><trkpt lat="42.7257483" lon="13.2650574"><ele>692.0</ele><time>2026-04-26T11:06:28.04Z</time></trkpt><trkpt lat="42.7254872" lon="13.2649183"><ele>692.0</ele><time>2026-04-26T11:06:29.039Z</time></trkpt><trkpt lat="42.7252221" lon="13.2648166"><ele>704.0</ele><time>2026-04-26T11:06:30.039Z</time></trkpt><trkpt lat="42.7249475" lon="13.2647328"><ele>716.0</ele><time>2026-04-26T11:06:31.039Z</time></trkpt><trkpt lat="42.7246713" lon="13.2646499"><ele>716.0</ele><time>2026-04-26T11:06:32.039Z</time></trkpt><trkpt lat="42.7244044" lon="13.2645561"><ele>716.0</ele><time>2026-04-26T11:06:33.039Z</time></trkpt><trkpt lat="42.7241435" lon="13.2644432"><ele>712.5</ele><time>2026-04-26T11:06:34.039Z</time></trkpt><trkpt lat="42.7238864" lon="13.2643001"><ele>709.0</ele><time>2026-04-26T11:06:35.039Z</time></trkpt><trkpt lat="42.7236332" lon="13.2641352"><ele>706.0</ele><time>2026-04-26T11:06:36.039Z</time></trkpt><trkpt lat="42.7233793" lon="13.2639598"><ele>703.0</ele><time>2026-04-26T11:06:37.04Z</time></trkpt><trkpt lat="42.7231292" lon="13.2637858"><ele>703.0</ele><time>2026-04-26T11:06:38.039Z</time></trkpt><trkpt lat="42.7228717" lon="13.263622"><ele>703.0</ele><time>2026-04-26T11:06:39.039Z</time></trkpt><trkpt lat="42.7226192" lon="13.2634511"><ele>703.0</ele><time>2026-04-26T11:06:40.039Z</time></trkpt><trkpt lat="42.7223707" lon="13.2632823"><ele>703.0</ele><time>2026-04-26T11:06:41.039Z</time></trkpt><trkpt lat="42.7221216" lon="13.26311"><ele>702.5</ele><time>2026-04-26T11:06:42.039Z</time></trkpt><trkpt lat="42.7218719" lon="13.2629388"><ele>702.0</ele><time>2026-04-26T11:06:43.039Z</time></trkpt><trkpt lat="42.7216257" lon="13.2627694"><ele>702.0</ele><time>2026-04-26T11:06:44.04Z</time></trkpt><trkpt lat="42.7213738" lon="13.2626041"><ele>702.0</ele><time>2026-04-26T11:06:45.039Z</time></trkpt><trkpt lat="42.7211202" lon="13.2624331"><ele>699.5</ele><time>2026-04-26T11:06:46.04Z</time></trkpt><trkpt lat="42.7208613" lon="13.2622743"><ele>697.0</ele><time>2026-04-26T11:06:47.039Z</time></trkpt><trkpt lat="42.7206016" lon="13.2621144"><ele>697.0</ele><time>2026-04-26T11:06:48.04Z</time></trkpt><trkpt lat="42.7203455" lon="13.2619456"><ele>697.0</ele><time>2026-04-26T11:06:49.039Z</time></trkpt><trkpt lat="42.7200918" lon="13.2617707"><ele>698.5</ele><time>2026-04-26T11:06:50.039Z</time></trkpt><trkpt lat="42.719839" lon="13.2615952"><ele>700.0</ele><time>2026-04-26T11:06:51.039Z</time></trkpt><trkpt lat="42.7195799" lon="13.2614111"><ele>700.5</ele><time>2026-04-26T11:06:52.039Z</time></trkpt><trkpt lat="42.7193162" lon="13.2612323"><ele>701.0</ele><time>2026-04-26T11:06:53.039Z</time></trkpt><trkpt lat="42.7190482" lon="13.2610551"><ele>701.0</ele><time>2026-04-26T11:06:54.039Z</time></trkpt><trkpt lat="42.7187795" lon="13.2608764"><ele>701.0</ele><time>2026-04-26T11:06:55.039Z</time></trkpt><trkpt lat="42.7185072" lon="13.2606949"><ele>709.0</ele><time>2026-04-26T11:06:56.039Z</time></trkpt><trkpt lat="42.7182384" lon="13.2605157"><ele>717.0</ele><time>2026-04-26T11:06:57.039Z</time></trkpt><trkpt lat="42.7179698" lon="13.2603327"><ele>713.0</ele><time>2026-04-26T11:06:58.039Z</time></trkpt><trkpt lat="42.7176968" lon="13.2601487"><ele>709.0</ele><time>2026-04-26T11:06:59.039Z</time></trkpt><trkpt lat="42.7174208" lon="13.2599694"><ele>709.0</ele><time>2026-04-26T11:07:00.039Z</time></trkpt><trkpt lat="42.7171443" lon="13.2597869"><ele>709.0</ele><time>2026-04-26T11:07:01.04Z</time></trkpt><trkpt lat="42.7168695" lon="13.2596032"><ele>707.5</ele><time>2026-04-26T11:07:02.039Z</time></trkpt><trkpt lat="42.7165967" lon="13.2594211"><ele>706.0</ele><time>2026-04-26T11:07:03.039Z</time></trkpt><trkpt lat="42.716324" lon="13.2592374"><ele>704.5</ele><time>2026-04-26T11:07:04.039Z</time></trkpt><trkpt lat="42.7160492" lon="13.259057"><ele>703.0</ele><time>2026-04-26T11:07:05.04Z</time></trkpt><trkpt lat="42.7157789" lon="13.2588772"><ele>703.0</ele><time>2026-04-26T11:07:06.039Z</time></trkpt><trkpt lat="42.7155079" lon="13.2586924"><ele>703.0</ele><time>2026-04-26T11:07:07.039Z</time></trkpt><trkpt lat="42.7152388" lon="13.2585159"><ele>702.0</ele><time>2026-04-26T11:07:08.039Z</time></trkpt><trkpt lat="42.71497" lon="13.2583505"><ele>701.0</ele><time>2026-04-26T11:07:09.039Z</time></trkpt><trkpt lat="42.7146938" lon="13.2582007"><ele>701.5</ele><time>2026-04-26T11:07:10.039Z</time></trkpt><trkpt lat="42.7144115" lon="13.258061"><ele>702.0</ele><time>2026-04-26T11:07:11.04Z</time></trkpt><trkpt lat="42.714133" lon="13.2579324"><ele>702.5</ele><time>2026-04-26T11:07:12.039Z</time></trkpt><trkpt lat="42.7138507" lon="13.2578274"><ele>703.0</ele><time>2026-04-26T11:07:13.039Z</time></trkpt><trkpt lat="42.7135695" lon="13.2577336"><ele>703.0</ele><time>2026-04-26T11:07:14.039Z</time></trkpt><trkpt lat="42.7132884" lon="13.2576521"><ele>703.0</ele><time>2026-04-26T11:07:15.039Z</time></trkpt><trkpt lat="42.7130056" lon="13.2575759"><ele>704.5</ele><time>2026-04-26T11:07:16.039Z</time></trkpt><trkpt lat="42.7127256" lon="13.2574949"><ele>706.0</ele><time>2026-04-26T11:07:17.04Z</time></trkpt><trkpt lat="42.7124451" lon="13.2574178"><ele>706.0</ele><time>2026-04-26T11:07:18.039Z</time></trkpt><trkpt lat="42.7121645" lon="13.2573382"><ele>706.0</ele><time>2026-04-26T11:07:19.039Z</time></trkpt><trkpt lat="42.7118853" lon="13.2572479"><ele>705.0</ele><time>2026-04-26T11:07:20.039Z</time></trkpt><trkpt lat="42.7116073" lon="13.2571527"><ele>704.0</ele><time>2026-04-26T11:07:21.04Z</time></trkpt><trkpt lat="42.7113266" lon="13.257046"><ele>704.0</ele><time>2026-04-26T11:07:22.039Z</time></trkpt><trkpt lat="42.7110491" lon="13.256925"><ele>704.0</ele><time>2026-04-26T11:07:23.04Z</time></trkpt><trkpt lat="42.7107787" lon="13.2568001"><ele>704.0</ele><time>2026-04-26T11:07:24.039Z</time></trkpt><trkpt lat="42.7105127" lon="13.2566606"><ele>704.0</ele><time>2026-04-26T11:07:25.039Z</time></trkpt><trkpt lat="42.7102649" lon="13.2564942"><ele>708.5</ele><time>2026-04-26T11:07:26.039Z</time></trkpt><trkpt lat="42.71001" lon="13.2563301"><ele>713.0</ele><time>2026-04-26T11:07:27.039Z</time></trkpt><trkpt lat="42.7097601" lon="13.2561653"><ele>713.0</ele><time>2026-04-26T11:07:28.039Z</time></trkpt><trkpt lat="42.7095054" lon="13.256007"><ele>713.0</ele><time>2026-04-26T11:07:29.04Z</time></trkpt><trkpt lat="42.7092539" lon="13.2558663"><ele>711.5</ele><time>2026-04-26T11:07:30.04Z</time></trkpt><trkpt lat="42.7089898" lon="13.255718"><ele>710.0</ele><time>2026-04-26T11:07:31.04Z</time></trkpt><trkpt lat="42.7087234" lon="13.2555666"><ele>715.0</ele><time>2026-04-26T11:07:32.04Z</time></trkpt><trkpt lat="42.7084494" lon="13.2554231"><ele>720.0</ele><time>2026-04-26T11:07:33.039Z</time></trkpt><trkpt lat="42.7081713" lon="13.2553006"><ele>720.0</ele><time>2026-04-26T11:07:34.039Z</time></trkpt><trkpt lat="42.7078876" lon="13.2551836"><ele>720.0</ele><time>2026-04-26T11:07:35.04Z</time></trkpt><trkpt lat="42.7076022" lon="13.2550548"><ele>717.5</ele><time>2026-04-26T11:07:36.039Z</time></trkpt><trkpt lat="42.7073145" lon="13.2549305"><ele>715.0</ele><time>2026-04-26T11:07:37.039Z</time></trkpt><trkpt lat="42.7070281" lon="13.2548135"><ele>722.5</ele><time>2026-04-26T11:07:38.039Z</time></trkpt><trkpt lat="42.7067398" lon="13.2546927"><ele>730.0</ele><time>2026-04-26T11:07:39.039Z</time></trkpt><trkpt lat="42.7064579" lon="13.2545682"><ele>730.0</ele><time>2026-04-26T11:07:40.04Z</time></trkpt><trkpt lat="42.7061964" lon="13.2544502"><ele>730.0</ele><time>2026-04-26T11:07:41.039Z</time></trkpt><trkpt lat="42.7059363" lon="13.2543387"><ele>727.0</ele><time>2026-04-26T11:07:42.039Z</time></trkpt><trkpt lat="42.7056866" lon="13.2542336"><ele>724.0</ele><time>2026-04-26T11:07:43.039Z</time></trkpt><trkpt lat="42.7054245" lon="13.2541234"><ele>723.5</ele><time>2026-04-26T11:07:44.039Z</time></trkpt><trkpt lat="42.7051165" lon="13.2540452"><ele>723.0</ele><time>2026-04-26T11:07:45.039Z</time></trkpt><trkpt lat="42.7048438" lon="13.2539562"><ele>731.5</ele><time>2026-04-26T11:07:46.039Z</time></trkpt><trkpt lat="42.7045488" lon="13.2538874"><ele>740.0</ele><time>2026-04-26T11:07:47.039Z</time></trkpt><trkpt lat="42.7042492" lon="13.2538206"><ele>740.0</ele><time>2026-04-26T11:07:48.04Z</time></trkpt><trkpt lat="42.7039527" lon="13.2537538"><ele>740.0</ele><time>2026-04-26T11:07:49.039Z</time></trkpt><trkpt lat="42.7036525" lon="13.2536976"><ele>738.5</ele><time>2026-04-26T11:07:50.039Z</time></trkpt><trkpt lat="42.7033514" lon="13.2536235"><ele>737.0</ele><time>2026-04-26T11:07:51.039Z</time></trkpt><trkpt lat="42.70307" lon="13.2535057"><ele>737.0</ele><time>2026-04-26T11:07:52.04Z</time></trkpt><trkpt lat="42.7027969" lon="13.2533572"><ele>737.0</ele><time>2026-04-26T11:07:53.039Z</time></trkpt><trkpt lat="42.7025342" lon="13.2531878"><ele>745.5</ele><time>2026-04-26T11:07:54.039Z</time></trkpt><trkpt lat="42.702289" lon="13.2530092"><ele>754.0</ele><time>2026-04-26T11:07:55.039Z</time></trkpt><trkpt lat="42.702048" lon="13.2528399"><ele>742.5</ele><time>2026-04-26T11:07:56.039Z</time></trkpt><trkpt lat="42.701815" lon="13.2526733"><ele>731.0</ele><time>2026-04-26T11:07:57.039Z</time></trkpt><trkpt lat="42.7015856" lon="13.2525243"><ele>731.0</ele><time>2026-04-26T11:07:58.04Z</time></trkpt><trkpt lat="42.7013677" lon="13.2523785"><ele>731.0</ele><time>2026-04-26T11:07:59.039Z</time></trkpt><trkpt lat="42.7011581" lon="13.2522403"><ele>733.0</ele><time>2026-04-26T11:08:00.039Z</time></trkpt><trkpt lat="42.7009506" lon="13.2521123"><ele>735.0</ele><time>2026-04-26T11:08:01.039Z</time></trkpt><trkpt lat="42.7007448" lon="13.2520031"><ele>737.0</ele><time>2026-04-26T11:08:02.039Z</time></trkpt><trkpt lat="42.7005305" lon="13.2519161"><ele>737.0</ele><time>2026-04-26T11:08:03.04Z</time></trkpt><trkpt lat="42.7002795" lon="13.2518506"><ele>737.0</ele><time>2026-04-26T11:08:04.039Z</time></trkpt><trkpt lat="42.7000374" lon="13.2517991"><ele>731.0</ele><time>2026-04-26T11:08:05.039Z</time></trkpt><trkpt lat="42.6997597" lon="13.2517949"><ele>725.0</ele><time>2026-04-26T11:08:06.039Z</time></trkpt><trkpt lat="42.6994675" lon="13.2518292"><ele>721.5</ele><time>2026-04-26T11:08:07.039Z</time></trkpt><trkpt lat="42.6991602" lon="13.2519159"><ele>718.0</ele><time>2026-04-26T11:08:08.039Z</time></trkpt><trkpt lat="42.6988917" lon="13.2520032"><ele>718.0</ele><time>2026-04-26T11:08:09.039Z</time></trkpt><trkpt lat="42.6986104" lon="13.2521307"><ele>718.0</ele><time>2026-04-26T11:08:10.039Z</time></trkpt><trkpt lat="42.6983395" lon="13.2522699"><ele>718.0</ele><time>2026-04-26T11:08:11.04Z</time></trkpt><trkpt lat="42.6980792" lon="13.2524394"><ele>718.0</ele><time>2026-04-26T11:08:12.039Z</time></trkpt><trkpt lat="42.6978321" lon="13.2526358"><ele>719.5</ele><time>2026-04-26T11:08:13.039Z</time></trkpt><trkpt lat="42.697598" lon="13.2528578"><ele>721.0</ele><time>2026-04-26T11:08:14.04Z</time></trkpt><trkpt lat="42.6973659" lon="13.253103"><ele>730.0</ele><time>2026-04-26T11:08:15.039Z</time></trkpt><trkpt lat="42.6971378" lon="13.2533644"><ele>739.0</ele><time>2026-04-26T11:08:16.039Z</time></trkpt><trkpt lat="42.6969427" lon="13.2536135"><ele>740.0</ele><time>2026-04-26T11:08:17.039Z</time></trkpt><trkpt lat="42.6967828" lon="13.2538643"><ele>741.0</ele><time>2026-04-26T11:08:18.039Z</time></trkpt><trkpt lat="42.6966321" lon="13.2541617"><ele>741.0</ele><time>2026-04-26T11:08:19.039Z</time></trkpt><trkpt lat="42.6964931" lon="13.2544734"><ele>741.0</ele><time>2026-04-26T11:08:20.039Z</time></trkpt><trkpt lat="42.6963766" lon="13.2547642"><ele>744.3333333333334</ele><time>2026-04-26T11:08:21.039Z</time></trkpt><trkpt lat="42.696295" lon="13.2550434"><ele>747.6666666666667</ele><time>2026-04-26T11:08:22.039Z</time></trkpt><trkpt lat="42.6962379" lon="13.2553144"><ele>751.0</ele><time>2026-04-26T11:08:23.039Z</time></trkpt><trkpt lat="42.696172" lon="13.2555723"><ele>750.0</ele><time>2026-04-26T11:08:24.039Z</time></trkpt><trkpt lat="42.6961317" lon="13.2558277"><ele>749.0</ele><time>2026-04-26T11:08:25.04Z</time></trkpt><trkpt lat="42.6960925" lon="13.2560716"><ele>748.0</ele><time>2026-04-26T11:08:26.04Z</time></trkpt><trkpt lat="42.6960522" lon="13.2563125"><ele>750.6666666666667</ele><time>2026-04-26T11:08:27.039Z</time></trkpt><trkpt lat="42.696007" lon="13.2565543"><ele>753.3333333333334</ele><time>2026-04-26T11:08:28.039Z</time></trkpt><trkpt lat="42.6959486" lon="13.256802"><ele>756.0</ele><time>2026-04-26T11:08:29.039Z</time></trkpt><trkpt lat="42.6958563" lon="13.25703"><ele>756.0</ele><time>2026-04-26T11:08:30.039Z</time></trkpt><trkpt lat="42.6957438" lon="13.257279"><ele>756.0</ele><time>2026-04-26T11:08:31.039Z</time></trkpt><trkpt lat="42.6956699" lon="13.2575055"><ele>756.0</ele><time>2026-04-26T11:08:32.039Z</time></trkpt><trkpt lat="42.6955521" lon="13.2577695"><ele>759.0</ele><time>2026-04-26T11:08:33.039Z</time></trkpt><trkpt lat="42.6954387" lon="13.2580306"><ele>762.0</ele><time>2026-04-26T11:08:34.039Z</time></trkpt><trkpt lat="42.6952555" lon="13.2583811"><ele>757.0</ele><time>2026-04-26T11:08:35.039Z</time></trkpt><trkpt lat="42.695143" lon="13.2586483"><ele>752.0</ele><time>2026-04-26T11:08:36.039Z</time></trkpt><trkpt lat="42.6950108" lon="13.2589281"><ele>751.5</ele><time>2026-04-26T11:08:37.039Z</time></trkpt><trkpt lat="42.6948363" lon="13.2592362"><ele>751.0</ele><time>2026-04-26T11:08:38.04Z</time></trkpt><trkpt lat="42.694697" lon="13.2595568"><ele>752.0</ele><time>2026-04-26T11:08:39.039Z</time></trkpt><trkpt lat="42.6945129" lon="13.2599318"><ele>753.0</ele><time>2026-04-26T11:08:40.039Z</time></trkpt><trkpt lat="42.6943322" lon="13.2603131"><ele>748.5</ele><time>2026-04-26T11:08:41.039Z</time></trkpt><trkpt lat="42.6940879" lon="13.2607432"><ele>744.0</ele><time>2026-04-26T11:08:42.039Z</time></trkpt><trkpt lat="42.6938897" lon="13.2611427"><ele>743.0</ele><time>2026-04-26T11:08:43.039Z</time></trkpt><trkpt lat="42.6936655" lon="13.2615006"><ele>742.0</ele><time>2026-04-26T11:08:44.039Z</time></trkpt><trkpt lat="42.6934734" lon="13.2618278"><ele>742.0</ele><time>2026-04-26T11:08:45.04Z</time></trkpt><trkpt lat="42.6932513" lon="13.2621054"><ele>742.0</ele><time>2026-04-26T11:08:46.039Z</time></trkpt><trkpt lat="42.693039" lon="13.2623877"><ele>743.0</ele><time>2026-04-26T11:08:47.039Z</time></trkpt><trkpt lat="42.692826" lon="13.2626436"><ele>744.0</ele><time>2026-04-26T11:08:48.039Z</time></trkpt><trkpt lat="42.6926051" lon="13.2628359"><ele>744.0</ele><time>2026-04-26T11:08:49.039Z</time></trkpt><trkpt lat="42.6923747" lon="13.2630133"><ele>744.0</ele><time>2026-04-26T11:08:50.04Z</time></trkpt><trkpt lat="42.6921419" lon="13.2631487"><ele>743.5</ele><time>2026-04-26T11:08:51.039Z</time></trkpt><trkpt lat="42.6918848" lon="13.2632923"><ele>743.0</ele><time>2026-04-26T11:08:52.039Z</time></trkpt><trkpt lat="42.6916258" lon="13.2633996"><ele>743.0</ele><time>2026-04-26T11:08:53.039Z</time></trkpt><trkpt lat="42.6913743" lon="13.2634734"><ele>743.0</ele><time>2026-04-26T11:08:54.039Z</time></trkpt><trkpt lat="42.6911317" lon="13.2635235"><ele>740.5</ele><time>2026-04-26T11:08:55.039Z</time></trkpt><trkpt lat="42.6908757" lon="13.2635442"><ele>738.0</ele><time>2026-04-26T11:08:56.039Z</time></trkpt><trkpt lat="42.6906205" lon="13.2635624"><ele>738.0</ele><time>2026-04-26T11:08:57.039Z</time></trkpt><trkpt lat="42.6903572" lon="13.2635805"><ele>738.0</ele><time>2026-04-26T11:08:58.039Z</time></trkpt><trkpt lat="42.6900908" lon="13.2635804"><ele>744.5</ele><time>2026-04-26T11:08:59.039Z</time></trkpt><trkpt lat="42.6898158" lon="13.2636003"><ele>751.0</ele><time>2026-04-26T11:09:00.039Z</time></trkpt><trkpt lat="42.6894737" lon="13.2637253"><ele>761.5</ele><time>2026-04-26T11:09:01.039Z</time></trkpt><trkpt lat="42.689173" lon="13.2638107"><ele>772.0</ele><time>2026-04-26T11:09:02.04Z</time></trkpt><trkpt lat="42.6888974" lon="13.263871"><ele>767.0</ele><time>2026-04-26T11:09:03.039Z</time></trkpt><trkpt lat="42.6886339" lon="13.2639723"><ele>762.0</ele><time>2026-04-26T11:09:04.039Z</time></trkpt><trkpt lat="42.6883889" lon="13.2641189"><ele>762.0</ele><time>2026-04-26T11:09:05.039Z</time></trkpt><trkpt lat="42.688194" lon="13.2643359"><ele>762.0</ele><time>2026-04-26T11:09:06.039Z</time></trkpt><trkpt lat="42.6879577" lon="13.2645078"><ele>766.0</ele><time>2026-04-26T11:09:07.039Z</time></trkpt><trkpt lat="42.6877319" lon="13.2647028"><ele>770.0</ele><time>2026-04-26T11:09:08.039Z</time></trkpt><trkpt lat="42.6875253" lon="13.2649346"><ele>761.0</ele><time>2026-04-26T11:09:09.038Z</time></trkpt><trkpt lat="42.6873353" lon="13.2652045"><ele>752.0</ele><time>2026-04-26T11:09:10.038Z</time></trkpt><trkpt lat="42.6871168" lon="13.2654942"><ele>750.5</ele><time>2026-04-26T11:09:11.038Z</time></trkpt><trkpt lat="42.6868897" lon="13.2657775"><ele>749.0</ele><time>2026-04-26T11:09:12.038Z</time></trkpt><trkpt lat="42.6866865" lon="13.2660765"><ele>749.0</ele><time>2026-04-26T11:09:13.038Z</time></trkpt><trkpt lat="42.686448" lon="13.2663125"><ele>749.0</ele><time>2026-04-26T11:09:14.039Z</time></trkpt><trkpt lat="42.6862363" lon="13.2665676"><ele>755.0</ele><time>2026-04-26T11:09:15.038Z</time></trkpt><trkpt lat="42.6860244" lon="13.2668197"><ele>761.0</ele><time>2026-04-26T11:09:16.039Z</time></trkpt><trkpt lat="42.6857953" lon="13.267069"><ele>767.5</ele><time>2026-04-26T11:09:17.038Z</time></trkpt><trkpt lat="42.6855675" lon="13.2672933"><ele>774.0</ele><time>2026-04-26T11:09:18.039Z</time></trkpt><trkpt lat="42.6853147" lon="13.2675197"><ele>767.0</ele><time>2026-04-26T11:09:19.039Z</time></trkpt><trkpt lat="42.6850604" lon="13.2677201"><ele>760.0</ele><time>2026-04-26T11:09:20.038Z</time></trkpt><trkpt lat="42.6847998" lon="13.2678725"><ele>760.0</ele><time>2026-04-26T11:09:21.038Z</time></trkpt><trkpt lat="42.6845345" lon="13.2680087"><ele>760.0</ele><time>2026-04-26T11:09:22.038Z</time></trkpt><trkpt lat="42.6842654" lon="13.2680988"><ele>755.0</ele><time>2026-04-26T11:09:23.039Z</time></trkpt><trkpt lat="42.6839671" lon="13.2680717"><ele>750.0</ele><time>2026-04-26T11:09:24.038Z</time></trkpt><trkpt lat="42.6837215" lon="13.2681099"><ele>750.5</ele><time>2026-04-26T11:09:25.039Z</time></trkpt><trkpt lat="42.68344" lon="13.2680234"><ele>751.0</ele><time>2026-04-26T11:09:26.038Z</time></trkpt><trkpt lat="42.6831586" lon="13.2679391"><ele>751.0</ele><time>2026-04-26T11:09:27.038Z</time></trkpt><trkpt lat="42.6828882" lon="13.2678468"><ele>751.0</ele><time>2026-04-26T11:09:28.039Z</time></trkpt><trkpt lat="42.6825982" lon="13.2676845"><ele>753.0</ele><time>2026-04-26T11:09:29.038Z</time></trkpt><trkpt lat="42.6823133" lon="13.2675747"><ele>755.0</ele><time>2026-04-26T11:09:30.038Z</time></trkpt><trkpt lat="42.6820882" lon="13.2675098"><ele>756.0</ele><time>2026-04-26T11:09:31.038Z</time></trkpt><trkpt lat="42.6818988" lon="13.2674691"><ele>757.0</ele><time>2026-04-26T11:09:32.038Z</time></trkpt><trkpt lat="42.6816915" lon="13.2674208"><ele>758.0</ele><time>2026-04-26T11:09:33.038Z</time></trkpt><trkpt lat="42.6814573" lon="13.2673924"><ele>758.0</ele><time>2026-04-26T11:09:34.039Z</time></trkpt><trkpt lat="42.6800986" lon="13.2685207"><ele>758.0</ele><time>2026-04-26T11:09:35.038Z</time></trkpt><trkpt lat="42.6798512" lon="13.2686423"><ele>758.0</ele><time>2026-04-26T11:09:36.038Z</time></trkpt><trkpt lat="42.6795883" lon="13.2687299"><ele>757.0</ele><time>2026-04-26T11:09:37.038Z</time></trkpt><trkpt lat="42.6793242" lon="13.2687846"><ele>756.0</ele><time>2026-04-26T11:09:38.039Z</time></trkpt><trkpt lat="42.6790449" lon="13.2688028"><ele>756.0</ele><time>2026-04-26T11:09:39.038Z</time></trkpt><trkpt lat="42.6787551" lon="13.2687681"><ele>756.0</ele><time>2026-04-26T11:09:40.039Z</time></trkpt><trkpt lat="42.6784688" lon="13.2686932"><ele>757.5</ele><time>2026-04-26T11:09:41.038Z</time></trkpt><trkpt lat="42.6781852" lon="13.2685902"><ele>759.0</ele><time>2026-04-26T11:09:42.038Z</time></trkpt><trkpt lat="42.6778951" lon="13.2684622"><ele>761.0</ele><time>2026-04-26T11:09:43.038Z</time></trkpt><trkpt lat="42.6776023" lon="13.2683292"><ele>763.0</ele><time>2026-04-26T11:09:44.038Z</time></trkpt><trkpt lat="42.6773155" lon="13.2681899"><ele>762.0</ele><time>2026-04-26T11:09:45.039Z</time></trkpt><trkpt lat="42.6770334" lon="13.2680556"><ele>761.0</ele><time>2026-04-26T11:09:46.039Z</time></trkpt><trkpt lat="42.6767498" lon="13.2679201"><ele>761.0</ele><time>2026-04-26T11:09:47.038Z</time></trkpt><trkpt lat="42.6764646" lon="13.2677837"><ele>761.0</ele><time>2026-04-26T11:09:48.038Z</time></trkpt><trkpt lat="42.6761847" lon="13.2676372"><ele>766.5</ele><time>2026-04-26T11:09:49.038Z</time></trkpt><trkpt lat="42.6759013" lon="13.2674917"><ele>772.0</ele><time>2026-04-26T11:09:50.038Z</time></trkpt><trkpt lat="42.6756202" lon="13.2673435"><ele>768.5</ele><time>2026-04-26T11:09:51.038Z</time></trkpt><trkpt lat="42.6753385" lon="13.2672111"><ele>765.0</ele><time>2026-04-26T11:09:52.038Z</time></trkpt><trkpt lat="42.6750606" lon="13.2670696"><ele>765.0</ele><time>2026-04-26T11:09:53.038Z</time></trkpt><trkpt lat="42.6747876" lon="13.2669387"><ele>765.0</ele><time>2026-04-26T11:09:54.038Z</time></trkpt><trkpt lat="42.6745252" lon="13.2668094"><ele>769.5</ele><time>2026-04-26T11:09:55.039Z</time></trkpt><trkpt lat="42.6742716" lon="13.2666869"><ele>774.0</ele><time>2026-04-26T11:09:56.038Z</time></trkpt><trkpt lat="42.6740243" lon="13.266561"><ele>774.0</ele><time>2026-04-26T11:09:57.038Z</time></trkpt><trkpt lat="42.6737829" lon="13.2664448"><ele>774.0</ele><time>2026-04-26T11:09:58.039Z</time></trkpt><trkpt lat="42.6735476" lon="13.2663326"><ele>769.5</ele><time>2026-04-26T11:09:59.038Z</time></trkpt><trkpt lat="42.6733204" lon="13.2662146"><ele>765.0</ele><time>2026-04-26T11:10:00.039Z</time></trkpt><trkpt lat="42.6730918" lon="13.2660955"><ele>765.0</ele><time>2026-04-26T11:10:01.038Z</time></trkpt><trkpt lat="42.6728623" lon="13.2659894"><ele>765.0</ele><time>2026-04-26T11:10:02.038Z</time></trkpt><trkpt lat="42.6726315" lon="13.265882"><ele>768.0</ele><time>2026-04-26T11:10:03.038Z</time></trkpt><trkpt lat="42.672392" lon="13.2657872"><ele>771.0</ele><time>2026-04-26T11:10:04.038Z</time></trkpt><trkpt lat="42.672148" lon="13.2657167"><ele>775.5</ele><time>2026-04-26T11:10:05.038Z</time></trkpt><trkpt lat="42.6718941" lon="13.2656766"><ele>780.0</ele><time>2026-04-26T11:10:06.038Z</time></trkpt><trkpt lat="42.6716343" lon="13.2656683"><ele>780.0</ele><time>2026-04-26T11:10:07.038Z</time></trkpt><trkpt lat="42.6713654" lon="13.2656851"><ele>780.0</ele><time>2026-04-26T11:10:08.038Z</time></trkpt><trkpt lat="42.6710902" lon="13.2657133"><ele>778.0</ele><time>2026-04-26T11:10:09.038Z</time></trkpt><trkpt lat="42.67082" lon="13.2657456"><ele>776.0</ele><time>2026-04-26T11:10:10.038Z</time></trkpt><trkpt lat="42.6705557" lon="13.2657746"><ele>776.0</ele><time>2026-04-26T11:10:11.038Z</time></trkpt><trkpt lat="42.6702911" lon="13.2658024"><ele>776.0</ele><time>2026-04-26T11:10:12.039Z</time></trkpt><trkpt lat="42.670031" lon="13.2658142"><ele>776.5</ele><time>2026-04-26T11:10:13.038Z</time></trkpt><trkpt lat="42.6697746" lon="13.2657847"><ele>777.0</ele><time>2026-04-26T11:10:14.038Z</time></trkpt><trkpt lat="42.6695084" lon="13.2657155"><ele>773.5</ele><time>2026-04-26T11:10:15.039Z</time></trkpt><trkpt lat="42.669256" lon="13.2656054"><ele>770.0</ele><time>2026-04-26T11:10:16.038Z</time></trkpt><trkpt lat="42.6689993" lon="13.2654313"><ele>770.0</ele><time>2026-04-26T11:10:17.038Z</time></trkpt><trkpt lat="42.668743" lon="13.2652524"><ele>770.0</ele><time>2026-04-26T11:10:18.038Z</time></trkpt><trkpt lat="42.6684905" lon="13.2650292"><ele>772.5</ele><time>2026-04-26T11:10:19.038Z</time></trkpt><trkpt lat="42.6682426" lon="13.2647862"><ele>775.0</ele><time>2026-04-26T11:10:20.038Z</time></trkpt><trkpt lat="42.6680057" lon="13.2645085"><ele>775.0</ele><time>2026-04-26T11:10:21.039Z</time></trkpt><trkpt lat="42.6677772" lon="13.2642156"><ele>775.0</ele><time>2026-04-26T11:10:22.038Z</time></trkpt><trkpt lat="42.6675551" lon="13.2639142"><ele>779.5</ele><time>2026-04-26T11:10:23.047Z</time></trkpt><trkpt lat="42.6673257" lon="13.2636082"><ele>784.0</ele><time>2026-04-26T11:10:24.047Z</time></trkpt><trkpt lat="42.6670927" lon="13.2633067"><ele>799.0</ele><time>2026-04-26T11:10:25.047Z</time></trkpt><trkpt lat="42.6668209" lon="13.2630463"><ele>814.0</ele><time>2026-04-26T11:10:26.047Z</time></trkpt><trkpt lat="42.6665918" lon="13.2628348"><ele>814.0</ele><time>2026-04-26T11:10:27.047Z</time></trkpt><trkpt lat="42.6663381" lon="13.2626901"><ele>814.0</ele><time>2026-04-26T11:10:28.047Z</time></trkpt><trkpt lat="42.6660877" lon="13.2625644"><ele>819.5</ele><time>2026-04-26T11:10:29.047Z</time></trkpt><trkpt lat="42.6658466" lon="13.2624577"><ele>825.0</ele><time>2026-04-26T11:10:30.047Z</time></trkpt><trkpt lat="42.6656119" lon="13.2623983"><ele>825.0</ele><time>2026-04-26T11:10:31.047Z</time></trkpt><trkpt lat="42.6653794" lon="13.2622863"><ele>825.0</ele><time>2026-04-26T11:10:32.047Z</time></trkpt><trkpt lat="42.6651355" lon="13.2621833"><ele>842.0</ele><time>2026-04-26T11:10:33.047Z</time></trkpt><trkpt lat="42.66474" lon="13.2622375"><ele>859.0</ele><time>2026-04-26T11:10:34.047Z</time></trkpt><trkpt lat="42.6644704" lon="13.2622781"><ele>842.5</ele><time>2026-04-26T11:10:35.047Z</time></trkpt><trkpt lat="42.6641948" lon="13.262469"><ele>826.0</ele><time>2026-04-26T11:10:36.047Z</time></trkpt><trkpt lat="42.6639501" lon="13.2627019"><ele>781.0</ele><time>2026-04-26T11:10:37.047Z</time></trkpt><trkpt lat="42.6637889" lon="13.2664531"><ele>781.0</ele><time>2026-04-26T11:10:38.047Z</time></trkpt><trkpt lat="42.6636411" lon="13.2667723"><ele>781.0</ele><time>2026-04-26T11:10:39.047Z</time></trkpt><trkpt lat="42.6634982" lon="13.2670871"><ele>784.5</ele><time>2026-04-26T11:10:40.047Z</time></trkpt><trkpt lat="42.6633579" lon="13.2674083"><ele>788.0</ele><time>2026-04-26T11:10:41.048Z</time></trkpt><trkpt lat="42.6632147" lon="13.2677326"><ele>788.0</ele><time>2026-04-26T11:10:42.048Z</time></trkpt><trkpt lat="42.6630509" lon="13.2680366"><ele>788.0</ele><time>2026-04-26T11:10:43.048Z</time></trkpt><trkpt lat="42.6628684" lon="13.2683055"><ele>792.0</ele><time>2026-04-26T11:10:44.047Z</time></trkpt><trkpt lat="42.6626592" lon="13.2685426"><ele>796.0</ele><time>2026-04-26T11:10:45.047Z</time></trkpt><trkpt lat="42.6624289" lon="13.2687544"><ele>801.5</ele><time>2026-04-26T11:10:46.047Z</time></trkpt><trkpt lat="42.6621834" lon="13.2689468"><ele>807.0</ele><time>2026-04-26T11:10:47.047Z</time></trkpt><trkpt lat="42.6619228" lon="13.2691323"><ele>807.0</ele><time>2026-04-26T11:10:48.047Z</time></trkpt><trkpt lat="42.661666" lon="13.2693172"><ele>807.0</ele><time>2026-04-26T11:10:49.047Z</time></trkpt><trkpt lat="42.6614071" lon="13.2695089"><ele>807.0</ele><time>2026-04-26T11:10:50.048Z</time></trkpt><trkpt lat="42.6611516" lon="13.2696932"><ele>807.0</ele><time>2026-04-26T11:10:51.047Z</time></trkpt><trkpt lat="42.6609002" lon="13.2698661"><ele>812.5</ele><time>2026-04-26T11:10:52.048Z</time></trkpt><trkpt lat="42.6606428" lon="13.270017"><ele>818.0</ele><time>2026-04-26T11:10:53.047Z</time></trkpt><trkpt lat="42.6603876" lon="13.2701509"><ele>811.0</ele><time>2026-04-26T11:10:54.047Z</time></trkpt><trkpt lat="42.6601294" lon="13.2702698"><ele>804.0</ele><time>2026-04-26T11:10:55.047Z</time></trkpt><trkpt lat="42.6598663" lon="13.2703677"><ele>804.0</ele><time>2026-04-26T11:10:56.047Z</time></trkpt><trkpt lat="42.6595985" lon="13.2704515"><ele>804.0</ele><time>2026-04-26T11:10:57.048Z</time></trkpt><trkpt lat="42.6593236" lon="13.2705033"><ele>801.0</ele><time>2026-04-26T11:10:58.047Z</time></trkpt><trkpt lat="42.6590432" lon="13.2705163"><ele>798.0</ele><time>2026-04-26T11:10:59.047Z</time></trkpt><trkpt lat="42.6587508" lon="13.2705034"><ele>796.5</ele><time>2026-04-26T11:11:00.047Z</time></trkpt><trkpt lat="42.6584569" lon="13.2704724"><ele>795.0</ele><time>2026-04-26T11:11:01.047Z</time></trkpt><trkpt lat="42.658165" lon="13.2704233"><ele>795.0</ele><time>2026-04-26T11:11:02.047Z</time></trkpt><trkpt lat="42.6578725" lon="13.2703737"><ele>795.0</ele><time>2026-04-26T11:11:03.047Z</time></trkpt><trkpt lat="42.6575757" lon="13.2703246"><ele>802.5</ele><time>2026-04-26T11:11:04.047Z</time></trkpt><trkpt lat="42.6572799" lon="13.2702868"><ele>810.0</ele><time>2026-04-26T11:11:05.047Z</time></trkpt><trkpt lat="42.6569875" lon="13.2702472"><ele>823.0</ele><time>2026-04-26T11:11:06.048Z</time></trkpt><trkpt lat="42.6567013" lon="13.2702207"><ele>836.0</ele><time>2026-04-26T11:11:07.047Z</time></trkpt><trkpt lat="42.6564119" lon="13.2702163"><ele>836.0</ele><time>2026-04-26T11:11:08.047Z</time></trkpt><trkpt lat="42.6561327" lon="13.2702688"><ele>836.0</ele><time>2026-04-26T11:11:09.047Z</time></trkpt><trkpt lat="42.6558468" lon="13.270318"><ele>844.0</ele><time>2026-04-26T11:11:10.047Z</time></trkpt><trkpt lat="42.6555631" lon="13.2703953"><ele>852.0</ele><time>2026-04-26T11:11:11.048Z</time></trkpt><trkpt lat="42.6552853" lon="13.2704926"><ele>845.5</ele><time>2026-04-26T11:11:12.048Z</time></trkpt><trkpt lat="42.6550132" lon="13.2705971"><ele>839.0</ele><time>2026-04-26T11:11:13.047Z</time></trkpt><trkpt lat="42.6547424" lon="13.2707056"><ele>839.0</ele><time>2026-04-26T11:11:14.047Z</time></trkpt><trkpt lat="42.6544613" lon="13.2707893"><ele>839.0</ele><time>2026-04-26T11:11:15.047Z</time></trkpt><trkpt lat="42.654177" lon="13.2708453"><ele>845.5</ele><time>2026-04-26T11:11:16.047Z</time></trkpt><trkpt lat="42.6538957" lon="13.2708809"><ele>852.0</ele><time>2026-04-26T11:11:17.048Z</time></trkpt><trkpt lat="42.6536051" lon="13.2708717"><ele>855.0</ele><time>2026-04-26T11:11:18.047Z</time></trkpt><trkpt lat="42.6533233" lon="13.2708538"><ele>858.0</ele><time>2026-04-26T11:11:19.047Z</time></trkpt><trkpt lat="42.6530402" lon="13.2708071"><ele>860.0</ele><time>2026-04-26T11:11:20.047Z</time></trkpt><trkpt lat="42.6527587" lon="13.2707445"><ele>862.0</ele><time>2026-04-26T11:11:21.048Z</time></trkpt><trkpt lat="42.6524742" lon="13.2706842"><ele>862.0</ele><time>2026-04-26T11:11:22.048Z</time></trkpt><trkpt lat="42.6521867" lon="13.2706218"><ele>862.0</ele><time>2026-04-26T11:11:23.047Z</time></trkpt><trkpt lat="42.6518982" lon="13.270557"><ele>871.5</ele><time>2026-04-26T11:11:24.048Z</time></trkpt><trkpt lat="42.6516084" lon="13.2704977"><ele>881.0</ele><time>2026-04-26T11:11:25.047Z</time></trkpt><trkpt lat="42.6513229" lon="13.2704324"><ele>880.0</ele><time>2026-04-26T11:11:26.048Z</time></trkpt><trkpt lat="42.6510382" lon="13.2703672"><ele>879.0</ele><time>2026-04-26T11:11:27.047Z</time></trkpt><trkpt lat="42.6507523" lon="13.2703052"><ele>879.0</ele><time>2026-04-26T11:11:28.048Z</time></trkpt><trkpt lat="42.6504681" lon="13.2702492"><ele>879.0</ele><time>2026-04-26T11:11:29.048Z</time></trkpt><trkpt lat="42.650184" lon="13.2701928"><ele>881.0</ele><time>2026-04-26T11:11:30.047Z</time></trkpt><trkpt lat="42.6499038" lon="13.2701332"><ele>883.0</ele><time>2026-04-26T11:11:31.048Z</time></trkpt><trkpt lat="42.6496242" lon="13.270075"><ele>887.5</ele><time>2026-04-26T11:11:32.047Z</time></trkpt><trkpt lat="42.6493463" lon="13.270016"><ele>892.0</ele><time>2026-04-26T11:11:33.048Z</time></trkpt><trkpt lat="42.6490692" lon="13.2699488"><ele>892.0</ele><time>2026-04-26T11:11:34.047Z</time></trkpt><trkpt lat="42.6487938" lon="13.269876"><ele>892.0</ele><time>2026-04-26T11:11:35.047Z</time></trkpt><trkpt lat="42.648517" lon="13.2698009"><ele>900.5</ele><time>2026-04-26T11:11:36.048Z</time></trkpt><trkpt lat="42.648239" lon="13.2697357"><ele>909.0</ele><time>2026-04-26T11:11:37.048Z</time></trkpt><trkpt lat="42.6479671" lon="13.269717"><ele>901.0</ele><time>2026-04-26T11:11:38.047Z</time></trkpt><trkpt lat="42.6476627" lon="13.2697808"><ele>893.0</ele><time>2026-04-26T11:11:39.048Z</time></trkpt><trkpt lat="42.6473122" lon="13.2698414"><ele>893.0</ele><time>2026-04-26T11:11:40.047Z</time></trkpt><trkpt lat="42.6470321" lon="13.2699085"><ele>893.0</ele><time>2026-04-26T11:11:41.047Z</time></trkpt><trkpt lat="42.6467421" lon="13.269932"><ele>894.0</ele><time>2026-04-26T11:11:42.048Z</time></trkpt><trkpt lat="42.6464799" lon="13.2699784"><ele>895.0</ele><time>2026-04-26T11:11:43.047Z</time></trkpt><trkpt lat="42.6462333" lon="13.2700497"><ele>895.6666666666666</ele><time>2026-04-26T11:11:44.047Z</time></trkpt><trkpt lat="42.6460076" lon="13.2701166"><ele>896.3333333333333</ele><time>2026-04-26T11:11:45.048Z</time></trkpt><trkpt lat="42.6457988" lon="13.2701538"><ele>897.0</ele><time>2026-04-26T11:11:46.047Z</time></trkpt><trkpt lat="42.6455975" lon="13.2701587"><ele>897.0</ele><time>2026-04-26T11:11:47.047Z</time></trkpt><trkpt lat="42.6454015" lon="13.2701473"><ele>897.0</ele><time>2026-04-26T11:11:48.048Z</time></trkpt><trkpt lat="42.6452212" lon="13.2701231"><ele>897.0</ele><time>2026-04-26T11:11:49.047Z</time></trkpt><trkpt lat="42.645055" lon="13.2700793"><ele>894.0</ele><time>2026-04-26T11:11:50.048Z</time></trkpt><trkpt lat="42.6449127" lon="13.2700297"><ele>891.0</ele><time>2026-04-26T11:11:51.047Z</time></trkpt><trkpt lat="42.6447696" lon="13.2699425"><ele>888.0</ele><time>2026-04-26T11:11:52.047Z</time></trkpt><trkpt lat="42.6446392" lon="13.2698416"><ele>894.3333333333333</ele><time>2026-04-26T11:11:53.047Z</time></trkpt><trkpt lat="42.6445114" lon="13.2696592"><ele>900.6666666666666</ele><time>2026-04-26T11:11:54.047Z</time></trkpt><trkpt lat="42.6443802" lon="13.2694643"><ele>907.0</ele><time>2026-04-26T11:11:55.047Z</time></trkpt><trkpt lat="42.6442595" lon="13.2692511"><ele>911.0</ele><time>2026-04-26T11:11:56.047Z</time></trkpt><trkpt lat="42.644091" lon="13.2688739"><ele>915.0</ele><time>2026-04-26T11:11:57.047Z</time></trkpt><trkpt lat="42.6439888" lon="13.2686228"><ele>896.0</ele><time>2026-04-26T11:11:58.047Z</time></trkpt><trkpt lat="42.6433171" lon="13.2668869"><ele>896.0</ele><time>2026-04-26T11:11:59.048Z</time></trkpt><trkpt lat="42.6432549" lon="13.2665538"><ele>896.0</ele><time>2026-04-26T11:12:00.047Z</time></trkpt><trkpt lat="42.6432139" lon="13.2662177"><ele>901.5</ele><time>2026-04-26T11:12:01.047Z</time></trkpt><trkpt lat="42.6431822" lon="13.2658794"><ele>907.0</ele><time>2026-04-26T11:12:02.047Z</time></trkpt><trkpt lat="42.643162" lon="13.2655345"><ele>911.5</ele><time>2026-04-26T11:12:03.047Z</time></trkpt><trkpt lat="42.643141" lon="13.2651894"><ele>916.0</ele><time>2026-04-26T11:12:04.047Z</time></trkpt><trkpt lat="42.6431148" lon="13.2648379"><ele>916.5</ele><time>2026-04-26T11:12:05.047Z</time></trkpt><trkpt lat="42.6430901" lon="13.2644946"><ele>917.0</ele><time>2026-04-26T11:12:06.047Z</time></trkpt><trkpt lat="42.6430703" lon="13.2641471"><ele>917.0</ele><time>2026-04-26T11:12:07.047Z</time></trkpt><trkpt lat="42.6430447" lon="13.2637908"><ele>917.0</ele><time>2026-04-26T11:12:08.047Z</time></trkpt><trkpt lat="42.6430211" lon="13.263438"><ele>916.5</ele><time>2026-04-26T11:12:09.047Z</time></trkpt><trkpt lat="42.6429959" lon="13.263081"><ele>916.0</ele><time>2026-04-26T11:12:10.047Z</time></trkpt><trkpt lat="42.6429704" lon="13.2627099"><ele>916.0</ele><time>2026-04-26T11:12:11.046Z</time></trkpt><trkpt lat="42.6429415" lon="13.2623321"><ele>916.0</ele><time>2026-04-26T11:12:12.046Z</time></trkpt><trkpt lat="42.6429155" lon="13.2619485"><ele>915.5</ele><time>2026-04-26T11:12:13.046Z</time></trkpt><trkpt lat="42.6428917" lon="13.2615625"><ele>915.0</ele><time>2026-04-26T11:12:14.047Z</time></trkpt><trkpt lat="42.6428665" lon="13.261181"><ele>915.0</ele><time>2026-04-26T11:12:15.046Z</time></trkpt><trkpt lat="42.6428462" lon="13.2608053"><ele>915.0</ele><time>2026-04-26T11:12:16.046Z</time></trkpt><trkpt lat="42.6428098" lon="13.2604337"><ele>913.5</ele><time>2026-04-26T11:12:17.047Z</time></trkpt><trkpt lat="42.6427537" lon="13.2600662"><ele>912.0</ele><time>2026-04-26T11:12:18.046Z</time></trkpt><trkpt lat="42.6426865" lon="13.2596938"><ele>912.0</ele><time>2026-04-26T11:12:19.046Z</time></trkpt><trkpt lat="42.6426" lon="13.2593243"><ele>912.0</ele><time>2026-04-26T11:12:20.046Z</time></trkpt><trkpt lat="42.6424932" lon="13.2589624"><ele>915.5</ele><time>2026-04-26T11:12:21.046Z</time></trkpt><trkpt lat="42.6423714" lon="13.2586037"><ele>919.0</ele><time>2026-04-26T11:12:22.046Z</time></trkpt><trkpt lat="42.6422364" lon="13.2582537"><ele>917.0</ele><time>2026-04-26T11:12:23.046Z</time></trkpt><trkpt lat="42.642087" lon="13.2579226"><ele>915.0</ele><time>2026-04-26T11:12:24.046Z</time></trkpt><trkpt lat="42.6419202" lon="13.2576089"><ele>915.0</ele><time>2026-04-26T11:12:25.047Z</time></trkpt><trkpt lat="42.6417374" lon="13.2573052"><ele>915.0</ele><time>2026-04-26T11:12:26.046Z</time></trkpt><trkpt lat="42.6415447" lon="13.2570113"><ele>919.0</ele><time>2026-04-26T11:12:27.046Z</time></trkpt><trkpt lat="42.6413412" lon="13.256729"><ele>923.0</ele><time>2026-04-26T11:12:28.046Z</time></trkpt><trkpt lat="42.6411313" lon="13.2564489"><ele>923.0</ele><time>2026-04-26T11:12:29.046Z</time></trkpt><trkpt lat="42.6409448" lon="13.2561613"><ele>923.0</ele><time>2026-04-26T11:12:30.047Z</time></trkpt><trkpt lat="42.6407402" lon="13.2558937"><ele>923.0</ele><time>2026-04-26T11:12:31.046Z</time></trkpt><trkpt lat="42.6405395" lon="13.2556344"><ele>923.0</ele><time>2026-04-26T11:12:32.046Z</time></trkpt><trkpt lat="42.6403555" lon="13.2553868"><ele>923.5</ele><time>2026-04-26T11:12:33.046Z</time></trkpt><trkpt lat="42.6402141" lon="13.2550991"><ele>924.0</ele><time>2026-04-26T11:12:34.047Z</time></trkpt><trkpt lat="42.6400895" lon="13.2548395"><ele>922.0</ele><time>2026-04-26T11:12:35.046Z</time></trkpt><trkpt lat="42.6400011" lon="13.2545518"><ele>920.0</ele><time>2026-04-26T11:12:36.047Z</time></trkpt><trkpt lat="42.6399769" lon="13.2542233"><ele>916.5</ele><time>2026-04-26T11:12:37.046Z</time></trkpt><trkpt lat="42.6399594" lon="13.2539295"><ele>913.0</ele><time>2026-04-26T11:12:38.046Z</time></trkpt><trkpt lat="42.6399188" lon="13.253607"><ele>913.0</ele><time>2026-04-26T11:12:39.046Z</time></trkpt><trkpt lat="42.6398999" lon="13.2532436"><ele>913.0</ele><time>2026-04-26T11:12:40.046Z</time></trkpt><trkpt lat="42.6398715" lon="13.252848"><ele>917.0</ele><time>2026-04-26T11:12:41.046Z</time></trkpt><trkpt lat="42.6398916" lon="13.2524314"><ele>921.0</ele><time>2026-04-26T11:12:42.046Z</time></trkpt><trkpt lat="42.6399397" lon="13.2520082"><ele>926.0</ele><time>2026-04-26T11:12:43.046Z</time></trkpt><trkpt lat="42.6399885" lon="13.2516123"><ele>931.0</ele><time>2026-04-26T11:12:44.046Z</time></trkpt><trkpt lat="42.6400529" lon="13.2512131"><ele>937.5</ele><time>2026-04-26T11:12:45.046Z</time></trkpt><trkpt lat="42.640054" lon="13.2508208"><ele>944.0</ele><time>2026-04-26T11:12:46.047Z</time></trkpt><trkpt lat="42.63963" lon="13.2508715"><ele>944.0</ele><time>2026-04-26T11:12:47.046Z</time></trkpt><trkpt lat="42.6394526" lon="13.2505888"><ele>944.0</ele><time>2026-04-26T11:12:48.046Z</time></trkpt><trkpt lat="42.6392627" lon="13.2503089"><ele>944.0</ele><time>2026-04-26T11:12:49.046Z</time></trkpt><trkpt lat="42.6390866" lon="13.2500457"><ele>944.0</ele><time>2026-04-26T11:12:50.047Z</time></trkpt><trkpt lat="42.6389026" lon="13.2497968"><ele>942.5</ele><time>2026-04-26T11:12:51.046Z</time></trkpt><trkpt lat="42.6387079" lon="13.249582"><ele>941.0</ele><time>2026-04-26T11:12:52.046Z</time></trkpt><trkpt lat="42.6384993" lon="13.2494097"><ele>941.0</ele><time>2026-04-26T11:12:53.047Z</time></trkpt><trkpt lat="42.6382687" lon="13.2492774"><ele>941.0</ele><time>2026-04-26T11:12:54.046Z</time></trkpt><trkpt lat="42.638041" lon="13.2491797"><ele>941.0</ele><time>2026-04-26T11:12:55.046Z</time></trkpt><trkpt lat="42.6378037" lon="13.2491183"><ele>941.0</ele><time>2026-04-26T11:12:56.046Z</time></trkpt><trkpt lat="42.6375596" lon="13.2490987"><ele>942.0</ele><time>2026-04-26T11:12:57.046Z</time></trkpt><trkpt lat="42.6373182" lon="13.2491234"><ele>943.0</ele><time>2026-04-26T11:12:58.046Z</time></trkpt><trkpt lat="42.6370754" lon="13.2491795"><ele>943.0</ele><time>2026-04-26T11:12:59.046Z</time></trkpt><trkpt lat="42.6368451" lon="13.2492559"><ele>943.0</ele><time>2026-04-26T11:13:00.046Z</time></trkpt><trkpt lat="42.6366268" lon="13.2493745"><ele>943.0</ele><time>2026-04-26T11:13:01.046Z</time></trkpt><trkpt lat="42.6364159" lon="13.2494755"><ele>943.0</ele><time>2026-04-26T11:13:02.046Z</time></trkpt><trkpt lat="42.6361904" lon="13.2495496"><ele>948.5</ele><time>2026-04-26T11:13:03.047Z</time></trkpt><trkpt lat="42.635962" lon="13.249583"><ele>954.0</ele><time>2026-04-26T11:13:04.046Z</time></trkpt><trkpt lat="42.6357345" lon="13.2495779"><ele>954.0</ele><time>2026-04-26T11:13:05.047Z</time></trkpt><trkpt lat="42.635507" lon="13.2495348"><ele>954.0</ele><time>2026-04-26T11:13:06.046Z</time></trkpt><trkpt lat="42.6352862" lon="13.2494743"><ele>956.6666666666667</ele><time>2026-04-26T11:13:07.046Z</time></trkpt><trkpt lat="42.6350884" lon="13.2493848"><ele>959.3333333333334</ele><time>2026-04-26T11:13:08.046Z</time></trkpt><trkpt lat="42.6349003" lon="13.2492829"><ele>962.0</ele><time>2026-04-26T11:13:09.047Z</time></trkpt><trkpt lat="42.6347196" lon="13.2491673"><ele>959.0</ele><time>2026-04-26T11:13:10.046Z</time></trkpt><trkpt lat="42.6341146" lon="13.2485482"><ele>959.0</ele><time>2026-04-26T11:13:14.046Z</time></trkpt><trkpt lat="42.6339767" lon="13.2483519"><ele>959.0</ele><time>2026-04-26T11:13:15.046Z</time></trkpt><trkpt lat="42.633802" lon="13.2481497"><ele>959.0</ele><time>2026-04-26T11:13:16.047Z</time></trkpt><trkpt lat="42.6336485" lon="13.2479294"><ele>957.0</ele><time>2026-04-26T11:13:17.046Z</time></trkpt><trkpt lat="42.6334903" lon="13.2476877"><ele>955.0</ele><time>2026-04-26T11:13:18.046Z</time></trkpt><trkpt lat="42.6333366" lon="13.2474235"><ele>962.0</ele><time>2026-04-26T11:13:19.046Z</time></trkpt><trkpt lat="42.6331764" lon="13.2471499"><ele>969.0</ele><time>2026-04-26T11:13:20.047Z</time></trkpt><trkpt lat="42.633006" lon="13.2468857"><ele>969.0</ele><time>2026-04-26T11:13:21.046Z</time></trkpt><trkpt lat="42.6328412" lon="13.2466109"><ele>969.0</ele><time>2026-04-26T11:13:22.046Z</time></trkpt><trkpt lat="42.6326656" lon="13.2463326"><ele>970.0</ele><time>2026-04-26T11:13:23.046Z</time></trkpt><trkpt lat="42.6324887" lon="13.2460679"><ele>971.0</ele><time>2026-04-26T11:13:24.047Z</time></trkpt><trkpt lat="42.6323091" lon="13.2458117"><ele>970.5</ele><time>2026-04-26T11:13:25.046Z</time></trkpt><trkpt lat="42.6321298" lon="13.2455703"><ele>970.0</ele><time>2026-04-26T11:13:26.046Z</time></trkpt><trkpt lat="42.6319258" lon="13.2453478"><ele>970.0</ele><time>2026-04-26T11:13:27.047Z</time></trkpt><trkpt lat="42.6317042" lon="13.2451436"><ele>970.0</ele><time>2026-04-26T11:13:28.047Z</time></trkpt><trkpt lat="42.6314649" lon="13.2449713"><ele>970.0</ele><time>2026-04-26T11:13:29.046Z</time></trkpt><trkpt lat="42.6312318" lon="13.2448158"><ele>970.0</ele><time>2026-04-26T11:13:30.047Z</time></trkpt><trkpt lat="42.6309946" lon="13.2446479"><ele>972.5</ele><time>2026-04-26T11:13:31.046Z</time></trkpt><trkpt lat="42.6307677" lon="13.244477"><ele>975.0</ele><time>2026-04-26T11:13:32.046Z</time></trkpt><trkpt lat="42.63054" lon="13.2443025"><ele>974.5</ele><time>2026-04-26T11:13:33.046Z</time></trkpt><trkpt lat="42.6303066" lon="13.2441391"><ele>974.0</ele><time>2026-04-26T11:13:34.046Z</time></trkpt><trkpt lat="42.6300797" lon="13.2439762"><ele>975.5</ele><time>2026-04-26T11:13:35.046Z</time></trkpt><trkpt lat="42.629844" lon="13.2438118"><ele>977.0</ele><time>2026-04-26T11:13:36.047Z</time></trkpt><trkpt lat="42.6296066" lon="13.2436383"><ele>980.0</ele><time>2026-04-26T11:13:37.046Z</time></trkpt><trkpt lat="42.6293702" lon="13.2434591"><ele>983.0</ele><time>2026-04-26T11:13:38.047Z</time></trkpt><trkpt lat="42.6291284" lon="13.2432803"><ele>985.5</ele><time>2026-04-26T11:13:39.046Z</time></trkpt><trkpt lat="42.6288841" lon="13.2431085"><ele>988.0</ele><time>2026-04-26T11:13:40.046Z</time></trkpt><trkpt lat="42.6286415" lon="13.2429341"><ele>988.0</ele><time>2026-04-26T11:13:41.046Z</time></trkpt><trkpt lat="42.6283976" lon="13.2427566"><ele>988.0</ele><time>2026-04-26T11:13:42.046Z</time></trkpt><trkpt lat="42.6281592" lon="13.2425906"><ele>988.0</ele><time>2026-04-26T11:13:43.047Z</time></trkpt><trkpt lat="42.6279266" lon="13.2424235"><ele>988.0</ele><time>2026-04-26T11:13:44.046Z</time></trkpt><trkpt lat="42.6277014" lon="13.2422579"><ele>991.0</ele><time>2026-04-26T11:13:45.047Z</time></trkpt><trkpt lat="42.6274813" lon="13.2420875"><ele>994.0</ele><time>2026-04-26T11:13:46.047Z</time></trkpt><trkpt lat="42.6272641" lon="13.2418958"><ele>994.0</ele><time>2026-04-26T11:13:47.046Z</time></trkpt><trkpt lat="42.6270566" lon="13.2416718"><ele>994.0</ele><time>2026-04-26T11:13:48.046Z</time></trkpt><trkpt lat="42.6268556" lon="13.2414295"><ele>995.5</ele><time>2026-04-26T11:13:49.046Z</time></trkpt><trkpt lat="42.6266769" lon="13.2411658"><ele>997.0</ele><time>2026-04-26T11:13:50.046Z</time></trkpt><trkpt lat="42.6265199" lon="13.2408893"><ele>996.0</ele><time>2026-04-26T11:13:51.046Z</time></trkpt><trkpt lat="42.6263555" lon="13.2406055"><ele>995.0</ele><time>2026-04-26T11:13:52.047Z</time></trkpt><trkpt lat="42.6261791" lon="13.2403143"><ele>991.5</ele><time>2026-04-26T11:13:53.046Z</time></trkpt><trkpt lat="42.6260055" lon="13.2400203"><ele>988.0</ele><time>2026-04-26T11:13:54.046Z</time></trkpt><trkpt lat="42.6258336" lon="13.2397181"><ele>986.5</ele><time>2026-04-26T11:13:55.046Z</time></trkpt><trkpt lat="42.6256529" lon="13.2394062"><ele>985.0</ele><time>2026-04-26T11:13:56.047Z</time></trkpt><trkpt lat="42.6254739" lon="13.2390981"><ele>983.0</ele><time>2026-04-26T11:13:57.047Z</time></trkpt><trkpt lat="42.6252906" lon="13.238792"><ele>981.0</ele><time>2026-04-26T11:13:58.046Z</time></trkpt><trkpt lat="42.6251075" lon="13.2384892"><ele>981.0</ele><time>2026-04-26T11:13:59.046Z</time></trkpt><trkpt lat="42.6249328" lon="13.2381826"><ele>981.0</ele><time>2026-04-26T11:14:00.046Z</time></trkpt><trkpt lat="42.6247598" lon="13.2378791"><ele>980.0</ele><time>2026-04-26T11:14:01.046Z</time></trkpt><trkpt lat="42.6245883" lon="13.2375778"><ele>979.0</ele><time>2026-04-26T11:14:02.046Z</time></trkpt><trkpt lat="42.6244145" lon="13.2372808"><ele>979.0</ele><time>2026-04-26T11:14:03.046Z</time></trkpt><trkpt lat="42.6242405" lon="13.2369863"><ele>979.0</ele><time>2026-04-26T11:14:04.046Z</time></trkpt><trkpt lat="42.6240694" lon="13.236683"><ele>980.0</ele><time>2026-04-26T11:14:05.046Z</time></trkpt><trkpt lat="42.6239042" lon="13.2364041"><ele>981.0</ele><time>2026-04-26T11:14:06.046Z</time></trkpt><trkpt lat="42.6237497" lon="13.2361366"><ele>980.5</ele><time>2026-04-26T11:14:07.046Z</time></trkpt><trkpt lat="42.6235977" lon="13.2358706"><ele>980.0</ele><time>2026-04-26T11:14:08.046Z</time></trkpt><trkpt lat="42.6234475" lon="13.235614"><ele>980.0</ele><time>2026-04-26T11:14:09.046Z</time></trkpt><trkpt lat="42.6232996" lon="13.2353561"><ele>980.0</ele><time>2026-04-26T11:14:10.047Z</time></trkpt><trkpt lat="42.6231518" lon="13.2351095"><ele>980.0</ele><time>2026-04-26T11:14:11.046Z</time></trkpt><trkpt lat="42.6230126" lon="13.2348686"><ele>980.0</ele><time>2026-04-26T11:14:12.046Z</time></trkpt><trkpt lat="42.6228703" lon="13.2346233"><ele>980.0</ele><time>2026-04-26T11:14:13.047Z</time></trkpt><trkpt lat="42.6227316" lon="13.2343789"><ele>980.0</ele><time>2026-04-26T11:14:14.046Z</time></trkpt><trkpt lat="42.6225997" lon="13.2341218"><ele>978.0</ele><time>2026-04-26T11:14:15.046Z</time></trkpt><trkpt lat="42.6224635" lon="13.2338677"><ele>976.0</ele><time>2026-04-26T11:14:16.047Z</time></trkpt><trkpt lat="42.6223331" lon="13.233621"><ele>976.0</ele><time>2026-04-26T11:14:17.046Z</time></trkpt><trkpt lat="42.6222038" lon="13.2333616"><ele>976.0</ele><time>2026-04-26T11:14:18.046Z</time></trkpt><trkpt lat="42.6220713" lon="13.2331171"><ele>974.5</ele><time>2026-04-26T11:14:19.047Z</time></trkpt><trkpt lat="42.6219381" lon="13.2328674"><ele>973.0</ele><time>2026-04-26T11:14:20.047Z</time></trkpt><trkpt lat="42.6218011" lon="13.2326207"><ele>973.0</ele><time>2026-04-26T11:14:21.046Z</time></trkpt><trkpt lat="42.6216631" lon="13.2323754"><ele>973.0</ele><time>2026-04-26T11:14:22.046Z</time></trkpt><trkpt lat="42.6215246" lon="13.2321173"><ele>973.0</ele><time>2026-04-26T11:14:23.047Z</time></trkpt><trkpt lat="42.6213889" lon="13.2318622"><ele>973.0</ele><time>2026-04-26T11:14:24.046Z</time></trkpt><trkpt lat="42.6212586" lon="13.2316087"><ele>973.6666666666666</ele><time>2026-04-26T11:14:25.046Z</time></trkpt><trkpt lat="42.6211391" lon="13.2313768"><ele>974.3333333333333</ele><time>2026-04-26T11:14:26.046Z</time></trkpt><trkpt lat="42.6210217" lon="13.231148"><ele>975.0</ele><time>2026-04-26T11:14:27.046Z</time></trkpt><trkpt lat="42.6209023" lon="13.2309206"><ele>975.0</ele><time>2026-04-26T11:14:28.047Z</time></trkpt><trkpt lat="42.6207928" lon="13.2307022"><ele>975.0</ele><time>2026-04-26T11:14:29.047Z</time></trkpt><trkpt lat="42.6206988" lon="13.23048"><ele>975.0</ele><time>2026-04-26T11:14:30.046Z</time></trkpt><trkpt lat="42.6206247" lon="13.2302519"><ele>975.6666666666667</ele><time>2026-04-26T11:14:31.046Z</time></trkpt><trkpt lat="42.6205562" lon="13.2300214"><ele>976.3333333333334</ele><time>2026-04-26T11:14:32.047Z</time></trkpt><trkpt lat="42.6205012" lon="13.2297817"><ele>977.0</ele><time>2026-04-26T11:14:33.046Z</time></trkpt><trkpt lat="42.6204496" lon="13.2295531"><ele>977.3333333333334</ele><time>2026-04-26T11:14:34.046Z</time></trkpt><trkpt lat="42.6203922" lon="13.2293302"><ele>977.6666666666667</ele><time>2026-04-26T11:14:35.046Z</time></trkpt><trkpt lat="42.6203377" lon="13.2291203"><ele>978.0</ele><time>2026-04-26T11:14:36.046Z</time></trkpt><trkpt lat="42.6202906" lon="13.2289062"><ele>978.0</ele><time>2026-04-26T11:14:37.046Z</time></trkpt><trkpt lat="42.620246" lon="13.2286944"><ele>978.0</ele><time>2026-04-26T11:14:38.046Z</time></trkpt><trkpt lat="42.6201958" lon="13.2284863"><ele>978.0</ele><time>2026-04-26T11:14:39.047Z</time></trkpt><trkpt lat="42.620149" lon="13.2282788"><ele>978.5</ele><time>2026-04-26T11:14:40.046Z</time></trkpt><trkpt lat="42.6201033" lon="13.2280818"><ele>979.0</ele><time>2026-04-26T11:14:41.046Z</time></trkpt><trkpt lat="42.6200669" lon="13.2278909"><ele>979.5</ele><time>2026-04-26T11:14:42.046Z</time></trkpt><trkpt lat="42.6200455" lon="13.2276971"><ele>980.0</ele><time>2026-04-26T11:14:43.046Z</time></trkpt><trkpt lat="42.6200354" lon="13.2275065"><ele>979.3333333333334</ele><time>2026-04-26T11:14:44.046Z</time></trkpt><trkpt lat="42.6200467" lon="13.2273095"><ele>978.6666666666667</ele><time>2026-04-26T11:14:45.046Z</time></trkpt><trkpt lat="42.6200627" lon="13.227103"><ele>978.0</ele><time>2026-04-26T11:14:46.047Z</time></trkpt><trkpt lat="42.6200914" lon="13.2268976"><ele>978.0</ele><time>2026-04-26T11:14:47.046Z</time></trkpt><trkpt lat="42.6201255" lon="13.2266984"><ele>978.0</ele><time>2026-04-26T11:14:48.046Z</time></trkpt><trkpt lat="42.6201594" lon="13.2265045"><ele>978.0</ele><time>2026-04-26T11:14:49.046Z</time></trkpt><trkpt lat="42.6201831" lon="13.2263229"><ele>978.0</ele><time>2026-04-26T11:14:50.046Z</time></trkpt><trkpt lat="42.6202028" lon="13.2261693"><ele>978.1666666666666</ele><time>2026-04-26T11:14:51.046Z</time></trkpt><trkpt lat="42.6202201" lon="13.2260597"><ele>978.3333333333333</ele><time>2026-04-26T11:14:52.047Z</time></trkpt><trkpt lat="42.62021" lon="13.2259283"><ele>978.5</ele><time>2026-04-26T11:14:54.046Z</time></trkpt><trkpt lat="42.6201456" lon="13.2258477"><ele>978.6666666666666</ele><time>2026-04-26T11:14:56.046Z</time></trkpt><trkpt lat="42.6200846" lon="13.2258215"><ele>978.8333333333333</ele><time>2026-04-26T11:14:57.046Z</time></trkpt><trkpt lat="42.6200046" lon="13.2258085"><ele>979.0</ele><time>2026-04-26T11:14:58.046Z</time></trkpt><trkpt lat="42.6199052" lon="13.2257908"><ele>979.0</ele><time>2026-04-26T11:14:59.046Z</time></trkpt><trkpt lat="42.6197963" lon="13.2257908"><ele>979.0</ele><time>2026-04-26T11:15:00.046Z</time></trkpt><trkpt lat="42.6196845" lon="13.2258173"><ele>979.0</ele><time>2026-04-26T11:15:01.046Z</time></trkpt><trkpt lat="42.6195743" lon="13.2258862"><ele>979.0</ele><time>2026-04-26T11:15:02.047Z</time></trkpt><trkpt lat="42.6194643" lon="13.2259766"><ele>979.0</ele><time>2026-04-26T11:15:03.046Z</time></trkpt><trkpt lat="42.6193615" lon="13.226072"><ele>979.0</ele><time>2026-04-26T11:15:04.046Z</time></trkpt><trkpt lat="42.6192524" lon="13.2261628"><ele>979.0</ele><time>2026-04-26T11:15:05.046Z</time></trkpt><trkpt lat="42.619144" lon="13.2262506"><ele>979.0</ele><time>2026-04-26T11:15:06.046Z</time></trkpt><trkpt lat="42.6190492" lon="13.2263533"><ele>979.0</ele><time>2026-04-26T11:15:07.047Z</time></trkpt><trkpt lat="42.6189604" lon="13.2264719"><ele>979.0</ele><time>2026-04-26T11:15:08.046Z</time></trkpt><trkpt lat="42.6189041" lon="13.2265936"><ele>979.0</ele><time>2026-04-26T11:15:09.046Z</time></trkpt><trkpt lat="42.6188791" lon="13.2267512"><ele>979.0</ele><time>2026-04-26T11:15:10.046Z</time></trkpt><trkpt lat="42.6188716" lon="13.2269239"><ele>978.5</ele><time>2026-04-26T11:15:11.047Z</time></trkpt><trkpt lat="42.6188849" lon="13.2271117"><ele>978.0</ele><time>2026-04-26T11:15:12.047Z</time></trkpt><trkpt lat="42.6189099" lon="13.2273004"><ele>977.5</ele><time>2026-04-26T11:15:13.047Z</time></trkpt><trkpt lat="42.6189412" lon="13.2274837"><ele>977.0</ele><time>2026-04-26T11:15:14.046Z</time></trkpt><trkpt lat="42.6189466" lon="13.2276364"><ele>977.0</ele><time>2026-04-26T11:15:15.046Z</time></trkpt><trkpt lat="42.6189331" lon="13.2277713"><ele>977.0</ele><time>2026-04-26T11:15:16.046Z</time></trkpt><trkpt lat="42.6189026" lon="13.2278865"><ele>977.0</ele><time>2026-04-26T11:15:17.047Z</time></trkpt><trkpt lat="42.618846" lon="13.2279832"><ele>977.0</ele><time>2026-04-26T11:15:18.047Z</time></trkpt><trkpt lat="42.6187729" lon="13.2280561"><ele>977.0</ele><time>2026-04-26T11:15:19.046Z</time></trkpt><trkpt lat="42.618693" lon="13.2281029"><ele>976.8</ele><time>2026-04-26T11:15:20.046Z</time></trkpt><trkpt lat="42.6186075" lon="13.2281175"><ele>976.6</ele><time>2026-04-26T11:15:21.046Z</time></trkpt><trkpt lat="42.6185176" lon="13.2281142"><ele>976.3999999999999</ele><time>2026-04-26T11:15:22.046Z</time></trkpt><trkpt lat="42.6184272" lon="13.2281001"><ele>976.1999999999999</ele><time>2026-04-26T11:15:23.046Z</time></trkpt><trkpt lat="42.6183299" lon="13.2280934"><ele>976.0</ele><time>2026-04-26T11:15:24.046Z</time></trkpt><trkpt lat="42.6182289" lon="13.2280958"><ele>976.0</ele><time>2026-04-26T11:15:25.047Z</time></trkpt><trkpt lat="42.6181072" lon="13.2280723"><ele>976.0</ele><time>2026-04-26T11:15:26.046Z</time></trkpt><trkpt lat="42.6179662" lon="13.2280409"><ele>976.0</ele><time>2026-04-26T11:15:27.047Z</time></trkpt><trkpt lat="42.6178019" lon="13.2280065"><ele>976.0</ele><time>2026-04-26T11:15:28.047Z</time></trkpt><trkpt lat="42.6176445" lon="13.2279701"><ele>977.75</ele><time>2026-04-26T11:15:29.046Z</time></trkpt><trkpt lat="42.6174953" lon="13.2279406"><ele>979.5</ele><time>2026-04-26T11:15:30.047Z</time></trkpt><trkpt lat="42.617357" lon="13.2279235"><ele>981.25</ele><time>2026-04-26T11:15:31.047Z</time></trkpt><trkpt lat="42.6172234" lon="13.227959"><ele>983.0</ele><time>2026-04-26T11:15:32.046Z</time></trkpt><trkpt lat="42.6170962" lon="13.2280537"><ele>983.6666666666667</ele><time>2026-04-26T11:15:33.047Z</time></trkpt><trkpt lat="42.6169739" lon="13.2281923"><ele>984.3333333333333</ele><time>2026-04-26T11:15:34.047Z</time></trkpt><trkpt lat="42.6168254" lon="13.2283737"><ele>985.0</ele><time>2026-04-26T11:15:35.046Z</time></trkpt><trkpt lat="42.6166583" lon="13.2285677"><ele>985.0</ele><time>2026-04-26T11:15:36.046Z</time></trkpt><trkpt lat="42.6164962" lon="13.2287391"><ele>985.0</ele><time>2026-04-26T11:15:37.047Z</time></trkpt><trkpt lat="42.6163588" lon="13.2288981"><ele>985.0</ele><time>2026-04-26T11:15:38.046Z</time></trkpt><trkpt lat="42.6162483" lon="13.2290739"><ele>984.25</ele><time>2026-04-26T11:15:39.046Z</time></trkpt><trkpt lat="42.6161533" lon="13.2292493"><ele>983.5</ele><time>2026-04-26T11:15:40.046Z</time></trkpt><trkpt lat="42.6160603" lon="13.2293956"><ele>982.75</ele><time>2026-04-26T11:15:41.047Z</time></trkpt><trkpt lat="42.615968" lon="13.2295251"><ele>982.0</ele><time>2026-04-26T11:15:42.047Z</time></trkpt><trkpt lat="42.6158621" lon="13.229632"><ele>983.6666666666666</ele><time>2026-04-26T11:15:43.046Z</time></trkpt><trkpt lat="42.6157271" lon="13.2297193"><ele>985.3333333333333</ele><time>2026-04-26T11:15:44.046Z</time></trkpt><trkpt lat="42.615587" lon="13.2297981"><ele>987.0</ele><time>2026-04-26T11:15:45.046Z</time></trkpt><trkpt lat="42.6154469" lon="13.2298653"><ele>987.6666666666667</ele><time>2026-04-26T11:15:46.047Z</time></trkpt><trkpt lat="42.6153154" lon="13.2299437"><ele>988.3333333333334</ele><time>2026-04-26T11:15:47.047Z</time></trkpt><trkpt lat="42.6151608" lon="13.2300392"><ele>989.0</ele><time>2026-04-26T11:15:48.046Z</time></trkpt><trkpt lat="42.614976" lon="13.2301561"><ele>989.0</ele><time>2026-04-26T11:15:49.046Z</time></trkpt><trkpt lat="42.6147906" lon="13.2302862"><ele>989.0</ele><time>2026-04-26T11:15:50.046Z</time></trkpt><trkpt lat="42.6146363" lon="13.2304058"><ele>989.0</ele><time>2026-04-26T11:15:51.047Z</time></trkpt><trkpt lat="42.6144685" lon="13.23051"><ele>988.6666666666667</ele><time>2026-04-26T11:15:52.046Z</time></trkpt><trkpt lat="42.6142762" lon="13.2305718"><ele>988.3333333333333</ele><time>2026-04-26T11:15:53.046Z</time></trkpt><trkpt lat="42.6140571" lon="13.230615"><ele>988.0</ele><time>2026-04-26T11:15:54.046Z</time></trkpt><trkpt lat="42.6138191" lon="13.2306564"><ele>989.6666666666666</ele><time>2026-04-26T11:15:55.047Z</time></trkpt><trkpt lat="42.613601" lon="13.2306886"><ele>991.3333333333333</ele><time>2026-04-26T11:15:56.046Z</time></trkpt><trkpt lat="42.6134086" lon="13.2307542"><ele>993.0</ele><time>2026-04-26T11:15:57.046Z</time></trkpt><trkpt lat="42.6132276" lon="13.2307977"><ele>993.0</ele><time>2026-04-26T11:15:58.046Z</time></trkpt><trkpt lat="42.6130612" lon="13.2308123"><ele>993.0</ele><time>2026-04-26T11:15:59.046Z</time></trkpt><trkpt lat="42.6128932" lon="13.2307997"><ele>993.0</ele><time>2026-04-26T11:16:00.046Z</time></trkpt><trkpt lat="42.6127163" lon="13.2307865"><ele>992.0</ele><time>2026-04-26T11:16:01.046Z</time></trkpt><trkpt lat="42.6125301" lon="13.2308015"><ele>991.0</ele><time>2026-04-26T11:16:02.046Z</time></trkpt><trkpt lat="42.6123484" lon="13.2308368"><ele>990.0</ele><time>2026-04-26T11:16:03.047Z</time></trkpt><trkpt lat="42.6121802" lon="13.2309129"><ele>990.0</ele><time>2026-04-26T11:16:04.046Z</time></trkpt><trkpt lat="42.6120164" lon="13.2309962"><ele>990.0</ele><time>2026-04-26T11:16:05.046Z</time></trkpt><trkpt lat="42.6118474" lon="13.2310486"><ele>990.0</ele><time>2026-04-26T11:16:06.046Z</time></trkpt><trkpt lat="42.6116555" lon="13.2310452"><ele>990.0</ele><time>2026-04-26T11:16:07.046Z</time></trkpt><trkpt lat="42.6114508" lon="13.2309953"><ele>990.0</ele><time>2026-04-26T11:16:08.046Z</time></trkpt><trkpt lat="42.6112301" lon="13.2309546"><ele>990.0</ele><time>2026-04-26T11:16:09.046Z</time></trkpt><trkpt lat="42.6109983" lon="13.2309353"><ele>990.0</ele><time>2026-04-26T11:16:10.046Z</time></trkpt><trkpt lat="42.610793" lon="13.2309187"><ele>990.0</ele><time>2026-04-26T11:16:11.046Z</time></trkpt><trkpt lat="42.6105975" lon="13.2308844"><ele>990.0</ele><time>2026-04-26T11:16:12.046Z</time></trkpt><trkpt lat="42.6104031" lon="13.2308596"><ele>989.0</ele><time>2026-04-26T11:16:13.046Z</time></trkpt><trkpt lat="42.6102" lon="13.2308711"><ele>988.0</ele><time>2026-04-26T11:16:14.046Z</time></trkpt><trkpt lat="42.6099991" lon="13.230914"><ele>987.0</ele><time>2026-04-26T11:16:15.046Z</time></trkpt><trkpt lat="42.6098099" lon="13.2309753"><ele>987.0</ele><time>2026-04-26T11:16:16.046Z</time></trkpt><trkpt lat="42.6096423" lon="13.2310649"><ele>987.0</ele><time>2026-04-26T11:16:17.046Z</time></trkpt><trkpt lat="42.6094803" lon="13.2311571"><ele>987.0</ele><time>2026-04-26T11:16:18.046Z</time></trkpt><trkpt lat="42.6093016" lon="13.2312268"><ele>986.6666666666667</ele><time>2026-04-26T11:16:19.046Z</time></trkpt><trkpt lat="42.6090984" lon="13.2312777"><ele>986.3333333333334</ele><time>2026-04-26T11:16:20.047Z</time></trkpt><trkpt lat="42.6088889" lon="13.2313222"><ele>986.0</ele><time>2026-04-26T11:16:21.046Z</time></trkpt><trkpt lat="42.6087" lon="13.231364"><ele>985.75</ele><time>2026-04-26T11:16:22.046Z</time></trkpt><trkpt lat="42.6085526" lon="13.2314335"><ele>985.5</ele><time>2026-04-26T11:16:23.046Z</time></trkpt><trkpt lat="42.6084245" lon="13.2315121"><ele>985.25</ele><time>2026-04-26T11:16:24.046Z</time></trkpt><trkpt lat="42.6083" lon="13.2315968"><ele>985.0</ele><time>2026-04-26T11:16:25.047Z</time></trkpt><trkpt lat="42.6081549" lon="13.2316537"><ele>983.3333333333333</ele><time>2026-04-26T11:16:26.046Z</time></trkpt><trkpt lat="42.6080087" lon="13.2316591"><ele>981.6666666666667</ele><time>2026-04-26T11:16:27.046Z</time></trkpt><trkpt lat="42.6078423" lon="13.2316357"><ele>980.0</ele><time>2026-04-26T11:16:28.046Z</time></trkpt><trkpt lat="42.6076497" lon="13.2315953"><ele>979.5</ele><time>2026-04-26T11:16:29.046Z</time></trkpt><trkpt lat="42.6074252" lon="13.2315637"><ele>979.0</ele><time>2026-04-26T11:16:30.047Z</time></trkpt><trkpt lat="42.6071894" lon="13.2315413"><ele>980.3333333333333</ele><time>2026-04-26T11:16:31.046Z</time></trkpt><trkpt lat="42.6069749" lon="13.2315173"><ele>981.6666666666667</ele><time>2026-04-26T11:16:32.046Z</time></trkpt><trkpt lat="42.6067869" lon="13.2314836"><ele>983.0</ele><time>2026-04-26T11:16:33.046Z</time></trkpt><trkpt lat="42.6066029" lon="13.2314557"><ele>985.3333333333334</ele><time>2026-04-26T11:16:34.047Z</time></trkpt><trkpt lat="42.606439" lon="13.2314041"><ele>987.6666666666667</ele><time>2026-04-26T11:16:35.046Z</time></trkpt><trkpt lat="42.6062977" lon="13.2313093"><ele>990.0</ele><time>2026-04-26T11:16:36.046Z</time></trkpt><trkpt lat="42.6061739" lon="13.2312018"><ele>990.5</ele><time>2026-04-26T11:16:37.047Z</time></trkpt><trkpt lat="42.6060656" lon="13.2310925"><ele>991.0</ele><time>2026-04-26T11:16:38.046Z</time></trkpt><trkpt lat="42.6059666" lon="13.2309999"><ele>991.5</ele><time>2026-04-26T11:16:39.046Z</time></trkpt><trkpt lat="42.6058578" lon="13.2309362"><ele>992.0</ele><time>2026-04-26T11:16:40.046Z</time></trkpt><trkpt lat="42.6057437" lon="13.2308704"><ele>992.0</ele><time>2026-04-26T11:16:41.047Z</time></trkpt><trkpt lat="42.6056208" lon="13.2307902"><ele>992.0</ele><time>2026-04-26T11:16:42.046Z</time></trkpt><trkpt lat="42.6054856" lon="13.230712"><ele>992.0</ele><time>2026-04-26T11:16:43.046Z</time></trkpt><trkpt lat="42.6053339" lon="13.2306301"><ele>992.0</ele><time>2026-04-26T11:16:44.046Z</time></trkpt><trkpt lat="42.6051591" lon="13.2305632"><ele>995.3333333333334</ele><time>2026-04-26T11:16:45.046Z</time></trkpt><trkpt lat="42.6049514" lon="13.2305192"><ele>998.6666666666667</ele><time>2026-04-26T11:16:46.046Z</time></trkpt><trkpt lat="42.6047453" lon="13.2304791"><ele>1002.0</ele><time>2026-04-26T11:16:47.047Z</time></trkpt><trkpt lat="42.6045493" lon="13.2304203"><ele>1001.3333333333333</ele><time>2026-04-26T11:16:48.046Z</time></trkpt><trkpt lat="42.6043584" lon="13.2303183"><ele>1000.6666666666666</ele><time>2026-04-26T11:16:49.046Z</time></trkpt><trkpt lat="42.6041547" lon="13.2301991"><ele>1000.0</ele><time>2026-04-26T11:16:50.046Z</time></trkpt><trkpt lat="42.6039576" lon="13.2301041"><ele>1000.0</ele><time>2026-04-26T11:16:51.047Z</time></trkpt><trkpt lat="42.6037743" lon="13.2300192"><ele>1000.0</ele><time>2026-04-26T11:16:52.046Z</time></trkpt><trkpt lat="42.6035956" lon="13.2299396"><ele>1000.0</ele><time>2026-04-26T11:16:53.046Z</time></trkpt><trkpt lat="42.6034203" lon="13.2298902"><ele>998.6666666666666</ele><time>2026-04-26T11:16:54.047Z</time></trkpt><trkpt lat="42.6032534" lon="13.229863"><ele>997.3333333333333</ele><time>2026-04-26T11:16:55.047Z</time></trkpt><trkpt lat="42.6030997" lon="13.2298886"><ele>996.0</ele><time>2026-04-26T11:16:56.046Z</time></trkpt><trkpt lat="42.6029588" lon="13.2299302"><ele>996.0</ele><time>2026-04-26T11:16:57.046Z</time></trkpt><trkpt lat="42.6028324" lon="13.2299805"><ele>996.0</ele><time>2026-04-26T11:16:58.046Z</time></trkpt><trkpt lat="42.6026982" lon="13.2300218"><ele>996.0</ele><time>2026-04-26T11:16:59.047Z</time></trkpt><trkpt lat="42.6025541" lon="13.230044"><ele>996.0</ele><time>2026-04-26T11:17:00.047Z</time></trkpt><trkpt lat="42.6023978" lon="13.2300339"><ele>997.3333333333333</ele><time>2026-04-26T11:17:01.046Z</time></trkpt><trkpt lat="42.6022106" lon="13.2299942"><ele>998.6666666666666</ele><time>2026-04-26T11:17:02.046Z</time></trkpt><trkpt lat="42.6019774" lon="13.2299497"><ele>1000.0</ele><time>2026-04-26T11:17:03.046Z</time></trkpt><trkpt lat="42.6017197" lon="13.2299064"><ele>998.5</ele><time>2026-04-26T11:17:04.054Z</time></trkpt><trkpt lat="42.6014718" lon="13.2298494"><ele>997.0</ele><time>2026-04-26T11:17:05.053Z</time></trkpt><trkpt lat="42.6012522" lon="13.2298058"><ele>999.6666666666666</ele><time>2026-04-26T11:17:06.054Z</time></trkpt><trkpt lat="42.6010479" lon="13.229773"><ele>1002.3333333333333</ele><time>2026-04-26T11:17:07.053Z</time></trkpt><trkpt lat="42.600859" lon="13.2297256"><ele>1005.0</ele><time>2026-04-26T11:17:08.054Z</time></trkpt><trkpt lat="42.6006933" lon="13.2296744"><ele>1005.0</ele><time>2026-04-26T11:17:09.053Z</time></trkpt><trkpt lat="42.6005401" lon="13.2295962"><ele>1005.0</ele><time>2026-04-26T11:17:10.053Z</time></trkpt><trkpt lat="42.6003856" lon="13.2294885"><ele>1005.0</ele><time>2026-04-26T11:17:11.054Z</time></trkpt><trkpt lat="42.600225" lon="13.2293409"><ele>1004.6666666666667</ele><time>2026-04-26T11:17:12.054Z</time></trkpt><trkpt lat="42.6000443" lon="13.2291666"><ele>1004.3333333333334</ele><time>2026-04-26T11:17:13.053Z</time></trkpt><trkpt lat="42.599865" lon="13.228987"><ele>1004.0</ele><time>2026-04-26T11:17:14.054Z</time></trkpt><trkpt lat="42.5997007" lon="13.2288321"><ele>1006.3333333333334</ele><time>2026-04-26T11:17:15.054Z</time></trkpt><trkpt lat="42.5995551" lon="13.2286906"><ele>1008.6666666666667</ele><time>2026-04-26T11:17:16.054Z</time></trkpt><trkpt lat="42.5994071" lon="13.2285427"><ele>1011.0</ele><time>2026-04-26T11:17:17.054Z</time></trkpt><trkpt lat="42.5992695" lon="13.2284001"><ele>1011.0</ele><time>2026-04-26T11:17:18.053Z</time></trkpt><trkpt lat="42.5991625" lon="13.2282692"><ele>1010.9999999999999</ele><time>2026-04-26T11:17:19.053Z</time></trkpt><trkpt lat="42.5990832" lon="13.2281803"><ele>1010.9999999999999</ele><time>2026-04-26T11:17:20.054Z</time></trkpt><trkpt lat="42.5990294" lon="13.2281214"><ele>1011.0</ele><time>2026-04-26T11:17:21.053Z</time></trkpt><trkpt lat="42.5989809" lon="13.2280307"><ele>1011.0</ele><time>2026-04-26T11:17:23.054Z</time></trkpt><trkpt lat="42.5990317" lon="13.227946"><ele>1012.8333333333334</ele><time>2026-04-26T11:17:46.053Z</time></trkpt><trkpt lat="42.5990921" lon="13.2279047"><ele>1014.6666666666667</ele><time>2026-04-26T11:17:48.053Z</time></trkpt><trkpt lat="42.5991754" lon="13.2279051"><ele>1016.5</ele><time>2026-04-26T11:17:50.054Z</time></trkpt><trkpt lat="42.5992446" lon="13.2279121"><ele>1018.3333333333334</ele><time>2026-04-26T11:17:53.053Z</time></trkpt><trkpt lat="42.5993063" lon="13.227934"><ele>1020.1666666666667</ele><time>2026-04-26T11:17:59.053Z</time></trkpt><trkpt lat="42.5993718" lon="13.2279286"><ele>1022.0</ele><time>2026-04-26T11:19:55.052Z</time></trkpt><trkpt lat="42.5992686" lon="13.2279912"><ele>1022.0</ele><time>2026-04-26T11:20:27.968Z</time></trkpt><trkpt lat="42.5991982" lon="13.2279985"><ele>1022.0</ele><time>2026-04-26T11:20:32.029Z</time></trkpt><trkpt lat="42.5991339" lon="13.2280108"><ele>1022.0</ele><time>2026-04-26T11:20:37.811Z</time></trkpt><trkpt lat="42.5990646" lon="13.227994"><ele>1022.0</ele><time>2026-04-26T11:20:42.671Z</time></trkpt><trkpt lat="42.5991152" lon="13.2280639"><ele>1022.0</ele><time>2026-04-26T11:20:59.119Z</time></trkpt><trkpt lat="42.5991681" lon="13.2281152"><ele>1022.0</ele><time>2026-04-26T11:21:08.116Z</time></trkpt><trkpt lat="42.5992308" lon="13.2280801"><ele>1022.0</ele><time>2026-04-26T11:21:15.048Z</time></trkpt><trkpt lat="42.5992797" lon="13.2281402"><ele>1022.0</ele><time>2026-04-26T11:21:56.098Z</time></trkpt><trkpt lat="42.5993413" lon="13.228176"><ele>1022.0</ele><time>2026-04-26T11:22:35.084Z</time></trkpt><trkpt lat="42.5992878" lon="13.2282237"><ele>1022.0</ele><time>2026-04-26T11:23:21.103Z</time></trkpt><trkpt lat="42.5993381" lon="13.2281579"><ele>1022.0</ele><time>2026-04-26T11:23:36.096Z</time></trkpt><trkpt lat="42.5993535" lon="13.2280703"><ele>1022.0</ele><time>2026-04-26T11:23:43.153Z</time></trkpt><trkpt lat="42.599415" lon="13.2281028"><ele>1022.0</ele><time>2026-04-26T11:24:43.06Z</time></trkpt><trkpt lat="42.5994093" lon="13.2281931"><ele>1022.0</ele><time>2026-04-26T11:26:04.076Z</time></trkpt><trkpt lat="42.5993439" lon="13.2282318"><ele>1011.0</ele><time>2026-04-26T11:26:38.098Z</time></trkpt></trkseg><trkseg><trkpt lat="42.5994778" lon="13.2279424"><ele>1022.0</ele><time>2026-04-26T13:03:29.155Z</time></trkpt><trkpt lat="42.5995569" lon="13.2279585"><ele>1022.0</ele><time>2026-04-26T13:03:35.222Z</time></trkpt><trkpt lat="42.599439" lon="13.2279217"><ele>1022.0</ele><time>2026-04-26T13:03:50.155Z</time></trkpt><trkpt lat="42.5993707" lon="13.2279164"><ele>1022.0</ele><time>2026-04-26T13:03:51.155Z</time></trkpt><trkpt lat="42.5992533" lon="13.2279149"><ele>1022.0</ele><time>2026-04-26T13:03:53.155Z</time></trkpt><trkpt lat="42.5991478" lon="13.2279053"><ele>1022.0000000000001</ele><time>2026-04-26T13:03:55.155Z</time></trkpt><trkpt lat="42.5990631" lon="13.2279241"><ele>1022.0</ele><time>2026-04-26T13:03:57.155Z</time></trkpt><trkpt lat="42.5990043" lon="13.2279692"><ele>1022.0</ele><time>2026-04-26T13:03:59.155Z</time></trkpt><trkpt lat="42.5989259" lon="13.2279952"><ele>1022.0</ele><time>2026-04-26T13:04:02.155Z</time></trkpt><trkpt lat="42.5988528" lon="13.2279847"><ele>1022.0000000000001</ele><time>2026-04-26T13:04:04.155Z</time></trkpt><trkpt lat="42.5987242" lon="13.2279681"><ele>1022.0</ele><time>2026-04-26T13:04:06.155Z</time></trkpt><trkpt lat="42.5986312" lon="13.2279707"><ele>1023.5</ele><time>2026-04-26T13:04:07.156Z</time></trkpt><trkpt lat="42.5985135" lon="13.2279941"><ele>1025.0</ele><time>2026-04-26T13:04:08.156Z</time></trkpt><trkpt lat="42.5983814" lon="13.228026"><ele>1026.5</ele><time>2026-04-26T13:04:09.155Z</time></trkpt><trkpt lat="42.59825" lon="13.2280565"><ele>1028.0</ele><time>2026-04-26T13:04:10.155Z</time></trkpt><trkpt lat="42.5981237" lon="13.2280875"><ele>1028.0</ele><time>2026-04-26T13:04:11.155Z</time></trkpt><trkpt lat="42.5980058" lon="13.2281167"><ele>1028.0</ele><time>2026-04-26T13:04:12.155Z</time></trkpt><trkpt lat="42.5978975" lon="13.2281128"><ele>1028.0</ele><time>2026-04-26T13:04:13.155Z</time></trkpt><trkpt lat="42.5977955" lon="13.2280704"><ele>1028.0</ele><time>2026-04-26T13:04:14.155Z</time></trkpt><trkpt lat="42.5977007" lon="13.2280121"><ele>1028.0</ele><time>2026-04-26T13:04:15.155Z</time></trkpt><trkpt lat="42.5976087" lon="13.2279321"><ele>1027.75</ele><time>2026-04-26T13:04:16.156Z</time></trkpt><trkpt lat="42.5975116" lon="13.2278459"><ele>1027.5</ele><time>2026-04-26T13:04:17.156Z</time></trkpt><trkpt lat="42.5973994" lon="13.2277568"><ele>1027.25</ele><time>2026-04-26T13:04:18.156Z</time></trkpt><trkpt lat="42.5972705" lon="13.227667"><ele>1027.0</ele><time>2026-04-26T13:04:19.155Z</time></trkpt><trkpt lat="42.5971364" lon="13.2275721"><ele>1027.0</ele><time>2026-04-26T13:04:20.156Z</time></trkpt><trkpt lat="42.5969897" lon="13.2274594"><ele>1027.0</ele><time>2026-04-26T13:04:21.156Z</time></trkpt><trkpt lat="42.5968262" lon="13.2273078"><ele>1027.0</ele><time>2026-04-26T13:04:22.164Z</time></trkpt><trkpt lat="42.5966651" lon="13.2271326"><ele>1027.0</ele><time>2026-04-26T13:04:23.163Z</time></trkpt><trkpt lat="42.5965076" lon="13.2269496"><ele>1027.0</ele><time>2026-04-26T13:04:24.163Z</time></trkpt><trkpt lat="42.5963532" lon="13.2267591"><ele>1027.0</ele><time>2026-04-26T13:04:25.163Z</time></trkpt><trkpt lat="42.5961983" lon="13.226563"><ele>1026.6666666666665</ele><time>2026-04-26T13:04:26.163Z</time></trkpt><trkpt lat="42.5960334" lon="13.2263533"><ele>1026.3333333333333</ele><time>2026-04-26T13:04:27.164Z</time></trkpt><trkpt lat="42.5958731" lon="13.2261494"><ele>1026.0</ele><time>2026-04-26T13:04:28.164Z</time></trkpt><trkpt lat="42.5957195" lon="13.2259603"><ele>1026.0</ele><time>2026-04-26T13:04:29.163Z</time></trkpt><trkpt lat="42.5955835" lon="13.2257837"><ele>1026.0</ele><time>2026-04-26T13:04:30.163Z</time></trkpt><trkpt lat="42.5954578" lon="13.2256148"><ele>1026.0</ele><time>2026-04-26T13:04:31.163Z</time></trkpt><trkpt lat="42.5953427" lon="13.2254519"><ele>1024.6666666666667</ele><time>2026-04-26T13:04:32.163Z</time></trkpt><trkpt lat="42.5952343" lon="13.2252944"><ele>1023.3333333333334</ele><time>2026-04-26T13:04:33.163Z</time></trkpt><trkpt lat="42.5951207" lon="13.2251598"><ele>1022.0</ele><time>2026-04-26T13:04:34.163Z</time></trkpt><trkpt lat="42.5949921" lon="13.2250448"><ele>1022.0</ele><time>2026-04-26T13:04:35.163Z</time></trkpt><trkpt lat="42.5948398" lon="13.2249601"><ele>1022.0</ele><time>2026-04-26T13:04:36.163Z</time></trkpt><trkpt lat="42.594664" lon="13.2249045"><ele>1022.0</ele><time>2026-04-26T13:04:37.163Z</time></trkpt><trkpt lat="42.5944737" lon="13.2248766"><ele>1020.3333333333334</ele><time>2026-04-26T13:04:38.163Z</time></trkpt><trkpt lat="42.5942755" lon="13.2248585"><ele>1018.6666666666667</ele><time>2026-04-26T13:04:39.163Z</time></trkpt><trkpt lat="42.5940889" lon="13.224814"><ele>1017.0</ele><time>2026-04-26T13:04:40.163Z</time></trkpt><trkpt lat="42.5939276" lon="13.2247412"><ele>1018.25</ele><time>2026-04-26T13:04:41.164Z</time></trkpt><trkpt lat="42.5937906" lon="13.224649"><ele>1019.5</ele><time>2026-04-26T13:04:42.163Z</time></trkpt><trkpt lat="42.5936862" lon="13.2245255"><ele>1020.75</ele><time>2026-04-26T13:04:43.163Z</time></trkpt><trkpt lat="42.5936085" lon="13.2243574"><ele>1022.0</ele><time>2026-04-26T13:04:44.163Z</time></trkpt><trkpt lat="42.5935414" lon="13.2241568"><ele>1025.25</ele><time>2026-04-26T13:04:45.163Z</time></trkpt><trkpt lat="42.5934705" lon="13.2239591"><ele>1028.5</ele><time>2026-04-26T13:04:46.164Z</time></trkpt><trkpt lat="42.5933808" lon="13.223817"><ele>1031.75</ele><time>2026-04-26T13:04:47.163Z</time></trkpt><trkpt lat="42.5932694" lon="13.2237095"><ele>1035.0</ele><time>2026-04-26T13:04:48.163Z</time></trkpt><trkpt lat="42.5931358" lon="13.2235932"><ele>1035.0</ele><time>2026-04-26T13:04:49.163Z</time></trkpt><trkpt lat="42.5929882" lon="13.2234752"><ele>1035.0</ele><time>2026-04-26T13:04:50.164Z</time></trkpt><trkpt lat="42.5928371" lon="13.2233596"><ele>1035.0</ele><time>2026-04-26T13:04:51.163Z</time></trkpt><trkpt lat="42.5926837" lon="13.2232587"><ele>1032.3333333333333</ele><time>2026-04-26T13:04:52.164Z</time></trkpt><trkpt lat="42.5925316" lon="13.2231892"><ele>1029.6666666666665</ele><time>2026-04-26T13:04:53.163Z</time></trkpt><trkpt lat="42.5923771" lon="13.2231511"><ele>1027.0</ele><time>2026-04-26T13:04:54.163Z</time></trkpt><trkpt lat="42.5922141" lon="13.2231368"><ele>1028.3333333333333</ele><time>2026-04-26T13:04:55.164Z</time></trkpt><trkpt lat="42.5920506" lon="13.2231443"><ele>1029.6666666666667</ele><time>2026-04-26T13:04:56.163Z</time></trkpt><trkpt lat="42.5918882" lon="13.2231677"><ele>1031.0</ele><time>2026-04-26T13:04:57.163Z</time></trkpt><trkpt lat="42.5917249" lon="13.223201"><ele>1031.0</ele><time>2026-04-26T13:04:58.163Z</time></trkpt><trkpt lat="42.5915627" lon="13.2232004"><ele>1031.0</ele><time>2026-04-26T13:04:59.163Z</time></trkpt><trkpt lat="42.5913986" lon="13.2231485"><ele>1031.0</ele><time>2026-04-26T13:05:00.163Z</time></trkpt><trkpt lat="42.5912318" lon="13.2230484"><ele>1033.3333333333335</ele><time>2026-04-26T13:05:01.163Z</time></trkpt><trkpt lat="42.5910705" lon="13.2229263"><ele>1035.6666666666667</ele><time>2026-04-26T13:05:02.163Z</time></trkpt><trkpt lat="42.5909202" lon="13.2228028"><ele>1038.0</ele><time>2026-04-26T13:05:03.164Z</time></trkpt><trkpt lat="42.5907959" lon="13.2226609"><ele>1038.0</ele><time>2026-04-26T13:05:04.163Z</time></trkpt><trkpt lat="42.5906948" lon="13.22249"><ele>1038.0</ele><time>2026-04-26T13:05:05.164Z</time></trkpt><trkpt lat="42.5906173" lon="13.2222909"><ele>1038.0</ele><time>2026-04-26T13:05:06.163Z</time></trkpt><trkpt lat="42.5905529" lon="13.2220693"><ele>1042.6666666666667</ele><time>2026-04-26T13:05:07.163Z</time></trkpt><trkpt lat="42.5904941" lon="13.2218505"><ele>1047.3333333333335</ele><time>2026-04-26T13:05:08.164Z</time></trkpt><trkpt lat="42.5904352" lon="13.221642"><ele>1052.0</ele><time>2026-04-26T13:05:09.163Z</time></trkpt><trkpt lat="42.590358" lon="13.2214533"><ele>1048.6666666666667</ele><time>2026-04-26T13:05:10.163Z</time></trkpt><trkpt lat="42.5902421" lon="13.221307"><ele>1045.3333333333333</ele><time>2026-04-26T13:05:11.163Z</time></trkpt><trkpt lat="42.5900887" lon="13.2211857"><ele>1042.0</ele><time>2026-04-26T13:05:12.163Z</time></trkpt><trkpt lat="42.5899345" lon="13.221064"><ele>1042.0</ele><time>2026-04-26T13:05:13.164Z</time></trkpt><trkpt lat="42.5897983" lon="13.220966"><ele>1042.0</ele><time>2026-04-26T13:05:14.164Z</time></trkpt><trkpt lat="42.5896661" lon="13.2209033"><ele>1042.0</ele><time>2026-04-26T13:05:15.163Z</time></trkpt><trkpt lat="42.5895193" lon="13.2208737"><ele>1042.0</ele><time>2026-04-26T13:05:16.163Z</time></trkpt><trkpt lat="42.5893548" lon="13.2208871"><ele>1042.3333333333333</ele><time>2026-04-26T13:05:17.163Z</time></trkpt><trkpt lat="42.5891778" lon="13.2209406"><ele>1042.6666666666667</ele><time>2026-04-26T13:05:18.163Z</time></trkpt><trkpt lat="42.5890125" lon="13.2209663"><ele>1043.0</ele><time>2026-04-26T13:05:19.163Z</time></trkpt><trkpt lat="42.588854" lon="13.2209427"><ele>1043.0</ele><time>2026-04-26T13:05:20.163Z</time></trkpt><trkpt lat="42.5887129" lon="13.2208801"><ele>1043.0</ele><time>2026-04-26T13:05:21.164Z</time></trkpt><trkpt lat="42.5886089" lon="13.2207746"><ele>1043.0</ele><time>2026-04-26T13:05:22.163Z</time></trkpt><trkpt lat="42.5885355" lon="13.2206406"><ele>1043.0</ele><time>2026-04-26T13:05:23.163Z</time></trkpt><trkpt lat="42.5884816" lon="13.2204676"><ele>1046.0</ele><time>2026-04-26T13:05:24.163Z</time></trkpt><trkpt lat="42.588406" lon="13.22028"><ele>1049.0</ele><time>2026-04-26T13:05:25.163Z</time></trkpt><trkpt lat="42.5882807" lon="13.2201076"><ele>1052.0</ele><time>2026-04-26T13:05:26.164Z</time></trkpt><trkpt lat="42.5881221" lon="13.2199434"><ele>1059.5</ele><time>2026-04-26T13:05:27.163Z</time></trkpt><trkpt lat="42.5879266" lon="13.2197747"><ele>1067.0</ele><time>2026-04-26T13:05:28.163Z</time></trkpt><trkpt lat="42.5877122" lon="13.2196171"><ele>1067.0</ele><time>2026-04-26T13:05:29.164Z</time></trkpt><trkpt lat="42.5874988" lon="13.2194833"><ele>1067.0</ele><time>2026-04-26T13:05:30.163Z</time></trkpt><trkpt lat="42.5872946" lon="13.2193717"><ele>1067.0</ele><time>2026-04-26T13:05:31.163Z</time></trkpt><trkpt lat="42.5871121" lon="13.2192728"><ele>1067.0</ele><time>2026-04-26T13:05:32.163Z</time></trkpt><trkpt lat="42.5869493" lon="13.2191564"><ele>1067.0</ele><time>2026-04-26T13:05:33.163Z</time></trkpt><trkpt lat="42.5868034" lon="13.2189856"><ele>1064.0</ele><time>2026-04-26T13:05:34.163Z</time></trkpt><trkpt lat="42.5866674" lon="13.2187692"><ele>1061.0</ele><time>2026-04-26T13:05:35.163Z</time></trkpt><trkpt lat="42.5865296" lon="13.2185272"><ele>1058.0</ele><time>2026-04-26T13:05:36.163Z</time></trkpt><trkpt lat="42.5863774" lon="13.2182779"><ele>1058.5</ele><time>2026-04-26T13:05:37.163Z</time></trkpt><trkpt lat="42.5862051" lon="13.2180436"><ele>1059.0</ele><time>2026-04-26T13:05:38.163Z</time></trkpt><trkpt lat="42.5860165" lon="13.2178378"><ele>1059.0</ele><time>2026-04-26T13:05:39.164Z</time></trkpt><trkpt lat="42.5858182" lon="13.2176457"><ele>1059.0</ele><time>2026-04-26T13:05:40.164Z</time></trkpt><trkpt lat="42.5856208" lon="13.2174622"><ele>1060.5</ele><time>2026-04-26T13:05:41.163Z</time></trkpt><trkpt lat="42.5854085" lon="13.2173061"><ele>1062.0</ele><time>2026-04-26T13:05:42.164Z</time></trkpt><trkpt lat="42.5851759" lon="13.2171593"><ele>1062.0</ele><time>2026-04-26T13:05:43.163Z</time></trkpt><trkpt lat="42.5849465" lon="13.217027"><ele>1062.0</ele><time>2026-04-26T13:05:44.163Z</time></trkpt><trkpt lat="42.584737" lon="13.2169225"><ele>1062.0</ele><time>2026-04-26T13:05:45.163Z</time></trkpt><trkpt lat="42.5845472" lon="13.2168581"><ele>1062.0</ele><time>2026-04-26T13:05:46.163Z</time></trkpt><trkpt lat="42.5843736" lon="13.216797"><ele>1062.0</ele><time>2026-04-26T13:05:47.164Z</time></trkpt><trkpt lat="42.5842156" lon="13.2167214"><ele>1061.3333333333333</ele><time>2026-04-26T13:05:48.163Z</time></trkpt><trkpt lat="42.5841203" lon="13.2165554"><ele>1060.6666666666665</ele><time>2026-04-26T13:05:49.163Z</time></trkpt><trkpt lat="42.5840297" lon="13.2163569"><ele>1060.0</ele><time>2026-04-26T13:05:50.164Z</time></trkpt><trkpt lat="42.5839401" lon="13.2160998"><ele>1059.5</ele><time>2026-04-26T13:05:51.163Z</time></trkpt><trkpt lat="42.5838489" lon="13.2157984"><ele>1059.0</ele><time>2026-04-26T13:05:52.163Z</time></trkpt><trkpt lat="42.583747" lon="13.2154717"><ele>1061.0</ele><time>2026-04-26T13:05:53.164Z</time></trkpt><trkpt lat="42.5836328" lon="13.2151425"><ele>1063.0</ele><time>2026-04-26T13:05:54.163Z</time></trkpt><trkpt lat="42.5835425" lon="13.2148421"><ele>1064.3333333333333</ele><time>2026-04-26T13:05:55.163Z</time></trkpt><trkpt lat="42.5834547" lon="13.2145704"><ele>1065.6666666666667</ele><time>2026-04-26T13:05:56.163Z</time></trkpt><trkpt lat="42.5833631" lon="13.2143123"><ele>1067.0</ele><time>2026-04-26T13:05:57.163Z</time></trkpt><trkpt lat="42.5832563" lon="13.214089"><ele>1068.3333333333335</ele><time>2026-04-26T13:05:58.163Z</time></trkpt><trkpt lat="42.5831274" lon="13.2138947"><ele>1069.6666666666667</ele><time>2026-04-26T13:05:59.163Z</time></trkpt><trkpt lat="42.5829831" lon="13.213708"><ele>1071.0</ele><time>2026-04-26T13:06:00.163Z</time></trkpt><trkpt lat="42.582846" lon="13.2135102"><ele>1071.0</ele><time>2026-04-26T13:06:01.163Z</time></trkpt><trkpt lat="42.5827201" lon="13.2132822"><ele>1071.0</ele><time>2026-04-26T13:06:02.164Z</time></trkpt><trkpt lat="42.5825994" lon="13.2130435"><ele>1071.0</ele><time>2026-04-26T13:06:03.163Z</time></trkpt><trkpt lat="42.5824696" lon="13.2128085"><ele>1071.0</ele><time>2026-04-26T13:06:04.163Z</time></trkpt><trkpt lat="42.5823244" lon="13.2125815"><ele>1071.0</ele><time>2026-04-26T13:06:05.163Z</time></trkpt><trkpt lat="42.5821506" lon="13.2123686"><ele>1072.5</ele><time>2026-04-26T13:06:06.163Z</time></trkpt><trkpt lat="42.5819532" lon="13.2121541"><ele>1074.0</ele><time>2026-04-26T13:06:07.163Z</time></trkpt><trkpt lat="42.5817343" lon="13.2119374"><ele>1074.0</ele><time>2026-04-26T13:06:08.163Z</time></trkpt><trkpt lat="42.5815111" lon="13.2117209"><ele>1074.0</ele><time>2026-04-26T13:06:09.163Z</time></trkpt><trkpt lat="42.5812993" lon="13.2115158"><ele>1075.5</ele><time>2026-04-26T13:06:10.163Z</time></trkpt><trkpt lat="42.5810969" lon="13.2113192"><ele>1077.0</ele><time>2026-04-26T13:06:11.163Z</time></trkpt><trkpt lat="42.5809032" lon="13.2111306"><ele>1077.0</ele><time>2026-04-26T13:06:12.163Z</time></trkpt><trkpt lat="42.5807189" lon="13.2109453"><ele>1077.0</ele><time>2026-04-26T13:06:13.162Z</time></trkpt><trkpt lat="42.5805369" lon="13.2107652"><ele>1079.5</ele><time>2026-04-26T13:06:14.162Z</time></trkpt><trkpt lat="42.5803403" lon="13.2105839"><ele>1082.0</ele><time>2026-04-26T13:06:15.162Z</time></trkpt><trkpt lat="42.5801308" lon="13.2104004"><ele>1082.0</ele><time>2026-04-26T13:06:16.162Z</time></trkpt><trkpt lat="42.5799019" lon="13.2102219"><ele>1082.0</ele><time>2026-04-26T13:06:17.162Z</time></trkpt><trkpt lat="42.5796618" lon="13.2100467"><ele>1084.5</ele><time>2026-04-26T13:06:18.163Z</time></trkpt><trkpt lat="42.5794213" lon="13.2098584"><ele>1087.0</ele><time>2026-04-26T13:06:19.162Z</time></trkpt><trkpt lat="42.5791764" lon="13.2096692"><ele>1087.0</ele><time>2026-04-26T13:06:20.162Z</time></trkpt><trkpt lat="42.5789305" lon="13.2094909"><ele>1087.0</ele><time>2026-04-26T13:06:21.163Z</time></trkpt><trkpt lat="42.5786799" lon="13.2093176"><ele>1084.5</ele><time>2026-04-26T13:06:22.162Z</time></trkpt><trkpt lat="42.5784253" lon="13.2091565"><ele>1082.0</ele><time>2026-04-26T13:06:23.162Z</time></trkpt><trkpt lat="42.5781743" lon="13.2089973"><ele>1087.5</ele><time>2026-04-26T13:06:24.162Z</time></trkpt><trkpt lat="42.5779327" lon="13.2088431"><ele>1093.0</ele><time>2026-04-26T13:06:25.163Z</time></trkpt><trkpt lat="42.5777139" lon="13.2086804"><ele>1093.0</ele><time>2026-04-26T13:06:26.162Z</time></trkpt><trkpt lat="42.5775195" lon="13.2085257"><ele>1093.0</ele><time>2026-04-26T13:06:27.162Z</time></trkpt><trkpt lat="42.5773478" lon="13.2083926"><ele>1093.0</ele><time>2026-04-26T13:06:28.162Z</time></trkpt><trkpt lat="42.5771997" lon="13.2082473"><ele>1091.6666666666665</ele><time>2026-04-26T13:06:29.162Z</time></trkpt><trkpt lat="42.5770717" lon="13.2080604"><ele>1090.3333333333333</ele><time>2026-04-26T13:06:30.163Z</time></trkpt><trkpt lat="42.5769562" lon="13.2078181"><ele>1089.0</ele><time>2026-04-26T13:06:31.162Z</time></trkpt><trkpt lat="42.5768452" lon="13.2075263"><ele>1092.5</ele><time>2026-04-26T13:06:32.162Z</time></trkpt><trkpt lat="42.5767156" lon="13.2072414"><ele>1096.0</ele><time>2026-04-26T13:06:33.162Z</time></trkpt><trkpt lat="42.576584" lon="13.2069797"><ele>1096.0</ele><time>2026-04-26T13:06:34.162Z</time></trkpt><trkpt lat="42.5764617" lon="13.2067419"><ele>1096.0</ele><time>2026-04-26T13:06:35.162Z</time></trkpt><trkpt lat="42.5763492" lon="13.2065211"><ele>1096.0</ele><time>2026-04-26T13:06:36.163Z</time></trkpt><trkpt lat="42.5762187" lon="13.2063492"><ele>1098.0</ele><time>2026-04-26T13:06:37.162Z</time></trkpt><trkpt lat="42.5760746" lon="13.2062185"><ele>1100.0</ele><time>2026-04-26T13:06:38.162Z</time></trkpt><trkpt lat="42.575914" lon="13.2061303"><ele>1102.0</ele><time>2026-04-26T13:06:39.162Z</time></trkpt><trkpt lat="42.57574" lon="13.2060843"><ele>1102.0</ele><time>2026-04-26T13:06:40.162Z</time></trkpt><trkpt lat="42.5755367" lon="13.2060718"><ele>1102.0</ele><time>2026-04-26T13:06:41.162Z</time></trkpt><trkpt lat="42.5753289" lon="13.2060534"><ele>1102.0</ele><time>2026-04-26T13:06:42.162Z</time></trkpt><trkpt lat="42.5751277" lon="13.2060484"><ele>1102.3333333333333</ele><time>2026-04-26T13:06:43.162Z</time></trkpt><trkpt lat="42.5749375" lon="13.2060745"><ele>1102.6666666666667</ele><time>2026-04-26T13:06:44.163Z</time></trkpt><trkpt lat="42.5747669" lon="13.2061377"><ele>1103.0</ele><time>2026-04-26T13:06:45.162Z</time></trkpt><trkpt lat="42.5746277" lon="13.2062162"><ele>1102.5</ele><time>2026-04-26T13:06:46.162Z</time></trkpt><trkpt lat="42.5745144" lon="13.206317"><ele>1102.0</ele><time>2026-04-26T13:06:47.162Z</time></trkpt><trkpt lat="42.5744175" lon="13.2064219"><ele>1101.5</ele><time>2026-04-26T13:06:48.162Z</time></trkpt><trkpt lat="42.5743269" lon="13.2065666"><ele>1101.0</ele><time>2026-04-26T13:06:49.162Z</time></trkpt><trkpt lat="42.5742986" lon="13.2067891"><ele>1101.0</ele><time>2026-04-26T13:06:50.162Z</time></trkpt><trkpt lat="42.5742815" lon="13.2070511"><ele>1101.0</ele><time>2026-04-26T13:06:51.163Z</time></trkpt><trkpt lat="42.5742386" lon="13.2072903"><ele>1101.0</ele><time>2026-04-26T13:06:52.162Z</time></trkpt><trkpt lat="42.574145" lon="13.2075152"><ele>1101.5</ele><time>2026-04-26T13:06:53.162Z</time></trkpt><trkpt lat="42.5740092" lon="13.2077473"><ele>1102.0</ele><time>2026-04-26T13:06:54.163Z</time></trkpt><trkpt lat="42.5738805" lon="13.2080092"><ele>1106.0</ele><time>2026-04-26T13:06:55.162Z</time></trkpt><trkpt lat="42.5737495" lon="13.2083318"><ele>1110.0</ele><time>2026-04-26T13:06:56.163Z</time></trkpt><trkpt lat="42.5736371" lon="13.2086135"><ele>1112.0</ele><time>2026-04-26T13:06:57.163Z</time></trkpt><trkpt lat="42.5735497" lon="13.2088436"><ele>1114.0</ele><time>2026-04-26T13:06:58.162Z</time></trkpt><trkpt lat="42.5734715" lon="13.2090387"><ele>1116.0</ele><time>2026-04-26T13:06:59.162Z</time></trkpt><trkpt lat="42.5733726" lon="13.209157"><ele>1116.0</ele><time>2026-04-26T13:07:00.162Z</time></trkpt><trkpt lat="42.573253" lon="13.2092658"><ele>1116.0</ele><time>2026-04-26T13:07:01.162Z</time></trkpt><trkpt lat="42.5730903" lon="13.2093103"><ele>1116.0</ele><time>2026-04-26T13:07:02.162Z</time></trkpt><trkpt lat="42.5729406" lon="13.2093921"><ele>1119.0</ele><time>2026-04-26T13:07:03.162Z</time></trkpt><trkpt lat="42.5727949" lon="13.2095433"><ele>1122.0</ele><time>2026-04-26T13:07:04.162Z</time></trkpt><trkpt lat="42.5726371" lon="13.2097391"><ele>1125.0</ele><time>2026-04-26T13:07:05.162Z</time></trkpt><trkpt lat="42.5724571" lon="13.2099475"><ele>1125.0</ele><time>2026-04-26T13:07:06.162Z</time></trkpt><trkpt lat="42.5722229" lon="13.2101441"><ele>1125.0</ele><time>2026-04-26T13:07:07.162Z</time></trkpt><trkpt lat="42.5719643" lon="13.2103556"><ele>1126.5</ele><time>2026-04-26T13:07:08.163Z</time></trkpt><trkpt lat="42.5717117" lon="13.210563"><ele>1128.0</ele><time>2026-04-26T13:07:09.163Z</time></trkpt><trkpt lat="42.5714768" lon="13.2107817"><ele>1128.0</ele><time>2026-04-26T13:07:10.163Z</time></trkpt><trkpt lat="42.5712453" lon="13.21104"><ele>1128.0</ele><time>2026-04-26T13:07:11.162Z</time></trkpt><trkpt lat="42.5710321" lon="13.2113088"><ele>1130.0</ele><time>2026-04-26T13:07:12.162Z</time></trkpt><trkpt lat="42.5708532" lon="13.2115423"><ele>1132.0</ele><time>2026-04-26T13:07:13.162Z</time></trkpt><trkpt lat="42.5706984" lon="13.2117365"><ele>1132.0</ele><time>2026-04-26T13:07:14.162Z</time></trkpt><trkpt lat="42.5705728" lon="13.2118867"><ele>1132.0</ele><time>2026-04-26T13:07:15.162Z</time></trkpt><trkpt lat="42.5704289" lon="13.2120032"><ele>1132.0</ele><time>2026-04-26T13:07:16.162Z</time></trkpt><trkpt lat="42.5702663" lon="13.2120851"><ele>1132.0</ele><time>2026-04-26T13:07:17.162Z</time></trkpt><trkpt lat="42.5700803" lon="13.2121118"><ele>1132.0</ele><time>2026-04-26T13:07:18.162Z</time></trkpt><trkpt lat="42.569906" lon="13.2121292"><ele>1132.0</ele><time>2026-04-26T13:07:19.162Z</time></trkpt><trkpt lat="42.5697461" lon="13.2121609"><ele>1132.0</ele><time>2026-04-26T13:07:20.162Z</time></trkpt><trkpt lat="42.5696174" lon="13.2122349"><ele>1132.0</ele><time>2026-04-26T13:07:21.162Z</time></trkpt><trkpt lat="42.5695176" lon="13.2123621"><ele>1132.0</ele><time>2026-04-26T13:07:22.162Z</time></trkpt><trkpt lat="42.5694341" lon="13.2125269"><ele>1132.0</ele><time>2026-04-26T13:07:23.162Z</time></trkpt><trkpt lat="42.5693802" lon="13.2127333"><ele>1132.3333333333333</ele><time>2026-04-26T13:07:24.162Z</time></trkpt><trkpt lat="42.569348" lon="13.2129491"><ele>1132.6666666666667</ele><time>2026-04-26T13:07:25.162Z</time></trkpt><trkpt lat="42.5693086" lon="13.2131555"><ele>1133.0</ele><time>2026-04-26T13:07:26.162Z</time></trkpt><trkpt lat="42.5692389" lon="13.2133318"><ele>1134.0</ele><time>2026-04-26T13:07:27.162Z</time></trkpt><trkpt lat="42.5691494" lon="13.2134928"><ele>1135.0</ele><time>2026-04-26T13:07:28.162Z</time></trkpt><trkpt lat="42.5690295" lon="13.2136152"><ele>1136.0</ele><time>2026-04-26T13:07:29.163Z</time></trkpt><trkpt lat="42.568874" lon="13.2137028"><ele>1136.0</ele><time>2026-04-26T13:07:30.162Z</time></trkpt><trkpt lat="42.5686947" lon="13.2137935"><ele>1136.0</ele><time>2026-04-26T13:07:31.162Z</time></trkpt><trkpt lat="42.5685327" lon="13.213892"><ele>1136.0</ele><time>2026-04-26T13:07:32.162Z</time></trkpt><trkpt lat="42.5683944" lon="13.2140159"><ele>1136.0</ele><time>2026-04-26T13:07:33.162Z</time></trkpt><trkpt lat="42.5682849" lon="13.2141586"><ele>1136.0</ele><time>2026-04-26T13:07:34.162Z</time></trkpt><trkpt lat="42.568198" lon="13.2143542"><ele>1136.0</ele><time>2026-04-26T13:07:35.162Z</time></trkpt><trkpt lat="42.5681296" lon="13.2145871"><ele>1143.5</ele><time>2026-04-26T13:07:36.162Z</time></trkpt><trkpt lat="42.5680514" lon="13.2148597"><ele>1151.0</ele><time>2026-04-26T13:07:37.162Z</time></trkpt><trkpt lat="42.5679659" lon="13.2151614"><ele>1151.0</ele><time>2026-04-26T13:07:38.162Z</time></trkpt><trkpt lat="42.5678731" lon="13.2154709"><ele>1151.0</ele><time>2026-04-26T13:07:39.162Z</time></trkpt><trkpt lat="42.5677898" lon="13.2157557"><ele>1147.6666666666667</ele><time>2026-04-26T13:07:40.162Z</time></trkpt><trkpt lat="42.5677191" lon="13.2160033"><ele>1144.3333333333333</ele><time>2026-04-26T13:07:41.162Z</time></trkpt><trkpt lat="42.5676473" lon="13.216221"><ele>1141.0</ele><time>2026-04-26T13:07:42.162Z</time></trkpt><trkpt lat="42.5675474" lon="13.2164008"><ele>1142.3333333333333</ele><time>2026-04-26T13:07:43.162Z</time></trkpt><trkpt lat="42.5674089" lon="13.2165574"><ele>1143.6666666666667</ele><time>2026-04-26T13:07:44.163Z</time></trkpt><trkpt lat="42.5672505" lon="13.2166882"><ele>1145.0</ele><time>2026-04-26T13:07:45.163Z</time></trkpt><trkpt lat="42.5670621" lon="13.2167992"><ele>1142.3333333333335</ele><time>2026-04-26T13:07:46.162Z</time></trkpt><trkpt lat="42.5668734" lon="13.2169231"><ele>1139.6666666666667</ele><time>2026-04-26T13:07:47.163Z</time></trkpt><trkpt lat="42.5667007" lon="13.2170529"><ele>1137.0</ele><time>2026-04-26T13:07:48.162Z</time></trkpt><trkpt lat="42.5665519" lon="13.2171906"><ele>1136.3333333333333</ele><time>2026-04-26T13:07:49.162Z</time></trkpt><trkpt lat="42.5664154" lon="13.2173321"><ele>1135.6666666666665</ele><time>2026-04-26T13:07:50.162Z</time></trkpt><trkpt lat="42.5662917" lon="13.2174581"><ele>1135.0</ele><time>2026-04-26T13:07:51.163Z</time></trkpt><trkpt lat="42.5661593" lon="13.2175638"><ele>1135.0</ele><time>2026-04-26T13:07:52.163Z</time></trkpt><trkpt lat="42.565995" lon="13.2176648"><ele>1135.0</ele><time>2026-04-26T13:07:53.163Z</time></trkpt><trkpt lat="42.5658096" lon="13.2177291"><ele>1135.0</ele><time>2026-04-26T13:07:54.163Z</time></trkpt><trkpt lat="42.565636" lon="13.2177764"><ele>1135.0</ele><time>2026-04-26T13:07:55.162Z</time></trkpt><trkpt lat="42.5654905" lon="13.2178225"><ele>1135.0</ele><time>2026-04-26T13:07:56.163Z</time></trkpt><trkpt lat="42.5653657" lon="13.2178782"><ele>1135.0</ele><time>2026-04-26T13:07:57.162Z</time></trkpt><trkpt lat="42.5652529" lon="13.2179332"><ele>1135.0</ele><time>2026-04-26T13:07:58.163Z</time></trkpt><trkpt lat="42.5651364" lon="13.2180138"><ele>1135.75</ele><time>2026-04-26T13:07:59.162Z</time></trkpt><trkpt lat="42.5650332" lon="13.2181311"><ele>1136.5</ele><time>2026-04-26T13:08:00.163Z</time></trkpt><trkpt lat="42.5649298" lon="13.2182559"><ele>1137.25</ele><time>2026-04-26T13:08:01.162Z</time></trkpt><trkpt lat="42.5648119" lon="13.2183948"><ele>1138.0</ele><time>2026-04-26T13:08:02.162Z</time></trkpt><trkpt lat="42.5646859" lon="13.2185476"><ele>1138.3333333333333</ele><time>2026-04-26T13:08:03.162Z</time></trkpt><trkpt lat="42.5645463" lon="13.2187177"><ele>1138.6666666666667</ele><time>2026-04-26T13:08:04.163Z</time></trkpt><trkpt lat="42.5643696" lon="13.2188819"><ele>1139.0</ele><time>2026-04-26T13:08:05.162Z</time></trkpt><trkpt lat="42.5641723" lon="13.2190177"><ele>1139.3333333333335</ele><time>2026-04-26T13:08:06.162Z</time></trkpt><trkpt lat="42.563979" lon="13.2191263"><ele>1139.6666666666667</ele><time>2026-04-26T13:08:07.162Z</time></trkpt><trkpt lat="42.5637894" lon="13.2192326"><ele>1140.0</ele><time>2026-04-26T13:08:08.162Z</time></trkpt><trkpt lat="42.5636115" lon="13.2193617"><ele>1139.0</ele><time>2026-04-26T13:08:09.162Z</time></trkpt><trkpt lat="42.5634506" lon="13.2195367"><ele>1138.0</ele><time>2026-04-26T13:08:10.163Z</time></trkpt><trkpt lat="42.5633054" lon="13.2197234"><ele>1137.0</ele><time>2026-04-26T13:08:11.163Z</time></trkpt><trkpt lat="42.5631684" lon="13.2199016"><ele>1137.0</ele><time>2026-04-26T13:08:12.162Z</time></trkpt><trkpt lat="42.5630205" lon="13.2200981"><ele>1137.0</ele><time>2026-04-26T13:08:13.162Z</time></trkpt><trkpt lat="42.5628526" lon="13.2203105"><ele>1137.0</ele><time>2026-04-26T13:08:14.163Z</time></trkpt><trkpt lat="42.5626727" lon="13.2205111"><ele>1138.3333333333333</ele><time>2026-04-26T13:08:15.163Z</time></trkpt><trkpt lat="42.562512" lon="13.2206789"><ele>1139.6666666666665</ele><time>2026-04-26T13:08:16.162Z</time></trkpt><trkpt lat="42.5623581" lon="13.2208407"><ele>1141.0</ele><time>2026-04-26T13:08:17.162Z</time></trkpt><trkpt lat="42.5622139" lon="13.220977"><ele>1141.0</ele><time>2026-04-26T13:08:18.163Z</time></trkpt><trkpt lat="42.5620775" lon="13.2210906"><ele>1141.0</ele><time>2026-04-26T13:08:19.163Z</time></trkpt><trkpt lat="42.5619396" lon="13.2211724"><ele>1141.0</ele><time>2026-04-26T13:08:20.162Z</time></trkpt><trkpt lat="42.5618033" lon="13.2212372"><ele>1141.0</ele><time>2026-04-26T13:08:21.162Z</time></trkpt><trkpt lat="42.5616659" lon="13.2212888"><ele>1141.0</ele><time>2026-04-26T13:08:22.162Z</time></trkpt><trkpt lat="42.5615416" lon="13.2213244"><ele>1141.0</ele><time>2026-04-26T13:08:23.163Z</time></trkpt><trkpt lat="42.5614357" lon="13.2213554"><ele>1141.0</ele><time>2026-04-26T13:08:24.162Z</time></trkpt><trkpt lat="42.5613456" lon="13.2213597"><ele>1141.0</ele><time>2026-04-26T13:08:25.162Z</time></trkpt><trkpt lat="42.5612711" lon="13.2213229"><ele>1141.0</ele><time>2026-04-26T13:08:26.163Z</time></trkpt><trkpt lat="42.5612228" lon="13.2212526"><ele>1141.0</ele><time>2026-04-26T13:08:27.162Z</time></trkpt><trkpt lat="42.5612017" lon="13.221132"><ele>1141.0</ele><time>2026-04-26T13:08:28.163Z</time></trkpt><trkpt lat="42.5612077" lon="13.2209772"><ele>1141.0</ele><time>2026-04-26T13:08:29.162Z</time></trkpt><trkpt lat="42.5612111" lon="13.2208268"><ele>1141.0</ele><time>2026-04-26T13:08:30.162Z</time></trkpt><trkpt lat="42.5611991" lon="13.2207106"><ele>1141.0</ele><time>2026-04-26T13:08:31.163Z</time></trkpt><trkpt lat="42.5611624" lon="13.2206085"><ele>1141.0</ele><time>2026-04-26T13:08:32.162Z</time></trkpt><trkpt lat="42.5610994" lon="13.2205257"><ele>1141.0</ele><time>2026-04-26T13:08:33.162Z</time></trkpt><trkpt lat="42.5609627" lon="13.2205363"><ele>1141.0</ele><time>2026-04-26T13:08:34.162Z</time></trkpt><trkpt lat="42.5607837" lon="13.2206227"><ele>1143.3333333333333</ele><time>2026-04-26T13:08:35.162Z</time></trkpt><trkpt lat="42.5606044" lon="13.2207187"><ele>1145.6666666666667</ele><time>2026-04-26T13:08:36.162Z</time></trkpt><trkpt lat="42.560429" lon="13.2208278"><ele>1148.0</ele><time>2026-04-26T13:08:37.162Z</time></trkpt><trkpt lat="42.5602646" lon="13.220936"><ele>1148.6666666666667</ele><time>2026-04-26T13:08:38.162Z</time></trkpt><trkpt lat="42.5600978" lon="13.2210387"><ele>1149.3333333333333</ele><time>2026-04-26T13:08:39.163Z</time></trkpt><trkpt lat="42.5599344" lon="13.2211338"><ele>1150.0</ele><time>2026-04-26T13:08:40.163Z</time></trkpt><trkpt lat="42.5597722" lon="13.2212119"><ele>1150.0</ele><time>2026-04-26T13:08:41.163Z</time></trkpt><trkpt lat="42.5596038" lon="13.2212473"><ele>1150.0</ele><time>2026-04-26T13:08:42.163Z</time></trkpt><trkpt lat="42.5594358" lon="13.2212476"><ele>1150.0</ele><time>2026-04-26T13:08:43.162Z</time></trkpt><trkpt lat="42.5592611" lon="13.2212357"><ele>1149.5</ele><time>2026-04-26T13:08:44.162Z</time></trkpt><trkpt lat="42.5590992" lon="13.2212273"><ele>1149.0</ele><time>2026-04-26T13:08:45.162Z</time></trkpt><trkpt lat="42.5589581" lon="13.2212272"><ele>1148.5</ele><time>2026-04-26T13:08:46.162Z</time></trkpt><trkpt lat="42.5588237" lon="13.2212808"><ele>1148.0</ele><time>2026-04-26T13:08:47.163Z</time></trkpt><trkpt lat="42.5587181" lon="13.2213588"><ele>1149.0</ele><time>2026-04-26T13:08:48.162Z</time></trkpt><trkpt lat="42.5586204" lon="13.2214875"><ele>1150.0</ele><time>2026-04-26T13:08:49.163Z</time></trkpt><trkpt lat="42.5585586" lon="13.2216744"><ele>1151.0</ele><time>2026-04-26T13:08:50.162Z</time></trkpt><trkpt lat="42.5585093" lon="13.2218862"><ele>1151.0</ele><time>2026-04-26T13:08:51.162Z</time></trkpt><trkpt lat="42.5584534" lon="13.222089"><ele>1151.0</ele><time>2026-04-26T13:08:52.162Z</time></trkpt><trkpt lat="42.5583726" lon="13.2222646"><ele>1151.0</ele><time>2026-04-26T13:08:53.162Z</time></trkpt><trkpt lat="42.5582552" lon="13.2224025"><ele>1152.0</ele><time>2026-04-26T13:08:54.162Z</time></trkpt><trkpt lat="42.5581256" lon="13.2224875"><ele>1153.0</ele><time>2026-04-26T13:08:55.162Z</time></trkpt><trkpt lat="42.5580013" lon="13.2225348"><ele>1154.0</ele><time>2026-04-26T13:08:56.163Z</time></trkpt><trkpt lat="42.5579008" lon="13.2225991"><ele>1155.0</ele><time>2026-04-26T13:08:57.162Z</time></trkpt><trkpt lat="42.557835" lon="13.2227115"><ele>1153.0</ele><time>2026-04-26T13:08:58.163Z</time></trkpt><trkpt lat="42.5577882" lon="13.222851"><ele>1151.0</ele><time>2026-04-26T13:08:59.162Z</time></trkpt><trkpt lat="42.5577664" lon="13.2230495"><ele>1149.0</ele><time>2026-04-26T13:09:00.162Z</time></trkpt><trkpt lat="42.5577735" lon="13.2233019"><ele>1147.0</ele><time>2026-04-26T13:09:01.162Z</time></trkpt><trkpt lat="42.557774" lon="13.2235352"><ele>1147.0</ele><time>2026-04-26T13:09:02.162Z</time></trkpt><trkpt lat="42.5577515" lon="13.2237252"><ele>1147.0</ele><time>2026-04-26T13:09:03.162Z</time></trkpt><trkpt lat="42.5577027" lon="13.2239068"><ele>1147.0</ele><time>2026-04-26T13:09:04.163Z</time></trkpt><trkpt lat="42.5576087" lon="13.2240666"><ele>1147.0</ele><time>2026-04-26T13:09:05.162Z</time></trkpt><trkpt lat="42.5574675" lon="13.2242047"><ele>1147.3333333333333</ele><time>2026-04-26T13:09:06.163Z</time></trkpt><trkpt lat="42.557293" lon="13.224371"><ele>1147.6666666666667</ele><time>2026-04-26T13:09:07.162Z</time></trkpt><trkpt lat="42.5571227" lon="13.2245602"><ele>1148.0</ele><time>2026-04-26T13:09:08.162Z</time></trkpt><trkpt lat="42.5569664" lon="13.224773"><ele>1145.0</ele><time>2026-04-26T13:09:09.162Z</time></trkpt><trkpt lat="42.5568274" lon="13.2250208"><ele>1142.0</ele><time>2026-04-26T13:09:10.163Z</time></trkpt><trkpt lat="42.5567077" lon="13.2252663"><ele>1139.0</ele><time>2026-04-26T13:09:11.163Z</time></trkpt><trkpt lat="42.5565862" lon="13.2254879"><ele>1137.6666666666667</ele><time>2026-04-26T13:09:12.162Z</time></trkpt><trkpt lat="42.5564657" lon="13.2256657"><ele>1136.3333333333333</ele><time>2026-04-26T13:09:13.162Z</time></trkpt><trkpt lat="42.5563185" lon="13.2258256"><ele>1135.0</ele><time>2026-04-26T13:09:14.162Z</time></trkpt><trkpt lat="42.556148" lon="13.225969"><ele>1135.0</ele><time>2026-04-26T13:09:15.163Z</time></trkpt><trkpt lat="42.5559408" lon="13.2261"><ele>1135.0</ele><time>2026-04-26T13:09:16.162Z</time></trkpt><trkpt lat="42.5557207" lon="13.2262243"><ele>1135.0</ele><time>2026-04-26T13:09:17.162Z</time></trkpt><trkpt lat="42.5554907" lon="13.2263645"><ele>1135.0</ele><time>2026-04-26T13:09:18.162Z</time></trkpt><trkpt lat="42.5552739" lon="13.2265054"><ele>1135.0</ele><time>2026-04-26T13:09:19.162Z</time></trkpt><trkpt lat="42.5550664" lon="13.2266242"><ele>1135.0</ele><time>2026-04-26T13:09:20.162Z</time></trkpt><trkpt lat="42.5548804" lon="13.2267454"><ele>1135.0</ele><time>2026-04-26T13:09:21.163Z</time></trkpt><trkpt lat="42.5547328" lon="13.2268395"><ele>1135.0</ele><time>2026-04-26T13:09:22.162Z</time></trkpt><trkpt lat="42.5546021" lon="13.2269308"><ele>1135.0</ele><time>2026-04-26T13:09:23.163Z</time></trkpt><trkpt lat="42.5544808" lon="13.2270501"><ele>1135.0</ele><time>2026-04-26T13:09:24.162Z</time></trkpt><trkpt lat="42.5543702" lon="13.227208"><ele>1137.3333333333333</ele><time>2026-04-26T13:09:25.163Z</time></trkpt><trkpt lat="42.5542761" lon="13.2274198"><ele>1139.6666666666667</ele><time>2026-04-26T13:09:26.162Z</time></trkpt><trkpt lat="42.5541853" lon="13.2276401"><ele>1142.0</ele><time>2026-04-26T13:09:27.163Z</time></trkpt><trkpt lat="42.5540932" lon="13.2278397"><ele>1142.0</ele><time>2026-04-26T13:09:28.162Z</time></trkpt><trkpt lat="42.5539661" lon="13.2280088"><ele>1142.0</ele><time>2026-04-26T13:09:29.162Z</time></trkpt><trkpt lat="42.5538202" lon="13.2281498"><ele>1142.0</ele><time>2026-04-26T13:09:30.163Z</time></trkpt><trkpt lat="42.553663" lon="13.2282987"><ele>1141.0</ele><time>2026-04-26T13:09:31.163Z</time></trkpt><trkpt lat="42.5535142" lon="13.2284447"><ele>1140.0</ele><time>2026-04-26T13:09:32.162Z</time></trkpt><trkpt lat="42.5533784" lon="13.2285705"><ele>1139.0</ele><time>2026-04-26T13:09:33.162Z</time></trkpt><trkpt lat="42.5532319" lon="13.22867"><ele>1139.0</ele><time>2026-04-26T13:09:34.162Z</time></trkpt><trkpt lat="42.553081" lon="13.2287382"><ele>1139.0</ele><time>2026-04-26T13:09:35.163Z</time></trkpt><trkpt lat="42.5529333" lon="13.2287835"><ele>1139.0</ele><time>2026-04-26T13:09:36.163Z</time></trkpt><trkpt lat="42.5527883" lon="13.2288222"><ele>1137.0</ele><time>2026-04-26T13:09:37.162Z</time></trkpt><trkpt lat="42.5526434" lon="13.2289132"><ele>1135.0</ele><time>2026-04-26T13:09:38.162Z</time></trkpt><trkpt lat="42.5524999" lon="13.2290706"><ele>1133.0</ele><time>2026-04-26T13:09:39.162Z</time></trkpt><trkpt lat="42.5523332" lon="13.2292736"><ele>1133.0</ele><time>2026-04-26T13:09:40.162Z</time></trkpt><trkpt lat="42.5521528" lon="13.2294863"><ele>1133.0</ele><time>2026-04-26T13:09:41.162Z</time></trkpt><trkpt lat="42.551984" lon="13.2296739"><ele>1130.25</ele><time>2026-04-26T13:09:42.162Z</time></trkpt><trkpt lat="42.5518382" lon="13.2298251"><ele>1127.5</ele><time>2026-04-26T13:09:43.162Z</time></trkpt><trkpt lat="42.551732" lon="13.22996"><ele>1124.75</ele><time>2026-04-26T13:09:44.162Z</time></trkpt><trkpt lat="42.5516548" lon="13.2300798"><ele>1122.0</ele><time>2026-04-26T13:09:45.162Z</time></trkpt><trkpt lat="42.5515917" lon="13.2302124"><ele>1122.0</ele><time>2026-04-26T13:09:46.162Z</time></trkpt><trkpt lat="42.5515655" lon="13.2303637"><ele>1122.0</ele><time>2026-04-26T13:09:47.162Z</time></trkpt><trkpt lat="42.5515824" lon="13.2305405"><ele>1122.0</ele><time>2026-04-26T13:09:48.162Z</time></trkpt><trkpt lat="42.5516143" lon="13.2307428"><ele>1122.0</ele><time>2026-04-26T13:09:49.162Z</time></trkpt><trkpt lat="42.551696" lon="13.2309793"><ele>1122.0</ele><time>2026-04-26T13:09:50.162Z</time></trkpt><trkpt lat="42.5517748" lon="13.2311965"><ele>1122.0</ele><time>2026-04-26T13:09:51.163Z</time></trkpt><trkpt lat="42.5518684" lon="13.2313994"><ele>1122.0</ele><time>2026-04-26T13:09:52.162Z</time></trkpt><trkpt lat="42.5519701" lon="13.231585"><ele>1121.4</ele><time>2026-04-26T13:09:53.163Z</time></trkpt><trkpt lat="42.5520614" lon="13.2317455"><ele>1120.8000000000002</ele><time>2026-04-26T13:09:54.162Z</time></trkpt><trkpt lat="42.5521327" lon="13.231874"><ele>1120.2</ele><time>2026-04-26T13:09:55.162Z</time></trkpt><trkpt lat="42.5521714" lon="13.2319666"><ele>1119.6000000000001</ele><time>2026-04-26T13:09:56.162Z</time></trkpt><trkpt lat="42.5521649" lon="13.2320614"><ele>1119.0</ele><time>2026-04-26T13:09:57.162Z</time></trkpt><trkpt lat="42.5521226" lon="13.2321371"><ele>1119.0</ele><time>2026-04-26T13:09:58.162Z</time></trkpt><trkpt lat="42.5520558" lon="13.2321687"><ele>1119.0</ele><time>2026-04-26T13:09:59.162Z</time></trkpt><trkpt lat="42.5519799" lon="13.2321543"><ele>1119.0</ele><time>2026-04-26T13:10:00.163Z</time></trkpt><trkpt lat="42.5519073" lon="13.2320946"><ele>1119.0</ele><time>2026-04-26T13:10:01.162Z</time></trkpt><trkpt lat="42.5518284" lon="13.2319719"><ele>1119.0</ele><time>2026-04-26T13:10:02.162Z</time></trkpt><trkpt lat="42.5517328" lon="13.23183"><ele>1117.8333333333333</ele><time>2026-04-26T13:10:03.162Z</time></trkpt><trkpt lat="42.5516466" lon="13.2317054"><ele>1116.6666666666667</ele><time>2026-04-26T13:10:04.163Z</time></trkpt><trkpt lat="42.5515816" lon="13.2316282"><ele>1115.5</ele><time>2026-04-26T13:10:05.162Z</time></trkpt><trkpt lat="42.5514986" lon="13.2316019"><ele>1114.3333333333335</ele><time>2026-04-26T13:10:06.162Z</time></trkpt><trkpt lat="42.5514254" lon="13.2316358"><ele>1113.1666666666667</ele><time>2026-04-26T13:10:07.162Z</time></trkpt><trkpt lat="42.5513871" lon="13.2317122"><ele>1112.0</ele><time>2026-04-26T13:10:08.162Z</time></trkpt><trkpt lat="42.5513637" lon="13.2318525"><ele>1112.0</ele><time>2026-04-26T13:10:09.162Z</time></trkpt><trkpt lat="42.5513364" lon="13.2320057"><ele>1112.0</ele><time>2026-04-26T13:10:10.163Z</time></trkpt><trkpt lat="42.5512804" lon="13.2321432"><ele>1112.0</ele><time>2026-04-26T13:10:11.162Z</time></trkpt><trkpt lat="42.5511788" lon="13.2322589"><ele>1112.0</ele><time>2026-04-26T13:10:12.162Z</time></trkpt><trkpt lat="42.5510466" lon="13.2323723"><ele>1107.3333333333335</ele><time>2026-04-26T13:10:13.162Z</time></trkpt><trkpt lat="42.5509084" lon="13.2324937"><ele>1102.6666666666667</ele><time>2026-04-26T13:10:14.162Z</time></trkpt><trkpt lat="42.5507778" lon="13.2326239"><ele>1098.0</ele><time>2026-04-26T13:10:15.163Z</time></trkpt><trkpt lat="42.5506683" lon="13.2327463"><ele>1098.0</ele><time>2026-04-26T13:10:16.162Z</time></trkpt><trkpt lat="42.5505731" lon="13.2328585"><ele>1098.0</ele><time>2026-04-26T13:10:17.163Z</time></trkpt><trkpt lat="42.5504991" lon="13.2329689"><ele>1098.0</ele><time>2026-04-26T13:10:18.163Z</time></trkpt><trkpt lat="42.5504439" lon="13.2330824"><ele>1098.0</ele><time>2026-04-26T13:10:19.163Z</time></trkpt><trkpt lat="42.5504107" lon="13.2331921"><ele>1098.0</ele><time>2026-04-26T13:10:20.162Z</time></trkpt><trkpt lat="42.5503875" lon="13.2332958"><ele>1097.2857142857142</ele><time>2026-04-26T13:10:21.162Z</time></trkpt><trkpt lat="42.5503572" lon="13.2334009"><ele>1096.5714285714287</ele><time>2026-04-26T13:10:22.162Z</time></trkpt><trkpt lat="42.5503257" lon="13.2334961"><ele>1095.857142857143</ele><time>2026-04-26T13:10:23.162Z</time></trkpt><trkpt lat="42.5502923" lon="13.2335823"><ele>1095.142857142857</ele><time>2026-04-26T13:10:24.163Z</time></trkpt><trkpt lat="42.5502556" lon="13.2336594"><ele>1094.4285714285713</ele><time>2026-04-26T13:10:25.163Z</time></trkpt><trkpt lat="42.5502191" lon="13.2337357"><ele>1093.7142857142858</ele><time>2026-04-26T13:10:26.162Z</time></trkpt><trkpt lat="42.5501746" lon="13.2337968"><ele>1093.0</ele><time>2026-04-26T13:10:27.162Z</time></trkpt><trkpt lat="42.5501236" lon="13.2338481"><ele>1093.0</ele><time>2026-04-26T13:10:28.162Z</time></trkpt><trkpt lat="42.5500202" lon="13.2338941"><ele>1093.0</ele><time>2026-04-26T13:10:30.162Z</time></trkpt><trkpt lat="42.549922" lon="13.2339579"><ele>1093.0</ele><time>2026-04-26T13:10:32.162Z</time></trkpt><trkpt lat="42.5498218" lon="13.2339137"><ele>1093.0</ele><time>2026-04-26T13:10:34.162Z</time></trkpt><trkpt lat="42.5497702" lon="13.2338467"><ele>1093.0</ele><time>2026-04-26T13:10:35.163Z</time></trkpt><trkpt lat="42.5497113" lon="13.2337761"><ele>1093.0</ele><time>2026-04-26T13:10:36.162Z</time></trkpt><trkpt lat="42.5496363" lon="13.2336952"><ele>1093.0</ele><time>2026-04-26T13:10:37.162Z</time></trkpt><trkpt lat="42.5495498" lon="13.2336222"><ele>1093.0</ele><time>2026-04-26T13:10:38.163Z</time></trkpt><trkpt lat="42.5494585" lon="13.2335512"><ele>1093.0</ele><time>2026-04-26T13:10:39.162Z</time></trkpt><trkpt lat="42.5493676" lon="13.233476"><ele>1093.0</ele><time>2026-04-26T13:10:40.162Z</time></trkpt><trkpt lat="42.5492761" lon="13.2333929"><ele>1091.75</ele><time>2026-04-26T13:10:41.162Z</time></trkpt><trkpt lat="42.54919" lon="13.2333135"><ele>1090.5</ele><time>2026-04-26T13:10:42.163Z</time></trkpt><trkpt lat="42.5491002" lon="13.2332178"><ele>1089.25</ele><time>2026-04-26T13:10:43.162Z</time></trkpt><trkpt lat="42.5489894" lon="13.2330867"><ele>1088.0</ele><time>2026-04-26T13:10:44.162Z</time></trkpt><trkpt lat="42.5488661" lon="13.2329345"><ele>1086.0</ele><time>2026-04-26T13:10:45.162Z</time></trkpt><trkpt lat="42.5487359" lon="13.2327792"><ele>1084.0</ele><time>2026-04-26T13:10:46.162Z</time></trkpt><trkpt lat="42.5485803" lon="13.2326022"><ele>1082.0</ele><time>2026-04-26T13:10:47.162Z</time></trkpt><trkpt lat="42.5484004" lon="13.2323977"><ele>1078.5</ele><time>2026-04-26T13:10:48.162Z</time></trkpt><trkpt lat="42.5482116" lon="13.2321711"><ele>1075.0</ele><time>2026-04-26T13:10:49.162Z</time></trkpt><trkpt lat="42.5480367" lon="13.2319413"><ele>1073.6666666666665</ele><time>2026-04-26T13:10:50.162Z</time></trkpt><trkpt lat="42.5478757" lon="13.231721"><ele>1072.3333333333333</ele><time>2026-04-26T13:10:51.162Z</time></trkpt><trkpt lat="42.5477175" lon="13.2315248"><ele>1071.0</ele><time>2026-04-26T13:10:52.162Z</time></trkpt><trkpt lat="42.5475705" lon="13.2313488"><ele>1073.6666666666667</ele><time>2026-04-26T13:10:53.162Z</time></trkpt><trkpt lat="42.54744" lon="13.2311978"><ele>1076.3333333333335</ele><time>2026-04-26T13:10:54.162Z</time></trkpt><trkpt lat="42.5473043" lon="13.23105"><ele>1079.0</ele><time>2026-04-26T13:10:55.162Z</time></trkpt><trkpt lat="42.5471719" lon="13.2309062"><ele>1078.0</ele><time>2026-04-26T13:10:56.163Z</time></trkpt><trkpt lat="42.5470285" lon="13.2307643"><ele>1077.0</ele><time>2026-04-26T13:10:57.162Z</time></trkpt><trkpt lat="42.5468913" lon="13.2306327"><ele>1076.0</ele><time>2026-04-26T13:10:58.162Z</time></trkpt><trkpt lat="42.5467591" lon="13.230526"><ele>1077.0</ele><time>2026-04-26T13:10:59.163Z</time></trkpt><trkpt lat="42.5466304" lon="13.2304531"><ele>1078.0</ele><time>2026-04-26T13:11:00.163Z</time></trkpt><trkpt lat="42.5464879" lon="13.230424"><ele>1079.0</ele><time>2026-04-26T13:11:01.162Z</time></trkpt><trkpt lat="42.5463426" lon="13.2304403"><ele>1080.0</ele><time>2026-04-26T13:11:02.162Z</time></trkpt><trkpt lat="42.5461822" lon="13.2305162"><ele>1080.0</ele><time>2026-04-26T13:11:03.169Z</time></trkpt><trkpt lat="42.5460184" lon="13.2306005"><ele>1080.0</ele><time>2026-04-26T13:11:04.169Z</time></trkpt><trkpt lat="42.5458576" lon="13.2306692"><ele>1080.0</ele><time>2026-04-26T13:11:05.169Z</time></trkpt><trkpt lat="42.5456996" lon="13.230736"><ele>1077.75</ele><time>2026-04-26T13:11:06.17Z</time></trkpt><trkpt lat="42.5455547" lon="13.2307622"><ele>1075.5</ele><time>2026-04-26T13:11:07.169Z</time></trkpt><trkpt lat="42.5454144" lon="13.2307635"><ele>1073.25</ele><time>2026-04-26T13:11:08.169Z</time></trkpt><trkpt lat="42.5452769" lon="13.2307441"><ele>1071.0</ele><time>2026-04-26T13:11:09.169Z</time></trkpt><trkpt lat="42.5451442" lon="13.2306956"><ele>1070.0</ele><time>2026-04-26T13:11:10.17Z</time></trkpt><trkpt lat="42.5450233" lon="13.2305992"><ele>1069.0</ele><time>2026-04-26T13:11:11.17Z</time></trkpt><trkpt lat="42.544911" lon="13.2304698"><ele>1068.0</ele><time>2026-04-26T13:11:12.169Z</time></trkpt><trkpt lat="42.5448259" lon="13.2303317"><ele>1067.0</ele><time>2026-04-26T13:11:13.169Z</time></trkpt><trkpt lat="42.5447712" lon="13.2301754"><ele>1067.0</ele><time>2026-04-26T13:11:14.169Z</time></trkpt><trkpt lat="42.5447554" lon="13.2299918"><ele>1067.0</ele><time>2026-04-26T13:11:15.169Z</time></trkpt><trkpt lat="42.5447533" lon="13.2297893"><ele>1067.0</ele><time>2026-04-26T13:11:16.17Z</time></trkpt><trkpt lat="42.5447535" lon="13.2296032"><ele>1067.0</ele><time>2026-04-26T13:11:17.169Z</time></trkpt><trkpt lat="42.5447323" lon="13.2294252"><ele>1066.0</ele><time>2026-04-26T13:11:18.17Z</time></trkpt><trkpt lat="42.5446742" lon="13.2292707"><ele>1065.0</ele><time>2026-04-26T13:11:19.169Z</time></trkpt><trkpt lat="42.5445926" lon="13.2291582"><ele>1064.0</ele><time>2026-04-26T13:11:20.169Z</time></trkpt><trkpt lat="42.5444682" lon="13.2290968"><ele>1063.0</ele><time>2026-04-26T13:11:21.169Z</time></trkpt><trkpt lat="42.5443294" lon="13.2290891"><ele>1061.25</ele><time>2026-04-26T13:11:22.169Z</time></trkpt><trkpt lat="42.5441724" lon="13.2291091"><ele>1059.5</ele><time>2026-04-26T13:11:23.169Z</time></trkpt><trkpt lat="42.5440283" lon="13.2291481"><ele>1057.75</ele><time>2026-04-26T13:11:24.169Z</time></trkpt><trkpt lat="42.5439062" lon="13.2291809"><ele>1056.0</ele><time>2026-04-26T13:11:25.169Z</time></trkpt><trkpt lat="42.5438184" lon="13.2292106"><ele>1054.0</ele><time>2026-04-26T13:11:26.169Z</time></trkpt><trkpt lat="42.5437091" lon="13.2291445"><ele>1052.0</ele><time>2026-04-26T13:11:28.169Z</time></trkpt><trkpt lat="42.5437271" lon="13.2289666"><ele>1050.0</ele><time>2026-04-26T13:11:30.17Z</time></trkpt><trkpt lat="42.5437951" lon="13.228831"><ele>1048.0</ele><time>2026-04-26T13:11:31.169Z</time></trkpt><trkpt lat="42.5438559" lon="13.2286824"><ele>1048.0</ele><time>2026-04-26T13:11:32.169Z</time></trkpt><trkpt lat="42.5438865" lon="13.2285565"><ele>1048.0</ele><time>2026-04-26T13:11:33.169Z</time></trkpt><trkpt lat="42.5438787" lon="13.2284312"><ele>1048.0</ele><time>2026-04-26T13:11:34.17Z</time></trkpt><trkpt lat="42.5438288" lon="13.2283041"><ele>1048.0</ele><time>2026-04-26T13:11:35.169Z</time></trkpt><trkpt lat="42.5437549" lon="13.228192"><ele>1048.0</ele><time>2026-04-26T13:11:36.169Z</time></trkpt><trkpt lat="42.5436197" lon="13.2280786"><ele>1045.6666666666665</ele><time>2026-04-26T13:11:37.169Z</time></trkpt><trkpt lat="42.5434267" lon="13.227956"><ele>1043.3333333333333</ele><time>2026-04-26T13:11:38.169Z</time></trkpt><trkpt lat="42.5432175" lon="13.2278113"><ele>1041.0</ele><time>2026-04-26T13:11:39.169Z</time></trkpt><trkpt lat="42.5430273" lon="13.2276702"><ele>1041.5</ele><time>2026-04-26T13:11:40.169Z</time></trkpt><trkpt lat="42.5428728" lon="13.2275562"><ele>1042.0</ele><time>2026-04-26T13:11:41.169Z</time></trkpt><trkpt lat="42.5427479" lon="13.2274656"><ele>1042.5</ele><time>2026-04-26T13:11:42.169Z</time></trkpt><trkpt lat="42.5426305" lon="13.2274138"><ele>1043.0</ele><time>2026-04-26T13:11:43.169Z</time></trkpt><trkpt lat="42.542502" lon="13.2273967"><ele>1043.0</ele><time>2026-04-26T13:11:44.17Z</time></trkpt><trkpt lat="42.5423792" lon="13.2274336"><ele>1043.0</ele><time>2026-04-26T13:11:45.169Z</time></trkpt><trkpt lat="42.5422511" lon="13.2275538"><ele>1043.0</ele><time>2026-04-26T13:11:46.169Z</time></trkpt><trkpt lat="42.5421432" lon="13.2276836"><ele>1043.0</ele><time>2026-04-26T13:11:47.169Z</time></trkpt><trkpt lat="42.5420441" lon="13.2277685"><ele>1046.2</ele><time>2026-04-26T13:11:48.17Z</time></trkpt><trkpt lat="42.5419515" lon="13.2278083"><ele>1049.4</ele><time>2026-04-26T13:11:49.17Z</time></trkpt><trkpt lat="42.5418538" lon="13.22779"><ele>1052.6000000000001</ele><time>2026-04-26T13:11:50.169Z</time></trkpt><trkpt lat="42.5417469" lon="13.2277465"><ele>1055.8</ele><time>2026-04-26T13:11:51.17Z</time></trkpt><trkpt lat="42.5416167" lon="13.2277452"><ele>1059.0</ele><time>2026-04-26T13:11:52.169Z</time></trkpt><trkpt lat="42.5414692" lon="13.2278033"><ele>1059.0</ele><time>2026-04-26T13:11:53.169Z</time></trkpt><trkpt lat="42.5413322" lon="13.2278611"><ele>1059.0</ele><time>2026-04-26T13:11:54.169Z</time></trkpt><trkpt lat="42.5412017" lon="13.2278612"><ele>1059.0</ele><time>2026-04-26T13:11:55.169Z</time></trkpt><trkpt lat="42.5410878" lon="13.2278877"><ele>1059.0</ele><time>2026-04-26T13:11:56.17Z</time></trkpt><trkpt lat="42.5409895" lon="13.2279488"><ele>1061.2</ele><time>2026-04-26T13:11:57.169Z</time></trkpt><trkpt lat="42.5409031" lon="13.2280139"><ele>1063.4</ele><time>2026-04-26T13:11:58.169Z</time></trkpt><trkpt lat="42.5408232" lon="13.2280431"><ele>1065.6</ele><time>2026-04-26T13:11:59.169Z</time></trkpt><trkpt lat="42.5407557" lon="13.2279859"><ele>1067.8</ele><time>2026-04-26T13:12:00.169Z</time></trkpt><trkpt lat="42.5406785" lon="13.2278491"><ele>1070.0</ele><time>2026-04-26T13:12:01.169Z</time></trkpt><trkpt lat="42.5405833" lon="13.2276889"><ele>1070.0</ele><time>2026-04-26T13:12:02.169Z</time></trkpt><trkpt lat="42.5404628" lon="13.2275631"><ele>1070.0</ele><time>2026-04-26T13:12:03.169Z</time></trkpt><trkpt lat="42.5403075" lon="13.2275019"><ele>1070.0</ele><time>2026-04-26T13:12:04.169Z</time></trkpt><trkpt lat="42.5401418" lon="13.227506"><ele>1070.0</ele><time>2026-04-26T13:12:05.17Z</time></trkpt><trkpt lat="42.5399807" lon="13.2275106"><ele>1070.0</ele><time>2026-04-26T13:12:06.169Z</time></trkpt><trkpt lat="42.5398437" lon="13.2274927"><ele>1070.0</ele><time>2026-04-26T13:12:07.169Z</time></trkpt><trkpt lat="42.5397334" lon="13.2274079"><ele>1070.0</ele><time>2026-04-26T13:12:08.17Z</time></trkpt><trkpt lat="42.5396481" lon="13.2272735"><ele>1070.25</ele><time>2026-04-26T13:12:09.169Z</time></trkpt><trkpt lat="42.539549" lon="13.227192"><ele>1070.5</ele><time>2026-04-26T13:12:10.169Z</time></trkpt><trkpt lat="42.5394251" lon="13.2271718"><ele>1070.75</ele><time>2026-04-26T13:12:11.17Z</time></trkpt><trkpt lat="42.5392858" lon="13.2272387"><ele>1071.0</ele><time>2026-04-26T13:12:12.169Z</time></trkpt><trkpt lat="42.5391435" lon="13.2273409"><ele>1070.5</ele><time>2026-04-26T13:12:13.169Z</time></trkpt><trkpt lat="42.5390055" lon="13.2274255"><ele>1070.0</ele><time>2026-04-26T13:12:14.17Z</time></trkpt><trkpt lat="42.5388821" lon="13.2274726"><ele>1069.5</ele><time>2026-04-26T13:12:15.169Z</time></trkpt><trkpt lat="42.5387608" lon="13.2274591"><ele>1069.0</ele><time>2026-04-26T13:12:16.169Z</time></trkpt><trkpt lat="42.5386413" lon="13.2273979"><ele>1069.0</ele><time>2026-04-26T13:12:17.169Z</time></trkpt><trkpt lat="42.5385273" lon="13.2273104"><ele>1069.0</ele><time>2026-04-26T13:12:18.169Z</time></trkpt><trkpt lat="42.5384089" lon="13.2272432"><ele>1069.0</ele><time>2026-04-26T13:12:19.169Z</time></trkpt><trkpt lat="42.5382786" lon="13.2272426"><ele>1069.0</ele><time>2026-04-26T13:12:20.169Z</time></trkpt><trkpt lat="42.5381484" lon="13.2273011"><ele>1069.0</ele><time>2026-04-26T13:12:21.169Z</time></trkpt><trkpt lat="42.5380039" lon="13.2274085"><ele>1069.0</ele><time>2026-04-26T13:12:22.169Z</time></trkpt><trkpt lat="42.5378521" lon="13.2275377"><ele>1069.0</ele><time>2026-04-26T13:12:23.169Z</time></trkpt><trkpt lat="42.5377141" lon="13.227664"><ele>1069.0</ele><time>2026-04-26T13:12:24.169Z</time></trkpt><trkpt lat="42.5375812" lon="13.2277834"><ele>1069.0</ele><time>2026-04-26T13:12:25.169Z</time></trkpt><trkpt lat="42.5374416" lon="13.2278704"><ele>1069.0</ele><time>2026-04-26T13:12:26.169Z</time></trkpt><trkpt lat="42.5372842" lon="13.2279265"><ele>1069.0</ele><time>2026-04-26T13:12:27.17Z</time></trkpt><trkpt lat="42.5371056" lon="13.2279519"><ele>1069.0</ele><time>2026-04-26T13:12:28.169Z</time></trkpt><trkpt lat="42.5369317" lon="13.2279508"><ele>1069.0</ele><time>2026-04-26T13:12:29.169Z</time></trkpt><trkpt lat="42.5367629" lon="13.2279548"><ele>1067.4</ele><time>2026-04-26T13:12:30.169Z</time></trkpt><trkpt lat="42.5366179" lon="13.2279612"><ele>1065.8000000000002</ele><time>2026-04-26T13:12:31.17Z</time></trkpt><trkpt lat="42.5365053" lon="13.2279544"><ele>1064.1999999999998</ele><time>2026-04-26T13:12:32.169Z</time></trkpt><trkpt lat="42.5364166" lon="13.2279204"><ele>1062.6</ele><time>2026-04-26T13:12:33.169Z</time></trkpt><trkpt lat="42.5363435" lon="13.2278396"><ele>1061.0</ele><time>2026-04-26T13:12:34.169Z</time></trkpt><trkpt lat="42.5362863" lon="13.2277418"><ele>1061.0</ele><time>2026-04-26T13:12:35.169Z</time></trkpt><trkpt lat="42.5362476" lon="13.2276423"><ele>1061.0</ele><time>2026-04-26T13:12:36.169Z</time></trkpt><trkpt lat="42.5361663" lon="13.227563"><ele>1061.0</ele><time>2026-04-26T13:12:38.169Z</time></trkpt><trkpt lat="42.5360987" lon="13.2275787"><ele>1061.0</ele><time>2026-04-26T13:12:41.169Z</time></trkpt><trkpt lat="42.5360403" lon="13.2276261"><ele>1061.0</ele><time>2026-04-26T13:12:47.169Z</time></trkpt><trkpt lat="42.5359721" lon="13.2276761"><ele>1061.0</ele><time>2026-04-26T13:12:48.169Z</time></trkpt><trkpt lat="42.5358854" lon="13.2277237"><ele>1057.6666666666667</ele><time>2026-04-26T13:12:49.17Z</time></trkpt><trkpt lat="42.53577" lon="13.2277287"><ele>1054.3333333333333</ele><time>2026-04-26T13:12:50.169Z</time></trkpt><trkpt lat="42.5356002" lon="13.2277163"><ele>1051.0</ele><time>2026-04-26T13:12:51.169Z</time></trkpt><trkpt lat="42.5353815" lon="13.2277007"><ele>1047.0</ele><time>2026-04-26T13:12:52.169Z</time></trkpt><trkpt lat="42.5351147" lon="13.2276795"><ele>1043.0</ele><time>2026-04-26T13:12:53.169Z</time></trkpt><trkpt lat="42.5348188" lon="13.2276484"><ele>1042.5</ele><time>2026-04-26T13:12:54.169Z</time></trkpt><trkpt lat="42.5345312" lon="13.2276276"><ele>1042.0</ele><time>2026-04-26T13:12:55.17Z</time></trkpt><trkpt lat="42.5342631" lon="13.2275987"><ele>1042.0</ele><time>2026-04-26T13:12:56.169Z</time></trkpt><trkpt lat="42.534006" lon="13.227558"><ele>1042.0</ele><time>2026-04-26T13:12:57.169Z</time></trkpt><trkpt lat="42.5337635" lon="13.2274992"><ele>1040.6666666666665</ele><time>2026-04-26T13:12:58.17Z</time></trkpt><trkpt lat="42.5335365" lon="13.2274477"><ele>1039.3333333333333</ele><time>2026-04-26T13:12:59.169Z</time></trkpt><trkpt lat="42.5333352" lon="13.2274064"><ele>1038.0</ele><time>2026-04-26T13:13:00.169Z</time></trkpt><trkpt lat="42.5331503" lon="13.2273754"><ele>1038.0</ele><time>2026-04-26T13:13:01.169Z</time></trkpt><trkpt lat="42.5329839" lon="13.2273765"><ele>1038.0</ele><time>2026-04-26T13:13:02.169Z</time></trkpt><trkpt lat="42.5328046" lon="13.2274293"><ele>1038.0</ele><time>2026-04-26T13:13:03.169Z</time></trkpt><trkpt lat="42.5326179" lon="13.2275353"><ele>1034.6666666666667</ele><time>2026-04-26T13:13:04.169Z</time></trkpt><trkpt lat="42.532436" lon="13.2276433"><ele>1031.3333333333335</ele><time>2026-04-26T13:13:05.17Z</time></trkpt><trkpt lat="42.5322818" lon="13.2277373"><ele>1028.0</ele><time>2026-04-26T13:13:06.169Z</time></trkpt><trkpt lat="42.5321543" lon="13.2278198"><ele>1028.0</ele><time>2026-04-26T13:13:07.17Z</time></trkpt><trkpt lat="42.5320569" lon="13.2279226"><ele>1028.0</ele><time>2026-04-26T13:13:08.169Z</time></trkpt><trkpt lat="42.5320041" lon="13.2280351"><ele>1028.0</ele><time>2026-04-26T13:13:09.169Z</time></trkpt><trkpt lat="42.5320001" lon="13.2281695"><ele>1028.0</ele><time>2026-04-26T13:13:10.169Z</time></trkpt><trkpt lat="42.5320399" lon="13.2283187"><ele>1028.0</ele><time>2026-04-26T13:13:11.169Z</time></trkpt><trkpt lat="42.5321345" lon="13.22847"><ele>1029.3333333333335</ele><time>2026-04-26T13:13:12.17Z</time></trkpt><trkpt lat="42.5322663" lon="13.2286233"><ele>1030.6666666666667</ele><time>2026-04-26T13:13:13.17Z</time></trkpt><trkpt lat="42.5323878" lon="13.228783"><ele>1032.0</ele><time>2026-04-26T13:13:14.169Z</time></trkpt><trkpt lat="42.5324761" lon="13.2289426"><ele>1031.0</ele><time>2026-04-26T13:13:15.17Z</time></trkpt><trkpt lat="42.5325237" lon="13.2291102"><ele>1030.0</ele><time>2026-04-26T13:13:16.169Z</time></trkpt><trkpt lat="42.532519" lon="13.2292826"><ele>1029.0</ele><time>2026-04-26T13:13:17.169Z</time></trkpt><trkpt lat="42.5324659" lon="13.2294438"><ele>1028.0</ele><time>2026-04-26T13:13:18.169Z</time></trkpt><trkpt lat="42.5323804" lon="13.2295767"><ele>1028.0</ele><time>2026-04-26T13:13:19.17Z</time></trkpt><trkpt lat="42.5322504" lon="13.2296456"><ele>1028.0</ele><time>2026-04-26T13:13:20.169Z</time></trkpt><trkpt lat="42.5320886" lon="13.2296655"><ele>1028.0</ele><time>2026-04-26T13:13:21.169Z</time></trkpt><trkpt lat="42.5318943" lon="13.2296606"><ele>1022.3333333333334</ele><time>2026-04-26T13:13:22.169Z</time></trkpt><trkpt lat="42.5316882" lon="13.2296485"><ele>1016.6666666666667</ele><time>2026-04-26T13:13:23.169Z</time></trkpt><trkpt lat="42.5314936" lon="13.2296449"><ele>1011.0</ele><time>2026-04-26T13:13:24.169Z</time></trkpt><trkpt lat="42.5313286" lon="13.2296536"><ele>1009.0</ele><time>2026-04-26T13:13:25.17Z</time></trkpt><trkpt lat="42.5311933" lon="13.2297143"><ele>1007.0</ele><time>2026-04-26T13:13:26.169Z</time></trkpt><trkpt lat="42.5310951" lon="13.2298105"><ele>1005.0</ele><time>2026-04-26T13:13:27.169Z</time></trkpt><trkpt lat="42.5310326" lon="13.2299494"><ele>1003.0</ele><time>2026-04-26T13:13:28.169Z</time></trkpt><trkpt lat="42.5310127" lon="13.2301076"><ele>1003.0</ele><time>2026-04-26T13:13:29.169Z</time></trkpt><trkpt lat="42.5310325" lon="13.2302631"><ele>1003.0</ele><time>2026-04-26T13:13:30.169Z</time></trkpt><trkpt lat="42.5310634" lon="13.2304361"><ele>1003.0</ele><time>2026-04-26T13:13:31.169Z</time></trkpt><trkpt lat="42.5310828" lon="13.2306115"><ele>1003.0</ele><time>2026-04-26T13:13:32.169Z</time></trkpt><trkpt lat="42.5310584" lon="13.2307757"><ele>1004.75</ele><time>2026-04-26T13:13:33.169Z</time></trkpt><trkpt lat="42.5309925" lon="13.2309063"><ele>1006.5</ele><time>2026-04-26T13:13:34.17Z</time></trkpt><trkpt lat="42.5308721" lon="13.2309606"><ele>1008.25</ele><time>2026-04-26T13:13:35.169Z</time></trkpt><trkpt lat="42.530744" lon="13.2309594"><ele>1010.0</ele><time>2026-04-26T13:13:36.169Z</time></trkpt><trkpt lat="42.5306105" lon="13.2309107"><ele>1010.0</ele><time>2026-04-26T13:13:37.169Z</time></trkpt><trkpt lat="42.5304483" lon="13.2308485"><ele>1010.0</ele><time>2026-04-26T13:13:38.169Z</time></trkpt><trkpt lat="42.530271" lon="13.2308014"><ele>1010.0</ele><time>2026-04-26T13:13:39.169Z</time></trkpt><trkpt lat="42.5300945" lon="13.2308056"><ele>1009.0</ele><time>2026-04-26T13:13:40.169Z</time></trkpt><trkpt lat="42.5299195" lon="13.2308182"><ele>1008.0</ele><time>2026-04-26T13:13:41.169Z</time></trkpt><trkpt lat="42.5297494" lon="13.2307839"><ele>1007.0</ele><time>2026-04-26T13:13:42.169Z</time></trkpt><trkpt lat="42.5295874" lon="13.2306803"><ele>1001.0</ele><time>2026-04-26T13:13:43.169Z</time></trkpt><trkpt lat="42.5294121" lon="13.2306052"><ele>995.0</ele><time>2026-04-26T13:13:44.17Z</time></trkpt><trkpt lat="42.5292009" lon="13.2305658"><ele>989.0</ele><time>2026-04-26T13:13:45.17Z</time></trkpt><trkpt lat="42.5289544" lon="13.230563"><ele>987.0</ele><time>2026-04-26T13:13:46.169Z</time></trkpt><trkpt lat="42.5286892" lon="13.2305711"><ele>985.0</ele><time>2026-04-26T13:13:47.169Z</time></trkpt><trkpt lat="42.5284501" lon="13.2305413"><ele>985.0</ele><time>2026-04-26T13:13:48.169Z</time></trkpt><trkpt lat="42.5282385" lon="13.2305072"><ele>985.0</ele><time>2026-04-26T13:13:49.17Z</time></trkpt><trkpt lat="42.5280329" lon="13.2304823"><ele>985.0</ele><time>2026-04-26T13:13:50.169Z</time></trkpt><trkpt lat="42.5278323" lon="13.230512"><ele>981.0</ele><time>2026-04-26T13:13:51.169Z</time></trkpt><trkpt lat="42.5276108" lon="13.2306342"><ele>977.0</ele><time>2026-04-26T13:13:52.169Z</time></trkpt><trkpt lat="42.5273665" lon="13.2307739"><ele>983.5</ele><time>2026-04-26T13:13:53.169Z</time></trkpt><trkpt lat="42.5271167" lon="13.2309064"><ele>990.0</ele><time>2026-04-26T13:13:54.169Z</time></trkpt><trkpt lat="42.5268803" lon="13.2309975"><ele>990.0</ele><time>2026-04-26T13:13:55.169Z</time></trkpt><trkpt lat="42.5266758" lon="13.2310059"><ele>990.0</ele><time>2026-04-26T13:13:56.169Z</time></trkpt><trkpt lat="42.5264763" lon="13.2310099"><ele>990.0</ele><time>2026-04-26T13:13:57.169Z</time></trkpt><trkpt lat="42.5263078" lon="13.2309969"><ele>989.0</ele><time>2026-04-26T13:13:58.169Z</time></trkpt><trkpt lat="42.5261722" lon="13.2309952"><ele>988.0</ele><time>2026-04-26T13:13:59.169Z</time></trkpt><trkpt lat="42.5260627" lon="13.2310233"><ele>987.0</ele><time>2026-04-26T13:14:00.17Z</time></trkpt><trkpt lat="42.525981" lon="13.2310915"><ele>986.0</ele><time>2026-04-26T13:14:01.169Z</time></trkpt><trkpt lat="42.5259409" lon="13.2312185"><ele>985.0</ele><time>2026-04-26T13:14:02.169Z</time></trkpt><trkpt lat="42.5259646" lon="13.2313544"><ele>985.6666666666666</ele><time>2026-04-26T13:14:03.17Z</time></trkpt><trkpt lat="42.5260364" lon="13.2314912"><ele>986.3333333333333</ele><time>2026-04-26T13:14:04.17Z</time></trkpt><trkpt lat="42.5261711" lon="13.2316008"><ele>987.0</ele><time>2026-04-26T13:14:05.169Z</time></trkpt><trkpt lat="42.5263445" lon="13.2317075"><ele>988.6666666666667</ele><time>2026-04-26T13:14:06.169Z</time></trkpt><trkpt lat="42.5265354" lon="13.2318433"><ele>990.3333333333334</ele><time>2026-04-26T13:14:07.169Z</time></trkpt><trkpt lat="42.5267406" lon="13.2319779"><ele>992.0</ele><time>2026-04-26T13:14:08.169Z</time></trkpt><trkpt lat="42.5269312" lon="13.2320985"><ele>989.6666666666667</ele><time>2026-04-26T13:14:09.169Z</time></trkpt><trkpt lat="42.5270804" lon="13.2322175"><ele>987.3333333333333</ele><time>2026-04-26T13:14:10.169Z</time></trkpt><trkpt lat="42.5271999" lon="13.2323481"><ele>985.0</ele><time>2026-04-26T13:14:11.169Z</time></trkpt><trkpt lat="42.5273179" lon="13.2324538"><ele>985.0</ele><time>2026-04-26T13:14:12.169Z</time></trkpt><trkpt lat="42.5274338" lon="13.2325177"><ele>985.0</ele><time>2026-04-26T13:14:13.169Z</time></trkpt><trkpt lat="42.5275732" lon="13.2324621"><ele>985.0</ele><time>2026-04-26T13:14:14.169Z</time></trkpt><trkpt lat="42.527704" lon="13.2324265"><ele>985.0</ele><time>2026-04-26T13:14:15.169Z</time></trkpt><trkpt lat="42.5278163" lon="13.2324784"><ele>990.3333333333333</ele><time>2026-04-26T13:14:16.169Z</time></trkpt><trkpt lat="42.5279369" lon="13.2325854"><ele>995.6666666666667</ele><time>2026-04-26T13:14:17.169Z</time></trkpt><trkpt lat="42.5280828" lon="13.2326947"><ele>1001.0</ele><time>2026-04-26T13:14:18.17Z</time></trkpt><trkpt lat="42.5282502" lon="13.2327727"><ele>1001.0</ele><time>2026-04-26T13:14:19.169Z</time></trkpt><trkpt lat="42.5284353" lon="13.2328248"><ele>1001.0</ele><time>2026-04-26T13:14:20.17Z</time></trkpt><trkpt lat="42.5286251" lon="13.2329123"><ele>1001.0</ele><time>2026-04-26T13:14:21.169Z</time></trkpt><trkpt lat="42.5288065" lon="13.2330454"><ele>996.25</ele><time>2026-04-26T13:14:22.169Z</time></trkpt><trkpt lat="42.5289688" lon="13.2331619"><ele>991.5</ele><time>2026-04-26T13:14:23.17Z</time></trkpt><trkpt lat="42.52909" lon="13.2332548"><ele>986.75</ele><time>2026-04-26T13:14:24.169Z</time></trkpt><trkpt lat="42.5291706" lon="13.2333736"><ele>982.0</ele><time>2026-04-26T13:14:25.169Z</time></trkpt><trkpt lat="42.5292112" lon="13.2335232"><ele>982.0</ele><time>2026-04-26T13:14:26.169Z</time></trkpt><trkpt lat="42.5291965" lon="13.2336996"><ele>982.0</ele><time>2026-04-26T13:14:27.17Z</time></trkpt><trkpt lat="42.5291242" lon="13.2339101"><ele>982.0</ele><time>2026-04-26T13:14:28.169Z</time></trkpt><trkpt lat="42.5290513" lon="13.2341396"><ele>977.6666666666666</ele><time>2026-04-26T13:14:29.169Z</time></trkpt><trkpt lat="42.5289683" lon="13.2343848"><ele>973.3333333333333</ele><time>2026-04-26T13:14:30.17Z</time></trkpt><trkpt lat="42.5288743" lon="13.2346045"><ele>969.0</ele><time>2026-04-26T13:14:31.17Z</time></trkpt><trkpt lat="42.528764" lon="13.2347936"><ele>963.0</ele><time>2026-04-26T13:14:32.169Z</time></trkpt><trkpt lat="42.5286585" lon="13.2349538"><ele>957.0</ele><time>2026-04-26T13:14:33.17Z</time></trkpt><trkpt lat="42.5285706" lon="13.2351126"><ele>951.0</ele><time>2026-04-26T13:14:34.169Z</time></trkpt><trkpt lat="42.5285257" lon="13.2352772"><ele>945.0</ele><time>2026-04-26T13:14:35.169Z</time></trkpt><trkpt lat="42.5285448" lon="13.2354636"><ele>946.0</ele><time>2026-04-26T13:14:36.169Z</time></trkpt><trkpt lat="42.5285859" lon="13.2356441"><ele>947.0</ele><time>2026-04-26T13:14:37.169Z</time></trkpt><trkpt lat="42.5285953" lon="13.2358256"><ele>948.0</ele><time>2026-04-26T13:14:38.169Z</time></trkpt><trkpt lat="42.52855" lon="13.2360117"><ele>949.0</ele><time>2026-04-26T13:14:39.169Z</time></trkpt><trkpt lat="42.5284505" lon="13.2361847"><ele>949.0</ele><time>2026-04-26T13:14:40.169Z</time></trkpt><trkpt lat="42.5283073" lon="13.2363359"><ele>949.0</ele><time>2026-04-26T13:14:41.169Z</time></trkpt><trkpt lat="42.52814" lon="13.2365028"><ele>949.0</ele><time>2026-04-26T13:14:42.169Z</time></trkpt><trkpt lat="42.5279707" lon="13.2366844"><ele>945.6666666666666</ele><time>2026-04-26T13:14:43.17Z</time></trkpt><trkpt lat="42.5277973" lon="13.2368505"><ele>942.3333333333333</ele><time>2026-04-26T13:14:44.17Z</time></trkpt><trkpt lat="42.5276261" lon="13.2369932"><ele>939.0</ele><time>2026-04-26T13:14:45.169Z</time></trkpt><trkpt lat="42.5274586" lon="13.2371145"><ele>939.0</ele><time>2026-04-26T13:14:46.17Z</time></trkpt><trkpt lat="42.5273006" lon="13.2372176"><ele>939.0</ele><time>2026-04-26T13:14:47.17Z</time></trkpt><trkpt lat="42.5271526" lon="13.2373201"><ele>939.0</ele><time>2026-04-26T13:14:48.17Z</time></trkpt><trkpt lat="42.5270331" lon="13.2374295"><ele>938.5</ele><time>2026-04-26T13:14:49.169Z</time></trkpt><trkpt lat="42.5269646" lon="13.2375684"><ele>938.0</ele><time>2026-04-26T13:14:50.169Z</time></trkpt><trkpt lat="42.5269484" lon="13.2377465"><ele>937.5</ele><time>2026-04-26T13:14:51.169Z</time></trkpt><trkpt lat="42.5269787" lon="13.2378868"><ele>937.0</ele><time>2026-04-26T13:14:52.169Z</time></trkpt><trkpt lat="42.5270565" lon="13.2380183"><ele>939.3333333333333</ele><time>2026-04-26T13:14:53.17Z</time></trkpt><trkpt lat="42.5271955" lon="13.2381352"><ele>941.6666666666667</ele><time>2026-04-26T13:14:54.169Z</time></trkpt><trkpt lat="42.5273263" lon="13.2382483"><ele>944.0</ele><time>2026-04-26T13:14:55.169Z</time></trkpt><trkpt lat="42.5274509" lon="13.2383562"><ele>944.0</ele><time>2026-04-26T13:14:56.169Z</time></trkpt><trkpt lat="42.5275609" lon="13.2384526"><ele>944.0000000000001</ele><time>2026-04-26T13:14:57.169Z</time></trkpt><trkpt lat="42.5276575" lon="13.2385377"><ele>944.0000000000001</ele><time>2026-04-26T13:14:58.169Z</time></trkpt><trkpt lat="42.5277374" lon="13.2386208"><ele>944.0</ele><time>2026-04-26T13:14:59.169Z</time></trkpt><trkpt lat="42.5277955" lon="13.2387102"><ele>944.0</ele><time>2026-04-26T13:15:00.169Z</time></trkpt><trkpt lat="42.5278302" lon="13.2388028"><ele>944.0</ele><time>2026-04-26T13:15:01.169Z</time></trkpt><trkpt lat="42.5278282" lon="13.2389107"><ele>944.0000000000001</ele><time>2026-04-26T13:15:02.169Z</time></trkpt><trkpt lat="42.5278091" lon="13.2390165"><ele>944.0000000000001</ele><time>2026-04-26T13:15:03.17Z</time></trkpt><trkpt lat="42.5277725" lon="13.2391339"><ele>944.0</ele><time>2026-04-26T13:15:04.169Z</time></trkpt><trkpt lat="42.5277394" lon="13.2392661"><ele>944.0</ele><time>2026-04-26T13:15:05.169Z</time></trkpt><trkpt lat="42.5277315" lon="13.2394026"><ele>942.4000000000001</ele><time>2026-04-26T13:15:06.17Z</time></trkpt><trkpt lat="42.5277508" lon="13.2395342"><ele>940.8000000000001</ele><time>2026-04-26T13:15:07.169Z</time></trkpt><trkpt lat="42.5278004" lon="13.2396584"><ele>939.1999999999999</ele><time>2026-04-26T13:15:08.169Z</time></trkpt><trkpt lat="42.527875" lon="13.2397606"><ele>937.5999999999999</ele><time>2026-04-26T13:15:09.169Z</time></trkpt><trkpt lat="42.5279767" lon="13.2398259"><ele>936.0</ele><time>2026-04-26T13:15:10.17Z</time></trkpt><trkpt lat="42.5280931" lon="13.2398553"><ele>936.8</ele><time>2026-04-26T13:15:11.169Z</time></trkpt><trkpt lat="42.5282084" lon="13.2398434"><ele>937.5999999999999</ele><time>2026-04-26T13:15:12.17Z</time></trkpt><trkpt lat="42.5283007" lon="13.2398082"><ele>938.4</ele><time>2026-04-26T13:15:13.17Z</time></trkpt><trkpt lat="42.5283712" lon="13.2397801"><ele>939.2</ele><time>2026-04-26T13:15:14.17Z</time></trkpt><trkpt lat="42.528443" lon="13.2397698"><ele>940.0</ele><time>2026-04-26T13:15:15.169Z</time></trkpt><trkpt lat="42.5285122" lon="13.2399002"><ele>938.0</ele><time>2026-04-26T13:15:17.169Z</time></trkpt><trkpt lat="42.5284768" lon="13.2399831"><ele>936.0</ele><time>2026-04-26T13:15:18.17Z</time></trkpt><trkpt lat="42.528418" lon="13.2400697"><ele>934.0</ele><time>2026-04-26T13:15:19.169Z</time></trkpt><trkpt lat="42.5283239" lon="13.2401469"><ele>932.0</ele><time>2026-04-26T13:15:20.169Z</time></trkpt><trkpt lat="42.5282125" lon="13.2402571"><ele>930.0</ele><time>2026-04-26T13:15:21.169Z</time></trkpt><trkpt lat="42.5280916" lon="13.2403733"><ele>930.0</ele><time>2026-04-26T13:15:22.169Z</time></trkpt><trkpt lat="42.5279665" lon="13.2404853"><ele>930.0</ele><time>2026-04-26T13:15:23.169Z</time></trkpt><trkpt lat="42.5278447" lon="13.2405811"><ele>930.0</ele><time>2026-04-26T13:15:24.17Z</time></trkpt><trkpt lat="42.5277202" lon="13.2406671"><ele>930.0</ele><time>2026-04-26T13:15:25.169Z</time></trkpt><trkpt lat="42.5275921" lon="13.2407406"><ele>927.75</ele><time>2026-04-26T13:15:26.169Z</time></trkpt><trkpt lat="42.5274621" lon="13.2407953"><ele>925.5</ele><time>2026-04-26T13:15:27.169Z</time></trkpt><trkpt lat="42.5273337" lon="13.2408361"><ele>923.25</ele><time>2026-04-26T13:15:28.169Z</time></trkpt><trkpt lat="42.5272086" lon="13.2408648"><ele>921.0</ele><time>2026-04-26T13:15:29.169Z</time></trkpt><trkpt lat="42.5270845" lon="13.2408892"><ele>921.5</ele><time>2026-04-26T13:15:30.169Z</time></trkpt><trkpt lat="42.5269616" lon="13.2409058"><ele>922.0</ele><time>2026-04-26T13:15:31.169Z</time></trkpt><trkpt lat="42.5268393" lon="13.2409291"><ele>922.5</ele><time>2026-04-26T13:15:32.17Z</time></trkpt><trkpt lat="42.5267319" lon="13.2409838"><ele>923.0</ele><time>2026-04-26T13:15:33.169Z</time></trkpt><trkpt lat="42.526644" lon="13.2411094"><ele>923.0</ele><time>2026-04-26T13:15:34.169Z</time></trkpt><trkpt lat="42.5265656" lon="13.2412412"><ele>923.0</ele><time>2026-04-26T13:15:35.17Z</time></trkpt><trkpt lat="42.5265084" lon="13.2413915"><ele>923.0</ele><time>2026-04-26T13:15:36.169Z</time></trkpt><trkpt lat="42.5264588" lon="13.2415412"><ele>923.0</ele><time>2026-04-26T13:15:37.169Z</time></trkpt><trkpt lat="42.5264154" lon="13.2416752"><ele>920.4</ele><time>2026-04-26T13:15:38.169Z</time></trkpt><trkpt lat="42.5263663" lon="13.2418104"><ele>917.8</ele><time>2026-04-26T13:15:39.169Z</time></trkpt><trkpt lat="42.5263187" lon="13.2419394"><ele>915.2</ele><time>2026-04-26T13:15:40.169Z</time></trkpt><trkpt lat="42.5262773" lon="13.2420662"><ele>912.6</ele><time>2026-04-26T13:15:41.169Z</time></trkpt><trkpt lat="42.5262415" lon="13.2421643"><ele>910.0</ele><time>2026-04-26T13:15:42.17Z</time></trkpt><trkpt lat="42.5261861" lon="13.2422988"><ele>910.0</ele><time>2026-04-26T13:15:44.169Z</time></trkpt><trkpt lat="42.5261157" lon="13.2423091"><ele>910.0</ele><time>2026-04-26T13:15:46.17Z</time></trkpt><trkpt lat="42.5260503" lon="13.2421828"><ele>910.0</ele><time>2026-04-26T13:15:48.169Z</time></trkpt><trkpt lat="42.5260219" lon="13.2420817"><ele>910.0</ele><time>2026-04-26T13:15:49.169Z</time></trkpt><trkpt lat="42.5259837" lon="13.2419618"><ele>910.0</ele><time>2026-04-26T13:15:50.169Z</time></trkpt><trkpt lat="42.5259354" lon="13.2418297"><ele>910.0</ele><time>2026-04-26T13:15:51.168Z</time></trkpt><trkpt lat="42.5258782" lon="13.2416738"><ele>910.0</ele><time>2026-04-26T13:15:52.168Z</time></trkpt><trkpt lat="42.5258105" lon="13.2415201"><ele>910.0</ele><time>2026-04-26T13:15:53.169Z</time></trkpt><trkpt lat="42.5257175" lon="13.2413764"><ele>910.0</ele><time>2026-04-26T13:15:54.168Z</time></trkpt><trkpt lat="42.5255973" lon="13.2412472"><ele>908.6666666666666</ele><time>2026-04-26T13:15:55.168Z</time></trkpt><trkpt lat="42.5254565" lon="13.2411425"><ele>907.3333333333333</ele><time>2026-04-26T13:15:56.169Z</time></trkpt><trkpt lat="42.5253251" lon="13.2410447"><ele>906.0</ele><time>2026-04-26T13:15:57.168Z</time></trkpt><trkpt lat="42.5251993" lon="13.2409547"><ele>906.0</ele><time>2026-04-26T13:15:58.169Z</time></trkpt><trkpt lat="42.5250736" lon="13.2408674"><ele>906.0</ele><time>2026-04-26T13:15:59.168Z</time></trkpt><trkpt lat="42.5249566" lon="13.2407829"><ele>906.0</ele><time>2026-04-26T13:16:00.168Z</time></trkpt><trkpt lat="42.5248501" lon="13.2406991"><ele>906.0</ele><time>2026-04-26T13:16:01.169Z</time></trkpt><trkpt lat="42.5247586" lon="13.240621"><ele>906.0</ele><time>2026-04-26T13:16:02.169Z</time></trkpt><trkpt lat="42.5246937" lon="13.2405227"><ele>905.9999999999999</ele><time>2026-04-26T13:16:03.168Z</time></trkpt><trkpt lat="42.5246679" lon="13.2404151"><ele>905.9999999999999</ele><time>2026-04-26T13:16:04.168Z</time></trkpt><trkpt lat="42.5246827" lon="13.2402818"><ele>906.0</ele><time>2026-04-26T13:16:05.168Z</time></trkpt><trkpt lat="42.5247485" lon="13.2401425"><ele>906.0</ele><time>2026-04-26T13:16:06.169Z</time></trkpt><trkpt lat="42.5248465" lon="13.2400113"><ele>906.0</ele><time>2026-04-26T13:16:07.169Z</time></trkpt><trkpt lat="42.5249707" lon="13.2399008"><ele>906.0</ele><time>2026-04-26T13:16:08.168Z</time></trkpt><trkpt lat="42.5251209" lon="13.2398083"><ele>906.0</ele><time>2026-04-26T13:16:09.168Z</time></trkpt><trkpt lat="42.5252836" lon="13.2397197"><ele>903.3333333333333</ele><time>2026-04-26T13:16:10.168Z</time></trkpt><trkpt lat="42.5254564" lon="13.2396351"><ele>900.6666666666666</ele><time>2026-04-26T13:16:11.168Z</time></trkpt><trkpt lat="42.525619" lon="13.2395434"><ele>898.0</ele><time>2026-04-26T13:16:12.168Z</time></trkpt><trkpt lat="42.5257644" lon="13.2394563"><ele>898.0</ele><time>2026-04-26T13:16:13.168Z</time></trkpt><trkpt lat="42.5258973" lon="13.2393542"><ele>898.0</ele><time>2026-04-26T13:16:14.168Z</time></trkpt><trkpt lat="42.5259989" lon="13.2392211"><ele>898.0</ele><time>2026-04-26T13:16:15.168Z</time></trkpt><trkpt lat="42.5260654" lon="13.2390627"><ele>898.0</ele><time>2026-04-26T13:16:16.168Z</time></trkpt><trkpt lat="42.5261003" lon="13.2388891"><ele>900.5</ele><time>2026-04-26T13:16:17.168Z</time></trkpt><trkpt lat="42.5260767" lon="13.2387091"><ele>903.0</ele><time>2026-04-26T13:16:18.168Z</time></trkpt><trkpt lat="42.5260186" lon="13.2385621"><ele>905.5</ele><time>2026-04-26T13:16:19.168Z</time></trkpt><trkpt lat="42.5259245" lon="13.2384488"><ele>908.0</ele><time>2026-04-26T13:16:20.169Z</time></trkpt><trkpt lat="42.5257999" lon="13.2383719"><ele>908.0</ele><time>2026-04-26T13:16:21.168Z</time></trkpt><trkpt lat="42.5256517" lon="13.2383299"><ele>908.0</ele><time>2026-04-26T13:16:22.169Z</time></trkpt><trkpt lat="42.5254635" lon="13.2383003"><ele>908.0</ele><time>2026-04-26T13:16:23.168Z</time></trkpt><trkpt lat="42.5252658" lon="13.2382606"><ele>902.6666666666667</ele><time>2026-04-26T13:16:24.168Z</time></trkpt><trkpt lat="42.5250729" lon="13.2382293"><ele>897.3333333333333</ele><time>2026-04-26T13:16:25.168Z</time></trkpt><trkpt lat="42.5249022" lon="13.2382008"><ele>892.0</ele><time>2026-04-26T13:16:26.168Z</time></trkpt><trkpt lat="42.5247487" lon="13.2381678"><ele>892.75</ele><time>2026-04-26T13:16:27.169Z</time></trkpt><trkpt lat="42.52461" lon="13.2381181"><ele>893.5</ele><time>2026-04-26T13:16:28.168Z</time></trkpt><trkpt lat="42.5244818" lon="13.2380262"><ele>894.25</ele><time>2026-04-26T13:16:29.168Z</time></trkpt><trkpt lat="42.5243959" lon="13.237903"><ele>895.0</ele><time>2026-04-26T13:16:30.169Z</time></trkpt><trkpt lat="42.5243642" lon="13.2377291"><ele>891.75</ele><time>2026-04-26T13:16:31.168Z</time></trkpt><trkpt lat="42.5243966" lon="13.2375665"><ele>888.5</ele><time>2026-04-26T13:16:32.169Z</time></trkpt><trkpt lat="42.5244677" lon="13.2374"><ele>885.25</ele><time>2026-04-26T13:16:33.169Z</time></trkpt><trkpt lat="42.5245671" lon="13.2372538"><ele>882.0</ele><time>2026-04-26T13:16:34.168Z</time></trkpt><trkpt lat="42.5247179" lon="13.2371249"><ele>882.0</ele><time>2026-04-26T13:16:35.168Z</time></trkpt><trkpt lat="42.5249043" lon="13.2369835"><ele>882.0</ele><time>2026-04-26T13:16:36.168Z</time></trkpt><trkpt lat="42.5250806" lon="13.2368487"><ele>882.0</ele><time>2026-04-26T13:16:37.168Z</time></trkpt><trkpt lat="42.5252386" lon="13.2367148"><ele>882.0</ele><time>2026-04-26T13:16:38.168Z</time></trkpt><trkpt lat="42.5253748" lon="13.2365731"><ele>882.0</ele><time>2026-04-26T13:16:39.169Z</time></trkpt><trkpt lat="42.5254911" lon="13.2364391"><ele>882.0</ele><time>2026-04-26T13:16:40.168Z</time></trkpt><trkpt lat="42.5255857" lon="13.2363142"><ele>883.6</ele><time>2026-04-26T13:16:41.168Z</time></trkpt><trkpt lat="42.5256531" lon="13.2361945"><ele>885.2</ele><time>2026-04-26T13:16:42.168Z</time></trkpt><trkpt lat="42.5256524" lon="13.2360606"><ele>886.8</ele><time>2026-04-26T13:16:43.168Z</time></trkpt><trkpt lat="42.52561" lon="13.235938"><ele>888.4</ele><time>2026-04-26T13:16:44.169Z</time></trkpt><trkpt lat="42.5255265" lon="13.235861"><ele>890.0</ele><time>2026-04-26T13:16:45.169Z</time></trkpt><trkpt lat="42.5254233" lon="13.2358215"><ele>890.3333333333334</ele><time>2026-04-26T13:16:46.168Z</time></trkpt><trkpt lat="42.5252913" lon="13.2358675"><ele>890.6666666666667</ele><time>2026-04-26T13:16:47.169Z</time></trkpt><trkpt lat="42.5251287" lon="13.2359691"><ele>891.0</ele><time>2026-04-26T13:16:48.168Z</time></trkpt><trkpt lat="42.5249434" lon="13.2360542"><ele>891.0</ele><time>2026-04-26T13:16:49.169Z</time></trkpt><trkpt lat="42.5247515" lon="13.2361137"><ele>891.0</ele><time>2026-04-26T13:16:50.168Z</time></trkpt><trkpt lat="42.5245201" lon="13.2361245"><ele>891.0</ele><time>2026-04-26T13:16:51.168Z</time></trkpt><trkpt lat="42.5242601" lon="13.2360972"><ele>887.5</ele><time>2026-04-26T13:16:52.168Z</time></trkpt><trkpt lat="42.5239945" lon="13.2360912"><ele>884.0</ele><time>2026-04-26T13:16:53.168Z</time></trkpt><trkpt lat="42.5237648" lon="13.2360959"><ele>881.25</ele><time>2026-04-26T13:16:54.168Z</time></trkpt><trkpt lat="42.523588" lon="13.2360965"><ele>878.5</ele><time>2026-04-26T13:16:55.168Z</time></trkpt><trkpt lat="42.5234463" lon="13.2361143"><ele>875.75</ele><time>2026-04-26T13:16:56.168Z</time></trkpt><trkpt lat="42.5233387" lon="13.2360977"><ele>873.0</ele><time>2026-04-26T13:16:57.168Z</time></trkpt><trkpt lat="42.5232745" lon="13.2360276"><ele>873.0</ele><time>2026-04-26T13:16:58.168Z</time></trkpt><trkpt lat="42.5232476" lon="13.2359058"><ele>873.0</ele><time>2026-04-26T13:16:59.168Z</time></trkpt><trkpt lat="42.5232571" lon="13.2357449"><ele>873.0</ele><time>2026-04-26T13:17:00.168Z</time></trkpt><trkpt lat="42.5233334" lon="13.2355714"><ele>873.0</ele><time>2026-04-26T13:17:01.168Z</time></trkpt><trkpt lat="42.5234258" lon="13.2354094"><ele>874.0</ele><time>2026-04-26T13:17:02.168Z</time></trkpt><trkpt lat="42.523531" lon="13.235264"><ele>875.0</ele><time>2026-04-26T13:17:03.168Z</time></trkpt><trkpt lat="42.523609" lon="13.2351391"><ele>876.0</ele><time>2026-04-26T13:17:04.168Z</time></trkpt><trkpt lat="42.5236256" lon="13.2350018"><ele>877.0</ele><time>2026-04-26T13:17:05.169Z</time></trkpt><trkpt lat="42.52359" lon="13.2348695"><ele>877.0</ele><time>2026-04-26T13:17:06.168Z</time></trkpt><trkpt lat="42.5235111" lon="13.234783"><ele>877.0</ele><time>2026-04-26T13:17:07.168Z</time></trkpt><trkpt lat="42.5234106" lon="13.2347558"><ele>877.0</ele><time>2026-04-26T13:17:08.169Z</time></trkpt><trkpt lat="42.5232916" lon="13.2347857"><ele>877.0</ele><time>2026-04-26T13:17:09.168Z</time></trkpt><trkpt lat="42.5231397" lon="13.234867"><ele>877.0</ele><time>2026-04-26T13:17:10.168Z</time></trkpt><trkpt lat="42.5229703" lon="13.2349819"><ele>877.0</ele><time>2026-04-26T13:17:11.168Z</time></trkpt><trkpt lat="42.5228126" lon="13.2350539"><ele>877.0</ele><time>2026-04-26T13:17:12.168Z</time></trkpt><trkpt lat="42.5226541" lon="13.2350762"><ele>877.5</ele><time>2026-04-26T13:17:13.169Z</time></trkpt><trkpt lat="42.522524" lon="13.2350572"><ele>878.0</ele><time>2026-04-26T13:17:14.168Z</time></trkpt><trkpt lat="42.522416" lon="13.2351036"><ele>878.5</ele><time>2026-04-26T13:17:15.168Z</time></trkpt><trkpt lat="42.5223261" lon="13.2352228"><ele>879.0</ele><time>2026-04-26T13:17:16.168Z</time></trkpt><trkpt lat="42.5222349" lon="13.2353589"><ele>879.0</ele><time>2026-04-26T13:17:17.168Z</time></trkpt><trkpt lat="42.5221188" lon="13.2354687"><ele>879.0</ele><time>2026-04-26T13:17:18.168Z</time></trkpt><trkpt lat="42.5219744" lon="13.2355215"><ele>879.0</ele><time>2026-04-26T13:17:19.168Z</time></trkpt><trkpt lat="42.5218296" lon="13.2355385"><ele>879.0</ele><time>2026-04-26T13:17:20.169Z</time></trkpt><trkpt lat="42.521706" lon="13.2355809"><ele>876.25</ele><time>2026-04-26T13:17:21.169Z</time></trkpt><trkpt lat="42.5216175" lon="13.2356802"><ele>873.5</ele><time>2026-04-26T13:17:22.169Z</time></trkpt><trkpt lat="42.5215488" lon="13.2358467"><ele>870.75</ele><time>2026-04-26T13:17:23.169Z</time></trkpt><trkpt lat="42.521471" lon="13.2360018"><ele>868.0</ele><time>2026-04-26T13:17:24.168Z</time></trkpt><trkpt lat="42.5213701" lon="13.2361554"><ele>864.0</ele><time>2026-04-26T13:17:25.168Z</time></trkpt><trkpt lat="42.5212189" lon="13.2362814"><ele>860.0</ele><time>2026-04-26T13:17:26.168Z</time></trkpt><trkpt lat="42.5210238" lon="13.2363812"><ele>856.0</ele><time>2026-04-26T13:17:27.168Z</time></trkpt><trkpt lat="42.5207915" lon="13.2364839"><ele>856.0</ele><time>2026-04-26T13:17:28.169Z</time></trkpt><trkpt lat="42.5205482" lon="13.2365786"><ele>856.0</ele><time>2026-04-26T13:17:29.169Z</time></trkpt><trkpt lat="42.5203057" lon="13.2366717"><ele>857.6666666666666</ele><time>2026-04-26T13:17:30.169Z</time></trkpt><trkpt lat="42.5200776" lon="13.2367578"><ele>859.3333333333333</ele><time>2026-04-26T13:17:31.168Z</time></trkpt><trkpt lat="42.5198844" lon="13.2368222"><ele>861.0</ele><time>2026-04-26T13:17:32.169Z</time></trkpt><trkpt lat="42.5197251" lon="13.2368729"><ele>861.0</ele><time>2026-04-26T13:17:33.168Z</time></trkpt><trkpt lat="42.519577" lon="13.2369027"><ele>861.0</ele><time>2026-04-26T13:17:34.168Z</time></trkpt><trkpt lat="42.5194376" lon="13.2368841"><ele>861.0</ele><time>2026-04-26T13:17:35.168Z</time></trkpt><trkpt lat="42.5193117" lon="13.2367773"><ele>861.0</ele><time>2026-04-26T13:17:36.168Z</time></trkpt><trkpt lat="42.5192024" lon="13.2366079"><ele>862.0</ele><time>2026-04-26T13:17:37.169Z</time></trkpt><trkpt lat="42.5191003" lon="13.2364017"><ele>863.0</ele><time>2026-04-26T13:17:38.168Z</time></trkpt><trkpt lat="42.5190001" lon="13.2361634"><ele>864.0</ele><time>2026-04-26T13:17:39.168Z</time></trkpt><trkpt lat="42.5188862" lon="13.2359498"><ele>864.0</ele><time>2026-04-26T13:17:40.168Z</time></trkpt><trkpt lat="42.5187581" lon="13.2357789"><ele>864.0</ele><time>2026-04-26T13:17:41.169Z</time></trkpt><trkpt lat="42.5186073" lon="13.2356507"><ele>864.0</ele><time>2026-04-26T13:17:42.168Z</time></trkpt><trkpt lat="42.5184153" lon="13.2355828"><ele>862.3333333333333</ele><time>2026-04-26T13:17:43.176Z</time></trkpt><trkpt lat="42.5182069" lon="13.2355409"><ele>860.6666666666666</ele><time>2026-04-26T13:17:44.176Z</time></trkpt><trkpt lat="42.5180106" lon="13.2355149"><ele>859.0</ele><time>2026-04-26T13:17:45.176Z</time></trkpt><trkpt lat="42.5178338" lon="13.2354641"><ele>855.3333333333333</ele><time>2026-04-26T13:17:46.176Z</time></trkpt><trkpt lat="42.5176651" lon="13.2353466"><ele>851.6666666666667</ele><time>2026-04-26T13:17:47.176Z</time></trkpt><trkpt lat="42.5174695" lon="13.2351852"><ele>848.0</ele><time>2026-04-26T13:17:48.176Z</time></trkpt><trkpt lat="42.5172539" lon="13.2350082"><ele>846.5</ele><time>2026-04-26T13:17:49.177Z</time></trkpt><trkpt lat="42.5170442" lon="13.2348271"><ele>845.0</ele><time>2026-04-26T13:17:50.176Z</time></trkpt><trkpt lat="42.5168434" lon="13.2346654"><ele>845.0</ele><time>2026-04-26T13:17:51.177Z</time></trkpt><trkpt lat="42.5166589" lon="13.234515"><ele>845.0</ele><time>2026-04-26T13:17:52.176Z</time></trkpt><trkpt lat="42.5164788" lon="13.2343615"><ele>845.0</ele><time>2026-04-26T13:17:53.176Z</time></trkpt><trkpt lat="42.5163048" lon="13.2342178"><ele>846.6666666666667</ele><time>2026-04-26T13:17:54.176Z</time></trkpt><trkpt lat="42.5161488" lon="13.2340885"><ele>848.3333333333333</ele><time>2026-04-26T13:17:55.176Z</time></trkpt><trkpt lat="42.5160126" lon="13.2339842"><ele>850.0</ele><time>2026-04-26T13:17:56.176Z</time></trkpt><trkpt lat="42.515885" lon="13.2339279"><ele>850.0</ele><time>2026-04-26T13:17:57.176Z</time></trkpt><trkpt lat="42.515777" lon="13.2339493"><ele>850.0</ele><time>2026-04-26T13:17:58.177Z</time></trkpt><trkpt lat="42.5156727" lon="13.2340427"><ele>850.0</ele><time>2026-04-26T13:17:59.176Z</time></trkpt><trkpt lat="42.5155854" lon="13.2341811"><ele>850.0</ele><time>2026-04-26T13:18:00.176Z</time></trkpt><trkpt lat="42.5155177" lon="13.234396"><ele>846.0</ele><time>2026-04-26T13:18:01.176Z</time></trkpt><trkpt lat="42.5154604" lon="13.2346571"><ele>842.0</ele><time>2026-04-26T13:18:02.176Z</time></trkpt><trkpt lat="42.5154022" lon="13.2349327"><ele>838.0</ele><time>2026-04-26T13:18:03.177Z</time></trkpt><trkpt lat="42.5153343" lon="13.2351907"><ele>838.0</ele><time>2026-04-26T13:18:04.176Z</time></trkpt><trkpt lat="42.5152706" lon="13.2354279"><ele>838.0</ele><time>2026-04-26T13:18:05.176Z</time></trkpt><trkpt lat="42.5151991" lon="13.2356361"><ele>838.0</ele><time>2026-04-26T13:18:06.176Z</time></trkpt><trkpt lat="42.5151089" lon="13.2358076"><ele>834.25</ele><time>2026-04-26T13:18:07.177Z</time></trkpt><trkpt lat="42.5149964" lon="13.2359429"><ele>830.5</ele><time>2026-04-26T13:18:08.176Z</time></trkpt><trkpt lat="42.514871" lon="13.2359934"><ele>826.75</ele><time>2026-04-26T13:18:09.176Z</time></trkpt><trkpt lat="42.5147341" lon="13.2359999"><ele>823.0</ele><time>2026-04-26T13:18:10.176Z</time></trkpt><trkpt lat="42.5145954" lon="13.2359689"><ele>823.4</ele><time>2026-04-26T13:18:11.177Z</time></trkpt><trkpt lat="42.5144567" lon="13.2359246"><ele>823.8</ele><time>2026-04-26T13:18:12.176Z</time></trkpt><trkpt lat="42.5143373" lon="13.2358967"><ele>824.2</ele><time>2026-04-26T13:18:13.177Z</time></trkpt><trkpt lat="42.5142391" lon="13.235906"><ele>824.6</ele><time>2026-04-26T13:18:14.176Z</time></trkpt><trkpt lat="42.5141659" lon="13.2359374"><ele>825.0</ele><time>2026-04-26T13:18:15.176Z</time></trkpt><trkpt lat="42.514077" lon="13.2359739"><ele>825.0</ele><time>2026-04-26T13:18:17.176Z</time></trkpt><trkpt lat="42.5140158" lon="13.2359962"><ele>825.0</ele><time>2026-04-26T13:18:24.176Z</time></trkpt><trkpt lat="42.5139382" lon="13.2360373"><ele>825.0</ele><time>2026-04-26T13:18:27.176Z</time></trkpt><trkpt lat="42.5138207" lon="13.2360728"><ele>825.0</ele><time>2026-04-26T13:18:29.176Z</time></trkpt><trkpt lat="42.5137393" lon="13.2361153"><ele>825.0</ele><time>2026-04-26T13:18:30.177Z</time></trkpt><trkpt lat="42.5136205" lon="13.2361339"><ele>826.0</ele><time>2026-04-26T13:18:31.176Z</time></trkpt><trkpt lat="42.5134646" lon="13.2361148"><ele>827.0</ele><time>2026-04-26T13:18:32.176Z</time></trkpt><trkpt lat="42.5132876" lon="13.2360533"><ele>828.0</ele><time>2026-04-26T13:18:33.177Z</time></trkpt><trkpt lat="42.5130859" lon="13.2359831"><ele>822.5</ele><time>2026-04-26T13:18:34.177Z</time></trkpt><trkpt lat="42.5128763" lon="13.2359002"><ele>817.0</ele><time>2026-04-26T13:18:35.176Z</time></trkpt><trkpt lat="42.5126581" lon="13.2357851"><ele>827.0</ele><time>2026-04-26T13:18:36.177Z</time></trkpt><trkpt lat="42.5124448" lon="13.2356304"><ele>837.0</ele><time>2026-04-26T13:18:37.176Z</time></trkpt><trkpt lat="42.5122415" lon="13.2354403"><ele>827.5</ele><time>2026-04-26T13:18:38.177Z</time></trkpt><trkpt lat="42.5120387" lon="13.2352109"><ele>818.0</ele><time>2026-04-26T13:18:39.177Z</time></trkpt><trkpt lat="42.5118435" lon="13.2349541"><ele>821.5</ele><time>2026-04-26T13:18:40.176Z</time></trkpt><trkpt lat="42.51165" lon="13.2346803"><ele>825.0</ele><time>2026-04-26T13:18:41.176Z</time></trkpt><trkpt lat="42.5114818" lon="13.2343827"><ele>825.0</ele><time>2026-04-26T13:18:42.176Z</time></trkpt><trkpt lat="42.5113163" lon="13.2340719"><ele>825.0</ele><time>2026-04-26T13:18:43.176Z</time></trkpt><trkpt lat="42.511138" lon="13.2337478"><ele>824.5</ele><time>2026-04-26T13:18:44.177Z</time></trkpt><trkpt lat="42.5109572" lon="13.2334041"><ele>824.0</ele><time>2026-04-26T13:18:45.176Z</time></trkpt><trkpt lat="42.5107713" lon="13.2330438"><ele>824.0</ele><time>2026-04-26T13:18:46.176Z</time></trkpt><trkpt lat="42.5105748" lon="13.2326768"><ele>824.0</ele><time>2026-04-26T13:18:47.176Z</time></trkpt><trkpt lat="42.5103863" lon="13.2323148"><ele>819.0</ele><time>2026-04-26T13:18:48.176Z</time></trkpt><trkpt lat="42.5102012" lon="13.2319583"><ele>814.0</ele><time>2026-04-26T13:18:49.176Z</time></trkpt><trkpt lat="42.510021" lon="13.2316086"><ele>814.0</ele><time>2026-04-26T13:18:50.177Z</time></trkpt><trkpt lat="42.5098432" lon="13.2312646"><ele>814.0</ele><time>2026-04-26T13:18:51.177Z</time></trkpt><trkpt lat="42.5096676" lon="13.2309309"><ele>815.0</ele><time>2026-04-26T13:18:52.176Z</time></trkpt><trkpt lat="42.5094954" lon="13.2306089"><ele>816.0</ele><time>2026-04-26T13:18:53.176Z</time></trkpt><trkpt lat="42.5093153" lon="13.2303101"><ele>816.0</ele><time>2026-04-26T13:18:54.176Z</time></trkpt><trkpt lat="42.5091175" lon="13.2300291"><ele>816.0</ele><time>2026-04-26T13:18:55.176Z</time></trkpt><trkpt lat="42.5089018" lon="13.2297712"><ele>815.5</ele><time>2026-04-26T13:18:56.177Z</time></trkpt><trkpt lat="42.5086754" lon="13.2295552"><ele>815.0</ele><time>2026-04-26T13:18:57.176Z</time></trkpt><trkpt lat="42.5084543" lon="13.2293636"><ele>815.0</ele><time>2026-04-26T13:18:58.176Z</time></trkpt><trkpt lat="42.5082314" lon="13.2291887"><ele>815.0</ele><time>2026-04-26T13:18:59.176Z</time></trkpt><trkpt lat="42.5079959" lon="13.2290186"><ele>821.0</ele><time>2026-04-26T13:19:00.176Z</time></trkpt><trkpt lat="42.5077603" lon="13.2288377"><ele>827.0</ele><time>2026-04-26T13:19:01.176Z</time></trkpt><trkpt lat="42.5075169" lon="13.2286511"><ele>827.0</ele><time>2026-04-26T13:19:02.177Z</time></trkpt><trkpt lat="42.5072734" lon="13.2284644"><ele>827.0</ele><time>2026-04-26T13:19:03.176Z</time></trkpt><trkpt lat="42.507035" lon="13.228283"><ele>824.5</ele><time>2026-04-26T13:19:04.176Z</time></trkpt><trkpt lat="42.5068133" lon="13.2280999"><ele>822.0</ele><time>2026-04-26T13:19:05.176Z</time></trkpt><trkpt lat="42.5065935" lon="13.2278957"><ele>822.0</ele><time>2026-04-26T13:19:06.177Z</time></trkpt><trkpt lat="42.5063911" lon="13.2276672"><ele>822.0</ele><time>2026-04-26T13:19:07.177Z</time></trkpt><trkpt lat="42.506213" lon="13.2274097"><ele>818.0</ele><time>2026-04-26T13:19:08.176Z</time></trkpt><trkpt lat="42.5060527" lon="13.2271338"><ele>814.0</ele><time>2026-04-26T13:19:09.176Z</time></trkpt><trkpt lat="42.5059102" lon="13.2268444"><ele>814.0</ele><time>2026-04-26T13:19:10.176Z</time></trkpt><trkpt lat="42.5057852" lon="13.2265295"><ele>814.0</ele><time>2026-04-26T13:19:11.177Z</time></trkpt><trkpt lat="42.5056628" lon="13.22622"><ele>814.0</ele><time>2026-04-26T13:19:12.176Z</time></trkpt><trkpt lat="42.5055341" lon="13.2259215"><ele>814.0</ele><time>2026-04-26T13:19:13.176Z</time></trkpt><trkpt lat="42.5053973" lon="13.2256624"><ele>815.5</ele><time>2026-04-26T13:19:14.176Z</time></trkpt><trkpt lat="42.5052501" lon="13.2254231"><ele>817.0</ele><time>2026-04-26T13:19:15.176Z</time></trkpt><trkpt lat="42.5050834" lon="13.225205"><ele>817.0</ele><time>2026-04-26T13:19:16.176Z</time></trkpt><trkpt lat="42.5049042" lon="13.2249993"><ele>817.0</ele><time>2026-04-26T13:19:17.176Z</time></trkpt><trkpt lat="42.5047099" lon="13.2248093"><ele>817.0</ele><time>2026-04-26T13:19:18.177Z</time></trkpt><trkpt lat="42.5044968" lon="13.2246392"><ele>817.0</ele><time>2026-04-26T13:19:19.176Z</time></trkpt><trkpt lat="42.5042747" lon="13.2245101"><ele>817.0</ele><time>2026-04-26T13:19:20.176Z</time></trkpt><trkpt lat="42.5040374" lon="13.2244018"><ele>817.0</ele><time>2026-04-26T13:19:21.176Z</time></trkpt><trkpt lat="42.5037974" lon="13.2243195"><ele>817.0</ele><time>2026-04-26T13:19:22.176Z</time></trkpt><trkpt lat="42.5035369" lon="13.2242667"><ele>817.0</ele><time>2026-04-26T13:19:23.176Z</time></trkpt><trkpt lat="42.5032654" lon="13.2242429"><ele>817.0</ele><time>2026-04-26T13:19:24.176Z</time></trkpt><trkpt lat="42.5029774" lon="13.2242457"><ele>817.0</ele><time>2026-04-26T13:19:25.176Z</time></trkpt><trkpt lat="42.5026866" lon="13.2242545"><ele>816.5</ele><time>2026-04-26T13:19:26.177Z</time></trkpt><trkpt lat="42.5023993" lon="13.2242591"><ele>816.0</ele><time>2026-04-26T13:19:27.177Z</time></trkpt><trkpt lat="42.5021199" lon="13.2242688"><ele>812.5</ele><time>2026-04-26T13:19:28.176Z</time></trkpt><trkpt lat="42.50185" lon="13.2242793"><ele>809.0</ele><time>2026-04-26T13:19:29.176Z</time></trkpt><trkpt lat="42.5015881" lon="13.2242889"><ele>809.0</ele><time>2026-04-26T13:19:30.176Z</time></trkpt><trkpt lat="42.501321" lon="13.2243036"><ele>809.0</ele><time>2026-04-26T13:19:31.176Z</time></trkpt><trkpt lat="42.5010626" lon="13.224314"><ele>811.5</ele><time>2026-04-26T13:19:32.176Z</time></trkpt><trkpt lat="42.5008098" lon="13.2243356"><ele>814.0</ele><time>2026-04-26T13:19:33.176Z</time></trkpt><trkpt lat="42.5005647" lon="13.2243804"><ele>792.0</ele><time>2026-04-26T13:19:34.176Z</time></trkpt><trkpt lat="42.4911508" lon="13.230296"><ele>792.0</ele><time>2026-04-26T13:20:18.176Z</time></trkpt><trkpt lat="42.4909663" lon="13.2303149"><ele>792.0</ele><time>2026-04-26T13:20:19.176Z</time></trkpt><trkpt lat="42.4907862" lon="13.2303532"><ele>792.0</ele><time>2026-04-26T13:20:20.176Z</time></trkpt><trkpt lat="42.4906141" lon="13.2304102"><ele>792.0</ele><time>2026-04-26T13:20:21.176Z</time></trkpt><trkpt lat="42.4904558" lon="13.2304721"><ele>792.0</ele><time>2026-04-26T13:20:22.176Z</time></trkpt><trkpt lat="42.4903084" lon="13.2305344"><ele>792.0</ele><time>2026-04-26T13:20:23.177Z</time></trkpt><trkpt lat="42.4901748" lon="13.2305754"><ele>791.5</ele><time>2026-04-26T13:20:24.177Z</time></trkpt><trkpt lat="42.4900503" lon="13.2305852"><ele>791.0</ele><time>2026-04-26T13:20:25.176Z</time></trkpt><trkpt lat="42.4899399" lon="13.230595"><ele>790.5</ele><time>2026-04-26T13:20:26.176Z</time></trkpt><trkpt lat="42.4898427" lon="13.2306422"><ele>790.0</ele><time>2026-04-26T13:20:27.176Z</time></trkpt><trkpt lat="42.4897518" lon="13.2307384"><ele>790.0</ele><time>2026-04-26T13:20:28.177Z</time></trkpt><trkpt lat="42.4896386" lon="13.2308611"><ele>790.0</ele><time>2026-04-26T13:20:29.175Z</time></trkpt><trkpt lat="42.489491" lon="13.2309881"><ele>790.0</ele><time>2026-04-26T13:20:30.175Z</time></trkpt><trkpt lat="42.48931" lon="13.2310851"><ele>787.5</ele><time>2026-04-26T13:20:31.175Z</time></trkpt><trkpt lat="42.4890987" lon="13.2311882"><ele>785.0</ele><time>2026-04-26T13:20:32.175Z</time></trkpt><trkpt lat="42.488871" lon="13.2313024"><ele>785.0</ele><time>2026-04-26T13:20:33.175Z</time></trkpt><trkpt lat="42.4886297" lon="13.2314439"><ele>785.0</ele><time>2026-04-26T13:20:34.175Z</time></trkpt><trkpt lat="42.4883827" lon="13.231586"><ele>787.5</ele><time>2026-04-26T13:20:35.176Z</time></trkpt><trkpt lat="42.4881504" lon="13.2317434"><ele>790.0</ele><time>2026-04-26T13:20:36.175Z</time></trkpt><trkpt lat="42.4879347" lon="13.2319308"><ele>790.0</ele><time>2026-04-26T13:20:37.175Z</time></trkpt><trkpt lat="42.4877312" lon="13.2321497"><ele>790.0</ele><time>2026-04-26T13:20:38.175Z</time></trkpt><trkpt lat="42.487545" lon="13.2324154"><ele>790.0</ele><time>2026-04-26T13:20:39.175Z</time></trkpt><trkpt lat="42.4873606" lon="13.2327229"><ele>790.0</ele><time>2026-04-26T13:20:40.175Z</time></trkpt><trkpt lat="42.4871846" lon="13.2330446"><ele>787.0</ele><time>2026-04-26T13:20:41.175Z</time></trkpt><trkpt lat="42.4870133" lon="13.2333894"><ele>784.0</ele><time>2026-04-26T13:20:42.175Z</time></trkpt><trkpt lat="42.4868466" lon="13.2337317"><ele>783.0</ele><time>2026-04-26T13:20:43.175Z</time></trkpt><trkpt lat="42.4866787" lon="13.2340646"><ele>782.0</ele><time>2026-04-26T13:20:44.175Z</time></trkpt><trkpt lat="42.486516" lon="13.2343903"><ele>782.0</ele><time>2026-04-26T13:20:45.176Z</time></trkpt><trkpt lat="42.486364" lon="13.2347001"><ele>782.0</ele><time>2026-04-26T13:20:46.175Z</time></trkpt><trkpt lat="42.4862245" lon="13.2350084"><ele>783.0</ele><time>2026-04-26T13:20:47.175Z</time></trkpt><trkpt lat="42.486107" lon="13.2353206"><ele>784.0</ele><time>2026-04-26T13:20:48.175Z</time></trkpt><trkpt lat="42.4860099" lon="13.2356427"><ele>786.5</ele><time>2026-04-26T13:20:49.175Z</time></trkpt><trkpt lat="42.4859442" lon="13.2359768"><ele>789.0</ele><time>2026-04-26T13:20:50.175Z</time></trkpt><trkpt lat="42.4858997" lon="13.2363278"><ele>788.5</ele><time>2026-04-26T13:20:51.175Z</time></trkpt><trkpt lat="42.4858862" lon="13.2366984"><ele>788.0</ele><time>2026-04-26T13:20:52.175Z</time></trkpt><trkpt lat="42.4859022" lon="13.2370749"><ele>789.0</ele><time>2026-04-26T13:20:53.176Z</time></trkpt><trkpt lat="42.4859366" lon="13.2374614"><ele>790.0</ele><time>2026-04-26T13:20:54.175Z</time></trkpt><trkpt lat="42.4859809" lon="13.2378331"><ele>786.5</ele><time>2026-04-26T13:20:55.175Z</time></trkpt><trkpt lat="42.4860136" lon="13.2381974"><ele>783.0</ele><time>2026-04-26T13:20:56.175Z</time></trkpt><trkpt lat="42.4860301" lon="13.2385565"><ele>783.0</ele><time>2026-04-26T13:20:57.175Z</time></trkpt><trkpt lat="42.4860167" lon="13.2389155"><ele>783.0</ele><time>2026-04-26T13:20:58.175Z</time></trkpt><trkpt lat="42.4859775" lon="13.2392698"><ele>782.5</ele><time>2026-04-26T13:20:59.175Z</time></trkpt><trkpt lat="42.4858963" lon="13.239601"><ele>782.0</ele><time>2026-04-26T13:21:00.175Z</time></trkpt><trkpt lat="42.4857943" lon="13.2399266"><ele>784.0</ele><time>2026-04-26T13:21:01.176Z</time></trkpt><trkpt lat="42.4856607" lon="13.2402271"><ele>786.0</ele><time>2026-04-26T13:21:02.175Z</time></trkpt><trkpt lat="42.4855075" lon="13.2405191"><ele>781.5</ele><time>2026-04-26T13:21:03.175Z</time></trkpt><trkpt lat="42.4853353" lon="13.2408168"><ele>777.0</ele><time>2026-04-26T13:21:04.175Z</time></trkpt><trkpt lat="42.4851525" lon="13.2411161"><ele>777.0</ele><time>2026-04-26T13:21:05.176Z</time></trkpt><trkpt lat="42.4849593" lon="13.2413981"><ele>777.0</ele><time>2026-04-26T13:21:06.175Z</time></trkpt><trkpt lat="42.484763" lon="13.2416818"><ele>777.0</ele><time>2026-04-26T13:21:07.176Z</time></trkpt><trkpt lat="42.4845516" lon="13.2419552"><ele>777.0</ele><time>2026-04-26T13:21:08.175Z</time></trkpt><trkpt lat="42.4843155" lon="13.2421931"><ele>776.5</ele><time>2026-04-26T13:21:09.175Z</time></trkpt><trkpt lat="42.4840792" lon="13.2423988"><ele>776.0</ele><time>2026-04-26T13:21:10.175Z</time></trkpt><trkpt lat="42.4838332" lon="13.2425959"><ele>775.5</ele><time>2026-04-26T13:21:11.175Z</time></trkpt><trkpt lat="42.4835858" lon="13.2427923"><ele>775.0</ele><time>2026-04-26T13:21:12.175Z</time></trkpt><trkpt lat="42.4833434" lon="13.2429966"><ele>776.5</ele><time>2026-04-26T13:21:13.176Z</time></trkpt><trkpt lat="42.4831054" lon="13.2431933"><ele>778.0</ele><time>2026-04-26T13:21:14.176Z</time></trkpt><trkpt lat="42.4828624" lon="13.2433907"><ele>778.0</ele><time>2026-04-26T13:21:15.175Z</time></trkpt><trkpt lat="42.4826103" lon="13.2435917"><ele>778.0</ele><time>2026-04-26T13:21:16.175Z</time></trkpt><trkpt lat="42.4823649" lon="13.2437916"><ele>777.5</ele><time>2026-04-26T13:21:17.175Z</time></trkpt><trkpt lat="42.4821296" lon="13.2439837"><ele>777.0</ele><time>2026-04-26T13:21:18.176Z</time></trkpt><trkpt lat="42.4819061" lon="13.2441647"><ele>777.0</ele><time>2026-04-26T13:21:19.175Z</time></trkpt><trkpt lat="42.4816923" lon="13.2443603"><ele>777.0</ele><time>2026-04-26T13:21:20.176Z</time></trkpt><trkpt lat="42.4814893" lon="13.244591"><ele>777.0</ele><time>2026-04-26T13:21:21.175Z</time></trkpt><trkpt lat="42.481314" lon="13.2448716"><ele>777.0</ele><time>2026-04-26T13:21:22.176Z</time></trkpt><trkpt lat="42.4811709" lon="13.2451784"><ele>777.0</ele><time>2026-04-26T13:21:23.176Z</time></trkpt><trkpt lat="42.4810668" lon="13.2455089"><ele>777.0</ele><time>2026-04-26T13:21:24.176Z</time></trkpt><trkpt lat="42.4809882" lon="13.2458402"><ele>778.5</ele><time>2026-04-26T13:21:25.176Z</time></trkpt><trkpt lat="42.4809573" lon="13.2461972"><ele>780.0</ele><time>2026-04-26T13:21:26.175Z</time></trkpt><trkpt lat="42.4809422" lon="13.2465722"><ele>780.5</ele><time>2026-04-26T13:21:27.175Z</time></trkpt><trkpt lat="42.4809346" lon="13.2469695"><ele>781.0</ele><time>2026-04-26T13:21:28.175Z</time></trkpt><trkpt lat="42.4809269" lon="13.2473707"><ele>781.0</ele><time>2026-04-26T13:21:29.175Z</time></trkpt><trkpt lat="42.4809219" lon="13.2477752"><ele>781.0</ele><time>2026-04-26T13:21:30.176Z</time></trkpt><trkpt lat="42.4809199" lon="13.2481591"><ele>780.5</ele><time>2026-04-26T13:21:31.176Z</time></trkpt><trkpt lat="42.4809143" lon="13.2485336"><ele>780.0</ele><time>2026-04-26T13:21:32.176Z</time></trkpt><trkpt lat="42.4809117" lon="13.2488956"><ele>777.5</ele><time>2026-04-26T13:21:33.176Z</time></trkpt><trkpt lat="42.4809022" lon="13.2492555"><ele>775.0</ele><time>2026-04-26T13:21:34.175Z</time></trkpt><trkpt lat="42.4808821" lon="13.2496186"><ele>774.0</ele><time>2026-04-26T13:21:35.175Z</time></trkpt><trkpt lat="42.4808551" lon="13.2499661"><ele>773.0</ele><time>2026-04-26T13:21:36.175Z</time></trkpt><trkpt lat="42.4808246" lon="13.250305"><ele>774.0</ele><time>2026-04-26T13:21:37.175Z</time></trkpt><trkpt lat="42.4807868" lon="13.2506396"><ele>775.0</ele><time>2026-04-26T13:21:38.175Z</time></trkpt><trkpt lat="42.4807471" lon="13.2509679"><ele>775.0</ele><time>2026-04-26T13:21:39.175Z</time></trkpt><trkpt lat="42.4806827" lon="13.2512956"><ele>775.0</ele><time>2026-04-26T13:21:40.176Z</time></trkpt><trkpt lat="42.4805819" lon="13.2516164"><ele>774.0</ele><time>2026-04-26T13:21:41.175Z</time></trkpt><trkpt lat="42.4804527" lon="13.2519398"><ele>773.0</ele><time>2026-04-26T13:21:42.175Z</time></trkpt><trkpt lat="42.4802984" lon="13.252251"><ele>771.5</ele><time>2026-04-26T13:21:43.175Z</time></trkpt><trkpt lat="42.4801358" lon="13.2525596"><ele>770.0</ele><time>2026-04-26T13:21:44.175Z</time></trkpt><trkpt lat="42.4799714" lon="13.2528698"><ele>778.5</ele><time>2026-04-26T13:21:45.175Z</time></trkpt><trkpt lat="42.4798005" lon="13.2531788"><ele>787.0</ele><time>2026-04-26T13:21:46.175Z</time></trkpt><trkpt lat="42.4796152" lon="13.2534707"><ele>779.0</ele><time>2026-04-26T13:21:47.175Z</time></trkpt><trkpt lat="42.4794097" lon="13.253724"><ele>771.0</ele><time>2026-04-26T13:21:48.175Z</time></trkpt><trkpt lat="42.4791768" lon="13.2539421"><ele>770.5</ele><time>2026-04-26T13:21:49.175Z</time></trkpt><trkpt lat="42.4789397" lon="13.2541195"><ele>770.0</ele><time>2026-04-26T13:21:50.175Z</time></trkpt><trkpt lat="42.4787068" lon="13.2542669"><ele>770.0</ele><time>2026-04-26T13:21:51.176Z</time></trkpt><trkpt lat="42.4784816" lon="13.2544108"><ele>770.0</ele><time>2026-04-26T13:21:52.175Z</time></trkpt><trkpt lat="42.4782574" lon="13.2545668"><ele>770.0</ele><time>2026-04-26T13:21:53.175Z</time></trkpt><trkpt lat="42.478052" lon="13.2547442"><ele>770.0</ele><time>2026-04-26T13:21:54.175Z</time></trkpt><trkpt lat="42.4778753" lon="13.254944"><ele>769.3333333333334</ele><time>2026-04-26T13:21:55.175Z</time></trkpt><trkpt lat="42.4777273" lon="13.2551627"><ele>768.6666666666667</ele><time>2026-04-26T13:21:56.175Z</time></trkpt><trkpt lat="42.4775948" lon="13.2553979"><ele>768.0</ele><time>2026-04-26T13:21:57.176Z</time></trkpt><trkpt lat="42.4774755" lon="13.2556549"><ele>774.5</ele><time>2026-04-26T13:21:58.176Z</time></trkpt><trkpt lat="42.4773633" lon="13.2559235"><ele>781.0</ele><time>2026-04-26T13:21:59.175Z</time></trkpt><trkpt lat="42.4772527" lon="13.2562239"><ele>775.0</ele><time>2026-04-26T13:22:00.175Z</time></trkpt><trkpt lat="42.4771599" lon="13.2565483"><ele>769.0</ele><time>2026-04-26T13:22:01.176Z</time></trkpt><trkpt lat="42.4770894" lon="13.2568967"><ele>769.0</ele><time>2026-04-26T13:22:02.175Z</time></trkpt><trkpt lat="42.4770442" lon="13.2572614"><ele>769.0</ele><time>2026-04-26T13:22:03.176Z</time></trkpt><trkpt lat="42.476999" lon="13.2576308"><ele>770.0</ele><time>2026-04-26T13:22:04.176Z</time></trkpt><trkpt lat="42.4769264" lon="13.2579789"><ele>771.0</ele><time>2026-04-26T13:22:05.175Z</time></trkpt><trkpt lat="42.4768223" lon="13.2583161"><ele>774.0</ele><time>2026-04-26T13:22:06.175Z</time></trkpt><trkpt lat="42.4767088" lon="13.2586621"><ele>777.0</ele><time>2026-04-26T13:22:07.175Z</time></trkpt><trkpt lat="42.4765747" lon="13.2590049"><ele>776.5</ele><time>2026-04-26T13:22:08.175Z</time></trkpt><trkpt lat="42.4764048" lon="13.2593435"><ele>776.0</ele><time>2026-04-26T13:22:09.175Z</time></trkpt><trkpt lat="42.4761092" lon="13.2599576"><ele>776.0</ele><time>2026-04-26T13:22:11.175Z</time></trkpt><trkpt lat="42.4759171" lon="13.2602327"><ele>776.0</ele><time>2026-04-26T13:22:12.175Z</time></trkpt><trkpt lat="42.4757736" lon="13.2605048"><ele>772.5</ele><time>2026-04-26T13:22:13.175Z</time></trkpt><trkpt lat="42.4755811" lon="13.2607298"><ele>769.0</ele><time>2026-04-26T13:22:14.175Z</time></trkpt><trkpt lat="42.4753736" lon="13.2608993"><ele>769.0</ele><time>2026-04-26T13:22:15.175Z</time></trkpt><trkpt lat="42.4751447" lon="13.2610601"><ele>769.0</ele><time>2026-04-26T13:22:16.175Z</time></trkpt><trkpt lat="42.4748792" lon="13.2612056"><ele>765.5</ele><time>2026-04-26T13:22:17.175Z</time></trkpt><trkpt lat="42.474591" lon="13.2613286"><ele>762.0</ele><time>2026-04-26T13:22:18.175Z</time></trkpt><trkpt lat="42.4742921" lon="13.2614715"><ele>763.5</ele><time>2026-04-26T13:22:19.175Z</time></trkpt><trkpt lat="42.4739834" lon="13.2616377"><ele>765.0</ele><time>2026-04-26T13:22:20.175Z</time></trkpt><trkpt lat="42.4736717" lon="13.2618197"><ele>765.0</ele><time>2026-04-26T13:22:21.176Z</time></trkpt><trkpt lat="42.473381" lon="13.2620215"><ele>765.0</ele><time>2026-04-26T13:22:22.176Z</time></trkpt><trkpt lat="42.4731125" lon="13.2622163"><ele>768.0</ele><time>2026-04-26T13:22:23.175Z</time></trkpt><trkpt lat="42.4728516" lon="13.2623983"><ele>771.0</ele><time>2026-04-26T13:22:24.176Z</time></trkpt><trkpt lat="42.4725994" lon="13.2625361"><ele>771.0</ele><time>2026-04-26T13:22:25.176Z</time></trkpt><trkpt lat="42.4723405" lon="13.2626235"><ele>771.0</ele><time>2026-04-26T13:22:26.175Z</time></trkpt><trkpt lat="42.4720546" lon="13.2626851"><ele>766.5</ele><time>2026-04-26T13:22:27.175Z</time></trkpt><trkpt lat="42.4717694" lon="13.2627094"><ele>762.0</ele><time>2026-04-26T13:22:28.175Z</time></trkpt><trkpt lat="42.4715074" lon="13.2627203"><ele>760.0</ele><time>2026-04-26T13:22:29.175Z</time></trkpt><trkpt lat="42.471257" lon="13.2627261"><ele>758.0</ele><time>2026-04-26T13:22:30.176Z</time></trkpt><trkpt lat="42.4710182" lon="13.262754"><ele>758.0</ele><time>2026-04-26T13:22:31.176Z</time></trkpt><trkpt lat="42.4707863" lon="13.2628276"><ele>758.0</ele><time>2026-04-26T13:22:32.176Z</time></trkpt><trkpt lat="42.4705623" lon="13.2629386"><ele>759.5</ele><time>2026-04-26T13:22:33.175Z</time></trkpt><trkpt lat="42.470345" lon="13.2630715"><ele>761.0</ele><time>2026-04-26T13:22:34.175Z</time></trkpt><trkpt lat="42.4701402" lon="13.2632724"><ele>761.0</ele><time>2026-04-26T13:22:35.175Z</time></trkpt><trkpt lat="42.469949" lon="13.2635317"><ele>761.0</ele><time>2026-04-26T13:22:36.175Z</time></trkpt><trkpt lat="42.4697651" lon="13.2638019"><ele>761.0</ele><time>2026-04-26T13:22:37.175Z</time></trkpt><trkpt lat="42.4695761" lon="13.2640746"><ele>761.0</ele><time>2026-04-26T13:22:38.176Z</time></trkpt><trkpt lat="42.4693935" lon="13.2643207"><ele>761.0</ele><time>2026-04-26T13:22:39.176Z</time></trkpt><trkpt lat="42.4692264" lon="13.2645447"><ele>761.0</ele><time>2026-04-26T13:22:40.175Z</time></trkpt><trkpt lat="42.4690554" lon="13.2647362"><ele>764.3333333333333</ele><time>2026-04-26T13:22:41.175Z</time></trkpt><trkpt lat="42.4688792" lon="13.2648969"><ele>767.6666666666666</ele><time>2026-04-26T13:22:42.176Z</time></trkpt><trkpt lat="42.4686866" lon="13.265013"><ele>771.0</ele><time>2026-04-26T13:22:43.175Z</time></trkpt><trkpt lat="42.4684903" lon="13.2650919"><ele>771.0</ele><time>2026-04-26T13:22:44.175Z</time></trkpt><trkpt lat="42.4682904" lon="13.2651383"><ele>771.0</ele><time>2026-04-26T13:22:45.176Z</time></trkpt><trkpt lat="42.4665914" lon="13.2650219"><ele>772.0</ele><time>2026-04-26T13:22:52.175Z</time></trkpt><trkpt lat="42.4663422" lon="13.2650631"><ele>773.0</ele><time>2026-04-26T13:22:53.175Z</time></trkpt><trkpt lat="42.4661125" lon="13.2651402"><ele>764.5</ele><time>2026-04-26T13:22:54.175Z</time></trkpt><trkpt lat="42.4658951" lon="13.2652618"><ele>756.0</ele><time>2026-04-26T13:22:55.175Z</time></trkpt><trkpt lat="42.465696" lon="13.2653776"><ele>756.0</ele><time>2026-04-26T13:22:56.175Z</time></trkpt><trkpt lat="42.4654846" lon="13.2654552"><ele>756.0</ele><time>2026-04-26T13:22:57.175Z</time></trkpt><trkpt lat="42.4652772" lon="13.2654868"><ele>756.0</ele><time>2026-04-26T13:22:58.175Z</time></trkpt><trkpt lat="42.4650751" lon="13.2654929"><ele>755.6666666666666</ele><time>2026-04-26T13:22:59.175Z</time></trkpt><trkpt lat="42.4648861" lon="13.2654714"><ele>755.3333333333333</ele><time>2026-04-26T13:23:00.175Z</time></trkpt><trkpt lat="42.4647189" lon="13.2654154"><ele>755.0</ele><time>2026-04-26T13:23:01.175Z</time></trkpt><trkpt lat="42.4645673" lon="13.2653482"><ele>755.0</ele><time>2026-04-26T13:23:02.175Z</time></trkpt><trkpt lat="42.4644312" lon="13.2653053"><ele>755.0</ele><time>2026-04-26T13:23:03.175Z</time></trkpt><trkpt lat="42.4643093" lon="13.2652829"><ele>755.0</ele><time>2026-04-26T13:23:04.175Z</time></trkpt><trkpt lat="42.464212" lon="13.2652787"><ele>755.0</ele><time>2026-04-26T13:23:05.175Z</time></trkpt><trkpt lat="42.4641299" lon="13.2652746"><ele>755.0</ele><time>2026-04-26T13:23:06.175Z</time></trkpt><trkpt lat="42.4640523" lon="13.2652725"><ele>755.0</ele><time>2026-04-26T13:23:07.175Z</time></trkpt><trkpt lat="42.4639764" lon="13.2652462"><ele>755.0</ele><time>2026-04-26T13:23:08.175Z</time></trkpt><trkpt lat="42.4639008" lon="13.2651928"><ele>755.0</ele><time>2026-04-26T13:23:09.175Z</time></trkpt><trkpt lat="42.4638155" lon="13.2651536"><ele>755.0</ele><time>2026-04-26T13:23:10.175Z</time></trkpt><trkpt lat="42.4637163" lon="13.2651484"><ele>755.0</ele><time>2026-04-26T13:23:11.175Z</time></trkpt><trkpt lat="42.463604" lon="13.265171"><ele>756.3333333333333</ele><time>2026-04-26T13:23:12.175Z</time></trkpt><trkpt lat="42.4634701" lon="13.265156"><ele>757.6666666666666</ele><time>2026-04-26T13:23:13.176Z</time></trkpt><trkpt lat="42.4633189" lon="13.2651251"><ele>759.0</ele><time>2026-04-26T13:23:14.175Z</time></trkpt><trkpt lat="42.4631624" lon="13.2650614"><ele>759.0</ele><time>2026-04-26T13:23:15.175Z</time></trkpt><trkpt lat="42.4629905" lon="13.2650089"><ele>759.0</ele><time>2026-04-26T13:23:16.175Z</time></trkpt><trkpt lat="42.4628122" lon="13.2649607"><ele>759.0</ele><time>2026-04-26T13:23:17.175Z</time></trkpt><trkpt lat="42.4626066" lon="13.2649212"><ele>761.0</ele><time>2026-04-26T13:23:18.175Z</time></trkpt><trkpt lat="42.4623652" lon="13.2648695"><ele>763.0</ele><time>2026-04-26T13:23:19.176Z</time></trkpt><trkpt lat="42.4620904" lon="13.2647984"><ele>754.0</ele><time>2026-04-26T13:23:20.176Z</time></trkpt><trkpt lat="42.4617993" lon="13.2647105"><ele>745.0</ele><time>2026-04-26T13:23:21.176Z</time></trkpt><trkpt lat="42.4614954" lon="13.2646481"><ele>747.0</ele><time>2026-04-26T13:23:22.175Z</time></trkpt><trkpt lat="42.4611875" lon="13.2646281"><ele>749.0</ele><time>2026-04-26T13:23:23.175Z</time></trkpt><trkpt lat="42.4608878" lon="13.2646283"><ele>749.0</ele><time>2026-04-26T13:23:24.176Z</time></trkpt><trkpt lat="42.4605992" lon="13.2646579"><ele>749.0</ele><time>2026-04-26T13:23:25.175Z</time></trkpt><trkpt lat="42.4603086" lon="13.2647285"><ele>755.0</ele><time>2026-04-26T13:23:26.175Z</time></trkpt><trkpt lat="42.4600032" lon="13.2648305"><ele>761.0</ele><time>2026-04-26T13:23:27.175Z</time></trkpt><trkpt lat="42.4596891" lon="13.2649599"><ele>757.5</ele><time>2026-04-26T13:23:28.176Z</time></trkpt><trkpt lat="42.4593945" lon="13.2650902"><ele>754.0</ele><time>2026-04-26T13:23:29.175Z</time></trkpt><trkpt lat="42.459127" lon="13.2652183"><ele>754.0</ele><time>2026-04-26T13:23:30.176Z</time></trkpt><trkpt lat="42.4588969" lon="13.2653205"><ele>754.0</ele><time>2026-04-26T13:23:31.175Z</time></trkpt><trkpt lat="42.4586453" lon="13.2654604"><ele>759.5</ele><time>2026-04-26T13:23:32.175Z</time></trkpt><trkpt lat="42.4583961" lon="13.2656436"><ele>765.0</ele><time>2026-04-26T13:23:33.175Z</time></trkpt><trkpt lat="42.458132" lon="13.2658604"><ele>758.5</ele><time>2026-04-26T13:23:34.176Z</time></trkpt><trkpt lat="42.4578661" lon="13.2660816"><ele>752.0</ele><time>2026-04-26T13:23:35.176Z</time></trkpt><trkpt lat="42.4576011" lon="13.2663023"><ele>749.0</ele><time>2026-04-26T13:23:36.175Z</time></trkpt><trkpt lat="42.4573353" lon="13.2665295"><ele>746.0</ele><time>2026-04-26T13:23:37.175Z</time></trkpt><trkpt lat="42.4570795" lon="13.2667406"><ele>746.0</ele><time>2026-04-26T13:23:38.175Z</time></trkpt><trkpt lat="42.4568254" lon="13.2669535"><ele>746.0</ele><time>2026-04-26T13:23:39.175Z</time></trkpt><trkpt lat="42.4565779" lon="13.2671732"><ele>746.0</ele><time>2026-04-26T13:23:40.176Z</time></trkpt><trkpt lat="42.4563223" lon="13.2673999"><ele>746.0</ele><time>2026-04-26T13:23:41.176Z</time></trkpt><trkpt lat="42.4560646" lon="13.2676153"><ele>742.0</ele><time>2026-04-26T13:23:42.175Z</time></trkpt><trkpt lat="42.4558131" lon="13.2678303"><ele>738.0</ele><time>2026-04-26T13:23:43.175Z</time></trkpt><trkpt lat="42.4555673" lon="13.2680366"><ele>740.0</ele><time>2026-04-26T13:23:44.175Z</time></trkpt><trkpt lat="42.4553301" lon="13.2682273"><ele>742.0</ele><time>2026-04-26T13:23:45.175Z</time></trkpt><trkpt lat="42.455096" lon="13.2684024"><ele>742.0</ele><time>2026-04-26T13:23:46.176Z</time></trkpt><trkpt lat="42.4548539" lon="13.2685474"><ele>742.0</ele><time>2026-04-26T13:23:47.175Z</time></trkpt><trkpt lat="42.4546089" lon="13.2686852"><ele>736.0</ele><time>2026-04-26T13:23:48.175Z</time></trkpt><trkpt lat="42.4543518" lon="13.2688019"><ele>730.0</ele><time>2026-04-26T13:23:49.176Z</time></trkpt><trkpt lat="42.4540901" lon="13.2688901"><ele>729.5</ele><time>2026-04-26T13:23:50.175Z</time></trkpt><trkpt lat="42.4538272" lon="13.2689591"><ele>729.0</ele><time>2026-04-26T13:23:51.175Z</time></trkpt><trkpt lat="42.453561" lon="13.2690105"><ele>729.0</ele><time>2026-04-26T13:23:52.175Z</time></trkpt><trkpt lat="42.4532904" lon="13.2690482"><ele>729.0</ele><time>2026-04-26T13:23:53.176Z</time></trkpt><trkpt lat="42.4530034" lon="13.269061"><ele>727.0</ele><time>2026-04-26T13:23:54.176Z</time></trkpt><trkpt lat="42.4527059" lon="13.2690471"><ele>725.0</ele><time>2026-04-26T13:23:55.175Z</time></trkpt><trkpt lat="42.4523889" lon="13.2690079"><ele>723.5</ele><time>2026-04-26T13:23:56.175Z</time></trkpt><trkpt lat="42.4520669" lon="13.2689312"><ele>722.0</ele><time>2026-04-26T13:23:57.175Z</time></trkpt><trkpt lat="42.4517488" lon="13.2688313"><ele>722.0</ele><time>2026-04-26T13:23:58.175Z</time></trkpt><trkpt lat="42.4514421" lon="13.268733"><ele>722.0</ele><time>2026-04-26T13:23:59.175Z</time></trkpt><trkpt lat="42.4511488" lon="13.268637"><ele>722.0</ele><time>2026-04-26T13:24:00.175Z</time></trkpt><trkpt lat="42.4508628" lon="13.2685525"><ele>722.0</ele><time>2026-04-26T13:24:01.175Z</time></trkpt><trkpt lat="42.4505754" lon="13.2684848"><ele>722.5</ele><time>2026-04-26T13:24:02.175Z</time></trkpt><trkpt lat="42.4502935" lon="13.2684386"><ele>723.0</ele><time>2026-04-26T13:24:03.175Z</time></trkpt><trkpt lat="42.4500146" lon="13.2684195"><ele>723.0</ele><time>2026-04-26T13:24:04.175Z</time></trkpt><trkpt lat="42.4497308" lon="13.2684292"><ele>723.0</ele><time>2026-04-26T13:24:05.176Z</time></trkpt><trkpt lat="42.4494458" lon="13.2684668"><ele>724.0</ele><time>2026-04-26T13:24:06.175Z</time></trkpt><trkpt lat="42.4491558" lon="13.2685328"><ele>725.0</ele><time>2026-04-26T13:24:07.175Z</time></trkpt><trkpt lat="42.4488657" lon="13.2686399"><ele>731.5</ele><time>2026-04-26T13:24:08.175Z</time></trkpt><trkpt lat="42.4485841" lon="13.2687633"><ele>738.0</ele><time>2026-04-26T13:24:09.175Z</time></trkpt><trkpt lat="42.4483103" lon="13.2689162"><ele>739.5</ele><time>2026-04-26T13:24:10.175Z</time></trkpt><trkpt lat="42.4480432" lon="13.269118"><ele>741.0</ele><time>2026-04-26T13:24:11.175Z</time></trkpt><trkpt lat="42.4477777" lon="13.2693426"><ele>741.0</ele><time>2026-04-26T13:24:12.175Z</time></trkpt><trkpt lat="42.4475108" lon="13.2695909"><ele>741.0</ele><time>2026-04-26T13:24:13.175Z</time></trkpt><trkpt lat="42.4472258" lon="13.2698631"><ele>734.0</ele><time>2026-04-26T13:24:14.175Z</time></trkpt><trkpt lat="42.4469517" lon="13.270125"><ele>727.0</ele><time>2026-04-26T13:24:15.176Z</time></trkpt><trkpt lat="42.4466969" lon="13.2703745"><ele>723.0</ele><time>2026-04-26T13:24:16.175Z</time></trkpt><trkpt lat="42.4464854" lon="13.2706202"><ele>719.0</ele><time>2026-04-26T13:24:17.175Z</time></trkpt><trkpt lat="42.4463015" lon="13.2708721"><ele>720.0</ele><time>2026-04-26T13:24:18.175Z</time></trkpt><trkpt lat="42.4461369" lon="13.2711551"><ele>721.0</ele><time>2026-04-26T13:24:19.175Z</time></trkpt><trkpt lat="42.4459844" lon="13.2714493"><ele>718.5</ele><time>2026-04-26T13:24:20.176Z</time></trkpt><trkpt lat="42.445854" lon="13.2717703"><ele>716.0</ele><time>2026-04-26T13:24:21.176Z</time></trkpt><trkpt lat="42.4457491" lon="13.2721094"><ele>717.5</ele><time>2026-04-26T13:24:22.176Z</time></trkpt><trkpt lat="42.4456731" lon="13.2724606"><ele>719.0</ele><time>2026-04-26T13:24:23.175Z</time></trkpt><trkpt lat="42.4456161" lon="13.2728432"><ele>718.0</ele><time>2026-04-26T13:24:24.183Z</time></trkpt><trkpt lat="42.4455726" lon="13.2732383"><ele>717.0</ele><time>2026-04-26T13:24:25.184Z</time></trkpt><trkpt lat="42.4455444" lon="13.2736151"><ele>715.0</ele><time>2026-04-26T13:24:26.183Z</time></trkpt><trkpt lat="42.4455107" lon="13.2739818"><ele>713.0</ele><time>2026-04-26T13:24:27.184Z</time></trkpt><trkpt lat="42.4454728" lon="13.2743383"><ele>713.0</ele><time>2026-04-26T13:24:28.184Z</time></trkpt><trkpt lat="42.4454279" lon="13.2746936"><ele>713.0</ele><time>2026-04-26T13:24:29.183Z</time></trkpt><trkpt lat="42.4453543" lon="13.2750421"><ele>713.0</ele><time>2026-04-26T13:24:30.183Z</time></trkpt><trkpt lat="42.445258" lon="13.275379"><ele>713.0</ele><time>2026-04-26T13:24:31.183Z</time></trkpt><trkpt lat="42.4451421" lon="13.2757108"><ele>713.0</ele><time>2026-04-26T13:24:32.183Z</time></trkpt><trkpt lat="42.4450047" lon="13.2760135"><ele>713.0</ele><time>2026-04-26T13:24:33.183Z</time></trkpt><trkpt lat="42.4448497" lon="13.2763109"><ele>714.5</ele><time>2026-04-26T13:24:34.183Z</time></trkpt><trkpt lat="42.4446566" lon="13.2766012"><ele>716.0</ele><time>2026-04-26T13:24:35.183Z</time></trkpt><trkpt lat="42.4444286" lon="13.2768851"><ele>716.0</ele><time>2026-04-26T13:24:36.183Z</time></trkpt><trkpt lat="42.4441941" lon="13.2771613"><ele>716.0</ele><time>2026-04-26T13:24:37.183Z</time></trkpt><trkpt lat="42.4439596" lon="13.2774395"><ele>714.0</ele><time>2026-04-26T13:24:38.183Z</time></trkpt><trkpt lat="42.4437344" lon="13.2777092"><ele>712.0</ele><time>2026-04-26T13:24:39.183Z</time></trkpt><trkpt lat="42.4435113" lon="13.2779855"><ele>715.0</ele><time>2026-04-26T13:24:40.184Z</time></trkpt><trkpt lat="42.4432889" lon="13.2782579"><ele>718.0</ele><time>2026-04-26T13:24:41.183Z</time></trkpt><trkpt lat="42.443068" lon="13.2785276"><ele>717.0</ele><time>2026-04-26T13:24:42.183Z</time></trkpt><trkpt lat="42.4428389" lon="13.2788139"><ele>716.0</ele><time>2026-04-26T13:24:43.183Z</time></trkpt><trkpt lat="42.4426087" lon="13.2791013"><ele>716.0</ele><time>2026-04-26T13:24:44.183Z</time></trkpt><trkpt lat="42.4423703" lon="13.2794118"><ele>716.0</ele><time>2026-04-26T13:24:45.183Z</time></trkpt><trkpt lat="42.4421279" lon="13.2797216"><ele>713.0</ele><time>2026-04-26T13:24:46.183Z</time></trkpt><trkpt lat="42.4419025" lon="13.280028"><ele>710.0</ele><time>2026-04-26T13:24:47.183Z</time></trkpt><trkpt lat="42.4416849" lon="13.2803254"><ele>710.0</ele><time>2026-04-26T13:24:48.183Z</time></trkpt><trkpt lat="42.4414694" lon="13.2806184"><ele>710.0</ele><time>2026-04-26T13:24:49.183Z</time></trkpt><trkpt lat="42.4412523" lon="13.2809148"><ele>710.0</ele><time>2026-04-26T13:24:50.183Z</time></trkpt><trkpt lat="42.4410322" lon="13.28121"><ele>710.0</ele><time>2026-04-26T13:24:51.184Z</time></trkpt><trkpt lat="42.440807" lon="13.2815142"><ele>709.0</ele><time>2026-04-26T13:24:52.183Z</time></trkpt><trkpt lat="42.44058" lon="13.281822"><ele>708.0</ele><time>2026-04-26T13:24:53.183Z</time></trkpt><trkpt lat="42.4403477" lon="13.2821301"><ele>708.5</ele><time>2026-04-26T13:24:54.183Z</time></trkpt><trkpt lat="42.4401184" lon="13.2824342"><ele>709.0</ele><time>2026-04-26T13:24:55.183Z</time></trkpt><trkpt lat="42.439888" lon="13.2827372"><ele>709.0</ele><time>2026-04-26T13:24:56.183Z</time></trkpt><trkpt lat="42.4396569" lon="13.2830386"><ele>709.0</ele><time>2026-04-26T13:24:57.184Z</time></trkpt><trkpt lat="42.4394243" lon="13.2833513"><ele>709.0</ele><time>2026-04-26T13:24:58.184Z</time></trkpt><trkpt lat="42.4391917" lon="13.2836575"><ele>709.0</ele><time>2026-04-26T13:24:59.183Z</time></trkpt><trkpt lat="42.4389597" lon="13.2839708"><ele>709.0</ele><time>2026-04-26T13:25:00.183Z</time></trkpt><trkpt lat="42.4387285" lon="13.2842818"><ele>709.0</ele><time>2026-04-26T13:25:01.183Z</time></trkpt><trkpt lat="42.4384952" lon="13.2845919"><ele>710.5</ele><time>2026-04-26T13:25:02.183Z</time></trkpt><trkpt lat="42.4382621" lon="13.2849057"><ele>712.0</ele><time>2026-04-26T13:25:03.184Z</time></trkpt><trkpt lat="42.4380273" lon="13.2852179"><ele>710.0</ele><time>2026-04-26T13:25:04.183Z</time></trkpt><trkpt lat="42.4377923" lon="13.2855358"><ele>708.0</ele><time>2026-04-26T13:25:05.184Z</time></trkpt><trkpt lat="42.4375564" lon="13.2858443"><ele>708.0</ele><time>2026-04-26T13:25:06.183Z</time></trkpt><trkpt lat="42.4373196" lon="13.286151"><ele>708.0</ele><time>2026-04-26T13:25:07.183Z</time></trkpt><trkpt lat="42.4370848" lon="13.2864643"><ele>707.5</ele><time>2026-04-26T13:25:08.184Z</time></trkpt><trkpt lat="42.4368577" lon="13.286763"><ele>707.0</ele><time>2026-04-26T13:25:09.183Z</time></trkpt><trkpt lat="42.43664" lon="13.2870497"><ele>708.0</ele><time>2026-04-26T13:25:10.183Z</time></trkpt><trkpt lat="42.4364332" lon="13.2873204"><ele>709.0</ele><time>2026-04-26T13:25:11.183Z</time></trkpt><trkpt lat="42.4362425" lon="13.2875869"><ele>709.0</ele><time>2026-04-26T13:25:12.184Z</time></trkpt><trkpt lat="42.4360666" lon="13.2878602"><ele>709.0</ele><time>2026-04-26T13:25:13.183Z</time></trkpt><trkpt lat="42.435899" lon="13.2881551"><ele>710.5</ele><time>2026-04-26T13:25:14.183Z</time></trkpt><trkpt lat="42.435741" lon="13.2884944"><ele>712.0</ele><time>2026-04-26T13:25:15.184Z</time></trkpt><trkpt lat="42.4355975" lon="13.2888681"><ele>709.5</ele><time>2026-04-26T13:25:16.183Z</time></trkpt><trkpt lat="42.4354623" lon="13.2892482"><ele>707.0</ele><time>2026-04-26T13:25:17.183Z</time></trkpt><trkpt lat="42.43534" lon="13.2896291"><ele>708.5</ele><time>2026-04-26T13:25:18.183Z</time></trkpt><trkpt lat="42.4352164" lon="13.2900036"><ele>710.0</ele><time>2026-04-26T13:25:19.183Z</time></trkpt><trkpt lat="42.4350943" lon="13.2903838"><ele>711.0</ele><time>2026-04-26T13:25:20.184Z</time></trkpt><trkpt lat="42.4349718" lon="13.2907617"><ele>712.0</ele><time>2026-04-26T13:25:21.184Z</time></trkpt><trkpt lat="42.4348496" lon="13.2911439"><ele>712.5</ele><time>2026-04-26T13:25:22.183Z</time></trkpt><trkpt lat="42.434729" lon="13.2915279"><ele>713.0</ele><time>2026-04-26T13:25:23.183Z</time></trkpt><trkpt lat="42.4346055" lon="13.2919137"><ele>711.5</ele><time>2026-04-26T13:25:24.184Z</time></trkpt><trkpt lat="42.4344815" lon="13.2923062"><ele>710.0</ele><time>2026-04-26T13:25:25.184Z</time></trkpt><trkpt lat="42.4343556" lon="13.292698"><ele>711.0</ele><time>2026-04-26T13:25:26.183Z</time></trkpt><trkpt lat="42.4342292" lon="13.2931071"><ele>712.0</ele><time>2026-04-26T13:25:27.183Z</time></trkpt><trkpt lat="42.4341054" lon="13.2935011"><ele>712.0</ele><time>2026-04-26T13:25:28.183Z</time></trkpt><trkpt lat="42.4339852" lon="13.2938796"><ele>712.0</ele><time>2026-04-26T13:25:29.183Z</time></trkpt><trkpt lat="42.4338722" lon="13.2942373"><ele>708.5</ele><time>2026-04-26T13:25:30.183Z</time></trkpt><trkpt lat="42.4337509" lon="13.2945846"><ele>705.0</ele><time>2026-04-26T13:25:31.183Z</time></trkpt><trkpt lat="42.4336107" lon="13.2949181"><ele>705.0</ele><time>2026-04-26T13:25:32.183Z</time></trkpt><trkpt lat="42.4334574" lon="13.2952435"><ele>705.0</ele><time>2026-04-26T13:25:33.183Z</time></trkpt><trkpt lat="42.4332732" lon="13.2955477"><ele>705.5</ele><time>2026-04-26T13:25:34.184Z</time></trkpt><trkpt lat="42.4330808" lon="13.2958327"><ele>706.0</ele><time>2026-04-26T13:25:35.184Z</time></trkpt><trkpt lat="42.4328721" lon="13.2960919"><ele>705.0</ele><time>2026-04-26T13:25:36.183Z</time></trkpt><trkpt lat="42.4326552" lon="13.296307"><ele>704.0</ele><time>2026-04-26T13:25:37.183Z</time></trkpt><trkpt lat="42.4324143" lon="13.2964907"><ele>704.0</ele><time>2026-04-26T13:25:38.183Z</time></trkpt><trkpt lat="42.4321768" lon="13.2966352"><ele>704.0</ele><time>2026-04-26T13:25:39.183Z</time></trkpt><trkpt lat="42.4319532" lon="13.296743"><ele>703.0</ele><time>2026-04-26T13:25:40.183Z</time></trkpt><trkpt lat="42.4317327" lon="13.2968478"><ele>702.0</ele><time>2026-04-26T13:25:41.184Z</time></trkpt><trkpt lat="42.4315175" lon="13.296954"><ele>702.0</ele><time>2026-04-26T13:25:42.183Z</time></trkpt><trkpt lat="42.4313144" lon="13.2970524"><ele>702.0</ele><time>2026-04-26T13:25:43.183Z</time></trkpt><trkpt lat="42.431116" lon="13.2971392"><ele>702.0</ele><time>2026-04-26T13:25:44.184Z</time></trkpt><trkpt lat="42.4309205" lon="13.2972336"><ele>701.6666666666666</ele><time>2026-04-26T13:25:45.183Z</time></trkpt><trkpt lat="42.4307174" lon="13.2973353"><ele>701.3333333333333</ele><time>2026-04-26T13:25:46.184Z</time></trkpt><trkpt lat="42.4305017" lon="13.2974384"><ele>701.0</ele><time>2026-04-26T13:25:47.183Z</time></trkpt><trkpt lat="42.4302824" lon="13.2975454"><ele>701.0</ele><time>2026-04-26T13:25:48.183Z</time></trkpt><trkpt lat="42.4300555" lon="13.2976492"><ele>701.0</ele><time>2026-04-26T13:25:49.184Z</time></trkpt><trkpt lat="42.4298242" lon="13.2977577"><ele>700.5</ele><time>2026-04-26T13:25:50.183Z</time></trkpt><trkpt lat="42.4295906" lon="13.2978702"><ele>700.0</ele><time>2026-04-26T13:25:51.184Z</time></trkpt><trkpt lat="42.429339" lon="13.2979945"><ele>701.0</ele><time>2026-04-26T13:25:52.183Z</time></trkpt><trkpt lat="42.4290717" lon="13.2981258"><ele>702.0</ele><time>2026-04-26T13:25:53.183Z</time></trkpt><trkpt lat="42.4287976" lon="13.2982592"><ele>702.0</ele><time>2026-04-26T13:25:54.183Z</time></trkpt><trkpt lat="42.4285139" lon="13.2983909"><ele>702.0</ele><time>2026-04-26T13:25:55.184Z</time></trkpt><trkpt lat="42.4282286" lon="13.2985255"><ele>701.0</ele><time>2026-04-26T13:25:56.184Z</time></trkpt><trkpt lat="42.4279471" lon="13.2986534"><ele>700.0</ele><time>2026-04-26T13:25:57.183Z</time></trkpt><trkpt lat="42.4276764" lon="13.2987807"><ele>700.0</ele><time>2026-04-26T13:25:58.183Z</time></trkpt><trkpt lat="42.4274086" lon="13.2989041"><ele>700.0</ele><time>2026-04-26T13:25:59.182Z</time></trkpt><trkpt lat="42.4271503" lon="13.2990119"><ele>699.0</ele><time>2026-04-26T13:26:00.182Z</time></trkpt><trkpt lat="42.4268946" lon="13.2991058"><ele>698.0</ele><time>2026-04-26T13:26:01.182Z</time></trkpt><trkpt lat="42.4266292" lon="13.2991943"><ele>698.0</ele><time>2026-04-26T13:26:02.182Z</time></trkpt><trkpt lat="42.4263545" lon="13.2992583"><ele>698.0</ele><time>2026-04-26T13:26:03.182Z</time></trkpt><trkpt lat="42.4260796" lon="13.2993074"><ele>696.5</ele><time>2026-04-26T13:26:04.183Z</time></trkpt><trkpt lat="42.4258201" lon="13.2993441"><ele>695.0</ele><time>2026-04-26T13:26:05.182Z</time></trkpt><trkpt lat="42.4255842" lon="13.2993724"><ele>694.3333333333333</ele><time>2026-04-26T13:26:06.183Z</time></trkpt><trkpt lat="42.4253651" lon="13.2993995"><ele>693.6666666666666</ele><time>2026-04-26T13:26:07.183Z</time></trkpt><trkpt lat="42.4251603" lon="13.2994322"><ele>693.0</ele><time>2026-04-26T13:26:08.182Z</time></trkpt><trkpt lat="42.4249756" lon="13.2994537"><ele>693.0</ele><time>2026-04-26T13:26:09.182Z</time></trkpt><trkpt lat="42.4248102" lon="13.2994694"><ele>693.0</ele><time>2026-04-26T13:26:10.182Z</time></trkpt><trkpt lat="42.424659" lon="13.2994696"><ele>693.0</ele><time>2026-04-26T13:26:11.183Z</time></trkpt><trkpt lat="42.4245281" lon="13.2994565"><ele>693.0</ele><time>2026-04-26T13:26:12.182Z</time></trkpt><trkpt lat="42.424408" lon="13.2994303"><ele>692.4</ele><time>2026-04-26T13:26:13.183Z</time></trkpt><trkpt lat="42.4242996" lon="13.2993762"><ele>691.8</ele><time>2026-04-26T13:26:14.182Z</time></trkpt><trkpt lat="42.4242082" lon="13.2992961"><ele>691.2</ele><time>2026-04-26T13:26:15.182Z</time></trkpt><trkpt lat="42.4241247" lon="13.2992238"><ele>690.6</ele><time>2026-04-26T13:26:16.182Z</time></trkpt><trkpt lat="42.4240521" lon="13.2991971"><ele>690.0</ele><time>2026-04-26T13:26:17.182Z</time></trkpt><trkpt lat="42.4239724" lon="13.2992136"><ele>690.0</ele><time>2026-04-26T13:26:18.182Z</time></trkpt><trkpt lat="42.4239065" lon="13.2992856"><ele>690.0</ele><time>2026-04-26T13:26:19.183Z</time></trkpt><trkpt lat="42.4238257" lon="13.2993959"><ele>690.0</ele><time>2026-04-26T13:26:20.182Z</time></trkpt><trkpt lat="42.4237123" lon="13.2994955"><ele>690.0</ele><time>2026-04-26T13:26:21.182Z</time></trkpt><trkpt lat="42.4235597" lon="13.2995733"><ele>690.3333333333334</ele><time>2026-04-26T13:26:22.182Z</time></trkpt><trkpt lat="42.423369" lon="13.2996306"><ele>690.6666666666667</ele><time>2026-04-26T13:26:23.182Z</time></trkpt><trkpt lat="42.423144" lon="13.2996611"><ele>691.0</ele><time>2026-04-26T13:26:24.182Z</time></trkpt><trkpt lat="42.4228961" lon="13.2996803"><ele>691.0</ele><time>2026-04-26T13:26:25.182Z</time></trkpt><trkpt lat="42.4226261" lon="13.2997156"><ele>691.0</ele><time>2026-04-26T13:26:26.183Z</time></trkpt><trkpt lat="42.422355" lon="13.2997683"><ele>691.0</ele><time>2026-04-26T13:26:27.183Z</time></trkpt><trkpt lat="42.4220885" lon="13.2998456"><ele>691.0</ele><time>2026-04-26T13:26:28.182Z</time></trkpt><trkpt lat="42.4218203" lon="13.299957"><ele>691.0</ele><time>2026-04-26T13:26:29.182Z</time></trkpt><trkpt lat="42.4215456" lon="13.3000889"><ele>691.0</ele><time>2026-04-26T13:26:30.182Z</time></trkpt><trkpt lat="42.4212626" lon="13.3002421"><ele>689.5</ele><time>2026-04-26T13:26:31.182Z</time></trkpt><trkpt lat="42.4209777" lon="13.3003989"><ele>688.0</ele><time>2026-04-26T13:26:32.182Z</time></trkpt><trkpt lat="42.4206998" lon="13.3005564"><ele>688.0</ele><time>2026-04-26T13:26:33.182Z</time></trkpt><trkpt lat="42.4204322" lon="13.3007059"><ele>688.0</ele><time>2026-04-26T13:26:34.182Z</time></trkpt><trkpt lat="42.4201651" lon="13.300851"><ele>688.0</ele><time>2026-04-26T13:26:35.182Z</time></trkpt><trkpt lat="42.4198922" lon="13.3009978"><ele>688.0</ele><time>2026-04-26T13:26:36.182Z</time></trkpt><trkpt lat="42.419626" lon="13.3011465"><ele>687.5</ele><time>2026-04-26T13:26:37.182Z</time></trkpt><trkpt lat="42.4193631" lon="13.3012937"><ele>687.0</ele><time>2026-04-26T13:26:38.182Z</time></trkpt><trkpt lat="42.4190977" lon="13.3014448"><ele>687.0</ele><time>2026-04-26T13:26:39.183Z</time></trkpt><trkpt lat="42.4188392" lon="13.3015907"><ele>687.0</ele><time>2026-04-26T13:26:40.182Z</time></trkpt><trkpt lat="42.4185716" lon="13.3017332"><ele>687.0</ele><time>2026-04-26T13:26:41.182Z</time></trkpt><trkpt lat="42.4183017" lon="13.3018865"><ele>687.0</ele><time>2026-04-26T13:26:42.182Z</time></trkpt><trkpt lat="42.4180347" lon="13.302059"><ele>687.5</ele><time>2026-04-26T13:26:43.182Z</time></trkpt><trkpt lat="42.4177816" lon="13.3022437"><ele>688.0</ele><time>2026-04-26T13:26:44.182Z</time></trkpt><trkpt lat="42.4175406" lon="13.3024438"><ele>688.0</ele><time>2026-04-26T13:26:45.183Z</time></trkpt><trkpt lat="42.4173028" lon="13.3026545"><ele>688.0</ele><time>2026-04-26T13:26:46.182Z</time></trkpt><trkpt lat="42.4170787" lon="13.3028659"><ele>687.0</ele><time>2026-04-26T13:26:47.182Z</time></trkpt><trkpt lat="42.4168738" lon="13.3030681"><ele>686.0</ele><time>2026-04-26T13:26:48.182Z</time></trkpt><trkpt lat="42.4166765" lon="13.3032525"><ele>686.0</ele><time>2026-04-26T13:26:49.182Z</time></trkpt><trkpt lat="42.4164905" lon="13.3034218"><ele>686.0</ele><time>2026-04-26T13:26:50.182Z</time></trkpt><trkpt lat="42.4163125" lon="13.3035879"><ele>686.0</ele><time>2026-04-26T13:26:51.182Z</time></trkpt><trkpt lat="42.4161493" lon="13.3037462"><ele>686.0</ele><time>2026-04-26T13:26:52.182Z</time></trkpt><trkpt lat="42.4159879" lon="13.3038931"><ele>686.0</ele><time>2026-04-26T13:26:53.182Z</time></trkpt><trkpt lat="42.4158248" lon="13.3040357"><ele>686.0</ele><time>2026-04-26T13:26:54.183Z</time></trkpt><trkpt lat="42.4156458" lon="13.3041758"><ele>687.0</ele><time>2026-04-26T13:26:55.183Z</time></trkpt><trkpt lat="42.4154604" lon="13.3043107"><ele>688.0</ele><time>2026-04-26T13:26:56.182Z</time></trkpt><trkpt lat="42.4152622" lon="13.3044436"><ele>689.0</ele><time>2026-04-26T13:26:57.183Z</time></trkpt><trkpt lat="42.4150552" lon="13.3045617"><ele>689.0</ele><time>2026-04-26T13:26:58.182Z</time></trkpt><trkpt lat="42.4148435" lon="13.3046755"><ele>689.0</ele><time>2026-04-26T13:26:59.183Z</time></trkpt><trkpt lat="42.4146308" lon="13.3047865"><ele>689.0</ele><time>2026-04-26T13:27:00.182Z</time></trkpt><trkpt lat="42.4144218" lon="13.3048961"><ele>689.0</ele><time>2026-04-26T13:27:01.183Z</time></trkpt><trkpt lat="42.4142023" lon="13.3050016"><ele>689.0</ele><time>2026-04-26T13:27:02.183Z</time></trkpt><trkpt lat="42.4139672" lon="13.3051015"><ele>689.0</ele><time>2026-04-26T13:27:03.182Z</time></trkpt><trkpt lat="42.4137138" lon="13.3051842"><ele>688.0</ele><time>2026-04-26T13:27:04.182Z</time></trkpt><trkpt lat="42.4134504" lon="13.3052686"><ele>687.0</ele><time>2026-04-26T13:27:05.182Z</time></trkpt><trkpt lat="42.4131881" lon="13.3053529"><ele>685.5</ele><time>2026-04-26T13:27:06.182Z</time></trkpt><trkpt lat="42.4129347" lon="13.3054374"><ele>684.0</ele><time>2026-04-26T13:27:07.182Z</time></trkpt><trkpt lat="42.4126818" lon="13.3055378"><ele>688.5</ele><time>2026-04-26T13:27:08.183Z</time></trkpt><trkpt lat="42.4124402" lon="13.3056351"><ele>693.0</ele><time>2026-04-26T13:27:09.182Z</time></trkpt><trkpt lat="42.4122049" lon="13.3057267"><ele>689.5</ele><time>2026-04-26T13:27:10.183Z</time></trkpt><trkpt lat="42.41198" lon="13.3058065"><ele>686.0</ele><time>2026-04-26T13:27:11.182Z</time></trkpt><trkpt lat="42.4117674" lon="13.3058793"><ele>686.0</ele><time>2026-04-26T13:27:12.182Z</time></trkpt><trkpt lat="42.4115587" lon="13.3059508"><ele>686.0</ele><time>2026-04-26T13:27:13.182Z</time></trkpt><trkpt lat="42.4113434" lon="13.3060029"><ele>686.0</ele><time>2026-04-26T13:27:14.182Z</time></trkpt><trkpt lat="42.411127" lon="13.3060412"><ele>685.3333333333333</ele><time>2026-04-26T13:27:15.182Z</time></trkpt><trkpt lat="42.410918" lon="13.3060584"><ele>684.6666666666666</ele><time>2026-04-26T13:27:16.182Z</time></trkpt><trkpt lat="42.4106989" lon="13.3060894"><ele>684.0</ele><time>2026-04-26T13:27:17.182Z</time></trkpt><trkpt lat="42.410478" lon="13.306126"><ele>683.0</ele><time>2026-04-26T13:27:18.183Z</time></trkpt><trkpt lat="42.4102652" lon="13.3061702"><ele>682.0</ele><time>2026-04-26T13:27:19.182Z</time></trkpt><trkpt lat="42.4100702" lon="13.3062055"><ele>681.0</ele><time>2026-04-26T13:27:20.182Z</time></trkpt><trkpt lat="42.4098881" lon="13.3062506"><ele>681.0</ele><time>2026-04-26T13:27:21.182Z</time></trkpt><trkpt lat="42.4097216" lon="13.3062968"><ele>681.0</ele><time>2026-04-26T13:27:22.182Z</time></trkpt><trkpt lat="42.4095735" lon="13.3063321"><ele>681.0</ele><time>2026-04-26T13:27:23.182Z</time></trkpt><trkpt lat="42.4094455" lon="13.3063688"><ele>680.8</ele><time>2026-04-26T13:27:24.182Z</time></trkpt><trkpt lat="42.4093347" lon="13.3063965"><ele>680.5999999999999</ele><time>2026-04-26T13:27:25.182Z</time></trkpt><trkpt lat="42.4092333" lon="13.3064207"><ele>680.4</ele><time>2026-04-26T13:27:26.182Z</time></trkpt><trkpt lat="42.4091453" lon="13.3064336"><ele>680.2</ele><time>2026-04-26T13:27:27.182Z</time></trkpt><trkpt lat="42.4090611" lon="13.306444"><ele>680.0</ele><time>2026-04-26T13:27:28.182Z</time></trkpt><trkpt lat="42.4089776" lon="13.3064545"><ele>680.4</ele><time>2026-04-26T13:27:29.183Z</time></trkpt><trkpt lat="42.4088887" lon="13.3064559"><ele>680.8</ele><time>2026-04-26T13:27:30.182Z</time></trkpt><trkpt lat="42.408795" lon="13.3064649"><ele>681.2</ele><time>2026-04-26T13:27:31.182Z</time></trkpt><trkpt lat="42.4086861" lon="13.3064623"><ele>681.6</ele><time>2026-04-26T13:27:32.182Z</time></trkpt><trkpt lat="42.4085582" lon="13.3064281"><ele>682.0</ele><time>2026-04-26T13:27:33.182Z</time></trkpt><trkpt lat="42.4084114" lon="13.3063896"><ele>681.0</ele><time>2026-04-26T13:27:34.183Z</time></trkpt><trkpt lat="42.4082668" lon="13.306345"><ele>680.0</ele><time>2026-04-26T13:27:35.182Z</time></trkpt><trkpt lat="42.4081341" lon="13.3062989"><ele>679.0</ele><time>2026-04-26T13:27:36.182Z</time></trkpt><trkpt lat="42.4080094" lon="13.3062653"><ele>678.0</ele><time>2026-04-26T13:27:37.182Z</time></trkpt><trkpt lat="42.4078812" lon="13.3062438"><ele>678.0</ele><time>2026-04-26T13:27:38.182Z</time></trkpt><trkpt lat="42.4077493" lon="13.306216"><ele>678.0</ele><time>2026-04-26T13:27:39.182Z</time></trkpt><trkpt lat="42.4076219" lon="13.3061958"><ele>678.0</ele><time>2026-04-26T13:27:40.182Z</time></trkpt><trkpt lat="42.4075045" lon="13.3061767"><ele>678.0</ele><time>2026-04-26T13:27:41.182Z</time></trkpt><trkpt lat="42.4073939" lon="13.3061615"><ele>678.0</ele><time>2026-04-26T13:27:42.182Z</time></trkpt><trkpt lat="42.4072884" lon="13.3061425"><ele>678.0</ele><time>2026-04-26T13:27:43.182Z</time></trkpt><trkpt lat="42.4071852" lon="13.3061298"><ele>678.0</ele><time>2026-04-26T13:27:44.182Z</time></trkpt><trkpt lat="42.4070831" lon="13.3061143"><ele>678.0</ele><time>2026-04-26T13:27:45.182Z</time></trkpt><trkpt lat="42.4069833" lon="13.3061044"><ele>678.0</ele><time>2026-04-26T13:27:46.182Z</time></trkpt><trkpt lat="42.4068827" lon="13.3060982"><ele>678.0</ele><time>2026-04-26T13:27:47.183Z</time></trkpt><trkpt lat="42.4067963" lon="13.3060814"><ele>678.0</ele><time>2026-04-26T13:27:48.182Z</time></trkpt><trkpt lat="42.4067127" lon="13.3060663"><ele>678.0</ele><time>2026-04-26T13:27:49.182Z</time></trkpt><trkpt lat="42.4066345" lon="13.3060503"><ele>678.0</ele><time>2026-04-26T13:27:50.182Z</time></trkpt><trkpt lat="42.406557" lon="13.3060353"><ele>678.0</ele><time>2026-04-26T13:27:51.183Z</time></trkpt><trkpt lat="42.4064785" lon="13.306027"><ele>678.0</ele><time>2026-04-26T13:27:52.182Z</time></trkpt><trkpt lat="42.4063973" lon="13.3060145"><ele>678.0</ele><time>2026-04-26T13:27:53.182Z</time></trkpt><trkpt lat="42.406315" lon="13.3060099"><ele>678.0</ele><time>2026-04-26T13:27:54.182Z</time></trkpt><trkpt lat="42.4062339" lon="13.3060139"><ele>678.0</ele><time>2026-04-26T13:27:55.182Z</time></trkpt><trkpt lat="42.4061606" lon="13.3060175"><ele>678.0</ele><time>2026-04-26T13:27:56.182Z</time></trkpt><trkpt lat="42.4060934" lon="13.3060237"><ele>678.0</ele><time>2026-04-26T13:27:57.182Z</time></trkpt><trkpt lat="42.4059772" lon="13.3060366"><ele>678.0</ele><time>2026-04-26T13:27:59.182Z</time></trkpt><trkpt lat="42.4058827" lon="13.3060385"><ele>678.0</ele><time>2026-04-26T13:28:01.183Z</time></trkpt><trkpt lat="42.4058004" lon="13.3060316"><ele>678.0</ele><time>2026-04-26T13:28:03.182Z</time></trkpt><trkpt lat="42.4057234" lon="13.3060525"><ele>678.0</ele><time>2026-04-26T13:28:05.182Z</time></trkpt><trkpt lat="42.4056662" lon="13.3061499"><ele>678.0</ele><time>2026-04-26T13:28:07.182Z</time></trkpt><trkpt lat="42.4056297" lon="13.3062844"><ele>678.0</ele><time>2026-04-26T13:28:09.182Z</time></trkpt><trkpt lat="42.4055981" lon="13.3063606"><ele>678.0</ele><time>2026-04-26T13:28:10.182Z</time></trkpt><trkpt lat="42.4055536" lon="13.3064339"><ele>677.5999999999999</ele><time>2026-04-26T13:28:11.182Z</time></trkpt><trkpt lat="42.4054945" lon="13.3065129"><ele>677.1999999999999</ele><time>2026-04-26T13:28:12.182Z</time></trkpt><trkpt lat="42.4054131" lon="13.306598"><ele>676.8</ele><time>2026-04-26T13:28:13.183Z</time></trkpt><trkpt lat="42.4053075" lon="13.3066798"><ele>676.4</ele><time>2026-04-26T13:28:14.182Z</time></trkpt><trkpt lat="42.4051975" lon="13.3067766"><ele>676.0</ele><time>2026-04-26T13:28:15.182Z</time></trkpt><trkpt lat="42.4050854" lon="13.3068738"><ele>676.0</ele><time>2026-04-26T13:28:16.182Z</time></trkpt><trkpt lat="42.4049745" lon="13.3069735"><ele>676.0</ele><time>2026-04-26T13:28:17.182Z</time></trkpt><trkpt lat="42.4048588" lon="13.3070754"><ele>676.0</ele><time>2026-04-26T13:28:18.182Z</time></trkpt><trkpt lat="42.4047397" lon="13.3071843"><ele>676.0</ele><time>2026-04-26T13:28:19.182Z</time></trkpt><trkpt lat="42.404615" lon="13.3072951"><ele>675.3333333333334</ele><time>2026-04-26T13:28:20.182Z</time></trkpt><trkpt lat="42.4044867" lon="13.3074111"><ele>674.6666666666666</ele><time>2026-04-26T13:28:21.182Z</time></trkpt><trkpt lat="42.404349" lon="13.3075365"><ele>674.0</ele><time>2026-04-26T13:28:22.182Z</time></trkpt><trkpt lat="42.4042078" lon="13.3076616"><ele>674.0</ele><time>2026-04-26T13:28:23.182Z</time></trkpt><trkpt lat="42.4040665" lon="13.3077895"><ele>674.0</ele><time>2026-04-26T13:28:24.182Z</time></trkpt><trkpt lat="42.4039201" lon="13.3079192"><ele>674.0</ele><time>2026-04-26T13:28:25.183Z</time></trkpt><trkpt lat="42.4037726" lon="13.3080529"><ele>674.3333333333333</ele><time>2026-04-26T13:28:26.183Z</time></trkpt><trkpt lat="42.4036285" lon="13.30818"><ele>674.6666666666666</ele><time>2026-04-26T13:28:27.182Z</time></trkpt><trkpt lat="42.4035008" lon="13.3082907"><ele>675.0</ele><time>2026-04-26T13:28:28.182Z</time></trkpt><trkpt lat="42.4033743" lon="13.3083959"><ele>675.0</ele><time>2026-04-26T13:28:29.183Z</time></trkpt><trkpt lat="42.4032531" lon="13.3084974"><ele>675.0</ele><time>2026-04-26T13:28:30.182Z</time></trkpt><trkpt lat="42.4031395" lon="13.3086025"><ele>675.0</ele><time>2026-04-26T13:28:31.183Z</time></trkpt><trkpt lat="42.4030339" lon="13.3086978"><ele>675.0</ele><time>2026-04-26T13:28:32.182Z</time></trkpt><trkpt lat="42.4029336" lon="13.3087862"><ele>674.25</ele><time>2026-04-26T13:28:33.182Z</time></trkpt><trkpt lat="42.4028314" lon="13.3088771"><ele>673.5</ele><time>2026-04-26T13:28:34.182Z</time></trkpt><trkpt lat="42.4027153" lon="13.30898"><ele>672.75</ele><time>2026-04-26T13:28:35.183Z</time></trkpt><trkpt lat="42.4025915" lon="13.3090918"><ele>672.0</ele><time>2026-04-26T13:28:36.182Z</time></trkpt><trkpt lat="42.4024568" lon="13.3092091"><ele>672.0</ele><time>2026-04-26T13:28:37.182Z</time></trkpt><trkpt lat="42.4023112" lon="13.3093402"><ele>672.0</ele><time>2026-04-26T13:28:38.182Z</time></trkpt><trkpt lat="42.4021563" lon="13.3094718"><ele>672.0</ele><time>2026-04-26T13:28:39.182Z</time></trkpt><trkpt lat="42.4020085" lon="13.3096013"><ele>671.3333333333334</ele><time>2026-04-26T13:28:40.182Z</time></trkpt><trkpt lat="42.4018713" lon="13.3097317"><ele>670.6666666666667</ele><time>2026-04-26T13:28:41.182Z</time></trkpt><trkpt lat="42.4017356" lon="13.3098525"><ele>670.0</ele><time>2026-04-26T13:28:42.182Z</time></trkpt><trkpt lat="42.4016012" lon="13.3099745"><ele>670.0</ele><time>2026-04-26T13:28:43.183Z</time></trkpt><trkpt lat="42.4014768" lon="13.3100943"><ele>670.0</ele><time>2026-04-26T13:28:44.182Z</time></trkpt><trkpt lat="42.4013503" lon="13.3102125"><ele>670.0</ele><time>2026-04-26T13:28:45.182Z</time></trkpt><trkpt lat="42.4012234" lon="13.3103322"><ele>669.75</ele><time>2026-04-26T13:28:46.182Z</time></trkpt><trkpt lat="42.4011013" lon="13.310455"><ele>669.5</ele><time>2026-04-26T13:28:47.182Z</time></trkpt><trkpt lat="42.4009871" lon="13.3105646"><ele>669.25</ele><time>2026-04-26T13:28:48.182Z</time></trkpt><trkpt lat="42.4008794" lon="13.3106721"><ele>669.0</ele><time>2026-04-26T13:28:49.182Z</time></trkpt><trkpt lat="42.4007737" lon="13.3107732"><ele>668.8000000000001</ele><time>2026-04-26T13:28:50.182Z</time></trkpt><trkpt lat="42.4006664" lon="13.3108509"><ele>668.6</ele><time>2026-04-26T13:28:51.182Z</time></trkpt><trkpt lat="42.400563" lon="13.3109121"><ele>668.4</ele><time>2026-04-26T13:28:52.182Z</time></trkpt><trkpt lat="42.4004671" lon="13.3109574"><ele>668.2</ele><time>2026-04-26T13:28:53.182Z</time></trkpt><trkpt lat="42.4003933" lon="13.3110134"><ele>668.0</ele><time>2026-04-26T13:28:54.183Z</time></trkpt><trkpt lat="42.4003426" lon="13.3110811"><ele>668.2</ele><time>2026-04-26T13:28:55.182Z</time></trkpt><trkpt lat="42.4002671" lon="13.3112015"><ele>668.4</ele><time>2026-04-26T13:28:57.182Z</time></trkpt><trkpt lat="42.4001799" lon="13.3112926"><ele>668.6</ele><time>2026-04-26T13:28:59.182Z</time></trkpt><trkpt lat="42.4001149" lon="13.3113282"><ele>668.8000000000001</ele><time>2026-04-26T13:29:00.182Z</time></trkpt><trkpt lat="42.4000482" lon="13.311378"><ele>669.0</ele><time>2026-04-26T13:29:01.182Z</time></trkpt><trkpt lat="42.3999663" lon="13.311417"><ele>669.0</ele><time>2026-04-26T13:29:02.182Z</time></trkpt><trkpt lat="42.3998532" lon="13.3114697"><ele>669.0</ele><time>2026-04-26T13:29:03.182Z</time></trkpt><trkpt lat="42.399724" lon="13.3115433"><ele>669.0</ele><time>2026-04-26T13:29:04.182Z</time></trkpt><trkpt lat="42.3995828" lon="13.3116191"><ele>669.0</ele><time>2026-04-26T13:29:05.182Z</time></trkpt><trkpt lat="42.3994337" lon="13.3116956"><ele>669.0</ele><time>2026-04-26T13:29:06.183Z</time></trkpt><trkpt lat="42.3992828" lon="13.3117686"><ele>669.0</ele><time>2026-04-26T13:29:07.183Z</time></trkpt><trkpt lat="42.3991258" lon="13.3118474"><ele>669.0</ele><time>2026-04-26T13:29:08.183Z</time></trkpt><trkpt lat="42.3989576" lon="13.3119293"><ele>669.3333333333334</ele><time>2026-04-26T13:29:09.182Z</time></trkpt><trkpt lat="42.3987818" lon="13.3120261"><ele>669.6666666666667</ele><time>2026-04-26T13:29:10.182Z</time></trkpt><trkpt lat="42.3986178" lon="13.3121105"><ele>670.0</ele><time>2026-04-26T13:29:11.183Z</time></trkpt><trkpt lat="42.398465" lon="13.3121888"><ele>670.5</ele><time>2026-04-26T13:29:12.182Z</time></trkpt><trkpt lat="42.3983197" lon="13.3122633"><ele>671.0</ele><time>2026-04-26T13:29:13.183Z</time></trkpt><trkpt lat="42.3981885" lon="13.3123291"><ele>671.5</ele><time>2026-04-26T13:29:14.183Z</time></trkpt><trkpt lat="42.3980589" lon="13.3123907"><ele>672.0</ele><time>2026-04-26T13:29:15.182Z</time></trkpt><trkpt lat="42.397926" lon="13.3124545"><ele>672.0</ele><time>2026-04-26T13:29:16.183Z</time></trkpt><trkpt lat="42.3977918" lon="13.3124989"><ele>672.0</ele><time>2026-04-26T13:29:17.182Z</time></trkpt><trkpt lat="42.3976557" lon="13.3125087"><ele>672.0</ele><time>2026-04-26T13:29:18.182Z</time></trkpt><trkpt lat="42.3975142" lon="13.312494"><ele>672.0</ele><time>2026-04-26T13:29:19.183Z</time></trkpt><trkpt lat="42.3973768" lon="13.3124575"><ele>672.0</ele><time>2026-04-26T13:29:20.183Z</time></trkpt><trkpt lat="42.3972403" lon="13.312389"><ele>672.0</ele><time>2026-04-26T13:29:21.183Z</time></trkpt><trkpt lat="42.3971039" lon="13.3123023"><ele>672.0</ele><time>2026-04-26T13:29:22.182Z</time></trkpt><trkpt lat="42.3969651" lon="13.3122022"><ele>670.6666666666666</ele><time>2026-04-26T13:29:23.182Z</time></trkpt><trkpt lat="42.3968258" lon="13.3120981"><ele>669.3333333333333</ele><time>2026-04-26T13:29:24.183Z</time></trkpt><trkpt lat="42.3966798" lon="13.3120019"><ele>668.0</ele><time>2026-04-26T13:29:25.182Z</time></trkpt><trkpt lat="42.3965245" lon="13.3119336"><ele>668.0</ele><time>2026-04-26T13:29:26.183Z</time></trkpt><trkpt lat="42.3963734" lon="13.3118831"><ele>668.0</ele><time>2026-04-26T13:29:27.183Z</time></trkpt><trkpt lat="42.3962177" lon="13.3118548"><ele>668.0</ele><time>2026-04-26T13:29:28.182Z</time></trkpt><trkpt lat="42.3960615" lon="13.3118435"><ele>667.3333333333333</ele><time>2026-04-26T13:29:29.182Z</time></trkpt><trkpt lat="42.3959076" lon="13.3118688"><ele>666.6666666666666</ele><time>2026-04-26T13:29:30.182Z</time></trkpt><trkpt lat="42.3957644" lon="13.3119328"><ele>666.0</ele><time>2026-04-26T13:29:31.182Z</time></trkpt><trkpt lat="42.3956207" lon="13.312024"><ele>665.3333333333334</ele><time>2026-04-26T13:29:32.182Z</time></trkpt><trkpt lat="42.3954867" lon="13.312131"><ele>664.6666666666667</ele><time>2026-04-26T13:29:33.182Z</time></trkpt><trkpt lat="42.3953637" lon="13.3122428"><ele>664.0</ele><time>2026-04-26T13:29:34.182Z</time></trkpt><trkpt lat="42.3952425" lon="13.3123669"><ele>665.3333333333334</ele><time>2026-04-26T13:29:35.182Z</time></trkpt><trkpt lat="42.3951215" lon="13.312509"><ele>666.6666666666666</ele><time>2026-04-26T13:29:36.182Z</time></trkpt><trkpt lat="42.3950131" lon="13.312662"><ele>668.0</ele><time>2026-04-26T13:29:37.182Z</time></trkpt><trkpt lat="42.3949152" lon="13.3128184"><ele>668.0</ele><time>2026-04-26T13:29:38.183Z</time></trkpt><trkpt lat="42.3948366" lon="13.312975"><ele>668.0</ele><time>2026-04-26T13:29:39.182Z</time></trkpt><trkpt lat="42.3947801" lon="13.3131578"><ele>668.0</ele><time>2026-04-26T13:29:40.182Z</time></trkpt><trkpt lat="42.3947593" lon="13.3133693"><ele>668.0</ele><time>2026-04-26T13:29:41.183Z</time></trkpt><trkpt lat="42.3947504" lon="13.3136143"><ele>669.0</ele><time>2026-04-26T13:29:42.183Z</time></trkpt><trkpt lat="42.3947424" lon="13.3138779"><ele>670.0</ele><time>2026-04-26T13:29:43.183Z</time></trkpt><trkpt lat="42.3947259" lon="13.3141495"><ele>671.0</ele><time>2026-04-26T13:29:44.183Z</time></trkpt><trkpt lat="42.3947041" lon="13.3144315"><ele>671.3333333333333</ele><time>2026-04-26T13:29:45.183Z</time></trkpt><trkpt lat="42.394674" lon="13.3147206"><ele>671.6666666666666</ele><time>2026-04-26T13:29:46.182Z</time></trkpt><trkpt lat="42.3946339" lon="13.3150147"><ele>672.0</ele><time>2026-04-26T13:29:47.182Z</time></trkpt><trkpt lat="42.3945949" lon="13.3153063"><ele>668.6666666666666</ele><time>2026-04-26T13:29:48.182Z</time></trkpt><trkpt lat="42.3945579" lon="13.3156045"><ele>665.3333333333333</ele><time>2026-04-26T13:29:49.183Z</time></trkpt><trkpt lat="42.3945246" lon="13.3159063"><ele>662.0</ele><time>2026-04-26T13:29:50.182Z</time></trkpt><trkpt lat="42.3944962" lon="13.316204"><ele>661.6666666666666</ele><time>2026-04-26T13:29:51.182Z</time></trkpt><trkpt lat="42.3944613" lon="13.3165098"><ele>661.3333333333334</ele><time>2026-04-26T13:29:52.182Z</time></trkpt><trkpt lat="42.3944258" lon="13.3168036"><ele>661.0</ele><time>2026-04-26T13:29:53.182Z</time></trkpt><trkpt lat="42.3943898" lon="13.3170944"><ele>661.6666666666667</ele><time>2026-04-26T13:29:54.182Z</time></trkpt><trkpt lat="42.3943524" lon="13.3173873"><ele>662.3333333333334</ele><time>2026-04-26T13:29:55.182Z</time></trkpt><trkpt lat="42.3943136" lon="13.3176827"><ele>663.0</ele><time>2026-04-26T13:29:56.182Z</time></trkpt><trkpt lat="42.3942801" lon="13.3179789"><ele>663.0</ele><time>2026-04-26T13:29:57.182Z</time></trkpt><trkpt lat="42.3942479" lon="13.318282"><ele>663.0</ele><time>2026-04-26T13:29:58.182Z</time></trkpt><trkpt lat="42.3942163" lon="13.3185857"><ele>663.0</ele><time>2026-04-26T13:29:59.182Z</time></trkpt><trkpt lat="42.3941798" lon="13.3188827"><ele>663.0</ele><time>2026-04-26T13:30:00.183Z</time></trkpt><trkpt lat="42.3941428" lon="13.3191834"><ele>663.0</ele><time>2026-04-26T13:30:01.182Z</time></trkpt><trkpt lat="42.3941066" lon="13.319477"><ele>663.3333333333334</ele><time>2026-04-26T13:30:02.183Z</time></trkpt><trkpt lat="42.394072" lon="13.3197696"><ele>663.6666666666667</ele><time>2026-04-26T13:30:03.183Z</time></trkpt><trkpt lat="42.3940375" lon="13.3200598"><ele>664.0</ele><time>2026-04-26T13:30:04.182Z</time></trkpt><trkpt lat="42.3939999" lon="13.3203524"><ele>666.0</ele><time>2026-04-26T13:30:05.183Z</time></trkpt><trkpt lat="42.393966" lon="13.3206433"><ele>668.0</ele><time>2026-04-26T13:30:06.182Z</time></trkpt><trkpt lat="42.3939351" lon="13.3209401"><ele>670.0</ele><time>2026-04-26T13:30:07.182Z</time></trkpt><trkpt lat="42.3938971" lon="13.3212467"><ele>669.6666666666667</ele><time>2026-04-26T13:30:08.182Z</time></trkpt><trkpt lat="42.393859" lon="13.3215459"><ele>669.3333333333334</ele><time>2026-04-26T13:30:09.183Z</time></trkpt><trkpt lat="42.3938222" lon="13.3218408"><ele>669.0</ele><time>2026-04-26T13:30:10.182Z</time></trkpt><trkpt lat="42.3937801" lon="13.3221261"><ele>667.0</ele><time>2026-04-26T13:30:11.183Z</time></trkpt><trkpt lat="42.3937374" lon="13.3224176"><ele>665.0</ele><time>2026-04-26T13:30:12.182Z</time></trkpt><trkpt lat="42.3936897" lon="13.32271"><ele>663.0</ele><time>2026-04-26T13:30:13.182Z</time></trkpt><trkpt lat="42.3936436" lon="13.3229944"><ele>663.3333333333334</ele><time>2026-04-26T13:30:14.183Z</time></trkpt><trkpt lat="42.3935952" lon="13.3232713"><ele>663.6666666666667</ele><time>2026-04-26T13:30:15.182Z</time></trkpt><trkpt lat="42.3935492" lon="13.3235284"><ele>664.0</ele><time>2026-04-26T13:30:16.182Z</time></trkpt><trkpt lat="42.393505" lon="13.323789"><ele>664.0</ele><time>2026-04-26T13:30:17.183Z</time></trkpt><trkpt lat="42.3934566" lon="13.3240599"><ele>664.0</ele><time>2026-04-26T13:30:18.182Z</time></trkpt><trkpt lat="42.3934076" lon="13.3243219"><ele>664.0</ele><time>2026-04-26T13:30:19.182Z</time></trkpt><trkpt lat="42.3933617" lon="13.3245801"><ele>665.0</ele><time>2026-04-26T13:30:20.182Z</time></trkpt><trkpt lat="42.3933171" lon="13.3248295"><ele>666.0</ele><time>2026-04-26T13:30:21.182Z</time></trkpt><trkpt lat="42.3932728" lon="13.3250754"><ele>667.0</ele><time>2026-04-26T13:30:22.182Z</time></trkpt><trkpt lat="42.3932309" lon="13.3253146"><ele>667.0</ele><time>2026-04-26T13:30:23.182Z</time></trkpt><trkpt lat="42.3931939" lon="13.3255385"><ele>667.0</ele><time>2026-04-26T13:30:24.183Z</time></trkpt><trkpt lat="42.3931572" lon="13.3257639"><ele>667.0</ele><time>2026-04-26T13:30:25.183Z</time></trkpt><trkpt lat="42.3931128" lon="13.3259941"><ele>668.0</ele><time>2026-04-26T13:30:26.182Z</time></trkpt><trkpt lat="42.393065" lon="13.3262207"><ele>669.0</ele><time>2026-04-26T13:30:27.182Z</time></trkpt><trkpt lat="42.3930184" lon="13.326432"><ele>670.0</ele><time>2026-04-26T13:30:28.183Z</time></trkpt><trkpt lat="42.3929646" lon="13.3266439"><ele>667.3333333333334</ele><time>2026-04-26T13:30:29.182Z</time></trkpt><trkpt lat="42.3928969" lon="13.3268532"><ele>664.6666666666666</ele><time>2026-04-26T13:30:30.182Z</time></trkpt><trkpt lat="42.3928134" lon="13.3270592"><ele>662.0</ele><time>2026-04-26T13:30:31.182Z</time></trkpt><trkpt lat="42.3927296" lon="13.3272685"><ele>662.0</ele><time>2026-04-26T13:30:32.182Z</time></trkpt><trkpt lat="42.3926401" lon="13.327478"><ele>662.0</ele><time>2026-04-26T13:30:33.182Z</time></trkpt><trkpt lat="42.3925553" lon="13.3276868"><ele>662.0</ele><time>2026-04-26T13:30:34.183Z</time></trkpt><trkpt lat="42.3924612" lon="13.3279025"><ele>662.3333333333333</ele><time>2026-04-26T13:30:35.183Z</time></trkpt><trkpt lat="42.3923683" lon="13.3281117"><ele>662.6666666666666</ele><time>2026-04-26T13:30:36.182Z</time></trkpt><trkpt lat="42.392274" lon="13.3283301"><ele>663.0</ele><time>2026-04-26T13:30:37.183Z</time></trkpt><trkpt lat="42.3921688" lon="13.3285423"><ele>662.0</ele><time>2026-04-26T13:30:38.182Z</time></trkpt><trkpt lat="42.3920458" lon="13.32874"><ele>661.0</ele><time>2026-04-26T13:30:39.183Z</time></trkpt><trkpt lat="42.3919078" lon="13.3289263"><ele>660.0</ele><time>2026-04-26T13:30:40.183Z</time></trkpt><trkpt lat="42.3917692" lon="13.3291017"><ele>660.0</ele><time>2026-04-26T13:30:41.182Z</time></trkpt><trkpt lat="42.3916348" lon="13.3292656"><ele>660.0</ele><time>2026-04-26T13:30:42.182Z</time></trkpt><trkpt lat="42.3914978" lon="13.3294289"><ele>660.0</ele><time>2026-04-26T13:30:43.182Z</time></trkpt><trkpt lat="42.3913515" lon="13.3295859"><ele>660.0</ele><time>2026-04-26T13:30:44.183Z</time></trkpt><trkpt lat="42.391203" lon="13.329741"><ele>660.0</ele><time>2026-04-26T13:30:45.182Z</time></trkpt><trkpt lat="42.3910567" lon="13.3298933"><ele>660.0</ele><time>2026-04-26T13:30:46.182Z</time></trkpt><trkpt lat="42.3909122" lon="13.3300413"><ele>660.0</ele><time>2026-04-26T13:30:47.182Z</time></trkpt><trkpt lat="42.3907717" lon="13.3301861"><ele>660.0</ele><time>2026-04-26T13:30:48.182Z</time></trkpt><trkpt lat="42.3906238" lon="13.3303353"><ele>660.0</ele><time>2026-04-26T13:30:49.183Z</time></trkpt><trkpt lat="42.3904788" lon="13.3304962"><ele>659.6666666666666</ele><time>2026-04-26T13:30:50.183Z</time></trkpt><trkpt lat="42.390322" lon="13.3306552"><ele>659.3333333333333</ele><time>2026-04-26T13:30:51.182Z</time></trkpt><trkpt lat="42.3901635" lon="13.3308142"><ele>659.0</ele><time>2026-04-26T13:30:52.182Z</time></trkpt><trkpt lat="42.3900017" lon="13.3309794"><ele>659.0</ele><time>2026-04-26T13:30:53.182Z</time></trkpt><trkpt lat="42.3898438" lon="13.3311437"><ele>659.0</ele><time>2026-04-26T13:30:54.183Z</time></trkpt><trkpt lat="42.389685" lon="13.3313053"><ele>659.0</ele><time>2026-04-26T13:30:55.183Z</time></trkpt><trkpt lat="42.3895314" lon="13.3314633"><ele>658.0</ele><time>2026-04-26T13:30:56.182Z</time></trkpt><trkpt lat="42.3893799" lon="13.3316181"><ele>657.0</ele><time>2026-04-26T13:30:57.182Z</time></trkpt><trkpt lat="42.3892302" lon="13.3317671"><ele>656.0</ele><time>2026-04-26T13:30:58.182Z</time></trkpt><trkpt lat="42.3890778" lon="13.331929"><ele>656.0</ele><time>2026-04-26T13:30:59.182Z</time></trkpt><trkpt lat="42.3889233" lon="13.3320935"><ele>656.0</ele><time>2026-04-26T13:31:00.183Z</time></trkpt><trkpt lat="42.3887736" lon="13.3322533"><ele>656.0</ele><time>2026-04-26T13:31:01.183Z</time></trkpt><trkpt lat="42.3886269" lon="13.3324102"><ele>656.3333333333333</ele><time>2026-04-26T13:31:02.183Z</time></trkpt><trkpt lat="42.3884866" lon="13.332568"><ele>656.6666666666666</ele><time>2026-04-26T13:31:03.183Z</time></trkpt><trkpt lat="42.3883483" lon="13.3327221"><ele>657.0</ele><time>2026-04-26T13:31:04.191Z</time></trkpt><trkpt lat="42.3882133" lon="13.3328793"><ele>657.0</ele><time>2026-04-26T13:31:05.19Z</time></trkpt><trkpt lat="42.3880771" lon="13.3330328"><ele>657.0</ele><time>2026-04-26T13:31:06.19Z</time></trkpt><trkpt lat="42.3879448" lon="13.3331777"><ele>657.0</ele><time>2026-04-26T13:31:07.19Z</time></trkpt><trkpt lat="42.3878129" lon="13.333325"><ele>656.0</ele><time>2026-04-26T13:31:08.191Z</time></trkpt><trkpt lat="42.3876813" lon="13.3334746"><ele>655.0</ele><time>2026-04-26T13:31:09.19Z</time></trkpt><trkpt lat="42.3875511" lon="13.3336231"><ele>654.0</ele><time>2026-04-26T13:31:10.191Z</time></trkpt><trkpt lat="42.3874181" lon="13.3337816"><ele>654.0</ele><time>2026-04-26T13:31:11.19Z</time></trkpt><trkpt lat="42.3872854" lon="13.3339514"><ele>654.0</ele><time>2026-04-26T13:31:12.19Z</time></trkpt><trkpt lat="42.3871478" lon="13.3341184"><ele>654.0</ele><time>2026-04-26T13:31:13.19Z</time></trkpt><trkpt lat="42.3870058" lon="13.3343051"><ele>653.6666666666666</ele><time>2026-04-26T13:31:14.191Z</time></trkpt><trkpt lat="42.3868684" lon="13.3344877"><ele>653.3333333333333</ele><time>2026-04-26T13:31:15.19Z</time></trkpt><trkpt lat="42.386731" lon="13.3346684"><ele>653.0</ele><time>2026-04-26T13:31:16.19Z</time></trkpt><trkpt lat="42.3866015" lon="13.3348611"><ele>653.0</ele><time>2026-04-26T13:31:17.19Z</time></trkpt><trkpt lat="42.3864806" lon="13.3350653"><ele>653.0</ele><time>2026-04-26T13:31:18.19Z</time></trkpt><trkpt lat="42.386362" lon="13.3352752"><ele>653.0</ele><time>2026-04-26T13:31:19.19Z</time></trkpt><trkpt lat="42.3862431" lon="13.3354805"><ele>652.3333333333333</ele><time>2026-04-26T13:31:20.19Z</time></trkpt><trkpt lat="42.3861228" lon="13.3356956"><ele>651.6666666666666</ele><time>2026-04-26T13:31:21.19Z</time></trkpt><trkpt lat="42.3860038" lon="13.3359105"><ele>651.0</ele><time>2026-04-26T13:31:22.19Z</time></trkpt><trkpt lat="42.3858907" lon="13.3361378"><ele>651.0</ele><time>2026-04-26T13:31:23.19Z</time></trkpt><trkpt lat="42.3857815" lon="13.3363664"><ele>651.0</ele><time>2026-04-26T13:31:24.191Z</time></trkpt><trkpt lat="42.3856714" lon="13.3366027"><ele>651.0</ele><time>2026-04-26T13:31:25.19Z</time></trkpt><trkpt lat="42.385565" lon="13.3368348"><ele>651.3333333333334</ele><time>2026-04-26T13:31:26.19Z</time></trkpt><trkpt lat="42.385457" lon="13.3370666"><ele>651.6666666666667</ele><time>2026-04-26T13:31:27.19Z</time></trkpt><trkpt lat="42.3853542" lon="13.3372827"><ele>652.0</ele><time>2026-04-26T13:31:28.191Z</time></trkpt><trkpt lat="42.3852526" lon="13.3374962"><ele>652.0</ele><time>2026-04-26T13:31:29.19Z</time></trkpt><trkpt lat="42.3851545" lon="13.337708"><ele>652.0</ele><time>2026-04-26T13:31:30.19Z</time></trkpt><trkpt lat="42.3850618" lon="13.3379136"><ele>652.0</ele><time>2026-04-26T13:31:31.191Z</time></trkpt><trkpt lat="42.3849708" lon="13.3381081"><ele>652.0</ele><time>2026-04-26T13:31:32.19Z</time></trkpt><trkpt lat="42.3848743" lon="13.3383043"><ele>652.0</ele><time>2026-04-26T13:31:33.19Z</time></trkpt><trkpt lat="42.3847825" lon="13.3384988"><ele>652.0</ele><time>2026-04-26T13:31:34.19Z</time></trkpt><trkpt lat="42.3846912" lon="13.3386943"><ele>650.6666666666667</ele><time>2026-04-26T13:31:35.19Z</time></trkpt><trkpt lat="42.3846016" lon="13.3388867"><ele>649.3333333333334</ele><time>2026-04-26T13:31:36.19Z</time></trkpt><trkpt lat="42.3845158" lon="13.3390742"><ele>648.0</ele><time>2026-04-26T13:31:37.19Z</time></trkpt><trkpt lat="42.3844316" lon="13.3392569"><ele>648.0</ele><time>2026-04-26T13:31:38.191Z</time></trkpt><trkpt lat="42.3843498" lon="13.3394313"><ele>648.0</ele><time>2026-04-26T13:31:39.19Z</time></trkpt><trkpt lat="42.3842636" lon="13.3396062"><ele>648.0</ele><time>2026-04-26T13:31:40.191Z</time></trkpt><trkpt lat="42.3841817" lon="13.3397801"><ele>648.25</ele><time>2026-04-26T13:31:41.19Z</time></trkpt><trkpt lat="42.3841049" lon="13.3399545"><ele>648.5</ele><time>2026-04-26T13:31:42.19Z</time></trkpt><trkpt lat="42.3840264" lon="13.3401188"><ele>648.75</ele><time>2026-04-26T13:31:43.191Z</time></trkpt><trkpt lat="42.3839511" lon="13.3402782"><ele>649.0</ele><time>2026-04-26T13:31:44.19Z</time></trkpt><trkpt lat="42.3838774" lon="13.3404345"><ele>648.25</ele><time>2026-04-26T13:31:45.19Z</time></trkpt><trkpt lat="42.3838032" lon="13.3405953"><ele>647.5</ele><time>2026-04-26T13:31:46.19Z</time></trkpt><trkpt lat="42.38373" lon="13.3407509"><ele>646.75</ele><time>2026-04-26T13:31:47.19Z</time></trkpt><trkpt lat="42.3836614" lon="13.3408947"><ele>646.0</ele><time>2026-04-26T13:31:48.19Z</time></trkpt><trkpt lat="42.3835976" lon="13.3410384"><ele>646.0</ele><time>2026-04-26T13:31:49.19Z</time></trkpt><trkpt lat="42.3835426" lon="13.341151"><ele>646.0</ele><time>2026-04-26T13:31:50.19Z</time></trkpt><trkpt lat="42.3835053" lon="13.3412333"><ele>646.0</ele><time>2026-04-26T13:31:51.19Z</time></trkpt><trkpt lat="42.3834667" lon="13.3413064"><ele>646.0</ele><time>2026-04-26T13:31:52.191Z</time></trkpt><trkpt lat="42.3834163" lon="13.3413873"><ele>646.0</ele><time>2026-04-26T13:31:53.191Z</time></trkpt><trkpt lat="42.3833565" lon="13.3414526"><ele>646.0</ele><time>2026-04-26T13:31:54.19Z</time></trkpt><trkpt lat="42.3832833" lon="13.3415183"><ele>645.75</ele><time>2026-04-26T13:31:55.19Z</time></trkpt><trkpt lat="42.3832044" lon="13.3415932"><ele>645.5</ele><time>2026-04-26T13:31:56.19Z</time></trkpt><trkpt lat="42.3831094" lon="13.3416713"><ele>645.25</ele><time>2026-04-26T13:31:57.19Z</time></trkpt><trkpt lat="42.383" lon="13.3417523"><ele>645.0</ele><time>2026-04-26T13:31:58.19Z</time></trkpt><trkpt lat="42.3828863" lon="13.3418574"><ele>645.0</ele><time>2026-04-26T13:31:59.19Z</time></trkpt><trkpt lat="42.3827643" lon="13.3419655"><ele>645.0</ele><time>2026-04-26T13:32:00.191Z</time></trkpt><trkpt lat="42.3826261" lon="13.3420929"><ele>645.0</ele><time>2026-04-26T13:32:01.19Z</time></trkpt><trkpt lat="42.3824864" lon="13.3422221"><ele>644.6666666666666</ele><time>2026-04-26T13:32:02.191Z</time></trkpt><trkpt lat="42.3823463" lon="13.3423725"><ele>644.3333333333333</ele><time>2026-04-26T13:32:03.19Z</time></trkpt><trkpt lat="42.3822163" lon="13.342556"><ele>644.0</ele><time>2026-04-26T13:32:04.19Z</time></trkpt><trkpt lat="42.3820982" lon="13.3427534"><ele>644.0</ele><time>2026-04-26T13:32:05.19Z</time></trkpt><trkpt lat="42.381984" lon="13.3429591"><ele>644.0</ele><time>2026-04-26T13:32:06.19Z</time></trkpt><trkpt lat="42.3818664" lon="13.3431662"><ele>644.0</ele><time>2026-04-26T13:32:07.19Z</time></trkpt><trkpt lat="42.3817464" lon="13.3433522"><ele>644.3333333333333</ele><time>2026-04-26T13:32:08.191Z</time></trkpt><trkpt lat="42.3816267" lon="13.3435159"><ele>644.6666666666666</ele><time>2026-04-26T13:32:09.19Z</time></trkpt><trkpt lat="42.3814859" lon="13.343666"><ele>645.0</ele><time>2026-04-26T13:32:10.19Z</time></trkpt><trkpt lat="42.3813357" lon="13.3438045"><ele>646.3333333333334</ele><time>2026-04-26T13:32:11.19Z</time></trkpt><trkpt lat="42.3811754" lon="13.3439318"><ele>647.6666666666667</ele><time>2026-04-26T13:32:12.191Z</time></trkpt><trkpt lat="42.3810135" lon="13.3440655"><ele>649.0</ele><time>2026-04-26T13:32:13.191Z</time></trkpt><trkpt lat="42.3808601" lon="13.3442177"><ele>649.0</ele><time>2026-04-26T13:32:14.191Z</time></trkpt><trkpt lat="42.3807071" lon="13.3443768"><ele>649.0</ele><time>2026-04-26T13:32:15.19Z</time></trkpt><trkpt lat="42.3805483" lon="13.3445521"><ele>649.0</ele><time>2026-04-26T13:32:16.19Z</time></trkpt><trkpt lat="42.3803867" lon="13.3447333"><ele>647.6666666666667</ele><time>2026-04-26T13:32:17.19Z</time></trkpt><trkpt lat="42.3802278" lon="13.3449135"><ele>646.3333333333334</ele><time>2026-04-26T13:32:18.191Z</time></trkpt><trkpt lat="42.3800738" lon="13.3450901"><ele>645.0</ele><time>2026-04-26T13:32:19.191Z</time></trkpt><trkpt lat="42.3799231" lon="13.3452556"><ele>645.0</ele><time>2026-04-26T13:32:20.19Z</time></trkpt><trkpt lat="42.3797709" lon="13.3454254"><ele>645.0</ele><time>2026-04-26T13:32:21.19Z</time></trkpt><trkpt lat="42.3796184" lon="13.3455933"><ele>645.0</ele><time>2026-04-26T13:32:22.19Z</time></trkpt><trkpt lat="42.3794764" lon="13.3457414"><ele>645.6666666666666</ele><time>2026-04-26T13:32:23.19Z</time></trkpt><trkpt lat="42.3793336" lon="13.3458785"><ele>646.3333333333333</ele><time>2026-04-26T13:32:24.19Z</time></trkpt><trkpt lat="42.3791815" lon="13.3460071"><ele>647.0</ele><time>2026-04-26T13:32:25.19Z</time></trkpt><trkpt lat="42.3790134" lon="13.3461131"><ele>646.0</ele><time>2026-04-26T13:32:26.19Z</time></trkpt><trkpt lat="42.3788354" lon="13.3461883"><ele>645.0</ele><time>2026-04-26T13:32:27.19Z</time></trkpt><trkpt lat="42.3786561" lon="13.3462312"><ele>644.0</ele><time>2026-04-26T13:32:28.19Z</time></trkpt><trkpt lat="42.3784733" lon="13.3462605"><ele>644.0</ele><time>2026-04-26T13:32:29.19Z</time></trkpt><trkpt lat="42.378292" lon="13.3462709"><ele>644.0</ele><time>2026-04-26T13:32:30.19Z</time></trkpt><trkpt lat="42.3781229" lon="13.3462851"><ele>644.0</ele><time>2026-04-26T13:32:31.191Z</time></trkpt><trkpt lat="42.377945" lon="13.3463004"><ele>643.6666666666666</ele><time>2026-04-26T13:32:32.191Z</time></trkpt><trkpt lat="42.3777679" lon="13.3463368"><ele>643.3333333333334</ele><time>2026-04-26T13:32:33.19Z</time></trkpt><trkpt lat="42.3775984" lon="13.3463884"><ele>643.0</ele><time>2026-04-26T13:32:34.19Z</time></trkpt><trkpt lat="42.3774372" lon="13.3464639"><ele>643.0</ele><time>2026-04-26T13:32:35.19Z</time></trkpt><trkpt lat="42.3772779" lon="13.3465576"><ele>643.0</ele><time>2026-04-26T13:32:36.19Z</time></trkpt><trkpt lat="42.3771193" lon="13.3466623"><ele>643.0</ele><time>2026-04-26T13:32:37.19Z</time></trkpt><trkpt lat="42.3769581" lon="13.3467767"><ele>643.0</ele><time>2026-04-26T13:32:38.191Z</time></trkpt><trkpt lat="42.3767989" lon="13.3468953"><ele>643.0</ele><time>2026-04-26T13:32:39.19Z</time></trkpt><trkpt lat="42.3766412" lon="13.3470122"><ele>643.0</ele><time>2026-04-26T13:32:40.19Z</time></trkpt><trkpt lat="42.3764881" lon="13.3471218"><ele>643.3333333333334</ele><time>2026-04-26T13:32:41.191Z</time></trkpt><trkpt lat="42.3763356" lon="13.3472388"><ele>643.6666666666666</ele><time>2026-04-26T13:32:42.19Z</time></trkpt><trkpt lat="42.376175" lon="13.3473551"><ele>644.0</ele><time>2026-04-26T13:32:43.19Z</time></trkpt><trkpt lat="42.3760178" lon="13.3474672"><ele>644.0</ele><time>2026-04-26T13:32:44.19Z</time></trkpt><trkpt lat="42.3758584" lon="13.3475838"><ele>644.0</ele><time>2026-04-26T13:32:45.19Z</time></trkpt><trkpt lat="42.3757019" lon="13.3477008"><ele>644.0</ele><time>2026-04-26T13:32:46.19Z</time></trkpt><trkpt lat="42.3755442" lon="13.3478156"><ele>643.6666666666666</ele><time>2026-04-26T13:32:47.191Z</time></trkpt><trkpt lat="42.3753849" lon="13.3479381"><ele>643.3333333333334</ele><time>2026-04-26T13:32:48.191Z</time></trkpt><trkpt lat="42.37523" lon="13.3480615"><ele>643.0</ele><time>2026-04-26T13:32:49.191Z</time></trkpt><trkpt lat="42.3750845" lon="13.3481862"><ele>643.0</ele><time>2026-04-26T13:32:50.19Z</time></trkpt><trkpt lat="42.3749497" lon="13.3483158"><ele>643.0</ele><time>2026-04-26T13:32:51.19Z</time></trkpt><trkpt lat="42.3748221" lon="13.3484427"><ele>643.0</ele><time>2026-04-26T13:32:52.191Z</time></trkpt><trkpt lat="42.374697" lon="13.3485751"><ele>642.3333333333334</ele><time>2026-04-26T13:32:53.19Z</time></trkpt><trkpt lat="42.3745725" lon="13.3487027"><ele>641.6666666666666</ele><time>2026-04-26T13:32:54.191Z</time></trkpt><trkpt lat="42.3744481" lon="13.3488272"><ele>641.0</ele><time>2026-04-26T13:32:55.19Z</time></trkpt><trkpt lat="42.374336" lon="13.3489462"><ele>642.0</ele><time>2026-04-26T13:32:56.19Z</time></trkpt><trkpt lat="42.3742246" lon="13.3490643"><ele>643.0</ele><time>2026-04-26T13:32:57.19Z</time></trkpt><trkpt lat="42.3741158" lon="13.3491876"><ele>644.0</ele><time>2026-04-26T13:32:58.191Z</time></trkpt><trkpt lat="42.3740114" lon="13.3493129"><ele>645.0</ele><time>2026-04-26T13:32:59.191Z</time></trkpt><trkpt lat="42.3739149" lon="13.3494261"><ele>645.2</ele><time>2026-04-26T13:33:00.191Z</time></trkpt><trkpt lat="42.3738302" lon="13.3495455"><ele>645.4</ele><time>2026-04-26T13:33:01.19Z</time></trkpt><trkpt lat="42.3737525" lon="13.3496486"><ele>645.5999999999999</ele><time>2026-04-26T13:33:02.19Z</time></trkpt><trkpt lat="42.3736832" lon="13.3497207"><ele>645.8</ele><time>2026-04-26T13:33:03.191Z</time></trkpt><trkpt lat="42.3736255" lon="13.3497858"><ele>646.0</ele><time>2026-04-26T13:33:04.19Z</time></trkpt><trkpt lat="42.3735728" lon="13.3498519"><ele>646.0000000000001</ele><time>2026-04-26T13:33:05.19Z</time></trkpt><trkpt lat="42.3735237" lon="13.3499056"><ele>646.0</ele><time>2026-04-26T13:33:06.191Z</time></trkpt><trkpt lat="42.3734713" lon="13.3499531"><ele>646.0</ele><time>2026-04-26T13:33:07.19Z</time></trkpt><trkpt lat="42.3734115" lon="13.3499877"><ele>646.0</ele><time>2026-04-26T13:33:08.191Z</time></trkpt><trkpt lat="42.373348" lon="13.3500164"><ele>646.0</ele><time>2026-04-26T13:33:09.191Z</time></trkpt><trkpt lat="42.3732792" lon="13.3500457"><ele>646.0000000000001</ele><time>2026-04-26T13:33:10.19Z</time></trkpt><trkpt lat="42.3732151" lon="13.3500952"><ele>646.0</ele><time>2026-04-26T13:33:11.19Z</time></trkpt><trkpt lat="42.3731662" lon="13.350179"><ele>646.0</ele><time>2026-04-26T13:33:12.19Z</time></trkpt><trkpt lat="42.3731292" lon="13.3502769"><ele>646.0</ele><time>2026-04-26T13:33:13.19Z</time></trkpt><trkpt lat="42.3730915" lon="13.3503805"><ele>646.0</ele><time>2026-04-26T13:33:14.191Z</time></trkpt><trkpt lat="42.3730507" lon="13.3504829"><ele>646.0</ele><time>2026-04-26T13:33:15.19Z</time></trkpt><trkpt lat="42.3730018" lon="13.3505835"><ele>646.0</ele><time>2026-04-26T13:33:16.19Z</time></trkpt><trkpt lat="42.372945" lon="13.3506848"><ele>646.0</ele><time>2026-04-26T13:33:17.19Z</time></trkpt><trkpt lat="42.3728854" lon="13.350781"><ele>646.4</ele><time>2026-04-26T13:33:18.19Z</time></trkpt><trkpt lat="42.3728245" lon="13.3508814"><ele>646.8</ele><time>2026-04-26T13:33:19.19Z</time></trkpt><trkpt lat="42.3727646" lon="13.3509854"><ele>647.1999999999999</ele><time>2026-04-26T13:33:20.19Z</time></trkpt><trkpt lat="42.372708" lon="13.3511036"><ele>647.5999999999999</ele><time>2026-04-26T13:33:21.191Z</time></trkpt><trkpt lat="42.3726456" lon="13.3512427"><ele>648.0</ele><time>2026-04-26T13:33:22.19Z</time></trkpt><trkpt lat="42.3725736" lon="13.3513929"><ele>648.0</ele><time>2026-04-26T13:33:23.19Z</time></trkpt><trkpt lat="42.3725019" lon="13.3515486"><ele>648.0</ele><time>2026-04-26T13:33:24.19Z</time></trkpt><trkpt lat="42.372431" lon="13.3516999"><ele>648.0</ele><time>2026-04-26T13:33:25.19Z</time></trkpt><trkpt lat="42.3723612" lon="13.3518575"><ele>648.0</ele><time>2026-04-26T13:33:26.19Z</time></trkpt><trkpt lat="42.3722849" lon="13.352023"><ele>648.0</ele><time>2026-04-26T13:33:27.191Z</time></trkpt><trkpt lat="42.3722036" lon="13.3521936"><ele>648.0</ele><time>2026-04-26T13:33:28.191Z</time></trkpt><trkpt lat="42.3721182" lon="13.3523598"><ele>648.0</ele><time>2026-04-26T13:33:29.19Z</time></trkpt><trkpt lat="42.3720338" lon="13.3525274"><ele>648.0</ele><time>2026-04-26T13:33:30.19Z</time></trkpt><trkpt lat="42.3719568" lon="13.3526923"><ele>648.0</ele><time>2026-04-26T13:33:31.191Z</time></trkpt><trkpt lat="42.3718862" lon="13.3528498"><ele>648.0</ele><time>2026-04-26T13:33:32.19Z</time></trkpt><trkpt lat="42.3718217" lon="13.3529847"><ele>648.0</ele><time>2026-04-26T13:33:33.19Z</time></trkpt><trkpt lat="42.3717696" lon="13.3531024"><ele>648.0</ele><time>2026-04-26T13:33:34.19Z</time></trkpt><trkpt lat="42.3717218" lon="13.3532084"><ele>648.0</ele><time>2026-04-26T13:33:35.19Z</time></trkpt><trkpt lat="42.3716745" lon="13.353307"><ele>648.1666666666666</ele><time>2026-04-26T13:33:36.19Z</time></trkpt><trkpt lat="42.3716293" lon="13.3534068"><ele>648.3333333333334</ele><time>2026-04-26T13:33:37.19Z</time></trkpt><trkpt lat="42.371582" lon="13.3535041"><ele>648.5</ele><time>2026-04-26T13:33:38.19Z</time></trkpt><trkpt lat="42.3715357" lon="13.3535997"><ele>648.6666666666667</ele><time>2026-04-26T13:33:39.19Z</time></trkpt><trkpt lat="42.3714894" lon="13.3536986"><ele>648.8333333333334</ele><time>2026-04-26T13:33:40.19Z</time></trkpt><trkpt lat="42.3714361" lon="13.3538163"><ele>649.0</ele><time>2026-04-26T13:33:41.191Z</time></trkpt><trkpt lat="42.3713752" lon="13.3539445"><ele>649.25</ele><time>2026-04-26T13:33:42.191Z</time></trkpt><trkpt lat="42.3713134" lon="13.3540692"><ele>649.5</ele><time>2026-04-26T13:33:43.191Z</time></trkpt><trkpt lat="42.3712473" lon="13.3541952"><ele>649.75</ele><time>2026-04-26T13:33:44.191Z</time></trkpt><trkpt lat="42.3711822" lon="13.3543277"><ele>650.0</ele><time>2026-04-26T13:33:45.19Z</time></trkpt><trkpt lat="42.3711106" lon="13.3544677"><ele>650.0</ele><time>2026-04-26T13:33:46.19Z</time></trkpt><trkpt lat="42.3710332" lon="13.3546163"><ele>650.0</ele><time>2026-04-26T13:33:47.19Z</time></trkpt><trkpt lat="42.3709528" lon="13.3547731"><ele>650.0</ele><time>2026-04-26T13:33:48.19Z</time></trkpt><trkpt lat="42.370869" lon="13.3549341"><ele>650.0</ele><time>2026-04-26T13:33:49.191Z</time></trkpt><trkpt lat="42.3707795" lon="13.3550903"><ele>650.0</ele><time>2026-04-26T13:33:50.19Z</time></trkpt><trkpt lat="42.3706929" lon="13.3552375"><ele>650.0</ele><time>2026-04-26T13:33:51.19Z</time></trkpt><trkpt lat="42.37061" lon="13.3553814"><ele>650.0</ele><time>2026-04-26T13:33:52.191Z</time></trkpt><trkpt lat="42.3705354" lon="13.3555207"><ele>650.0</ele><time>2026-04-26T13:33:53.19Z</time></trkpt><trkpt lat="42.3704598" lon="13.3556547"><ele>649.75</ele><time>2026-04-26T13:33:54.19Z</time></trkpt><trkpt lat="42.3703824" lon="13.355792"><ele>649.5</ele><time>2026-04-26T13:33:55.191Z</time></trkpt><trkpt lat="42.3703065" lon="13.3559276"><ele>649.25</ele><time>2026-04-26T13:33:56.19Z</time></trkpt><trkpt lat="42.3702386" lon="13.3560509"><ele>649.0</ele><time>2026-04-26T13:33:57.191Z</time></trkpt><trkpt lat="42.3701713" lon="13.356178"><ele>649.0</ele><time>2026-04-26T13:33:58.19Z</time></trkpt><trkpt lat="42.3701004" lon="13.3563026"><ele>649.0</ele><time>2026-04-26T13:33:59.191Z</time></trkpt><trkpt lat="42.3700237" lon="13.356434"><ele>649.0</ele><time>2026-04-26T13:34:00.19Z</time></trkpt><trkpt lat="42.3699505" lon="13.3565627"><ele>649.0</ele><time>2026-04-26T13:34:01.191Z</time></trkpt><trkpt lat="42.3698799" lon="13.3566923"><ele>649.0</ele><time>2026-04-26T13:34:02.191Z</time></trkpt><trkpt lat="42.3698089" lon="13.3568131"><ele>649.0</ele><time>2026-04-26T13:34:03.19Z</time></trkpt><trkpt lat="42.3697439" lon="13.3569308"><ele>649.0</ele><time>2026-04-26T13:34:04.191Z</time></trkpt><trkpt lat="42.369686" lon="13.3570432"><ele>649.0</ele><time>2026-04-26T13:34:05.191Z</time></trkpt><trkpt lat="42.3696291" lon="13.3571483"><ele>649.0</ele><time>2026-04-26T13:34:06.19Z</time></trkpt><trkpt lat="42.3695733" lon="13.3572466"><ele>649.3333333333334</ele><time>2026-04-26T13:34:07.19Z</time></trkpt><trkpt lat="42.3695168" lon="13.3573386"><ele>649.6666666666667</ele><time>2026-04-26T13:34:08.19Z</time></trkpt><trkpt lat="42.3694595" lon="13.357416"><ele>650.0</ele><time>2026-04-26T13:34:09.191Z</time></trkpt><trkpt lat="42.3694023" lon="13.3574768"><ele>650.3333333333334</ele><time>2026-04-26T13:34:10.19Z</time></trkpt><trkpt lat="42.3693187" lon="13.3575338"><ele>650.6666666666666</ele><time>2026-04-26T13:34:12.19Z</time></trkpt><trkpt lat="42.3692288" lon="13.3575722"><ele>651.0</ele><time>2026-04-26T13:34:15.19Z</time></trkpt><trkpt lat="42.3691217" lon="13.3575913"><ele>651.0</ele><time>2026-04-26T13:34:17.191Z</time></trkpt><trkpt lat="42.3690587" lon="13.3576007"><ele>651.0</ele><time>2026-04-26T13:34:18.191Z</time></trkpt><trkpt lat="42.3689935" lon="13.3576355"><ele>651.0</ele><time>2026-04-26T13:34:19.191Z</time></trkpt><trkpt lat="42.3689069" lon="13.3577531"><ele>651.0</ele><time>2026-04-26T13:34:21.19Z</time></trkpt><trkpt lat="42.3688874" lon="13.3578358"><ele>651.0</ele><time>2026-04-26T13:34:22.19Z</time></trkpt><trkpt lat="42.3688828" lon="13.3579248"><ele>651.0</ele><time>2026-04-26T13:34:23.191Z</time></trkpt><trkpt lat="42.3689033" lon="13.3580945"><ele>651.3333333333334</ele><time>2026-04-26T13:34:25.19Z</time></trkpt><trkpt lat="42.3689145" lon="13.3581843"><ele>651.6666666666666</ele><time>2026-04-26T13:34:26.19Z</time></trkpt><trkpt lat="42.3689105" lon="13.3582881"><ele>652.0</ele><time>2026-04-26T13:34:27.19Z</time></trkpt><trkpt lat="42.368888" lon="13.3583996"><ele>652.3333333333333</ele><time>2026-04-26T13:34:28.19Z</time></trkpt><trkpt lat="42.3688454" lon="13.3585165"><ele>652.6666666666666</ele><time>2026-04-26T13:34:29.191Z</time></trkpt><trkpt lat="42.3687853" lon="13.3586505"><ele>653.0</ele><time>2026-04-26T13:34:30.19Z</time></trkpt><trkpt lat="42.3687156" lon="13.3587701"><ele>652.4</ele><time>2026-04-26T13:34:31.19Z</time></trkpt><trkpt lat="42.3686474" lon="13.3588842"><ele>651.8</ele><time>2026-04-26T13:34:32.191Z</time></trkpt><trkpt lat="42.3685832" lon="13.3589959"><ele>651.2</ele><time>2026-04-26T13:34:33.19Z</time></trkpt><trkpt lat="42.3685189" lon="13.3591149"><ele>650.6</ele><time>2026-04-26T13:34:34.19Z</time></trkpt><trkpt lat="42.3684455" lon="13.3592402"><ele>650.0</ele><time>2026-04-26T13:34:35.191Z</time></trkpt><trkpt lat="42.3683784" lon="13.359364"><ele>650.0</ele><time>2026-04-26T13:34:36.19Z</time></trkpt><trkpt lat="42.3683098" lon="13.359487"><ele>650.0</ele><time>2026-04-26T13:34:37.19Z</time></trkpt><trkpt lat="42.3682406" lon="13.3596032"><ele>650.0</ele><time>2026-04-26T13:34:38.19Z</time></trkpt><trkpt lat="42.3681814" lon="13.3597037"><ele>650.0</ele><time>2026-04-26T13:34:39.19Z</time></trkpt><trkpt lat="42.3681246" lon="13.3597964"><ele>650.0</ele><time>2026-04-26T13:34:40.191Z</time></trkpt><trkpt lat="42.3680746" lon="13.3598627"><ele>649.8</ele><time>2026-04-26T13:34:41.19Z</time></trkpt><trkpt lat="42.3680141" lon="13.3599492"><ele>649.6</ele><time>2026-04-26T13:34:43.19Z</time></trkpt><trkpt lat="42.3679734" lon="13.3600725"><ele>649.4000000000001</ele><time>2026-04-26T13:36:38.19Z</time></trkpt><trkpt lat="42.3678991" lon="13.3602207"><ele>649.2</ele><time>2026-04-26T13:36:40.19Z</time></trkpt><trkpt lat="42.3678497" lon="13.360316"><ele>649.0</ele><time>2026-04-26T13:36:41.19Z</time></trkpt><trkpt lat="42.3677904" lon="13.360413"><ele>649.0</ele><time>2026-04-26T13:36:42.191Z</time></trkpt><trkpt lat="42.3677263" lon="13.3605243"><ele>649.0</ele><time>2026-04-26T13:36:43.19Z</time></trkpt><trkpt lat="42.3676575" lon="13.3606408"><ele>649.0</ele><time>2026-04-26T13:36:44.191Z</time></trkpt><trkpt lat="42.3675893" lon="13.3607628"><ele>649.0</ele><time>2026-04-26T13:36:45.191Z</time></trkpt><trkpt lat="42.3675156" lon="13.3609016"><ele>649.5</ele><time>2026-04-26T13:36:46.19Z</time></trkpt><trkpt lat="42.3674413" lon="13.3610409"><ele>650.0</ele><time>2026-04-26T13:36:47.19Z</time></trkpt><trkpt lat="42.3673582" lon="13.3611858"><ele>650.5</ele><time>2026-04-26T13:36:48.19Z</time></trkpt><trkpt lat="42.3672791" lon="13.3613324"><ele>651.0</ele><time>2026-04-26T13:36:49.19Z</time></trkpt><trkpt lat="42.3671959" lon="13.3614756"><ele>651.5</ele><time>2026-04-26T13:36:50.19Z</time></trkpt><trkpt lat="42.3671072" lon="13.3616245"><ele>652.0</ele><time>2026-04-26T13:36:51.19Z</time></trkpt><trkpt lat="42.3670158" lon="13.3617707"><ele>652.5</ele><time>2026-04-26T13:36:52.19Z</time></trkpt><trkpt lat="42.3669287" lon="13.3619223"><ele>653.0</ele><time>2026-04-26T13:36:53.19Z</time></trkpt><trkpt lat="42.3668477" lon="13.3620718"><ele>653.0</ele><time>2026-04-26T13:36:54.19Z</time></trkpt><trkpt lat="42.3667667" lon="13.362217"><ele>653.0</ele><time>2026-04-26T13:36:55.191Z</time></trkpt><trkpt lat="42.3666872" lon="13.3623656"><ele>653.0</ele><time>2026-04-26T13:36:56.189Z</time></trkpt><trkpt lat="42.3666077" lon="13.3625083"><ele>653.0</ele><time>2026-04-26T13:36:57.189Z</time></trkpt><trkpt lat="42.3665294" lon="13.3626423"><ele>653.0</ele><time>2026-04-26T13:36:58.189Z</time></trkpt><trkpt lat="42.366453" lon="13.3627747"><ele>653.0</ele><time>2026-04-26T13:36:59.19Z</time></trkpt><trkpt lat="42.3663797" lon="13.3629022"><ele>653.0</ele><time>2026-04-26T13:37:00.19Z</time></trkpt><trkpt lat="42.3663066" lon="13.3630355"><ele>653.0</ele><time>2026-04-26T13:37:01.189Z</time></trkpt><trkpt lat="42.3662335" lon="13.3631667"><ele>652.0</ele><time>2026-04-26T13:37:02.19Z</time></trkpt><trkpt lat="42.3661603" lon="13.3633025"><ele>651.0</ele><time>2026-04-26T13:37:03.19Z</time></trkpt><trkpt lat="42.3660829" lon="13.3634372"><ele>650.0</ele><time>2026-04-26T13:37:04.189Z</time></trkpt><trkpt lat="42.3660046" lon="13.3635659"><ele>649.0</ele><time>2026-04-26T13:37:05.189Z</time></trkpt><trkpt lat="42.3659356" lon="13.3636971"><ele>649.0</ele><time>2026-04-26T13:37:06.189Z</time></trkpt><trkpt lat="42.3658625" lon="13.3638201"><ele>649.0</ele><time>2026-04-26T13:37:07.189Z</time></trkpt><trkpt lat="42.3657902" lon="13.3639458"><ele>649.0</ele><time>2026-04-26T13:37:08.19Z</time></trkpt><trkpt lat="42.3657176" lon="13.3640766"><ele>649.0</ele><time>2026-04-26T13:37:09.19Z</time></trkpt><trkpt lat="42.365644" lon="13.364197"><ele>649.0</ele><time>2026-04-26T13:37:10.19Z</time></trkpt><trkpt lat="42.3655693" lon="13.3643232"><ele>649.0</ele><time>2026-04-26T13:37:11.189Z</time></trkpt><trkpt lat="42.3654984" lon="13.364443"><ele>649.0</ele><time>2026-04-26T13:37:12.19Z</time></trkpt><trkpt lat="42.3654287" lon="13.3645523"><ele>649.0</ele><time>2026-04-26T13:37:13.19Z</time></trkpt><trkpt lat="42.3653627" lon="13.3646613"><ele>649.0</ele><time>2026-04-26T13:37:14.189Z</time></trkpt><trkpt lat="42.3653029" lon="13.3647669"><ele>649.0</ele><time>2026-04-26T13:37:15.189Z</time></trkpt><trkpt lat="42.3652429" lon="13.3648599"><ele>649.0</ele><time>2026-04-26T13:37:16.189Z</time></trkpt><trkpt lat="42.3651892" lon="13.3649456"><ele>649.0</ele><time>2026-04-26T13:37:17.19Z</time></trkpt><trkpt lat="42.3651447" lon="13.3650164"><ele>649.0</ele><time>2026-04-26T13:37:18.19Z</time></trkpt><trkpt lat="42.3650758" lon="13.3651236"><ele>649.0</ele><time>2026-04-26T13:37:20.19Z</time></trkpt><trkpt lat="42.3650106" lon="13.3651766"><ele>649.0</ele><time>2026-04-26T13:37:22.189Z</time></trkpt><trkpt lat="42.3649488" lon="13.3652203"><ele>649.0</ele><time>2026-04-26T13:37:24.189Z</time></trkpt><trkpt lat="42.3648844" lon="13.3652462"><ele>649.0</ele><time>2026-04-26T13:37:26.189Z</time></trkpt><trkpt lat="42.3648127" lon="13.365267"><ele>649.0</ele><time>2026-04-26T13:37:29.19Z</time></trkpt><trkpt lat="42.364746" lon="13.3652335"><ele>649.0</ele><time>2026-04-26T13:38:01.197Z</time></trkpt><trkpt lat="42.3646801" lon="13.3651498"><ele>649.0</ele><time>2026-04-26T13:38:03.196Z</time></trkpt><trkpt lat="42.3645915" lon="13.3650184"><ele>649.0</ele><time>2026-04-26T13:38:05.197Z</time></trkpt><trkpt lat="42.364533" lon="13.3649377"><ele>648.4000000000001</ele><time>2026-04-26T13:38:06.197Z</time></trkpt><trkpt lat="42.3644708" lon="13.3648503"><ele>647.8</ele><time>2026-04-26T13:38:07.196Z</time></trkpt><trkpt lat="42.364351" lon="13.3646826"><ele>647.2</ele><time>2026-04-26T13:38:09.197Z</time></trkpt><trkpt lat="42.3643012" lon="13.3646125"><ele>646.5999999999999</ele><time>2026-04-26T13:38:10.196Z</time></trkpt><trkpt lat="42.3642578" lon="13.3645446"><ele>646.0</ele><time>2026-04-26T13:38:11.196Z</time></trkpt><trkpt lat="42.3641963" lon="13.3644135"><ele>645.0</ele><time>2026-04-26T13:38:13.196Z</time></trkpt><trkpt lat="42.3641541" lon="13.3642693"><ele>644.0</ele><time>2026-04-26T13:38:15.197Z</time></trkpt><trkpt lat="42.3640668" lon="13.3641746"><ele>643.0</ele><time>2026-04-26T13:38:17.196Z</time></trkpt><trkpt lat="42.3639659" lon="13.3641117"><ele>642.0</ele><time>2026-04-26T13:38:19.196Z</time></trkpt><trkpt lat="42.3638819" lon="13.3640013"><ele>642.3333333333334</ele><time>2026-04-26T13:38:21.196Z</time></trkpt><trkpt lat="42.3638444" lon="13.3639106"><ele>642.6666666666666</ele><time>2026-04-26T13:38:22.196Z</time></trkpt><trkpt lat="42.36381" lon="13.3638102"><ele>643.0</ele><time>2026-04-26T13:38:23.197Z</time></trkpt><trkpt lat="42.3637767" lon="13.3636999"><ele>643.3333333333333</ele><time>2026-04-26T13:38:24.196Z</time></trkpt><trkpt lat="42.3637511" lon="13.3635825"><ele>643.6666666666666</ele><time>2026-04-26T13:38:25.196Z</time></trkpt><trkpt lat="42.363739" lon="13.3634597"><ele>644.0</ele><time>2026-04-26T13:38:26.196Z</time></trkpt><trkpt lat="42.3637375" lon="13.3633359"><ele>643.1666666666666</ele><time>2026-04-26T13:38:27.196Z</time></trkpt><trkpt lat="42.3637366" lon="13.3632103"><ele>642.3333333333333</ele><time>2026-04-26T13:38:28.197Z</time></trkpt><trkpt lat="42.3637308" lon="13.3630792"><ele>641.5</ele><time>2026-04-26T13:38:29.196Z</time></trkpt><trkpt lat="42.3637177" lon="13.3629622"><ele>640.6666666666666</ele><time>2026-04-26T13:38:30.197Z</time></trkpt><trkpt lat="42.3637073" lon="13.3628604"><ele>639.8333333333334</ele><time>2026-04-26T13:38:31.196Z</time></trkpt><trkpt lat="42.3636788" lon="13.3627755"><ele>639.0</ele><time>2026-04-26T13:38:32.196Z</time></trkpt><trkpt lat="42.3636441" lon="13.3627015"><ele>638.2</ele><time>2026-04-26T13:38:33.197Z</time></trkpt><trkpt lat="42.3635633" lon="13.3625751"><ele>637.4</ele><time>2026-04-26T13:38:35.196Z</time></trkpt><trkpt lat="42.363478" lon="13.3624906"><ele>636.6</ele><time>2026-04-26T13:38:37.197Z</time></trkpt><trkpt lat="42.3633976" lon="13.362428"><ele>635.8</ele><time>2026-04-26T13:38:39.196Z</time></trkpt><trkpt lat="42.3633183" lon="13.3624179"><ele>635.0</ele><time>2026-04-26T13:38:41.197Z</time></trkpt><trkpt lat="42.3632494" lon="13.3624178"><ele>635.0</ele><time>2026-04-26T13:38:43.196Z</time></trkpt><trkpt lat="42.3631803" lon="13.3624174"><ele>635.0</ele><time>2026-04-26T13:38:46.196Z</time></trkpt><trkpt lat="42.3630966" lon="13.3624527"><ele>635.0</ele><time>2026-04-26T13:38:51.196Z</time></trkpt><trkpt lat="42.3630274" lon="13.3625327"><ele>635.0</ele><time>2026-04-26T13:38:53.196Z</time></trkpt><trkpt lat="42.3629795" lon="13.3625923"><ele>635.0</ele><time>2026-04-26T13:38:54.196Z</time></trkpt><trkpt lat="42.3629102" lon="13.3626645"><ele>635.0</ele><time>2026-04-26T13:38:55.197Z</time></trkpt><trkpt lat="42.362832" lon="13.3627487"><ele>634.5</ele><time>2026-04-26T13:38:56.196Z</time></trkpt><trkpt lat="42.362742" lon="13.3628427"><ele>634.0</ele><time>2026-04-26T13:38:57.196Z</time></trkpt><trkpt lat="42.3626336" lon="13.362948"><ele>633.5</ele><time>2026-04-26T13:38:58.196Z</time></trkpt><trkpt lat="42.362509" lon="13.3630532"><ele>633.0</ele><time>2026-04-26T13:38:59.196Z</time></trkpt><trkpt lat="42.3623747" lon="13.3631568"><ele>633.0</ele><time>2026-04-26T13:39:00.196Z</time></trkpt><trkpt lat="42.3622276" lon="13.3632554"><ele>633.0</ele><time>2026-04-26T13:39:01.196Z</time></trkpt><trkpt lat="42.3620782" lon="13.363361"><ele>633.0</ele><time>2026-04-26T13:39:02.196Z</time></trkpt><trkpt lat="42.3619308" lon="13.3634763"><ele>632.0</ele><time>2026-04-26T13:39:03.196Z</time></trkpt><trkpt lat="42.3617767" lon="13.3635922"><ele>631.0</ele><time>2026-04-26T13:39:04.196Z</time></trkpt><trkpt lat="42.3616201" lon="13.363711"><ele>630.0</ele><time>2026-04-26T13:39:05.196Z</time></trkpt><trkpt lat="42.3614713" lon="13.3638447"><ele>631.0</ele><time>2026-04-26T13:39:06.196Z</time></trkpt><trkpt lat="42.3613343" lon="13.364013"><ele>632.0</ele><time>2026-04-26T13:39:07.197Z</time></trkpt><trkpt lat="42.3612152" lon="13.3641893"><ele>633.0</ele><time>2026-04-26T13:39:08.196Z</time></trkpt><trkpt lat="42.3611123" lon="13.3643778"><ele>633.0</ele><time>2026-04-26T13:39:09.196Z</time></trkpt><trkpt lat="42.3610164" lon="13.3645816"><ele>633.0</ele><time>2026-04-26T13:39:10.196Z</time></trkpt><trkpt lat="42.3609418" lon="13.364794"><ele>633.0</ele><time>2026-04-26T13:39:11.196Z</time></trkpt><trkpt lat="42.3608751" lon="13.3649963"><ele>633.0</ele><time>2026-04-26T13:39:12.196Z</time></trkpt><trkpt lat="42.3607985" lon="13.3651819"><ele>633.0</ele><time>2026-04-26T13:39:13.196Z</time></trkpt><trkpt lat="42.360713" lon="13.3653605"><ele>633.0</ele><time>2026-04-26T13:39:14.197Z</time></trkpt><trkpt lat="42.3606129" lon="13.3655395"><ele>632.0</ele><time>2026-04-26T13:39:15.196Z</time></trkpt><trkpt lat="42.3605001" lon="13.365724"><ele>631.0</ele><time>2026-04-26T13:39:16.196Z</time></trkpt><trkpt lat="42.3603778" lon="13.3659152"><ele>630.0</ele><time>2026-04-26T13:39:17.196Z</time></trkpt><trkpt lat="42.3602605" lon="13.3661027"><ele>630.0</ele><time>2026-04-26T13:39:18.196Z</time></trkpt><trkpt lat="42.3601481" lon="13.3662852"><ele>630.0</ele><time>2026-04-26T13:39:19.196Z</time></trkpt><trkpt lat="42.360041" lon="13.366464"><ele>630.0</ele><time>2026-04-26T13:39:20.196Z</time></trkpt><trkpt lat="42.3599385" lon="13.3666512"><ele>629.6666666666666</ele><time>2026-04-26T13:39:21.197Z</time></trkpt><trkpt lat="42.3598411" lon="13.3668301"><ele>629.3333333333333</ele><time>2026-04-26T13:39:22.197Z</time></trkpt><trkpt lat="42.3597497" lon="13.367001"><ele>629.0</ele><time>2026-04-26T13:39:23.197Z</time></trkpt><trkpt lat="42.3596593" lon="13.3671612"><ele>629.25</ele><time>2026-04-26T13:39:24.196Z</time></trkpt><trkpt lat="42.3595732" lon="13.3673114"><ele>629.5</ele><time>2026-04-26T13:39:25.196Z</time></trkpt><trkpt lat="42.3594937" lon="13.3674567"><ele>629.75</ele><time>2026-04-26T13:39:26.196Z</time></trkpt><trkpt lat="42.359427" lon="13.3675723"><ele>630.0</ele><time>2026-04-26T13:39:27.196Z</time></trkpt><trkpt lat="42.3593742" lon="13.3676604"><ele>630.0</ele><time>2026-04-26T13:39:28.197Z</time></trkpt><trkpt lat="42.3592987" lon="13.3677709"><ele>630.0</ele><time>2026-04-26T13:39:30.197Z</time></trkpt><trkpt lat="42.3592373" lon="13.3678214"><ele>630.0</ele><time>2026-04-26T13:39:32.196Z</time></trkpt><trkpt lat="42.3591443" lon="13.3678277"><ele>630.0</ele><time>2026-04-26T13:39:34.197Z</time></trkpt><trkpt lat="42.3590779" lon="13.367806"><ele>630.0</ele><time>2026-04-26T13:39:35.197Z</time></trkpt><trkpt lat="42.3590139" lon="13.3677398"><ele>630.0</ele><time>2026-04-26T13:39:36.196Z</time></trkpt><trkpt lat="42.3589544" lon="13.367652"><ele>630.0</ele><time>2026-04-26T13:39:37.196Z</time></trkpt><trkpt lat="42.3589" lon="13.367564"><ele>630.0</ele><time>2026-04-26T13:39:38.196Z</time></trkpt><trkpt lat="42.3588708" lon="13.3674376"><ele>630.0</ele><time>2026-04-26T13:39:39.197Z</time></trkpt><trkpt lat="42.3588257" lon="13.3672867"><ele>630.0</ele><time>2026-04-26T13:39:40.196Z</time></trkpt><trkpt lat="42.3587629" lon="13.3671102"><ele>630.0</ele><time>2026-04-26T13:39:41.196Z</time></trkpt><trkpt lat="42.3586902" lon="13.3669331"><ele>629.3333333333334</ele><time>2026-04-26T13:39:42.196Z</time></trkpt><trkpt lat="42.3586077" lon="13.3667553"><ele>628.6666666666667</ele><time>2026-04-26T13:39:43.197Z</time></trkpt><trkpt lat="42.3585189" lon="13.3665746"><ele>628.0</ele><time>2026-04-26T13:39:44.197Z</time></trkpt><trkpt lat="42.3584243" lon="13.3664009"><ele>627.75</ele><time>2026-04-26T13:39:45.196Z</time></trkpt><trkpt lat="42.3583309" lon="13.3662407"><ele>627.5</ele><time>2026-04-26T13:39:46.197Z</time></trkpt><trkpt lat="42.3582495" lon="13.3660708"><ele>627.25</ele><time>2026-04-26T13:39:47.197Z</time></trkpt><trkpt lat="42.3581912" lon="13.3659132"><ele>627.0</ele><time>2026-04-26T13:39:48.197Z</time></trkpt><trkpt lat="42.3581799" lon="13.3657722"><ele>627.0</ele><time>2026-04-26T13:39:49.196Z</time></trkpt><trkpt lat="42.358179" lon="13.3656641"><ele>627.0</ele><time>2026-04-26T13:39:50.196Z</time></trkpt><trkpt lat="42.3581776" lon="13.36556"><ele>627.0</ele><time>2026-04-26T13:39:51.196Z</time></trkpt><trkpt lat="42.3581657" lon="13.365437"><ele>627.0</ele><time>2026-04-26T13:39:52.196Z</time></trkpt><trkpt lat="42.3581685" lon="13.3653288"><ele>627.0</ele><time>2026-04-26T13:39:53.196Z</time></trkpt><trkpt lat="42.358169" lon="13.3651982"><ele>627.0</ele><time>2026-04-26T13:39:54.196Z</time></trkpt><trkpt lat="42.3581814" lon="13.3650568"><ele>627.5</ele><time>2026-04-26T13:39:55.196Z</time></trkpt><trkpt lat="42.3581904" lon="13.364895"><ele>628.0</ele><time>2026-04-26T13:39:56.197Z</time></trkpt><trkpt lat="42.3582081" lon="13.3647391"><ele>628.5</ele><time>2026-04-26T13:39:57.197Z</time></trkpt><trkpt lat="42.3582375" lon="13.3645941"><ele>629.0</ele><time>2026-04-26T13:39:58.196Z</time></trkpt><trkpt lat="42.3582718" lon="13.3644466"><ele>629.25</ele><time>2026-04-26T13:39:59.196Z</time></trkpt><trkpt lat="42.3583117" lon="13.3643121"><ele>629.5</ele><time>2026-04-26T13:40:00.196Z</time></trkpt><trkpt lat="42.3583512" lon="13.3641654"><ele>629.75</ele><time>2026-04-26T13:40:01.196Z</time></trkpt><trkpt lat="42.3583936" lon="13.3640156"><ele>630.0</ele><time>2026-04-26T13:40:02.196Z</time></trkpt><trkpt lat="42.3584406" lon="13.3638695"><ele>629.6</ele><time>2026-04-26T13:40:03.196Z</time></trkpt><trkpt lat="42.3584856" lon="13.3637301"><ele>629.2</ele><time>2026-04-26T13:40:04.197Z</time></trkpt><trkpt lat="42.3585309" lon="13.3635917"><ele>628.8</ele><time>2026-04-26T13:40:05.197Z</time></trkpt><trkpt lat="42.3585743" lon="13.3634508"><ele>628.4</ele><time>2026-04-26T13:40:06.196Z</time></trkpt><trkpt lat="42.3586109" lon="13.3633174"><ele>628.0</ele><time>2026-04-26T13:40:07.196Z</time></trkpt><trkpt lat="42.3586514" lon="13.3632016"><ele>628.0</ele><time>2026-04-26T13:40:08.196Z</time></trkpt><trkpt lat="42.3586926" lon="13.3631054"><ele>628.0</ele><time>2026-04-26T13:40:09.196Z</time></trkpt><trkpt lat="42.3587387" lon="13.3630241"><ele>628.0</ele><time>2026-04-26T13:40:10.196Z</time></trkpt><trkpt lat="42.3587771" lon="13.3629518"><ele>628.0</ele><time>2026-04-26T13:40:11.196Z</time></trkpt><trkpt lat="42.3588303" lon="13.36282"><ele>628.0</ele><time>2026-04-26T13:40:13.196Z</time></trkpt><trkpt lat="42.3588542" lon="13.3627394"><ele>628.0</ele><time>2026-04-26T13:40:16.196Z</time></trkpt><trkpt lat="42.3587998" lon="13.3626917"><ele>627.6666666666667</ele><time>2026-04-26T13:41:02.197Z</time></trkpt><trkpt lat="42.3588006" lon="13.3625972"><ele>627.3333333333334</ele><time>2026-04-26T13:41:32.197Z</time></trkpt><trkpt lat="42.3588354" lon="13.3625249"><ele>627.0</ele><time>2026-04-26T13:41:34.196Z</time></trkpt><trkpt lat="42.358871" lon="13.3624446"><ele>626.6666666666666</ele><time>2026-04-26T13:41:37.195Z</time></trkpt><trkpt lat="42.3588865" lon="13.3623562"><ele>626.3333333333333</ele><time>2026-04-26T13:41:54.195Z</time></trkpt><trkpt lat="42.3588931" lon="13.3622114"><ele>626.0</ele><time>2026-04-26T13:41:57.195Z</time></trkpt><trkpt lat="42.3589232" lon="13.3621136"><ele>628.0</ele><time>2026-04-26T13:41:58.195Z</time></trkpt><trkpt lat="42.358963" lon="13.3619868"><ele>630.0</ele><time>2026-04-26T13:41:59.195Z</time></trkpt><trkpt lat="42.3590141" lon="13.3618374"><ele>632.0</ele><time>2026-04-26T13:42:00.195Z</time></trkpt><trkpt lat="42.3590692" lon="13.3616815"><ele>634.0</ele><time>2026-04-26T13:42:01.196Z</time></trkpt><trkpt lat="42.359133" lon="13.3615071"><ele>632.5</ele><time>2026-04-26T13:42:02.195Z</time></trkpt><trkpt lat="42.3591867" lon="13.3613394"><ele>631.0</ele><time>2026-04-26T13:42:03.196Z</time></trkpt><trkpt lat="42.3592362" lon="13.3611619"><ele>629.5</ele><time>2026-04-26T13:42:04.195Z</time></trkpt><trkpt lat="42.3592712" lon="13.3609904"><ele>628.0</ele><time>2026-04-26T13:42:05.195Z</time></trkpt><trkpt lat="42.3593201" lon="13.3608055"><ele>628.0</ele><time>2026-04-26T13:42:06.195Z</time></trkpt><trkpt lat="42.3593764" lon="13.3606174"><ele>628.0</ele><time>2026-04-26T13:42:07.196Z</time></trkpt><trkpt lat="42.3594305" lon="13.36042"><ele>628.0</ele><time>2026-04-26T13:42:08.195Z</time></trkpt><trkpt lat="42.3594893" lon="13.3602209"><ele>627.6666666666667</ele><time>2026-04-26T13:42:09.196Z</time></trkpt><trkpt lat="42.3595468" lon="13.3600191"><ele>627.3333333333334</ele><time>2026-04-26T13:42:10.195Z</time></trkpt><trkpt lat="42.3596096" lon="13.3598118"><ele>627.0</ele><time>2026-04-26T13:42:11.196Z</time></trkpt><trkpt lat="42.3596741" lon="13.3595973"><ele>625.3333333333334</ele><time>2026-04-26T13:42:12.196Z</time></trkpt><trkpt lat="42.3597386" lon="13.3593769"><ele>623.6666666666667</ele><time>2026-04-26T13:42:13.195Z</time></trkpt><trkpt lat="42.3598015" lon="13.3591549"><ele>622.0</ele><time>2026-04-26T13:42:14.195Z</time></trkpt><trkpt lat="42.359862" lon="13.3589432"><ele>623.0</ele><time>2026-04-26T13:42:15.195Z</time></trkpt><trkpt lat="42.3599157" lon="13.3587402"><ele>624.0</ele><time>2026-04-26T13:42:16.196Z</time></trkpt><trkpt lat="42.3599587" lon="13.3585442"><ele>625.0</ele><time>2026-04-26T13:42:17.195Z</time></trkpt><trkpt lat="42.3599884" lon="13.3583621"><ele>626.0</ele><time>2026-04-26T13:42:18.195Z</time></trkpt><trkpt lat="42.3600144" lon="13.3581818"><ele>626.25</ele><time>2026-04-26T13:42:19.195Z</time></trkpt><trkpt lat="42.3600399" lon="13.3579962"><ele>626.5</ele><time>2026-04-26T13:42:20.195Z</time></trkpt><trkpt lat="42.3600562" lon="13.3578087"><ele>626.75</ele><time>2026-04-26T13:42:21.195Z</time></trkpt><trkpt lat="42.3600682" lon="13.3576161"><ele>627.0</ele><time>2026-04-26T13:42:22.195Z</time></trkpt><trkpt lat="42.3600662" lon="13.3574131"><ele>627.0</ele><time>2026-04-26T13:42:23.195Z</time></trkpt><trkpt lat="42.3600566" lon="13.3572177"><ele>627.0</ele><time>2026-04-26T13:42:24.196Z</time></trkpt><trkpt lat="42.3600383" lon="13.3570236"><ele>627.0</ele><time>2026-04-26T13:42:25.195Z</time></trkpt><trkpt lat="42.3600092" lon="13.3568388"><ele>627.0</ele><time>2026-04-26T13:42:26.195Z</time></trkpt><trkpt lat="42.3599718" lon="13.3566673"><ele>626.75</ele><time>2026-04-26T13:42:27.195Z</time></trkpt><trkpt lat="42.3599299" lon="13.356506"><ele>626.5</ele><time>2026-04-26T13:42:28.195Z</time></trkpt><trkpt lat="42.3598804" lon="13.3563302"><ele>626.25</ele><time>2026-04-26T13:42:29.196Z</time></trkpt><trkpt lat="42.3598229" lon="13.3561453"><ele>626.0</ele><time>2026-04-26T13:42:30.195Z</time></trkpt><trkpt lat="42.3597622" lon="13.3559509"><ele>626.0</ele><time>2026-04-26T13:42:31.195Z</time></trkpt><trkpt lat="42.3597031" lon="13.3557464"><ele>626.0</ele><time>2026-04-26T13:42:32.195Z</time></trkpt><trkpt lat="42.3596482" lon="13.3555532"><ele>626.0</ele><time>2026-04-26T13:42:33.195Z</time></trkpt><trkpt lat="42.3595977" lon="13.3553669"><ele>626.5</ele><time>2026-04-26T13:42:34.195Z</time></trkpt><trkpt lat="42.3595498" lon="13.3551846"><ele>627.0</ele><time>2026-04-26T13:42:35.195Z</time></trkpt><trkpt lat="42.3594956" lon="13.3549885"><ele>627.5</ele><time>2026-04-26T13:42:36.195Z</time></trkpt><trkpt lat="42.3594451" lon="13.3548028"><ele>628.0</ele><time>2026-04-26T13:42:37.195Z</time></trkpt><trkpt lat="42.3593961" lon="13.3546174"><ele>628.0</ele><time>2026-04-26T13:42:38.195Z</time></trkpt><trkpt lat="42.3593501" lon="13.3544371"><ele>628.0</ele><time>2026-04-26T13:42:39.195Z</time></trkpt><trkpt lat="42.3593038" lon="13.3542651"><ele>628.0</ele><time>2026-04-26T13:42:40.196Z</time></trkpt><trkpt lat="42.3592625" lon="13.354108"><ele>628.0</ele><time>2026-04-26T13:42:41.195Z</time></trkpt><trkpt lat="42.3592252" lon="13.3539502"><ele>628.5</ele><time>2026-04-26T13:42:42.196Z</time></trkpt><trkpt lat="42.3591931" lon="13.3537915"><ele>629.0</ele><time>2026-04-26T13:42:43.195Z</time></trkpt><trkpt lat="42.3591524" lon="13.3536319"><ele>629.5</ele><time>2026-04-26T13:42:44.196Z</time></trkpt><trkpt lat="42.3591127" lon="13.3534904"><ele>630.0</ele><time>2026-04-26T13:42:45.195Z</time></trkpt><trkpt lat="42.3590669" lon="13.3533646"><ele>630.0</ele><time>2026-04-26T13:42:46.195Z</time></trkpt><trkpt lat="42.3590246" lon="13.3532496"><ele>630.0</ele><time>2026-04-26T13:42:47.195Z</time></trkpt><trkpt lat="42.358995" lon="13.3531571"><ele>630.0</ele><time>2026-04-26T13:42:48.196Z</time></trkpt><trkpt lat="42.3589732" lon="13.3530729"><ele>630.0</ele><time>2026-04-26T13:42:49.196Z</time></trkpt><trkpt lat="42.3589938" lon="13.3529173"><ele>630.0</ele><time>2026-04-26T13:42:51.195Z</time></trkpt><trkpt lat="42.3590138" lon="13.3528343"><ele>630.0</ele><time>2026-04-26T13:42:52.195Z</time></trkpt><trkpt lat="42.3590429" lon="13.3527491"><ele>630.0</ele><time>2026-04-26T13:42:53.195Z</time></trkpt><trkpt lat="42.3590817" lon="13.3526598"><ele>630.0</ele><time>2026-04-26T13:42:54.195Z</time></trkpt><trkpt lat="42.3591263" lon="13.3525577"><ele>630.0</ele><time>2026-04-26T13:42:55.196Z</time></trkpt><trkpt lat="42.3591569" lon="13.3524464"><ele>630.0</ele><time>2026-04-26T13:42:56.196Z</time></trkpt><trkpt lat="42.3591659" lon="13.3523363"><ele>630.0</ele><time>2026-04-26T13:42:57.195Z</time></trkpt><trkpt lat="42.3591488" lon="13.3522355"><ele>630.0</ele><time>2026-04-26T13:42:58.195Z</time></trkpt><trkpt lat="42.3591042" lon="13.3521543"><ele>630.0</ele><time>2026-04-26T13:42:59.196Z</time></trkpt><trkpt lat="42.3590189" lon="13.3521102"><ele>630.0</ele><time>2026-04-26T13:43:00.195Z</time></trkpt><trkpt lat="42.3589326" lon="13.3520444"><ele>630.0</ele><time>2026-04-26T13:43:01.195Z</time></trkpt><trkpt lat="42.3588238" lon="13.35197"><ele>630.0</ele><time>2026-04-26T13:43:02.196Z</time></trkpt><trkpt lat="42.3587246" lon="13.3518578"><ele>630.0</ele><time>2026-04-26T13:43:03.195Z</time></trkpt><trkpt lat="42.358629" lon="13.3517239"><ele>629.75</ele><time>2026-04-26T13:43:04.196Z</time></trkpt><trkpt lat="42.3585428" lon="13.3515671"><ele>629.5</ele><time>2026-04-26T13:43:05.195Z</time></trkpt><trkpt lat="42.3584518" lon="13.3514132"><ele>629.25</ele><time>2026-04-26T13:43:06.195Z</time></trkpt><trkpt lat="42.3583638" lon="13.3512663"><ele>629.0</ele><time>2026-04-26T13:43:07.196Z</time></trkpt><trkpt lat="42.3582718" lon="13.3511197"><ele>629.0</ele><time>2026-04-26T13:43:08.195Z</time></trkpt><trkpt lat="42.3581827" lon="13.3509809"><ele>629.0</ele><time>2026-04-26T13:43:09.195Z</time></trkpt><trkpt lat="42.3580949" lon="13.350854"><ele>629.0</ele><time>2026-04-26T13:43:10.195Z</time></trkpt><trkpt lat="42.3580073" lon="13.3507323"><ele>629.0</ele><time>2026-04-26T13:43:11.195Z</time></trkpt><trkpt lat="42.3579249" lon="13.3506188"><ele>630.0</ele><time>2026-04-26T13:43:12.195Z</time></trkpt><trkpt lat="42.357848" lon="13.3505029"><ele>631.0</ele><time>2026-04-26T13:43:13.195Z</time></trkpt><trkpt lat="42.35777" lon="13.3503939"><ele>632.0</ele><time>2026-04-26T13:43:14.196Z</time></trkpt><trkpt lat="42.3576955" lon="13.3502895"><ele>633.0</ele><time>2026-04-26T13:43:15.195Z</time></trkpt><trkpt lat="42.3576263" lon="13.3501728"><ele>634.0</ele><time>2026-04-26T13:43:16.195Z</time></trkpt><trkpt lat="42.3575682" lon="13.350047"><ele>634.0</ele><time>2026-04-26T13:43:17.195Z</time></trkpt><trkpt lat="42.3575242" lon="13.3499133"><ele>634.0</ele><time>2026-04-26T13:43:18.195Z</time></trkpt><trkpt lat="42.3574889" lon="13.349775"><ele>634.0</ele><time>2026-04-26T13:43:19.196Z</time></trkpt><trkpt lat="42.3574381" lon="13.3496473"><ele>634.0</ele><time>2026-04-26T13:43:20.195Z</time></trkpt><trkpt lat="42.3573693" lon="13.3495378"><ele>634.0</ele><time>2026-04-26T13:43:21.195Z</time></trkpt><trkpt lat="42.3572866" lon="13.3494352"><ele>634.0</ele><time>2026-04-26T13:43:22.196Z</time></trkpt><trkpt lat="42.3571963" lon="13.3493201"><ele>634.0</ele><time>2026-04-26T13:43:23.195Z</time></trkpt><trkpt lat="42.3571023" lon="13.349191"><ele>634.0</ele><time>2026-04-26T13:43:24.195Z</time></trkpt><trkpt lat="42.3570244" lon="13.3490255"><ele>634.0</ele><time>2026-04-26T13:43:25.195Z</time></trkpt><trkpt lat="42.3569444" lon="13.3488346"><ele>634.0</ele><time>2026-04-26T13:43:26.195Z</time></trkpt><trkpt lat="42.3568608" lon="13.3486116"><ele>634.0</ele><time>2026-04-26T13:43:27.195Z</time></trkpt><trkpt lat="42.356775" lon="13.3483536"><ele>634.0</ele><time>2026-04-26T13:43:28.195Z</time></trkpt><trkpt lat="42.3567101" lon="13.3480621"><ele>635.0</ele><time>2026-04-26T13:43:29.195Z</time></trkpt><trkpt lat="42.3566378" lon="13.3478035"><ele>636.0</ele><time>2026-04-26T13:43:30.195Z</time></trkpt><trkpt lat="42.3565798" lon="13.3475481"><ele>637.0</ele><time>2026-04-26T13:43:31.196Z</time></trkpt><trkpt lat="42.3565329" lon="13.3473102"><ele>637.75</ele><time>2026-04-26T13:43:32.195Z</time></trkpt><trkpt lat="42.3564917" lon="13.3470999"><ele>638.5</ele><time>2026-04-26T13:43:33.195Z</time></trkpt><trkpt lat="42.3564531" lon="13.3469141"><ele>639.25</ele><time>2026-04-26T13:43:34.195Z</time></trkpt><trkpt lat="42.3564172" lon="13.346756"><ele>640.0</ele><time>2026-04-26T13:43:35.195Z</time></trkpt><trkpt lat="42.3563921" lon="13.3466186"><ele>638.4</ele><time>2026-04-26T13:43:36.195Z</time></trkpt><trkpt lat="42.3563654" lon="13.3465001"><ele>636.8</ele><time>2026-04-26T13:43:37.195Z</time></trkpt><trkpt lat="42.3563361" lon="13.3463685"><ele>635.2</ele><time>2026-04-26T13:43:38.196Z</time></trkpt><trkpt lat="42.3563014" lon="13.3462301"><ele>633.6</ele><time>2026-04-26T13:43:39.195Z</time></trkpt><trkpt lat="42.3562619" lon="13.3460798"><ele>632.0</ele><time>2026-04-26T13:43:40.195Z</time></trkpt><trkpt lat="42.3562156" lon="13.3459046"><ele>632.0</ele><time>2026-04-26T13:43:41.195Z</time></trkpt><trkpt lat="42.3561607" lon="13.345699"><ele>632.0</ele><time>2026-04-26T13:43:42.196Z</time></trkpt><trkpt lat="42.3561005" lon="13.3454508"><ele>632.0</ele><time>2026-04-26T13:43:43.195Z</time></trkpt><trkpt lat="42.3560402" lon="13.345151"><ele>632.0</ele><time>2026-04-26T13:43:44.195Z</time></trkpt><trkpt lat="42.3559688" lon="13.3448502"><ele>632.0</ele><time>2026-04-26T13:43:45.195Z</time></trkpt><trkpt lat="42.3559038" lon="13.3445568"><ele>633.0</ele><time>2026-04-26T13:43:46.195Z</time></trkpt><trkpt lat="42.3558448" lon="13.3442701"><ele>634.0</ele><time>2026-04-26T13:43:47.196Z</time></trkpt><trkpt lat="42.3558019" lon="13.3439801"><ele>635.0</ele><time>2026-04-26T13:43:48.196Z</time></trkpt><trkpt lat="42.355785" lon="13.3436894"><ele>636.5</ele><time>2026-04-26T13:43:49.195Z</time></trkpt><trkpt lat="42.355796" lon="13.3433884"><ele>638.0</ele><time>2026-04-26T13:43:50.195Z</time></trkpt><trkpt lat="42.3558302" lon="13.3430839"><ele>637.5</ele><time>2026-04-26T13:43:51.196Z</time></trkpt><trkpt lat="42.3558848" lon="13.3427793"><ele>637.0</ele><time>2026-04-26T13:43:52.195Z</time></trkpt><trkpt lat="42.3559424" lon="13.3424763"><ele>638.0</ele><time>2026-04-26T13:43:53.195Z</time></trkpt><trkpt lat="42.3560052" lon="13.3421738"><ele>639.0</ele><time>2026-04-26T13:43:54.195Z</time></trkpt><trkpt lat="42.3560671" lon="13.3418769"><ele>639.0</ele><time>2026-04-26T13:43:55.195Z</time></trkpt><trkpt lat="42.3561244" lon="13.3415837"><ele>639.0</ele><time>2026-04-26T13:43:56.195Z</time></trkpt><trkpt lat="42.3561814" lon="13.3412964"><ele>639.0</ele><time>2026-04-26T13:43:57.195Z</time></trkpt><trkpt lat="42.356238" lon="13.3410108"><ele>639.0</ele><time>2026-04-26T13:43:58.195Z</time></trkpt><trkpt lat="42.3562918" lon="13.3407274"><ele>639.0</ele><time>2026-04-26T13:43:59.195Z</time></trkpt><trkpt lat="42.3563428" lon="13.3404582"><ele>639.0</ele><time>2026-04-26T13:44:00.196Z</time></trkpt><trkpt lat="42.3563888" lon="13.3402147"><ele>640.3333333333334</ele><time>2026-04-26T13:44:01.196Z</time></trkpt><trkpt lat="42.3564316" lon="13.3399907"><ele>641.6666666666667</ele><time>2026-04-26T13:44:02.195Z</time></trkpt><trkpt lat="42.3564712" lon="13.3397771"><ele>643.0</ele><time>2026-04-26T13:44:03.195Z</time></trkpt><trkpt lat="42.3565166" lon="13.3395706"><ele>643.0</ele><time>2026-04-26T13:44:04.196Z</time></trkpt><trkpt lat="42.3565727" lon="13.3393633"><ele>643.0</ele><time>2026-04-26T13:44:05.195Z</time></trkpt><trkpt lat="42.3566244" lon="13.3391493"><ele>643.0</ele><time>2026-04-26T13:44:06.195Z</time></trkpt><trkpt lat="42.3566797" lon="13.3389268"><ele>643.3333333333334</ele><time>2026-04-26T13:44:07.196Z</time></trkpt><trkpt lat="42.3567292" lon="13.3386906"><ele>643.6666666666666</ele><time>2026-04-26T13:44:08.196Z</time></trkpt><trkpt lat="42.3567774" lon="13.3384471"><ele>644.0</ele><time>2026-04-26T13:44:09.196Z</time></trkpt><trkpt lat="42.3568288" lon="13.3382055"><ele>643.3333333333333</ele><time>2026-04-26T13:44:10.195Z</time></trkpt><trkpt lat="42.3568815" lon="13.3379659"><ele>642.6666666666666</ele><time>2026-04-26T13:44:11.196Z</time></trkpt><trkpt lat="42.3569316" lon="13.3377344"><ele>642.0</ele><time>2026-04-26T13:44:12.195Z</time></trkpt><trkpt lat="42.3569777" lon="13.3375142"><ele>642.0</ele><time>2026-04-26T13:44:13.196Z</time></trkpt><trkpt lat="42.357015" lon="13.3373061"><ele>642.0</ele><time>2026-04-26T13:44:14.195Z</time></trkpt><trkpt lat="42.3570559" lon="13.3371107"><ele>642.0</ele><time>2026-04-26T13:44:15.196Z</time></trkpt><trkpt lat="42.3571037" lon="13.336934"><ele>642.0</ele><time>2026-04-26T13:44:16.195Z</time></trkpt><trkpt lat="42.3571515" lon="13.3367831"><ele>641.8333333333334</ele><time>2026-04-26T13:44:17.195Z</time></trkpt><trkpt lat="42.3571898" lon="13.3366741"><ele>641.6666666666666</ele><time>2026-04-26T13:44:18.196Z</time></trkpt><trkpt lat="42.3572158" lon="13.3365796"><ele>641.5</ele><time>2026-04-26T13:44:20.195Z</time></trkpt><trkpt lat="42.3572055" lon="13.3364916"><ele>641.3333333333333</ele><time>2026-04-26T13:44:24.203Z</time></trkpt><trkpt lat="42.3571415" lon="13.3363978"><ele>641.1666666666666</ele><time>2026-04-26T13:44:26.204Z</time></trkpt><trkpt lat="42.3570746" lon="13.3363469"><ele>641.0</ele><time>2026-04-26T13:44:27.204Z</time></trkpt><trkpt lat="42.356997" lon="13.3362892"><ele>640.25</ele><time>2026-04-26T13:44:28.204Z</time></trkpt><trkpt lat="42.3569096" lon="13.3362181"><ele>639.5</ele><time>2026-04-26T13:44:29.203Z</time></trkpt><trkpt lat="42.3568147" lon="13.336128"><ele>638.75</ele><time>2026-04-26T13:44:30.203Z</time></trkpt><trkpt lat="42.3567067" lon="13.3360244"><ele>638.0</ele><time>2026-04-26T13:44:31.203Z</time></trkpt><trkpt lat="42.3565822" lon="13.3359077"><ele>638.0</ele><time>2026-04-26T13:44:32.204Z</time></trkpt><trkpt lat="42.3564558" lon="13.3357949"><ele>638.0</ele><time>2026-04-26T13:44:33.204Z</time></trkpt><trkpt lat="42.356343" lon="13.3356947"><ele>638.0</ele><time>2026-04-26T13:44:34.203Z</time></trkpt><trkpt lat="42.3562402" lon="13.3356069"><ele>638.0</ele><time>2026-04-26T13:44:35.203Z</time></trkpt><trkpt lat="42.3561516" lon="13.3355274"><ele>638.8</ele><time>2026-04-26T13:44:36.204Z</time></trkpt><trkpt lat="42.3560796" lon="13.3354673"><ele>639.5999999999999</ele><time>2026-04-26T13:44:37.203Z</time></trkpt><trkpt lat="42.3560196" lon="13.3354023"><ele>640.4000000000001</ele><time>2026-04-26T13:44:38.203Z</time></trkpt><trkpt lat="42.3559623" lon="13.3353174"><ele>641.2</ele><time>2026-04-26T13:44:39.203Z</time></trkpt><trkpt lat="42.3559014" lon="13.3352099"><ele>642.0</ele><time>2026-04-26T13:44:40.203Z</time></trkpt><trkpt lat="42.3558408" lon="13.3350841"><ele>642.0</ele><time>2026-04-26T13:44:41.203Z</time></trkpt><trkpt lat="42.3557851" lon="13.3349717"><ele>642.0</ele><time>2026-04-26T13:44:42.203Z</time></trkpt><trkpt lat="42.3557426" lon="13.3348505"><ele>642.0</ele><time>2026-04-26T13:44:43.203Z</time></trkpt><trkpt lat="42.3557125" lon="13.3347083"><ele>642.0</ele><time>2026-04-26T13:44:44.204Z</time></trkpt><trkpt lat="42.3556893" lon="13.3345621"><ele>642.0</ele><time>2026-04-26T13:44:45.203Z</time></trkpt><trkpt lat="42.3556777" lon="13.3344085"><ele>643.0</ele><time>2026-04-26T13:44:46.204Z</time></trkpt><trkpt lat="42.3556756" lon="13.3342564"><ele>644.0</ele><time>2026-04-26T13:44:47.203Z</time></trkpt><trkpt lat="42.35568" lon="13.3340926"><ele>645.0</ele><time>2026-04-26T13:44:48.203Z</time></trkpt><trkpt lat="42.3556853" lon="13.3338985"><ele>646.0</ele><time>2026-04-26T13:44:49.204Z</time></trkpt><trkpt lat="42.3556949" lon="13.3336728"><ele>646.3333333333334</ele><time>2026-04-26T13:44:50.204Z</time></trkpt><trkpt lat="42.3557125" lon="13.333416"><ele>646.6666666666666</ele><time>2026-04-26T13:44:51.203Z</time></trkpt><trkpt lat="42.355735" lon="13.3331397"><ele>647.0</ele><time>2026-04-26T13:44:52.203Z</time></trkpt><trkpt lat="42.355754" lon="13.3328347"><ele>647.5</ele><time>2026-04-26T13:44:53.204Z</time></trkpt><trkpt lat="42.3557666" lon="13.3325128"><ele>648.0</ele><time>2026-04-26T13:44:54.203Z</time></trkpt><trkpt lat="42.3557794" lon="13.3322067"><ele>649.3333333333334</ele><time>2026-04-26T13:44:55.203Z</time></trkpt><trkpt lat="42.3557944" lon="13.3319207"><ele>650.6666666666667</ele><time>2026-04-26T13:44:56.203Z</time></trkpt><trkpt lat="42.3558091" lon="13.3316514"><ele>652.0</ele><time>2026-04-26T13:44:57.203Z</time></trkpt><trkpt lat="42.3558214" lon="13.3313986"><ele>652.3333333333334</ele><time>2026-04-26T13:44:58.203Z</time></trkpt><trkpt lat="42.3558411" lon="13.3311799"><ele>652.6666666666666</ele><time>2026-04-26T13:44:59.203Z</time></trkpt><trkpt lat="42.3558605" lon="13.3309805"><ele>653.0</ele><time>2026-04-26T13:45:00.203Z</time></trkpt><trkpt lat="42.3558842" lon="13.3307743"><ele>652.6666666666666</ele><time>2026-04-26T13:45:01.203Z</time></trkpt><trkpt lat="42.355919" lon="13.3305246"><ele>652.3333333333334</ele><time>2026-04-26T13:45:02.203Z</time></trkpt><trkpt lat="42.3559651" lon="13.3302408"><ele>652.0</ele><time>2026-04-26T13:45:03.203Z</time></trkpt><trkpt lat="42.3560234" lon="13.3299574"><ele>651.3333333333334</ele><time>2026-04-26T13:45:04.204Z</time></trkpt><trkpt lat="42.3560677" lon="13.3296958"><ele>650.6666666666666</ele><time>2026-04-26T13:45:05.204Z</time></trkpt><trkpt lat="42.3561097" lon="13.329456"><ele>650.0</ele><time>2026-04-26T13:45:06.203Z</time></trkpt><trkpt lat="42.3561312" lon="13.3292386"><ele>650.0</ele><time>2026-04-26T13:45:07.203Z</time></trkpt><trkpt lat="42.356138" lon="13.3290179"><ele>650.0</ele><time>2026-04-26T13:45:08.203Z</time></trkpt><trkpt lat="42.3561027" lon="13.3288116"><ele>650.0</ele><time>2026-04-26T13:45:09.203Z</time></trkpt><trkpt lat="42.3560256" lon="13.328604"><ele>650.6666666666666</ele><time>2026-04-26T13:45:10.203Z</time></trkpt><trkpt lat="42.3559081" lon="13.3284034"><ele>651.3333333333334</ele><time>2026-04-26T13:45:11.203Z</time></trkpt><trkpt lat="42.3557728" lon="13.3281878"><ele>652.0</ele><time>2026-04-26T13:45:12.203Z</time></trkpt><trkpt lat="42.355632" lon="13.3279414"><ele>653.0</ele><time>2026-04-26T13:45:13.204Z</time></trkpt><trkpt lat="42.3554948" lon="13.3276948"><ele>654.0</ele><time>2026-04-26T13:45:14.204Z</time></trkpt><trkpt lat="42.3553546" lon="13.3274416"><ele>654.5</ele><time>2026-04-26T13:45:15.204Z</time></trkpt><trkpt lat="42.3552177" lon="13.3271981"><ele>655.0</ele><time>2026-04-26T13:45:16.203Z</time></trkpt><trkpt lat="42.3550747" lon="13.3269639"><ele>655.0</ele><time>2026-04-26T13:45:17.204Z</time></trkpt><trkpt lat="42.35494" lon="13.3267333"><ele>655.0</ele><time>2026-04-26T13:45:18.204Z</time></trkpt><trkpt lat="42.3548264" lon="13.3265155"><ele>655.0</ele><time>2026-04-26T13:45:19.203Z</time></trkpt><trkpt lat="42.3547238" lon="13.3263064"><ele>655.0</ele><time>2026-04-26T13:45:20.204Z</time></trkpt><trkpt lat="42.3546319" lon="13.3261132"><ele>655.0</ele><time>2026-04-26T13:45:21.204Z</time></trkpt><trkpt lat="42.3545487" lon="13.3259288"><ele>655.0</ele><time>2026-04-26T13:45:22.203Z</time></trkpt><trkpt lat="42.3544662" lon="13.3257605"><ele>655.0</ele><time>2026-04-26T13:45:23.203Z</time></trkpt><trkpt lat="42.3543859" lon="13.3256043"><ele>655.0</ele><time>2026-04-26T13:45:24.203Z</time></trkpt><trkpt lat="42.35431" lon="13.3254573"><ele>655.0</ele><time>2026-04-26T13:45:25.203Z</time></trkpt><trkpt lat="42.3542419" lon="13.325313"><ele>655.0</ele><time>2026-04-26T13:45:26.204Z</time></trkpt><trkpt lat="42.3541901" lon="13.3251733"><ele>655.4</ele><time>2026-04-26T13:45:27.203Z</time></trkpt><trkpt lat="42.354135" lon="13.325054"><ele>655.8</ele><time>2026-04-26T13:45:28.203Z</time></trkpt><trkpt lat="42.3540977" lon="13.3249515"><ele>656.2</ele><time>2026-04-26T13:45:29.203Z</time></trkpt><trkpt lat="42.3540529" lon="13.324854"><ele>656.6</ele><time>2026-04-26T13:45:30.203Z</time></trkpt><trkpt lat="42.3540135" lon="13.3247564"><ele>657.0</ele><time>2026-04-26T13:45:31.203Z</time></trkpt><trkpt lat="42.353958" lon="13.3246047"><ele>658.0</ele><time>2026-04-26T13:45:32.203Z</time></trkpt><trkpt lat="42.3539013" lon="13.3244339"><ele>659.0</ele><time>2026-04-26T13:45:33.203Z</time></trkpt><trkpt lat="42.3538422" lon="13.3242528"><ele>660.0</ele><time>2026-04-26T13:45:34.203Z</time></trkpt><trkpt lat="42.3537787" lon="13.3240631"><ele>661.0</ele><time>2026-04-26T13:45:35.203Z</time></trkpt><trkpt lat="42.35371" lon="13.3238733"><ele>661.25</ele><time>2026-04-26T13:45:36.203Z</time></trkpt><trkpt lat="42.353639" lon="13.3236893"><ele>661.5</ele><time>2026-04-26T13:45:37.203Z</time></trkpt><trkpt lat="42.3535647" lon="13.3235098"><ele>661.75</ele><time>2026-04-26T13:45:38.203Z</time></trkpt><trkpt lat="42.3535029" lon="13.3233526"><ele>662.0</ele><time>2026-04-26T13:45:39.203Z</time></trkpt><trkpt lat="42.3534484" lon="13.3232219"><ele>662.0</ele><time>2026-04-26T13:45:40.203Z</time></trkpt><trkpt lat="42.3534323" lon="13.3231366"><ele>662.0</ele><time>2026-04-26T13:45:41.203Z</time></trkpt><trkpt lat="42.3533889" lon="13.322995"><ele>662.0</ele><time>2026-04-26T13:45:43.203Z</time></trkpt><trkpt lat="42.3533442" lon="13.3228493"><ele>662.0</ele><time>2026-04-26T13:45:45.203Z</time></trkpt><trkpt lat="42.3532349" lon="13.3227829"><ele>662.0</ele><time>2026-04-26T13:45:47.203Z</time></trkpt><trkpt lat="42.3531529" lon="13.3227929"><ele>662.75</ele><time>2026-04-26T13:45:48.203Z</time></trkpt><trkpt lat="42.353058" lon="13.3227932"><ele>663.5</ele><time>2026-04-26T13:45:49.203Z</time></trkpt><trkpt lat="42.3529454" lon="13.3227753"><ele>664.25</ele><time>2026-04-26T13:45:50.203Z</time></trkpt><trkpt lat="42.3528084" lon="13.3227457"><ele>665.0</ele><time>2026-04-26T13:45:51.203Z</time></trkpt><trkpt lat="42.3526577" lon="13.3227058"><ele>665.6666666666666</ele><time>2026-04-26T13:45:52.204Z</time></trkpt><trkpt lat="42.3524933" lon="13.322654"><ele>666.3333333333334</ele><time>2026-04-26T13:45:53.203Z</time></trkpt><trkpt lat="42.3523207" lon="13.3225773"><ele>667.0</ele><time>2026-04-26T13:45:54.203Z</time></trkpt><trkpt lat="42.3521566" lon="13.3224836"><ele>667.6666666666667</ele><time>2026-04-26T13:45:55.203Z</time></trkpt><trkpt lat="42.352004" lon="13.3223721"><ele>668.3333333333334</ele><time>2026-04-26T13:45:56.203Z</time></trkpt><trkpt lat="42.3518556" lon="13.3222434"><ele>669.0</ele><time>2026-04-26T13:45:57.203Z</time></trkpt><trkpt lat="42.3517101" lon="13.3220953"><ele>670.3333333333334</ele><time>2026-04-26T13:45:58.203Z</time></trkpt><trkpt lat="42.3515624" lon="13.3219278"><ele>671.6666666666667</ele><time>2026-04-26T13:45:59.203Z</time></trkpt><trkpt lat="42.3514183" lon="13.3217406"><ele>673.0</ele><time>2026-04-26T13:46:00.203Z</time></trkpt><trkpt lat="42.3512777" lon="13.3215548"><ele>675.0</ele><time>2026-04-26T13:46:01.203Z</time></trkpt><trkpt lat="42.3511375" lon="13.3213708"><ele>677.0</ele><time>2026-04-26T13:46:02.203Z</time></trkpt><trkpt lat="42.3510036" lon="13.3211793"><ele>679.0</ele><time>2026-04-26T13:46:03.203Z</time></trkpt><trkpt lat="42.3508823" lon="13.3209744"><ele>679.0</ele><time>2026-04-26T13:46:04.203Z</time></trkpt><trkpt lat="42.350777" lon="13.3207513"><ele>679.0</ele><time>2026-04-26T13:46:05.203Z</time></trkpt><trkpt lat="42.3506876" lon="13.320512"><ele>679.0</ele><time>2026-04-26T13:46:06.203Z</time></trkpt><trkpt lat="42.3506253" lon="13.3202772"><ele>679.0</ele><time>2026-04-26T13:46:07.203Z</time></trkpt><trkpt lat="42.350576" lon="13.3200576"><ele>679.0</ele><time>2026-04-26T13:46:08.203Z</time></trkpt><trkpt lat="42.3505136" lon="13.3198618"><ele>679.0</ele><time>2026-04-26T13:46:09.203Z</time></trkpt><trkpt lat="42.3504129" lon="13.3196936"><ele>680.6666666666667</ele><time>2026-04-26T13:46:10.203Z</time></trkpt><trkpt lat="42.3502703" lon="13.3195491"><ele>682.3333333333334</ele><time>2026-04-26T13:46:11.203Z</time></trkpt><trkpt lat="42.3500914" lon="13.3194075"><ele>684.0</ele><time>2026-04-26T13:46:12.203Z</time></trkpt><trkpt lat="42.3498947" lon="13.3192575"><ele>685.0</ele><time>2026-04-26T13:46:13.204Z</time></trkpt><trkpt lat="42.349683" lon="13.319101"><ele>686.0</ele><time>2026-04-26T13:46:14.204Z</time></trkpt><trkpt lat="42.3494738" lon="13.3189547"><ele>693.0</ele><time>2026-04-26T13:46:15.203Z</time></trkpt><trkpt lat="42.3492653" lon="13.3188267"><ele>700.0</ele><time>2026-04-26T13:46:16.203Z</time></trkpt><trkpt lat="42.3490484" lon="13.3187254"><ele>701.5</ele><time>2026-04-26T13:46:17.203Z</time></trkpt><trkpt lat="42.3488268" lon="13.31866"><ele>703.0</ele><time>2026-04-26T13:46:18.203Z</time></trkpt><trkpt lat="42.3486037" lon="13.3186229"><ele>703.0</ele><time>2026-04-26T13:46:19.202Z</time></trkpt><trkpt lat="42.3483844" lon="13.3186219"><ele>703.0</ele><time>2026-04-26T13:46:20.202Z</time></trkpt><trkpt lat="42.3481704" lon="13.3186525"><ele>703.0</ele><time>2026-04-26T13:46:21.202Z</time></trkpt><trkpt lat="42.3479699" lon="13.3186877"><ele>701.6666666666667</ele><time>2026-04-26T13:46:22.202Z</time></trkpt><trkpt lat="42.3477909" lon="13.3187056"><ele>700.3333333333334</ele><time>2026-04-26T13:46:23.202Z</time></trkpt><trkpt lat="42.3476413" lon="13.3186907"><ele>699.0</ele><time>2026-04-26T13:46:24.202Z</time></trkpt><trkpt lat="42.3475154" lon="13.3186253"><ele>699.0</ele><time>2026-04-26T13:46:25.202Z</time></trkpt><trkpt lat="42.3474206" lon="13.3184853"><ele>699.0</ele><time>2026-04-26T13:46:26.203Z</time></trkpt><trkpt lat="42.347347" lon="13.3182791"><ele>699.0</ele><time>2026-04-26T13:46:27.202Z</time></trkpt><trkpt lat="42.3472866" lon="13.3180315"><ele>699.0</ele><time>2026-04-26T13:46:28.203Z</time></trkpt><trkpt lat="42.3472253" lon="13.3177915"><ele>699.0</ele><time>2026-04-26T13:46:29.202Z</time></trkpt><trkpt lat="42.3471502" lon="13.3176098"><ele>699.0</ele><time>2026-04-26T13:46:30.203Z</time></trkpt><trkpt lat="42.3470484" lon="13.3174682"><ele>699.0</ele><time>2026-04-26T13:46:31.202Z</time></trkpt><trkpt lat="42.3469278" lon="13.3173828"><ele>699.0</ele><time>2026-04-26T13:46:32.203Z</time></trkpt><trkpt lat="42.3467673" lon="13.3173572"><ele>699.0</ele><time>2026-04-26T13:46:33.202Z</time></trkpt><trkpt lat="42.346588" lon="13.3173854"><ele>699.0</ele><time>2026-04-26T13:46:34.202Z</time></trkpt><trkpt lat="42.3464426" lon="13.3173529"><ele>699.0</ele><time>2026-04-26T13:46:35.202Z</time></trkpt><trkpt lat="42.346309" lon="13.3172751"><ele>699.0</ele><time>2026-04-26T13:46:36.203Z</time></trkpt><trkpt lat="42.3461526" lon="13.317326"><ele>700.75</ele><time>2026-04-26T13:46:37.202Z</time></trkpt><trkpt lat="42.3460553" lon="13.3172191"><ele>702.5</ele><time>2026-04-26T13:46:38.203Z</time></trkpt><trkpt lat="42.3459357" lon="13.3172201"><ele>704.25</ele><time>2026-04-26T13:46:39.202Z</time></trkpt><trkpt lat="42.3458019" lon="13.3173256"><ele>706.0</ele><time>2026-04-26T13:46:40.202Z</time></trkpt><trkpt lat="42.3456674" lon="13.3174789"><ele>706.0</ele><time>2026-04-26T13:46:41.202Z</time></trkpt><trkpt lat="42.3455752" lon="13.3176397"><ele>706.0</ele><time>2026-04-26T13:46:42.202Z</time></trkpt><trkpt lat="42.345513" lon="13.3178211"><ele>706.0</ele><time>2026-04-26T13:46:43.202Z</time></trkpt><trkpt lat="42.345482" lon="13.3179979"><ele>706.0</ele><time>2026-04-26T13:46:44.202Z</time></trkpt><trkpt lat="42.3454145" lon="13.3181297"><ele>708.25</ele><time>2026-04-26T13:46:45.202Z</time></trkpt><trkpt lat="42.3453165" lon="13.3182489"><ele>710.5</ele><time>2026-04-26T13:46:46.202Z</time></trkpt><trkpt lat="42.34519" lon="13.3183441"><ele>712.75</ele><time>2026-04-26T13:46:47.203Z</time></trkpt><trkpt lat="42.3450693" lon="13.3184658"><ele>715.0</ele><time>2026-04-26T13:46:48.203Z</time></trkpt><trkpt lat="42.3449646" lon="13.3186323"><ele>715.0</ele><time>2026-04-26T13:46:49.202Z</time></trkpt><trkpt lat="42.3448876" lon="13.3188303"><ele>715.0</ele><time>2026-04-26T13:46:50.203Z</time></trkpt><trkpt lat="42.3448148" lon="13.3190063"><ele>715.0</ele><time>2026-04-26T13:46:51.202Z</time></trkpt><trkpt lat="42.3447238" lon="13.3190911"><ele>715.0</ele><time>2026-04-26T13:46:52.203Z</time></trkpt><trkpt lat="42.3445635" lon="13.3191667"><ele>716.5</ele><time>2026-04-26T13:46:53.203Z</time></trkpt><trkpt lat="42.3444206" lon="13.3191927"><ele>718.0</ele><time>2026-04-26T13:46:54.202Z</time></trkpt><trkpt lat="42.3442635" lon="13.3191945"><ele>719.5</ele><time>2026-04-26T13:46:55.202Z</time></trkpt><trkpt lat="42.3441293" lon="13.3192076"><ele>721.0</ele><time>2026-04-26T13:46:56.202Z</time></trkpt><trkpt lat="42.3440089" lon="13.3192627"><ele>721.0</ele><time>2026-04-26T13:46:57.203Z</time></trkpt><trkpt lat="42.3438945" lon="13.3193463"><ele>721.0</ele><time>2026-04-26T13:46:58.203Z</time></trkpt><trkpt lat="42.3438009" lon="13.3194866"><ele>721.0</ele><time>2026-04-26T13:46:59.202Z</time></trkpt><trkpt lat="42.3437382" lon="13.3196614"><ele>721.0</ele><time>2026-04-26T13:47:00.202Z</time></trkpt><trkpt lat="42.3436753" lon="13.3198129"><ele>720.75</ele><time>2026-04-26T13:47:01.202Z</time></trkpt><trkpt lat="42.3436039" lon="13.3199149"><ele>720.5</ele><time>2026-04-26T13:47:02.202Z</time></trkpt><trkpt lat="42.3434909" lon="13.3199494"><ele>720.25</ele><time>2026-04-26T13:47:03.202Z</time></trkpt><trkpt lat="42.3433615" lon="13.3199647"><ele>720.0</ele><time>2026-04-26T13:47:04.202Z</time></trkpt><trkpt lat="42.3431879" lon="13.3199363"><ele>720.5</ele><time>2026-04-26T13:47:05.202Z</time></trkpt><trkpt lat="42.3429772" lon="13.3198845"><ele>721.0</ele><time>2026-04-26T13:47:06.202Z</time></trkpt><trkpt lat="42.3427423" lon="13.3198197"><ele>721.0</ele><time>2026-04-26T13:47:07.202Z</time></trkpt><trkpt lat="42.3425164" lon="13.319779"><ele>721.0</ele><time>2026-04-26T13:47:08.202Z</time></trkpt><trkpt lat="42.3423031" lon="13.3197614"><ele>721.0</ele><time>2026-04-26T13:47:09.202Z</time></trkpt><trkpt lat="42.3420913" lon="13.3197622"><ele>718.6666666666667</ele><time>2026-04-26T13:47:10.202Z</time></trkpt><trkpt lat="42.3418795" lon="13.3197242"><ele>716.3333333333334</ele><time>2026-04-26T13:47:11.202Z</time></trkpt><trkpt lat="42.3416722" lon="13.3196404"><ele>714.0</ele><time>2026-04-26T13:47:12.202Z</time></trkpt><trkpt lat="42.3414529" lon="13.3195751"><ele>714.6666666666666</ele><time>2026-04-26T13:47:13.202Z</time></trkpt><trkpt lat="42.3412386" lon="13.3195426"><ele>715.3333333333333</ele><time>2026-04-26T13:47:14.203Z</time></trkpt><trkpt lat="42.3410288" lon="13.3195278"><ele>716.0</ele><time>2026-04-26T13:47:15.202Z</time></trkpt><trkpt lat="42.3408243" lon="13.3194618"><ele>716.0</ele><time>2026-04-26T13:47:16.202Z</time></trkpt><trkpt lat="42.3406124" lon="13.3193714"><ele>716.0</ele><time>2026-04-26T13:47:17.202Z</time></trkpt><trkpt lat="42.3403891" lon="13.3192465"><ele>719.5</ele><time>2026-04-26T13:47:18.202Z</time></trkpt><trkpt lat="42.34016" lon="13.3191046"><ele>723.0</ele><time>2026-04-26T13:47:19.202Z</time></trkpt><trkpt lat="42.3399412" lon="13.3189819"><ele>721.0</ele><time>2026-04-26T13:47:20.202Z</time></trkpt><trkpt lat="42.3397249" lon="13.318885"><ele>719.0</ele><time>2026-04-26T13:47:21.203Z</time></trkpt><trkpt lat="42.3394976" lon="13.318827"><ele>719.0</ele><time>2026-04-26T13:47:22.202Z</time></trkpt><trkpt lat="42.3392619" lon="13.3187887"><ele>719.0</ele><time>2026-04-26T13:47:23.202Z</time></trkpt><trkpt lat="42.3390189" lon="13.3187654"><ele>720.3333333333333</ele><time>2026-04-26T13:47:24.202Z</time></trkpt><trkpt lat="42.3387985" lon="13.318751"><ele>721.6666666666666</ele><time>2026-04-26T13:47:25.203Z</time></trkpt><trkpt lat="42.3386022" lon="13.3187443"><ele>723.0</ele><time>2026-04-26T13:47:26.203Z</time></trkpt><trkpt lat="42.3384346" lon="13.3187379"><ele>723.0</ele><time>2026-04-26T13:47:27.203Z</time></trkpt><trkpt lat="42.3382846" lon="13.3187586"><ele>723.0</ele><time>2026-04-26T13:47:28.202Z</time></trkpt><trkpt lat="42.3381392" lon="13.318822"><ele>723.0</ele><time>2026-04-26T13:47:29.203Z</time></trkpt><trkpt lat="42.3379907" lon="13.3189116"><ele>724.6666666666666</ele><time>2026-04-26T13:47:30.202Z</time></trkpt><trkpt lat="42.3378427" lon="13.319009"><ele>726.3333333333333</ele><time>2026-04-26T13:47:31.203Z</time></trkpt><trkpt lat="42.3377056" lon="13.3191171"><ele>728.0</ele><time>2026-04-26T13:47:32.202Z</time></trkpt><trkpt lat="42.3375732" lon="13.3192511"><ele>728.0</ele><time>2026-04-26T13:47:33.202Z</time></trkpt><trkpt lat="42.3374567" lon="13.3194013"><ele>728.0</ele><time>2026-04-26T13:47:34.203Z</time></trkpt><trkpt lat="42.3373401" lon="13.3195525"><ele>728.0</ele><time>2026-04-26T13:47:35.202Z</time></trkpt><trkpt lat="42.337223" lon="13.3197"><ele>728.6666666666666</ele><time>2026-04-26T13:47:36.202Z</time></trkpt><trkpt lat="42.3370897" lon="13.3198119"><ele>729.3333333333334</ele><time>2026-04-26T13:47:37.202Z</time></trkpt><trkpt lat="42.3369412" lon="13.3198995"><ele>730.0</ele><time>2026-04-26T13:47:38.202Z</time></trkpt><trkpt lat="42.3367835" lon="13.3199571"><ele>730.0</ele><time>2026-04-26T13:47:39.202Z</time></trkpt><trkpt lat="42.3366111" lon="13.3200258"><ele>730.0</ele><time>2026-04-26T13:47:40.203Z</time></trkpt><trkpt lat="42.3364314" lon="13.3201205"><ele>730.0</ele><time>2026-04-26T13:47:41.202Z</time></trkpt><trkpt lat="42.3362292" lon="13.3202541"><ele>728.0</ele><time>2026-04-26T13:47:42.202Z</time></trkpt><trkpt lat="42.33601" lon="13.320398"><ele>726.0</ele><time>2026-04-26T13:47:43.202Z</time></trkpt><trkpt lat="42.3357405" lon="13.3205509"><ele>730.5</ele><time>2026-04-26T13:47:44.202Z</time></trkpt><trkpt lat="42.3354405" lon="13.3207214"><ele>735.0</ele><time>2026-04-26T13:47:45.202Z</time></trkpt><trkpt lat="42.3351097" lon="13.3209034"><ele>735.0</ele><time>2026-04-26T13:47:46.202Z</time></trkpt><trkpt lat="42.3347987" lon="13.3210685"><ele>735.0</ele><time>2026-04-26T13:47:47.202Z</time></trkpt><trkpt lat="42.33452" lon="13.3212409"><ele>734.5</ele><time>2026-04-26T13:47:48.202Z</time></trkpt><trkpt lat="42.334265" lon="13.3213912"><ele>734.0</ele><time>2026-04-26T13:47:49.202Z</time></trkpt><trkpt lat="42.3340367" lon="13.3215398"><ele>733.0</ele><time>2026-04-26T13:47:50.203Z</time></trkpt><trkpt lat="42.3338132" lon="13.3216635"><ele>732.0</ele><time>2026-04-26T13:47:51.202Z</time></trkpt><trkpt lat="42.3335897" lon="13.3217781"><ele>732.0</ele><time>2026-04-26T13:47:52.203Z</time></trkpt><trkpt lat="42.3333402" lon="13.3218429"><ele>732.0</ele><time>2026-04-26T13:47:53.202Z</time></trkpt><trkpt lat="42.3330737" lon="13.3218925"><ele>734.5</ele><time>2026-04-26T13:47:54.203Z</time></trkpt><trkpt lat="42.3327921" lon="13.321941"><ele>737.0</ele><time>2026-04-26T13:47:55.203Z</time></trkpt><trkpt lat="42.3325034" lon="13.3220008"><ele>737.0</ele><time>2026-04-26T13:47:56.203Z</time></trkpt><trkpt lat="42.3322286" lon="13.322049"><ele>737.0</ele><time>2026-04-26T13:47:57.202Z</time></trkpt><trkpt lat="42.3319754" lon="13.3220958"><ele>738.0</ele><time>2026-04-26T13:47:58.202Z</time></trkpt><trkpt lat="42.3317373" lon="13.3221403"><ele>739.0</ele><time>2026-04-26T13:47:59.202Z</time></trkpt><trkpt lat="42.3315152" lon="13.3221811"><ele>739.3333333333334</ele><time>2026-04-26T13:48:00.203Z</time></trkpt><trkpt lat="42.3313011" lon="13.3221928"><ele>739.6666666666666</ele><time>2026-04-26T13:48:01.202Z</time></trkpt><trkpt lat="42.331074" lon="13.3221621"><ele>740.0</ele><time>2026-04-26T13:48:02.202Z</time></trkpt><trkpt lat="42.3308423" lon="13.3220958"><ele>740.0</ele><time>2026-04-26T13:48:03.202Z</time></trkpt><trkpt lat="42.33061" lon="13.3220136"><ele>740.0</ele><time>2026-04-26T13:48:04.202Z</time></trkpt><trkpt lat="42.3303853" lon="13.3219367"><ele>742.0</ele><time>2026-04-26T13:48:05.202Z</time></trkpt><trkpt lat="42.3301553" lon="13.3218945"><ele>744.0</ele><time>2026-04-26T13:48:06.202Z</time></trkpt><trkpt lat="42.3299139" lon="13.3218879"><ele>747.0</ele><time>2026-04-26T13:48:07.202Z</time></trkpt><trkpt lat="42.3296619" lon="13.3219085"><ele>750.0</ele><time>2026-04-26T13:48:08.203Z</time></trkpt><trkpt lat="42.3294004" lon="13.3218944"><ele>750.0</ele><time>2026-04-26T13:48:09.202Z</time></trkpt><trkpt lat="42.3291501" lon="13.3218632"><ele>750.0</ele><time>2026-04-26T13:48:10.202Z</time></trkpt><trkpt lat="42.3289012" lon="13.3218532"><ele>750.0</ele><time>2026-04-26T13:48:11.203Z</time></trkpt><trkpt lat="42.328651" lon="13.3218732"><ele>750.0</ele><time>2026-04-26T13:48:12.202Z</time></trkpt><trkpt lat="42.3284079" lon="13.3219122"><ele>750.0</ele><time>2026-04-26T13:48:13.203Z</time></trkpt><trkpt lat="42.3281957" lon="13.3219571"><ele>750.0</ele><time>2026-04-26T13:48:14.202Z</time></trkpt><trkpt lat="42.3280136" lon="13.3220055"><ele>750.0</ele><time>2026-04-26T13:48:15.203Z</time></trkpt><trkpt lat="42.3278502" lon="13.322095"><ele>750.5</ele><time>2026-04-26T13:48:16.203Z</time></trkpt><trkpt lat="42.3277099" lon="13.322195"><ele>751.0</ele><time>2026-04-26T13:48:17.202Z</time></trkpt><trkpt lat="42.3275865" lon="13.3222843"><ele>751.5</ele><time>2026-04-26T13:48:18.202Z</time></trkpt><trkpt lat="42.3274728" lon="13.3223199"><ele>752.0</ele><time>2026-04-26T13:48:19.203Z</time></trkpt><trkpt lat="42.3273508" lon="13.3222931"><ele>752.0</ele><time>2026-04-26T13:48:20.202Z</time></trkpt><trkpt lat="42.3272279" lon="13.3222155"><ele>752.0</ele><time>2026-04-26T13:48:21.202Z</time></trkpt><trkpt lat="42.3271037" lon="13.3220679"><ele>752.0</ele><time>2026-04-26T13:48:22.202Z</time></trkpt><trkpt lat="42.3269736" lon="13.3219126"><ele>755.6666666666666</ele><time>2026-04-26T13:48:23.203Z</time></trkpt><trkpt lat="42.3267872" lon="13.3218008"><ele>759.3333333333334</ele><time>2026-04-26T13:48:24.202Z</time></trkpt><trkpt lat="42.3266215" lon="13.3216653"><ele>763.0</ele><time>2026-04-26T13:48:25.202Z</time></trkpt><trkpt lat="42.3264774" lon="13.3215064"><ele>762.5</ele><time>2026-04-26T13:48:26.202Z</time></trkpt><trkpt lat="42.3263706" lon="13.3213366"><ele>762.0</ele><time>2026-04-26T13:48:27.203Z</time></trkpt><trkpt lat="42.3262935" lon="13.3211728"><ele>761.5</ele><time>2026-04-26T13:48:28.202Z</time></trkpt><trkpt lat="42.3262135" lon="13.3210399"><ele>761.0</ele><time>2026-04-26T13:48:29.202Z</time></trkpt><trkpt lat="42.3261261" lon="13.3209633"><ele>761.0</ele><time>2026-04-26T13:48:30.202Z</time></trkpt><trkpt lat="42.3260129" lon="13.3209716"><ele>761.0</ele><time>2026-04-26T13:48:31.202Z</time></trkpt><trkpt lat="42.3258925" lon="13.3210414"><ele>761.0</ele><time>2026-04-26T13:48:32.202Z</time></trkpt><trkpt lat="42.3257532" lon="13.3211703"><ele>761.0</ele><time>2026-04-26T13:48:33.202Z</time></trkpt><trkpt lat="42.3255908" lon="13.3213054"><ele>763.3333333333333</ele><time>2026-04-26T13:48:34.202Z</time></trkpt><trkpt lat="42.3254146" lon="13.321468"><ele>765.6666666666666</ele><time>2026-04-26T13:48:35.202Z</time></trkpt><trkpt lat="42.3252525" lon="13.3216417"><ele>768.0</ele><time>2026-04-26T13:48:36.202Z</time></trkpt><trkpt lat="42.3251122" lon="13.3218365"><ele>768.0</ele><time>2026-04-26T13:48:37.202Z</time></trkpt><trkpt lat="42.3249915" lon="13.3220259"><ele>768.0</ele><time>2026-04-26T13:48:38.202Z</time></trkpt><trkpt lat="42.3248522" lon="13.3221937"><ele>768.0</ele><time>2026-04-26T13:48:39.203Z</time></trkpt><trkpt lat="42.3246834" lon="13.3223176"><ele>771.6666666666667</ele><time>2026-04-26T13:48:40.202Z</time></trkpt><trkpt lat="42.3244886" lon="13.3224208"><ele>775.3333333333334</ele><time>2026-04-26T13:48:41.203Z</time></trkpt><trkpt lat="42.3242901" lon="13.3225344"><ele>779.0</ele><time>2026-04-26T13:48:42.202Z</time></trkpt><trkpt lat="42.3240961" lon="13.3226366"><ele>779.0</ele><time>2026-04-26T13:48:43.202Z</time></trkpt><trkpt lat="42.3239166" lon="13.3227168"><ele>779.0</ele><time>2026-04-26T13:48:44.202Z</time></trkpt><trkpt lat="42.3237314" lon="13.3227876"><ele>779.0</ele><time>2026-04-26T13:48:45.202Z</time></trkpt><trkpt lat="42.3235407" lon="13.32282"><ele>777.3333333333334</ele><time>2026-04-26T13:48:46.202Z</time></trkpt><trkpt lat="42.3233315" lon="13.322813"><ele>775.6666666666667</ele><time>2026-04-26T13:48:47.202Z</time></trkpt><trkpt lat="42.3230995" lon="13.3227635"><ele>774.0</ele><time>2026-04-26T13:48:48.202Z</time></trkpt><trkpt lat="42.322859" lon="13.3227545"><ele>773.5</ele><time>2026-04-26T13:48:49.203Z</time></trkpt><trkpt lat="42.3226119" lon="13.3227616"><ele>773.0</ele><time>2026-04-26T13:48:50.202Z</time></trkpt><trkpt lat="42.3223499" lon="13.3228013"><ele>774.5</ele><time>2026-04-26T13:48:51.202Z</time></trkpt><trkpt lat="42.3220816" lon="13.3228516"><ele>776.0</ele><time>2026-04-26T13:48:52.202Z</time></trkpt><trkpt lat="42.3218097" lon="13.322912"><ele>776.0</ele><time>2026-04-26T13:48:53.202Z</time></trkpt><trkpt lat="42.321553" lon="13.3229944"><ele>776.0</ele><time>2026-04-26T13:48:54.202Z</time></trkpt><trkpt lat="42.3213175" lon="13.3230762"><ele>781.6666666666667</ele><time>2026-04-26T13:48:55.203Z</time></trkpt><trkpt lat="42.3211018" lon="13.3231379"><ele>787.3333333333333</ele><time>2026-04-26T13:48:56.202Z</time></trkpt><trkpt lat="42.3209194" lon="13.3232202"><ele>793.0</ele><time>2026-04-26T13:48:57.203Z</time></trkpt><trkpt lat="42.3207651" lon="13.3233192"><ele>793.0</ele><time>2026-04-26T13:48:58.202Z</time></trkpt><trkpt lat="42.3206197" lon="13.3233912"><ele>793.0</ele><time>2026-04-26T13:48:59.202Z</time></trkpt><trkpt lat="42.3204664" lon="13.3234136"><ele>793.0</ele><time>2026-04-26T13:49:00.203Z</time></trkpt><trkpt lat="42.3202991" lon="13.3233915"><ele>792.3333333333333</ele><time>2026-04-26T13:49:01.203Z</time></trkpt><trkpt lat="42.3201383" lon="13.323382"><ele>791.6666666666667</ele><time>2026-04-26T13:49:02.202Z</time></trkpt><trkpt lat="42.3199551" lon="13.32347"><ele>791.0</ele><time>2026-04-26T13:49:03.203Z</time></trkpt><trkpt lat="42.3197645" lon="13.3235207"><ele>793.0</ele><time>2026-04-26T13:49:04.202Z</time></trkpt><trkpt lat="42.3195609" lon="13.3235388"><ele>795.0</ele><time>2026-04-26T13:49:05.202Z</time></trkpt><trkpt lat="42.3193763" lon="13.3235238"><ele>797.0</ele><time>2026-04-26T13:49:06.203Z</time></trkpt><trkpt lat="42.3192214" lon="13.3234744"><ele>797.0</ele><time>2026-04-26T13:49:07.202Z</time></trkpt><trkpt lat="42.3190908" lon="13.3233989"><ele>797.0</ele><time>2026-04-26T13:49:08.202Z</time></trkpt><trkpt lat="42.3189635" lon="13.3233445"><ele>797.0</ele><time>2026-04-26T13:49:09.203Z</time></trkpt><trkpt lat="42.3188149" lon="13.3233442"><ele>797.0</ele><time>2026-04-26T13:49:10.203Z</time></trkpt><trkpt lat="42.3186336" lon="13.3234208"><ele>797.3333333333334</ele><time>2026-04-26T13:49:11.202Z</time></trkpt><trkpt lat="42.3184402" lon="13.323525"><ele>797.6666666666667</ele><time>2026-04-26T13:49:12.203Z</time></trkpt><trkpt lat="42.31822" lon="13.323646"><ele>798.0</ele><time>2026-04-26T13:49:13.202Z</time></trkpt><trkpt lat="42.3179748" lon="13.3237537"><ele>794.0</ele><time>2026-04-26T13:49:14.202Z</time></trkpt><trkpt lat="42.3177385" lon="13.3238415"><ele>790.0</ele><time>2026-04-26T13:49:15.202Z</time></trkpt><trkpt lat="42.3175213" lon="13.323932"><ele>793.6666666666666</ele><time>2026-04-26T13:49:16.202Z</time></trkpt><trkpt lat="42.3173209" lon="13.324036"><ele>797.3333333333333</ele><time>2026-04-26T13:49:17.202Z</time></trkpt><trkpt lat="42.3171232" lon="13.3241679"><ele>801.0</ele><time>2026-04-26T13:49:18.202Z</time></trkpt><trkpt lat="42.3169307" lon="13.3243415"><ele>801.0</ele><time>2026-04-26T13:49:19.203Z</time></trkpt><trkpt lat="42.3167423" lon="13.3245075"><ele>801.0</ele><time>2026-04-26T13:49:20.202Z</time></trkpt><trkpt lat="42.3165687" lon="13.3246743"><ele>801.0</ele><time>2026-04-26T13:49:21.203Z</time></trkpt><trkpt lat="42.3164161" lon="13.3248514"><ele>804.0</ele><time>2026-04-26T13:49:22.202Z</time></trkpt><trkpt lat="42.3162883" lon="13.3250277"><ele>807.0</ele><time>2026-04-26T13:49:23.202Z</time></trkpt><trkpt lat="42.3161796" lon="13.3251996"><ele>810.0</ele><time>2026-04-26T13:49:24.202Z</time></trkpt><trkpt lat="42.3160426" lon="13.3253438"><ele>810.0</ele><time>2026-04-26T13:49:25.202Z</time></trkpt><trkpt lat="42.3158637" lon="13.3254266"><ele>810.0</ele><time>2026-04-26T13:49:26.202Z</time></trkpt><trkpt lat="42.3156606" lon="13.3255372"><ele>810.0</ele><time>2026-04-26T13:49:27.203Z</time></trkpt><trkpt lat="42.3154515" lon="13.3256963"><ele>814.6666666666667</ele><time>2026-04-26T13:49:28.202Z</time></trkpt><trkpt lat="42.3152487" lon="13.3258642"><ele>819.3333333333334</ele><time>2026-04-26T13:49:29.202Z</time></trkpt><trkpt lat="42.315072" lon="13.326017"><ele>824.0</ele><time>2026-04-26T13:49:30.202Z</time></trkpt><trkpt lat="42.3148983" lon="13.3261604"><ele>827.0</ele><time>2026-04-26T13:49:31.202Z</time></trkpt><trkpt lat="42.3147067" lon="13.3262587"><ele>830.0</ele><time>2026-04-26T13:49:32.202Z</time></trkpt><trkpt lat="42.3144855" lon="13.3263173"><ele>833.0</ele><time>2026-04-26T13:49:33.202Z</time></trkpt><trkpt lat="42.31427" lon="13.3264057"><ele>833.0</ele><time>2026-04-26T13:49:34.203Z</time></trkpt><trkpt lat="42.3140619" lon="13.3265508"><ele>833.0</ele><time>2026-04-26T13:49:35.202Z</time></trkpt><trkpt lat="42.3138518" lon="13.3266807"><ele>828.6666666666667</ele><time>2026-04-26T13:49:36.203Z</time></trkpt><trkpt lat="42.3136556" lon="13.3267924"><ele>824.3333333333333</ele><time>2026-04-26T13:49:37.202Z</time></trkpt><trkpt lat="42.313479" lon="13.3268952"><ele>820.0</ele><time>2026-04-26T13:49:38.202Z</time></trkpt><trkpt lat="42.3133236" lon="13.3270072"><ele>820.0</ele><time>2026-04-26T13:49:39.202Z</time></trkpt><trkpt lat="42.3131783" lon="13.3271234"><ele>820.0</ele><time>2026-04-26T13:49:40.202Z</time></trkpt><trkpt lat="42.3130636" lon="13.3272963"><ele>820.0</ele><time>2026-04-26T13:49:41.202Z</time></trkpt><trkpt lat="42.3129665" lon="13.3275063"><ele>822.3333333333333</ele><time>2026-04-26T13:49:42.202Z</time></trkpt><trkpt lat="42.3128563" lon="13.327689"><ele>824.6666666666667</ele><time>2026-04-26T13:49:43.203Z</time></trkpt><trkpt lat="42.3127365" lon="13.3277944"><ele>827.0</ele><time>2026-04-26T13:49:44.202Z</time></trkpt><trkpt lat="42.3125908" lon="13.3278663"><ele>827.0</ele><time>2026-04-26T13:49:45.203Z</time></trkpt><trkpt lat="42.3124244" lon="13.3278746"><ele>827.0</ele><time>2026-04-26T13:49:46.202Z</time></trkpt><trkpt lat="42.3122539" lon="13.3278368"><ele>827.0</ele><time>2026-04-26T13:49:47.203Z</time></trkpt><trkpt lat="42.3120934" lon="13.3278041"><ele>824.3333333333334</ele><time>2026-04-26T13:49:48.202Z</time></trkpt><trkpt lat="42.3119316" lon="13.3278305"><ele>821.6666666666667</ele><time>2026-04-26T13:49:49.203Z</time></trkpt><trkpt lat="42.3117773" lon="13.3279384"><ele>819.0</ele><time>2026-04-26T13:49:50.202Z</time></trkpt><trkpt lat="42.3116434" lon="13.3280599"><ele>820.0</ele><time>2026-04-26T13:49:51.202Z</time></trkpt><trkpt lat="42.3115374" lon="13.3282316"><ele>821.0</ele><time>2026-04-26T13:49:52.202Z</time></trkpt><trkpt lat="42.3114534" lon="13.3284284"><ele>822.0</ele><time>2026-04-26T13:49:53.202Z</time></trkpt><trkpt lat="42.311388" lon="13.3286477"><ele>826.6666666666667</ele><time>2026-04-26T13:49:54.202Z</time></trkpt><trkpt lat="42.3113218" lon="13.3288988"><ele>831.3333333333334</ele><time>2026-04-26T13:49:55.203Z</time></trkpt><trkpt lat="42.3112528" lon="13.3291566"><ele>836.0</ele><time>2026-04-26T13:49:56.202Z</time></trkpt><trkpt lat="42.3112064" lon="13.3294063"><ele>836.0</ele><time>2026-04-26T13:49:57.202Z</time></trkpt><trkpt lat="42.3111701" lon="13.3296404"><ele>836.0</ele><time>2026-04-26T13:49:58.203Z</time></trkpt><trkpt lat="42.3111203" lon="13.329832"><ele>836.0</ele><time>2026-04-26T13:49:59.202Z</time></trkpt><trkpt lat="42.311064" lon="13.3299917"><ele>837.3333333333334</ele><time>2026-04-26T13:50:00.202Z</time></trkpt><trkpt lat="42.3110123" lon="13.3301048"><ele>838.6666666666667</ele><time>2026-04-26T13:50:01.202Z</time></trkpt><trkpt lat="42.3109621" lon="13.3301726"><ele>840.0</ele><time>2026-04-26T13:50:02.203Z</time></trkpt><trkpt lat="42.3108356" lon="13.3302076"><ele>841.3333333333333</ele><time>2026-04-26T13:50:04.202Z</time></trkpt><trkpt lat="42.3107723" lon="13.3301715"><ele>842.6666666666666</ele><time>2026-04-26T13:50:05.203Z</time></trkpt><trkpt lat="42.3107327" lon="13.3300999"><ele>844.0</ele><time>2026-04-26T13:50:06.203Z</time></trkpt><trkpt lat="42.310701" lon="13.33"><ele>844.0</ele><time>2026-04-26T13:50:07.202Z</time></trkpt><trkpt lat="42.3106771" lon="13.3298649"><ele>844.0</ele><time>2026-04-26T13:50:08.203Z</time></trkpt><trkpt lat="42.3106464" lon="13.3297251"><ele>844.0</ele><time>2026-04-26T13:50:09.202Z</time></trkpt><trkpt lat="42.3105929" lon="13.3295701"><ele>844.0</ele><time>2026-04-26T13:50:10.202Z</time></trkpt><trkpt lat="42.3105343" lon="13.3294091"><ele>842.8000000000001</ele><time>2026-04-26T13:50:11.202Z</time></trkpt><trkpt lat="42.310458" lon="13.3292833"><ele>841.6</ele><time>2026-04-26T13:50:12.203Z</time></trkpt><trkpt lat="42.3103722" lon="13.3292082"><ele>840.4</ele><time>2026-04-26T13:50:13.202Z</time></trkpt><trkpt lat="42.3102644" lon="13.3292052"><ele>839.2</ele><time>2026-04-26T13:50:14.202Z</time></trkpt><trkpt lat="42.3101614" lon="13.3292322"><ele>838.0</ele><time>2026-04-26T13:50:15.202Z</time></trkpt><trkpt lat="42.310061" lon="13.3292841"><ele>838.0</ele><time>2026-04-26T13:50:16.202Z</time></trkpt><trkpt lat="42.3099668" lon="13.3293648"><ele>838.0</ele><time>2026-04-26T13:50:17.202Z</time></trkpt><trkpt lat="42.3098734" lon="13.3294576"><ele>838.0</ele><time>2026-04-26T13:50:18.203Z</time></trkpt><trkpt lat="42.3097702" lon="13.3295348"><ele>838.0</ele><time>2026-04-26T13:50:19.202Z</time></trkpt><trkpt lat="42.3096606" lon="13.3295923"><ele>835.5</ele><time>2026-04-26T13:50:20.202Z</time></trkpt><trkpt lat="42.3095361" lon="13.3296232"><ele>833.0</ele><time>2026-04-26T13:50:21.202Z</time></trkpt><trkpt lat="42.3093981" lon="13.3296414"><ele>830.5</ele><time>2026-04-26T13:50:22.203Z</time></trkpt><trkpt lat="42.3092688" lon="13.3296532"><ele>828.0</ele><time>2026-04-26T13:50:23.203Z</time></trkpt><trkpt lat="42.309149" lon="13.3296622"><ele>828.0</ele><time>2026-04-26T13:50:24.202Z</time></trkpt><trkpt lat="42.3090319" lon="13.3296817"><ele>828.0</ele><time>2026-04-26T13:50:25.202Z</time></trkpt><trkpt lat="42.3089315" lon="13.3297306"><ele>828.0</ele><time>2026-04-26T13:50:26.202Z</time></trkpt><trkpt lat="42.3088389" lon="13.3298093"><ele>828.0</ele><time>2026-04-26T13:50:27.202Z</time></trkpt><trkpt lat="42.3087584" lon="13.3299216"><ele>831.0</ele><time>2026-04-26T13:50:28.202Z</time></trkpt><trkpt lat="42.308687" lon="13.3300584"><ele>834.0</ele><time>2026-04-26T13:50:29.203Z</time></trkpt><trkpt lat="42.3086205" lon="13.3301943"><ele>837.0</ele><time>2026-04-26T13:50:30.202Z</time></trkpt><trkpt lat="42.3085406" lon="13.3303108"><ele>840.0</ele><time>2026-04-26T13:50:31.202Z</time></trkpt><trkpt lat="42.3084493" lon="13.3304019"><ele>840.0</ele><time>2026-04-26T13:50:32.202Z</time></trkpt><trkpt lat="42.3083535" lon="13.3304811"><ele>840.0</ele><time>2026-04-26T13:50:33.202Z</time></trkpt><trkpt lat="42.3082674" lon="13.3305625"><ele>840.0</ele><time>2026-04-26T13:50:34.202Z</time></trkpt><trkpt lat="42.3081956" lon="13.3306777"><ele>840.0</ele><time>2026-04-26T13:50:35.202Z</time></trkpt><trkpt lat="42.3081305" lon="13.3308169"><ele>843.0</ele><time>2026-04-26T13:50:36.202Z</time></trkpt><trkpt lat="42.3080684" lon="13.3309555"><ele>846.0</ele><time>2026-04-26T13:50:37.203Z</time></trkpt><trkpt lat="42.3080076" lon="13.3310833"><ele>849.0</ele><time>2026-04-26T13:50:38.202Z</time></trkpt><trkpt lat="42.307944" lon="13.331166"><ele>852.0</ele><time>2026-04-26T13:50:39.202Z</time></trkpt><trkpt lat="42.3078683" lon="13.331225"><ele>855.0</ele><time>2026-04-26T13:50:40.202Z</time></trkpt><trkpt lat="42.3077885" lon="13.3312399"><ele>855.0</ele><time>2026-04-26T13:50:41.203Z</time></trkpt><trkpt lat="42.3077015" lon="13.3312053"><ele>855.0</ele><time>2026-04-26T13:50:42.202Z</time></trkpt><trkpt lat="42.3076291" lon="13.331114"><ele>855.0</ele><time>2026-04-26T13:50:43.202Z</time></trkpt><trkpt lat="42.3075528" lon="13.331009"><ele>855.0</ele><time>2026-04-26T13:50:44.202Z</time></trkpt><trkpt lat="42.3074581" lon="13.3308891"><ele>855.0</ele><time>2026-04-26T13:50:45.202Z</time></trkpt><trkpt lat="42.3073647" lon="13.3307494"><ele>855.0</ele><time>2026-04-26T13:50:46.202Z</time></trkpt><trkpt lat="42.3072705" lon="13.3306124"><ele>855.0</ele><time>2026-04-26T13:50:47.202Z</time></trkpt><trkpt lat="42.3071731" lon="13.3304977"><ele>855.0</ele><time>2026-04-26T13:50:48.202Z</time></trkpt><trkpt lat="42.3070498" lon="13.3304054"><ele>855.0</ele><time>2026-04-26T13:50:49.202Z</time></trkpt><trkpt lat="42.3069017" lon="13.3303553"><ele>854.3333333333333</ele><time>2026-04-26T13:50:50.202Z</time></trkpt><trkpt lat="42.3067357" lon="13.3303192"><ele>853.6666666666666</ele><time>2026-04-26T13:50:51.202Z</time></trkpt><trkpt lat="42.3065468" lon="13.3302776"><ele>853.0</ele><time>2026-04-26T13:50:52.202Z</time></trkpt><trkpt lat="42.3063698" lon="13.3302444"><ele>852.6666666666666</ele><time>2026-04-26T13:50:53.202Z</time></trkpt><trkpt lat="42.3062022" lon="13.3302192"><ele>852.3333333333333</ele><time>2026-04-26T13:50:54.202Z</time></trkpt><trkpt lat="42.3060378" lon="13.3302179"><ele>852.0</ele><time>2026-04-26T13:50:55.202Z</time></trkpt><trkpt lat="42.3058883" lon="13.3302484"><ele>852.0</ele><time>2026-04-26T13:50:56.202Z</time></trkpt><trkpt lat="42.305753" lon="13.3303118"><ele>852.0</ele><time>2026-04-26T13:50:57.202Z</time></trkpt><trkpt lat="42.3056212" lon="13.3304103"><ele>852.0</ele><time>2026-04-26T13:50:58.202Z</time></trkpt><trkpt lat="42.3054872" lon="13.3305417"><ele>859.3333333333333</ele><time>2026-04-26T13:50:59.202Z</time></trkpt><trkpt lat="42.3053427" lon="13.3306687"><ele>866.6666666666666</ele><time>2026-04-26T13:51:00.202Z</time></trkpt><trkpt lat="42.3051812" lon="13.3307766"><ele>874.0</ele><time>2026-04-26T13:51:01.202Z</time></trkpt><trkpt lat="42.3050136" lon="13.3308421"><ele>874.0</ele><time>2026-04-26T13:51:02.202Z</time></trkpt><trkpt lat="42.3048612" lon="13.3308659"><ele>874.0</ele><time>2026-04-26T13:51:03.202Z</time></trkpt><trkpt lat="42.3047168" lon="13.3308341"><ele>874.0</ele><time>2026-04-26T13:51:04.202Z</time></trkpt><trkpt lat="42.3045914" lon="13.3307605"><ele>874.0</ele><time>2026-04-26T13:51:05.21Z</time></trkpt><trkpt lat="42.3044885" lon="13.3307065"><ele>873.25</ele><time>2026-04-26T13:51:06.209Z</time></trkpt><trkpt lat="42.3043876" lon="13.3307213"><ele>872.5</ele><time>2026-04-26T13:51:07.209Z</time></trkpt><trkpt lat="42.304302" lon="13.3307966"><ele>871.75</ele><time>2026-04-26T13:51:08.209Z</time></trkpt><trkpt lat="42.304208" lon="13.3309207"><ele>871.0</ele><time>2026-04-26T13:51:09.209Z</time></trkpt><trkpt lat="42.3041613" lon="13.3310966"><ele>871.0</ele><time>2026-04-26T13:51:10.209Z</time></trkpt><trkpt lat="42.304149" lon="13.3312909"><ele>871.0</ele><time>2026-04-26T13:51:11.21Z</time></trkpt><trkpt lat="42.3041398" lon="13.33147"><ele>871.0</ele><time>2026-04-26T13:51:12.209Z</time></trkpt><trkpt lat="42.3041038" lon="13.3316219"><ele>871.0</ele><time>2026-04-26T13:51:13.209Z</time></trkpt><trkpt lat="42.304041" lon="13.3317253"><ele>873.75</ele><time>2026-04-26T13:51:14.21Z</time></trkpt><trkpt lat="42.3039379" lon="13.3317886"><ele>876.5</ele><time>2026-04-26T13:51:15.209Z</time></trkpt><trkpt lat="42.3038098" lon="13.3318151"><ele>879.25</ele><time>2026-04-26T13:51:16.209Z</time></trkpt><trkpt lat="42.3036529" lon="13.3318088"><ele>882.0</ele><time>2026-04-26T13:51:17.21Z</time></trkpt><trkpt lat="42.303472" lon="13.3318233"><ele>882.0</ele><time>2026-04-26T13:51:18.209Z</time></trkpt><trkpt lat="42.3032877" lon="13.3318316"><ele>882.0</ele><time>2026-04-26T13:51:19.21Z</time></trkpt><trkpt lat="42.3031281" lon="13.3318283"><ele>882.0</ele><time>2026-04-26T13:51:20.21Z</time></trkpt><trkpt lat="42.3029825" lon="13.3318115"><ele>880.3333333333333</ele><time>2026-04-26T13:51:21.209Z</time></trkpt><trkpt lat="42.3028373" lon="13.3318031"><ele>878.6666666666666</ele><time>2026-04-26T13:51:22.21Z</time></trkpt><trkpt lat="42.3026902" lon="13.3318389"><ele>877.0</ele><time>2026-04-26T13:51:23.209Z</time></trkpt><trkpt lat="42.3025256" lon="13.3319479"><ele>877.0</ele><time>2026-04-26T13:51:24.209Z</time></trkpt><trkpt lat="42.3023386" lon="13.3320705"><ele>877.0</ele><time>2026-04-26T13:51:25.209Z</time></trkpt><trkpt lat="42.3021499" lon="13.3321746"><ele>877.0</ele><time>2026-04-26T13:51:26.209Z</time></trkpt><trkpt lat="42.3019784" lon="13.3322913"><ele>881.0</ele><time>2026-04-26T13:51:27.209Z</time></trkpt><trkpt lat="42.301841" lon="13.3324191"><ele>885.0</ele><time>2026-04-26T13:51:28.209Z</time></trkpt><trkpt lat="42.3017309" lon="13.3325569"><ele>889.0</ele><time>2026-04-26T13:51:29.209Z</time></trkpt><trkpt lat="42.3016085" lon="13.3326465"><ele>889.0</ele><time>2026-04-26T13:51:30.209Z</time></trkpt><trkpt lat="42.3014553" lon="13.3326752"><ele>889.0</ele><time>2026-04-26T13:51:31.209Z</time></trkpt><trkpt lat="42.301284" lon="13.332681"><ele>889.0</ele><time>2026-04-26T13:51:32.21Z</time></trkpt><trkpt lat="42.3010994" lon="13.3327256"><ele>886.6666666666666</ele><time>2026-04-26T13:51:33.209Z</time></trkpt><trkpt lat="42.3009109" lon="13.3328273"><ele>884.3333333333333</ele><time>2026-04-26T13:51:34.209Z</time></trkpt><trkpt lat="42.3007297" lon="13.332936"><ele>882.0</ele><time>2026-04-26T13:51:35.209Z</time></trkpt><trkpt lat="42.3005784" lon="13.3330232"><ele>882.75</ele><time>2026-04-26T13:51:36.21Z</time></trkpt><trkpt lat="42.3004516" lon="13.3331201"><ele>883.5</ele><time>2026-04-26T13:51:37.21Z</time></trkpt><trkpt lat="42.3003608" lon="13.3332538"><ele>884.25</ele><time>2026-04-26T13:51:38.21Z</time></trkpt><trkpt lat="42.3003169" lon="13.3334195"><ele>885.0</ele><time>2026-04-26T13:51:39.209Z</time></trkpt><trkpt lat="42.3003078" lon="13.3336181"><ele>885.0</ele><time>2026-04-26T13:51:40.209Z</time></trkpt><trkpt lat="42.3003035" lon="13.3338405"><ele>885.0</ele><time>2026-04-26T13:51:41.209Z</time></trkpt><trkpt lat="42.3002935" lon="13.3340502"><ele>885.0</ele><time>2026-04-26T13:51:42.209Z</time></trkpt><trkpt lat="42.3002838" lon="13.3342649"><ele>887.75</ele><time>2026-04-26T13:51:43.209Z</time></trkpt><trkpt lat="42.3003008" lon="13.3344574"><ele>890.5</ele><time>2026-04-26T13:51:44.209Z</time></trkpt><trkpt lat="42.3003209" lon="13.3346319"><ele>893.25</ele><time>2026-04-26T13:51:45.209Z</time></trkpt><trkpt lat="42.300297" lon="13.3347721"><ele>896.0</ele><time>2026-04-26T13:51:46.209Z</time></trkpt><trkpt lat="42.3002216" lon="13.334866"><ele>899.25</ele><time>2026-04-26T13:51:47.209Z</time></trkpt><trkpt lat="42.3001251" lon="13.3349305"><ele>902.5</ele><time>2026-04-26T13:51:48.209Z</time></trkpt><trkpt lat="42.3000025" lon="13.3349681"><ele>905.75</ele><time>2026-04-26T13:51:49.209Z</time></trkpt><trkpt lat="42.2998508" lon="13.3349891"><ele>909.0</ele><time>2026-04-26T13:51:50.21Z</time></trkpt><trkpt lat="42.2996854" lon="13.3350407"><ele>909.0</ele><time>2026-04-26T13:51:51.21Z</time></trkpt><trkpt lat="42.2995268" lon="13.3350911"><ele>909.0</ele><time>2026-04-26T13:51:52.209Z</time></trkpt><trkpt lat="42.2993649" lon="13.3351123"><ele>909.0</ele><time>2026-04-26T13:51:53.21Z</time></trkpt><trkpt lat="42.2991967" lon="13.3350519"><ele>909.0</ele><time>2026-04-26T13:51:54.209Z</time></trkpt><trkpt lat="42.2990421" lon="13.3349633"><ele>909.0</ele><time>2026-04-26T13:51:55.209Z</time></trkpt><trkpt lat="42.2989038" lon="13.3349286"><ele>909.0</ele><time>2026-04-26T13:51:56.209Z</time></trkpt><trkpt lat="42.2987648" lon="13.3349404"><ele>909.0</ele><time>2026-04-26T13:51:57.21Z</time></trkpt><trkpt lat="42.298615" lon="13.3350228"><ele>908.6666666666667</ele><time>2026-04-26T13:51:58.209Z</time></trkpt><trkpt lat="42.2984629" lon="13.3351377"><ele>908.3333333333334</ele><time>2026-04-26T13:51:59.209Z</time></trkpt><trkpt lat="42.298338" lon="13.3352646"><ele>908.0</ele><time>2026-04-26T13:52:00.209Z</time></trkpt><trkpt lat="42.2982463" lon="13.3354028"><ele>911.25</ele><time>2026-04-26T13:52:01.209Z</time></trkpt><trkpt lat="42.2981907" lon="13.3355596"><ele>914.5</ele><time>2026-04-26T13:52:02.209Z</time></trkpt><trkpt lat="42.2981854" lon="13.335752"><ele>917.75</ele><time>2026-04-26T13:52:03.209Z</time></trkpt><trkpt lat="42.2982059" lon="13.3359564"><ele>921.0</ele><time>2026-04-26T13:52:04.21Z</time></trkpt><trkpt lat="42.2982274" lon="13.336162"><ele>921.0</ele><time>2026-04-26T13:52:05.209Z</time></trkpt><trkpt lat="42.2982052" lon="13.3363202"><ele>921.0</ele><time>2026-04-26T13:52:06.209Z</time></trkpt><trkpt lat="42.2981274" lon="13.3364322"><ele>921.0</ele><time>2026-04-26T13:52:07.209Z</time></trkpt><trkpt lat="42.2980113" lon="13.3364927"><ele>921.0</ele><time>2026-04-26T13:52:08.209Z</time></trkpt><trkpt lat="42.297869" lon="13.3365184"><ele>921.6666666666667</ele><time>2026-04-26T13:52:09.209Z</time></trkpt><trkpt lat="42.2977006" lon="13.3365368"><ele>922.3333333333334</ele><time>2026-04-26T13:52:10.21Z</time></trkpt><trkpt lat="42.2975267" lon="13.336538"><ele>923.0</ele><time>2026-04-26T13:52:11.21Z</time></trkpt><trkpt lat="42.2973448" lon="13.3365625"><ele>920.6666666666667</ele><time>2026-04-26T13:52:12.209Z</time></trkpt><trkpt lat="42.2971844" lon="13.3366214"><ele>918.3333333333333</ele><time>2026-04-26T13:52:13.209Z</time></trkpt><trkpt lat="42.2970145" lon="13.3367068"><ele>916.0</ele><time>2026-04-26T13:52:14.21Z</time></trkpt><trkpt lat="42.2968478" lon="13.3368469"><ele>916.0</ele><time>2026-04-26T13:52:15.209Z</time></trkpt><trkpt lat="42.2966886" lon="13.3369879"><ele>916.0</ele><time>2026-04-26T13:52:16.209Z</time></trkpt><trkpt lat="42.2965209" lon="13.3371205"><ele>916.0</ele><time>2026-04-26T13:52:17.21Z</time></trkpt><trkpt lat="42.2963341" lon="13.3372622"><ele>919.6666666666666</ele><time>2026-04-26T13:52:18.209Z</time></trkpt><trkpt lat="42.2961363" lon="13.3374069"><ele>923.3333333333333</ele><time>2026-04-26T13:52:19.209Z</time></trkpt><trkpt lat="42.295942" lon="13.3375437"><ele>927.0</ele><time>2026-04-26T13:52:20.209Z</time></trkpt><trkpt lat="42.2958043" lon="13.337638"><ele>927.0</ele><time>2026-04-26T13:52:21.209Z</time></trkpt><trkpt lat="42.2956906" lon="13.3377385"><ele>927.0</ele><time>2026-04-26T13:52:22.21Z</time></trkpt><trkpt lat="42.2956035" lon="13.3378525"><ele>927.0</ele><time>2026-04-26T13:52:23.209Z</time></trkpt><trkpt lat="42.2955538" lon="13.3380089"><ele>927.0</ele><time>2026-04-26T13:52:24.209Z</time></trkpt><trkpt lat="42.2955485" lon="13.3382026"><ele>925.75</ele><time>2026-04-26T13:52:25.209Z</time></trkpt><trkpt lat="42.295548" lon="13.3383993"><ele>924.5</ele><time>2026-04-26T13:52:26.209Z</time></trkpt><trkpt lat="42.2955411" lon="13.3386009"><ele>923.25</ele><time>2026-04-26T13:52:27.209Z</time></trkpt><trkpt lat="42.2955224" lon="13.338799"><ele>922.0</ele><time>2026-04-26T13:52:28.209Z</time></trkpt><trkpt lat="42.2955097" lon="13.3389856"><ele>922.0</ele><time>2026-04-26T13:52:29.21Z</time></trkpt><trkpt lat="42.2955101" lon="13.3391604"><ele>922.0</ele><time>2026-04-26T13:52:30.209Z</time></trkpt><trkpt lat="42.2955169" lon="13.3393398"><ele>922.0</ele><time>2026-04-26T13:52:31.209Z</time></trkpt><trkpt lat="42.2955047" lon="13.339521"><ele>922.0</ele><time>2026-04-26T13:52:32.209Z</time></trkpt><trkpt lat="42.2954704" lon="13.3397041"><ele>925.25</ele><time>2026-04-26T13:52:33.209Z</time></trkpt><trkpt lat="42.2954245" lon="13.3398818"><ele>928.5</ele><time>2026-04-26T13:52:34.209Z</time></trkpt><trkpt lat="42.2953805" lon="13.3400639"><ele>931.75</ele><time>2026-04-26T13:52:35.21Z</time></trkpt><trkpt lat="42.2953414" lon="13.3402276"><ele>935.0</ele><time>2026-04-26T13:52:36.209Z</time></trkpt><trkpt lat="42.2952968" lon="13.3403501"><ele>935.0</ele><time>2026-04-26T13:52:37.209Z</time></trkpt><trkpt lat="42.2952375" lon="13.3404276"><ele>935.0</ele><time>2026-04-26T13:52:38.21Z</time></trkpt><trkpt lat="42.2951516" lon="13.3404523"><ele>935.0</ele><time>2026-04-26T13:52:39.21Z</time></trkpt><trkpt lat="42.2950629" lon="13.340413"><ele>935.0</ele><time>2026-04-26T13:52:40.209Z</time></trkpt><trkpt lat="42.2949818" lon="13.3403096"><ele>935.0</ele><time>2026-04-26T13:52:41.209Z</time></trkpt><trkpt lat="42.294889" lon="13.3401766"><ele>935.0</ele><time>2026-04-26T13:52:42.21Z</time></trkpt><trkpt lat="42.29478" lon="13.3400245"><ele>935.0</ele><time>2026-04-26T13:52:43.209Z</time></trkpt><trkpt lat="42.2946596" lon="13.3398639"><ele>935.0</ele><time>2026-04-26T13:52:44.209Z</time></trkpt><trkpt lat="42.2945365" lon="13.3397113"><ele>933.3333333333334</ele><time>2026-04-26T13:52:45.209Z</time></trkpt><trkpt lat="42.2944025" lon="13.3395915"><ele>931.6666666666667</ele><time>2026-04-26T13:52:46.21Z</time></trkpt><trkpt lat="42.2942498" lon="13.3395176"><ele>930.0</ele><time>2026-04-26T13:52:47.209Z</time></trkpt><trkpt lat="42.2941007" lon="13.3394623"><ele>930.0</ele><time>2026-04-26T13:52:48.209Z</time></trkpt><trkpt lat="42.2939679" lon="13.3394583"><ele>930.0</ele><time>2026-04-26T13:52:49.21Z</time></trkpt><trkpt lat="42.2938485" lon="13.3395034"><ele>930.0</ele><time>2026-04-26T13:52:50.209Z</time></trkpt><trkpt lat="42.2937211" lon="13.3395952"><ele>930.0</ele><time>2026-04-26T13:52:51.209Z</time></trkpt><trkpt lat="42.2935983" lon="13.3396945"><ele>936.3333333333333</ele><time>2026-04-26T13:52:52.209Z</time></trkpt><trkpt lat="42.2934633" lon="13.3397525"><ele>942.6666666666666</ele><time>2026-04-26T13:52:53.21Z</time></trkpt><trkpt lat="42.2933125" lon="13.3397736"><ele>949.0</ele><time>2026-04-26T13:52:54.209Z</time></trkpt><trkpt lat="42.2931473" lon="13.3397722"><ele>949.0</ele><time>2026-04-26T13:52:55.209Z</time></trkpt><trkpt lat="42.2929972" lon="13.3397637"><ele>949.0</ele><time>2026-04-26T13:52:56.21Z</time></trkpt><trkpt lat="42.2928632" lon="13.3397346"><ele>949.0</ele><time>2026-04-26T13:52:57.209Z</time></trkpt><trkpt lat="42.292735" lon="13.3396828"><ele>949.0</ele><time>2026-04-26T13:52:58.209Z</time></trkpt><trkpt lat="42.2926152" lon="13.3395806"><ele>949.0</ele><time>2026-04-26T13:52:59.21Z</time></trkpt><trkpt lat="42.2925122" lon="13.3394345"><ele>949.0</ele><time>2026-04-26T13:53:00.21Z</time></trkpt><trkpt lat="42.2924134" lon="13.3392715"><ele>949.0</ele><time>2026-04-26T13:53:01.209Z</time></trkpt><trkpt lat="42.2923327" lon="13.3391125"><ele>949.0</ele><time>2026-04-26T13:53:02.209Z</time></trkpt><trkpt lat="42.2922543" lon="13.3389512"><ele>950.3333333333333</ele><time>2026-04-26T13:53:03.209Z</time></trkpt><trkpt lat="42.2921569" lon="13.3387983"><ele>951.6666666666667</ele><time>2026-04-26T13:53:04.209Z</time></trkpt><trkpt lat="42.2920419" lon="13.3386498"><ele>953.0</ele><time>2026-04-26T13:53:05.209Z</time></trkpt><trkpt lat="42.2919333" lon="13.3385004"><ele>953.0</ele><time>2026-04-26T13:53:06.209Z</time></trkpt><trkpt lat="42.2918394" lon="13.3383721"><ele>953.0</ele><time>2026-04-26T13:53:07.21Z</time></trkpt><trkpt lat="42.2917507" lon="13.3382725"><ele>953.0</ele><time>2026-04-26T13:53:08.209Z</time></trkpt><trkpt lat="42.2916723" lon="13.3381983"><ele>953.0</ele><time>2026-04-26T13:53:09.21Z</time></trkpt><trkpt lat="42.2915887" lon="13.3381576"><ele>953.0</ele><time>2026-04-26T13:53:10.209Z</time></trkpt><trkpt lat="42.2915048" lon="13.3381683"><ele>953.2</ele><time>2026-04-26T13:53:11.209Z</time></trkpt><trkpt lat="42.2914133" lon="13.3382006"><ele>953.4</ele><time>2026-04-26T13:53:12.209Z</time></trkpt><trkpt lat="42.2913247" lon="13.3382373"><ele>953.6000000000001</ele><time>2026-04-26T13:53:13.209Z</time></trkpt><trkpt lat="42.2912382" lon="13.3382653"><ele>953.8000000000001</ele><time>2026-04-26T13:53:14.21Z</time></trkpt><trkpt lat="42.2911546" lon="13.3383078"><ele>954.0</ele><time>2026-04-26T13:53:15.209Z</time></trkpt><trkpt lat="42.2910704" lon="13.3383712"><ele>954.0</ele><time>2026-04-26T13:53:16.21Z</time></trkpt><trkpt lat="42.2909847" lon="13.3384429"><ele>954.0000000000001</ele><time>2026-04-26T13:53:17.209Z</time></trkpt><trkpt lat="42.2909054" lon="13.3385098"><ele>954.0000000000001</ele><time>2026-04-26T13:53:18.209Z</time></trkpt><trkpt lat="42.2908347" lon="13.3385825"><ele>954.0</ele><time>2026-04-26T13:53:19.209Z</time></trkpt><trkpt lat="42.290794" lon="13.3386817"><ele>954.0</ele><time>2026-04-26T13:53:20.209Z</time></trkpt><trkpt lat="42.2907913" lon="13.3387976"><ele>953.75</ele><time>2026-04-26T13:53:21.209Z</time></trkpt><trkpt lat="42.2908269" lon="13.3389437"><ele>953.5</ele><time>2026-04-26T13:53:22.209Z</time></trkpt><trkpt lat="42.290871" lon="13.3391075"><ele>953.25</ele><time>2026-04-26T13:53:23.209Z</time></trkpt><trkpt lat="42.2909231" lon="13.3393071"><ele>953.0</ele><time>2026-04-26T13:53:24.209Z</time></trkpt><trkpt lat="42.2909767" lon="13.339512"><ele>953.6666666666667</ele><time>2026-04-26T13:53:25.209Z</time></trkpt><trkpt lat="42.2910366" lon="13.3397293"><ele>954.3333333333333</ele><time>2026-04-26T13:53:26.209Z</time></trkpt><trkpt lat="42.291093" lon="13.339921"><ele>955.0</ele><time>2026-04-26T13:53:27.209Z</time></trkpt><trkpt lat="42.2911305" lon="13.340105"><ele>955.0</ele><time>2026-04-26T13:53:28.209Z</time></trkpt><trkpt lat="42.2911287" lon="13.3402679"><ele>955.0</ele><time>2026-04-26T13:53:29.209Z</time></trkpt><trkpt lat="42.2911077" lon="13.3404339"><ele>955.0</ele><time>2026-04-26T13:53:30.209Z</time></trkpt><trkpt lat="42.2910503" lon="13.3405874"><ele>955.0</ele><time>2026-04-26T13:53:31.209Z</time></trkpt><trkpt lat="42.2909608" lon="13.3407456"><ele>953.0</ele><time>2026-04-26T13:53:32.209Z</time></trkpt><trkpt lat="42.2908498" lon="13.340917"><ele>951.0</ele><time>2026-04-26T13:53:33.209Z</time></trkpt><trkpt lat="42.2907065" lon="13.3410817"><ele>949.0</ele><time>2026-04-26T13:53:34.209Z</time></trkpt><trkpt lat="42.2905358" lon="13.3412368"><ele>961.0</ele><time>2026-04-26T13:53:35.209Z</time></trkpt><trkpt lat="42.2903445" lon="13.3413925"><ele>973.0</ele><time>2026-04-26T13:53:36.209Z</time></trkpt><trkpt lat="42.2901534" lon="13.3415668"><ele>973.0</ele><time>2026-04-26T13:53:37.209Z</time></trkpt><trkpt lat="42.2899652" lon="13.3417213"><ele>973.0</ele><time>2026-04-26T13:53:38.209Z</time></trkpt><trkpt lat="42.2897844" lon="13.3418357"><ele>973.0</ele><time>2026-04-26T13:53:39.209Z</time></trkpt><trkpt lat="42.289613" lon="13.341935"><ele>975.3333333333333</ele><time>2026-04-26T13:53:40.209Z</time></trkpt><trkpt lat="42.2894494" lon="13.3420345"><ele>977.6666666666667</ele><time>2026-04-26T13:53:41.209Z</time></trkpt><trkpt lat="42.2892887" lon="13.3421672"><ele>980.0</ele><time>2026-04-26T13:53:42.21Z</time></trkpt><trkpt lat="42.2891399" lon="13.3423478"><ele>980.0</ele><time>2026-04-26T13:53:43.209Z</time></trkpt><trkpt lat="42.2889893" lon="13.3425615"><ele>980.0</ele><time>2026-04-26T13:53:44.209Z</time></trkpt><trkpt lat="42.2888407" lon="13.3428184"><ele>977.5</ele><time>2026-04-26T13:53:45.209Z</time></trkpt><trkpt lat="42.2886979" lon="13.3431115"><ele>975.0</ele><time>2026-04-26T13:53:46.209Z</time></trkpt><trkpt lat="42.2885368" lon="13.3434169"><ele>975.0</ele><time>2026-04-26T13:53:47.209Z</time></trkpt><trkpt lat="42.2883598" lon="13.3437196"><ele>975.0</ele><time>2026-04-26T13:53:48.209Z</time></trkpt><trkpt lat="42.2881894" lon="13.3440054"><ele>975.5</ele><time>2026-04-26T13:53:49.21Z</time></trkpt><trkpt lat="42.2880252" lon="13.3442722"><ele>976.0</ele><time>2026-04-26T13:53:50.209Z</time></trkpt><trkpt lat="42.2878581" lon="13.3445281"><ele>983.5</ele><time>2026-04-26T13:53:51.209Z</time></trkpt><trkpt lat="42.2876953" lon="13.3447869"><ele>991.0</ele><time>2026-04-26T13:53:52.209Z</time></trkpt><trkpt lat="42.2875461" lon="13.3450441"><ele>991.0</ele><time>2026-04-26T13:53:53.209Z</time></trkpt><trkpt lat="42.2874151" lon="13.3452814"><ele>991.0</ele><time>2026-04-26T13:53:54.209Z</time></trkpt><trkpt lat="42.2872897" lon="13.3454944"><ele>991.0</ele><time>2026-04-26T13:53:55.209Z</time></trkpt><trkpt lat="42.2871831" lon="13.3457125"><ele>992.0</ele><time>2026-04-26T13:53:56.209Z</time></trkpt><trkpt lat="42.2871038" lon="13.3459422"><ele>993.0</ele><time>2026-04-26T13:53:57.21Z</time></trkpt><trkpt lat="42.2870562" lon="13.3461893"><ele>994.0</ele><time>2026-04-26T13:53:58.209Z</time></trkpt><trkpt lat="42.2870282" lon="13.3464334"><ele>994.0</ele><time>2026-04-26T13:53:59.209Z</time></trkpt><trkpt lat="42.2870125" lon="13.3466462"><ele>994.0</ele><time>2026-04-26T13:54:00.21Z</time></trkpt><trkpt lat="42.2869775" lon="13.3468158"><ele>994.0</ele><time>2026-04-26T13:54:01.209Z</time></trkpt><trkpt lat="42.286916" lon="13.3469455"><ele>994.0</ele><time>2026-04-26T13:54:02.209Z</time></trkpt><trkpt lat="42.2868158" lon="13.3470199"><ele>994.0</ele><time>2026-04-26T13:54:03.209Z</time></trkpt><trkpt lat="42.2866755" lon="13.3470805"><ele>994.0</ele><time>2026-04-26T13:54:04.209Z</time></trkpt><trkpt lat="42.2865167" lon="13.3471141"><ele>994.0</ele><time>2026-04-26T13:54:05.209Z</time></trkpt><trkpt lat="42.2863501" lon="13.3471731"><ele>995.6666666666666</ele><time>2026-04-26T13:54:06.209Z</time></trkpt><trkpt lat="42.2861725" lon="13.3472613"><ele>997.3333333333333</ele><time>2026-04-26T13:54:07.209Z</time></trkpt><trkpt lat="42.2859834" lon="13.3474046"><ele>999.0</ele><time>2026-04-26T13:54:08.209Z</time></trkpt><trkpt lat="42.2857889" lon="13.3475929"><ele>999.0</ele><time>2026-04-26T13:54:09.209Z</time></trkpt><trkpt lat="42.2856014" lon="13.3478055"><ele>999.0</ele><time>2026-04-26T13:54:10.21Z</time></trkpt><trkpt lat="42.2854204" lon="13.3480267"><ele>1000.6666666666667</ele><time>2026-04-26T13:54:11.209Z</time></trkpt><trkpt lat="42.2852524" lon="13.3482396"><ele>1002.3333333333334</ele><time>2026-04-26T13:54:12.21Z</time></trkpt><trkpt lat="42.2850912" lon="13.3484357"><ele>1004.0</ele><time>2026-04-26T13:54:13.21Z</time></trkpt><trkpt lat="42.2849527" lon="13.3486309"><ele>1004.0</ele><time>2026-04-26T13:54:14.21Z</time></trkpt><trkpt lat="42.2848404" lon="13.3488193"><ele>1004.0</ele><time>2026-04-26T13:54:15.209Z</time></trkpt><trkpt lat="42.2847459" lon="13.3490023"><ele>1004.0</ele><time>2026-04-26T13:54:16.209Z</time></trkpt><trkpt lat="42.2846774" lon="13.3491891"><ele>1003.75</ele><time>2026-04-26T13:54:17.209Z</time></trkpt><trkpt lat="42.2846465" lon="13.349396"><ele>1003.5</ele><time>2026-04-26T13:54:18.209Z</time></trkpt><trkpt lat="42.2846454" lon="13.3495984"><ele>1003.25</ele><time>2026-04-26T13:54:19.209Z</time></trkpt><trkpt lat="42.2846369" lon="13.3497726"><ele>1003.0</ele><time>2026-04-26T13:54:20.209Z</time></trkpt><trkpt lat="42.2846029" lon="13.3499048"><ele>1006.25</ele><time>2026-04-26T13:54:21.209Z</time></trkpt><trkpt lat="42.2845221" lon="13.3500086"><ele>1009.5</ele><time>2026-04-26T13:54:22.209Z</time></trkpt><trkpt lat="42.284398" lon="13.350067"><ele>1012.75</ele><time>2026-04-26T13:54:23.209Z</time></trkpt><trkpt lat="42.2842384" lon="13.3501217"><ele>1016.0</ele><time>2026-04-26T13:54:24.209Z</time></trkpt><trkpt lat="42.2840588" lon="13.3501852"><ele>1012.0</ele><time>2026-04-26T13:54:25.21Z</time></trkpt><trkpt lat="42.2838957" lon="13.3502403"><ele>1008.0</ele><time>2026-04-26T13:54:26.209Z</time></trkpt><trkpt lat="42.2837434" lon="13.3503034"><ele>1004.0</ele><time>2026-04-26T13:54:27.209Z</time></trkpt><trkpt lat="42.2836034" lon="13.350426"><ele>1010.0</ele><time>2026-04-26T13:54:28.21Z</time></trkpt><trkpt lat="42.2834829" lon="13.3505933"><ele>1016.0</ele><time>2026-04-26T13:54:29.209Z</time></trkpt><trkpt lat="42.2833748" lon="13.3507852"><ele>1022.0</ele><time>2026-04-26T13:54:30.209Z</time></trkpt><trkpt lat="42.2832633" lon="13.3509819"><ele>1022.0</ele><time>2026-04-26T13:54:31.209Z</time></trkpt><trkpt lat="42.2831498" lon="13.3511713"><ele>1022.0</ele><time>2026-04-26T13:54:32.209Z</time></trkpt><trkpt lat="42.2830319" lon="13.3513746"><ele>1022.0</ele><time>2026-04-26T13:54:33.21Z</time></trkpt><trkpt lat="42.2829092" lon="13.3515745"><ele>1022.3333333333334</ele><time>2026-04-26T13:54:34.209Z</time></trkpt><trkpt lat="42.2827851" lon="13.3517849"><ele>1022.6666666666667</ele><time>2026-04-26T13:54:35.209Z</time></trkpt><trkpt lat="42.2826691" lon="13.351962"><ele>1023.0</ele><time>2026-04-26T13:54:36.209Z</time></trkpt><trkpt lat="42.2825436" lon="13.3521114"><ele>1026.5</ele><time>2026-04-26T13:54:37.209Z</time></trkpt><trkpt lat="42.2824026" lon="13.3522281"><ele>1030.0</ele><time>2026-04-26T13:54:38.21Z</time></trkpt><trkpt lat="42.2822704" lon="13.352322"><ele>1033.5</ele><time>2026-04-26T13:54:39.209Z</time></trkpt><trkpt lat="42.282151" lon="13.3523784"><ele>1037.0</ele><time>2026-04-26T13:54:40.21Z</time></trkpt><trkpt lat="42.2820249" lon="13.352388"><ele>1037.0</ele><time>2026-04-26T13:54:41.21Z</time></trkpt><trkpt lat="42.2818849" lon="13.3523384"><ele>1037.0</ele><time>2026-04-26T13:54:42.209Z</time></trkpt><trkpt lat="42.2817407" lon="13.3522603"><ele>1037.0</ele><time>2026-04-26T13:54:43.209Z</time></trkpt><trkpt lat="42.2815988" lon="13.35222"><ele>1037.0</ele><time>2026-04-26T13:54:44.209Z</time></trkpt><trkpt lat="42.2814419" lon="13.3522309"><ele>1037.0</ele><time>2026-04-26T13:54:45.209Z</time></trkpt><trkpt lat="42.2812826" lon="13.3522973"><ele>1037.0</ele><time>2026-04-26T13:54:46.209Z</time></trkpt><trkpt lat="42.2811236" lon="13.3524137"><ele>1037.0</ele><time>2026-04-26T13:54:47.209Z</time></trkpt><trkpt lat="42.2809559" lon="13.3525694"><ele>1037.0</ele><time>2026-04-26T13:54:48.209Z</time></trkpt><trkpt lat="42.2807926" lon="13.3526914"><ele>1037.0</ele><time>2026-04-26T13:54:49.209Z</time></trkpt><trkpt lat="42.2806299" lon="13.3527829"><ele>1037.0</ele><time>2026-04-26T13:54:50.21Z</time></trkpt><trkpt lat="42.2804797" lon="13.3528632"><ele>1037.75</ele><time>2026-04-26T13:54:51.209Z</time></trkpt><trkpt lat="42.2803585" lon="13.352966"><ele>1038.5</ele><time>2026-04-26T13:54:52.209Z</time></trkpt><trkpt lat="42.2802801" lon="13.3530846"><ele>1039.25</ele><time>2026-04-26T13:54:53.209Z</time></trkpt><trkpt lat="42.2802432" lon="13.3532431"><ele>1040.0</ele><time>2026-04-26T13:54:54.209Z</time></trkpt><trkpt lat="42.2802298" lon="13.3534302"><ele>1040.0</ele><time>2026-04-26T13:54:55.209Z</time></trkpt><trkpt lat="42.2802037" lon="13.3536475"><ele>1040.0</ele><time>2026-04-26T13:54:56.209Z</time></trkpt><trkpt lat="42.2801434" lon="13.3538585"><ele>1040.0</ele><time>2026-04-26T13:54:57.209Z</time></trkpt><trkpt lat="42.2800524" lon="13.3540677"><ele>1041.5</ele><time>2026-04-26T13:54:58.209Z</time></trkpt><trkpt lat="42.2799471" lon="13.3542623"><ele>1043.0</ele><time>2026-04-26T13:54:59.209Z</time></trkpt><trkpt lat="42.2798632" lon="13.3544201"><ele>1044.5</ele><time>2026-04-26T13:55:00.209Z</time></trkpt><trkpt lat="42.2797996" lon="13.3545633"><ele>1046.0</ele><time>2026-04-26T13:55:01.209Z</time></trkpt><trkpt lat="42.2798056" lon="13.3547374"><ele>1048.25</ele><time>2026-04-26T13:55:02.209Z</time></trkpt><trkpt lat="42.2798422" lon="13.3549385"><ele>1050.5</ele><time>2026-04-26T13:55:03.209Z</time></trkpt><trkpt lat="42.2798964" lon="13.3551244"><ele>1052.75</ele><time>2026-04-26T13:55:04.209Z</time></trkpt><trkpt lat="42.2799515" lon="13.3552791"><ele>1055.0</ele><time>2026-04-26T13:55:05.209Z</time></trkpt><trkpt lat="42.2800253" lon="13.3553915"><ele>1055.0</ele><time>2026-04-26T13:55:06.21Z</time></trkpt><trkpt lat="42.2801374" lon="13.3554203"><ele>1055.0</ele><time>2026-04-26T13:55:07.209Z</time></trkpt><trkpt lat="42.2802597" lon="13.3553928"><ele>1055.0</ele><time>2026-04-26T13:55:08.209Z</time></trkpt><trkpt lat="42.280393" lon="13.3553143"><ele>1055.0</ele><time>2026-04-26T13:55:09.209Z</time></trkpt><trkpt lat="42.2805293" lon="13.3552219"><ele>1057.2</ele><time>2026-04-26T13:55:10.209Z</time></trkpt><trkpt lat="42.2806478" lon="13.355143"><ele>1059.4</ele><time>2026-04-26T13:55:11.21Z</time></trkpt><trkpt lat="42.2807436" lon="13.3551063"><ele>1061.6</ele><time>2026-04-26T13:55:12.21Z</time></trkpt><trkpt lat="42.2808133" lon="13.3551426"><ele>1063.8</ele><time>2026-04-26T13:55:13.209Z</time></trkpt><trkpt lat="42.2808604" lon="13.3552328"><ele>1066.0</ele><time>2026-04-26T13:55:14.21Z</time></trkpt><trkpt lat="42.2808709" lon="13.3553689"><ele>1066.0</ele><time>2026-04-26T13:55:15.209Z</time></trkpt><trkpt lat="42.2808361" lon="13.3555225"><ele>1066.0</ele><time>2026-04-26T13:55:16.209Z</time></trkpt><trkpt lat="42.2807664" lon="13.3556947"><ele>1066.0</ele><time>2026-04-26T13:55:17.209Z</time></trkpt><trkpt lat="42.2806828" lon="13.3559006"><ele>1066.0</ele><time>2026-04-26T13:55:18.209Z</time></trkpt><trkpt lat="42.2805801" lon="13.3560868"><ele>1064.6666666666665</ele><time>2026-04-26T13:55:19.21Z</time></trkpt><trkpt lat="42.280487" lon="13.356271"><ele>1063.3333333333333</ele><time>2026-04-26T13:55:20.21Z</time></trkpt><trkpt lat="42.2804364" lon="13.3564771"><ele>1062.0</ele><time>2026-04-26T13:55:21.209Z</time></trkpt><trkpt lat="42.2804309" lon="13.3566672"><ele>1064.75</ele><time>2026-04-26T13:55:22.21Z</time></trkpt><trkpt lat="42.2804098" lon="13.3568417"><ele>1067.5</ele><time>2026-04-26T13:55:23.209Z</time></trkpt><trkpt lat="42.2803598" lon="13.3569865"><ele>1070.25</ele><time>2026-04-26T13:55:24.21Z</time></trkpt><trkpt lat="42.2802484" lon="13.3571047"><ele>1073.0</ele><time>2026-04-26T13:55:25.209Z</time></trkpt><trkpt lat="42.2801002" lon="13.3571729"><ele>1079.3333333333335</ele><time>2026-04-26T13:55:26.21Z</time></trkpt><trkpt lat="42.2799277" lon="13.3572499"><ele>1085.6666666666667</ele><time>2026-04-26T13:55:27.21Z</time></trkpt><trkpt lat="42.2797384" lon="13.3573063"><ele>1092.0</ele><time>2026-04-26T13:55:28.209Z</time></trkpt><trkpt lat="42.279534" lon="13.3573408"><ele>1092.0</ele><time>2026-04-26T13:55:29.209Z</time></trkpt><trkpt lat="42.2793364" lon="13.3573367"><ele>1092.0</ele><time>2026-04-26T13:55:30.21Z</time></trkpt><trkpt lat="42.2791834" lon="13.3573403"><ele>1092.0</ele><time>2026-04-26T13:55:31.209Z</time></trkpt><trkpt lat="42.2790419" lon="13.3573844"><ele>1086.6666666666667</ele><time>2026-04-26T13:55:32.21Z</time></trkpt><trkpt lat="42.2789111" lon="13.3574835"><ele>1081.3333333333335</ele><time>2026-04-26T13:55:33.21Z</time></trkpt><trkpt lat="42.2787697" lon="13.3576388"><ele>1076.0</ele><time>2026-04-26T13:55:34.209Z</time></trkpt><trkpt lat="42.2786253" lon="13.357832"><ele>1076.0</ele><time>2026-04-26T13:55:35.209Z</time></trkpt><trkpt lat="42.2784862" lon="13.3580007"><ele>1076.0</ele><time>2026-04-26T13:55:36.209Z</time></trkpt><trkpt lat="42.2783635" lon="13.3581652"><ele>1076.0</ele><time>2026-04-26T13:55:37.209Z</time></trkpt><trkpt lat="42.2782845" lon="13.3583623"><ele>1082.3333333333335</ele><time>2026-04-26T13:55:38.209Z</time></trkpt><trkpt lat="42.2782514" lon="13.3585967"><ele>1088.6666666666667</ele><time>2026-04-26T13:55:39.209Z</time></trkpt><trkpt lat="42.2782497" lon="13.358829"><ele>1095.0</ele><time>2026-04-26T13:55:40.209Z</time></trkpt><trkpt lat="42.2782414" lon="13.3590205"><ele>1095.0</ele><time>2026-04-26T13:55:41.209Z</time></trkpt><trkpt lat="42.2781878" lon="13.3591881"><ele>1095.0</ele><time>2026-04-26T13:55:42.209Z</time></trkpt><trkpt lat="42.2780936" lon="13.3593445"><ele>1095.0</ele><time>2026-04-26T13:55:43.21Z</time></trkpt><trkpt lat="42.2779744" lon="13.3594757"><ele>1095.0</ele><time>2026-04-26T13:55:44.209Z</time></trkpt><trkpt lat="42.2778283" lon="13.3595596"><ele>1095.0</ele><time>2026-04-26T13:55:45.21Z</time></trkpt><trkpt lat="42.2776602" lon="13.3595955"><ele>1095.0</ele><time>2026-04-26T13:55:46.21Z</time></trkpt><trkpt lat="42.2774872" lon="13.3596223"><ele>1095.0</ele><time>2026-04-26T13:55:47.209Z</time></trkpt><trkpt lat="42.2773313" lon="13.359691"><ele>1100.0</ele><time>2026-04-26T13:55:48.209Z</time></trkpt><trkpt lat="42.2771893" lon="13.3598373"><ele>1105.0</ele><time>2026-04-26T13:55:49.209Z</time></trkpt><trkpt lat="42.2770461" lon="13.360009"><ele>1110.0</ele><time>2026-04-26T13:55:50.209Z</time></trkpt><trkpt lat="42.2768926" lon="13.3601674"><ele>1110.0</ele><time>2026-04-26T13:55:51.209Z</time></trkpt><trkpt lat="42.2767597" lon="13.3603153"><ele>1110.0</ele><time>2026-04-26T13:55:52.209Z</time></trkpt><trkpt lat="42.2766425" lon="13.3604433"><ele>1110.0</ele><time>2026-04-26T13:55:53.209Z</time></trkpt><trkpt lat="42.2765462" lon="13.3606047"><ele>1108.6666666666667</ele><time>2026-04-26T13:55:54.209Z</time></trkpt><trkpt lat="42.2764625" lon="13.3607977"><ele>1107.3333333333335</ele><time>2026-04-26T13:55:55.209Z</time></trkpt><trkpt lat="42.2763676" lon="13.3610148"><ele>1106.0</ele><time>2026-04-26T13:55:56.21Z</time></trkpt><trkpt lat="42.2762336" lon="13.3612681"><ele>1113.0</ele><time>2026-04-26T13:55:57.209Z</time></trkpt><trkpt lat="42.2761062" lon="13.3615064"><ele>1120.0</ele><time>2026-04-26T13:55:58.21Z</time></trkpt><trkpt lat="42.2759722" lon="13.3617412"><ele>1127.0</ele><time>2026-04-26T13:55:59.209Z</time></trkpt><trkpt lat="42.2758261" lon="13.3619411"><ele>1127.0</ele><time>2026-04-26T13:56:00.21Z</time></trkpt><trkpt lat="42.2756476" lon="13.3620826"><ele>1127.0</ele><time>2026-04-26T13:56:01.209Z</time></trkpt><trkpt lat="42.2754392" lon="13.3622358"><ele>1127.0</ele><time>2026-04-26T13:56:02.209Z</time></trkpt><trkpt lat="42.2752358" lon="13.3623935"><ele>1130.6666666666667</ele><time>2026-04-26T13:56:03.209Z</time></trkpt><trkpt lat="42.2750496" lon="13.3625386"><ele>1134.3333333333333</ele><time>2026-04-26T13:56:04.209Z</time></trkpt><trkpt lat="42.2748792" lon="13.3627056"><ele>1138.0</ele><time>2026-04-26T13:56:05.209Z</time></trkpt><trkpt lat="42.2747166" lon="13.3629091"><ele>1140.0</ele><time>2026-04-26T13:56:06.209Z</time></trkpt><trkpt lat="42.2745506" lon="13.3631601"><ele>1142.0</ele><time>2026-04-26T13:56:07.21Z</time></trkpt><trkpt lat="42.2743533" lon="13.3634051"><ele>1142.0</ele><time>2026-04-26T13:56:08.21Z</time></trkpt><trkpt lat="42.2741627" lon="13.363632"><ele>1142.0</ele><time>2026-04-26T13:56:09.209Z</time></trkpt><trkpt lat="42.2740015" lon="13.3638324"><ele>1143.6666666666667</ele><time>2026-04-26T13:56:10.21Z</time></trkpt><trkpt lat="42.2738583" lon="13.3640144"><ele>1145.3333333333333</ele><time>2026-04-26T13:56:11.209Z</time></trkpt><trkpt lat="42.2736931" lon="13.3641531"><ele>1147.0</ele><time>2026-04-26T13:56:12.209Z</time></trkpt><trkpt lat="42.2735092" lon="13.3642784"><ele>1147.0</ele><time>2026-04-26T13:56:13.209Z</time></trkpt><trkpt lat="42.2733318" lon="13.3644595"><ele>1147.0</ele><time>2026-04-26T13:56:14.209Z</time></trkpt><trkpt lat="42.2731902" lon="13.3646624"><ele>1147.0</ele><time>2026-04-26T13:56:15.209Z</time></trkpt><trkpt lat="42.2730851" lon="13.364876"><ele>1150.3333333333333</ele><time>2026-04-26T13:56:16.209Z</time></trkpt><trkpt lat="42.272984" lon="13.3650662"><ele>1153.6666666666667</ele><time>2026-04-26T13:56:17.21Z</time></trkpt><trkpt lat="42.2728627" lon="13.365207"><ele>1157.0</ele><time>2026-04-26T13:56:18.209Z</time></trkpt><trkpt lat="42.2727019" lon="13.3653064"><ele>1157.0</ele><time>2026-04-26T13:56:19.21Z</time></trkpt><trkpt lat="42.2725098" lon="13.3653866"><ele>1157.0</ele><time>2026-04-26T13:56:20.21Z</time></trkpt><trkpt lat="42.2723205" lon="13.3654904"><ele>1157.0</ele><time>2026-04-26T13:56:21.209Z</time></trkpt><trkpt lat="42.272133" lon="13.3656449"><ele>1159.6666666666667</ele><time>2026-04-26T13:56:22.209Z</time></trkpt><trkpt lat="42.2719669" lon="13.3658245"><ele>1162.3333333333333</ele><time>2026-04-26T13:56:23.21Z</time></trkpt><trkpt lat="42.2718236" lon="13.3660115"><ele>1165.0</ele><time>2026-04-26T13:56:24.209Z</time></trkpt><trkpt lat="42.2717194" lon="13.3662182"><ele>1171.6666666666665</ele><time>2026-04-26T13:56:25.209Z</time></trkpt><trkpt lat="42.2716388" lon="13.3664416"><ele>1178.3333333333333</ele><time>2026-04-26T13:56:26.209Z</time></trkpt><trkpt lat="42.2715753" lon="13.3666744"><ele>1185.0</ele><time>2026-04-26T13:56:27.209Z</time></trkpt><trkpt lat="42.2714752" lon="13.3669093"><ele>1184.0</ele><time>2026-04-26T13:56:28.209Z</time></trkpt><trkpt lat="42.2713299" lon="13.367133"><ele>1183.0</ele><time>2026-04-26T13:56:29.21Z</time></trkpt><trkpt lat="42.2711591" lon="13.3673547"><ele>1183.0</ele><time>2026-04-26T13:56:30.209Z</time></trkpt><trkpt lat="42.2709729" lon="13.3675764"><ele>1183.0</ele><time>2026-04-26T13:56:31.209Z</time></trkpt><trkpt lat="42.2707907" lon="13.3677577"><ele>1183.0</ele><time>2026-04-26T13:56:32.209Z</time></trkpt><trkpt lat="42.2706412" lon="13.3679183"><ele>1183.0</ele><time>2026-04-26T13:56:33.209Z</time></trkpt><trkpt lat="42.2705303" lon="13.3681114"><ele>1183.0</ele><time>2026-04-26T13:56:34.209Z</time></trkpt><trkpt lat="42.270449" lon="13.3683339"><ele>1180.6666666666665</ele><time>2026-04-26T13:56:35.21Z</time></trkpt><trkpt lat="42.2703771" lon="13.3686088"><ele>1178.3333333333333</ele><time>2026-04-26T13:56:36.209Z</time></trkpt><trkpt lat="42.270294" lon="13.3688961"><ele>1176.0</ele><time>2026-04-26T13:56:37.209Z</time></trkpt><trkpt lat="42.2702209" lon="13.3691756"><ele>1180.6666666666667</ele><time>2026-04-26T13:56:38.209Z</time></trkpt><trkpt lat="42.2701821" lon="13.3694463"><ele>1185.3333333333335</ele><time>2026-04-26T13:56:39.209Z</time></trkpt><trkpt lat="42.2701481" lon="13.3697075"><ele>1190.0</ele><time>2026-04-26T13:56:40.209Z</time></trkpt><trkpt lat="42.2700865" lon="13.3699554"><ele>1192.6666666666667</ele><time>2026-04-26T13:56:41.21Z</time></trkpt><trkpt lat="42.2699811" lon="13.3701778"><ele>1195.3333333333333</ele><time>2026-04-26T13:56:42.209Z</time></trkpt><trkpt lat="42.2698315" lon="13.3703802"><ele>1198.0</ele><time>2026-04-26T13:56:43.209Z</time></trkpt><trkpt lat="42.2696663" lon="13.370549"><ele>1198.0</ele><time>2026-04-26T13:56:44.209Z</time></trkpt><trkpt lat="42.2695211" lon="13.3706943"><ele>1198.0</ele><time>2026-04-26T13:56:45.209Z</time></trkpt><trkpt lat="42.2694046" lon="13.3708595"><ele>1198.0</ele><time>2026-04-26T13:56:46.209Z</time></trkpt><trkpt lat="42.2693357" lon="13.371078"><ele>1198.0</ele><time>2026-04-26T13:56:47.209Z</time></trkpt><trkpt lat="42.2692918" lon="13.3713286"><ele>1198.0</ele><time>2026-04-26T13:56:48.209Z</time></trkpt><trkpt lat="42.269242" lon="13.3715779"><ele>1198.0</ele><time>2026-04-26T13:56:49.209Z</time></trkpt><trkpt lat="42.2691838" lon="13.3718089"><ele>1201.6666666666665</ele><time>2026-04-26T13:56:50.209Z</time></trkpt><trkpt lat="42.2690831" lon="13.3720236"><ele>1205.3333333333333</ele><time>2026-04-26T13:56:51.209Z</time></trkpt><trkpt lat="42.2689411" lon="13.3722322"><ele>1209.0</ele><time>2026-04-26T13:56:52.209Z</time></trkpt><trkpt lat="42.2687804" lon="13.3724563"><ele>1209.0</ele><time>2026-04-26T13:56:53.209Z</time></trkpt><trkpt lat="42.2686237" lon="13.372691"><ele>1209.0</ele><time>2026-04-26T13:56:54.209Z</time></trkpt><trkpt lat="42.2684899" lon="13.3729347"><ele>1215.0</ele><time>2026-04-26T13:56:55.21Z</time></trkpt><trkpt lat="42.2683864" lon="13.3731919"><ele>1221.0</ele><time>2026-04-26T13:56:56.209Z</time></trkpt><trkpt lat="42.2683116" lon="13.3734716"><ele>1227.0</ele><time>2026-04-26T13:56:57.209Z</time></trkpt><trkpt lat="42.2682652" lon="13.373763"><ele>1233.0</ele><time>2026-04-26T13:56:58.209Z</time></trkpt><trkpt lat="42.2682298" lon="13.3740773"><ele>1239.0</ele><time>2026-04-26T13:56:59.209Z</time></trkpt><trkpt lat="42.2681778" lon="13.3744031"><ele>1231.0</ele><time>2026-04-26T13:57:00.209Z</time></trkpt><trkpt lat="42.2680829" lon="13.3747389"><ele>1223.0</ele><time>2026-04-26T13:57:01.209Z</time></trkpt><trkpt lat="42.2679673" lon="13.3750875"><ele>1223.0</ele><time>2026-04-26T13:57:02.21Z</time></trkpt><trkpt lat="42.2678532" lon="13.3754022"><ele>1223.0</ele><time>2026-04-26T13:57:03.21Z</time></trkpt><trkpt lat="42.2677411" lon="13.3757035"><ele>1232.5</ele><time>2026-04-26T13:57:04.21Z</time></trkpt><trkpt lat="42.2675997" lon="13.3759885"><ele>1242.0</ele><time>2026-04-26T13:57:05.209Z</time></trkpt><trkpt lat="42.2674157" lon="13.3762732"><ele>1241.5</ele><time>2026-04-26T13:57:06.21Z</time></trkpt><trkpt lat="42.2672417" lon="13.3765371"><ele>1241.0</ele><time>2026-04-26T13:57:07.21Z</time></trkpt><trkpt lat="42.2670908" lon="13.3767763"><ele>1241.0</ele><time>2026-04-26T13:57:08.209Z</time></trkpt><trkpt lat="42.2669526" lon="13.3769788"><ele>1241.0</ele><time>2026-04-26T13:57:09.21Z</time></trkpt><trkpt lat="42.2668371" lon="13.3771641"><ele>1241.0</ele><time>2026-04-26T13:57:10.209Z</time></trkpt><trkpt lat="42.2667494" lon="13.3773575"><ele>1246.6666666666667</ele><time>2026-04-26T13:57:11.209Z</time></trkpt><trkpt lat="42.266696" lon="13.3775769"><ele>1252.3333333333333</ele><time>2026-04-26T13:57:12.209Z</time></trkpt><trkpt lat="42.2666746" lon="13.3778366"><ele>1258.0</ele><time>2026-04-26T13:57:13.209Z</time></trkpt><trkpt lat="42.2666522" lon="13.3781428"><ele>1263.0</ele><time>2026-04-26T13:57:14.209Z</time></trkpt><trkpt lat="42.2666201" lon="13.3784541"><ele>1268.0</ele><time>2026-04-26T13:57:15.209Z</time></trkpt><trkpt lat="42.2665827" lon="13.3787813"><ele>1271.5</ele><time>2026-04-26T13:57:16.209Z</time></trkpt><trkpt lat="42.2665518" lon="13.3791018"><ele>1275.0</ele><time>2026-04-26T13:57:17.209Z</time></trkpt><trkpt lat="42.266518" lon="13.3793995"><ele>1275.0</ele><time>2026-04-26T13:57:18.209Z</time></trkpt><trkpt lat="42.2664886" lon="13.379672"><ele>1275.0</ele><time>2026-04-26T13:57:19.21Z</time></trkpt><trkpt lat="42.2664487" lon="13.3799371"><ele>1275.0</ele><time>2026-04-26T13:57:20.209Z</time></trkpt><trkpt lat="42.2663808" lon="13.3801946"><ele>1273.0</ele><time>2026-04-26T13:57:21.209Z</time></trkpt><trkpt lat="42.2662971" lon="13.3804603"><ele>1271.0</ele><time>2026-04-26T13:57:22.209Z</time></trkpt><trkpt lat="42.2662345" lon="13.380743"><ele>1269.0</ele><time>2026-04-26T13:57:23.209Z</time></trkpt><trkpt lat="42.266201" lon="13.3810049"><ele>1269.0</ele><time>2026-04-26T13:57:24.209Z</time></trkpt><trkpt lat="42.266157" lon="13.3812148"><ele>1269.0</ele><time>2026-04-26T13:57:25.209Z</time></trkpt><trkpt lat="42.2660854" lon="13.3813862"><ele>1269.0</ele><time>2026-04-26T13:57:26.209Z</time></trkpt><trkpt lat="42.2659842" lon="13.3815072"><ele>1269.0</ele><time>2026-04-26T13:57:27.209Z</time></trkpt><trkpt lat="42.2658918" lon="13.3816206"><ele>1271.25</ele><time>2026-04-26T13:57:28.209Z</time></trkpt><trkpt lat="42.2659034" lon="13.3818103"><ele>1273.5</ele><time>2026-04-26T13:57:29.209Z</time></trkpt><trkpt lat="42.2659764" lon="13.3819837"><ele>1275.75</ele><time>2026-04-26T13:57:30.209Z</time></trkpt><trkpt lat="42.2660355" lon="13.3821612"><ele>1278.0</ele><time>2026-04-26T13:57:31.209Z</time></trkpt><trkpt lat="42.2660708" lon="13.3823505"><ele>1279.25</ele><time>2026-04-26T13:57:32.209Z</time></trkpt><trkpt lat="42.2660671" lon="13.382531"><ele>1280.5</ele><time>2026-04-26T13:57:33.209Z</time></trkpt><trkpt lat="42.2660079" lon="13.3827198"><ele>1281.75</ele><time>2026-04-26T13:57:34.209Z</time></trkpt><trkpt lat="42.2659146" lon="13.3828872"><ele>1283.0</ele><time>2026-04-26T13:57:35.209Z</time></trkpt><trkpt lat="42.2657805" lon="13.3830893"><ele>1282.5</ele><time>2026-04-26T13:57:36.21Z</time></trkpt><trkpt lat="42.2656002" lon="13.3833025"><ele>1282.0</ele><time>2026-04-26T13:57:37.209Z</time></trkpt><trkpt lat="42.2654279" lon="13.3834826"><ele>1282.0</ele><time>2026-04-26T13:57:38.209Z</time></trkpt><trkpt lat="42.2652741" lon="13.3836363"><ele>1282.0</ele><time>2026-04-26T13:57:39.209Z</time></trkpt><trkpt lat="42.2651547" lon="13.3837528"><ele>1282.0</ele><time>2026-04-26T13:57:40.21Z</time></trkpt><trkpt lat="42.2650544" lon="13.3838901"><ele>1288.6666666666665</ele><time>2026-04-26T13:57:41.209Z</time></trkpt><trkpt lat="42.264998" lon="13.3840794"><ele>1295.3333333333333</ele><time>2026-04-26T13:57:42.21Z</time></trkpt><trkpt lat="42.2649516" lon="13.3842868"><ele>1302.0</ele><time>2026-04-26T13:57:43.209Z</time></trkpt><trkpt lat="42.2648743" lon="13.3844578"><ele>1300.75</ele><time>2026-04-26T13:57:44.21Z</time></trkpt><trkpt lat="42.2647715" lon="13.384591"><ele>1299.5</ele><time>2026-04-26T13:57:45.209Z</time></trkpt><trkpt lat="42.264677" lon="13.3847102"><ele>1298.25</ele><time>2026-04-26T13:57:46.216Z</time></trkpt><trkpt lat="42.2646247" lon="13.3848534"><ele>1297.0</ele><time>2026-04-26T13:57:47.216Z</time></trkpt><trkpt lat="42.26463" lon="13.3850112"><ele>1297.0</ele><time>2026-04-26T13:57:48.216Z</time></trkpt><trkpt lat="42.2646347" lon="13.3851639"><ele>1297.0</ele><time>2026-04-26T13:57:49.216Z</time></trkpt><trkpt lat="42.26461" lon="13.385307"><ele>1297.0</ele><time>2026-04-26T13:57:50.217Z</time></trkpt><trkpt lat="42.2645265" lon="13.3854456"><ele>1297.0</ele><time>2026-04-26T13:57:51.216Z</time></trkpt><trkpt lat="42.2643983" lon="13.3855949"><ele>1302.0</ele><time>2026-04-26T13:57:52.217Z</time></trkpt><trkpt lat="42.2642729" lon="13.3857932"><ele>1307.0</ele><time>2026-04-26T13:57:53.216Z</time></trkpt><trkpt lat="42.2641295" lon="13.3860304"><ele>1312.0</ele><time>2026-04-26T13:57:54.216Z</time></trkpt><trkpt lat="42.2639736" lon="13.3862667"><ele>1312.0</ele><time>2026-04-26T13:57:55.216Z</time></trkpt><trkpt lat="42.2638369" lon="13.3864927"><ele>1312.0</ele><time>2026-04-26T13:57:56.216Z</time></trkpt><trkpt lat="42.2637157" lon="13.3867203"><ele>1312.0</ele><time>2026-04-26T13:57:57.217Z</time></trkpt><trkpt lat="42.2635952" lon="13.3869589"><ele>1322.0</ele><time>2026-04-26T13:57:58.216Z</time></trkpt><trkpt lat="42.26345" lon="13.3871934"><ele>1332.0</ele><time>2026-04-26T13:57:59.216Z</time></trkpt><trkpt lat="42.2632805" lon="13.3874172"><ele>1322.5</ele><time>2026-04-26T13:58:00.216Z</time></trkpt><trkpt lat="42.2631095" lon="13.3876477"><ele>1313.0</ele><time>2026-04-26T13:58:01.216Z</time></trkpt><trkpt lat="42.2629441" lon="13.3878907"><ele>1319.6666666666667</ele><time>2026-04-26T13:58:02.216Z</time></trkpt><trkpt lat="42.2627861" lon="13.3881222"><ele>1326.3333333333333</ele><time>2026-04-26T13:58:03.216Z</time></trkpt><trkpt lat="42.2626529" lon="13.3883171"><ele>1333.0</ele><time>2026-04-26T13:58:04.216Z</time></trkpt><trkpt lat="42.2625437" lon="13.3885087"><ele>1333.0</ele><time>2026-04-26T13:58:05.217Z</time></trkpt><trkpt lat="42.2624469" lon="13.3886934"><ele>1333.0</ele><time>2026-04-26T13:58:06.216Z</time></trkpt><trkpt lat="42.2623977" lon="13.3888936"><ele>1333.0</ele><time>2026-04-26T13:58:07.216Z</time></trkpt><trkpt lat="42.262385" lon="13.3891137"><ele>1336.3333333333333</ele><time>2026-04-26T13:58:08.216Z</time></trkpt><trkpt lat="42.262374" lon="13.3893405"><ele>1339.6666666666667</ele><time>2026-04-26T13:58:09.216Z</time></trkpt><trkpt lat="42.2623311" lon="13.3895468"><ele>1343.0</ele><time>2026-04-26T13:58:10.216Z</time></trkpt><trkpt lat="42.2622464" lon="13.3897691"><ele>1343.0</ele><time>2026-04-26T13:58:11.216Z</time></trkpt><trkpt lat="42.2621435" lon="13.3899691"><ele>1343.0</ele><time>2026-04-26T13:58:12.217Z</time></trkpt><trkpt lat="42.2620235" lon="13.3901483"><ele>1343.0</ele><time>2026-04-26T13:58:13.216Z</time></trkpt><trkpt lat="42.2618792" lon="13.3903111"><ele>1343.0</ele><time>2026-04-26T13:58:14.216Z</time></trkpt><trkpt lat="42.2617378" lon="13.3904419"><ele>1343.0</ele><time>2026-04-26T13:58:15.216Z</time></trkpt><trkpt lat="42.2615975" lon="13.390543"><ele>1343.0</ele><time>2026-04-26T13:58:16.216Z</time></trkpt><trkpt lat="42.2614716" lon="13.3906154"><ele>1343.75</ele><time>2026-04-26T13:58:17.216Z</time></trkpt><trkpt lat="42.2613735" lon="13.3907053"><ele>1344.5</ele><time>2026-04-26T13:58:18.216Z</time></trkpt><trkpt lat="42.2613216" lon="13.3908432"><ele>1345.25</ele><time>2026-04-26T13:58:19.216Z</time></trkpt><trkpt lat="42.2613216" lon="13.3909923"><ele>1346.0</ele><time>2026-04-26T13:58:20.216Z</time></trkpt><trkpt lat="42.2613485" lon="13.3911652"><ele>1347.3333333333335</ele><time>2026-04-26T13:58:21.217Z</time></trkpt><trkpt lat="42.2613892" lon="13.3913421"><ele>1348.6666666666667</ele><time>2026-04-26T13:58:22.216Z</time></trkpt><trkpt lat="42.2614568" lon="13.3915472"><ele>1350.0</ele><time>2026-04-26T13:58:23.216Z</time></trkpt><trkpt lat="42.2615098" lon="13.3917456"><ele>1353.25</ele><time>2026-04-26T13:58:24.216Z</time></trkpt><trkpt lat="42.2615106" lon="13.3919255"><ele>1356.5</ele><time>2026-04-26T13:58:25.217Z</time></trkpt><trkpt lat="42.2614839" lon="13.3921099"><ele>1359.75</ele><time>2026-04-26T13:58:26.216Z</time></trkpt><trkpt lat="42.2613977" lon="13.3922468"><ele>1363.0</ele><time>2026-04-26T13:58:27.216Z</time></trkpt><trkpt lat="42.2612668" lon="13.3923626"><ele>1363.0</ele><time>2026-04-26T13:58:28.216Z</time></trkpt><trkpt lat="42.261122" lon="13.3924539"><ele>1363.0</ele><time>2026-04-26T13:58:29.216Z</time></trkpt><trkpt lat="42.2609916" lon="13.3925486"><ele>1363.0</ele><time>2026-04-26T13:58:30.216Z</time></trkpt><trkpt lat="42.2609032" lon="13.3926694"><ele>1363.0</ele><time>2026-04-26T13:58:31.216Z</time></trkpt><trkpt lat="42.2608546" lon="13.3928526"><ele>1365.6666666666665</ele><time>2026-04-26T13:58:32.216Z</time></trkpt><trkpt lat="42.2608246" lon="13.393072"><ele>1368.3333333333333</ele><time>2026-04-26T13:58:33.216Z</time></trkpt><trkpt lat="42.2607902" lon="13.3933189"><ele>1371.0</ele><time>2026-04-26T13:58:34.216Z</time></trkpt><trkpt lat="42.2607205" lon="13.393562"><ele>1371.0</ele><time>2026-04-26T13:58:35.217Z</time></trkpt><trkpt lat="42.260636" lon="13.3938075"><ele>1371.0</ele><time>2026-04-26T13:58:36.216Z</time></trkpt><trkpt lat="42.260571" lon="13.3940495"><ele>1371.0</ele><time>2026-04-26T13:58:37.217Z</time></trkpt><trkpt lat="42.2605223" lon="13.3942689"><ele>1371.5</ele><time>2026-04-26T13:58:38.216Z</time></trkpt><trkpt lat="42.2604755" lon="13.39447"><ele>1372.0</ele><time>2026-04-26T13:58:39.216Z</time></trkpt><trkpt lat="42.2604176" lon="13.3946523"><ele>1372.5</ele><time>2026-04-26T13:58:40.217Z</time></trkpt><trkpt lat="42.2603575" lon="13.3947778"><ele>1373.0</ele><time>2026-04-26T13:58:41.216Z</time></trkpt><trkpt lat="42.2602698" lon="13.3948522"><ele>1373.5</ele><time>2026-04-26T13:58:42.217Z</time></trkpt><trkpt lat="42.2601655" lon="13.3949023"><ele>1374.0</ele><time>2026-04-26T13:58:43.216Z</time></trkpt><trkpt lat="42.2600582" lon="13.3948973"><ele>1374.5</ele><time>2026-04-26T13:58:44.216Z</time></trkpt><trkpt lat="42.2599416" lon="13.3948625"><ele>1375.0</ele><time>2026-04-26T13:58:45.216Z</time></trkpt><trkpt lat="42.2598252" lon="13.3948047"><ele>1380.5</ele><time>2026-04-26T13:58:46.216Z</time></trkpt><trkpt lat="42.2597265" lon="13.3947289"><ele>1386.0</ele><time>2026-04-26T13:58:47.216Z</time></trkpt><trkpt lat="42.2596478" lon="13.3946176"><ele>1391.5</ele><time>2026-04-26T13:58:48.217Z</time></trkpt><trkpt lat="42.2595987" lon="13.3944761"><ele>1397.0</ele><time>2026-04-26T13:58:49.216Z</time></trkpt><trkpt lat="42.259583" lon="13.3943052"><ele>1397.5</ele><time>2026-04-26T13:58:50.217Z</time></trkpt><trkpt lat="42.2595807" lon="13.3941287"><ele>1398.0</ele><time>2026-04-26T13:58:51.216Z</time></trkpt><trkpt lat="42.259585" lon="13.3939383"><ele>1398.5</ele><time>2026-04-26T13:58:52.217Z</time></trkpt><trkpt lat="42.2595817" lon="13.3937514"><ele>1399.0</ele><time>2026-04-26T13:58:53.216Z</time></trkpt><trkpt lat="42.2595853" lon="13.3935527"><ele>1399.75</ele><time>2026-04-26T13:58:54.216Z</time></trkpt><trkpt lat="42.2595896" lon="13.393351"><ele>1400.5</ele><time>2026-04-26T13:58:55.216Z</time></trkpt><trkpt lat="42.2595849" lon="13.3931466"><ele>1401.25</ele><time>2026-04-26T13:58:56.216Z</time></trkpt><trkpt lat="42.2595848" lon="13.3929479"><ele>1402.0</ele><time>2026-04-26T13:58:57.217Z</time></trkpt><trkpt lat="42.2595796" lon="13.3927558"><ele>1402.0</ele><time>2026-04-26T13:58:58.216Z</time></trkpt><trkpt lat="42.2595687" lon="13.392573"><ele>1402.0</ele><time>2026-04-26T13:58:59.216Z</time></trkpt><trkpt lat="42.2595636" lon="13.3923924"><ele>1402.0</ele><time>2026-04-26T13:59:00.216Z</time></trkpt><trkpt lat="42.2595545" lon="13.3922223"><ele>1402.0</ele><time>2026-04-26T13:59:01.216Z</time></trkpt><trkpt lat="42.2595491" lon="13.3920627"><ele>1400.6</ele><time>2026-04-26T13:59:02.216Z</time></trkpt><trkpt lat="42.2595369" lon="13.3919175"><ele>1399.1999999999998</ele><time>2026-04-26T13:59:03.216Z</time></trkpt><trkpt lat="42.259534" lon="13.391797"><ele>1397.8</ele><time>2026-04-26T13:59:04.217Z</time></trkpt><trkpt lat="42.2595304" lon="13.391694"><ele>1396.4</ele><time>2026-04-26T13:59:05.216Z</time></trkpt><trkpt lat="42.2594998" lon="13.3915417"><ele>1395.0</ele><time>2026-04-26T13:59:07.216Z</time></trkpt><trkpt lat="42.2594148" lon="13.3914491"><ele>1395.0</ele><time>2026-04-26T13:59:09.216Z</time></trkpt><trkpt lat="42.2593519" lon="13.3914195"><ele>1395.0</ele><time>2026-04-26T13:59:10.217Z</time></trkpt><trkpt lat="42.2592866" lon="13.3914061"><ele>1395.0</ele><time>2026-04-26T13:59:11.216Z</time></trkpt><trkpt lat="42.2592176" lon="13.3913968"><ele>1395.0</ele><time>2026-04-26T13:59:12.216Z</time></trkpt><trkpt lat="42.2591461" lon="13.3913782"><ele>1395.0</ele><time>2026-04-26T13:59:13.216Z</time></trkpt><trkpt lat="42.2590829" lon="13.3913514"><ele>1395.0</ele><time>2026-04-26T13:59:14.216Z</time></trkpt><trkpt lat="42.259019" lon="13.3913395"><ele>1395.0</ele><time>2026-04-26T13:59:15.217Z</time></trkpt><trkpt lat="42.2589479" lon="13.3913386"><ele>1394.5714285714287</ele><time>2026-04-26T13:59:16.217Z</time></trkpt><trkpt lat="42.2588768" lon="13.3913506"><ele>1394.142857142857</ele><time>2026-04-26T13:59:17.216Z</time></trkpt><trkpt lat="42.2588103" lon="13.3913717"><ele>1393.7142857142858</ele><time>2026-04-26T13:59:18.217Z</time></trkpt><trkpt lat="42.2587433" lon="13.3914006"><ele>1393.2857142857142</ele><time>2026-04-26T13:59:19.216Z</time></trkpt><trkpt lat="42.2586759" lon="13.3914378"><ele>1392.857142857143</ele><time>2026-04-26T13:59:20.216Z</time></trkpt><trkpt lat="42.2586149" lon="13.3914848"><ele>1392.4285714285713</ele><time>2026-04-26T13:59:21.216Z</time></trkpt><trkpt lat="42.2585564" lon="13.3915359"><ele>1392.0</ele><time>2026-04-26T13:59:22.217Z</time></trkpt><trkpt lat="42.258493" lon="13.3915926"><ele>1392.0</ele><time>2026-04-26T13:59:23.216Z</time></trkpt><trkpt lat="42.2584326" lon="13.3916457"><ele>1392.0</ele><time>2026-04-26T13:59:24.216Z</time></trkpt><trkpt lat="42.2583748" lon="13.3917182"><ele>1392.0</ele><time>2026-04-26T13:59:25.216Z</time></trkpt><trkpt lat="42.2583138" lon="13.391797"><ele>1392.0</ele><time>2026-04-26T13:59:26.217Z</time></trkpt><trkpt lat="42.2582552" lon="13.3918948"><ele>1392.0</ele><time>2026-04-26T13:59:27.216Z</time></trkpt><trkpt lat="42.258197" lon="13.3920071"><ele>1392.0</ele><time>2026-04-26T13:59:28.216Z</time></trkpt><trkpt lat="42.2581349" lon="13.3921269"><ele>1394.75</ele><time>2026-04-26T13:59:29.216Z</time></trkpt><trkpt lat="42.2580764" lon="13.3922685"><ele>1397.5</ele><time>2026-04-26T13:59:30.216Z</time></trkpt><trkpt lat="42.2580019" lon="13.3924354"><ele>1400.25</ele><time>2026-04-26T13:59:31.217Z</time></trkpt><trkpt lat="42.2579219" lon="13.3925887"><ele>1403.0</ele><time>2026-04-26T13:59:32.216Z</time></trkpt><trkpt lat="42.2578334" lon="13.3927185"><ele>1403.0</ele><time>2026-04-26T13:59:33.216Z</time></trkpt><trkpt lat="42.2577344" lon="13.3928038"><ele>1403.0</ele><time>2026-04-26T13:59:34.216Z</time></trkpt><trkpt lat="42.2576354" lon="13.3928349"><ele>1403.0</ele><time>2026-04-26T13:59:35.216Z</time></trkpt><trkpt lat="42.2575329" lon="13.3928032"><ele>1403.0</ele><time>2026-04-26T13:59:36.216Z</time></trkpt><trkpt lat="42.2574484" lon="13.3927372"><ele>1403.0</ele><time>2026-04-26T13:59:37.216Z</time></trkpt><trkpt lat="42.2573724" lon="13.3926244"><ele>1403.0</ele><time>2026-04-26T13:59:38.216Z</time></trkpt><trkpt lat="42.2572933" lon="13.392483"><ele>1403.0</ele><time>2026-04-26T13:59:39.216Z</time></trkpt><trkpt lat="42.2571945" lon="13.3923363"><ele>1403.0</ele><time>2026-04-26T13:59:40.216Z</time></trkpt><trkpt lat="42.2571102" lon="13.3922009"><ele>1403.0</ele><time>2026-04-26T13:59:41.216Z</time></trkpt><trkpt lat="42.2570586" lon="13.3920691"><ele>1403.8000000000002</ele><time>2026-04-26T13:59:42.216Z</time></trkpt><trkpt lat="42.2570167" lon="13.3919465"><ele>1404.6</ele><time>2026-04-26T13:59:43.216Z</time></trkpt><trkpt lat="42.2569493" lon="13.391868"><ele>1405.4</ele><time>2026-04-26T13:59:44.216Z</time></trkpt><trkpt lat="42.2568794" lon="13.3918298"><ele>1406.1999999999998</ele><time>2026-04-26T13:59:45.216Z</time></trkpt><trkpt lat="42.256785" lon="13.3918701"><ele>1407.0</ele><time>2026-04-26T13:59:46.217Z</time></trkpt><trkpt lat="42.2566849" lon="13.3919508"><ele>1407.0</ele><time>2026-04-26T13:59:47.216Z</time></trkpt><trkpt lat="42.2565763" lon="13.3920695"><ele>1407.0</ele><time>2026-04-26T13:59:48.216Z</time></trkpt><trkpt lat="42.2564418" lon="13.3921881"><ele>1407.0</ele><time>2026-04-26T13:59:49.217Z</time></trkpt><trkpt lat="42.2562894" lon="13.3923166"><ele>1409.6666666666667</ele><time>2026-04-26T13:59:50.217Z</time></trkpt><trkpt lat="42.2561319" lon="13.3924227"><ele>1412.3333333333335</ele><time>2026-04-26T13:59:51.216Z</time></trkpt><trkpt lat="42.2559778" lon="13.392497"><ele>1415.0</ele><time>2026-04-26T13:59:52.216Z</time></trkpt><trkpt lat="42.2558278" lon="13.3925786"><ele>1415.0</ele><time>2026-04-26T13:59:53.216Z</time></trkpt><trkpt lat="42.2556975" lon="13.3927087"><ele>1415.0</ele><time>2026-04-26T13:59:54.217Z</time></trkpt><trkpt lat="42.2555747" lon="13.392902"><ele>1415.0</ele><time>2026-04-26T13:59:55.216Z</time></trkpt><trkpt lat="42.2554488" lon="13.3931414"><ele>1412.5</ele><time>2026-04-26T13:59:56.216Z</time></trkpt><trkpt lat="42.2553154" lon="13.3934073"><ele>1410.0</ele><time>2026-04-26T13:59:57.217Z</time></trkpt><trkpt lat="42.2551543" lon="13.3936676"><ele>1420.5</ele><time>2026-04-26T13:59:58.217Z</time></trkpt><trkpt lat="42.2549807" lon="13.3939349"><ele>1431.0</ele><time>2026-04-26T13:59:59.216Z</time></trkpt><trkpt lat="42.2548034" lon="13.3942253"><ele>1428.0</ele><time>2026-04-26T14:00:00.217Z</time></trkpt><trkpt lat="42.2546241" lon="13.3945381"><ele>1425.0</ele><time>2026-04-26T14:00:01.216Z</time></trkpt><trkpt lat="42.2544638" lon="13.3948753"><ele>1425.0</ele><time>2026-04-26T14:00:02.217Z</time></trkpt><trkpt lat="42.254308" lon="13.3952089"><ele>1425.0</ele><time>2026-04-26T14:00:03.216Z</time></trkpt><trkpt lat="42.2541468" lon="13.3955286"><ele>1424.0</ele><time>2026-04-26T14:00:04.216Z</time></trkpt><trkpt lat="42.2539645" lon="13.3958261"><ele>1423.0</ele><time>2026-04-26T14:00:05.217Z</time></trkpt><trkpt lat="42.2537563" lon="13.3961168"><ele>1434.5</ele><time>2026-04-26T14:00:06.216Z</time></trkpt><trkpt lat="42.2535358" lon="13.3964237"><ele>1446.0</ele><time>2026-04-26T14:00:07.216Z</time></trkpt><trkpt lat="42.2533149" lon="13.3967471"><ele>1442.5</ele><time>2026-04-26T14:00:08.217Z</time></trkpt><trkpt lat="42.2531044" lon="13.3970684"><ele>1439.0</ele><time>2026-04-26T14:00:09.216Z</time></trkpt><trkpt lat="42.2529082" lon="13.3973718"><ele>1439.0</ele><time>2026-04-26T14:00:10.216Z</time></trkpt><trkpt lat="42.2527265" lon="13.3976706"><ele>1439.0</ele><time>2026-04-26T14:00:11.216Z</time></trkpt><trkpt lat="42.2525512" lon="13.3979832"><ele>1434.0</ele><time>2026-04-26T14:00:12.216Z</time></trkpt><trkpt lat="42.2523887" lon="13.3983012"><ele>1429.0</ele><time>2026-04-26T14:00:13.216Z</time></trkpt><trkpt lat="42.2522452" lon="13.3986221"><ele>1438.5</ele><time>2026-04-26T14:00:14.216Z</time></trkpt><trkpt lat="42.2521021" lon="13.3989469"><ele>1448.0</ele><time>2026-04-26T14:00:15.216Z</time></trkpt><trkpt lat="42.2519431" lon="13.399256"><ele>1448.0</ele><time>2026-04-26T14:00:16.216Z</time></trkpt><trkpt lat="42.2517576" lon="13.3995579"><ele>1448.0</ele><time>2026-04-26T14:00:17.217Z</time></trkpt><trkpt lat="42.2515633" lon="13.3998583"><ele>1446.0</ele><time>2026-04-26T14:00:18.217Z</time></trkpt><trkpt lat="42.2513744" lon="13.4001762"><ele>1444.0</ele><time>2026-04-26T14:00:19.216Z</time></trkpt><trkpt lat="42.25117" lon="13.4004919"><ele>1455.5</ele><time>2026-04-26T14:00:20.216Z</time></trkpt><trkpt lat="42.2509621" lon="13.4007906"><ele>1467.0</ele><time>2026-04-26T14:00:21.216Z</time></trkpt><trkpt lat="42.2507651" lon="13.4010775"><ele>1467.0</ele><time>2026-04-26T14:00:22.217Z</time></trkpt><trkpt lat="42.2505593" lon="13.401347"><ele>1467.0</ele><time>2026-04-26T14:00:23.216Z</time></trkpt><trkpt lat="42.2503316" lon="13.4016152"><ele>1467.0</ele><time>2026-04-26T14:00:24.217Z</time></trkpt><trkpt lat="42.2501042" lon="13.4019017"><ele>1467.0</ele><time>2026-04-26T14:00:25.216Z</time></trkpt><trkpt lat="42.2498696" lon="13.4022078"><ele>1465.0</ele><time>2026-04-26T14:00:26.216Z</time></trkpt><trkpt lat="42.2496376" lon="13.4025294"><ele>1463.0</ele><time>2026-04-26T14:00:27.216Z</time></trkpt><trkpt lat="42.2494152" lon="13.4028502"><ele>1477.5</ele><time>2026-04-26T14:00:28.217Z</time></trkpt><trkpt lat="42.2492043" lon="13.403151"><ele>1492.0</ele><time>2026-04-26T14:00:29.216Z</time></trkpt><trkpt lat="42.2490077" lon="13.40344"><ele>1491.0</ele><time>2026-04-26T14:00:30.217Z</time></trkpt><trkpt lat="42.2488134" lon="13.4037133"><ele>1490.0</ele><time>2026-04-26T14:00:31.216Z</time></trkpt><trkpt lat="42.2486179" lon="13.4039857"><ele>1490.0</ele><time>2026-04-26T14:00:32.216Z</time></trkpt><trkpt lat="42.2484375" lon="13.4042642"><ele>1490.0</ele><time>2026-04-26T14:00:33.216Z</time></trkpt><trkpt lat="42.2482667" lon="13.4045532"><ele>1487.5</ele><time>2026-04-26T14:00:34.216Z</time></trkpt><trkpt lat="42.2481093" lon="13.4048317"><ele>1485.0</ele><time>2026-04-26T14:00:35.216Z</time></trkpt><trkpt lat="42.2479454" lon="13.4050912"><ele>1485.0</ele><time>2026-04-26T14:00:36.216Z</time></trkpt><trkpt lat="42.2477576" lon="13.4053303"><ele>1485.0</ele><time>2026-04-26T14:00:37.216Z</time></trkpt><trkpt lat="42.2475447" lon="13.4055689"><ele>1489.5</ele><time>2026-04-26T14:00:38.217Z</time></trkpt><trkpt lat="42.2473328" lon="13.4057827"><ele>1494.0</ele><time>2026-04-26T14:00:39.216Z</time></trkpt><trkpt lat="42.2471148" lon="13.4059745"><ele>1494.0</ele><time>2026-04-26T14:00:40.216Z</time></trkpt><trkpt lat="42.2468911" lon="13.4061609"><ele>1494.0</ele><time>2026-04-26T14:00:41.216Z</time></trkpt><trkpt lat="42.2466702" lon="13.406358"><ele>1498.5</ele><time>2026-04-26T14:00:42.216Z</time></trkpt><trkpt lat="42.2464578" lon="13.4065858"><ele>1503.0</ele><time>2026-04-26T14:00:43.217Z</time></trkpt><trkpt lat="42.2462639" lon="13.4068193"><ele>1503.0</ele><time>2026-04-26T14:00:44.216Z</time></trkpt><trkpt lat="42.2460795" lon="13.4070349"><ele>1503.0</ele><time>2026-04-26T14:00:45.216Z</time></trkpt><trkpt lat="42.2459053" lon="13.4072258"><ele>1503.6666666666667</ele><time>2026-04-26T14:00:46.216Z</time></trkpt><trkpt lat="42.245744" lon="13.4074202"><ele>1504.3333333333335</ele><time>2026-04-26T14:00:47.216Z</time></trkpt><trkpt lat="42.2455961" lon="13.4076341"><ele>1505.0</ele><time>2026-04-26T14:00:48.216Z</time></trkpt><trkpt lat="42.2454767" lon="13.4078919"><ele>1508.5</ele><time>2026-04-26T14:00:49.216Z</time></trkpt><trkpt lat="42.2453772" lon="13.4081965"><ele>1512.0</ele><time>2026-04-26T14:00:50.217Z</time></trkpt><trkpt lat="42.2452769" lon="13.4085287"><ele>1518.0</ele><time>2026-04-26T14:00:51.216Z</time></trkpt><trkpt lat="42.2451713" lon="13.4088754"><ele>1524.0</ele><time>2026-04-26T14:00:52.216Z</time></trkpt><trkpt lat="42.2450599" lon="13.4092215"><ele>1524.0</ele><time>2026-04-26T14:00:53.216Z</time></trkpt><trkpt lat="42.2449549" lon="13.4095507"><ele>1524.0</ele><time>2026-04-26T14:00:54.216Z</time></trkpt><trkpt lat="42.2448452" lon="13.4098668"><ele>1523.0</ele><time>2026-04-26T14:00:55.216Z</time></trkpt><trkpt lat="42.2447283" lon="13.4101596"><ele>1522.0</ele><time>2026-04-26T14:00:56.216Z</time></trkpt><trkpt lat="42.2445899" lon="13.4104411"><ele>1529.5</ele><time>2026-04-26T14:00:57.216Z</time></trkpt><trkpt lat="42.2444232" lon="13.4107183"><ele>1537.0</ele><time>2026-04-26T14:00:58.216Z</time></trkpt><trkpt lat="42.2442272" lon="13.4109892"><ele>1537.0</ele><time>2026-04-26T14:00:59.216Z</time></trkpt><trkpt lat="42.2440318" lon="13.411275"><ele>1537.0</ele><time>2026-04-26T14:01:00.216Z</time></trkpt><trkpt lat="42.2438322" lon="13.4115756"><ele>1538.5</ele><time>2026-04-26T14:01:01.217Z</time></trkpt><trkpt lat="42.2436304" lon="13.411875"><ele>1540.0</ele><time>2026-04-26T14:01:02.216Z</time></trkpt><trkpt lat="42.2434391" lon="13.4121625"><ele>1540.5</ele><time>2026-04-26T14:01:03.216Z</time></trkpt><trkpt lat="42.2432549" lon="13.4124326"><ele>1541.0</ele><time>2026-04-26T14:01:04.216Z</time></trkpt><trkpt lat="42.2430819" lon="13.4126791"><ele>1541.0</ele><time>2026-04-26T14:01:05.216Z</time></trkpt><trkpt lat="42.2429049" lon="13.4129146"><ele>1541.0</ele><time>2026-04-26T14:01:06.216Z</time></trkpt><trkpt lat="42.2427083" lon="13.4131304"><ele>1546.5</ele><time>2026-04-26T14:01:07.217Z</time></trkpt><trkpt lat="42.2425068" lon="13.4133221"><ele>1552.0</ele><time>2026-04-26T14:01:08.216Z</time></trkpt><trkpt lat="42.242294" lon="13.413507"><ele>1553.5</ele><time>2026-04-26T14:01:09.216Z</time></trkpt><trkpt lat="42.2420765" lon="13.4136834"><ele>1555.0</ele><time>2026-04-26T14:01:10.217Z</time></trkpt><trkpt lat="42.2418593" lon="13.4138574"><ele>1558.0</ele><time>2026-04-26T14:01:11.216Z</time></trkpt><trkpt lat="42.2416427" lon="13.4140289"><ele>1561.0</ele><time>2026-04-26T14:01:12.216Z</time></trkpt><trkpt lat="42.2414219" lon="13.4142154"><ele>1564.5</ele><time>2026-04-26T14:01:13.216Z</time></trkpt><trkpt lat="42.2411939" lon="13.4144077"><ele>1568.0</ele><time>2026-04-26T14:01:14.216Z</time></trkpt><trkpt lat="42.2409666" lon="13.4145968"><ele>1566.0</ele><time>2026-04-26T14:01:15.216Z</time></trkpt><trkpt lat="42.2407453" lon="13.4147795"><ele>1564.0</ele><time>2026-04-26T14:01:16.216Z</time></trkpt><trkpt lat="42.2405238" lon="13.4149616"><ele>1563.5</ele><time>2026-04-26T14:01:17.216Z</time></trkpt><trkpt lat="42.240295" lon="13.4151459"><ele>1563.0</ele><time>2026-04-26T14:01:18.216Z</time></trkpt><trkpt lat="42.2400728" lon="13.4153321"><ele>1563.5</ele><time>2026-04-26T14:01:19.216Z</time></trkpt><trkpt lat="42.2398487" lon="13.4155164"><ele>1564.0</ele><time>2026-04-26T14:01:20.216Z</time></trkpt><trkpt lat="42.2396289" lon="13.4157037"><ele>1564.0</ele><time>2026-04-26T14:01:21.216Z</time></trkpt><trkpt lat="42.2394014" lon="13.415894"><ele>1564.0</ele><time>2026-04-26T14:01:22.216Z</time></trkpt><trkpt lat="42.2391728" lon="13.4160752"><ele>1563.5</ele><time>2026-04-26T14:01:23.217Z</time></trkpt><trkpt lat="42.2389389" lon="13.416267"><ele>1563.0</ele><time>2026-04-26T14:01:24.216Z</time></trkpt><trkpt lat="42.23871" lon="13.4164571"><ele>1559.0</ele><time>2026-04-26T14:01:25.216Z</time></trkpt><trkpt lat="42.2384892" lon="13.4166419"><ele>1555.0</ele><time>2026-04-26T14:01:26.216Z</time></trkpt><trkpt lat="42.2382629" lon="13.4168239"><ele>1555.0</ele><time>2026-04-26T14:01:27.216Z</time></trkpt><trkpt lat="42.2380404" lon="13.417009"><ele>1555.0</ele><time>2026-04-26T14:01:28.216Z</time></trkpt><trkpt lat="42.2378261" lon="13.417188"><ele>1549.5</ele><time>2026-04-26T14:01:29.217Z</time></trkpt><trkpt lat="42.237618" lon="13.4173603"><ele>1544.0</ele><time>2026-04-26T14:01:30.216Z</time></trkpt><trkpt lat="42.2374146" lon="13.4175321"><ele>1544.0</ele><time>2026-04-26T14:01:31.217Z</time></trkpt><trkpt lat="42.2372147" lon="13.4176988"><ele>1544.0</ele><time>2026-04-26T14:01:32.216Z</time></trkpt><trkpt lat="42.237011" lon="13.4178654"><ele>1543.6666666666665</ele><time>2026-04-26T14:01:33.216Z</time></trkpt><trkpt lat="42.2368143" lon="13.4180248"><ele>1543.3333333333335</ele><time>2026-04-26T14:01:34.217Z</time></trkpt><trkpt lat="42.2366397" lon="13.4181779"><ele>1543.0</ele><time>2026-04-26T14:01:35.217Z</time></trkpt><trkpt lat="42.2364641" lon="13.4183204"><ele>1543.0</ele><time>2026-04-26T14:01:36.216Z</time></trkpt><trkpt lat="42.2362853" lon="13.418461"><ele>1543.0</ele><time>2026-04-26T14:01:37.216Z</time></trkpt><trkpt lat="42.2361055" lon="13.418585"><ele>1543.0</ele><time>2026-04-26T14:01:38.217Z</time></trkpt><trkpt lat="42.2359214" lon="13.4186915"><ele>1543.0</ele><time>2026-04-26T14:01:39.216Z</time></trkpt><trkpt lat="42.2357312" lon="13.4187608"><ele>1543.0</ele><time>2026-04-26T14:01:40.216Z</time></trkpt><trkpt lat="42.2355336" lon="13.41881"><ele>1543.0</ele><time>2026-04-26T14:01:41.217Z</time></trkpt><trkpt lat="42.2353338" lon="13.4188271"><ele>1543.0</ele><time>2026-04-26T14:01:42.216Z</time></trkpt><trkpt lat="42.2351271" lon="13.4188286"><ele>1543.0</ele><time>2026-04-26T14:01:43.216Z</time></trkpt><trkpt lat="42.2349324" lon="13.4188116"><ele>1543.0</ele><time>2026-04-26T14:01:44.216Z</time></trkpt><trkpt lat="42.2347575" lon="13.4187895"><ele>1543.0</ele><time>2026-04-26T14:01:45.217Z</time></trkpt><trkpt lat="42.2346071" lon="13.4187635"><ele>1543.0</ele><time>2026-04-26T14:01:46.217Z</time></trkpt><trkpt lat="42.2344939" lon="13.4187362"><ele>1543.0</ele><time>2026-04-26T14:01:47.216Z</time></trkpt><trkpt lat="42.2344026" lon="13.4187259"><ele>1543.0</ele><time>2026-04-26T14:01:48.216Z</time></trkpt><trkpt lat="42.2343233" lon="13.4187517"><ele>1543.0</ele><time>2026-04-26T14:01:49.216Z</time></trkpt><trkpt lat="42.234265" lon="13.4188322"><ele>1543.0</ele><time>2026-04-26T14:01:50.216Z</time></trkpt><trkpt lat="42.2342362" lon="13.4189324"><ele>1543.0</ele><time>2026-04-26T14:01:51.216Z</time></trkpt><trkpt lat="42.2342289" lon="13.4190607"><ele>1543.0</ele><time>2026-04-26T14:01:52.216Z</time></trkpt><trkpt lat="42.2342534" lon="13.4191948"><ele>1543.0</ele><time>2026-04-26T14:01:53.216Z</time></trkpt><trkpt lat="42.234296" lon="13.4193572"><ele>1543.0</ele><time>2026-04-26T14:01:54.217Z</time></trkpt><trkpt lat="42.234354" lon="13.4195546"><ele>1542.6666666666667</ele><time>2026-04-26T14:01:55.216Z</time></trkpt><trkpt lat="42.2344231" lon="13.4197768"><ele>1542.3333333333335</ele><time>2026-04-26T14:01:56.216Z</time></trkpt><trkpt lat="42.2344944" lon="13.4199928"><ele>1542.0</ele><time>2026-04-26T14:01:57.216Z</time></trkpt><trkpt lat="42.2345633" lon="13.4202063"><ele>1542.0</ele><time>2026-04-26T14:01:58.216Z</time></trkpt><trkpt lat="42.2346287" lon="13.4204275"><ele>1542.0</ele><time>2026-04-26T14:01:59.216Z</time></trkpt><trkpt lat="42.2346911" lon="13.420659"><ele>1542.0</ele><time>2026-04-26T14:02:00.216Z</time></trkpt><trkpt lat="42.2347575" lon="13.4209078"><ele>1541.6666666666665</ele><time>2026-04-26T14:02:01.216Z</time></trkpt><trkpt lat="42.23482" lon="13.421164"><ele>1541.3333333333333</ele><time>2026-04-26T14:02:02.216Z</time></trkpt><trkpt lat="42.2348764" lon="13.4214282"><ele>1541.0</ele><time>2026-04-26T14:02:03.217Z</time></trkpt><trkpt lat="42.234927" lon="13.4216935"><ele>1541.6666666666665</ele><time>2026-04-26T14:02:04.216Z</time></trkpt><trkpt lat="42.2349681" lon="13.4219685"><ele>1542.3333333333335</ele><time>2026-04-26T14:02:05.216Z</time></trkpt><trkpt lat="42.2350026" lon="13.4222541"><ele>1543.0</ele><time>2026-04-26T14:02:06.216Z</time></trkpt><trkpt lat="42.2350337" lon="13.4225583"><ele>1543.0</ele><time>2026-04-26T14:02:07.216Z</time></trkpt><trkpt lat="42.235058" lon="13.4228803"><ele>1543.0</ele><time>2026-04-26T14:02:08.217Z</time></trkpt><trkpt lat="42.2350741" lon="13.4232272"><ele>1542.5</ele><time>2026-04-26T14:02:09.216Z</time></trkpt><trkpt lat="42.2350821" lon="13.4235646"><ele>1542.0</ele><time>2026-04-26T14:02:10.217Z</time></trkpt><trkpt lat="42.2350767" lon="13.4239064"><ele>1543.0</ele><time>2026-04-26T14:02:11.216Z</time></trkpt><trkpt lat="42.2350577" lon="13.4242392"><ele>1544.0</ele><time>2026-04-26T14:02:12.216Z</time></trkpt><trkpt lat="42.2350295" lon="13.4245754"><ele>1543.0</ele><time>2026-04-26T14:02:13.217Z</time></trkpt><trkpt lat="42.2349936" lon="13.4249085"><ele>1542.0</ele><time>2026-04-26T14:02:14.217Z</time></trkpt><trkpt lat="42.2349475" lon="13.4252356"><ele>1542.5</ele><time>2026-04-26T14:02:15.216Z</time></trkpt><trkpt lat="42.2348887" lon="13.4255636"><ele>1543.0</ele><time>2026-04-26T14:02:16.216Z</time></trkpt><trkpt lat="42.2348238" lon="13.4258774"><ele>1543.0</ele><time>2026-04-26T14:02:17.217Z</time></trkpt><trkpt lat="42.2347495" lon="13.426197"><ele>1543.0</ele><time>2026-04-26T14:02:18.217Z</time></trkpt><trkpt lat="42.2346603" lon="13.4265158"><ele>1543.0</ele><time>2026-04-26T14:02:19.216Z</time></trkpt><trkpt lat="42.2345646" lon="13.4268277"><ele>1543.0</ele><time>2026-04-26T14:02:20.216Z</time></trkpt><trkpt lat="42.2344572" lon="13.4271375"><ele>1543.5</ele><time>2026-04-26T14:02:21.216Z</time></trkpt><trkpt lat="42.23435" lon="13.4274511"><ele>1544.0</ele><time>2026-04-26T14:02:22.216Z</time></trkpt><trkpt lat="42.2342258" lon="13.4277578"><ele>1544.0</ele><time>2026-04-26T14:02:23.216Z</time></trkpt><trkpt lat="42.2340946" lon="13.4280566"><ele>1544.0</ele><time>2026-04-26T14:02:24.216Z</time></trkpt><trkpt lat="42.2339573" lon="13.4283537"><ele>1544.0</ele><time>2026-04-26T14:02:25.216Z</time></trkpt><trkpt lat="42.2338119" lon="13.4286488"><ele>1544.0</ele><time>2026-04-26T14:02:26.216Z</time></trkpt><trkpt lat="42.2336606" lon="13.4289416"><ele>1545.0</ele><time>2026-04-26T14:02:27.216Z</time></trkpt><trkpt lat="42.2335059" lon="13.429234"><ele>1546.0</ele><time>2026-04-26T14:02:28.216Z</time></trkpt><trkpt lat="42.2333501" lon="13.4295292"><ele>1546.5</ele><time>2026-04-26T14:02:29.216Z</time></trkpt><trkpt lat="42.2331894" lon="13.4298301"><ele>1547.0</ele><time>2026-04-26T14:02:30.217Z</time></trkpt><trkpt lat="42.2330235" lon="13.4301334"><ele>1546.0</ele><time>2026-04-26T14:02:31.216Z</time></trkpt><trkpt lat="42.2328562" lon="13.4304467"><ele>1545.0</ele><time>2026-04-26T14:02:32.216Z</time></trkpt><trkpt lat="42.232692" lon="13.4307678"><ele>1545.0</ele><time>2026-04-26T14:02:33.216Z</time></trkpt><trkpt lat="42.2325303" lon="13.4310796"><ele>1545.0</ele><time>2026-04-26T14:02:34.217Z</time></trkpt><trkpt lat="42.2323713" lon="13.4313923"><ele>1545.5</ele><time>2026-04-26T14:02:35.216Z</time></trkpt><trkpt lat="42.2322053" lon="13.4317094"><ele>1546.0</ele><time>2026-04-26T14:02:36.216Z</time></trkpt><trkpt lat="42.232036" lon="13.4320241"><ele>1546.0</ele><time>2026-04-26T14:02:37.216Z</time></trkpt><trkpt lat="42.2318652" lon="13.4323416"><ele>1546.0</ele><time>2026-04-26T14:02:38.216Z</time></trkpt><trkpt lat="42.2316929" lon="13.4326639"><ele>1546.0</ele><time>2026-04-26T14:02:39.217Z</time></trkpt><trkpt lat="42.2315214" lon="13.4329871"><ele>1546.0</ele><time>2026-04-26T14:02:40.216Z</time></trkpt><trkpt lat="42.2313539" lon="13.4333054"><ele>1545.5</ele><time>2026-04-26T14:02:41.217Z</time></trkpt><trkpt lat="42.2311818" lon="13.4336227"><ele>1545.0</ele><time>2026-04-26T14:02:42.216Z</time></trkpt><trkpt lat="42.2310129" lon="13.4339411"><ele>1545.0</ele><time>2026-04-26T14:02:43.216Z</time></trkpt><trkpt lat="42.2308455" lon="13.43426"><ele>1545.0</ele><time>2026-04-26T14:02:44.216Z</time></trkpt><trkpt lat="42.2306783" lon="13.4345725"><ele>1544.0</ele><time>2026-04-26T14:02:45.216Z</time></trkpt><trkpt lat="42.2305107" lon="13.4348721"><ele>1543.0</ele><time>2026-04-26T14:02:46.216Z</time></trkpt><trkpt lat="42.2303491" lon="13.4351729"><ele>1542.5</ele><time>2026-04-26T14:02:47.217Z</time></trkpt><trkpt lat="42.2301851" lon="13.4354769"><ele>1542.0</ele><time>2026-04-26T14:02:48.217Z</time></trkpt><trkpt lat="42.23002" lon="13.4357838"><ele>1542.0</ele><time>2026-04-26T14:02:49.216Z</time></trkpt><trkpt lat="42.2298593" lon="13.4360827"><ele>1542.0</ele><time>2026-04-26T14:02:50.216Z</time></trkpt><trkpt lat="42.229701" lon="13.4363731"><ele>1541.0</ele><time>2026-04-26T14:02:51.216Z</time></trkpt><trkpt lat="42.229544" lon="13.4366582"><ele>1540.0</ele><time>2026-04-26T14:02:52.216Z</time></trkpt><trkpt lat="42.2293915" lon="13.4369451"><ele>1539.5</ele><time>2026-04-26T14:02:53.216Z</time></trkpt><trkpt lat="42.2292379" lon="13.4372337"><ele>1539.0</ele><time>2026-04-26T14:02:54.216Z</time></trkpt><trkpt lat="42.2290827" lon="13.4375218"><ele>1539.5</ele><time>2026-04-26T14:02:55.216Z</time></trkpt><trkpt lat="42.228929" lon="13.4378129"><ele>1540.0</ele><time>2026-04-26T14:02:56.216Z</time></trkpt><trkpt lat="42.2287739" lon="13.4381093"><ele>1540.5</ele><time>2026-04-26T14:02:57.216Z</time></trkpt><trkpt lat="42.2286137" lon="13.4384055"><ele>1541.0</ele><time>2026-04-26T14:02:58.216Z</time></trkpt><trkpt lat="42.2284521" lon="13.4387091"><ele>1541.0</ele><time>2026-04-26T14:02:59.217Z</time></trkpt><trkpt lat="42.2282905" lon="13.4390163"><ele>1541.0</ele><time>2026-04-26T14:03:00.217Z</time></trkpt><trkpt lat="42.2281338" lon="13.4393176"><ele>1541.0</ele><time>2026-04-26T14:03:01.216Z</time></trkpt><trkpt lat="42.227978" lon="13.4396156"><ele>1541.0</ele><time>2026-04-26T14:03:02.216Z</time></trkpt><trkpt lat="42.2278179" lon="13.4399173"><ele>1540.5</ele><time>2026-04-26T14:03:03.217Z</time></trkpt><trkpt lat="42.2276505" lon="13.4402315"><ele>1540.0</ele><time>2026-04-26T14:03:04.216Z</time></trkpt><trkpt lat="42.2274892" lon="13.4405564"><ele>1538.0</ele><time>2026-04-26T14:03:05.216Z</time></trkpt><trkpt lat="42.2272943" lon="13.4408745"><ele>1536.0</ele><time>2026-04-26T14:03:06.216Z</time></trkpt><trkpt lat="42.2271167" lon="13.4411719"><ele>1536.0</ele><time>2026-04-26T14:03:07.216Z</time></trkpt><trkpt lat="42.226928" lon="13.4414616"><ele>1536.0</ele><time>2026-04-26T14:03:08.216Z</time></trkpt><trkpt lat="42.2267318" lon="13.4417383"><ele>1536.0</ele><time>2026-04-26T14:03:09.216Z</time></trkpt><trkpt lat="42.2265223" lon="13.4420025"><ele>1536.0</ele><time>2026-04-26T14:03:10.217Z</time></trkpt><trkpt lat="42.2263057" lon="13.4422634"><ele>1535.0</ele><time>2026-04-26T14:03:11.216Z</time></trkpt><trkpt lat="42.2260743" lon="13.4425084"><ele>1534.0</ele><time>2026-04-26T14:03:12.216Z</time></trkpt><trkpt lat="42.2258366" lon="13.4427459"><ele>1533.5</ele><time>2026-04-26T14:03:13.216Z</time></trkpt><trkpt lat="42.2255929" lon="13.442965"><ele>1533.0</ele><time>2026-04-26T14:03:14.216Z</time></trkpt><trkpt lat="42.2253457" lon="13.4431658"><ele>1533.0</ele><time>2026-04-26T14:03:15.216Z</time></trkpt><trkpt lat="42.2250885" lon="13.4433512"><ele>1533.0</ele><time>2026-04-26T14:03:16.216Z</time></trkpt><trkpt lat="42.224837" lon="13.4435221"><ele>1533.0</ele><time>2026-04-26T14:03:17.216Z</time></trkpt><trkpt lat="42.2245732" lon="13.4436742"><ele>1533.0</ele><time>2026-04-26T14:03:18.217Z</time></trkpt><trkpt lat="42.2243158" lon="13.4438165"><ele>1533.0</ele><time>2026-04-26T14:03:19.216Z</time></trkpt><trkpt lat="42.224049" lon="13.4439499"><ele>1533.0</ele><time>2026-04-26T14:03:20.216Z</time></trkpt><trkpt lat="42.2237748" lon="13.444075"><ele>1534.0</ele><time>2026-04-26T14:03:21.216Z</time></trkpt><trkpt lat="42.2234988" lon="13.4442067"><ele>1535.0</ele><time>2026-04-26T14:03:22.216Z</time></trkpt><trkpt lat="42.2232217" lon="13.4443411"><ele>1535.5</ele><time>2026-04-26T14:03:23.216Z</time></trkpt><trkpt lat="42.222945" lon="13.4444702"><ele>1536.0</ele><time>2026-04-26T14:03:24.217Z</time></trkpt><trkpt lat="42.2226716" lon="13.4446014"><ele>1535.0</ele><time>2026-04-26T14:03:25.216Z</time></trkpt><trkpt lat="42.2223932" lon="13.4447402"><ele>1534.0</ele><time>2026-04-26T14:03:26.216Z</time></trkpt><trkpt lat="42.2221174" lon="13.4448734"><ele>1533.5</ele><time>2026-04-26T14:03:27.216Z</time></trkpt><trkpt lat="42.2218378" lon="13.4450132"><ele>1533.0</ele><time>2026-04-26T14:03:28.217Z</time></trkpt><trkpt lat="42.2215536" lon="13.445149"><ele>1533.5</ele><time>2026-04-26T14:03:29.216Z</time></trkpt><trkpt lat="42.2212709" lon="13.4452801"><ele>1534.0</ele><time>2026-04-26T14:03:30.216Z</time></trkpt><trkpt lat="42.2209852" lon="13.4454154"><ele>1534.0</ele><time>2026-04-26T14:03:31.216Z</time></trkpt><trkpt lat="42.2207008" lon="13.4455535"><ele>1534.0</ele><time>2026-04-26T14:03:32.216Z</time></trkpt><trkpt lat="42.2204146" lon="13.4456916"><ele>1534.0</ele><time>2026-04-26T14:03:33.216Z</time></trkpt><trkpt lat="42.2201284" lon="13.4458291"><ele>1534.0</ele><time>2026-04-26T14:03:34.216Z</time></trkpt><trkpt lat="42.2198444" lon="13.4459638"><ele>1533.0</ele><time>2026-04-26T14:03:35.217Z</time></trkpt><trkpt lat="42.2195591" lon="13.4460982"><ele>1532.0</ele><time>2026-04-26T14:03:36.216Z</time></trkpt><trkpt lat="42.2192732" lon="13.4462415"><ele>1532.0</ele><time>2026-04-26T14:03:37.216Z</time></trkpt><trkpt lat="42.2189906" lon="13.4463776"><ele>1532.0</ele><time>2026-04-26T14:03:38.217Z</time></trkpt><trkpt lat="42.2187056" lon="13.4465165"><ele>1532.0</ele><time>2026-04-26T14:03:39.217Z</time></trkpt><trkpt lat="42.2184213" lon="13.446649"><ele>1532.0</ele><time>2026-04-26T14:03:40.216Z</time></trkpt><trkpt lat="42.2181398" lon="13.4467818"><ele>1532.0</ele><time>2026-04-26T14:03:41.217Z</time></trkpt><trkpt lat="42.2178612" lon="13.4469204"><ele>1532.0</ele><time>2026-04-26T14:03:42.217Z</time></trkpt><trkpt lat="42.2175877" lon="13.4470516"><ele>1532.0</ele><time>2026-04-26T14:03:43.217Z</time></trkpt><trkpt lat="42.2173133" lon="13.4471819"><ele>1532.0</ele><time>2026-04-26T14:03:44.217Z</time></trkpt><trkpt lat="42.2170406" lon="13.4473214"><ele>1532.0</ele><time>2026-04-26T14:03:45.216Z</time></trkpt><trkpt lat="42.2167733" lon="13.447452"><ele>1532.0</ele><time>2026-04-26T14:03:46.216Z</time></trkpt><trkpt lat="42.2165072" lon="13.4475763"><ele>1532.0</ele><time>2026-04-26T14:03:47.216Z</time></trkpt><trkpt lat="42.216243" lon="13.4476973"><ele>1532.0</ele><time>2026-04-26T14:03:48.216Z</time></trkpt><trkpt lat="42.215982" lon="13.4478172"><ele>1532.0</ele><time>2026-04-26T14:03:49.216Z</time></trkpt><trkpt lat="42.2157274" lon="13.4479445"><ele>1532.0</ele><time>2026-04-26T14:03:50.216Z</time></trkpt><trkpt lat="42.2154754" lon="13.4480657"><ele>1531.5</ele><time>2026-04-26T14:03:51.216Z</time></trkpt><trkpt lat="42.2152274" lon="13.4481841"><ele>1531.0</ele><time>2026-04-26T14:03:52.216Z</time></trkpt><trkpt lat="42.2149797" lon="13.4483036"><ele>1531.0</ele><time>2026-04-26T14:03:53.216Z</time></trkpt><trkpt lat="42.2147318" lon="13.44842"><ele>1531.0</ele><time>2026-04-26T14:03:54.216Z</time></trkpt><trkpt lat="42.2144878" lon="13.4485403"><ele>1531.0</ele><time>2026-04-26T14:03:55.216Z</time></trkpt><trkpt lat="42.2142533" lon="13.4486513"><ele>1531.0</ele><time>2026-04-26T14:03:56.217Z</time></trkpt><trkpt lat="42.21402" lon="13.4487641"><ele>1531.0</ele><time>2026-04-26T14:03:57.217Z</time></trkpt><trkpt lat="42.213789" lon="13.4488709"><ele>1531.0</ele><time>2026-04-26T14:03:58.216Z</time></trkpt><trkpt lat="42.213561" lon="13.4490037"><ele>1531.0</ele><time>2026-04-26T14:03:59.216Z</time></trkpt><trkpt lat="42.2133461" lon="13.4491454"><ele>1531.0</ele><time>2026-04-26T14:04:00.216Z</time></trkpt><trkpt lat="42.2131375" lon="13.4493137"><ele>1532.0</ele><time>2026-04-26T14:04:01.216Z</time></trkpt><trkpt lat="42.2129465" lon="13.4494967"><ele>1533.0</ele><time>2026-04-26T14:04:02.216Z</time></trkpt><trkpt lat="42.2127614" lon="13.4497041"><ele>1533.0</ele><time>2026-04-26T14:04:03.216Z</time></trkpt><trkpt lat="42.2125911" lon="13.449927"><ele>1533.0</ele><time>2026-04-26T14:04:04.217Z</time></trkpt><trkpt lat="42.212436" lon="13.4501645"><ele>1537.5</ele><time>2026-04-26T14:04:05.216Z</time></trkpt><trkpt lat="42.212286" lon="13.4504351"><ele>1542.0</ele><time>2026-04-26T14:04:06.216Z</time></trkpt><trkpt lat="42.2121461" lon="13.4507102"><ele>1542.0</ele><time>2026-04-26T14:04:07.216Z</time></trkpt><trkpt lat="42.2120119" lon="13.4509939"><ele>1542.0</ele><time>2026-04-26T14:04:08.216Z</time></trkpt><trkpt lat="42.2118787" lon="13.4512765"><ele>1538.5</ele><time>2026-04-26T14:04:09.216Z</time></trkpt><trkpt lat="42.2117449" lon="13.4515536"><ele>1535.0</ele><time>2026-04-26T14:04:10.216Z</time></trkpt><trkpt lat="42.2116242" lon="13.4518215"><ele>1535.0</ele><time>2026-04-26T14:04:11.216Z</time></trkpt><trkpt lat="42.2115051" lon="13.4520651"><ele>1535.0</ele><time>2026-04-26T14:04:12.216Z</time></trkpt><trkpt lat="42.2113945" lon="13.452292"><ele>1535.0</ele><time>2026-04-26T14:04:13.216Z</time></trkpt><trkpt lat="42.2112872" lon="13.4525215"><ele>1538.3333333333335</ele><time>2026-04-26T14:04:14.216Z</time></trkpt><trkpt lat="42.2111956" lon="13.4527362"><ele>1541.6666666666667</ele><time>2026-04-26T14:04:15.216Z</time></trkpt><trkpt lat="42.2111262" lon="13.4529393"><ele>1545.0</ele><time>2026-04-26T14:04:16.216Z</time></trkpt><trkpt lat="42.2110831" lon="13.4531625"><ele>1545.0</ele><time>2026-04-26T14:04:17.216Z</time></trkpt><trkpt lat="42.2110607" lon="13.4534096"><ele>1545.0</ele><time>2026-04-26T14:04:18.216Z</time></trkpt><trkpt lat="42.2110615" lon="13.4536423"><ele>1545.0</ele><time>2026-04-26T14:04:19.216Z</time></trkpt><trkpt lat="42.2110759" lon="13.4538551"><ele>1543.5</ele><time>2026-04-26T14:04:20.216Z</time></trkpt><trkpt lat="42.2111104" lon="13.4540497"><ele>1542.0</ele><time>2026-04-26T14:04:21.216Z</time></trkpt><trkpt lat="42.2111585" lon="13.4542329"><ele>1540.5</ele><time>2026-04-26T14:04:22.217Z</time></trkpt><trkpt lat="42.2112171" lon="13.454401"><ele>1539.0</ele><time>2026-04-26T14:04:23.216Z</time></trkpt><trkpt lat="42.2112747" lon="13.4545544"><ele>1538.5</ele><time>2026-04-26T14:04:24.216Z</time></trkpt><trkpt lat="42.2113248" lon="13.4546825"><ele>1538.0</ele><time>2026-04-26T14:04:25.216Z</time></trkpt><trkpt lat="42.2113575" lon="13.4547971"><ele>1537.5</ele><time>2026-04-26T14:04:26.224Z</time></trkpt><trkpt lat="42.2113772" lon="13.4549098"><ele>1537.0</ele><time>2026-04-26T14:04:27.223Z</time></trkpt><trkpt lat="42.211409" lon="13.4549984"><ele>1536.5</ele><time>2026-04-26T14:04:28.224Z</time></trkpt><trkpt lat="42.2114755" lon="13.4550634"><ele>1536.0</ele><time>2026-04-26T14:04:29.223Z</time></trkpt><trkpt lat="42.2115473" lon="13.455064"><ele>1534.8</ele><time>2026-04-26T14:04:30.223Z</time></trkpt><trkpt lat="42.2116251" lon="13.4550285"><ele>1533.6</ele><time>2026-04-26T14:04:31.224Z</time></trkpt><trkpt lat="42.2117078" lon="13.4549579"><ele>1532.4</ele><time>2026-04-26T14:04:32.223Z</time></trkpt><trkpt lat="42.2117678" lon="13.4548631"><ele>1531.2</ele><time>2026-04-26T14:04:33.223Z</time></trkpt><trkpt lat="42.2118804" lon="13.4548245"><ele>1530.0</ele><time>2026-04-26T14:04:34.223Z</time></trkpt><trkpt lat="42.2120495" lon="13.4548648"><ele>1530.0</ele><time>2026-04-26T14:04:35.223Z</time></trkpt><trkpt lat="42.212219" lon="13.4548678"><ele>1530.0</ele><time>2026-04-26T14:04:36.223Z</time></trkpt><trkpt lat="42.2123924" lon="13.4548699"><ele>1530.0</ele><time>2026-04-26T14:04:37.224Z</time></trkpt><trkpt lat="42.2125756" lon="13.4548621"><ele>1529.3333333333333</ele><time>2026-04-26T14:04:38.224Z</time></trkpt><trkpt lat="42.2127543" lon="13.4548582"><ele>1528.6666666666665</ele><time>2026-04-26T14:04:39.223Z</time></trkpt><trkpt lat="42.2129327" lon="13.4548612"><ele>1528.0</ele><time>2026-04-26T14:04:40.223Z</time></trkpt><trkpt lat="42.213104" lon="13.4548906"><ele>1527.6666666666665</ele><time>2026-04-26T14:04:41.223Z</time></trkpt><trkpt lat="42.2132783" lon="13.4549371"><ele>1527.3333333333333</ele><time>2026-04-26T14:04:42.223Z</time></trkpt><trkpt lat="42.2134414" lon="13.4550196"><ele>1527.0</ele><time>2026-04-26T14:04:43.224Z</time></trkpt><trkpt lat="42.213604" lon="13.4551237"><ele>1527.0</ele><time>2026-04-26T14:04:44.223Z</time></trkpt><trkpt lat="42.2137498" lon="13.4552667"><ele>1527.0</ele><time>2026-04-26T14:04:45.223Z</time></trkpt><trkpt lat="42.2138853" lon="13.4554435"><ele>1527.0</ele><time>2026-04-26T14:04:46.223Z</time></trkpt><trkpt lat="42.2140146" lon="13.4556445"><ele>1528.0</ele><time>2026-04-26T14:04:47.224Z</time></trkpt><trkpt lat="42.2141333" lon="13.4558639"><ele>1529.0</ele><time>2026-04-26T14:04:48.223Z</time></trkpt><trkpt lat="42.2142582" lon="13.4560824"><ele>1530.0</ele><time>2026-04-26T14:04:49.223Z</time></trkpt><trkpt lat="42.2144013" lon="13.4562798"><ele>1530.0</ele><time>2026-04-26T14:04:50.223Z</time></trkpt><trkpt lat="42.2145635" lon="13.4564753"><ele>1530.0</ele><time>2026-04-26T14:04:51.223Z</time></trkpt><trkpt lat="42.214727" lon="13.4566702"><ele>1530.0</ele><time>2026-04-26T14:04:52.223Z</time></trkpt><trkpt lat="42.2148807" lon="13.4568635"><ele>1530.0</ele><time>2026-04-26T14:04:53.223Z</time></trkpt><trkpt lat="42.2150187" lon="13.4570707"><ele>1530.0</ele><time>2026-04-26T14:04:54.224Z</time></trkpt><trkpt lat="42.2151377" lon="13.4572569"><ele>1530.0</ele><time>2026-04-26T14:04:55.224Z</time></trkpt><trkpt lat="42.2152403" lon="13.4574368"><ele>1530.0</ele><time>2026-04-26T14:04:56.224Z</time></trkpt><trkpt lat="42.2153268" lon="13.4576029"><ele>1530.0</ele><time>2026-04-26T14:04:57.223Z</time></trkpt><trkpt lat="42.2153904" lon="13.4577431"><ele>1530.0</ele><time>2026-04-26T14:04:58.224Z</time></trkpt><trkpt lat="42.2154328" lon="13.4578696"><ele>1530.0</ele><time>2026-04-26T14:04:59.224Z</time></trkpt><trkpt lat="42.2154467" lon="13.4580311"><ele>1529.75</ele><time>2026-04-26T14:05:00.223Z</time></trkpt><trkpt lat="42.2154438" lon="13.4581998"><ele>1529.5</ele><time>2026-04-26T14:05:01.224Z</time></trkpt><trkpt lat="42.2154518" lon="13.4583689"><ele>1529.25</ele><time>2026-04-26T14:05:02.224Z</time></trkpt><trkpt lat="42.2154956" lon="13.4585241"><ele>1529.0</ele><time>2026-04-26T14:05:03.223Z</time></trkpt><trkpt lat="42.2155591" lon="13.4586649"><ele>1528.75</ele><time>2026-04-26T14:05:04.224Z</time></trkpt><trkpt lat="42.2156547" lon="13.4587513"><ele>1528.5</ele><time>2026-04-26T14:05:05.224Z</time></trkpt><trkpt lat="42.2157705" lon="13.458791"><ele>1528.25</ele><time>2026-04-26T14:05:06.223Z</time></trkpt><trkpt lat="42.2158807" lon="13.4588333"><ele>1528.0</ele><time>2026-04-26T14:05:07.224Z</time></trkpt><trkpt lat="42.2159879" lon="13.4588972"><ele>1529.0</ele><time>2026-04-26T14:05:08.223Z</time></trkpt><trkpt lat="42.2160842" lon="13.4590015"><ele>1530.0</ele><time>2026-04-26T14:05:09.223Z</time></trkpt><trkpt lat="42.21617" lon="13.459167"><ele>1531.0</ele><time>2026-04-26T14:05:10.223Z</time></trkpt><trkpt lat="42.2162609" lon="13.459364"><ele>1532.0</ele><time>2026-04-26T14:05:11.223Z</time></trkpt><trkpt lat="42.216358" lon="13.4595779"><ele>1534.6666666666667</ele><time>2026-04-26T14:05:12.223Z</time></trkpt><trkpt lat="42.2164728" lon="13.4598086"><ele>1537.3333333333335</ele><time>2026-04-26T14:05:13.224Z</time></trkpt><trkpt lat="42.2165977" lon="13.4600611"><ele>1540.0</ele><time>2026-04-26T14:05:14.223Z</time></trkpt><trkpt lat="42.2167268" lon="13.46032"><ele>1480.0</ele><time>2026-04-26T14:05:15.223Z</time></trkpt><trkpt lat="42.2210441" lon="13.4739513"><ele>1480.0</ele><time>2026-04-26T14:05:57.223Z</time></trkpt><trkpt lat="42.2208908" lon="13.4742097"><ele>1480.0</ele><time>2026-04-26T14:05:58.223Z</time></trkpt><trkpt lat="42.2207198" lon="13.4744526"><ele>1474.5</ele><time>2026-04-26T14:05:59.223Z</time></trkpt><trkpt lat="42.2205441" lon="13.4746686"><ele>1469.0</ele><time>2026-04-26T14:06:00.223Z</time></trkpt><trkpt lat="42.2203337" lon="13.4748694"><ele>1469.0</ele><time>2026-04-26T14:06:01.224Z</time></trkpt><trkpt lat="42.2201124" lon="13.4750468"><ele>1469.0</ele><time>2026-04-26T14:06:02.224Z</time></trkpt><trkpt lat="42.2198748" lon="13.4751887"><ele>1470.0</ele><time>2026-04-26T14:06:03.223Z</time></trkpt><trkpt lat="42.2196405" lon="13.4753183"><ele>1471.0</ele><time>2026-04-26T14:06:04.223Z</time></trkpt><trkpt lat="42.2194021" lon="13.4754487"><ele>1459.5</ele><time>2026-04-26T14:06:05.224Z</time></trkpt><trkpt lat="42.2191619" lon="13.4756045"><ele>1448.0</ele><time>2026-04-26T14:06:06.223Z</time></trkpt><trkpt lat="42.2189317" lon="13.4757812"><ele>1448.0</ele><time>2026-04-26T14:06:07.223Z</time></trkpt><trkpt lat="42.2187046" lon="13.4759785"><ele>1448.0</ele><time>2026-04-26T14:06:08.224Z</time></trkpt><trkpt lat="42.2185014" lon="13.4761774"><ele>1446.0</ele><time>2026-04-26T14:06:09.223Z</time></trkpt><trkpt lat="42.2183064" lon="13.4763831"><ele>1444.0</ele><time>2026-04-26T14:06:10.223Z</time></trkpt><trkpt lat="42.2181233" lon="13.4765895"><ele>1444.0</ele><time>2026-04-26T14:06:11.224Z</time></trkpt><trkpt lat="42.2179512" lon="13.4767873"><ele>1444.0</ele><time>2026-04-26T14:06:12.223Z</time></trkpt><trkpt lat="42.2177742" lon="13.4769642"><ele>1444.0</ele><time>2026-04-26T14:06:13.223Z</time></trkpt><trkpt lat="42.2175921" lon="13.4771226"><ele>1437.0</ele><time>2026-04-26T14:06:14.224Z</time></trkpt><trkpt lat="42.2173993" lon="13.4772877"><ele>1430.0</ele><time>2026-04-26T14:06:15.223Z</time></trkpt><trkpt lat="42.2171921" lon="13.4774457"><ele>1430.0</ele><time>2026-04-26T14:06:16.223Z</time></trkpt><trkpt lat="42.2169861" lon="13.4775826"><ele>1430.0</ele><time>2026-04-26T14:06:17.223Z</time></trkpt><trkpt lat="42.2167845" lon="13.4777003"><ele>1430.0</ele><time>2026-04-26T14:06:18.223Z</time></trkpt><trkpt lat="42.2165968" lon="13.4777951"><ele>1432.3333333333335</ele><time>2026-04-26T14:06:19.223Z</time></trkpt><trkpt lat="42.2164236" lon="13.4778925"><ele>1434.6666666666667</ele><time>2026-04-26T14:06:20.223Z</time></trkpt><trkpt lat="42.2162542" lon="13.4780142"><ele>1437.0</ele><time>2026-04-26T14:06:21.223Z</time></trkpt><trkpt lat="42.2161093" lon="13.4781581"><ele>1432.0</ele><time>2026-04-26T14:06:22.224Z</time></trkpt><trkpt lat="42.2159834" lon="13.4783274"><ele>1427.0</ele><time>2026-04-26T14:06:23.223Z</time></trkpt><trkpt lat="42.215885" lon="13.4785055"><ele>1422.0</ele><time>2026-04-26T14:06:24.223Z</time></trkpt><trkpt lat="42.2158086" lon="13.4786779"><ele>1420.25</ele><time>2026-04-26T14:06:25.224Z</time></trkpt><trkpt lat="42.2157578" lon="13.4788403"><ele>1418.5</ele><time>2026-04-26T14:06:26.223Z</time></trkpt><trkpt lat="42.2157481" lon="13.4790198"><ele>1416.75</ele><time>2026-04-26T14:06:27.224Z</time></trkpt><trkpt lat="42.2157637" lon="13.4791869"><ele>1415.0</ele><time>2026-04-26T14:06:28.223Z</time></trkpt><trkpt lat="42.215809" lon="13.4793155"><ele>1415.0</ele><time>2026-04-26T14:06:29.223Z</time></trkpt><trkpt lat="42.2158998" lon="13.4794134"><ele>1415.0</ele><time>2026-04-26T14:06:30.223Z</time></trkpt><trkpt lat="42.2159979" lon="13.4794401"><ele>1415.0</ele><time>2026-04-26T14:06:31.223Z</time></trkpt><trkpt lat="42.21612" lon="13.4794201"><ele>1415.0</ele><time>2026-04-26T14:06:32.223Z</time></trkpt><trkpt lat="42.2162406" lon="13.4793767"><ele>1415.0</ele><time>2026-04-26T14:06:33.224Z</time></trkpt><trkpt lat="42.2163435" lon="13.4792695"><ele>1415.0</ele><time>2026-04-26T14:06:34.224Z</time></trkpt><trkpt lat="42.2164324" lon="13.4791155"><ele>1415.0</ele><time>2026-04-26T14:06:35.223Z</time></trkpt><trkpt lat="42.2165131" lon="13.4789316"><ele>1415.0</ele><time>2026-04-26T14:06:36.224Z</time></trkpt><trkpt lat="42.216594" lon="13.4787583"><ele>1414.5</ele><time>2026-04-26T14:06:37.223Z</time></trkpt><trkpt lat="42.2166731" lon="13.4786084"><ele>1414.0</ele><time>2026-04-26T14:06:38.223Z</time></trkpt><trkpt lat="42.2167752" lon="13.4784989"><ele>1413.5</ele><time>2026-04-26T14:06:39.224Z</time></trkpt><trkpt lat="42.2168921" lon="13.4784289"><ele>1413.0</ele><time>2026-04-26T14:06:40.223Z</time></trkpt><trkpt lat="42.2170118" lon="13.4784175"><ele>1413.0</ele><time>2026-04-26T14:06:41.223Z</time></trkpt><trkpt lat="42.2171178" lon="13.4784471"><ele>1413.0</ele><time>2026-04-26T14:06:42.223Z</time></trkpt><trkpt lat="42.2172149" lon="13.4785195"><ele>1413.0</ele><time>2026-04-26T14:06:43.224Z</time></trkpt><trkpt lat="42.2172926" lon="13.4786245"><ele>1413.0</ele><time>2026-04-26T14:06:44.223Z</time></trkpt><trkpt lat="42.2173565" lon="13.4787341"><ele>1413.0</ele><time>2026-04-26T14:06:45.223Z</time></trkpt><trkpt lat="42.2174013" lon="13.4788304"><ele>1412.0</ele><time>2026-04-26T14:06:46.223Z</time></trkpt><trkpt lat="42.2174456" lon="13.478918"><ele>1411.0</ele><time>2026-04-26T14:06:48.224Z</time></trkpt><trkpt lat="42.2175484" lon="13.4789097"><ele>1410.0</ele><time>2026-04-26T14:07:20.223Z</time></trkpt><trkpt lat="42.2176265" lon="13.4788717"><ele>1409.0</ele><time>2026-04-26T14:07:21.223Z</time></trkpt><trkpt lat="42.2177413" lon="13.4787996"><ele>1408.0</ele><time>2026-04-26T14:07:22.224Z</time></trkpt><trkpt lat="42.2178679" lon="13.4787123"><ele>1408.0</ele><time>2026-04-26T14:07:23.223Z</time></trkpt><trkpt lat="42.2180089" lon="13.4786143"><ele>1408.0</ele><time>2026-04-26T14:07:24.223Z</time></trkpt><trkpt lat="42.2181676" lon="13.4785126"><ele>1408.0</ele><time>2026-04-26T14:07:25.223Z</time></trkpt><trkpt lat="42.2183271" lon="13.4784062"><ele>1404.0</ele><time>2026-04-26T14:07:26.223Z</time></trkpt><trkpt lat="42.2184784" lon="13.4782968"><ele>1400.0</ele><time>2026-04-26T14:07:27.223Z</time></trkpt><trkpt lat="42.2186336" lon="13.4782146"><ele>1396.0</ele><time>2026-04-26T14:07:28.223Z</time></trkpt><trkpt lat="42.2187932" lon="13.4781403"><ele>1396.0</ele><time>2026-04-26T14:07:29.224Z</time></trkpt><trkpt lat="42.2189671" lon="13.478086"><ele>1396.0</ele><time>2026-04-26T14:07:30.223Z</time></trkpt><trkpt lat="42.2191841" lon="13.4780501"><ele>1396.0</ele><time>2026-04-26T14:07:31.223Z</time></trkpt><trkpt lat="42.219433" lon="13.4780412"><ele>1390.5</ele><time>2026-04-26T14:07:32.223Z</time></trkpt><trkpt lat="42.2196882" lon="13.4780125"><ele>1385.0</ele><time>2026-04-26T14:07:33.223Z</time></trkpt><trkpt lat="42.2199478" lon="13.4779887"><ele>1382.5</ele><time>2026-04-26T14:07:34.223Z</time></trkpt><trkpt lat="42.2202036" lon="13.4779682"><ele>1380.0</ele><time>2026-04-26T14:07:35.223Z</time></trkpt><trkpt lat="42.2204488" lon="13.4779482"><ele>1382.0</ele><time>2026-04-26T14:07:36.223Z</time></trkpt><trkpt lat="42.2206833" lon="13.4779327"><ele>1384.0</ele><time>2026-04-26T14:07:37.223Z</time></trkpt><trkpt lat="42.2209136" lon="13.4779118"><ele>1384.0</ele><time>2026-04-26T14:07:38.223Z</time></trkpt><trkpt lat="42.2211416" lon="13.4778945"><ele>1384.0</ele><time>2026-04-26T14:07:39.223Z</time></trkpt><trkpt lat="42.221351" lon="13.4778841"><ele>1384.0</ele><time>2026-04-26T14:07:40.223Z</time></trkpt><trkpt lat="42.2215385" lon="13.4778742"><ele>1381.0</ele><time>2026-04-26T14:07:41.223Z</time></trkpt><trkpt lat="42.2217041" lon="13.4778716"><ele>1378.0</ele><time>2026-04-26T14:07:42.223Z</time></trkpt><trkpt lat="42.2218503" lon="13.4778962"><ele>1375.0</ele><time>2026-04-26T14:07:43.223Z</time></trkpt><trkpt lat="42.2219805" lon="13.4779722"><ele>1372.5</ele><time>2026-04-26T14:07:44.223Z</time></trkpt><trkpt lat="42.2220733" lon="13.4781048"><ele>1370.0</ele><time>2026-04-26T14:07:45.224Z</time></trkpt><trkpt lat="42.2221216" lon="13.4782595"><ele>1367.5</ele><time>2026-04-26T14:07:46.223Z</time></trkpt><trkpt lat="42.2221596" lon="13.4784419"><ele>1365.0</ele><time>2026-04-26T14:07:47.224Z</time></trkpt><trkpt lat="42.2222009" lon="13.4786511"><ele>1365.0</ele><time>2026-04-26T14:07:48.224Z</time></trkpt><trkpt lat="42.2222598" lon="13.4788766"><ele>1365.0</ele><time>2026-04-26T14:07:49.223Z</time></trkpt><trkpt lat="42.2223427" lon="13.4791013"><ele>1365.0</ele><time>2026-04-26T14:07:50.223Z</time></trkpt><trkpt lat="42.2224757" lon="13.4793175"><ele>1365.0</ele><time>2026-04-26T14:07:51.224Z</time></trkpt><trkpt lat="42.2226407" lon="13.4795261"><ele>1365.0</ele><time>2026-04-26T14:07:52.223Z</time></trkpt><trkpt lat="42.2228174" lon="13.4797473"><ele>1362.5</ele><time>2026-04-26T14:07:53.223Z</time></trkpt><trkpt lat="42.2230034" lon="13.4799946"><ele>1360.0</ele><time>2026-04-26T14:07:54.223Z</time></trkpt><trkpt lat="42.2231873" lon="13.4802485"><ele>1357.0</ele><time>2026-04-26T14:07:55.223Z</time></trkpt><trkpt lat="42.2233885" lon="13.4805148"><ele>1354.0</ele><time>2026-04-26T14:07:56.223Z</time></trkpt><trkpt lat="42.2235767" lon="13.4807631"><ele>1354.0</ele><time>2026-04-26T14:07:57.223Z</time></trkpt><trkpt lat="42.2237533" lon="13.4810086"><ele>1354.0</ele><time>2026-04-26T14:07:58.223Z</time></trkpt><trkpt lat="42.2239192" lon="13.4812341"><ele>1352.0</ele><time>2026-04-26T14:07:59.223Z</time></trkpt><trkpt lat="42.2240774" lon="13.481457"><ele>1350.0</ele><time>2026-04-26T14:08:00.224Z</time></trkpt><trkpt lat="42.2242435" lon="13.4816702"><ele>1350.0</ele><time>2026-04-26T14:08:01.223Z</time></trkpt><trkpt lat="42.2244315" lon="13.481864"><ele>1350.0</ele><time>2026-04-26T14:08:02.223Z</time></trkpt><trkpt lat="42.224646" lon="13.4820356"><ele>1346.5</ele><time>2026-04-26T14:08:03.224Z</time></trkpt><trkpt lat="42.2248675" lon="13.4821996"><ele>1343.0</ele><time>2026-04-26T14:08:04.223Z</time></trkpt><trkpt lat="42.22508" lon="13.4823547"><ele>1343.0</ele><time>2026-04-26T14:08:05.223Z</time></trkpt><trkpt lat="42.2252859" lon="13.4824916"><ele>1343.0</ele><time>2026-04-26T14:08:06.223Z</time></trkpt><trkpt lat="42.2254794" lon="13.4826164"><ele>1343.0</ele><time>2026-04-26T14:08:07.224Z</time></trkpt><trkpt lat="42.2256481" lon="13.4827445"><ele>1343.6666666666667</ele><time>2026-04-26T14:08:08.223Z</time></trkpt><trkpt lat="42.2257735" lon="13.4828825"><ele>1344.3333333333333</ele><time>2026-04-26T14:08:09.223Z</time></trkpt><trkpt lat="42.2258581" lon="13.4830501"><ele>1345.0</ele><time>2026-04-26T14:08:10.223Z</time></trkpt><trkpt lat="42.225909" lon="13.4832715"><ele>1343.0</ele><time>2026-04-26T14:08:11.223Z</time></trkpt><trkpt lat="42.2259375" lon="13.4835324"><ele>1341.0</ele><time>2026-04-26T14:08:12.224Z</time></trkpt><trkpt lat="42.2259623" lon="13.4838449"><ele>1339.0</ele><time>2026-04-26T14:08:13.224Z</time></trkpt><trkpt lat="42.2259959" lon="13.4841708"><ele>1335.5</ele><time>2026-04-26T14:08:14.223Z</time></trkpt><trkpt lat="42.2260293" lon="13.4845189"><ele>1332.0</ele><time>2026-04-26T14:08:15.223Z</time></trkpt><trkpt lat="42.226064" lon="13.4848736"><ele>1331.0</ele><time>2026-04-26T14:08:16.223Z</time></trkpt><trkpt lat="42.2260943" lon="13.4852243"><ele>1330.0</ele><time>2026-04-26T14:08:17.224Z</time></trkpt><trkpt lat="42.2261252" lon="13.4855676"><ele>1327.5</ele><time>2026-04-26T14:08:18.223Z</time></trkpt><trkpt lat="42.2261657" lon="13.4859142"><ele>1325.0</ele><time>2026-04-26T14:08:19.223Z</time></trkpt><trkpt lat="42.2262251" lon="13.4862729"><ele>1322.5</ele><time>2026-04-26T14:08:20.223Z</time></trkpt><trkpt lat="42.2263096" lon="13.4866462"><ele>1320.0</ele><time>2026-04-26T14:08:21.223Z</time></trkpt><trkpt lat="42.2264012" lon="13.4870288"><ele>1322.0</ele><time>2026-04-26T14:08:22.223Z</time></trkpt><trkpt lat="42.2264904" lon="13.4873845"><ele>1324.0</ele><time>2026-04-26T14:08:23.223Z</time></trkpt><trkpt lat="42.2265681" lon="13.4877163"><ele>1321.5</ele><time>2026-04-26T14:08:24.223Z</time></trkpt><trkpt lat="42.2266451" lon="13.4880336"><ele>1319.0</ele><time>2026-04-26T14:08:25.223Z</time></trkpt><trkpt lat="42.2267145" lon="13.488324"><ele>1319.0</ele><time>2026-04-26T14:08:26.223Z</time></trkpt><trkpt lat="42.2267903" lon="13.4886024"><ele>1319.0</ele><time>2026-04-26T14:08:27.223Z</time></trkpt><trkpt lat="42.2268986" lon="13.4888855"><ele>1315.5</ele><time>2026-04-26T14:08:28.223Z</time></trkpt><trkpt lat="42.2270424" lon="13.4891648"><ele>1312.0</ele><time>2026-04-26T14:08:29.223Z</time></trkpt><trkpt lat="42.2272032" lon="13.489445"><ele>1310.5</ele><time>2026-04-26T14:08:30.224Z</time></trkpt><trkpt lat="42.2273581" lon="13.4897292"><ele>1309.0</ele><time>2026-04-26T14:08:31.223Z</time></trkpt><trkpt lat="42.2275004" lon="13.489995"><ele>1309.0</ele><time>2026-04-26T14:08:32.223Z</time></trkpt><trkpt lat="42.2276313" lon="13.490249"><ele>1309.0</ele><time>2026-04-26T14:08:33.223Z</time></trkpt><trkpt lat="42.2277626" lon="13.4904918"><ele>1306.5</ele><time>2026-04-26T14:08:34.223Z</time></trkpt><trkpt lat="42.2279012" lon="13.4907271"><ele>1304.0</ele><time>2026-04-26T14:08:35.224Z</time></trkpt><trkpt lat="42.2280752" lon="13.49095"><ele>1305.0</ele><time>2026-04-26T14:08:36.224Z</time></trkpt><trkpt lat="42.2282568" lon="13.4911525"><ele>1306.0</ele><time>2026-04-26T14:08:37.223Z</time></trkpt><trkpt lat="42.2284478" lon="13.4913431"><ele>1301.0</ele><time>2026-04-26T14:08:38.223Z</time></trkpt><trkpt lat="42.228627" lon="13.4915333"><ele>1296.0</ele><time>2026-04-26T14:08:39.224Z</time></trkpt><trkpt lat="42.2287979" lon="13.4917432"><ele>1296.0</ele><time>2026-04-26T14:08:40.223Z</time></trkpt><trkpt lat="42.2289633" lon="13.4919967"><ele>1296.0</ele><time>2026-04-26T14:08:41.223Z</time></trkpt><trkpt lat="42.2291294" lon="13.4922708"><ele>1292.5</ele><time>2026-04-26T14:08:42.223Z</time></trkpt><trkpt lat="42.2292958" lon="13.4925465"><ele>1289.0</ele><time>2026-04-26T14:08:43.223Z</time></trkpt><trkpt lat="42.2294563" lon="13.4928074"><ele>1288.5</ele><time>2026-04-26T14:08:44.223Z</time></trkpt><trkpt lat="42.2296141" lon="13.4930591"><ele>1288.0</ele><time>2026-04-26T14:08:45.223Z</time></trkpt><trkpt lat="42.2297611" lon="13.4932971"><ele>1288.0</ele><time>2026-04-26T14:08:46.223Z</time></trkpt><trkpt lat="42.2298981" lon="13.4935186"><ele>1288.0</ele><time>2026-04-26T14:08:47.223Z</time></trkpt><trkpt lat="42.2300284" lon="13.4937346"><ele>1288.0</ele><time>2026-04-26T14:08:48.223Z</time></trkpt><trkpt lat="42.2301625" lon="13.4939403"><ele>1287.0</ele><time>2026-04-26T14:08:49.223Z</time></trkpt><trkpt lat="42.2302931" lon="13.4941475"><ele>1286.0</ele><time>2026-04-26T14:08:50.223Z</time></trkpt><trkpt lat="42.2304169" lon="13.49435"><ele>1285.0</ele><time>2026-04-26T14:08:51.224Z</time></trkpt><trkpt lat="42.2305448" lon="13.4945551"><ele>1284.6666666666665</ele><time>2026-04-26T14:08:52.223Z</time></trkpt><trkpt lat="42.2306785" lon="13.4947566"><ele>1284.3333333333333</ele><time>2026-04-26T14:08:53.223Z</time></trkpt><trkpt lat="42.2308116" lon="13.4949479"><ele>1284.0</ele><time>2026-04-26T14:08:54.223Z</time></trkpt><trkpt lat="42.2309422" lon="13.4951147"><ele>1284.0</ele><time>2026-04-26T14:08:55.223Z</time></trkpt><trkpt lat="42.2310775" lon="13.4952729"><ele>1284.0</ele><time>2026-04-26T14:08:56.224Z</time></trkpt><trkpt lat="42.2312092" lon="13.4954249"><ele>1284.0</ele><time>2026-04-26T14:08:57.224Z</time></trkpt><trkpt lat="42.2313397" lon="13.4955751"><ele>1283.5</ele><time>2026-04-26T14:08:58.223Z</time></trkpt><trkpt lat="42.2314653" lon="13.4957147"><ele>1283.0</ele><time>2026-04-26T14:08:59.224Z</time></trkpt><trkpt lat="42.2315744" lon="13.4958517"><ele>1282.5</ele><time>2026-04-26T14:09:00.224Z</time></trkpt><trkpt lat="42.2316759" lon="13.4959664"><ele>1282.0</ele><time>2026-04-26T14:09:01.223Z</time></trkpt><trkpt lat="42.2317632" lon="13.4960659"><ele>1281.8</ele><time>2026-04-26T14:09:02.224Z</time></trkpt><trkpt lat="42.2318492" lon="13.4961634"><ele>1281.6</ele><time>2026-04-26T14:09:03.223Z</time></trkpt><trkpt lat="42.2319227" lon="13.4962564"><ele>1281.3999999999999</ele><time>2026-04-26T14:09:04.224Z</time></trkpt><trkpt lat="42.2319789" lon="13.4963503"><ele>1281.1999999999998</ele><time>2026-04-26T14:09:05.223Z</time></trkpt><trkpt lat="42.2320337" lon="13.4964329"><ele>1281.0</ele><time>2026-04-26T14:09:06.223Z</time></trkpt><trkpt lat="42.2320638" lon="13.4965463"><ele>1280.75</ele><time>2026-04-26T14:09:07.223Z</time></trkpt><trkpt lat="42.2320608" lon="13.4966792"><ele>1280.5</ele><time>2026-04-26T14:09:08.223Z</time></trkpt><trkpt lat="42.2320276" lon="13.4968097"><ele>1280.25</ele><time>2026-04-26T14:09:09.224Z</time></trkpt><trkpt lat="42.2319585" lon="13.4969414"><ele>1280.0</ele><time>2026-04-26T14:09:10.223Z</time></trkpt><trkpt lat="42.2318682" lon="13.497073"><ele>1279.3333333333335</ele><time>2026-04-26T14:09:11.224Z</time></trkpt><trkpt lat="42.2317679" lon="13.4972312"><ele>1278.6666666666667</ele><time>2026-04-26T14:09:12.223Z</time></trkpt><trkpt lat="42.231646" lon="13.4973715"><ele>1278.0</ele><time>2026-04-26T14:09:13.223Z</time></trkpt><trkpt lat="42.2315063" lon="13.4974882"><ele>1278.0</ele><time>2026-04-26T14:09:14.223Z</time></trkpt><trkpt lat="42.2313547" lon="13.4975776"><ele>1278.0</ele><time>2026-04-26T14:09:15.224Z</time></trkpt><trkpt lat="42.2312178" lon="13.4976761"><ele>1278.0</ele><time>2026-04-26T14:09:16.223Z</time></trkpt><trkpt lat="42.2310867" lon="13.4977886"><ele>1278.0</ele><time>2026-04-26T14:09:17.223Z</time></trkpt><trkpt lat="42.2309836" lon="13.4979099"><ele>1278.0</ele><time>2026-04-26T14:09:18.223Z</time></trkpt><trkpt lat="42.2308515" lon="13.4980171"><ele>1278.0</ele><time>2026-04-26T14:09:19.223Z</time></trkpt><trkpt lat="42.2307208" lon="13.4981932"><ele>1279.0</ele><time>2026-04-26T14:09:20.223Z</time></trkpt><trkpt lat="42.2306061" lon="13.4983588"><ele>1280.0</ele><time>2026-04-26T14:09:21.223Z</time></trkpt><trkpt lat="42.2305019" lon="13.4985077"><ele>1281.0</ele><time>2026-04-26T14:09:22.223Z</time></trkpt><trkpt lat="42.2303922" lon="13.4986826"><ele>1280.6666666666667</ele><time>2026-04-26T14:09:23.223Z</time></trkpt><trkpt lat="42.2302669" lon="13.498875"><ele>1280.3333333333335</ele><time>2026-04-26T14:09:24.223Z</time></trkpt><trkpt lat="42.2301491" lon="13.4990427"><ele>1280.0</ele><time>2026-04-26T14:09:25.223Z</time></trkpt><trkpt lat="42.2300361" lon="13.499209"><ele>1280.0</ele><time>2026-04-26T14:09:26.224Z</time></trkpt><trkpt lat="42.2299305" lon="13.4993933"><ele>1280.0</ele><time>2026-04-26T14:09:27.223Z</time></trkpt><trkpt lat="42.2297758" lon="13.4995656"><ele>1280.0</ele><time>2026-04-26T14:09:28.223Z</time></trkpt><trkpt lat="42.2296366" lon="13.4997337"><ele>1279.5</ele><time>2026-04-26T14:09:29.223Z</time></trkpt><trkpt lat="42.22948" lon="13.4999254"><ele>1279.0</ele><time>2026-04-26T14:09:30.223Z</time></trkpt><trkpt lat="42.2293036" lon="13.5002038"><ele>1279.0</ele><time>2026-04-26T14:09:31.223Z</time></trkpt><trkpt lat="42.2291084" lon="13.5004995"><ele>1279.0</ele><time>2026-04-26T14:09:32.223Z</time></trkpt><trkpt lat="42.228948" lon="13.500731"><ele>1279.0</ele><time>2026-04-26T14:09:33.224Z</time></trkpt><trkpt lat="42.2287558" lon="13.5010216"><ele>1279.0</ele><time>2026-04-26T14:09:34.224Z</time></trkpt><trkpt lat="42.2285933" lon="13.5012332"><ele>1279.0</ele><time>2026-04-26T14:09:35.224Z</time></trkpt><trkpt lat="42.2284104" lon="13.5014942"><ele>1279.0</ele><time>2026-04-26T14:09:36.223Z</time></trkpt><trkpt lat="42.228218" lon="13.5017506"><ele>1278.0</ele><time>2026-04-26T14:09:37.223Z</time></trkpt><trkpt lat="42.2280262" lon="13.5019789"><ele>1277.0</ele><time>2026-04-26T14:09:38.224Z</time></trkpt><trkpt lat="42.2278242" lon="13.5022318"><ele>1277.0</ele><time>2026-04-26T14:09:39.224Z</time></trkpt><trkpt lat="42.2276004" lon="13.5025275"><ele>1277.0</ele><time>2026-04-26T14:09:40.223Z</time></trkpt><trkpt lat="42.2273938" lon="13.5027722"><ele>1277.0</ele><time>2026-04-26T14:09:41.223Z</time></trkpt><trkpt lat="42.227163" lon="13.5030116"><ele>1277.0</ele><time>2026-04-26T14:09:42.223Z</time></trkpt><trkpt lat="42.2269046" lon="13.5032799"><ele>1277.0</ele><time>2026-04-26T14:09:43.223Z</time></trkpt><trkpt lat="42.2266136" lon="13.5035893"><ele>1277.0</ele><time>2026-04-26T14:09:44.223Z</time></trkpt><trkpt lat="42.2263115" lon="13.5038893"><ele>1277.0</ele><time>2026-04-26T14:09:45.223Z</time></trkpt><trkpt lat="42.2259796" lon="13.5042301"><ele>1277.0</ele><time>2026-04-26T14:09:46.224Z</time></trkpt><trkpt lat="42.2253243" lon="13.5052025"><ele>1276.5</ele><time>2026-04-26T14:09:47.223Z</time></trkpt><trkpt lat="42.2249663" lon="13.5055457"><ele>1276.0</ele><time>2026-04-26T14:09:48.223Z</time></trkpt><trkpt lat="42.2246172" lon="13.505894"><ele>1276.0</ele><time>2026-04-26T14:09:49.223Z</time></trkpt><trkpt lat="42.2242785" lon="13.5062343"><ele>1276.0</ele><time>2026-04-26T14:09:50.223Z</time></trkpt><trkpt lat="42.2239519" lon="13.5065739"><ele>1276.0</ele><time>2026-04-26T14:09:51.223Z</time></trkpt><trkpt lat="42.2236399" lon="13.5068911"><ele>1276.0</ele><time>2026-04-26T14:09:52.223Z</time></trkpt><trkpt lat="42.2233547" lon="13.5071877"><ele>1276.5</ele><time>2026-04-26T14:09:53.223Z</time></trkpt><trkpt lat="42.2230723" lon="13.5074759"><ele>1277.0</ele><time>2026-04-26T14:09:54.224Z</time></trkpt><trkpt lat="42.222782" lon="13.5077696"><ele>1278.0</ele><time>2026-04-26T14:09:55.223Z</time></trkpt><trkpt lat="42.2224984" lon="13.5080645"><ele>1279.0</ele><time>2026-04-26T14:09:56.224Z</time></trkpt><trkpt lat="42.2222227" lon="13.5083521"><ele>1279.5</ele><time>2026-04-26T14:09:57.224Z</time></trkpt><trkpt lat="42.2219578" lon="13.5086302"><ele>1280.0</ele><time>2026-04-26T14:09:58.224Z</time></trkpt><trkpt lat="42.2216939" lon="13.5089105"><ele>1278.0</ele><time>2026-04-26T14:09:59.223Z</time></trkpt><trkpt lat="42.2214256" lon="13.509185"><ele>1276.0</ele><time>2026-04-26T14:10:00.223Z</time></trkpt><trkpt lat="42.2211577" lon="13.5094629"><ele>1275.5</ele><time>2026-04-26T14:10:01.223Z</time></trkpt><trkpt lat="42.2208884" lon="13.5097412"><ele>1275.0</ele><time>2026-04-26T14:10:02.224Z</time></trkpt><trkpt lat="42.2206202" lon="13.5100245"><ele>1275.5</ele><time>2026-04-26T14:10:03.223Z</time></trkpt><trkpt lat="42.2203551" lon="13.5103015"><ele>1276.0</ele><time>2026-04-26T14:10:04.224Z</time></trkpt><trkpt lat="42.2200848" lon="13.5105849"><ele>1276.0</ele><time>2026-04-26T14:10:05.224Z</time></trkpt><trkpt lat="42.2198135" lon="13.5108647"><ele>1276.0</ele><time>2026-04-26T14:10:06.223Z</time></trkpt><trkpt lat="42.2195374" lon="13.5111532"><ele>1276.0</ele><time>2026-04-26T14:10:07.223Z</time></trkpt><trkpt lat="42.2192597" lon="13.5114438"><ele>1276.0</ele><time>2026-04-26T14:10:08.223Z</time></trkpt><trkpt lat="42.2189815" lon="13.5117382"><ele>1276.0</ele><time>2026-04-26T14:10:09.223Z</time></trkpt><trkpt lat="42.2187039" lon="13.5120292"><ele>1276.0</ele><time>2026-04-26T14:10:10.224Z</time></trkpt><trkpt lat="42.21843" lon="13.5123115"><ele>1275.0</ele><time>2026-04-26T14:10:11.223Z</time></trkpt><trkpt lat="42.2181572" lon="13.5125934"><ele>1274.0</ele><time>2026-04-26T14:10:12.223Z</time></trkpt><trkpt lat="42.2178876" lon="13.5128744"><ele>1274.5</ele><time>2026-04-26T14:10:13.223Z</time></trkpt><trkpt lat="42.2176195" lon="13.5131558"><ele>1275.0</ele><time>2026-04-26T14:10:14.223Z</time></trkpt><trkpt lat="42.2173639" lon="13.5134283"><ele>1276.5</ele><time>2026-04-26T14:10:15.223Z</time></trkpt><trkpt lat="42.2171149" lon="13.5136831"><ele>1278.0</ele><time>2026-04-26T14:10:16.224Z</time></trkpt><trkpt lat="42.2168801" lon="13.5139324"><ele>1278.0</ele><time>2026-04-26T14:10:17.223Z</time></trkpt><trkpt lat="42.216648" lon="13.5141747"><ele>1278.0</ele><time>2026-04-26T14:10:18.223Z</time></trkpt><trkpt lat="42.2164258" lon="13.5144023"><ele>1278.5</ele><time>2026-04-26T14:10:19.223Z</time></trkpt><trkpt lat="42.2162225" lon="13.5146192"><ele>1279.0</ele><time>2026-04-26T14:10:20.223Z</time></trkpt><trkpt lat="42.216036" lon="13.5148192"><ele>1279.0</ele><time>2026-04-26T14:10:21.223Z</time></trkpt><trkpt lat="42.2158714" lon="13.5149767"><ele>1279.0</ele><time>2026-04-26T14:10:22.223Z</time></trkpt><trkpt lat="42.2157012" lon="13.5151109"><ele>1279.0</ele><time>2026-04-26T14:10:23.223Z</time></trkpt><trkpt lat="42.2155023" lon="13.5152227"><ele>1279.5</ele><time>2026-04-26T14:10:24.223Z</time></trkpt><trkpt lat="42.2152809" lon="13.5153242"><ele>1280.0</ele><time>2026-04-26T14:10:25.223Z</time></trkpt><trkpt lat="42.2150412" lon="13.5154314"><ele>1278.5</ele><time>2026-04-26T14:10:26.224Z</time></trkpt><trkpt lat="42.2147847" lon="13.5155429"><ele>1277.0</ele><time>2026-04-26T14:10:27.223Z</time></trkpt><trkpt lat="42.214525" lon="13.515664"><ele>1277.0</ele><time>2026-04-26T14:10:28.223Z</time></trkpt><trkpt lat="42.2142589" lon="13.5157801"><ele>1277.0</ele><time>2026-04-26T14:10:29.223Z</time></trkpt><trkpt lat="42.2139964" lon="13.5158917"><ele>1277.0</ele><time>2026-04-26T14:10:30.223Z</time></trkpt><trkpt lat="42.2137276" lon="13.5160046"><ele>1277.0</ele><time>2026-04-26T14:10:31.223Z</time></trkpt><trkpt lat="42.2134586" lon="13.5161188"><ele>1277.0</ele><time>2026-04-26T14:10:32.224Z</time></trkpt><trkpt lat="42.2131895" lon="13.5162327"><ele>1277.0</ele><time>2026-04-26T14:10:33.223Z</time></trkpt><trkpt lat="42.212918" lon="13.5163463"><ele>1276.5</ele><time>2026-04-26T14:10:34.223Z</time></trkpt><trkpt lat="42.2126483" lon="13.5164587"><ele>1276.0</ele><time>2026-04-26T14:10:35.223Z</time></trkpt><trkpt lat="42.2123834" lon="13.5165745"><ele>1277.0</ele><time>2026-04-26T14:10:36.224Z</time></trkpt><trkpt lat="42.2121153" lon="13.5166883"><ele>1278.0</ele><time>2026-04-26T14:10:37.223Z</time></trkpt><trkpt lat="42.2118557" lon="13.5168002"><ele>1278.0</ele><time>2026-04-26T14:10:38.223Z</time></trkpt><trkpt lat="42.2116092" lon="13.516912"><ele>1278.0</ele><time>2026-04-26T14:10:39.223Z</time></trkpt><trkpt lat="42.2113797" lon="13.5170155"><ele>1279.5</ele><time>2026-04-26T14:10:40.223Z</time></trkpt><trkpt lat="42.2111573" lon="13.5171107"><ele>1281.0</ele><time>2026-04-26T14:10:41.223Z</time></trkpt><trkpt lat="42.2109503" lon="13.5171963"><ele>1281.0</ele><time>2026-04-26T14:10:42.224Z</time></trkpt><trkpt lat="42.2107563" lon="13.5172814"><ele>1281.0</ele><time>2026-04-26T14:10:43.223Z</time></trkpt><trkpt lat="42.2105824" lon="13.5173527"><ele>1281.0</ele><time>2026-04-26T14:10:44.223Z</time></trkpt><trkpt lat="42.2104235" lon="13.5174291"><ele>1280.5</ele><time>2026-04-26T14:10:45.223Z</time></trkpt><trkpt lat="42.2102813" lon="13.5174882"><ele>1280.0</ele><time>2026-04-26T14:10:46.223Z</time></trkpt><trkpt lat="42.2101645" lon="13.5175524"><ele>1279.5</ele><time>2026-04-26T14:10:47.223Z</time></trkpt><trkpt lat="42.21007" lon="13.5176148"><ele>1279.0</ele><time>2026-04-26T14:10:48.223Z</time></trkpt><trkpt lat="42.2099701" lon="13.5176699"><ele>1279.0</ele><time>2026-04-26T14:10:49.223Z</time></trkpt><trkpt lat="42.2098473" lon="13.5177117"><ele>1279.0</ele><time>2026-04-26T14:10:50.223Z</time></trkpt><trkpt lat="42.20972" lon="13.5177496"><ele>1279.0</ele><time>2026-04-26T14:10:51.224Z</time></trkpt><trkpt lat="42.209581" lon="13.5177421"><ele>1279.0</ele><time>2026-04-26T14:10:52.223Z</time></trkpt><trkpt lat="42.2094253" lon="13.5177392"><ele>1279.6666666666665</ele><time>2026-04-26T14:10:53.223Z</time></trkpt><trkpt lat="42.209257" lon="13.5177863"><ele>1280.3333333333333</ele><time>2026-04-26T14:10:54.224Z</time></trkpt><trkpt lat="42.2091049" lon="13.5178127"><ele>1281.0</ele><time>2026-04-26T14:10:55.223Z</time></trkpt><trkpt lat="42.2089481" lon="13.5178456"><ele>1281.0</ele><time>2026-04-26T14:10:56.224Z</time></trkpt><trkpt lat="42.2087914" lon="13.5178812"><ele>1281.0</ele><time>2026-04-26T14:10:57.223Z</time></trkpt><trkpt lat="42.2086372" lon="13.5179231"><ele>1281.0</ele><time>2026-04-26T14:10:58.223Z</time></trkpt><trkpt lat="42.2084858" lon="13.5179549"><ele>1280.5</ele><time>2026-04-26T14:10:59.223Z</time></trkpt><trkpt lat="42.2083354" lon="13.5179891"><ele>1280.0</ele><time>2026-04-26T14:11:00.223Z</time></trkpt><trkpt lat="42.2081896" lon="13.5180261"><ele>1279.5</ele><time>2026-04-26T14:11:01.223Z</time></trkpt><trkpt lat="42.2080461" lon="13.5180576"><ele>1279.0</ele><time>2026-04-26T14:11:02.223Z</time></trkpt><trkpt lat="42.2078993" lon="13.518092"><ele>1279.0</ele><time>2026-04-26T14:11:03.223Z</time></trkpt><trkpt lat="42.2077542" lon="13.5181209"><ele>1279.0</ele><time>2026-04-26T14:11:04.223Z</time></trkpt><trkpt lat="42.2076108" lon="13.5181522"><ele>1279.0</ele><time>2026-04-26T14:11:05.223Z</time></trkpt><trkpt lat="42.2074644" lon="13.5181824"><ele>1279.0</ele><time>2026-04-26T14:11:06.23Z</time></trkpt><trkpt lat="42.2073205" lon="13.5182108"><ele>1279.5</ele><time>2026-04-26T14:11:07.23Z</time></trkpt><trkpt lat="42.2071802" lon="13.5182318"><ele>1280.0</ele><time>2026-04-26T14:11:08.231Z</time></trkpt><trkpt lat="42.2070483" lon="13.5182651"><ele>1280.5</ele><time>2026-04-26T14:11:09.23Z</time></trkpt><trkpt lat="42.2069176" lon="13.5182938"><ele>1281.0</ele><time>2026-04-26T14:11:10.23Z</time></trkpt><trkpt lat="42.206785" lon="13.5183163"><ele>1281.0</ele><time>2026-04-26T14:11:11.231Z</time></trkpt><trkpt lat="42.2066573" lon="13.5183423"><ele>1281.0</ele><time>2026-04-26T14:11:12.231Z</time></trkpt><trkpt lat="42.2065295" lon="13.5183708"><ele>1281.0</ele><time>2026-04-26T14:11:13.231Z</time></trkpt><trkpt lat="42.2064022" lon="13.5184044"><ele>1281.0</ele><time>2026-04-26T14:11:14.23Z</time></trkpt><trkpt lat="42.2062703" lon="13.5184361"><ele>1281.25</ele><time>2026-04-26T14:11:15.23Z</time></trkpt><trkpt lat="42.2061374" lon="13.5184667"><ele>1281.5</ele><time>2026-04-26T14:11:16.23Z</time></trkpt><trkpt lat="42.206008" lon="13.5184934"><ele>1281.75</ele><time>2026-04-26T14:11:17.231Z</time></trkpt><trkpt lat="42.2058754" lon="13.5185178"><ele>1282.0</ele><time>2026-04-26T14:11:18.23Z</time></trkpt><trkpt lat="42.2057384" lon="13.5185484"><ele>1282.25</ele><time>2026-04-26T14:11:19.231Z</time></trkpt><trkpt lat="42.2056005" lon="13.5185802"><ele>1282.5</ele><time>2026-04-26T14:11:20.23Z</time></trkpt><trkpt lat="42.2054623" lon="13.5186119"><ele>1282.75</ele><time>2026-04-26T14:11:21.23Z</time></trkpt><trkpt lat="42.2053252" lon="13.5186509"><ele>1283.0</ele><time>2026-04-26T14:11:22.23Z</time></trkpt><trkpt lat="42.2051915" lon="13.5186844"><ele>1283.0</ele><time>2026-04-26T14:11:23.23Z</time></trkpt><trkpt lat="42.2050587" lon="13.5187136"><ele>1283.0</ele><time>2026-04-26T14:11:24.231Z</time></trkpt><trkpt lat="42.2049194" lon="13.518742"><ele>1283.0</ele><time>2026-04-26T14:11:25.23Z</time></trkpt><trkpt lat="42.2047818" lon="13.5187706"><ele>1283.0</ele><time>2026-04-26T14:11:26.23Z</time></trkpt><trkpt lat="42.2046435" lon="13.518812"><ele>1283.25</ele><time>2026-04-26T14:11:27.23Z</time></trkpt><trkpt lat="42.2045073" lon="13.5188349"><ele>1283.5</ele><time>2026-04-26T14:11:28.231Z</time></trkpt><trkpt lat="42.204368" lon="13.518865"><ele>1283.75</ele><time>2026-04-26T14:11:29.23Z</time></trkpt><trkpt lat="42.2042282" lon="13.518892"><ele>1284.0</ele><time>2026-04-26T14:11:30.231Z</time></trkpt><trkpt lat="42.2040801" lon="13.5189275"><ele>1283.5</ele><time>2026-04-26T14:11:31.23Z</time></trkpt><trkpt lat="42.2039376" lon="13.5189555"><ele>1283.0</ele><time>2026-04-26T14:11:32.23Z</time></trkpt><trkpt lat="42.2037904" lon="13.5189886"><ele>1282.5</ele><time>2026-04-26T14:11:33.231Z</time></trkpt><trkpt lat="42.2036433" lon="13.5190197"><ele>1282.0</ele><time>2026-04-26T14:11:34.231Z</time></trkpt><trkpt lat="42.203492" lon="13.5190475"><ele>1282.0</ele><time>2026-04-26T14:11:35.23Z</time></trkpt><trkpt lat="42.2033397" lon="13.5190834"><ele>1282.0</ele><time>2026-04-26T14:11:36.23Z</time></trkpt><trkpt lat="42.203186" lon="13.5191182"><ele>1282.0</ele><time>2026-04-26T14:11:37.23Z</time></trkpt><trkpt lat="42.2030312" lon="13.5191573"><ele>1281.6666666666665</ele><time>2026-04-26T14:11:38.23Z</time></trkpt><trkpt lat="42.2028784" lon="13.5191909"><ele>1281.3333333333333</ele><time>2026-04-26T14:11:39.23Z</time></trkpt><trkpt lat="42.2027307" lon="13.5192256"><ele>1281.0</ele><time>2026-04-26T14:11:40.23Z</time></trkpt><trkpt lat="42.202583" lon="13.5192566"><ele>1281.0</ele><time>2026-04-26T14:11:41.231Z</time></trkpt><trkpt lat="42.202438" lon="13.5192878"><ele>1281.0</ele><time>2026-04-26T14:11:42.23Z</time></trkpt><trkpt lat="42.2022879" lon="13.5193123"><ele>1281.0</ele><time>2026-04-26T14:11:43.231Z</time></trkpt><trkpt lat="42.2021356" lon="13.5193478"><ele>1281.25</ele><time>2026-04-26T14:11:44.23Z</time></trkpt><trkpt lat="42.2019913" lon="13.5193839"><ele>1281.5</ele><time>2026-04-26T14:11:45.23Z</time></trkpt><trkpt lat="42.20185" lon="13.519417"><ele>1281.75</ele><time>2026-04-26T14:11:46.23Z</time></trkpt><trkpt lat="42.2017178" lon="13.5194445"><ele>1282.0</ele><time>2026-04-26T14:11:47.23Z</time></trkpt><trkpt lat="42.2015801" lon="13.5194722"><ele>1282.1999999999998</ele><time>2026-04-26T14:11:48.23Z</time></trkpt><trkpt lat="42.2014508" lon="13.5195056"><ele>1282.4</ele><time>2026-04-26T14:11:49.23Z</time></trkpt><trkpt lat="42.2013299" lon="13.5195326"><ele>1282.6</ele><time>2026-04-26T14:11:50.23Z</time></trkpt><trkpt lat="42.2012245" lon="13.519554"><ele>1282.8000000000002</ele><time>2026-04-26T14:11:51.23Z</time></trkpt><trkpt lat="42.201138" lon="13.5195701"><ele>1283.0</ele><time>2026-04-26T14:11:52.23Z</time></trkpt><trkpt lat="42.2010679" lon="13.5195784"><ele>1283.0</ele><time>2026-04-26T14:11:53.23Z</time></trkpt><trkpt lat="42.2009489" lon="13.5195756"><ele>1283.0</ele><time>2026-04-26T14:11:55.23Z</time></trkpt><trkpt lat="42.2008266" lon="13.5196172"><ele>1283.0</ele><time>2026-04-26T14:11:57.231Z</time></trkpt><trkpt lat="42.2007353" lon="13.5196364"><ele>1283.0</ele><time>2026-04-26T14:11:58.23Z</time></trkpt><trkpt lat="42.2006343" lon="13.5196645"><ele>1283.0</ele><time>2026-04-26T14:11:59.23Z</time></trkpt><trkpt lat="42.2005206" lon="13.5196937"><ele>1283.25</ele><time>2026-04-26T14:12:00.23Z</time></trkpt><trkpt lat="42.2003987" lon="13.5197178"><ele>1283.5</ele><time>2026-04-26T14:12:01.23Z</time></trkpt><trkpt lat="42.2002721" lon="13.5197434"><ele>1283.75</ele><time>2026-04-26T14:12:02.23Z</time></trkpt><trkpt lat="42.2001446" lon="13.5197718"><ele>1284.0</ele><time>2026-04-26T14:12:03.23Z</time></trkpt><trkpt lat="42.2000117" lon="13.5197993"><ele>1284.0</ele><time>2026-04-26T14:12:04.23Z</time></trkpt><trkpt lat="42.1998759" lon="13.5198256"><ele>1284.0</ele><time>2026-04-26T14:12:05.23Z</time></trkpt><trkpt lat="42.1997386" lon="13.5198555"><ele>1284.0</ele><time>2026-04-26T14:12:06.23Z</time></trkpt><trkpt lat="42.1995954" lon="13.5198905"><ele>1284.0</ele><time>2026-04-26T14:12:07.23Z</time></trkpt><trkpt lat="42.1994373" lon="13.5199309"><ele>1283.3333333333333</ele><time>2026-04-26T14:12:08.23Z</time></trkpt><trkpt lat="42.1992694" lon="13.5199656"><ele>1282.6666666666665</ele><time>2026-04-26T14:12:09.231Z</time></trkpt><trkpt lat="42.1990838" lon="13.5200046"><ele>1282.0</ele><time>2026-04-26T14:12:10.231Z</time></trkpt><trkpt lat="42.1988857" lon="13.5200463"><ele>1281.6666666666665</ele><time>2026-04-26T14:12:11.23Z</time></trkpt><trkpt lat="42.1986782" lon="13.520092"><ele>1281.3333333333333</ele><time>2026-04-26T14:12:12.231Z</time></trkpt><trkpt lat="42.1984762" lon="13.5201346"><ele>1281.0</ele><time>2026-04-26T14:12:13.231Z</time></trkpt><trkpt lat="42.1983119" lon="13.5201733"><ele>1281.6666666666667</ele><time>2026-04-26T14:12:14.231Z</time></trkpt><trkpt lat="42.1981555" lon="13.5202027"><ele>1282.3333333333335</ele><time>2026-04-26T14:12:15.23Z</time></trkpt><trkpt lat="42.1980016" lon="13.5202297"><ele>1283.0</ele><time>2026-04-26T14:12:16.23Z</time></trkpt><trkpt lat="42.1978509" lon="13.5202549"><ele>1283.0</ele><time>2026-04-26T14:12:17.23Z</time></trkpt><trkpt lat="42.1976993" lon="13.5202944"><ele>1283.0</ele><time>2026-04-26T14:12:18.23Z</time></trkpt><trkpt lat="42.1975499" lon="13.5203272"><ele>1283.0</ele><time>2026-04-26T14:12:19.23Z</time></trkpt><trkpt lat="42.1974013" lon="13.5203636"><ele>1283.6666666666667</ele><time>2026-04-26T14:12:20.231Z</time></trkpt><trkpt lat="42.1972515" lon="13.5203997"><ele>1284.3333333333333</ele><time>2026-04-26T14:12:21.23Z</time></trkpt><trkpt lat="42.1971024" lon="13.5204295"><ele>1285.0</ele><time>2026-04-26T14:12:22.23Z</time></trkpt><trkpt lat="42.1969576" lon="13.5204635"><ele>1285.0</ele><time>2026-04-26T14:12:23.23Z</time></trkpt><trkpt lat="42.1968147" lon="13.520494"><ele>1285.0</ele><time>2026-04-26T14:12:24.231Z</time></trkpt><trkpt lat="42.1966744" lon="13.5205198"><ele>1285.0</ele><time>2026-04-26T14:12:25.231Z</time></trkpt><trkpt lat="42.1965372" lon="13.5205499"><ele>1285.0</ele><time>2026-04-26T14:12:26.23Z</time></trkpt><trkpt lat="42.1963987" lon="13.520582"><ele>1285.5</ele><time>2026-04-26T14:12:27.231Z</time></trkpt><trkpt lat="42.1962672" lon="13.5206183"><ele>1286.0</ele><time>2026-04-26T14:12:28.231Z</time></trkpt><trkpt lat="42.1961399" lon="13.520649"><ele>1286.5</ele><time>2026-04-26T14:12:29.23Z</time></trkpt><trkpt lat="42.1960104" lon="13.5206771"><ele>1287.0</ele><time>2026-04-26T14:12:30.23Z</time></trkpt><trkpt lat="42.1958869" lon="13.5207081"><ele>1287.0</ele><time>2026-04-26T14:12:31.23Z</time></trkpt><trkpt lat="42.1957615" lon="13.5207412"><ele>1287.0</ele><time>2026-04-26T14:12:32.23Z</time></trkpt><trkpt lat="42.1956312" lon="13.520768"><ele>1287.0</ele><time>2026-04-26T14:12:33.23Z</time></trkpt><trkpt lat="42.1954955" lon="13.5207979"><ele>1287.0</ele><time>2026-04-26T14:12:34.23Z</time></trkpt><trkpt lat="42.195358" lon="13.5208245"><ele>1288.0</ele><time>2026-04-26T14:12:35.231Z</time></trkpt><trkpt lat="42.1952253" lon="13.520851"><ele>1289.0</ele><time>2026-04-26T14:12:36.23Z</time></trkpt><trkpt lat="42.1951052" lon="13.5208718"><ele>1290.0</ele><time>2026-04-26T14:12:37.23Z</time></trkpt><trkpt lat="42.1949969" lon="13.5208934"><ele>1291.0</ele><time>2026-04-26T14:12:38.23Z</time></trkpt><trkpt lat="42.1949038" lon="13.5209161"><ele>1291.1666666666665</ele><time>2026-04-26T14:12:39.23Z</time></trkpt><trkpt lat="42.194832" lon="13.5209483"><ele>1291.3333333333333</ele><time>2026-04-26T14:12:40.231Z</time></trkpt><trkpt lat="42.1947804" lon="13.5210061"><ele>1291.5</ele><time>2026-04-26T14:12:41.23Z</time></trkpt><trkpt lat="42.1947472" lon="13.5210962"><ele>1291.6666666666667</ele><time>2026-04-26T14:12:42.231Z</time></trkpt><trkpt lat="42.1947259" lon="13.5212006"><ele>1291.8333333333335</ele><time>2026-04-26T14:12:43.23Z</time></trkpt><trkpt lat="42.1947165" lon="13.5213145"><ele>1292.0</ele><time>2026-04-26T14:12:44.231Z</time></trkpt><trkpt lat="42.1947066" lon="13.5214268"><ele>1292.0</ele><time>2026-04-26T14:12:45.23Z</time></trkpt><trkpt lat="42.194705" lon="13.5215763"><ele>1292.0</ele><time>2026-04-26T14:12:47.231Z</time></trkpt><trkpt lat="42.1947325" lon="13.5216564"><ele>1292.0</ele><time>2026-04-26T14:12:50.231Z</time></trkpt><trkpt lat="42.1947774" lon="13.521583"><ele>1292.0</ele><time>2026-04-26T14:12:57.23Z</time></trkpt><trkpt lat="42.1948048" lon="13.5214732"><ele>1292.0</ele><time>2026-04-26T14:13:00.231Z</time></trkpt><trkpt lat="42.1948502" lon="13.5213688"><ele>1292.0</ele><time>2026-04-26T14:13:39.231Z</time></trkpt><trkpt lat="42.1948746" lon="13.5212286"><ele>1291.8</ele><time>2026-04-26T14:13:41.23Z</time></trkpt><trkpt lat="42.1949129" lon="13.5211466"><ele>1291.6</ele><time>2026-04-26T14:13:42.23Z</time></trkpt><trkpt lat="42.1949557" lon="13.5210716"><ele>1291.3999999999999</ele><time>2026-04-26T14:13:43.231Z</time></trkpt><trkpt lat="42.1950515" lon="13.5209595"><ele>1291.1999999999998</ele><time>2026-04-26T14:13:45.231Z</time></trkpt><trkpt lat="42.1951348" lon="13.5209109"><ele>1291.0</ele><time>2026-04-26T14:13:46.231Z</time></trkpt><trkpt lat="42.1952505" lon="13.5208708"><ele>1291.0</ele><time>2026-04-26T14:13:47.231Z</time></trkpt><trkpt lat="42.1953981" lon="13.520837"><ele>1291.0</ele><time>2026-04-26T14:13:48.23Z</time></trkpt><trkpt lat="42.1955632" lon="13.5207981"><ele>1291.0</ele><time>2026-04-26T14:13:49.23Z</time></trkpt><trkpt lat="42.1957586" lon="13.5207501"><ele>1289.0</ele><time>2026-04-26T14:13:50.23Z</time></trkpt><trkpt lat="42.1959883" lon="13.520697"><ele>1287.0</ele><time>2026-04-26T14:13:51.23Z</time></trkpt><trkpt lat="42.196262" lon="13.5206364"><ele>1286.0</ele><time>2026-04-26T14:13:52.23Z</time></trkpt><trkpt lat="42.1965348" lon="13.5205834"><ele>1285.0</ele><time>2026-04-26T14:13:53.231Z</time></trkpt><trkpt lat="42.1967935" lon="13.5205334"><ele>1285.0</ele><time>2026-04-26T14:13:54.23Z</time></trkpt><trkpt lat="42.1970427" lon="13.5204733"><ele>1285.0</ele><time>2026-04-26T14:13:55.23Z</time></trkpt><trkpt lat="42.1972807" lon="13.5204224"><ele>1284.0</ele><time>2026-04-26T14:13:56.231Z</time></trkpt><trkpt lat="42.1975183" lon="13.520374"><ele>1283.0</ele><time>2026-04-26T14:13:57.231Z</time></trkpt><trkpt lat="42.1977426" lon="13.520334"><ele>1283.0</ele><time>2026-04-26T14:13:58.23Z</time></trkpt><trkpt lat="42.197954" lon="13.5202869"><ele>1283.0</ele><time>2026-04-26T14:13:59.23Z</time></trkpt><trkpt lat="42.1981516" lon="13.5202474"><ele>1283.0</ele><time>2026-04-26T14:14:00.231Z</time></trkpt><trkpt lat="42.1983368" lon="13.5202061"><ele>1282.3333333333335</ele><time>2026-04-26T14:14:01.231Z</time></trkpt><trkpt lat="42.1985159" lon="13.5201645"><ele>1281.6666666666667</ele><time>2026-04-26T14:14:02.23Z</time></trkpt><trkpt lat="42.1986832" lon="13.5201294"><ele>1281.0</ele><time>2026-04-26T14:14:03.23Z</time></trkpt><trkpt lat="42.1988374" lon="13.5200964"><ele>1281.0</ele><time>2026-04-26T14:14:04.23Z</time></trkpt><trkpt lat="42.1989865" lon="13.5200648"><ele>1281.0</ele><time>2026-04-26T14:14:05.23Z</time></trkpt><trkpt lat="42.1991263" lon="13.5200279"><ele>1281.0</ele><time>2026-04-26T14:14:06.23Z</time></trkpt><trkpt lat="42.1992514" lon="13.5200004"><ele>1281.0</ele><time>2026-04-26T14:14:07.23Z</time></trkpt><trkpt lat="42.199368" lon="13.5199785"><ele>1281.1666666666667</ele><time>2026-04-26T14:14:08.23Z</time></trkpt><trkpt lat="42.1994596" lon="13.5199544"><ele>1281.3333333333333</ele><time>2026-04-26T14:14:09.231Z</time></trkpt><trkpt lat="42.1995385" lon="13.5199258"><ele>1281.5</ele><time>2026-04-26T14:14:10.23Z</time></trkpt><trkpt lat="42.1996308" lon="13.5198721"><ele>1281.6666666666665</ele><time>2026-04-26T14:14:12.23Z</time></trkpt><trkpt lat="42.1996467" lon="13.5197584"><ele>1281.8333333333333</ele><time>2026-04-26T14:14:15.231Z</time></trkpt><trkpt lat="42.1995912" lon="13.5197118"><ele>1282.0</ele><time>2026-04-26T14:14:18.23Z</time></trkpt><trkpt lat="42.1994849" lon="13.5197026"><ele>1282.0</ele><time>2026-04-26T14:18:41.237Z</time></trkpt><trkpt lat="42.1994429" lon="13.5197735"><ele>1282.0</ele><time>2026-04-26T14:18:44.238Z</time></trkpt><trkpt lat="42.1994249" lon="13.5198743"><ele>1282.0</ele><time>2026-04-26T14:18:48.237Z</time></trkpt><trkpt lat="42.1993601" lon="13.5199193"><ele>1282.0</ele><time>2026-04-26T14:18:50.237Z</time></trkpt><trkpt lat="42.1992938" lon="13.5199254"><ele>1282.0</ele><time>2026-04-26T14:18:51.237Z</time></trkpt><trkpt lat="42.1992205" lon="13.5199402"><ele>1282.0</ele><time>2026-04-26T14:18:52.237Z</time></trkpt><trkpt lat="42.1991446" lon="13.5199309"><ele>1282.0</ele><time>2026-04-26T14:18:53.238Z</time></trkpt><trkpt lat="42.1990489" lon="13.5199536"><ele>1281.75</ele><time>2026-04-26T14:18:54.237Z</time></trkpt><trkpt lat="42.1989504" lon="13.5199642"><ele>1281.5</ele><time>2026-04-26T14:18:55.237Z</time></trkpt><trkpt lat="42.1988204" lon="13.51999"><ele>1281.25</ele><time>2026-04-26T14:18:56.238Z</time></trkpt><trkpt lat="42.1986687" lon="13.5200159"><ele>1281.0</ele><time>2026-04-26T14:18:57.237Z</time></trkpt><trkpt lat="42.1985141" lon="13.520053"><ele>1281.0</ele><time>2026-04-26T14:18:58.237Z</time></trkpt><trkpt lat="42.1983385" lon="13.5200833"><ele>1281.0</ele><time>2026-04-26T14:18:59.238Z</time></trkpt><trkpt lat="42.1981482" lon="13.520142"><ele>1281.0</ele><time>2026-04-26T14:19:00.237Z</time></trkpt><trkpt lat="42.1979483" lon="13.5201893"><ele>1281.6666666666667</ele><time>2026-04-26T14:19:01.237Z</time></trkpt><trkpt lat="42.1977519" lon="13.5202347"><ele>1282.3333333333335</ele><time>2026-04-26T14:19:02.237Z</time></trkpt><trkpt lat="42.1975558" lon="13.5202971"><ele>1283.0</ele><time>2026-04-26T14:19:03.238Z</time></trkpt><trkpt lat="42.1973603" lon="13.5203584"><ele>1283.6666666666667</ele><time>2026-04-26T14:19:04.237Z</time></trkpt><trkpt lat="42.1971638" lon="13.5204086"><ele>1284.3333333333333</ele><time>2026-04-26T14:19:05.238Z</time></trkpt><trkpt lat="42.1969652" lon="13.5204621"><ele>1285.0</ele><time>2026-04-26T14:19:06.238Z</time></trkpt><trkpt lat="42.1967675" lon="13.5205074"><ele>1285.0</ele><time>2026-04-26T14:19:07.237Z</time></trkpt><trkpt lat="42.1965662" lon="13.5205559"><ele>1285.0</ele><time>2026-04-26T14:19:08.237Z</time></trkpt><trkpt lat="42.1963681" lon="13.520602"><ele>1285.0</ele><time>2026-04-26T14:19:09.238Z</time></trkpt><trkpt lat="42.1961788" lon="13.5206401"><ele>1285.6666666666665</ele><time>2026-04-26T14:19:10.237Z</time></trkpt><trkpt lat="42.1959987" lon="13.5206825"><ele>1286.3333333333333</ele><time>2026-04-26T14:19:11.237Z</time></trkpt><trkpt lat="42.1958343" lon="13.5207215"><ele>1287.0</ele><time>2026-04-26T14:19:12.237Z</time></trkpt><trkpt lat="42.1956674" lon="13.5207513"><ele>1288.0</ele><time>2026-04-26T14:19:13.237Z</time></trkpt><trkpt lat="42.1955102" lon="13.5207811"><ele>1289.0</ele><time>2026-04-26T14:19:14.237Z</time></trkpt><trkpt lat="42.1953645" lon="13.5208141"><ele>1290.0</ele><time>2026-04-26T14:19:15.237Z</time></trkpt><trkpt lat="42.1952314" lon="13.520841"><ele>1291.0</ele><time>2026-04-26T14:19:16.238Z</time></trkpt><trkpt lat="42.1951176" lon="13.5208642"><ele>1291.0</ele><time>2026-04-26T14:19:17.237Z</time></trkpt><trkpt lat="42.1950204" lon="13.5208871"><ele>1291.0</ele><time>2026-04-26T14:19:18.237Z</time></trkpt><trkpt lat="42.1949503" lon="13.5209068"><ele>1291.0</ele><time>2026-04-26T14:19:19.237Z</time></trkpt><trkpt lat="42.1948465" lon="13.5209312"><ele>1291.0</ele><time>2026-04-26T14:19:21.237Z</time></trkpt><trkpt lat="42.1947823" lon="13.521004"><ele>1291.0</ele><time>2026-04-26T14:19:23.237Z</time></trkpt><trkpt lat="42.1947472" lon="13.5211759"><ele>1291.1666666666665</ele><time>2026-04-26T14:19:25.237Z</time></trkpt><trkpt lat="42.1947348" lon="13.5212793"><ele>1291.3333333333333</ele><time>2026-04-26T14:19:26.237Z</time></trkpt><trkpt lat="42.1947216" lon="13.5213744"><ele>1291.5</ele><time>2026-04-26T14:19:27.237Z</time></trkpt><trkpt lat="42.1947022" lon="13.5215026"><ele>1291.6666666666667</ele><time>2026-04-26T14:19:29.238Z</time></trkpt><trkpt lat="42.1947038" lon="13.5215991"><ele>1291.8333333333335</ele><time>2026-04-26T14:19:56.237Z</time></trkpt><trkpt lat="42.1947094" lon="13.5217343"><ele>1292.0</ele><time>2026-04-26T14:19:58.237Z</time></trkpt><trkpt lat="42.1947204" lon="13.5219019"><ele>1292.0</ele><time>2026-04-26T14:20:00.237Z</time></trkpt><trkpt lat="42.1947227" lon="13.5219995"><ele>1292.0</ele><time>2026-04-26T14:20:01.237Z</time></trkpt><trkpt lat="42.1947144" lon="13.5221012"><ele>1292.0</ele><time>2026-04-26T14:20:02.237Z</time></trkpt><trkpt lat="42.1947054" lon="13.5221911"><ele>1292.0</ele><time>2026-04-26T14:20:03.237Z</time></trkpt><trkpt lat="42.1947" lon="13.5222884"><ele>1292.0</ele><time>2026-04-26T14:20:04.237Z</time></trkpt><trkpt lat="42.1946915" lon="13.5224165"><ele>1292.0</ele><time>2026-04-26T14:20:05.237Z</time></trkpt><trkpt lat="42.1946822" lon="13.5225509"><ele>1292.25</ele><time>2026-04-26T14:20:06.237Z</time></trkpt><trkpt lat="42.1946685" lon="13.522724"><ele>1292.5</ele><time>2026-04-26T14:20:07.237Z</time></trkpt><trkpt lat="42.1946467" lon="13.5229089"><ele>1292.75</ele><time>2026-04-26T14:20:08.238Z</time></trkpt><trkpt lat="42.1946237" lon="13.5231069"><ele>1293.0</ele><time>2026-04-26T14:20:09.237Z</time></trkpt><trkpt lat="42.1945928" lon="13.5232983"><ele>1293.3333333333333</ele><time>2026-04-26T14:20:10.238Z</time></trkpt><trkpt lat="42.194535" lon="13.5234839"><ele>1293.6666666666665</ele><time>2026-04-26T14:20:11.237Z</time></trkpt><trkpt lat="42.1944416" lon="13.5236777"><ele>1294.0</ele><time>2026-04-26T14:20:12.237Z</time></trkpt><trkpt lat="42.1943211" lon="13.5238863"><ele>1294.3333333333333</ele><time>2026-04-26T14:20:13.237Z</time></trkpt><trkpt lat="42.1941885" lon="13.5240928"><ele>1294.6666666666667</ele><time>2026-04-26T14:20:14.237Z</time></trkpt><trkpt lat="42.1940632" lon="13.5242938"><ele>1295.0</ele><time>2026-04-26T14:20:15.237Z</time></trkpt><trkpt lat="42.1939423" lon="13.5244721"><ele>1294.75</ele><time>2026-04-26T14:20:16.238Z</time></trkpt><trkpt lat="42.193834" lon="13.5246343"><ele>1294.5</ele><time>2026-04-26T14:20:17.238Z</time></trkpt><trkpt lat="42.1937315" lon="13.5247748"><ele>1294.25</ele><time>2026-04-26T14:20:18.238Z</time></trkpt><trkpt lat="42.1936519" lon="13.5248931"><ele>1294.0</ele><time>2026-04-26T14:20:19.237Z</time></trkpt><trkpt lat="42.1935912" lon="13.5249871"><ele>1294.0</ele><time>2026-04-26T14:20:20.237Z</time></trkpt><trkpt lat="42.1935413" lon="13.5250647"><ele>1294.0</ele><time>2026-04-26T14:20:21.238Z</time></trkpt><trkpt lat="42.1934892" lon="13.525134"><ele>1294.0</ele><time>2026-04-26T14:20:39.237Z</time></trkpt><trkpt lat="42.1934389" lon="13.525211"><ele>1294.0</ele><time>2026-04-26T14:21:37.237Z</time></trkpt><trkpt lat="42.1933609" lon="13.5253186"><ele>1294.0</ele><time>2026-04-26T14:21:39.238Z</time></trkpt><trkpt lat="42.1933171" lon="13.525394"><ele>1294.0</ele><time>2026-04-26T14:21:40.237Z</time></trkpt><trkpt lat="42.1932625" lon="13.5254764"><ele>1294.2</ele><time>2026-04-26T14:21:41.237Z</time></trkpt><trkpt lat="42.1932045" lon="13.5255652"><ele>1294.4</ele><time>2026-04-26T14:21:42.237Z</time></trkpt><trkpt lat="42.1931406" lon="13.5256597"><ele>1294.6</ele><time>2026-04-26T14:21:43.237Z</time></trkpt><trkpt lat="42.1930687" lon="13.5257639"><ele>1294.8</ele><time>2026-04-26T14:21:44.238Z</time></trkpt><trkpt lat="42.1929789" lon="13.5258976"><ele>1295.0</ele><time>2026-04-26T14:21:45.237Z</time></trkpt><trkpt lat="42.192867" lon="13.5260607"><ele>1295.0</ele><time>2026-04-26T14:21:46.237Z</time></trkpt><trkpt lat="42.1927565" lon="13.5262222"><ele>1295.0</ele><time>2026-04-26T14:21:47.238Z</time></trkpt><trkpt lat="42.192649" lon="13.5263842"><ele>1295.0</ele><time>2026-04-26T14:21:48.237Z</time></trkpt><trkpt lat="42.1925485" lon="13.5265392"><ele>1294.6666666666667</ele><time>2026-04-26T14:21:49.237Z</time></trkpt><trkpt lat="42.1924488" lon="13.5267002"><ele>1294.3333333333333</ele><time>2026-04-26T14:21:50.237Z</time></trkpt><trkpt lat="42.1923499" lon="13.5268746"><ele>1294.0</ele><time>2026-04-26T14:21:51.237Z</time></trkpt><trkpt lat="42.192247" lon="13.5270572"><ele>1294.6666666666665</ele><time>2026-04-26T14:21:52.237Z</time></trkpt><trkpt lat="42.1921467" lon="13.527255"><ele>1295.3333333333333</ele><time>2026-04-26T14:21:53.238Z</time></trkpt><trkpt lat="42.1920472" lon="13.5274509"><ele>1296.0</ele><time>2026-04-26T14:21:54.237Z</time></trkpt><trkpt lat="42.1919477" lon="13.5276402"><ele>1296.0</ele><time>2026-04-26T14:21:55.238Z</time></trkpt><trkpt lat="42.1918502" lon="13.5278246"><ele>1296.0</ele><time>2026-04-26T14:21:56.237Z</time></trkpt><trkpt lat="42.191751" lon="13.5280124"><ele>1296.0</ele><time>2026-04-26T14:21:57.237Z</time></trkpt><trkpt lat="42.191651" lon="13.5281976"><ele>1295.6666666666667</ele><time>2026-04-26T14:21:58.237Z</time></trkpt><trkpt lat="42.191551" lon="13.5283862"><ele>1295.3333333333335</ele><time>2026-04-26T14:21:59.237Z</time></trkpt><trkpt lat="42.1914643" lon="13.5285757"><ele>1295.0</ele><time>2026-04-26T14:22:00.237Z</time></trkpt><trkpt lat="42.1914046" lon="13.5287751"><ele>1297.3333333333335</ele><time>2026-04-26T14:22:01.237Z</time></trkpt><trkpt lat="42.191369" lon="13.5289888"><ele>1299.6666666666667</ele><time>2026-04-26T14:22:02.237Z</time></trkpt><trkpt lat="42.1913711" lon="13.5292225"><ele>1302.0</ele><time>2026-04-26T14:22:03.237Z</time></trkpt><trkpt lat="42.1914185" lon="13.5294832"><ele>1304.3333333333333</ele><time>2026-04-26T14:22:04.237Z</time></trkpt><trkpt lat="42.191485" lon="13.5297494"><ele>1306.6666666666665</ele><time>2026-04-26T14:22:05.238Z</time></trkpt><trkpt lat="42.1915602" lon="13.5300207"><ele>1309.0</ele><time>2026-04-26T14:22:06.237Z</time></trkpt><trkpt lat="42.19164" lon="13.530273"><ele>1314.6666666666665</ele><time>2026-04-26T14:22:07.238Z</time></trkpt><trkpt lat="42.1917074" lon="13.530493"><ele>1320.3333333333333</ele><time>2026-04-26T14:22:08.237Z</time></trkpt><trkpt lat="42.1917565" lon="13.5307047"><ele>1326.0</ele><time>2026-04-26T14:22:09.237Z</time></trkpt><trkpt lat="42.1917913" lon="13.5309079"><ele>1326.0</ele><time>2026-04-26T14:22:10.238Z</time></trkpt><trkpt lat="42.1917834" lon="13.5311011"><ele>1326.0</ele><time>2026-04-26T14:22:11.237Z</time></trkpt><trkpt lat="42.1917494" lon="13.5312795"><ele>1326.0</ele><time>2026-04-26T14:22:12.237Z</time></trkpt><trkpt lat="42.1916604" lon="13.5314514"><ele>1326.0</ele><time>2026-04-26T14:22:13.238Z</time></trkpt><trkpt lat="42.191534" lon="13.531608"><ele>1325.6666666666667</ele><time>2026-04-26T14:22:14.237Z</time></trkpt><trkpt lat="42.191377" lon="13.5317671"><ele>1325.3333333333335</ele><time>2026-04-26T14:22:15.237Z</time></trkpt><trkpt lat="42.1912138" lon="13.5319248"><ele>1325.0</ele><time>2026-04-26T14:22:16.238Z</time></trkpt><trkpt lat="42.1910675" lon="13.5320888"><ele>1327.3333333333335</ele><time>2026-04-26T14:22:17.238Z</time></trkpt><trkpt lat="42.1909357" lon="13.5322658"><ele>1329.6666666666667</ele><time>2026-04-26T14:22:18.237Z</time></trkpt><trkpt lat="42.1908175" lon="13.5324729"><ele>1332.0</ele><time>2026-04-26T14:22:19.237Z</time></trkpt><trkpt lat="42.1906978" lon="13.532696"><ele>1331.0</ele><time>2026-04-26T14:22:20.237Z</time></trkpt><trkpt lat="42.190578" lon="13.5329305"><ele>1330.0</ele><time>2026-04-26T14:22:21.237Z</time></trkpt><trkpt lat="42.1904474" lon="13.5331765"><ele>1329.0</ele><time>2026-04-26T14:22:22.237Z</time></trkpt><trkpt lat="42.1903079" lon="13.5334367"><ele>1336.0</ele><time>2026-04-26T14:22:23.237Z</time></trkpt><trkpt lat="42.1901575" lon="13.5337338"><ele>1343.0</ele><time>2026-04-26T14:22:24.238Z</time></trkpt><trkpt lat="42.1899998" lon="13.5340233"><ele>1343.0</ele><time>2026-04-26T14:22:25.238Z</time></trkpt><trkpt lat="42.1898453" lon="13.5343194"><ele>1343.0</ele><time>2026-04-26T14:22:26.237Z</time></trkpt><trkpt lat="42.1896914" lon="13.5346098"><ele>1341.5</ele><time>2026-04-26T14:22:27.237Z</time></trkpt><trkpt lat="42.1895411" lon="13.5348917"><ele>1340.0</ele><time>2026-04-26T14:22:28.238Z</time></trkpt><trkpt lat="42.18939" lon="13.5351708"><ele>1347.0</ele><time>2026-04-26T14:22:29.237Z</time></trkpt><trkpt lat="42.1892377" lon="13.5354535"><ele>1354.0</ele><time>2026-04-26T14:22:30.238Z</time></trkpt><trkpt lat="42.1890794" lon="13.535738"><ele>1352.0</ele><time>2026-04-26T14:22:31.238Z</time></trkpt><trkpt lat="42.188927" lon="13.5360275"><ele>1350.0</ele><time>2026-04-26T14:22:32.237Z</time></trkpt><trkpt lat="42.1887871" lon="13.5363181"><ele>1350.0</ele><time>2026-04-26T14:22:33.237Z</time></trkpt><trkpt lat="42.1886606" lon="13.536614"><ele>1350.0</ele><time>2026-04-26T14:22:34.237Z</time></trkpt><trkpt lat="42.188545" lon="13.5369168"><ele>1356.5</ele><time>2026-04-26T14:22:35.237Z</time></trkpt><trkpt lat="42.1884202" lon="13.5372164"><ele>1363.0</ele><time>2026-04-26T14:22:36.237Z</time></trkpt><trkpt lat="42.1882628" lon="13.5375014"><ele>1364.0</ele><time>2026-04-26T14:22:37.237Z</time></trkpt><trkpt lat="42.1880662" lon="13.5377771"><ele>1365.0</ele><time>2026-04-26T14:22:38.237Z</time></trkpt><trkpt lat="42.1878694" lon="13.5380681"><ele>1365.0</ele><time>2026-04-26T14:22:39.237Z</time></trkpt><trkpt lat="42.1876781" lon="13.5383414"><ele>1365.0</ele><time>2026-04-26T14:22:40.238Z</time></trkpt><trkpt lat="42.1874996" lon="13.5386051"><ele>1365.0</ele><time>2026-04-26T14:22:41.237Z</time></trkpt><trkpt lat="42.1873322" lon="13.5388543"><ele>1365.0</ele><time>2026-04-26T14:22:42.237Z</time></trkpt><trkpt lat="42.1871794" lon="13.5390954"><ele>1365.0</ele><time>2026-04-26T14:22:43.237Z</time></trkpt><trkpt lat="42.187046" lon="13.5392852"><ele>1365.0</ele><time>2026-04-26T14:22:44.237Z</time></trkpt><trkpt lat="42.1869429" lon="13.5394628"><ele>1365.0</ele><time>2026-04-26T14:22:45.237Z</time></trkpt><trkpt lat="42.186884" lon="13.5396794"><ele>1368.6666666666667</ele><time>2026-04-26T14:22:46.238Z</time></trkpt><trkpt lat="42.1868503" lon="13.539911"><ele>1372.3333333333335</ele><time>2026-04-26T14:22:47.237Z</time></trkpt><trkpt lat="42.1868315" lon="13.5401783"><ele>1376.0</ele><time>2026-04-26T14:22:48.238Z</time></trkpt><trkpt lat="42.1868201" lon="13.5404688"><ele>1379.3333333333335</ele><time>2026-04-26T14:22:49.237Z</time></trkpt><trkpt lat="42.1868008" lon="13.5407598"><ele>1382.6666666666667</ele><time>2026-04-26T14:22:50.237Z</time></trkpt><trkpt lat="42.1867644" lon="13.5410533"><ele>1386.0</ele><time>2026-04-26T14:22:51.237Z</time></trkpt><trkpt lat="42.186705" lon="13.5413653"><ele>1388.5</ele><time>2026-04-26T14:22:52.238Z</time></trkpt><trkpt lat="42.1866473" lon="13.5416894"><ele>1391.0</ele><time>2026-04-26T14:22:53.238Z</time></trkpt><trkpt lat="42.1865969" lon="13.5420354"><ele>1391.0</ele><time>2026-04-26T14:22:54.237Z</time></trkpt><trkpt lat="42.1865727" lon="13.5423898"><ele>1391.0</ele><time>2026-04-26T14:22:55.238Z</time></trkpt><trkpt lat="42.186555" lon="13.5427674"><ele>1394.0</ele><time>2026-04-26T14:22:56.238Z</time></trkpt><trkpt lat="42.1865334" lon="13.5431478"><ele>1397.0</ele><time>2026-04-26T14:22:57.237Z</time></trkpt><trkpt lat="42.1865109" lon="13.5435369"><ele>1407.0</ele><time>2026-04-26T14:22:58.238Z</time></trkpt><trkpt lat="42.1865003" lon="13.5439317"><ele>1417.0</ele><time>2026-04-26T14:22:59.238Z</time></trkpt><trkpt lat="42.1864898" lon="13.5443478"><ele>1416.0</ele><time>2026-04-26T14:23:00.237Z</time></trkpt><trkpt lat="42.1864937" lon="13.5447876"><ele>1415.0</ele><time>2026-04-26T14:23:01.237Z</time></trkpt><trkpt lat="42.1865031" lon="13.5452388"><ele>1407.0</ele><time>2026-04-26T14:23:02.237Z</time></trkpt><trkpt lat="42.1865114" lon="13.5456735"><ele>1399.0</ele><time>2026-04-26T14:23:03.237Z</time></trkpt><trkpt lat="42.1865152" lon="13.5460852"><ele>1399.5</ele><time>2026-04-26T14:23:04.237Z</time></trkpt><trkpt lat="42.1865205" lon="13.5464789"><ele>1400.0</ele><time>2026-04-26T14:23:05.237Z</time></trkpt><trkpt lat="42.1865236" lon="13.5468651"><ele>1400.0</ele><time>2026-04-26T14:23:06.237Z</time></trkpt><trkpt lat="42.1865286" lon="13.5472396"><ele>1400.0</ele><time>2026-04-26T14:23:07.238Z</time></trkpt><trkpt lat="42.1865399" lon="13.5476015"><ele>1402.5</ele><time>2026-04-26T14:23:08.237Z</time></trkpt><trkpt lat="42.1865337" lon="13.5479433"><ele>1405.0</ele><time>2026-04-26T14:23:09.237Z</time></trkpt><trkpt lat="42.186509" lon="13.5482594"><ele>1417.5</ele><time>2026-04-26T14:23:10.237Z</time></trkpt><trkpt lat="42.1864707" lon="13.5485801"><ele>1430.0</ele><time>2026-04-26T14:23:11.237Z</time></trkpt><trkpt lat="42.1864497" lon="13.5488869"><ele>1430.0</ele><time>2026-04-26T14:23:12.237Z</time></trkpt><trkpt lat="42.1864636" lon="13.549187"><ele>1430.0</ele><time>2026-04-26T14:23:13.238Z</time></trkpt><trkpt lat="42.1865089" lon="13.5494737"><ele>1430.0</ele><time>2026-04-26T14:23:14.237Z</time></trkpt><trkpt lat="42.1865852" lon="13.5497405"><ele>1421.6666666666667</ele><time>2026-04-26T14:23:15.237Z</time></trkpt><trkpt lat="42.1866827" lon="13.5499981"><ele>1413.3333333333333</ele><time>2026-04-26T14:23:16.237Z</time></trkpt><trkpt lat="42.1867822" lon="13.550238"><ele>1405.0</ele><time>2026-04-26T14:23:17.237Z</time></trkpt><trkpt lat="42.1868633" lon="13.5504857"><ele>1403.3333333333333</ele><time>2026-04-26T14:23:18.238Z</time></trkpt><trkpt lat="42.1868973" lon="13.5507326"><ele>1401.6666666666667</ele><time>2026-04-26T14:23:19.238Z</time></trkpt><trkpt lat="42.1868839" lon="13.5509793"><ele>1400.0</ele><time>2026-04-26T14:23:20.237Z</time></trkpt><trkpt lat="42.186845" lon="13.551222"><ele>1399.0</ele><time>2026-04-26T14:23:21.238Z</time></trkpt><trkpt lat="42.1867834" lon="13.5514747"><ele>1398.0</ele><time>2026-04-26T14:23:22.237Z</time></trkpt><trkpt lat="42.1867232" lon="13.5517436"><ele>1397.0</ele><time>2026-04-26T14:23:23.238Z</time></trkpt><trkpt lat="42.1866528" lon="13.552024"><ele>1397.0</ele><time>2026-04-26T14:23:24.237Z</time></trkpt><trkpt lat="42.1865652" lon="13.552321"><ele>1397.0</ele><time>2026-04-26T14:23:25.238Z</time></trkpt><trkpt lat="42.1864798" lon="13.5526179"><ele>1402.5</ele><time>2026-04-26T14:23:26.237Z</time></trkpt><trkpt lat="42.1863998" lon="13.5529173"><ele>1408.0</ele><time>2026-04-26T14:23:27.238Z</time></trkpt><trkpt lat="42.1863198" lon="13.5532319"><ele>1408.0</ele><time>2026-04-26T14:23:28.238Z</time></trkpt><trkpt lat="42.1862324" lon="13.5535497"><ele>1408.0</ele><time>2026-04-26T14:23:29.237Z</time></trkpt><trkpt lat="42.1861509" lon="13.5538703"><ele>1404.0</ele><time>2026-04-26T14:23:30.237Z</time></trkpt><trkpt lat="42.1860714" lon="13.5541796"><ele>1400.0</ele><time>2026-04-26T14:23:31.237Z</time></trkpt><trkpt lat="42.1859941" lon="13.5544914"><ele>1398.5</ele><time>2026-04-26T14:23:32.237Z</time></trkpt><trkpt lat="42.1859122" lon="13.5547939"><ele>1397.0</ele><time>2026-04-26T14:23:33.237Z</time></trkpt><trkpt lat="42.1858294" lon="13.5551133"><ele>1397.5</ele><time>2026-04-26T14:23:34.237Z</time></trkpt><trkpt lat="42.1857408" lon="13.5554393"><ele>1398.0</ele><time>2026-04-26T14:23:35.237Z</time></trkpt><trkpt lat="42.1856224" lon="13.5557668"><ele>1399.5</ele><time>2026-04-26T14:23:36.237Z</time></trkpt><trkpt lat="42.1854853" lon="13.5561106"><ele>1401.0</ele><time>2026-04-26T14:23:37.238Z</time></trkpt><trkpt lat="42.1853371" lon="13.5564621"><ele>1401.0</ele><time>2026-04-26T14:23:38.237Z</time></trkpt><trkpt lat="42.1851897" lon="13.5568122"><ele>1401.0</ele><time>2026-04-26T14:23:39.237Z</time></trkpt><trkpt lat="42.1850503" lon="13.5571634"><ele>1402.5</ele><time>2026-04-26T14:23:40.237Z</time></trkpt><trkpt lat="42.1849202" lon="13.5575141"><ele>1404.0</ele><time>2026-04-26T14:23:41.238Z</time></trkpt><trkpt lat="42.1847883" lon="13.5578403"><ele>1399.0</ele><time>2026-04-26T14:23:42.237Z</time></trkpt><trkpt lat="42.184652" lon="13.558157"><ele>1394.0</ele><time>2026-04-26T14:23:43.238Z</time></trkpt><trkpt lat="42.1845228" lon="13.558469"><ele>1391.5</ele><time>2026-04-26T14:23:44.237Z</time></trkpt><trkpt lat="42.1844075" lon="13.5587759"><ele>1389.0</ele><time>2026-04-26T14:23:45.237Z</time></trkpt><trkpt lat="42.1843078" lon="13.5591129"><ele>1389.0</ele><time>2026-04-26T14:23:46.238Z</time></trkpt><trkpt lat="42.1842226" lon="13.5594503"><ele>1389.0</ele><time>2026-04-26T14:23:47.237Z</time></trkpt><trkpt lat="42.1841611" lon="13.5598059"><ele>1390.5</ele><time>2026-04-26T14:23:48.237Z</time></trkpt><trkpt lat="42.1841104" lon="13.5601733"><ele>1392.0</ele><time>2026-04-26T14:23:49.238Z</time></trkpt><trkpt lat="42.1840674" lon="13.5605419"><ele>1392.0</ele><time>2026-04-26T14:23:50.238Z</time></trkpt><trkpt lat="42.184029" lon="13.5608946"><ele>1392.0</ele><time>2026-04-26T14:23:51.237Z</time></trkpt><trkpt lat="42.1839794" lon="13.5612456"><ele>1400.5</ele><time>2026-04-26T14:23:52.238Z</time></trkpt><trkpt lat="42.1839019" lon="13.5616014"><ele>1409.0</ele><time>2026-04-26T14:23:53.237Z</time></trkpt><trkpt lat="42.1837937" lon="13.5619524"><ele>1404.0</ele><time>2026-04-26T14:23:54.238Z</time></trkpt><trkpt lat="42.1836883" lon="13.5622787"><ele>1399.0</ele><time>2026-04-26T14:23:55.238Z</time></trkpt><trkpt lat="42.183588" lon="13.5625769"><ele>1399.0</ele><time>2026-04-26T14:23:56.237Z</time></trkpt><trkpt lat="42.1835011" lon="13.5628606"><ele>1399.0</ele><time>2026-04-26T14:23:57.237Z</time></trkpt><trkpt lat="42.1834481" lon="13.5631443"><ele>1399.0</ele><time>2026-04-26T14:23:58.237Z</time></trkpt><trkpt lat="42.1834341" lon="13.563423"><ele>1392.0</ele><time>2026-04-26T14:23:59.237Z</time></trkpt><trkpt lat="42.1834604" lon="13.5637148"><ele>1385.0</ele><time>2026-04-26T14:24:00.237Z</time></trkpt><trkpt lat="42.1834747" lon="13.5639757"><ele>1378.0</ele><time>2026-04-26T14:24:01.238Z</time></trkpt><trkpt lat="42.1834624" lon="13.5642072"><ele>1378.0</ele><time>2026-04-26T14:24:02.238Z</time></trkpt><trkpt lat="42.1834122" lon="13.5644048"><ele>1378.0</ele><time>2026-04-26T14:24:03.237Z</time></trkpt><trkpt lat="42.183322" lon="13.5645689"><ele>1378.0</ele><time>2026-04-26T14:24:04.237Z</time></trkpt><trkpt lat="42.1832212" lon="13.5647254"><ele>1376.75</ele><time>2026-04-26T14:24:05.238Z</time></trkpt><trkpt lat="42.1831488" lon="13.5648835"><ele>1375.5</ele><time>2026-04-26T14:24:06.238Z</time></trkpt><trkpt lat="42.1831469" lon="13.5650551"><ele>1374.25</ele><time>2026-04-26T14:24:07.237Z</time></trkpt><trkpt lat="42.183194" lon="13.5652114"><ele>1373.0</ele><time>2026-04-26T14:24:08.237Z</time></trkpt><trkpt lat="42.1832862" lon="13.5653529"><ele>1369.3333333333335</ele><time>2026-04-26T14:24:09.237Z</time></trkpt><trkpt lat="42.1834353" lon="13.5654752"><ele>1365.6666666666667</ele><time>2026-04-26T14:24:10.237Z</time></trkpt><trkpt lat="42.1835927" lon="13.5656007"><ele>1362.0</ele><time>2026-04-26T14:24:11.237Z</time></trkpt><trkpt lat="42.1837333" lon="13.5657183"><ele>1362.0</ele><time>2026-04-26T14:24:12.237Z</time></trkpt><trkpt lat="42.1838383" lon="13.5658316"><ele>1362.0</ele><time>2026-04-26T14:24:13.237Z</time></trkpt><trkpt lat="42.183907" lon="13.5659742"><ele>1362.0</ele><time>2026-04-26T14:24:14.237Z</time></trkpt><trkpt lat="42.1839199" lon="13.5661331"><ele>1362.0</ele><time>2026-04-26T14:24:15.237Z</time></trkpt><trkpt lat="42.1838736" lon="13.5663137"><ele>1359.6666666666667</ele><time>2026-04-26T14:24:16.237Z</time></trkpt><trkpt lat="42.1837967" lon="13.5665159"><ele>1357.3333333333335</ele><time>2026-04-26T14:24:17.237Z</time></trkpt><trkpt lat="42.1836886" lon="13.5667347"><ele>1355.0</ele><time>2026-04-26T14:24:18.237Z</time></trkpt><trkpt lat="42.1835546" lon="13.5669875"><ele>1354.6666666666667</ele><time>2026-04-26T14:24:19.237Z</time></trkpt><trkpt lat="42.1834383" lon="13.567225"><ele>1354.3333333333333</ele><time>2026-04-26T14:24:20.237Z</time></trkpt><trkpt lat="42.1833489" lon="13.5674447"><ele>1354.0</ele><time>2026-04-26T14:24:21.237Z</time></trkpt><trkpt lat="42.1832861" lon="13.56765"><ele>1353.0</ele><time>2026-04-26T14:24:22.238Z</time></trkpt><trkpt lat="42.1832795" lon="13.5678641"><ele>1352.0</ele><time>2026-04-26T14:24:23.237Z</time></trkpt><trkpt lat="42.1833085" lon="13.5680743"><ele>1351.0</ele><time>2026-04-26T14:24:24.238Z</time></trkpt><trkpt lat="42.1833683" lon="13.5682518"><ele>1351.0</ele><time>2026-04-26T14:24:25.238Z</time></trkpt><trkpt lat="42.1834056" lon="13.5684298"><ele>1351.0</ele><time>2026-04-26T14:24:26.237Z</time></trkpt><trkpt lat="42.1833972" lon="13.5685646"><ele>1351.0</ele><time>2026-04-26T14:24:27.245Z</time></trkpt><trkpt lat="42.1833454" lon="13.5686942"><ele>1351.0</ele><time>2026-04-26T14:24:28.245Z</time></trkpt><trkpt lat="42.1832535" lon="13.5687618"><ele>1346.25</ele><time>2026-04-26T14:24:29.245Z</time></trkpt><trkpt lat="42.1831339" lon="13.5688048"><ele>1341.5</ele><time>2026-04-26T14:24:30.245Z</time></trkpt><trkpt lat="42.1830041" lon="13.5688503"><ele>1336.75</ele><time>2026-04-26T14:24:31.246Z</time></trkpt><trkpt lat="42.1828984" lon="13.5689771"><ele>1332.0</ele><time>2026-04-26T14:24:32.245Z</time></trkpt><trkpt lat="42.1828007" lon="13.5691502"><ele>1332.0</ele><time>2026-04-26T14:24:33.246Z</time></trkpt><trkpt lat="42.1827374" lon="13.5693564"><ele>1332.0</ele><time>2026-04-26T14:24:34.245Z</time></trkpt><trkpt lat="42.1827169" lon="13.5695666"><ele>1332.0</ele><time>2026-04-26T14:24:35.245Z</time></trkpt><trkpt lat="42.1827258" lon="13.5697647"><ele>1331.25</ele><time>2026-04-26T14:24:36.246Z</time></trkpt><trkpt lat="42.182784" lon="13.569951"><ele>1330.5</ele><time>2026-04-26T14:24:37.245Z</time></trkpt><trkpt lat="42.1828594" lon="13.5701039"><ele>1329.75</ele><time>2026-04-26T14:24:38.245Z</time></trkpt><trkpt lat="42.1829175" lon="13.5702395"><ele>1329.0</ele><time>2026-04-26T14:24:39.245Z</time></trkpt><trkpt lat="42.1829159" lon="13.5703763"><ele>1328.75</ele><time>2026-04-26T14:24:40.245Z</time></trkpt><trkpt lat="42.182876" lon="13.5705029"><ele>1328.5</ele><time>2026-04-26T14:24:41.245Z</time></trkpt><trkpt lat="42.1827708" lon="13.5705987"><ele>1328.25</ele><time>2026-04-26T14:24:42.245Z</time></trkpt><trkpt lat="42.1826327" lon="13.5706731"><ele>1328.0</ele><time>2026-04-26T14:24:43.245Z</time></trkpt><trkpt lat="42.182475" lon="13.5707442"><ele>1323.0</ele><time>2026-04-26T14:24:44.245Z</time></trkpt><trkpt lat="42.1823284" lon="13.570861"><ele>1318.0</ele><time>2026-04-26T14:24:45.245Z</time></trkpt><trkpt lat="42.1821977" lon="13.5710335"><ele>1313.0</ele><time>2026-04-26T14:24:46.245Z</time></trkpt><trkpt lat="42.1820804" lon="13.5712859"><ele>1313.0</ele><time>2026-04-26T14:24:47.245Z</time></trkpt><trkpt lat="42.1819659" lon="13.571589"><ele>1313.0</ele><time>2026-04-26T14:24:48.246Z</time></trkpt><trkpt lat="42.1818542" lon="13.571908"><ele>1316.0</ele><time>2026-04-26T14:24:49.246Z</time></trkpt><trkpt lat="42.1817537" lon="13.5722089"><ele>1319.0</ele><time>2026-04-26T14:24:50.245Z</time></trkpt><trkpt lat="42.1816789" lon="13.5724779"><ele>1319.0</ele><time>2026-04-26T14:24:51.245Z</time></trkpt><trkpt lat="42.1816526" lon="13.5727261"><ele>1319.0</ele><time>2026-04-26T14:24:52.245Z</time></trkpt><trkpt lat="42.1816549" lon="13.5729958"><ele>1319.0</ele><time>2026-04-26T14:24:53.245Z</time></trkpt><trkpt lat="42.181679" lon="13.5732755"><ele>1318.6666666666667</ele><time>2026-04-26T14:24:54.246Z</time></trkpt><trkpt lat="42.1817002" lon="13.5735463"><ele>1318.3333333333333</ele><time>2026-04-26T14:24:55.245Z</time></trkpt><trkpt lat="42.1816947" lon="13.5737952"><ele>1318.0</ele><time>2026-04-26T14:24:56.245Z</time></trkpt><trkpt lat="42.1816441" lon="13.5740229"><ele>1317.6666666666665</ele><time>2026-04-26T14:24:57.245Z</time></trkpt><trkpt lat="42.1815584" lon="13.5742549"><ele>1317.3333333333333</ele><time>2026-04-26T14:24:58.246Z</time></trkpt><trkpt lat="42.1814831" lon="13.5745431"><ele>1317.0</ele><time>2026-04-26T14:24:59.245Z</time></trkpt><trkpt lat="42.1814383" lon="13.57487"><ele>1305.0</ele><time>2026-04-26T14:25:00.245Z</time></trkpt><trkpt lat="42.1813991" lon="13.5752422"><ele>1293.0</ele><time>2026-04-26T14:25:01.245Z</time></trkpt><trkpt lat="42.1813613" lon="13.5756601"><ele>1293.0</ele><time>2026-04-26T14:25:02.245Z</time></trkpt><trkpt lat="42.1813056" lon="13.5761117"><ele>1293.0</ele><time>2026-04-26T14:25:03.245Z</time></trkpt><trkpt lat="42.1812514" lon="13.5765402"><ele>1292.0</ele><time>2026-04-26T14:25:04.246Z</time></trkpt><trkpt lat="42.1811981" lon="13.5769522"><ele>1291.0</ele><time>2026-04-26T14:25:05.245Z</time></trkpt><trkpt lat="42.181148" lon="13.577338"><ele>1289.0</ele><time>2026-04-26T14:25:06.245Z</time></trkpt><trkpt lat="42.1810969" lon="13.57771"><ele>1287.0</ele><time>2026-04-26T14:25:07.245Z</time></trkpt><trkpt lat="42.1810589" lon="13.5780326"><ele>1287.0</ele><time>2026-04-26T14:25:08.246Z</time></trkpt><trkpt lat="42.1810284" lon="13.5783371"><ele>1287.0</ele><time>2026-04-26T14:25:09.246Z</time></trkpt><trkpt lat="42.1810311" lon="13.5786195"><ele>1287.0</ele><time>2026-04-26T14:25:10.245Z</time></trkpt><trkpt lat="42.1810711" lon="13.5788892"><ele>1284.3333333333333</ele><time>2026-04-26T14:25:11.245Z</time></trkpt><trkpt lat="42.1811172" lon="13.5791479"><ele>1281.6666666666665</ele><time>2026-04-26T14:25:12.245Z</time></trkpt><trkpt lat="42.1811289" lon="13.5793926"><ele>1279.0</ele><time>2026-04-26T14:25:13.245Z</time></trkpt><trkpt lat="42.1811036" lon="13.5796481"><ele>1277.6666666666665</ele><time>2026-04-26T14:25:14.246Z</time></trkpt><trkpt lat="42.1810637" lon="13.5798955"><ele>1276.3333333333333</ele><time>2026-04-26T14:25:15.245Z</time></trkpt><trkpt lat="42.1810499" lon="13.5801527"><ele>1275.0</ele><time>2026-04-26T14:25:16.246Z</time></trkpt><trkpt lat="42.1810975" lon="13.580397"><ele>1272.6666666666667</ele><time>2026-04-26T14:25:17.245Z</time></trkpt><trkpt lat="42.1811765" lon="13.5806321"><ele>1270.3333333333335</ele><time>2026-04-26T14:25:18.245Z</time></trkpt><trkpt lat="42.1812573" lon="13.5808552"><ele>1268.0</ele><time>2026-04-26T14:25:19.245Z</time></trkpt><trkpt lat="42.1812713" lon="13.5810711"><ele>1266.0</ele><time>2026-04-26T14:25:20.246Z</time></trkpt><trkpt lat="42.1812489" lon="13.5812865"><ele>1264.0</ele><time>2026-04-26T14:25:21.245Z</time></trkpt><trkpt lat="42.1812575" lon="13.581457"><ele>1262.0</ele><time>2026-04-26T14:25:22.245Z</time></trkpt><trkpt lat="42.1813113" lon="13.5815819"><ele>1260.0</ele><time>2026-04-26T14:25:23.245Z</time></trkpt><trkpt lat="42.1814134" lon="13.5816539"><ele>1260.25</ele><time>2026-04-26T14:25:24.245Z</time></trkpt><trkpt lat="42.1815309" lon="13.5816695"><ele>1260.5</ele><time>2026-04-26T14:25:25.245Z</time></trkpt><trkpt lat="42.1816423" lon="13.5816257"><ele>1260.75</ele><time>2026-04-26T14:25:26.245Z</time></trkpt><trkpt lat="42.1817809" lon="13.5815145"><ele>1261.0</ele><time>2026-04-26T14:25:27.245Z</time></trkpt><trkpt lat="42.1819545" lon="13.5813819"><ele>1261.0</ele><time>2026-04-26T14:25:28.246Z</time></trkpt><trkpt lat="42.1821336" lon="13.5812345"><ele>1261.0</ele><time>2026-04-26T14:25:29.245Z</time></trkpt><trkpt lat="42.1823186" lon="13.5810647"><ele>1261.0</ele><time>2026-04-26T14:25:30.245Z</time></trkpt><trkpt lat="42.1825166" lon="13.5808981"><ele>1262.6666666666665</ele><time>2026-04-26T14:25:31.245Z</time></trkpt><trkpt lat="42.1826995" lon="13.5807286"><ele>1264.3333333333333</ele><time>2026-04-26T14:25:32.245Z</time></trkpt><trkpt lat="42.1828778" lon="13.5805516"><ele>1266.0</ele><time>2026-04-26T14:25:33.246Z</time></trkpt><trkpt lat="42.1830483" lon="13.5803953"><ele>1265.6666666666667</ele><time>2026-04-26T14:25:34.245Z</time></trkpt><trkpt lat="42.1832025" lon="13.5802442"><ele>1265.3333333333335</ele><time>2026-04-26T14:25:35.246Z</time></trkpt><trkpt lat="42.1833279" lon="13.5801066"><ele>1265.0</ele><time>2026-04-26T14:25:36.245Z</time></trkpt><trkpt lat="42.1834339" lon="13.5799722"><ele>1265.0</ele><time>2026-04-26T14:25:37.245Z</time></trkpt><trkpt lat="42.1835218" lon="13.579854"><ele>1265.0</ele><time>2026-04-26T14:25:38.245Z</time></trkpt><trkpt lat="42.183609" lon="13.5797657"><ele>1265.0</ele><time>2026-04-26T14:25:39.245Z</time></trkpt><trkpt lat="42.1836918" lon="13.5797177"><ele>1265.0</ele><time>2026-04-26T14:25:40.245Z</time></trkpt><trkpt lat="42.1837643" lon="13.5796979"><ele>1265.0</ele><time>2026-04-26T14:25:41.245Z</time></trkpt><trkpt lat="42.1838298" lon="13.5798327"><ele>1265.0</ele><time>2026-04-26T14:25:43.245Z</time></trkpt><trkpt lat="42.1837969" lon="13.5799548"><ele>1265.0</ele><time>2026-04-26T14:25:44.245Z</time></trkpt><trkpt lat="42.1837401" lon="13.5800646"><ele>1265.0</ele><time>2026-04-26T14:25:45.245Z</time></trkpt><trkpt lat="42.1836372" lon="13.5801736"><ele>1265.0</ele><time>2026-04-26T14:25:46.245Z</time></trkpt><trkpt lat="42.1835097" lon="13.580305"><ele>1265.5</ele><time>2026-04-26T14:25:47.245Z</time></trkpt><trkpt lat="42.1833375" lon="13.5804628"><ele>1266.0</ele><time>2026-04-26T14:25:48.245Z</time></trkpt><trkpt lat="42.1831478" lon="13.5806668"><ele>1266.0</ele><time>2026-04-26T14:25:49.245Z</time></trkpt><trkpt lat="42.1829135" lon="13.5809257"><ele>1266.0</ele><time>2026-04-26T14:25:50.245Z</time></trkpt><trkpt lat="42.1826846" lon="13.5812099"><ele>1263.5</ele><time>2026-04-26T14:25:51.245Z</time></trkpt><trkpt lat="42.1824657" lon="13.5814855"><ele>1261.0</ele><time>2026-04-26T14:25:52.246Z</time></trkpt><trkpt lat="42.1822603" lon="13.5817464"><ele>1261.0</ele><time>2026-04-26T14:25:53.245Z</time></trkpt><trkpt lat="42.1820515" lon="13.5819987"><ele>1261.0</ele><time>2026-04-26T14:25:54.245Z</time></trkpt><trkpt lat="42.18184" lon="13.5822429"><ele>1254.5</ele><time>2026-04-26T14:25:55.245Z</time></trkpt><trkpt lat="42.1816381" lon="13.5824858"><ele>1248.0</ele><time>2026-04-26T14:25:56.245Z</time></trkpt><trkpt lat="42.1814482" lon="13.5827241"><ele>1239.0</ele><time>2026-04-26T14:25:57.246Z</time></trkpt><trkpt lat="42.1812725" lon="13.5829772"><ele>1230.0</ele><time>2026-04-26T14:25:58.246Z</time></trkpt><trkpt lat="42.181101" lon="13.5832344"><ele>1230.0</ele><time>2026-04-26T14:25:59.246Z</time></trkpt><trkpt lat="42.1809177" lon="13.5834778"><ele>1230.0</ele><time>2026-04-26T14:26:00.246Z</time></trkpt><trkpt lat="42.1807309" lon="13.5836963"><ele>1226.0</ele><time>2026-04-26T14:26:01.245Z</time></trkpt><trkpt lat="42.1805265" lon="13.5839015"><ele>1222.0</ele><time>2026-04-26T14:26:02.245Z</time></trkpt><trkpt lat="42.1803314" lon="13.5840615"><ele>1222.0</ele><time>2026-04-26T14:26:03.245Z</time></trkpt><trkpt lat="42.1801535" lon="13.5842046"><ele>1222.0</ele><time>2026-04-26T14:26:04.246Z</time></trkpt><trkpt lat="42.179994" lon="13.584323"><ele>1222.0</ele><time>2026-04-26T14:26:05.245Z</time></trkpt><trkpt lat="42.1798625" lon="13.5844065"><ele>1218.25</ele><time>2026-04-26T14:26:06.246Z</time></trkpt><trkpt lat="42.1797332" lon="13.5844313"><ele>1214.5</ele><time>2026-04-26T14:26:07.245Z</time></trkpt><trkpt lat="42.1796083" lon="13.5843983"><ele>1210.75</ele><time>2026-04-26T14:26:08.246Z</time></trkpt><trkpt lat="42.1794809" lon="13.5843044"><ele>1207.0</ele><time>2026-04-26T14:26:09.246Z</time></trkpt><trkpt lat="42.1793599" lon="13.584175"><ele>1207.0</ele><time>2026-04-26T14:26:10.245Z</time></trkpt><trkpt lat="42.1792581" lon="13.584029"><ele>1207.0</ele><time>2026-04-26T14:26:11.245Z</time></trkpt><trkpt lat="42.1792111" lon="13.5838631"><ele>1207.0</ele><time>2026-04-26T14:26:12.246Z</time></trkpt><trkpt lat="42.1792008" lon="13.5837071"><ele>1207.0</ele><time>2026-04-26T14:26:13.245Z</time></trkpt><trkpt lat="42.1792349" lon="13.5835622"><ele>1207.2</ele><time>2026-04-26T14:26:14.245Z</time></trkpt><trkpt lat="42.1793118" lon="13.583451"><ele>1207.4</ele><time>2026-04-26T14:26:15.246Z</time></trkpt><trkpt lat="42.1793994" lon="13.5833585"><ele>1207.6</ele><time>2026-04-26T14:26:16.246Z</time></trkpt><trkpt lat="42.1794281" lon="13.5832541"><ele>1207.8</ele><time>2026-04-26T14:26:17.246Z</time></trkpt><trkpt lat="42.1794011" lon="13.5831318"><ele>1208.0</ele><time>2026-04-26T14:26:18.245Z</time></trkpt><trkpt lat="42.1793332" lon="13.5830385"><ele>1208.0</ele><time>2026-04-26T14:26:19.245Z</time></trkpt><trkpt lat="42.1792371" lon="13.5830289"><ele>1208.0</ele><time>2026-04-26T14:26:20.245Z</time></trkpt><trkpt lat="42.1791371" lon="13.5830805"><ele>1208.0</ele><time>2026-04-26T14:26:21.245Z</time></trkpt><trkpt lat="42.1790649" lon="13.58321"><ele>1208.0</ele><time>2026-04-26T14:26:22.245Z</time></trkpt><trkpt lat="42.1790107" lon="13.5833928"><ele>1198.3333333333335</ele><time>2026-04-26T14:26:23.245Z</time></trkpt><trkpt lat="42.1789531" lon="13.5836079"><ele>1188.6666666666667</ele><time>2026-04-26T14:26:24.246Z</time></trkpt><trkpt lat="42.178894" lon="13.5838619"><ele>1179.0</ele><time>2026-04-26T14:26:25.246Z</time></trkpt><trkpt lat="42.1788562" lon="13.5841519"><ele>1179.0</ele><time>2026-04-26T14:26:26.245Z</time></trkpt><trkpt lat="42.1788451" lon="13.5844288"><ele>1179.0</ele><time>2026-04-26T14:26:27.245Z</time></trkpt><trkpt lat="42.1788697" lon="13.584663"><ele>1179.0</ele><time>2026-04-26T14:26:28.245Z</time></trkpt><trkpt lat="42.1789041" lon="13.5848779"><ele>1178.25</ele><time>2026-04-26T14:26:29.245Z</time></trkpt><trkpt lat="42.1789499" lon="13.585034"><ele>1177.5</ele><time>2026-04-26T14:26:30.245Z</time></trkpt><trkpt lat="42.1790251" lon="13.5851601"><ele>1176.75</ele><time>2026-04-26T14:26:31.245Z</time></trkpt><trkpt lat="42.179144" lon="13.5852352"><ele>1176.0</ele><time>2026-04-26T14:26:32.246Z</time></trkpt><trkpt lat="42.1793027" lon="13.5852515"><ele>1183.0</ele><time>2026-04-26T14:26:33.245Z</time></trkpt><trkpt lat="42.1794988" lon="13.5852259"><ele>1190.0</ele><time>2026-04-26T14:26:34.246Z</time></trkpt><trkpt lat="42.1797226" lon="13.5851981"><ele>1197.0</ele><time>2026-04-26T14:26:35.245Z</time></trkpt><trkpt lat="42.1799421" lon="13.5851661"><ele>1198.0</ele><time>2026-04-26T14:26:36.245Z</time></trkpt><trkpt lat="42.1801557" lon="13.5851152"><ele>1199.0</ele><time>2026-04-26T14:26:37.245Z</time></trkpt><trkpt lat="42.1803574" lon="13.5849881"><ele>1200.0</ele><time>2026-04-26T14:26:38.246Z</time></trkpt><trkpt lat="42.1805361" lon="13.5848455"><ele>1194.6666666666667</ele><time>2026-04-26T14:26:39.246Z</time></trkpt><trkpt lat="42.1806934" lon="13.5847311"><ele>1189.3333333333335</ele><time>2026-04-26T14:26:40.245Z</time></trkpt><trkpt lat="42.1808299" lon="13.5846475"><ele>1184.0</ele><time>2026-04-26T14:26:41.246Z</time></trkpt><trkpt lat="42.1809665" lon="13.584602"><ele>1184.0</ele><time>2026-04-26T14:26:42.246Z</time></trkpt><trkpt lat="42.1810938" lon="13.5846081"><ele>1184.0</ele><time>2026-04-26T14:26:43.246Z</time></trkpt><trkpt lat="42.181201" lon="13.5846757"><ele>1184.0</ele><time>2026-04-26T14:26:44.246Z</time></trkpt><trkpt lat="42.1812897" lon="13.5848101"><ele>1184.0</ele><time>2026-04-26T14:26:45.246Z</time></trkpt><trkpt lat="42.1813569" lon="13.5850083"><ele>1184.0</ele><time>2026-04-26T14:26:46.245Z</time></trkpt><trkpt lat="42.1814151" lon="13.5852511"><ele>1184.0</ele><time>2026-04-26T14:26:47.245Z</time></trkpt><trkpt lat="42.1814802" lon="13.5854959"><ele>1184.0</ele><time>2026-04-26T14:26:48.245Z</time></trkpt><trkpt lat="42.1815804" lon="13.5857236"><ele>1180.6666666666667</ele><time>2026-04-26T14:26:49.245Z</time></trkpt><trkpt lat="42.1816621" lon="13.5859138"><ele>1177.3333333333333</ele><time>2026-04-26T14:26:50.245Z</time></trkpt><trkpt lat="42.1817091" lon="13.5861042"><ele>1174.0</ele><time>2026-04-26T14:26:51.245Z</time></trkpt><trkpt lat="42.1817101" lon="13.586343"><ele>1171.0</ele><time>2026-04-26T14:26:52.245Z</time></trkpt><trkpt lat="42.1816705" lon="13.5866133"><ele>1168.0</ele><time>2026-04-26T14:26:53.246Z</time></trkpt><trkpt lat="42.1816193" lon="13.5869301"><ele>1165.0</ele><time>2026-04-26T14:26:54.245Z</time></trkpt><trkpt lat="42.1815944" lon="13.587254"><ele>1163.6666666666665</ele><time>2026-04-26T14:26:55.245Z</time></trkpt><trkpt lat="42.1815864" lon="13.587556"><ele>1162.3333333333333</ele><time>2026-04-26T14:26:56.245Z</time></trkpt><trkpt lat="42.1815899" lon="13.5878396"><ele>1161.0</ele><time>2026-04-26T14:26:57.246Z</time></trkpt><trkpt lat="42.1816379" lon="13.5880772"><ele>1159.0</ele><time>2026-04-26T14:26:58.246Z</time></trkpt><trkpt lat="42.1817132" lon="13.5882907"><ele>1157.0</ele><time>2026-04-26T14:26:59.245Z</time></trkpt><trkpt lat="42.1818318" lon="13.5884793"><ele>1155.0</ele><time>2026-04-26T14:27:00.245Z</time></trkpt><trkpt lat="42.1819597" lon="13.5886528"><ele>1152.75</ele><time>2026-04-26T14:27:01.246Z</time></trkpt><trkpt lat="42.1820444" lon="13.5888179"><ele>1150.5</ele><time>2026-04-26T14:27:02.246Z</time></trkpt><trkpt lat="42.182087" lon="13.5889833"><ele>1148.25</ele><time>2026-04-26T14:27:03.246Z</time></trkpt><trkpt lat="42.1820751" lon="13.5891716"><ele>1146.0</ele><time>2026-04-26T14:27:04.245Z</time></trkpt><trkpt lat="42.1820278" lon="13.5893862"><ele>1146.3333333333333</ele><time>2026-04-26T14:27:05.245Z</time></trkpt><trkpt lat="42.1819334" lon="13.589628"><ele>1146.6666666666665</ele><time>2026-04-26T14:27:06.245Z</time></trkpt><trkpt lat="42.1818315" lon="13.58991"><ele>1147.0</ele><time>2026-04-26T14:27:07.246Z</time></trkpt><trkpt lat="42.1817262" lon="13.5902631"><ele>1147.5</ele><time>2026-04-26T14:27:08.245Z</time></trkpt><trkpt lat="42.1816184" lon="13.5906173"><ele>1148.0</ele><time>2026-04-26T14:27:09.245Z</time></trkpt><trkpt lat="42.181514" lon="13.5909362"><ele>1140.6666666666667</ele><time>2026-04-26T14:27:10.245Z</time></trkpt><trkpt lat="42.1814325" lon="13.5912067"><ele>1133.3333333333333</ele><time>2026-04-26T14:27:11.245Z</time></trkpt><trkpt lat="42.1813795" lon="13.5914251"><ele>1126.0</ele><time>2026-04-26T14:27:12.245Z</time></trkpt><trkpt lat="42.181366" lon="13.5916179"><ele>1126.0</ele><time>2026-04-26T14:27:13.245Z</time></trkpt><trkpt lat="42.181401" lon="13.5917907"><ele>1126.0</ele><time>2026-04-26T14:27:14.245Z</time></trkpt><trkpt lat="42.1814859" lon="13.5919211"><ele>1126.0</ele><time>2026-04-26T14:27:15.245Z</time></trkpt><trkpt lat="42.18162" lon="13.5920129"><ele>1126.0</ele><time>2026-04-26T14:27:16.245Z</time></trkpt><trkpt lat="42.181741" lon="13.5921117"><ele>1128.3333333333333</ele><time>2026-04-26T14:27:17.245Z</time></trkpt><trkpt lat="42.1818316" lon="13.5922508"><ele>1130.6666666666667</ele><time>2026-04-26T14:27:18.245Z</time></trkpt><trkpt lat="42.1818757" lon="13.5924333"><ele>1133.0</ele><time>2026-04-26T14:27:19.245Z</time></trkpt><trkpt lat="42.1818916" lon="13.5926813"><ele>1129.5</ele><time>2026-04-26T14:27:20.245Z</time></trkpt><trkpt lat="42.1818861" lon="13.5929842"><ele>1126.0</ele><time>2026-04-26T14:27:21.245Z</time></trkpt><trkpt lat="42.1818594" lon="13.5933314"><ele>1127.5</ele><time>2026-04-26T14:27:22.245Z</time></trkpt><trkpt lat="42.1818186" lon="13.59368"><ele>1129.0</ele><time>2026-04-26T14:27:23.245Z</time></trkpt><trkpt lat="42.181739" lon="13.59404"><ele>1129.0</ele><time>2026-04-26T14:27:24.246Z</time></trkpt><trkpt lat="42.1816308" lon="13.5943926"><ele>1129.0</ele><time>2026-04-26T14:27:25.245Z</time></trkpt><trkpt lat="42.1815259" lon="13.5947419"><ele>1124.0</ele><time>2026-04-26T14:27:26.245Z</time></trkpt><trkpt lat="42.1813945" lon="13.5950693"><ele>1119.0</ele><time>2026-04-26T14:27:27.245Z</time></trkpt><trkpt lat="42.1812232" lon="13.5954028"><ele>1119.0</ele><time>2026-04-26T14:27:28.245Z</time></trkpt><trkpt lat="42.1810249" lon="13.5957401"><ele>1119.0</ele><time>2026-04-26T14:27:29.245Z</time></trkpt><trkpt lat="42.1808138" lon="13.5960713"><ele>1117.0</ele><time>2026-04-26T14:27:30.246Z</time></trkpt><trkpt lat="42.1806139" lon="13.5964133"><ele>1115.0</ele><time>2026-04-26T14:27:31.245Z</time></trkpt><trkpt lat="42.1804097" lon="13.596764"><ele>1115.0</ele><time>2026-04-26T14:27:32.246Z</time></trkpt><trkpt lat="42.1802319" lon="13.5971346"><ele>1115.0</ele><time>2026-04-26T14:27:33.245Z</time></trkpt><trkpt lat="42.1800713" lon="13.597549"><ele>1115.0</ele><time>2026-04-26T14:27:34.245Z</time></trkpt><trkpt lat="42.1799078" lon="13.5979899"><ele>1115.0</ele><time>2026-04-26T14:27:35.245Z</time></trkpt><trkpt lat="42.1797452" lon="13.5984358"><ele>1116.5</ele><time>2026-04-26T14:27:36.246Z</time></trkpt><trkpt lat="42.17959" lon="13.5988476"><ele>1118.0</ele><time>2026-04-26T14:27:37.245Z</time></trkpt><trkpt lat="42.1794497" lon="13.5992441"><ele>1121.0</ele><time>2026-04-26T14:27:38.246Z</time></trkpt><trkpt lat="42.1792996" lon="13.5996248"><ele>1124.0</ele><time>2026-04-26T14:27:39.246Z</time></trkpt><trkpt lat="42.179119" lon="13.5999907"><ele>1122.5</ele><time>2026-04-26T14:27:40.246Z</time></trkpt><trkpt lat="42.1789121" lon="13.6003506"><ele>1121.0</ele><time>2026-04-26T14:27:41.245Z</time></trkpt><trkpt lat="42.1787022" lon="13.6007019"><ele>1121.0</ele><time>2026-04-26T14:27:42.245Z</time></trkpt><trkpt lat="42.1785052" lon="13.6010281"><ele>1121.0</ele><time>2026-04-26T14:27:43.245Z</time></trkpt><trkpt lat="42.1783224" lon="13.6013457"><ele>1120.5</ele><time>2026-04-26T14:27:44.246Z</time></trkpt><trkpt lat="42.178147" lon="13.6016414"><ele>1120.0</ele><time>2026-04-26T14:27:45.245Z</time></trkpt><trkpt lat="42.1779758" lon="13.601934"><ele>1121.5</ele><time>2026-04-26T14:27:46.245Z</time></trkpt><trkpt lat="42.1778089" lon="13.6022118"><ele>1123.0</ele><time>2026-04-26T14:27:47.246Z</time></trkpt><trkpt lat="42.1776565" lon="13.6024724"><ele>1123.0</ele><time>2026-04-26T14:27:48.245Z</time></trkpt><trkpt lat="42.1775151" lon="13.6027132"><ele>1123.0</ele><time>2026-04-26T14:27:49.246Z</time></trkpt><trkpt lat="42.1773622" lon="13.6029917"><ele>1124.5</ele><time>2026-04-26T14:27:50.245Z</time></trkpt><trkpt lat="42.177198" lon="13.6033008"><ele>1126.0</ele><time>2026-04-26T14:27:51.246Z</time></trkpt><trkpt lat="42.177013" lon="13.6036173"><ele>1128.0</ele><time>2026-04-26T14:27:52.246Z</time></trkpt><trkpt lat="42.1768225" lon="13.6039497"><ele>1130.0</ele><time>2026-04-26T14:27:53.245Z</time></trkpt><trkpt lat="42.1766199" lon="13.6043085"><ele>1129.5</ele><time>2026-04-26T14:27:54.245Z</time></trkpt><trkpt lat="42.1764091" lon="13.6046856"><ele>1129.0</ele><time>2026-04-26T14:27:55.246Z</time></trkpt><trkpt lat="42.1762006" lon="13.6050405"><ele>1132.0</ele><time>2026-04-26T14:27:56.245Z</time></trkpt><trkpt lat="42.1760181" lon="13.6053529"><ele>1135.0</ele><time>2026-04-26T14:27:57.246Z</time></trkpt><trkpt lat="42.1758499" lon="13.6056571"><ele>1135.0</ele><time>2026-04-26T14:27:58.246Z</time></trkpt><trkpt lat="42.1756909" lon="13.6059433"><ele>1135.0</ele><time>2026-04-26T14:27:59.245Z</time></trkpt><trkpt lat="42.1755376" lon="13.6062146"><ele>1136.5</ele><time>2026-04-26T14:28:00.246Z</time></trkpt><trkpt lat="42.1753579" lon="13.6064858"><ele>1138.0</ele><time>2026-04-26T14:28:01.245Z</time></trkpt><trkpt lat="42.1751587" lon="13.6067304"><ele>1138.0</ele><time>2026-04-26T14:28:02.245Z</time></trkpt><trkpt lat="42.1749484" lon="13.6069515"><ele>1138.0</ele><time>2026-04-26T14:28:03.245Z</time></trkpt><trkpt lat="42.1747518" lon="13.607168"><ele>1138.0</ele><time>2026-04-26T14:28:04.246Z</time></trkpt><trkpt lat="42.1745573" lon="13.6073794"><ele>1138.0</ele><time>2026-04-26T14:28:05.245Z</time></trkpt><trkpt lat="42.1743616" lon="13.6075914"><ele>1138.0</ele><time>2026-04-26T14:28:06.246Z</time></trkpt><trkpt lat="42.1741696" lon="13.6077964"><ele>1138.0</ele><time>2026-04-26T14:28:07.245Z</time></trkpt><trkpt lat="42.1739822" lon="13.6080108"><ele>1140.0</ele><time>2026-04-26T14:28:08.246Z</time></trkpt><trkpt lat="42.1737974" lon="13.608213"><ele>1142.0</ele><time>2026-04-26T14:28:09.246Z</time></trkpt><trkpt lat="42.1736231" lon="13.6084003"><ele>1142.0</ele><time>2026-04-26T14:28:10.245Z</time></trkpt><trkpt lat="42.1734505" lon="13.6085788"><ele>1142.0</ele><time>2026-04-26T14:28:11.246Z</time></trkpt><trkpt lat="42.1732846" lon="13.608761"><ele>1142.0</ele><time>2026-04-26T14:28:12.246Z</time></trkpt><trkpt lat="42.1731216" lon="13.6089299"><ele>1143.0</ele><time>2026-04-26T14:28:13.245Z</time></trkpt><trkpt lat="42.1729597" lon="13.6090996"><ele>1144.0</ele><time>2026-04-26T14:28:14.246Z</time></trkpt><trkpt lat="42.1728067" lon="13.609274"><ele>1145.0</ele><time>2026-04-26T14:28:15.246Z</time></trkpt><trkpt lat="42.1726638" lon="13.6094588"><ele>1146.3333333333335</ele><time>2026-04-26T14:28:16.245Z</time></trkpt><trkpt lat="42.172545" lon="13.6096507"><ele>1147.6666666666667</ele><time>2026-04-26T14:28:17.246Z</time></trkpt><trkpt lat="42.1724515" lon="13.6098668"><ele>1149.0</ele><time>2026-04-26T14:28:18.245Z</time></trkpt><trkpt lat="42.1723663" lon="13.6101423"><ele>1149.5</ele><time>2026-04-26T14:28:19.245Z</time></trkpt><trkpt lat="42.1723005" lon="13.6104469"><ele>1150.0</ele><time>2026-04-26T14:28:20.246Z</time></trkpt><trkpt lat="42.1722227" lon="13.6107634"><ele>1150.0</ele><time>2026-04-26T14:28:21.245Z</time></trkpt><trkpt lat="42.1721395" lon="13.6110994"><ele>1150.0</ele><time>2026-04-26T14:28:22.245Z</time></trkpt><trkpt lat="42.1720545" lon="13.6114385"><ele>1150.5</ele><time>2026-04-26T14:28:23.245Z</time></trkpt><trkpt lat="42.1719718" lon="13.6117929"><ele>1151.0</ele><time>2026-04-26T14:28:24.246Z</time></trkpt><trkpt lat="42.1718903" lon="13.6121516"><ele>1151.5</ele><time>2026-04-26T14:28:25.245Z</time></trkpt><trkpt lat="42.1718019" lon="13.6125165"><ele>1152.0</ele><time>2026-04-26T14:28:26.246Z</time></trkpt><trkpt lat="42.1717147" lon="13.6128843"><ele>1154.0</ele><time>2026-04-26T14:28:27.245Z</time></trkpt><trkpt lat="42.1716312" lon="13.6132555"><ele>1156.0</ele><time>2026-04-26T14:28:28.245Z</time></trkpt><trkpt lat="42.1715458" lon="13.6136293"><ele>1158.5</ele><time>2026-04-26T14:28:29.246Z</time></trkpt><trkpt lat="42.171457" lon="13.614"><ele>1161.0</ele><time>2026-04-26T14:28:30.245Z</time></trkpt><trkpt lat="42.1713693" lon="13.6143779"><ele>1159.5</ele><time>2026-04-26T14:28:31.245Z</time></trkpt><trkpt lat="42.171284" lon="13.6147471"><ele>1158.0</ele><time>2026-04-26T14:28:32.245Z</time></trkpt><trkpt lat="42.1711956" lon="13.6151125"><ele>1159.0</ele><time>2026-04-26T14:28:33.245Z</time></trkpt><trkpt lat="42.1711065" lon="13.6154705"><ele>1160.0</ele><time>2026-04-26T14:28:34.245Z</time></trkpt><trkpt lat="42.1710206" lon="13.6158305"><ele>1162.0</ele><time>2026-04-26T14:28:35.245Z</time></trkpt><trkpt lat="42.1709379" lon="13.6161968"><ele>1164.0</ele><time>2026-04-26T14:28:36.246Z</time></trkpt><trkpt lat="42.1708553" lon="13.6165586"><ele>1164.0</ele><time>2026-04-26T14:28:37.246Z</time></trkpt><trkpt lat="42.1707691" lon="13.6169189"><ele>1164.0</ele><time>2026-04-26T14:28:38.245Z</time></trkpt><trkpt lat="42.1706851" lon="13.6172567"><ele>1163.3333333333333</ele><time>2026-04-26T14:28:39.245Z</time></trkpt><trkpt lat="42.1706125" lon="13.6175618"><ele>1162.6666666666665</ele><time>2026-04-26T14:28:40.245Z</time></trkpt><trkpt lat="42.1705608" lon="13.6178162"><ele>1162.0</ele><time>2026-04-26T14:28:41.245Z</time></trkpt><trkpt lat="42.170527" lon="13.6180207"><ele>1163.5</ele><time>2026-04-26T14:28:42.245Z</time></trkpt><trkpt lat="42.1705375" lon="13.6182168"><ele>1165.0</ele><time>2026-04-26T14:28:43.245Z</time></trkpt><trkpt lat="42.1705948" lon="13.6184006"><ele>1166.5</ele><time>2026-04-26T14:28:44.245Z</time></trkpt><trkpt lat="42.1706657" lon="13.6185683"><ele>1168.0</ele><time>2026-04-26T14:28:45.245Z</time></trkpt><trkpt lat="42.1707465" lon="13.6187367"><ele>1168.25</ele><time>2026-04-26T14:28:46.245Z</time></trkpt><trkpt lat="42.1707957" lon="13.6189189"><ele>1168.5</ele><time>2026-04-26T14:28:47.245Z</time></trkpt><trkpt lat="42.1707965" lon="13.6190899"><ele>1168.75</ele><time>2026-04-26T14:28:48.245Z</time></trkpt><trkpt lat="42.1707497" lon="13.619268"><ele>1169.0</ele><time>2026-04-26T14:28:49.246Z</time></trkpt><trkpt lat="42.1706644" lon="13.6194539"><ele>1170.3333333333335</ele><time>2026-04-26T14:28:50.245Z</time></trkpt><trkpt lat="42.1705618" lon="13.6196379"><ele>1171.6666666666667</ele><time>2026-04-26T14:28:51.245Z</time></trkpt><trkpt lat="42.170447" lon="13.6198716"><ele>1173.0</ele><time>2026-04-26T14:28:52.246Z</time></trkpt><trkpt lat="42.1703347" lon="13.6201048"><ele>1175.6666666666667</ele><time>2026-04-26T14:28:53.245Z</time></trkpt><trkpt lat="42.1702266" lon="13.6203518"><ele>1178.3333333333335</ele><time>2026-04-26T14:28:54.245Z</time></trkpt><trkpt lat="42.1701387" lon="13.6206402"><ele>1181.0</ele><time>2026-04-26T14:28:55.246Z</time></trkpt><trkpt lat="42.1700759" lon="13.620981"><ele>1183.0</ele><time>2026-04-26T14:28:56.246Z</time></trkpt><trkpt lat="42.1700379" lon="13.621357"><ele>1185.0</ele><time>2026-04-26T14:28:57.245Z</time></trkpt><trkpt lat="42.1700099" lon="13.6217148"><ele>1187.0</ele><time>2026-04-26T14:28:58.245Z</time></trkpt><trkpt lat="42.1699812" lon="13.6220275"><ele>1189.0</ele><time>2026-04-26T14:28:59.245Z</time></trkpt><trkpt lat="42.169952" lon="13.6222837"><ele>1191.0</ele><time>2026-04-26T14:29:00.245Z</time></trkpt><trkpt lat="42.1698934" lon="13.6225206"><ele>1192.0</ele><time>2026-04-26T14:29:01.246Z</time></trkpt><trkpt lat="42.1697965" lon="13.6227079"><ele>1193.0</ele><time>2026-04-26T14:29:02.245Z</time></trkpt><trkpt lat="42.1696586" lon="13.6228895"><ele>1194.0</ele><time>2026-04-26T14:29:03.246Z</time></trkpt><trkpt lat="42.169509" lon="13.6230626"><ele>1195.3333333333333</ele><time>2026-04-26T14:29:04.245Z</time></trkpt><trkpt lat="42.1693463" lon="13.6232407"><ele>1196.6666666666665</ele><time>2026-04-26T14:29:05.246Z</time></trkpt><trkpt lat="42.1692003" lon="13.6234084"><ele>1198.0</ele><time>2026-04-26T14:29:06.245Z</time></trkpt><trkpt lat="42.1690646" lon="13.6235629"><ele>1203.3333333333333</ele><time>2026-04-26T14:29:07.245Z</time></trkpt><trkpt lat="42.1689466" lon="13.6237613"><ele>1208.6666666666667</ele><time>2026-04-26T14:29:08.245Z</time></trkpt><trkpt lat="42.1688588" lon="13.6239775"><ele>1214.0</ele><time>2026-04-26T14:29:09.246Z</time></trkpt><trkpt lat="42.168791" lon="13.6241872"><ele>1214.0</ele><time>2026-04-26T14:29:10.245Z</time></trkpt><trkpt lat="42.1687229" lon="13.6243912"><ele>1214.0</ele><time>2026-04-26T14:29:11.245Z</time></trkpt><trkpt lat="42.168642" lon="13.6245736"><ele>1214.0</ele><time>2026-04-26T14:29:12.245Z</time></trkpt><trkpt lat="42.1685413" lon="13.6247427"><ele>1218.3333333333335</ele><time>2026-04-26T14:29:13.245Z</time></trkpt><trkpt lat="42.1684266" lon="13.6249121"><ele>1222.6666666666667</ele><time>2026-04-26T14:29:14.245Z</time></trkpt><trkpt lat="42.1682936" lon="13.6250964"><ele>1227.0</ele><time>2026-04-26T14:29:15.245Z</time></trkpt><trkpt lat="42.168147" lon="13.6252978"><ele>1219.0</ele><time>2026-04-26T14:29:16.246Z</time></trkpt><trkpt lat="42.1680007" lon="13.6255093"><ele>1211.0</ele><time>2026-04-26T14:29:17.245Z</time></trkpt><trkpt lat="42.1678434" lon="13.6257238"><ele>1203.0</ele><time>2026-04-26T14:29:18.246Z</time></trkpt><trkpt lat="42.167682" lon="13.6259506"><ele>1205.5</ele><time>2026-04-26T14:29:19.245Z</time></trkpt><trkpt lat="42.1675212" lon="13.6261746"><ele>1208.0</ele><time>2026-04-26T14:29:20.245Z</time></trkpt><trkpt lat="42.1673514" lon="13.626402"><ele>1208.0</ele><time>2026-04-26T14:29:21.245Z</time></trkpt><trkpt lat="42.1671888" lon="13.6266396"><ele>1208.0</ele><time>2026-04-26T14:29:22.246Z</time></trkpt><trkpt lat="42.1670429" lon="13.6268646"><ele>1198.3333333333335</ele><time>2026-04-26T14:29:23.245Z</time></trkpt><trkpt lat="42.1668907" lon="13.6270662"><ele>1188.6666666666667</ele><time>2026-04-26T14:29:24.246Z</time></trkpt><trkpt lat="42.1667357" lon="13.6272605"><ele>1179.0</ele><time>2026-04-26T14:29:25.245Z</time></trkpt><trkpt lat="42.1665632" lon="13.6274555"><ele>1180.5</ele><time>2026-04-26T14:29:26.245Z</time></trkpt><trkpt lat="42.1663754" lon="13.6276511"><ele>1182.0</ele><time>2026-04-26T14:29:27.245Z</time></trkpt><trkpt lat="42.1661765" lon="13.6278453"><ele>1182.0</ele><time>2026-04-26T14:29:28.245Z</time></trkpt><trkpt lat="42.1659596" lon="13.6280541"><ele>1182.0</ele><time>2026-04-26T14:29:29.245Z</time></trkpt><trkpt lat="42.165742" lon="13.628281"><ele>1187.0</ele><time>2026-04-26T14:29:30.245Z</time></trkpt><trkpt lat="42.1655364" lon="13.6284913"><ele>1192.0</ele><time>2026-04-26T14:29:31.246Z</time></trkpt><trkpt lat="42.1653456" lon="13.6286883"><ele>1192.0</ele><time>2026-04-26T14:29:32.246Z</time></trkpt><trkpt lat="42.16517" lon="13.6289107"><ele>1192.0</ele><time>2026-04-26T14:29:33.245Z</time></trkpt><trkpt lat="42.1649974" lon="13.6291597"><ele>1200.0</ele><time>2026-04-26T14:29:34.245Z</time></trkpt><trkpt lat="42.1648404" lon="13.6294564"><ele>1208.0</ele><time>2026-04-26T14:29:35.245Z</time></trkpt><trkpt lat="42.1646713" lon="13.6297773"><ele>1208.0</ele><time>2026-04-26T14:29:36.246Z</time></trkpt><trkpt lat="42.1644996" lon="13.6301126"><ele>1208.0</ele><time>2026-04-26T14:29:37.245Z</time></trkpt><trkpt lat="42.1643229" lon="13.6304695"><ele>1207.0</ele><time>2026-04-26T14:29:38.246Z</time></trkpt><trkpt lat="42.1641555" lon="13.6308191"><ele>1206.0</ele><time>2026-04-26T14:29:39.245Z</time></trkpt><trkpt lat="42.1639896" lon="13.6311612"><ele>1206.0</ele><time>2026-04-26T14:29:40.245Z</time></trkpt><trkpt lat="42.1638265" lon="13.6314987"><ele>1206.0</ele><time>2026-04-26T14:29:41.245Z</time></trkpt><trkpt lat="42.1636675" lon="13.6318271"><ele>1194.0</ele><time>2026-04-26T14:29:42.245Z</time></trkpt><trkpt lat="42.1635047" lon="13.6321503"><ele>1182.0</ele><time>2026-04-26T14:29:43.245Z</time></trkpt><trkpt lat="42.163327" lon="13.6324582"><ele>1187.5</ele><time>2026-04-26T14:29:44.246Z</time></trkpt><trkpt lat="42.1631295" lon="13.6327754"><ele>1193.0</ele><time>2026-04-26T14:29:45.246Z</time></trkpt><trkpt lat="42.1629257" lon="13.6330905"><ele>1193.0</ele><time>2026-04-26T14:29:46.246Z</time></trkpt><trkpt lat="42.1627294" lon="13.6334"><ele>1193.0</ele><time>2026-04-26T14:29:47.245Z</time></trkpt><trkpt lat="42.1625451" lon="13.6336897"><ele>1196.0</ele><time>2026-04-26T14:29:48.245Z</time></trkpt><trkpt lat="42.1623631" lon="13.6339768"><ele>1199.0</ele><time>2026-04-26T14:29:49.245Z</time></trkpt><trkpt lat="42.1621945" lon="13.6342473"><ele>1190.5</ele><time>2026-04-26T14:29:50.245Z</time></trkpt><trkpt lat="42.1620419" lon="13.634512"><ele>1182.0</ele><time>2026-04-26T14:29:51.245Z</time></trkpt><trkpt lat="42.1618908" lon="13.6347628"><ele>1182.0</ele><time>2026-04-26T14:29:52.245Z</time></trkpt><trkpt lat="42.161733" lon="13.6350073"><ele>1182.0</ele><time>2026-04-26T14:29:53.246Z</time></trkpt><trkpt lat="42.1615569" lon="13.6352347"><ele>1183.5</ele><time>2026-04-26T14:29:54.245Z</time></trkpt><trkpt lat="42.1613768" lon="13.6354302"><ele>1185.0</ele><time>2026-04-26T14:29:55.245Z</time></trkpt><trkpt lat="42.1611942" lon="13.6355934"><ele>1185.0</ele><time>2026-04-26T14:29:56.246Z</time></trkpt><trkpt lat="42.1610344" lon="13.6357342"><ele>1185.0</ele><time>2026-04-26T14:29:57.246Z</time></trkpt><trkpt lat="42.1608944" lon="13.6358636"><ele>1185.0</ele><time>2026-04-26T14:29:58.245Z</time></trkpt><trkpt lat="42.1607683" lon="13.6359926"><ele>1189.25</ele><time>2026-04-26T14:29:59.245Z</time></trkpt><trkpt lat="42.160669" lon="13.6361464"><ele>1193.5</ele><time>2026-04-26T14:30:00.245Z</time></trkpt><trkpt lat="42.160618" lon="13.6363054"><ele>1197.75</ele><time>2026-04-26T14:30:01.246Z</time></trkpt><trkpt lat="42.1606135" lon="13.6364902"><ele>1202.0</ele><time>2026-04-26T14:30:02.245Z</time></trkpt><trkpt lat="42.1606566" lon="13.6366743"><ele>1193.6666666666667</ele><time>2026-04-26T14:30:03.245Z</time></trkpt><trkpt lat="42.1607303" lon="13.6368642"><ele>1185.3333333333333</ele><time>2026-04-26T14:30:04.245Z</time></trkpt><trkpt lat="42.1607888" lon="13.6370602"><ele>1177.0</ele><time>2026-04-26T14:30:05.246Z</time></trkpt><trkpt lat="42.1608081" lon="13.637255"><ele>1177.0</ele><time>2026-04-26T14:30:06.245Z</time></trkpt><trkpt lat="42.1607839" lon="13.6374357"><ele>1177.0</ele><time>2026-04-26T14:30:07.245Z</time></trkpt><trkpt lat="42.1607116" lon="13.6376036"><ele>1177.0</ele><time>2026-04-26T14:30:08.245Z</time></trkpt><trkpt lat="42.1605933" lon="13.637753"><ele>1177.0</ele><time>2026-04-26T14:30:09.245Z</time></trkpt><trkpt lat="42.1604515" lon="13.6379286"><ele>1180.0</ele><time>2026-04-26T14:30:10.245Z</time></trkpt><trkpt lat="42.1602975" lon="13.6381106"><ele>1183.0</ele><time>2026-04-26T14:30:11.246Z</time></trkpt><trkpt lat="42.1601519" lon="13.6383124"><ele>1186.0</ele><time>2026-04-26T14:30:12.246Z</time></trkpt><trkpt lat="42.160025" lon="13.6385512"><ele>1180.5</ele><time>2026-04-26T14:30:13.245Z</time></trkpt><trkpt lat="42.1599191" lon="13.6388247"><ele>1175.0</ele><time>2026-04-26T14:30:14.246Z</time></trkpt><trkpt lat="42.1598336" lon="13.6391374"><ele>1182.0</ele><time>2026-04-26T14:30:15.245Z</time></trkpt><trkpt lat="42.1597579" lon="13.6394184"><ele>1189.0</ele><time>2026-04-26T14:30:16.245Z</time></trkpt><trkpt lat="42.1596822" lon="13.639666"><ele>1196.0</ele><time>2026-04-26T14:30:17.245Z</time></trkpt><trkpt lat="42.1595751" lon="13.6398638"><ele>1196.0</ele><time>2026-04-26T14:30:18.245Z</time></trkpt><trkpt lat="42.1594507" lon="13.6400298"><ele>1196.0</ele><time>2026-04-26T14:30:19.245Z</time></trkpt><trkpt lat="42.159318" lon="13.6401843"><ele>1196.0</ele><time>2026-04-26T14:30:20.246Z</time></trkpt><trkpt lat="42.1591869" lon="13.6403555"><ele>1190.0</ele><time>2026-04-26T14:30:21.245Z</time></trkpt><trkpt lat="42.1590904" lon="13.6405858"><ele>1184.0</ele><time>2026-04-26T14:30:22.245Z</time></trkpt><trkpt lat="42.1590102" lon="13.6408379"><ele>1178.0</ele><time>2026-04-26T14:30:23.246Z</time></trkpt><trkpt lat="42.1589139" lon="13.6410788"><ele>1187.5</ele><time>2026-04-26T14:30:24.245Z</time></trkpt><trkpt lat="42.1587709" lon="13.6413078"><ele>1197.0</ele><time>2026-04-26T14:30:25.245Z</time></trkpt><trkpt lat="42.1585917" lon="13.6415392"><ele>1197.0</ele><time>2026-04-26T14:30:26.245Z</time></trkpt><trkpt lat="42.1584174" lon="13.6418207"><ele>1197.0</ele><time>2026-04-26T14:30:27.245Z</time></trkpt><trkpt lat="42.1582562" lon="13.6421911"><ele>1197.0</ele><time>2026-04-26T14:30:28.245Z</time></trkpt><trkpt lat="42.1581069" lon="13.6425506"><ele>1197.0</ele><time>2026-04-26T14:30:29.245Z</time></trkpt><trkpt lat="42.1579692" lon="13.6428723"><ele>1197.0</ele><time>2026-04-26T14:30:30.245Z</time></trkpt><trkpt lat="42.1578494" lon="13.6431536"><ele>1197.0</ele><time>2026-04-26T14:30:31.245Z</time></trkpt><trkpt lat="42.1577511" lon="13.6434122"><ele>1192.3333333333333</ele><time>2026-04-26T14:30:32.246Z</time></trkpt><trkpt lat="42.157653" lon="13.6436494"><ele>1187.6666666666665</ele><time>2026-04-26T14:30:33.245Z</time></trkpt><trkpt lat="42.1575865" lon="13.6438672"><ele>1183.0</ele><time>2026-04-26T14:30:34.245Z</time></trkpt><trkpt lat="42.1575479" lon="13.6440681"><ele>1183.0</ele><time>2026-04-26T14:30:35.245Z</time></trkpt><trkpt lat="42.1575249" lon="13.6442471"><ele>1183.0</ele><time>2026-04-26T14:30:36.245Z</time></trkpt><trkpt lat="42.1575499" lon="13.6444174"><ele>1183.0</ele><time>2026-04-26T14:30:37.246Z</time></trkpt><trkpt lat="42.1576027" lon="13.644543"><ele>1183.0</ele><time>2026-04-26T14:30:38.245Z</time></trkpt><trkpt lat="42.1576624" lon="13.6446212"><ele>1183.5</ele><time>2026-04-26T14:30:39.245Z</time></trkpt><trkpt lat="42.1577506" lon="13.6446415"><ele>1184.0</ele><time>2026-04-26T14:30:40.245Z</time></trkpt><trkpt lat="42.157883" lon="13.6445863"><ele>1184.5</ele><time>2026-04-26T14:30:41.246Z</time></trkpt><trkpt lat="42.1580766" lon="13.6444835"><ele>1185.0</ele><time>2026-04-26T14:30:42.246Z</time></trkpt><trkpt lat="42.1583034" lon="13.644366"><ele>1173.0</ele><time>2026-04-26T14:30:43.245Z</time></trkpt><trkpt lat="42.158557" lon="13.6442416"><ele>1161.0</ele><time>2026-04-26T14:30:44.246Z</time></trkpt><trkpt lat="42.1588157" lon="13.644103"><ele>1160.5</ele><time>2026-04-26T14:30:45.245Z</time></trkpt><trkpt lat="42.1590725" lon="13.6439615"><ele>1160.0</ele><time>2026-04-26T14:30:46.246Z</time></trkpt><trkpt lat="42.1593071" lon="13.6438393"><ele>1160.0</ele><time>2026-04-26T14:30:47.245Z</time></trkpt><trkpt lat="42.1595302" lon="13.6437194"><ele>1160.0</ele><time>2026-04-26T14:30:48.245Z</time></trkpt><trkpt lat="42.1597437" lon="13.643614"><ele>1155.3333333333335</ele><time>2026-04-26T14:30:49.245Z</time></trkpt><trkpt lat="42.1599284" lon="13.6435296"><ele>1150.6666666666667</ele><time>2026-04-26T14:30:50.245Z</time></trkpt><trkpt lat="42.1601009" lon="13.6434711"><ele>1146.0</ele><time>2026-04-26T14:30:51.246Z</time></trkpt><trkpt lat="42.1602523" lon="13.643456"><ele>1146.0</ele><time>2026-04-26T14:30:52.246Z</time></trkpt><trkpt lat="42.160363" lon="13.6435072"><ele>1146.0</ele><time>2026-04-26T14:30:53.246Z</time></trkpt><trkpt lat="42.1604527" lon="13.6436011"><ele>1146.0</ele><time>2026-04-26T14:30:54.246Z</time></trkpt><trkpt lat="42.1605086" lon="13.6437472"><ele>1146.0</ele><time>2026-04-26T14:30:55.246Z</time></trkpt><trkpt lat="42.1605249" lon="13.6439716"><ele>1147.6666666666667</ele><time>2026-04-26T14:30:56.245Z</time></trkpt><trkpt lat="42.1605156" lon="13.6442283"><ele>1149.3333333333335</ele><time>2026-04-26T14:30:57.246Z</time></trkpt><trkpt lat="42.1604783" lon="13.6444618"><ele>1151.0</ele><time>2026-04-26T14:30:58.245Z</time></trkpt><trkpt lat="42.1603891" lon="13.6446802"><ele>1151.0</ele><time>2026-04-26T14:30:59.245Z</time></trkpt><trkpt lat="42.1602553" lon="13.6449139"><ele>1151.0</ele><time>2026-04-26T14:31:00.246Z</time></trkpt><trkpt lat="42.1600893" lon="13.6451638"><ele>1157.0</ele><time>2026-04-26T14:31:01.245Z</time></trkpt><trkpt lat="42.1599011" lon="13.645408"><ele>1163.0</ele><time>2026-04-26T14:31:02.246Z</time></trkpt><trkpt lat="42.1597381" lon="13.6457276"><ele>1163.0</ele><time>2026-04-26T14:31:03.245Z</time></trkpt><trkpt lat="42.1595805" lon="13.6460725"><ele>1163.0</ele><time>2026-04-26T14:31:04.245Z</time></trkpt><trkpt lat="42.1594184" lon="13.6463925"><ele>1151.5</ele><time>2026-04-26T14:31:05.245Z</time></trkpt><trkpt lat="42.1592594" lon="13.6466867"><ele>1140.0</ele><time>2026-04-26T14:31:06.246Z</time></trkpt><trkpt lat="42.1590917" lon="13.6469467"><ele>1142.0</ele><time>2026-04-26T14:31:07.245Z</time></trkpt><trkpt lat="42.1589017" lon="13.6471803"><ele>1144.0</ele><time>2026-04-26T14:31:08.251Z</time></trkpt><trkpt lat="42.1587048" lon="13.6473999"><ele>1144.0</ele><time>2026-04-26T14:31:09.25Z</time></trkpt><trkpt lat="42.1585128" lon="13.6476297"><ele>1144.0</ele><time>2026-04-26T14:31:10.25Z</time></trkpt><trkpt lat="42.1583338" lon="13.647872"><ele>1145.0</ele><time>2026-04-26T14:31:11.251Z</time></trkpt><trkpt lat="42.1581729" lon="13.648132"><ele>1146.0</ele><time>2026-04-26T14:31:12.25Z</time></trkpt><trkpt lat="42.1580134" lon="13.6483887"><ele>1128.5</ele><time>2026-04-26T14:31:13.251Z</time></trkpt><trkpt lat="42.1578435" lon="13.64863"><ele>1111.0</ele><time>2026-04-26T14:31:14.25Z</time></trkpt><trkpt lat="42.1576612" lon="13.6488512"><ele>1111.0</ele><time>2026-04-26T14:31:15.25Z</time></trkpt><trkpt lat="42.1574757" lon="13.6490869"><ele>1111.0</ele><time>2026-04-26T14:31:16.25Z</time></trkpt><trkpt lat="42.1572795" lon="13.6493795"><ele>1113.5</ele><time>2026-04-26T14:31:17.25Z</time></trkpt><trkpt lat="42.1570882" lon="13.6496891"><ele>1116.0</ele><time>2026-04-26T14:31:18.25Z</time></trkpt><trkpt lat="42.1569051" lon="13.6499997"><ele>1103.0</ele><time>2026-04-26T14:31:19.25Z</time></trkpt><trkpt lat="42.156724" lon="13.6503322"><ele>1090.0</ele><time>2026-04-26T14:31:20.25Z</time></trkpt><trkpt lat="42.1565513" lon="13.6506872"><ele>1095.5</ele><time>2026-04-26T14:31:21.25Z</time></trkpt><trkpt lat="42.156376" lon="13.6510472"><ele>1101.0</ele><time>2026-04-26T14:31:22.25Z</time></trkpt><trkpt lat="42.1561898" lon="13.6514143"><ele>1101.0</ele><time>2026-04-26T14:31:23.251Z</time></trkpt><trkpt lat="42.1559788" lon="13.6517829"><ele>1101.0</ele><time>2026-04-26T14:31:24.25Z</time></trkpt><trkpt lat="42.1557536" lon="13.6521629"><ele>1103.5</ele><time>2026-04-26T14:31:25.25Z</time></trkpt><trkpt lat="42.1555175" lon="13.6525582"><ele>1106.0</ele><time>2026-04-26T14:31:26.25Z</time></trkpt><trkpt lat="42.1552883" lon="13.6529551"><ele>1095.0</ele><time>2026-04-26T14:31:27.251Z</time></trkpt><trkpt lat="42.1550693" lon="13.6533171"><ele>1084.0</ele><time>2026-04-26T14:31:28.25Z</time></trkpt><trkpt lat="42.1548593" lon="13.6536664"><ele>1083.5</ele><time>2026-04-26T14:31:29.25Z</time></trkpt><trkpt lat="42.1546367" lon="13.6540205"><ele>1083.0</ele><time>2026-04-26T14:31:30.25Z</time></trkpt><trkpt lat="42.1544247" lon="13.6543713"><ele>1087.0</ele><time>2026-04-26T14:31:31.25Z</time></trkpt><trkpt lat="42.1542135" lon="13.6547154"><ele>1091.0</ele><time>2026-04-26T14:31:32.251Z</time></trkpt><trkpt lat="42.1540072" lon="13.6550644"><ele>1080.0</ele><time>2026-04-26T14:31:33.25Z</time></trkpt><trkpt lat="42.153799" lon="13.6554062"><ele>1069.0</ele><time>2026-04-26T14:31:34.25Z</time></trkpt><trkpt lat="42.153587" lon="13.655739"><ele>1069.0</ele><time>2026-04-26T14:31:35.251Z</time></trkpt><trkpt lat="42.15338" lon="13.6560578"><ele>1069.0</ele><time>2026-04-26T14:31:36.25Z</time></trkpt><trkpt lat="42.1531732" lon="13.6563606"><ele>1070.0</ele><time>2026-04-26T14:31:37.251Z</time></trkpt><trkpt lat="42.1529818" lon="13.6566536"><ele>1071.0</ele><time>2026-04-26T14:31:38.25Z</time></trkpt><trkpt lat="42.1528013" lon="13.6569357"><ele>1062.5</ele><time>2026-04-26T14:31:39.251Z</time></trkpt><trkpt lat="42.1526252" lon="13.6572064"><ele>1054.0</ele><time>2026-04-26T14:31:40.25Z</time></trkpt><trkpt lat="42.152452" lon="13.657465"><ele>1054.0</ele><time>2026-04-26T14:31:41.25Z</time></trkpt><trkpt lat="42.1522863" lon="13.6577131"><ele>1054.0</ele><time>2026-04-26T14:31:42.25Z</time></trkpt><trkpt lat="42.1521191" lon="13.6579373"><ele>1054.0</ele><time>2026-04-26T14:31:43.25Z</time></trkpt><trkpt lat="42.1519505" lon="13.6581414"><ele>1054.0</ele><time>2026-04-26T14:31:44.25Z</time></trkpt><trkpt lat="42.1517816" lon="13.6583638"><ele>1056.5</ele><time>2026-04-26T14:31:45.25Z</time></trkpt><trkpt lat="42.1516314" lon="13.6586288"><ele>1059.0</ele><time>2026-04-26T14:31:46.25Z</time></trkpt><trkpt lat="42.1514996" lon="13.6589344"><ele>1059.0</ele><time>2026-04-26T14:31:47.251Z</time></trkpt><trkpt lat="42.1513891" lon="13.6592795"><ele>1059.0</ele><time>2026-04-26T14:31:48.251Z</time></trkpt><trkpt lat="42.1512752" lon="13.6596135"><ele>1054.5</ele><time>2026-04-26T14:31:49.25Z</time></trkpt><trkpt lat="42.1511647" lon="13.6599395"><ele>1050.0</ele><time>2026-04-26T14:31:50.25Z</time></trkpt><trkpt lat="42.1510454" lon="13.6602515"><ele>1043.0</ele><time>2026-04-26T14:31:51.25Z</time></trkpt><trkpt lat="42.1509202" lon="13.6605592"><ele>1036.0</ele><time>2026-04-26T14:31:52.25Z</time></trkpt><trkpt lat="42.1507712" lon="13.6608771"><ele>1039.0</ele><time>2026-04-26T14:31:53.25Z</time></trkpt><trkpt lat="42.1506054" lon="13.6611969"><ele>1042.0</ele><time>2026-04-26T14:31:54.25Z</time></trkpt><trkpt lat="42.1504395" lon="13.661518"><ele>1042.0</ele><time>2026-04-26T14:31:55.25Z</time></trkpt><trkpt lat="42.1502849" lon="13.6618496"><ele>1042.0</ele><time>2026-04-26T14:31:56.25Z</time></trkpt><trkpt lat="42.1501513" lon="13.6621796"><ele>1037.0</ele><time>2026-04-26T14:31:57.25Z</time></trkpt><trkpt lat="42.1500178" lon="13.6625143"><ele>1032.0</ele><time>2026-04-26T14:31:58.251Z</time></trkpt><trkpt lat="42.1498781" lon="13.6628276"><ele>1033.0</ele><time>2026-04-26T14:31:59.25Z</time></trkpt><trkpt lat="42.1497276" lon="13.6631312"><ele>1034.0</ele><time>2026-04-26T14:32:00.251Z</time></trkpt><trkpt lat="42.1495643" lon="13.6634238"><ele>1033.0</ele><time>2026-04-26T14:32:01.25Z</time></trkpt><trkpt lat="42.1493878" lon="13.6637108"><ele>1032.0</ele><time>2026-04-26T14:32:02.25Z</time></trkpt><trkpt lat="42.149215" lon="13.6639923"><ele>1032.0</ele><time>2026-04-26T14:32:03.25Z</time></trkpt><trkpt lat="42.1490512" lon="13.6642578"><ele>1032.0</ele><time>2026-04-26T14:32:04.25Z</time></trkpt><trkpt lat="42.1488943" lon="13.6645116"><ele>1030.5</ele><time>2026-04-26T14:32:05.251Z</time></trkpt><trkpt lat="42.1487312" lon="13.6647707"><ele>1029.0</ele><time>2026-04-26T14:32:06.251Z</time></trkpt><trkpt lat="42.1485808" lon="13.6650591"><ele>1028.0</ele><time>2026-04-26T14:32:07.251Z</time></trkpt><trkpt lat="42.148446" lon="13.6653529"><ele>1027.0</ele><time>2026-04-26T14:32:08.25Z</time></trkpt><trkpt lat="42.1483295" lon="13.6656238"><ele>1027.0</ele><time>2026-04-26T14:32:09.251Z</time></trkpt><trkpt lat="42.1482243" lon="13.665891"><ele>1027.0</ele><time>2026-04-26T14:32:10.251Z</time></trkpt><trkpt lat="42.1481252" lon="13.6661314"><ele>1027.0</ele><time>2026-04-26T14:32:11.25Z</time></trkpt><trkpt lat="42.1480494" lon="13.666369"><ele>1022.6666666666666</ele><time>2026-04-26T14:32:12.25Z</time></trkpt><trkpt lat="42.1480011" lon="13.6666289"><ele>1018.3333333333333</ele><time>2026-04-26T14:32:13.251Z</time></trkpt><trkpt lat="42.1479893" lon="13.6669171"><ele>1014.0</ele><time>2026-04-26T14:32:14.25Z</time></trkpt><trkpt lat="42.1479853" lon="13.6672257"><ele>1007.5</ele><time>2026-04-26T14:32:15.251Z</time></trkpt><trkpt lat="42.1479945" lon="13.667547"><ele>1001.0</ele><time>2026-04-26T14:32:16.25Z</time></trkpt><trkpt lat="42.1480204" lon="13.6678431"><ele>997.3333333333334</ele><time>2026-04-26T14:32:17.251Z</time></trkpt><trkpt lat="42.1480696" lon="13.6681115"><ele>993.6666666666667</ele><time>2026-04-26T14:32:18.25Z</time></trkpt><trkpt lat="42.1481269" lon="13.6683635"><ele>990.0</ele><time>2026-04-26T14:32:19.25Z</time></trkpt><trkpt lat="42.1481913" lon="13.6685932"><ele>991.75</ele><time>2026-04-26T14:32:20.251Z</time></trkpt><trkpt lat="42.1482626" lon="13.6687939"><ele>993.5</ele><time>2026-04-26T14:32:21.251Z</time></trkpt><trkpt lat="42.1483398" lon="13.6689391"><ele>995.25</ele><time>2026-04-26T14:32:22.251Z</time></trkpt><trkpt lat="42.1484429" lon="13.669034"><ele>997.0</ele><time>2026-04-26T14:32:23.251Z</time></trkpt><trkpt lat="42.1485742" lon="13.6690834"><ele>997.0</ele><time>2026-04-26T14:32:24.251Z</time></trkpt><trkpt lat="42.1487235" lon="13.6690544"><ele>997.0</ele><time>2026-04-26T14:32:25.251Z</time></trkpt><trkpt lat="42.1488718" lon="13.6690059"><ele>997.0</ele><time>2026-04-26T14:32:26.25Z</time></trkpt><trkpt lat="42.1490044" lon="13.6689476"><ele>997.0</ele><time>2026-04-26T14:32:27.251Z</time></trkpt><trkpt lat="42.1491157" lon="13.6689115"><ele>997.0</ele><time>2026-04-26T14:32:28.251Z</time></trkpt><trkpt lat="42.1492092" lon="13.6689886"><ele>997.0</ele><time>2026-04-26T14:32:30.25Z</time></trkpt><trkpt lat="42.1491514" lon="13.6691315"><ele>997.0</ele><time>2026-04-26T14:32:32.25Z</time></trkpt><trkpt lat="42.1490712" lon="13.6691635"><ele>997.0</ele><time>2026-04-26T14:32:33.25Z</time></trkpt><trkpt lat="42.1489502" lon="13.6691839"><ele>997.0</ele><time>2026-04-26T14:32:34.25Z</time></trkpt><trkpt lat="42.1487966" lon="13.6692881"><ele>997.0</ele><time>2026-04-26T14:32:35.25Z</time></trkpt><trkpt lat="42.1486412" lon="13.6694174"><ele>997.0</ele><time>2026-04-26T14:32:36.25Z</time></trkpt><trkpt lat="42.1484879" lon="13.6695825"><ele>997.0</ele><time>2026-04-26T14:32:37.25Z</time></trkpt><trkpt lat="42.1483383" lon="13.6698204"><ele>986.5</ele><time>2026-04-26T14:32:38.251Z</time></trkpt><trkpt lat="42.1482048" lon="13.6700844"><ele>976.0</ele><time>2026-04-26T14:32:39.251Z</time></trkpt><trkpt lat="42.1480932" lon="13.6703516"><ele>976.0</ele><time>2026-04-26T14:32:40.25Z</time></trkpt><trkpt lat="42.1479923" lon="13.6705843"><ele>976.0</ele><time>2026-04-26T14:32:41.251Z</time></trkpt><trkpt lat="42.1479032" lon="13.6707993"><ele>976.0</ele><time>2026-04-26T14:32:42.25Z</time></trkpt><trkpt lat="42.1478047" lon="13.6709448"><ele>976.0</ele><time>2026-04-26T14:32:43.25Z</time></trkpt><trkpt lat="42.1477152" lon="13.6710327"><ele>975.9999999999999</ele><time>2026-04-26T14:32:44.251Z</time></trkpt><trkpt lat="42.1476176" lon="13.6710759"><ele>975.9999999999999</ele><time>2026-04-26T14:32:45.251Z</time></trkpt><trkpt lat="42.1475247" lon="13.6710285"><ele>976.0</ele><time>2026-04-26T14:32:46.251Z</time></trkpt><trkpt lat="42.1474626" lon="13.6709038"><ele>976.0</ele><time>2026-04-26T14:32:47.25Z</time></trkpt><trkpt lat="42.147424" lon="13.670737"><ele>976.0</ele><time>2026-04-26T14:32:48.25Z</time></trkpt><trkpt lat="42.1474237" lon="13.6705386"><ele>976.0</ele><time>2026-04-26T14:32:49.25Z</time></trkpt><trkpt lat="42.1474451" lon="13.6703269"><ele>976.0</ele><time>2026-04-26T14:32:50.251Z</time></trkpt><trkpt lat="42.1474761" lon="13.6701317"><ele>976.0</ele><time>2026-04-26T14:32:51.25Z</time></trkpt><trkpt lat="42.1475007" lon="13.6699428"><ele>976.0</ele><time>2026-04-26T14:32:52.25Z</time></trkpt><trkpt lat="42.1475181" lon="13.6697672"><ele>976.0</ele><time>2026-04-26T14:32:53.25Z</time></trkpt><trkpt lat="42.1475355" lon="13.6696014"><ele>976.0</ele><time>2026-04-26T14:32:54.25Z</time></trkpt><trkpt lat="42.1475316" lon="13.6694418"><ele>975.0</ele><time>2026-04-26T14:32:55.25Z</time></trkpt><trkpt lat="42.1474988" lon="13.6692736"><ele>974.0</ele><time>2026-04-26T14:32:56.251Z</time></trkpt><trkpt lat="42.1474314" lon="13.6691167"><ele>973.0</ele><time>2026-04-26T14:32:57.25Z</time></trkpt><trkpt lat="42.1473439" lon="13.6689939"><ele>972.0</ele><time>2026-04-26T14:32:58.25Z</time></trkpt><trkpt lat="42.1472316" lon="13.6689126"><ele>972.0</ele><time>2026-04-26T14:32:59.251Z</time></trkpt><trkpt lat="42.1471118" lon="13.6688785"><ele>972.0</ele><time>2026-04-26T14:33:00.25Z</time></trkpt><trkpt lat="42.1469557" lon="13.6688883"><ele>972.0</ele><time>2026-04-26T14:33:01.251Z</time></trkpt><trkpt lat="42.1467843" lon="13.6689094"><ele>972.0</ele><time>2026-04-26T14:33:02.25Z</time></trkpt><trkpt lat="42.1466203" lon="13.6689522"><ele>972.0</ele><time>2026-04-26T14:33:03.251Z</time></trkpt><trkpt lat="42.1464728" lon="13.6690214"><ele>972.0</ele><time>2026-04-26T14:33:04.25Z</time></trkpt><trkpt lat="42.1463359" lon="13.6691318"><ele>969.0</ele><time>2026-04-26T14:33:05.25Z</time></trkpt><trkpt lat="42.1462077" lon="13.6692895"><ele>966.0</ele><time>2026-04-26T14:33:06.251Z</time></trkpt><trkpt lat="42.146078" lon="13.6694793"><ele>963.0</ele><time>2026-04-26T14:33:07.251Z</time></trkpt><trkpt lat="42.1459432" lon="13.6696614"><ele>963.0</ele><time>2026-04-26T14:33:08.25Z</time></trkpt><trkpt lat="42.1457915" lon="13.6697963"><ele>963.0</ele><time>2026-04-26T14:33:09.25Z</time></trkpt><trkpt lat="42.1456174" lon="13.6699098"><ele>963.0</ele><time>2026-04-26T14:33:10.25Z</time></trkpt><trkpt lat="42.1454197" lon="13.6699967"><ele>965.0</ele><time>2026-04-26T14:33:11.251Z</time></trkpt><trkpt lat="42.14519" lon="13.6700549"><ele>967.0</ele><time>2026-04-26T14:33:12.25Z</time></trkpt><trkpt lat="42.1449514" lon="13.6700868"><ele>970.0</ele><time>2026-04-26T14:33:13.25Z</time></trkpt><trkpt lat="42.144724" lon="13.6701154"><ele>973.0</ele><time>2026-04-26T14:33:14.25Z</time></trkpt><trkpt lat="42.1445042" lon="13.670154"><ele>973.0</ele><time>2026-04-26T14:33:15.251Z</time></trkpt><trkpt lat="42.144298" lon="13.6702042"><ele>973.0</ele><time>2026-04-26T14:33:16.25Z</time></trkpt><trkpt lat="42.144106" lon="13.670259"><ele>973.0</ele><time>2026-04-26T14:33:17.251Z</time></trkpt><trkpt lat="42.1439217" lon="13.6703224"><ele>969.6666666666666</ele><time>2026-04-26T14:33:18.251Z</time></trkpt><trkpt lat="42.143743" lon="13.6704052"><ele>966.3333333333333</ele><time>2026-04-26T14:33:19.25Z</time></trkpt><trkpt lat="42.1435842" lon="13.6704994"><ele>963.0</ele><time>2026-04-26T14:33:20.25Z</time></trkpt><trkpt lat="42.1434403" lon="13.6706259"><ele>963.0</ele><time>2026-04-26T14:33:21.25Z</time></trkpt><trkpt lat="42.1433247" lon="13.6707858"><ele>963.0</ele><time>2026-04-26T14:33:22.251Z</time></trkpt><trkpt lat="42.1432269" lon="13.6709904"><ele>963.0</ele><time>2026-04-26T14:33:23.251Z</time></trkpt><trkpt lat="42.1431622" lon="13.6712256"><ele>962.3333333333333</ele><time>2026-04-26T14:33:24.25Z</time></trkpt><trkpt lat="42.1430934" lon="13.6714487"><ele>961.6666666666666</ele><time>2026-04-26T14:33:25.25Z</time></trkpt><trkpt lat="42.1429991" lon="13.6716483"><ele>961.0</ele><time>2026-04-26T14:33:26.25Z</time></trkpt><trkpt lat="42.142892" lon="13.6718076"><ele>961.0</ele><time>2026-04-26T14:33:27.25Z</time></trkpt><trkpt lat="42.1427742" lon="13.6719036"><ele>961.0</ele><time>2026-04-26T14:33:28.251Z</time></trkpt><trkpt lat="42.1426339" lon="13.6719625"><ele>961.0</ele><time>2026-04-26T14:33:29.251Z</time></trkpt><trkpt lat="42.1424608" lon="13.6720133"><ele>957.3333333333333</ele><time>2026-04-26T14:33:30.25Z</time></trkpt><trkpt lat="42.1422798" lon="13.6720723"><ele>953.6666666666667</ele><time>2026-04-26T14:33:31.25Z</time></trkpt><trkpt lat="42.1421067" lon="13.6721562"><ele>950.0</ele><time>2026-04-26T14:33:32.251Z</time></trkpt><trkpt lat="42.1419348" lon="13.6722754"><ele>950.0</ele><time>2026-04-26T14:33:33.25Z</time></trkpt><trkpt lat="42.1417623" lon="13.6724439"><ele>950.0</ele><time>2026-04-26T14:33:34.251Z</time></trkpt><trkpt lat="42.1415951" lon="13.6726129"><ele>950.0</ele><time>2026-04-26T14:33:35.25Z</time></trkpt><trkpt lat="42.1414409" lon="13.6727542"><ele>943.3333333333334</ele><time>2026-04-26T14:33:36.25Z</time></trkpt><trkpt lat="42.1413006" lon="13.6728733"><ele>936.6666666666667</ele><time>2026-04-26T14:33:37.25Z</time></trkpt><trkpt lat="42.1411635" lon="13.6729669"><ele>930.0</ele><time>2026-04-26T14:33:38.25Z</time></trkpt><trkpt lat="42.1410401" lon="13.673038"><ele>930.0</ele><time>2026-04-26T14:33:39.25Z</time></trkpt><trkpt lat="42.1409544" lon="13.6730991"><ele>930.0</ele><time>2026-04-26T14:33:40.25Z</time></trkpt><trkpt lat="42.1408998" lon="13.6731851"><ele>930.0</ele><time>2026-04-26T14:33:41.25Z</time></trkpt><trkpt lat="42.1408823" lon="13.6732968"><ele>930.0</ele><time>2026-04-26T14:33:42.25Z</time></trkpt><trkpt lat="42.1409138" lon="13.6733843"><ele>930.0</ele><time>2026-04-26T14:33:43.25Z</time></trkpt><trkpt lat="42.1409869" lon="13.6734464"><ele>930.0</ele><time>2026-04-26T14:33:44.25Z</time></trkpt><trkpt lat="42.1410931" lon="13.6734355"><ele>930.0</ele><time>2026-04-26T14:33:45.251Z</time></trkpt><trkpt lat="42.1412201" lon="13.6733652"><ele>930.0</ele><time>2026-04-26T14:33:46.25Z</time></trkpt><trkpt lat="42.1413764" lon="13.6732774"><ele>930.0</ele><time>2026-04-26T14:33:47.25Z</time></trkpt><trkpt lat="42.141557" lon="13.6731834"><ele>926.0</ele><time>2026-04-26T14:33:48.25Z</time></trkpt><trkpt lat="42.1417504" lon="13.673086"><ele>922.0</ele><time>2026-04-26T14:33:49.25Z</time></trkpt><trkpt lat="42.1419467" lon="13.6730211"><ele>918.0</ele><time>2026-04-26T14:33:50.251Z</time></trkpt><trkpt lat="42.1421607" lon="13.672973"><ele>912.6666666666667</ele><time>2026-04-26T14:33:51.251Z</time></trkpt><trkpt lat="42.1423842" lon="13.6729375"><ele>907.3333333333334</ele><time>2026-04-26T14:33:52.25Z</time></trkpt><trkpt lat="42.1425968" lon="13.6729014"><ele>902.0</ele><time>2026-04-26T14:33:53.25Z</time></trkpt><trkpt lat="42.1428237" lon="13.6728133"><ele>910.0</ele><time>2026-04-26T14:33:54.25Z</time></trkpt><trkpt lat="42.1430699" lon="13.6727037"><ele>918.0</ele><time>2026-04-26T14:33:55.25Z</time></trkpt><trkpt lat="42.1433218" lon="13.6725807"><ele>918.0</ele><time>2026-04-26T14:33:56.25Z</time></trkpt><trkpt lat="42.1435641" lon="13.6724686"><ele>918.0</ele><time>2026-04-26T14:33:57.25Z</time></trkpt><trkpt lat="42.1437898" lon="13.672361"><ele>918.0</ele><time>2026-04-26T14:33:58.25Z</time></trkpt><trkpt lat="42.1440006" lon="13.6722709"><ele>918.0</ele><time>2026-04-26T14:33:59.25Z</time></trkpt><trkpt lat="42.1442027" lon="13.6722024"><ele>918.0</ele><time>2026-04-26T14:34:00.25Z</time></trkpt><trkpt lat="42.144391" lon="13.6721295"><ele>920.0</ele><time>2026-04-26T14:34:01.251Z</time></trkpt><trkpt lat="42.1445622" lon="13.6720358"><ele>922.0</ele><time>2026-04-26T14:34:02.25Z</time></trkpt><trkpt lat="42.1447144" lon="13.6719335"><ele>924.0</ele><time>2026-04-26T14:34:03.251Z</time></trkpt><trkpt lat="42.1448665" lon="13.671847"><ele>919.3333333333333</ele><time>2026-04-26T14:34:04.25Z</time></trkpt><trkpt lat="42.1450187" lon="13.6717821"><ele>914.6666666666666</ele><time>2026-04-26T14:34:05.25Z</time></trkpt><trkpt lat="42.145174" lon="13.6717622"><ele>910.0</ele><time>2026-04-26T14:34:06.25Z</time></trkpt><trkpt lat="42.1453173" lon="13.6717633"><ele>910.0</ele><time>2026-04-26T14:34:07.25Z</time></trkpt><trkpt lat="42.1454371" lon="13.6717939"><ele>910.0</ele><time>2026-04-26T14:34:08.25Z</time></trkpt><trkpt lat="42.1455248" lon="13.6718697"><ele>910.0</ele><time>2026-04-26T14:34:09.25Z</time></trkpt><trkpt lat="42.1455934" lon="13.6720021"><ele>910.0</ele><time>2026-04-26T14:34:10.25Z</time></trkpt><trkpt lat="42.1456192" lon="13.6721697"><ele>902.6666666666666</ele><time>2026-04-26T14:34:11.25Z</time></trkpt><trkpt lat="42.1456171" lon="13.6723881"><ele>895.3333333333333</ele><time>2026-04-26T14:34:12.251Z</time></trkpt><trkpt lat="42.1455882" lon="13.6726341"><ele>888.0</ele><time>2026-04-26T14:34:13.25Z</time></trkpt><trkpt lat="42.1455576" lon="13.6729146"><ele>882.0</ele><time>2026-04-26T14:34:14.251Z</time></trkpt><trkpt lat="42.1455333" lon="13.673236"><ele>876.0</ele><time>2026-04-26T14:34:15.25Z</time></trkpt><trkpt lat="42.1455153" lon="13.673546"><ele>872.6666666666667</ele><time>2026-04-26T14:34:16.25Z</time></trkpt><trkpt lat="42.145518" lon="13.6738254"><ele>869.3333333333334</ele><time>2026-04-26T14:34:17.25Z</time></trkpt><trkpt lat="42.1455162" lon="13.6740772"><ele>866.0</ele><time>2026-04-26T14:34:18.25Z</time></trkpt><trkpt lat="42.1455195" lon="13.6743064"><ele>869.6666666666667</ele><time>2026-04-26T14:34:19.25Z</time></trkpt><trkpt lat="42.1455456" lon="13.6745091"><ele>873.3333333333333</ele><time>2026-04-26T14:34:20.251Z</time></trkpt><trkpt lat="42.1456302" lon="13.6746855"><ele>877.0</ele><time>2026-04-26T14:34:21.25Z</time></trkpt><trkpt lat="42.145752" lon="13.6748585"><ele>877.0</ele><time>2026-04-26T14:34:22.25Z</time></trkpt><trkpt lat="42.145896" lon="13.6750117"><ele>877.0</ele><time>2026-04-26T14:34:23.25Z</time></trkpt><trkpt lat="42.1460499" lon="13.6751279"><ele>877.0</ele><time>2026-04-26T14:34:24.25Z</time></trkpt><trkpt lat="42.1462198" lon="13.6751971"><ele>877.0</ele><time>2026-04-26T14:34:25.25Z</time></trkpt><trkpt lat="42.1464065" lon="13.6752303"><ele>877.0</ele><time>2026-04-26T14:34:26.25Z</time></trkpt><trkpt lat="42.1466113" lon="13.6752079"><ele>877.0</ele><time>2026-04-26T14:34:27.25Z</time></trkpt><trkpt lat="42.1468215" lon="13.6751344"><ele>878.0</ele><time>2026-04-26T14:34:28.25Z</time></trkpt><trkpt lat="42.1470616" lon="13.6750259"><ele>879.0</ele><time>2026-04-26T14:34:29.25Z</time></trkpt><trkpt lat="42.1473117" lon="13.6748864"><ele>870.0</ele><time>2026-04-26T14:34:30.251Z</time></trkpt><trkpt lat="42.1475524" lon="13.6747512"><ele>861.0</ele><time>2026-04-26T14:34:31.25Z</time></trkpt><trkpt lat="42.1477807" lon="13.674631"><ele>861.0</ele><time>2026-04-26T14:34:32.251Z</time></trkpt><trkpt lat="42.1480049" lon="13.6745377"><ele>861.0</ele><time>2026-04-26T14:34:33.25Z</time></trkpt><trkpt lat="42.1482227" lon="13.6744636"><ele>865.0</ele><time>2026-04-26T14:34:34.25Z</time></trkpt><trkpt lat="42.1484104" lon="13.6744139"><ele>869.0</ele><time>2026-04-26T14:34:35.251Z</time></trkpt><trkpt lat="42.1485847" lon="13.6743651"><ele>873.0</ele><time>2026-04-26T14:34:36.25Z</time></trkpt><trkpt lat="42.1487404" lon="13.6743049"><ele>873.0</ele><time>2026-04-26T14:34:37.25Z</time></trkpt><trkpt lat="42.1488691" lon="13.6741917"><ele>873.0</ele><time>2026-04-26T14:34:38.25Z</time></trkpt><trkpt lat="42.1489837" lon="13.674034"><ele>873.0</ele><time>2026-04-26T14:34:39.25Z</time></trkpt><trkpt lat="42.1490744" lon="13.6738605"><ele>871.75</ele><time>2026-04-26T14:34:40.251Z</time></trkpt><trkpt lat="42.1491794" lon="13.6737286"><ele>870.5</ele><time>2026-04-26T14:34:41.25Z</time></trkpt><trkpt lat="42.1493002" lon="13.6736406"><ele>869.25</ele><time>2026-04-26T14:34:42.251Z</time></trkpt><trkpt lat="42.1494514" lon="13.6735846"><ele>868.0</ele><time>2026-04-26T14:34:43.25Z</time></trkpt><trkpt lat="42.1495983" lon="13.6735266"><ele>868.0</ele><time>2026-04-26T14:34:44.25Z</time></trkpt><trkpt lat="42.149732" lon="13.6734362"><ele>868.0</ele><time>2026-04-26T14:34:45.25Z</time></trkpt><trkpt lat="42.1498597" lon="13.6733191"><ele>868.0</ele><time>2026-04-26T14:34:46.25Z</time></trkpt><trkpt lat="42.1499634" lon="13.673175"><ele>864.4</ele><time>2026-04-26T14:34:47.25Z</time></trkpt><trkpt lat="42.1500516" lon="13.6730785"><ele>860.8</ele><time>2026-04-26T14:34:48.25Z</time></trkpt><trkpt lat="42.1501473" lon="13.6730155"><ele>857.2</ele><time>2026-04-26T14:34:49.25Z</time></trkpt><trkpt lat="42.1502502" lon="13.6730016"><ele>853.6</ele><time>2026-04-26T14:34:50.25Z</time></trkpt><trkpt lat="42.1503446" lon="13.6730406"><ele>850.0</ele><time>2026-04-26T14:34:51.25Z</time></trkpt><trkpt lat="42.1504324" lon="13.6731284"><ele>850.0</ele><time>2026-04-26T14:34:52.25Z</time></trkpt><trkpt lat="42.1505023" lon="13.6732662"><ele>850.0</ele><time>2026-04-26T14:34:53.251Z</time></trkpt><trkpt lat="42.150521" lon="13.6734155"><ele>850.0</ele><time>2026-04-26T14:34:54.25Z</time></trkpt><trkpt lat="42.1504988" lon="13.6736053"><ele>850.0</ele><time>2026-04-26T14:34:55.25Z</time></trkpt><trkpt lat="42.1504484" lon="13.6738291"><ele>846.0</ele><time>2026-04-26T14:34:56.25Z</time></trkpt><trkpt lat="42.1503734" lon="13.6740677"><ele>842.0</ele><time>2026-04-26T14:34:57.25Z</time></trkpt><trkpt lat="42.1502819" lon="13.6743312"><ele>838.0</ele><time>2026-04-26T14:34:58.251Z</time></trkpt><trkpt lat="42.1501937" lon="13.6745863"><ele>835.6666666666666</ele><time>2026-04-26T14:34:59.25Z</time></trkpt><trkpt lat="42.150121" lon="13.6748315"><ele>833.3333333333333</ele><time>2026-04-26T14:35:00.251Z</time></trkpt><trkpt lat="42.1500779" lon="13.6750658"><ele>831.0</ele><time>2026-04-26T14:35:01.25Z</time></trkpt><trkpt lat="42.1500632" lon="13.6752842"><ele>829.6666666666667</ele><time>2026-04-26T14:35:02.251Z</time></trkpt><trkpt lat="42.1500813" lon="13.6755067"><ele>828.3333333333334</ele><time>2026-04-26T14:35:03.25Z</time></trkpt><trkpt lat="42.1501433" lon="13.6757403"><ele>827.0</ele><time>2026-04-26T14:35:04.25Z</time></trkpt><trkpt lat="42.1502331" lon="13.6759855"><ele>825.6666666666667</ele><time>2026-04-26T14:35:05.25Z</time></trkpt><trkpt lat="42.1503201" lon="13.6762022"><ele>824.3333333333333</ele><time>2026-04-26T14:35:06.25Z</time></trkpt><trkpt lat="42.1503916" lon="13.6764067"><ele>823.0</ele><time>2026-04-26T14:35:07.25Z</time></trkpt><trkpt lat="42.1504885" lon="13.676589"><ele>823.0</ele><time>2026-04-26T14:35:08.251Z</time></trkpt><trkpt lat="42.1506154" lon="13.6767444"><ele>823.0</ele><time>2026-04-26T14:35:09.25Z</time></trkpt><trkpt lat="42.1507718" lon="13.6768561"><ele>823.0</ele><time>2026-04-26T14:35:10.25Z</time></trkpt><trkpt lat="42.1509407" lon="13.6769411"><ele>822.3333333333333</ele><time>2026-04-26T14:35:11.251Z</time></trkpt><trkpt lat="42.1511106" lon="13.6770363"><ele>821.6666666666667</ele><time>2026-04-26T14:35:12.25Z</time></trkpt><trkpt lat="42.1512823" lon="13.6771219"><ele>821.0</ele><time>2026-04-26T14:35:13.251Z</time></trkpt><trkpt lat="42.1514332" lon="13.6772128"><ele>820.0</ele><time>2026-04-26T14:35:14.25Z</time></trkpt><trkpt lat="42.1515769" lon="13.6772966"><ele>819.0</ele><time>2026-04-26T14:35:15.25Z</time></trkpt><trkpt lat="42.1517122" lon="13.6773904"><ele>818.0</ele><time>2026-04-26T14:35:16.251Z</time></trkpt><trkpt lat="42.1518323" lon="13.6774994"><ele>818.0</ele><time>2026-04-26T14:35:17.25Z</time></trkpt><trkpt lat="42.1519365" lon="13.6776208"><ele>818.0</ele><time>2026-04-26T14:35:18.251Z</time></trkpt><trkpt lat="42.1520042" lon="13.6777382"><ele>818.0</ele><time>2026-04-26T14:35:19.25Z</time></trkpt><trkpt lat="42.1520427" lon="13.6778613"><ele>818.0</ele><time>2026-04-26T14:35:20.251Z</time></trkpt><trkpt lat="42.1520443" lon="13.677996"><ele>818.0</ele><time>2026-04-26T14:35:21.25Z</time></trkpt><trkpt lat="42.1519986" lon="13.6781319"><ele>816.5</ele><time>2026-04-26T14:35:22.251Z</time></trkpt><trkpt lat="42.1519184" lon="13.6782694"><ele>815.0</ele><time>2026-04-26T14:35:23.25Z</time></trkpt><trkpt lat="42.1518218" lon="13.6784003"><ele>813.5</ele><time>2026-04-26T14:35:24.25Z</time></trkpt><trkpt lat="42.151721" lon="13.6785495"><ele>812.0</ele><time>2026-04-26T14:35:25.25Z</time></trkpt><trkpt lat="42.1516099" lon="13.6786863"><ele>805.6666666666667</ele><time>2026-04-26T14:35:26.251Z</time></trkpt><trkpt lat="42.1514901" lon="13.6787812"><ele>799.3333333333333</ele><time>2026-04-26T14:35:27.251Z</time></trkpt><trkpt lat="42.1513449" lon="13.6788429"><ele>793.0</ele><time>2026-04-26T14:35:28.25Z</time></trkpt><trkpt lat="42.1511655" lon="13.6788887"><ele>793.0</ele><time>2026-04-26T14:35:29.25Z</time></trkpt><trkpt lat="42.1509969" lon="13.6789268"><ele>793.0</ele><time>2026-04-26T14:35:30.251Z</time></trkpt><trkpt lat="42.1508462" lon="13.678947"><ele>793.0</ele><time>2026-04-26T14:35:31.25Z</time></trkpt><trkpt lat="42.1507063" lon="13.6789348"><ele>793.0</ele><time>2026-04-26T14:35:32.251Z</time></trkpt><trkpt lat="42.1505853" lon="13.6788688"><ele>793.0</ele><time>2026-04-26T14:35:33.25Z</time></trkpt><trkpt lat="42.1504547" lon="13.6787602"><ele>793.0</ele><time>2026-04-26T14:35:34.25Z</time></trkpt><trkpt lat="42.1503281" lon="13.6785974"><ele>793.0</ele><time>2026-04-26T14:35:35.251Z</time></trkpt><trkpt lat="42.1501777" lon="13.6784119"><ele>793.0</ele><time>2026-04-26T14:35:36.25Z</time></trkpt><trkpt lat="42.1500158" lon="13.6782068"><ele>793.0</ele><time>2026-04-26T14:35:37.25Z</time></trkpt><trkpt lat="42.1498594" lon="13.6780224"><ele>790.3333333333333</ele><time>2026-04-26T14:35:38.25Z</time></trkpt><trkpt lat="42.1497179" lon="13.6778581"><ele>787.6666666666667</ele><time>2026-04-26T14:35:39.25Z</time></trkpt><trkpt lat="42.1495977" lon="13.6777222"><ele>785.0</ele><time>2026-04-26T14:35:40.251Z</time></trkpt><trkpt lat="42.1494744" lon="13.6776305"><ele>785.0</ele><time>2026-04-26T14:35:41.251Z</time></trkpt><trkpt lat="42.1493675" lon="13.6775762"><ele>785.0</ele><time>2026-04-26T14:35:42.25Z</time></trkpt><trkpt lat="42.1492564" lon="13.6775907"><ele>785.0</ele><time>2026-04-26T14:35:43.25Z</time></trkpt><trkpt lat="42.1491634" lon="13.6776653"><ele>785.0</ele><time>2026-04-26T14:35:44.25Z</time></trkpt><trkpt lat="42.1491165" lon="13.6777828"><ele>785.0</ele><time>2026-04-26T14:35:45.25Z</time></trkpt><trkpt lat="42.1491075" lon="13.6779101"><ele>782.25</ele><time>2026-04-26T14:35:46.25Z</time></trkpt><trkpt lat="42.1491415" lon="13.6780438"><ele>779.5</ele><time>2026-04-26T14:35:47.251Z</time></trkpt><trkpt lat="42.1492141" lon="13.6781997"><ele>776.75</ele><time>2026-04-26T14:35:48.25Z</time></trkpt><trkpt lat="42.1493142" lon="13.6783778"><ele>774.0</ele><time>2026-04-26T14:35:49.25Z</time></trkpt><trkpt lat="42.1494071" lon="13.6785984"><ele>770.3333333333334</ele><time>2026-04-26T14:35:50.25Z</time></trkpt><trkpt lat="42.1495122" lon="13.6788367"><ele>766.6666666666667</ele><time>2026-04-26T14:35:51.25Z</time></trkpt><trkpt lat="42.1496246" lon="13.6790836"><ele>763.0</ele><time>2026-04-26T14:35:52.25Z</time></trkpt><trkpt lat="42.1497265" lon="13.6793126"><ele>762.6666666666667</ele><time>2026-04-26T14:35:53.25Z</time></trkpt><trkpt lat="42.1498423" lon="13.6795163"><ele>762.3333333333334</ele><time>2026-04-26T14:35:54.251Z</time></trkpt><trkpt lat="42.1499713" lon="13.6796798"><ele>762.0</ele><time>2026-04-26T14:35:55.25Z</time></trkpt><trkpt lat="42.1501123" lon="13.6798174"><ele>762.0</ele><time>2026-04-26T14:35:56.25Z</time></trkpt><trkpt lat="42.1502693" lon="13.6799215"><ele>762.0</ele><time>2026-04-26T14:35:57.25Z</time></trkpt><trkpt lat="42.1503942" lon="13.6799936"><ele>762.0</ele><time>2026-04-26T14:35:58.25Z</time></trkpt><trkpt lat="42.1505068" lon="13.6800437"><ele>762.0</ele><time>2026-04-26T14:35:59.25Z</time></trkpt><trkpt lat="42.1506066" lon="13.6800712"><ele>762.0</ele><time>2026-04-26T14:36:00.25Z</time></trkpt><trkpt lat="42.1506855" lon="13.6801076"><ele>762.0</ele><time>2026-04-26T14:36:01.25Z</time></trkpt><trkpt lat="42.1507348" lon="13.6802395"><ele>762.0</ele><time>2026-04-26T14:36:03.25Z</time></trkpt><trkpt lat="42.1506582" lon="13.6803394"><ele>762.0</ele><time>2026-04-26T14:36:05.25Z</time></trkpt><trkpt lat="42.1505849" lon="13.6803439"><ele>762.0</ele><time>2026-04-26T14:36:06.25Z</time></trkpt><trkpt lat="42.1504928" lon="13.6803383"><ele>756.6666666666666</ele><time>2026-04-26T14:36:07.25Z</time></trkpt><trkpt lat="42.1503663" lon="13.6803299"><ele>751.3333333333333</ele><time>2026-04-26T14:36:08.251Z</time></trkpt><trkpt lat="42.150215" lon="13.680314"><ele>746.0</ele><time>2026-04-26T14:36:09.251Z</time></trkpt><trkpt lat="42.150045" lon="13.6802869"><ele>747.0</ele><time>2026-04-26T14:36:10.25Z</time></trkpt><trkpt lat="42.1498583" lon="13.6802288"><ele>748.0</ele><time>2026-04-26T14:36:11.25Z</time></trkpt><trkpt lat="42.1496702" lon="13.6801468"><ele>749.0</ele><time>2026-04-26T14:36:12.25Z</time></trkpt><trkpt lat="42.1494858" lon="13.6800402"><ele>749.0</ele><time>2026-04-26T14:36:13.25Z</time></trkpt><trkpt lat="42.1493031" lon="13.6799116"><ele>749.0</ele><time>2026-04-26T14:36:14.251Z</time></trkpt><trkpt lat="42.1491381" lon="13.6797963"><ele>749.0</ele><time>2026-04-26T14:36:15.251Z</time></trkpt><trkpt lat="42.1489945" lon="13.6797028"><ele>746.0</ele><time>2026-04-26T14:36:16.251Z</time></trkpt><trkpt lat="42.1488661" lon="13.6796158"><ele>743.0</ele><time>2026-04-26T14:36:17.25Z</time></trkpt><trkpt lat="42.1487562" lon="13.6795456"><ele>740.0</ele><time>2026-04-26T14:36:18.25Z</time></trkpt><trkpt lat="42.1486556" lon="13.6795097"><ele>737.0</ele><time>2026-04-26T14:36:19.25Z</time></trkpt><trkpt lat="42.1485639" lon="13.6795065"><ele>737.0</ele><time>2026-04-26T14:36:20.25Z</time></trkpt><trkpt lat="42.1484594" lon="13.6795542"><ele>737.0</ele><time>2026-04-26T14:36:22.25Z</time></trkpt><trkpt lat="42.1484372" lon="13.6796727"><ele>737.0</ele><time>2026-04-26T14:36:24.25Z</time></trkpt><trkpt lat="42.1484938" lon="13.6798069"><ele>737.0</ele><time>2026-04-26T14:36:26.251Z</time></trkpt><trkpt lat="42.1485534" lon="13.6798523"><ele>737.0</ele><time>2026-04-26T14:36:27.25Z</time></trkpt><trkpt lat="42.1486235" lon="13.6798915"><ele>737.0</ele><time>2026-04-26T14:36:28.25Z</time></trkpt><trkpt lat="42.1487004" lon="13.6799411"><ele>737.0</ele><time>2026-04-26T14:36:29.25Z</time></trkpt><trkpt lat="42.1487909" lon="13.6800032"><ele>737.0</ele><time>2026-04-26T14:36:30.25Z</time></trkpt><trkpt lat="42.1488882" lon="13.6800872"><ele>737.0</ele><time>2026-04-26T14:36:31.25Z</time></trkpt><trkpt lat="42.148995" lon="13.6801964"><ele>737.0</ele><time>2026-04-26T14:36:32.251Z</time></trkpt><trkpt lat="42.1491085" lon="13.6803135"><ele>736.3333333333333</ele><time>2026-04-26T14:36:33.25Z</time></trkpt><trkpt lat="42.1492256" lon="13.6804356"><ele>735.6666666666666</ele><time>2026-04-26T14:36:34.251Z</time></trkpt><trkpt lat="42.1493451" lon="13.6805576"><ele>735.0</ele><time>2026-04-26T14:36:35.251Z</time></trkpt><trkpt lat="42.1494726" lon="13.6806801"><ele>735.0</ele><time>2026-04-26T14:36:36.25Z</time></trkpt><trkpt lat="42.1496199" lon="13.6807913"><ele>735.0</ele><time>2026-04-26T14:36:37.251Z</time></trkpt><trkpt lat="42.1497898" lon="13.6808942"><ele>735.0</ele><time>2026-04-26T14:36:38.25Z</time></trkpt><trkpt lat="42.1499718" lon="13.6809578"><ele>738.6666666666666</ele><time>2026-04-26T14:36:39.25Z</time></trkpt><trkpt lat="42.1501507" lon="13.6810214"><ele>742.3333333333333</ele><time>2026-04-26T14:36:40.251Z</time></trkpt><trkpt lat="42.1503318" lon="13.6811038"><ele>746.0</ele><time>2026-04-26T14:36:41.25Z</time></trkpt><trkpt lat="42.1505124" lon="13.6812147"><ele>742.3333333333333</ele><time>2026-04-26T14:36:42.25Z</time></trkpt><trkpt lat="42.1506778" lon="13.6813323"><ele>738.6666666666666</ele><time>2026-04-26T14:36:43.25Z</time></trkpt><trkpt lat="42.1508265" lon="13.6814523"><ele>735.0</ele><time>2026-04-26T14:36:44.251Z</time></trkpt><trkpt lat="42.1509645" lon="13.6815731"><ele>735.0</ele><time>2026-04-26T14:36:45.251Z</time></trkpt><trkpt lat="42.1511012" lon="13.6817329"><ele>735.0</ele><time>2026-04-26T14:36:46.25Z</time></trkpt><trkpt lat="42.1512172" lon="13.6819088"><ele>735.0</ele><time>2026-04-26T14:36:47.25Z</time></trkpt><trkpt lat="42.1513119" lon="13.6821069"><ele>731.3333333333334</ele><time>2026-04-26T14:36:48.25Z</time></trkpt><trkpt lat="42.1513932" lon="13.6823315"><ele>727.6666666666667</ele><time>2026-04-26T14:36:49.251Z</time></trkpt><trkpt lat="42.1514712" lon="13.6825767"><ele>724.0</ele><time>2026-04-26T14:36:50.25Z</time></trkpt><trkpt lat="42.1515467" lon="13.6828142"><ele>724.0</ele><time>2026-04-26T14:36:51.25Z</time></trkpt><trkpt lat="42.1516045" lon="13.6830214"><ele>724.0</ele><time>2026-04-26T14:36:52.25Z</time></trkpt><trkpt lat="42.1516516" lon="13.683216"><ele>724.0</ele><time>2026-04-26T14:36:53.25Z</time></trkpt><trkpt lat="42.1516863" lon="13.6834466"><ele>722.3333333333334</ele><time>2026-04-26T14:36:54.25Z</time></trkpt><trkpt lat="42.1517021" lon="13.6837113"><ele>720.6666666666666</ele><time>2026-04-26T14:36:55.25Z</time></trkpt><trkpt lat="42.1516969" lon="13.6839972"><ele>719.0</ele><time>2026-04-26T14:36:56.25Z</time></trkpt><trkpt lat="42.1516901" lon="13.6842882"><ele>716.6666666666666</ele><time>2026-04-26T14:36:57.251Z</time></trkpt><trkpt lat="42.1516788" lon="13.6845785"><ele>714.3333333333334</ele><time>2026-04-26T14:36:58.25Z</time></trkpt><trkpt lat="42.1516648" lon="13.6848347"><ele>712.0</ele><time>2026-04-26T14:36:59.25Z</time></trkpt><trkpt lat="42.1516506" lon="13.6850835"><ele>710.25</ele><time>2026-04-26T14:37:00.25Z</time></trkpt><trkpt lat="42.1516429" lon="13.6853112"><ele>708.5</ele><time>2026-04-26T14:37:01.25Z</time></trkpt><trkpt lat="42.151639" lon="13.6855056"><ele>706.75</ele><time>2026-04-26T14:37:02.251Z</time></trkpt><trkpt lat="42.1516643" lon="13.6856649"><ele>705.0</ele><time>2026-04-26T14:37:03.25Z</time></trkpt><trkpt lat="42.151721" lon="13.6857899"><ele>705.0</ele><time>2026-04-26T14:37:04.25Z</time></trkpt><trkpt lat="42.1518069" lon="13.6858723"><ele>705.0</ele><time>2026-04-26T14:37:05.25Z</time></trkpt><trkpt lat="42.1519088" lon="13.6858951"><ele>705.0</ele><time>2026-04-26T14:37:06.25Z</time></trkpt><trkpt lat="42.1520393" lon="13.6858738"><ele>705.0</ele><time>2026-04-26T14:37:07.251Z</time></trkpt><trkpt lat="42.1521941" lon="13.685839"><ele>705.0</ele><time>2026-04-26T14:37:08.251Z</time></trkpt><trkpt lat="42.1523669" lon="13.6858112"><ele>705.0</ele><time>2026-04-26T14:37:09.251Z</time></trkpt><trkpt lat="42.1525491" lon="13.6858019"><ele>705.0</ele><time>2026-04-26T14:37:10.25Z</time></trkpt><trkpt lat="42.1527171" lon="13.6858122"><ele>705.25</ele><time>2026-04-26T14:37:11.251Z</time></trkpt><trkpt lat="42.1528609" lon="13.6857915"><ele>705.5</ele><time>2026-04-26T14:37:12.25Z</time></trkpt><trkpt lat="42.1529926" lon="13.6857177"><ele>705.75</ele><time>2026-04-26T14:37:13.25Z</time></trkpt><trkpt lat="42.1530967" lon="13.6856063"><ele>706.0</ele><time>2026-04-26T14:37:14.25Z</time></trkpt><trkpt lat="42.15318" lon="13.6854468"><ele>706.6666666666667</ele><time>2026-04-26T14:37:15.251Z</time></trkpt><trkpt lat="42.1532572" lon="13.6852546"><ele>707.3333333333334</ele><time>2026-04-26T14:37:16.25Z</time></trkpt><trkpt lat="42.1533436" lon="13.6850414"><ele>708.0</ele><time>2026-04-26T14:37:17.25Z</time></trkpt><trkpt lat="42.1534329" lon="13.6848378"><ele>708.0</ele><time>2026-04-26T14:37:18.25Z</time></trkpt><trkpt lat="42.1535097" lon="13.684652"><ele>708.0</ele><time>2026-04-26T14:37:19.25Z</time></trkpt><trkpt lat="42.1535946" lon="13.6844844"><ele>708.0</ele><time>2026-04-26T14:37:20.251Z</time></trkpt><trkpt lat="42.153683" lon="13.6843409"><ele>708.0</ele><time>2026-04-26T14:37:21.251Z</time></trkpt><trkpt lat="42.1537647" lon="13.6842069"><ele>708.8333333333334</ele><time>2026-04-26T14:37:22.25Z</time></trkpt><trkpt lat="42.1538413" lon="13.6841033"><ele>709.6666666666666</ele><time>2026-04-26T14:37:23.25Z</time></trkpt><trkpt lat="42.1539204" lon="13.6840399"><ele>710.5</ele><time>2026-04-26T14:37:24.25Z</time></trkpt><trkpt lat="42.1540055" lon="13.6840314"><ele>711.3333333333333</ele><time>2026-04-26T14:37:25.251Z</time></trkpt><trkpt lat="42.1540764" lon="13.6840736"><ele>712.1666666666666</ele><time>2026-04-26T14:37:26.251Z</time></trkpt><trkpt lat="42.154118" lon="13.684157"><ele>713.0</ele><time>2026-04-26T14:37:27.25Z</time></trkpt><trkpt lat="42.1541396" lon="13.6842721"><ele>711.75</ele><time>2026-04-26T14:37:28.25Z</time></trkpt><trkpt lat="42.1541215" lon="13.6844108"><ele>710.5</ele><time>2026-04-26T14:37:29.25Z</time></trkpt><trkpt lat="42.1540805" lon="13.6845761"><ele>709.25</ele><time>2026-04-26T14:37:30.25Z</time></trkpt><trkpt lat="42.1540275" lon="13.6847541"><ele>708.0</ele><time>2026-04-26T14:37:31.25Z</time></trkpt><trkpt lat="42.1539695" lon="13.6849579"><ele>708.0</ele><time>2026-04-26T14:37:32.25Z</time></trkpt><trkpt lat="42.1539105" lon="13.6851874"><ele>708.0</ele><time>2026-04-26T14:37:33.25Z</time></trkpt><trkpt lat="42.1538483" lon="13.685443"><ele>708.0</ele><time>2026-04-26T14:37:34.251Z</time></trkpt><trkpt lat="42.1537951" lon="13.6857192"><ele>700.5</ele><time>2026-04-26T14:37:35.25Z</time></trkpt><trkpt lat="42.1537197" lon="13.6860037"><ele>693.0</ele><time>2026-04-26T14:37:36.25Z</time></trkpt><trkpt lat="42.1536475" lon="13.6863133"><ele>687.5</ele><time>2026-04-26T14:37:37.25Z</time></trkpt><trkpt lat="42.1535756" lon="13.6866307"><ele>682.0</ele><time>2026-04-26T14:37:38.25Z</time></trkpt><trkpt lat="42.1535095" lon="13.6869416"><ele>678.5</ele><time>2026-04-26T14:37:39.25Z</time></trkpt><trkpt lat="42.1534496" lon="13.6872466"><ele>675.0</ele><time>2026-04-26T14:37:40.25Z</time></trkpt><trkpt lat="42.1533956" lon="13.6875387"><ele>673.0</ele><time>2026-04-26T14:37:41.251Z</time></trkpt><trkpt lat="42.1533479" lon="13.6878467"><ele>671.0</ele><time>2026-04-26T14:37:42.25Z</time></trkpt><trkpt lat="42.1532993" lon="13.6881774"><ele>671.0</ele><time>2026-04-26T14:37:43.25Z</time></trkpt><trkpt lat="42.1532694" lon="13.6885495"><ele>671.0</ele><time>2026-04-26T14:37:44.25Z</time></trkpt><trkpt lat="42.1532455" lon="13.6889358"><ele>668.5</ele><time>2026-04-26T14:37:45.25Z</time></trkpt><trkpt lat="42.1532249" lon="13.6893228"><ele>666.0</ele><time>2026-04-26T14:37:46.25Z</time></trkpt><trkpt lat="42.1532079" lon="13.6897049"><ele>659.5</ele><time>2026-04-26T14:37:47.25Z</time></trkpt><trkpt lat="42.153196" lon="13.6900822"><ele>653.0</ele><time>2026-04-26T14:37:48.259Z</time></trkpt><trkpt lat="42.1531842" lon="13.6904525"><ele>650.5</ele><time>2026-04-26T14:37:49.259Z</time></trkpt><trkpt lat="42.153168" lon="13.6908207"><ele>648.0</ele><time>2026-04-26T14:37:50.259Z</time></trkpt><trkpt lat="42.1531324" lon="13.6911823"><ele>646.5</ele><time>2026-04-26T14:37:51.259Z</time></trkpt><trkpt lat="42.1530906" lon="13.6915375"><ele>645.0</ele><time>2026-04-26T14:37:52.259Z</time></trkpt><trkpt lat="42.1530591" lon="13.6918736"><ele>641.5</ele><time>2026-04-26T14:37:53.26Z</time></trkpt><trkpt lat="42.1530455" lon="13.6921936"><ele>638.0</ele><time>2026-04-26T14:37:54.259Z</time></trkpt><trkpt lat="42.1530361" lon="13.692497"><ele>636.6666666666666</ele><time>2026-04-26T14:37:55.26Z</time></trkpt><trkpt lat="42.1530347" lon="13.6927924"><ele>635.3333333333334</ele><time>2026-04-26T14:37:56.26Z</time></trkpt><trkpt lat="42.1530258" lon="13.6930844"><ele>634.0</ele><time>2026-04-26T14:37:57.259Z</time></trkpt><trkpt lat="42.1529971" lon="13.6933745"><ele>632.5</ele><time>2026-04-26T14:37:58.259Z</time></trkpt><trkpt lat="42.1529413" lon="13.6936631"><ele>631.0</ele><time>2026-04-26T14:37:59.259Z</time></trkpt><trkpt lat="42.1528528" lon="13.6939569"><ele>631.0</ele><time>2026-04-26T14:38:00.259Z</time></trkpt><trkpt lat="42.1527536" lon="13.6942597"><ele>631.0</ele><time>2026-04-26T14:38:01.26Z</time></trkpt><trkpt lat="42.1526501" lon="13.6945714"><ele>629.0</ele><time>2026-04-26T14:38:02.26Z</time></trkpt><trkpt lat="42.1525391" lon="13.6948995"><ele>627.0</ele><time>2026-04-26T14:38:03.26Z</time></trkpt><trkpt lat="42.1524259" lon="13.6952319"><ele>624.0</ele><time>2026-04-26T14:38:04.259Z</time></trkpt><trkpt lat="42.1523189" lon="13.6955736"><ele>621.0</ele><time>2026-04-26T14:38:05.259Z</time></trkpt><trkpt lat="42.1522111" lon="13.6959071"><ele>619.5</ele><time>2026-04-26T14:38:06.259Z</time></trkpt><trkpt lat="42.1520974" lon="13.6962335"><ele>618.0</ele><time>2026-04-26T14:38:07.26Z</time></trkpt><trkpt lat="42.1519913" lon="13.696548"><ele>618.0</ele><time>2026-04-26T14:38:08.26Z</time></trkpt><trkpt lat="42.1518909" lon="13.6968441"><ele>618.0</ele><time>2026-04-26T14:38:09.259Z</time></trkpt><trkpt lat="42.1517975" lon="13.6971387"><ele>616.5</ele><time>2026-04-26T14:38:10.26Z</time></trkpt><trkpt lat="42.1517132" lon="13.697427"><ele>615.0</ele><time>2026-04-26T14:38:11.26Z</time></trkpt><trkpt lat="42.1516517" lon="13.6977187"><ele>614.0</ele><time>2026-04-26T14:38:12.259Z</time></trkpt><trkpt lat="42.1516179" lon="13.6980376"><ele>613.0</ele><time>2026-04-26T14:38:13.259Z</time></trkpt><trkpt lat="42.1515999" lon="13.6983615"><ele>611.5</ele><time>2026-04-26T14:38:14.259Z</time></trkpt><trkpt lat="42.1516086" lon="13.6987029"><ele>610.0</ele><time>2026-04-26T14:38:15.259Z</time></trkpt><trkpt lat="42.1516426" lon="13.6990528"><ele>610.0</ele><time>2026-04-26T14:38:16.259Z</time></trkpt><trkpt lat="42.1516787" lon="13.6993972"><ele>610.0</ele><time>2026-04-26T14:38:17.259Z</time></trkpt><trkpt lat="42.1517227" lon="13.699729"><ele>608.0</ele><time>2026-04-26T14:38:18.259Z</time></trkpt><trkpt lat="42.1517672" lon="13.7000202"><ele>606.0</ele><time>2026-04-26T14:38:19.259Z</time></trkpt><trkpt lat="42.151815" lon="13.7002841"><ele>604.0</ele><time>2026-04-26T14:38:20.259Z</time></trkpt><trkpt lat="42.1518353" lon="13.7005202"><ele>603.3333333333334</ele><time>2026-04-26T14:38:21.259Z</time></trkpt><trkpt lat="42.1518291" lon="13.7007464"><ele>602.6666666666666</ele><time>2026-04-26T14:38:22.26Z</time></trkpt><trkpt lat="42.1517871" lon="13.700985"><ele>602.0</ele><time>2026-04-26T14:38:23.259Z</time></trkpt><trkpt lat="42.1517016" lon="13.7012414"><ele>601.0</ele><time>2026-04-26T14:38:24.259Z</time></trkpt><trkpt lat="42.1516045" lon="13.701511"><ele>600.0</ele><time>2026-04-26T14:38:25.26Z</time></trkpt><trkpt lat="42.1515018" lon="13.7018079"><ele>598.5</ele><time>2026-04-26T14:38:26.259Z</time></trkpt><trkpt lat="42.1513909" lon="13.7021213"><ele>597.0</ele><time>2026-04-26T14:38:27.259Z</time></trkpt><trkpt lat="42.1512832" lon="13.7024339"><ele>597.0</ele><time>2026-04-26T14:38:28.26Z</time></trkpt><trkpt lat="42.1511906" lon="13.7027382"><ele>597.0</ele><time>2026-04-26T14:38:29.259Z</time></trkpt><trkpt lat="42.151105" lon="13.7030565"><ele>596.0</ele><time>2026-04-26T14:38:30.259Z</time></trkpt><trkpt lat="42.151038" lon="13.7033893"><ele>595.0</ele><time>2026-04-26T14:38:31.259Z</time></trkpt><trkpt lat="42.1509838" lon="13.7037418"><ele>595.0</ele><time>2026-04-26T14:38:32.26Z</time></trkpt><trkpt lat="42.150922" lon="13.704104"><ele>595.0</ele><time>2026-04-26T14:38:33.259Z</time></trkpt><trkpt lat="42.1508629" lon="13.7044635"><ele>593.5</ele><time>2026-04-26T14:38:34.259Z</time></trkpt><trkpt lat="42.1508073" lon="13.7048137"><ele>592.0</ele><time>2026-04-26T14:38:35.259Z</time></trkpt><trkpt lat="42.1507671" lon="13.7051678"><ele>592.0</ele><time>2026-04-26T14:38:36.26Z</time></trkpt><trkpt lat="42.1507341" lon="13.7055121"><ele>592.0</ele><time>2026-04-26T14:38:37.26Z</time></trkpt><trkpt lat="42.1507208" lon="13.7058486"><ele>591.0</ele><time>2026-04-26T14:38:38.259Z</time></trkpt><trkpt lat="42.150712" lon="13.7061626"><ele>590.0</ele><time>2026-04-26T14:38:39.259Z</time></trkpt><trkpt lat="42.1506967" lon="13.7064557"><ele>587.0</ele><time>2026-04-26T14:38:40.259Z</time></trkpt><trkpt lat="42.1506729" lon="13.706748"><ele>584.0</ele><time>2026-04-26T14:38:41.259Z</time></trkpt><trkpt lat="42.1506348" lon="13.7070341"><ele>581.0</ele><time>2026-04-26T14:38:42.259Z</time></trkpt><trkpt lat="42.1505664" lon="13.7073228"><ele>580.5</ele><time>2026-04-26T14:38:43.259Z</time></trkpt><trkpt lat="42.1504627" lon="13.7076194"><ele>580.0</ele><time>2026-04-26T14:38:44.26Z</time></trkpt><trkpt lat="42.1503496" lon="13.7079233"><ele>579.5</ele><time>2026-04-26T14:38:45.26Z</time></trkpt><trkpt lat="42.1502286" lon="13.7082507"><ele>579.0</ele><time>2026-04-26T14:38:46.259Z</time></trkpt><trkpt lat="42.1501055" lon="13.7085849"><ele>579.0</ele><time>2026-04-26T14:38:47.259Z</time></trkpt><trkpt lat="42.1499759" lon="13.7089357"><ele>579.0</ele><time>2026-04-26T14:38:48.259Z</time></trkpt><trkpt lat="42.14985" lon="13.7092755"><ele>574.5</ele><time>2026-04-26T14:38:49.259Z</time></trkpt><trkpt lat="42.1497311" lon="13.7095894"><ele>570.0</ele><time>2026-04-26T14:38:50.259Z</time></trkpt><trkpt lat="42.1496168" lon="13.7099028"><ele>570.0</ele><time>2026-04-26T14:38:51.259Z</time></trkpt><trkpt lat="42.1495092" lon="13.7102103"><ele>570.0</ele><time>2026-04-26T14:38:52.259Z</time></trkpt><trkpt lat="42.1493918" lon="13.7104965"><ele>569.0</ele><time>2026-04-26T14:38:53.259Z</time></trkpt><trkpt lat="42.149259" lon="13.7107594"><ele>568.0</ele><time>2026-04-26T14:38:54.259Z</time></trkpt><trkpt lat="42.1491066" lon="13.7110092"><ele>565.5</ele><time>2026-04-26T14:38:55.259Z</time></trkpt><trkpt lat="42.1489289" lon="13.7112635"><ele>563.0</ele><time>2026-04-26T14:38:56.259Z</time></trkpt><trkpt lat="42.1487549" lon="13.7115048"><ele>563.0</ele><time>2026-04-26T14:38:57.26Z</time></trkpt><trkpt lat="42.1485894" lon="13.7117407"><ele>563.0</ele><time>2026-04-26T14:38:58.26Z</time></trkpt><trkpt lat="42.1484389" lon="13.7119678"><ele>562.5</ele><time>2026-04-26T14:38:59.26Z</time></trkpt><trkpt lat="42.1482944" lon="13.7122072"><ele>562.0</ele><time>2026-04-26T14:39:00.26Z</time></trkpt><trkpt lat="42.1481475" lon="13.7124698"><ele>558.5</ele><time>2026-04-26T14:39:01.26Z</time></trkpt><trkpt lat="42.1480122" lon="13.7127579"><ele>555.0</ele><time>2026-04-26T14:39:02.259Z</time></trkpt><trkpt lat="42.1478838" lon="13.7130626"><ele>555.0</ele><time>2026-04-26T14:39:03.259Z</time></trkpt><trkpt lat="42.1477549" lon="13.7133859"><ele>555.0</ele><time>2026-04-26T14:39:04.26Z</time></trkpt><trkpt lat="42.1476215" lon="13.7137086"><ele>554.0</ele><time>2026-04-26T14:39:05.26Z</time></trkpt><trkpt lat="42.1474899" lon="13.7140315"><ele>553.0</ele><time>2026-04-26T14:39:06.259Z</time></trkpt><trkpt lat="42.1473584" lon="13.7143635"><ele>552.0</ele><time>2026-04-26T14:39:07.259Z</time></trkpt><trkpt lat="42.1472245" lon="13.7146889"><ele>551.0</ele><time>2026-04-26T14:39:08.26Z</time></trkpt><trkpt lat="42.14709" lon="13.7150124"><ele>550.0</ele><time>2026-04-26T14:39:09.259Z</time></trkpt><trkpt lat="42.1469573" lon="13.7153372"><ele>549.0</ele><time>2026-04-26T14:39:10.259Z</time></trkpt><trkpt lat="42.1468283" lon="13.7156632"><ele>549.0</ele><time>2026-04-26T14:39:11.259Z</time></trkpt><trkpt lat="42.1467023" lon="13.7159878"><ele>549.0</ele><time>2026-04-26T14:39:12.259Z</time></trkpt><trkpt lat="42.1465715" lon="13.7163017"><ele>546.5</ele><time>2026-04-26T14:39:13.26Z</time></trkpt><trkpt lat="42.1464481" lon="13.7166071"><ele>544.0</ele><time>2026-04-26T14:39:14.259Z</time></trkpt><trkpt lat="42.1463163" lon="13.7169097"><ele>544.0</ele><time>2026-04-26T14:39:15.259Z</time></trkpt><trkpt lat="42.1461684" lon="13.7171851"><ele>544.0</ele><time>2026-04-26T14:39:16.259Z</time></trkpt><trkpt lat="42.1459978" lon="13.7174348"><ele>544.0</ele><time>2026-04-26T14:39:17.259Z</time></trkpt><trkpt lat="42.145799" lon="13.7176588"><ele>544.0</ele><time>2026-04-26T14:39:18.259Z</time></trkpt><trkpt lat="42.1455887" lon="13.7178748"><ele>545.5</ele><time>2026-04-26T14:39:19.259Z</time></trkpt><trkpt lat="42.1453767" lon="13.718094"><ele>547.0</ele><time>2026-04-26T14:39:20.259Z</time></trkpt><trkpt lat="42.1451585" lon="13.7183226"><ele>547.0</ele><time>2026-04-26T14:39:21.259Z</time></trkpt><trkpt lat="42.1449377" lon="13.7185543"><ele>547.0</ele><time>2026-04-26T14:39:22.26Z</time></trkpt><trkpt lat="42.1447159" lon="13.7187865"><ele>545.0</ele><time>2026-04-26T14:39:23.259Z</time></trkpt><trkpt lat="42.1445027" lon="13.7190163"><ele>543.0</ele><time>2026-04-26T14:39:24.26Z</time></trkpt><trkpt lat="42.1442956" lon="13.7192321"><ele>543.5</ele><time>2026-04-26T14:39:25.26Z</time></trkpt><trkpt lat="42.1440877" lon="13.7194497"><ele>544.0</ele><time>2026-04-26T14:39:26.26Z</time></trkpt><trkpt lat="42.1438663" lon="13.7196491"><ele>544.0</ele><time>2026-04-26T14:39:27.259Z</time></trkpt><trkpt lat="42.1436292" lon="13.7198362"><ele>544.0</ele><time>2026-04-26T14:39:28.26Z</time></trkpt><trkpt lat="42.1434065" lon="13.7200055"><ele>545.5</ele><time>2026-04-26T14:39:29.259Z</time></trkpt><trkpt lat="42.1432007" lon="13.7201728"><ele>547.0</ele><time>2026-04-26T14:39:30.259Z</time></trkpt><trkpt lat="42.143011" lon="13.7203249"><ele>547.0</ele><time>2026-04-26T14:39:31.259Z</time></trkpt><trkpt lat="42.1428423" lon="13.7204542"><ele>547.0</ele><time>2026-04-26T14:39:32.259Z</time></trkpt><trkpt lat="42.1426991" lon="13.7205415"><ele>547.0</ele><time>2026-04-26T14:39:33.259Z</time></trkpt><trkpt lat="42.1425458" lon="13.7205889"><ele>547.6666666666667</ele><time>2026-04-26T14:39:34.259Z</time></trkpt><trkpt lat="42.1423723" lon="13.7205919"><ele>548.3333333333334</ele><time>2026-04-26T14:39:35.259Z</time></trkpt><trkpt lat="42.1421744" lon="13.720558"><ele>549.0</ele><time>2026-04-26T14:39:36.26Z</time></trkpt><trkpt lat="42.1419606" lon="13.7205039"><ele>549.0</ele><time>2026-04-26T14:39:37.259Z</time></trkpt><trkpt lat="42.1417442" lon="13.7204445"><ele>549.0</ele><time>2026-04-26T14:39:38.26Z</time></trkpt><trkpt lat="42.1415295" lon="13.7203914"><ele>549.0</ele><time>2026-04-26T14:39:39.259Z</time></trkpt><trkpt lat="42.1413285" lon="13.7203409"><ele>550.0</ele><time>2026-04-26T14:39:40.259Z</time></trkpt><trkpt lat="42.1411417" lon="13.7202808"><ele>551.0</ele><time>2026-04-26T14:39:41.259Z</time></trkpt><trkpt lat="42.1409668" lon="13.7202346"><ele>552.0</ele><time>2026-04-26T14:39:42.259Z</time></trkpt><trkpt lat="42.1408119" lon="13.7202308"><ele>550.0</ele><time>2026-04-26T14:39:43.26Z</time></trkpt><trkpt lat="42.1406644" lon="13.7202613"><ele>548.0</ele><time>2026-04-26T14:39:44.26Z</time></trkpt><trkpt lat="42.1405113" lon="13.7203615"><ele>546.0</ele><time>2026-04-26T14:39:45.259Z</time></trkpt><trkpt lat="42.1403567" lon="13.7205038"><ele>546.0</ele><time>2026-04-26T14:39:46.26Z</time></trkpt><trkpt lat="42.1401999" lon="13.7206563"><ele>546.0</ele><time>2026-04-26T14:39:47.259Z</time></trkpt><trkpt lat="42.1400168" lon="13.7207774"><ele>546.0</ele><time>2026-04-26T14:39:48.259Z</time></trkpt><trkpt lat="42.1398046" lon="13.7208741"><ele>542.0</ele><time>2026-04-26T14:39:49.26Z</time></trkpt><trkpt lat="42.1395665" lon="13.7209576"><ele>538.0</ele><time>2026-04-26T14:39:50.26Z</time></trkpt><trkpt lat="42.1393332" lon="13.7210317"><ele>539.5</ele><time>2026-04-26T14:39:51.259Z</time></trkpt><trkpt lat="42.1391037" lon="13.7210839"><ele>541.0</ele><time>2026-04-26T14:39:52.259Z</time></trkpt><trkpt lat="42.1388801" lon="13.7211164"><ele>541.0</ele><time>2026-04-26T14:39:53.259Z</time></trkpt><trkpt lat="42.1386793" lon="13.7211612"><ele>541.0</ele><time>2026-04-26T14:39:54.259Z</time></trkpt><trkpt lat="42.1384859" lon="13.7212485"><ele>541.0</ele><time>2026-04-26T14:39:55.259Z</time></trkpt><trkpt lat="42.1382991" lon="13.7213624"><ele>539.0</ele><time>2026-04-26T14:39:56.259Z</time></trkpt><trkpt lat="42.1381098" lon="13.7215086"><ele>537.0</ele><time>2026-04-26T14:39:57.259Z</time></trkpt><trkpt lat="42.1379314" lon="13.7216421"><ele>535.0</ele><time>2026-04-26T14:39:58.259Z</time></trkpt><trkpt lat="42.1377524" lon="13.7217452"><ele>535.0</ele><time>2026-04-26T14:39:59.259Z</time></trkpt><trkpt lat="42.1375683" lon="13.721801"><ele>535.0</ele><time>2026-04-26T14:40:00.259Z</time></trkpt><trkpt lat="42.1373706" lon="13.7218485"><ele>535.0</ele><time>2026-04-26T14:40:01.259Z</time></trkpt><trkpt lat="42.1371805" lon="13.7218541"><ele>534.6666666666667</ele><time>2026-04-26T14:40:02.259Z</time></trkpt><trkpt lat="42.1369947" lon="13.7218339"><ele>534.3333333333334</ele><time>2026-04-26T14:40:03.259Z</time></trkpt><trkpt lat="42.1368268" lon="13.7217594"><ele>534.0</ele><time>2026-04-26T14:40:04.259Z</time></trkpt><trkpt lat="42.1366627" lon="13.7216515"><ele>536.6666666666666</ele><time>2026-04-26T14:40:05.259Z</time></trkpt><trkpt lat="42.1365044" lon="13.721504"><ele>539.3333333333333</ele><time>2026-04-26T14:40:06.259Z</time></trkpt><trkpt lat="42.1363733" lon="13.7213428"><ele>542.0</ele><time>2026-04-26T14:40:07.259Z</time></trkpt><trkpt lat="42.1362787" lon="13.7211596"><ele>540.25</ele><time>2026-04-26T14:40:08.259Z</time></trkpt><trkpt lat="42.136209" lon="13.7209529"><ele>538.5</ele><time>2026-04-26T14:40:09.259Z</time></trkpt><trkpt lat="42.1361598" lon="13.7207567"><ele>536.75</ele><time>2026-04-26T14:40:10.259Z</time></trkpt><trkpt lat="42.136108" lon="13.7206094"><ele>535.0</ele><time>2026-04-26T14:40:11.26Z</time></trkpt><trkpt lat="42.13601" lon="13.7205"><ele>535.0</ele><time>2026-04-26T14:40:12.259Z</time></trkpt><trkpt lat="42.1358903" lon="13.720436"><ele>535.0</ele><time>2026-04-26T14:40:13.259Z</time></trkpt><trkpt lat="42.1357458" lon="13.7204151"><ele>535.0</ele><time>2026-04-26T14:40:14.259Z</time></trkpt><trkpt lat="42.1355833" lon="13.7204309"><ele>535.0</ele><time>2026-04-26T14:40:15.259Z</time></trkpt><trkpt lat="42.1353936" lon="13.7204752"><ele>533.6666666666667</ele><time>2026-04-26T14:40:16.259Z</time></trkpt><trkpt lat="42.1351835" lon="13.720536"><ele>532.3333333333334</ele><time>2026-04-26T14:40:17.259Z</time></trkpt><trkpt lat="42.1349639" lon="13.7206179"><ele>531.0</ele><time>2026-04-26T14:40:18.259Z</time></trkpt><trkpt lat="42.134763" lon="13.7207056"><ele>527.0</ele><time>2026-04-26T14:40:19.259Z</time></trkpt><trkpt lat="42.1345758" lon="13.7208096"><ele>523.0</ele><time>2026-04-26T14:40:20.26Z</time></trkpt><trkpt lat="42.1343972" lon="13.7209182"><ele>519.0</ele><time>2026-04-26T14:40:21.259Z</time></trkpt><trkpt lat="42.1342196" lon="13.7210112"><ele>518.6666666666666</ele><time>2026-04-26T14:40:22.259Z</time></trkpt><trkpt lat="42.1340418" lon="13.7210886"><ele>518.3333333333333</ele><time>2026-04-26T14:40:23.259Z</time></trkpt><trkpt lat="42.133885" lon="13.7211591"><ele>518.0</ele><time>2026-04-26T14:40:24.259Z</time></trkpt><trkpt lat="42.1337446" lon="13.7212368"><ele>518.0</ele><time>2026-04-26T14:40:25.26Z</time></trkpt><trkpt lat="42.133646" lon="13.7213218"><ele>518.0</ele><time>2026-04-26T14:40:26.26Z</time></trkpt><trkpt lat="42.1335596" lon="13.7214529"><ele>518.0</ele><time>2026-04-26T14:40:27.259Z</time></trkpt><trkpt lat="42.1335045" lon="13.7216342"><ele>518.0</ele><time>2026-04-26T14:40:28.26Z</time></trkpt><trkpt lat="42.1334646" lon="13.7218476"><ele>518.3333333333333</ele><time>2026-04-26T14:40:29.259Z</time></trkpt><trkpt lat="42.1334229" lon="13.7220728"><ele>518.6666666666666</ele><time>2026-04-26T14:40:30.259Z</time></trkpt><trkpt lat="42.1333844" lon="13.7222988"><ele>519.0</ele><time>2026-04-26T14:40:31.26Z</time></trkpt><trkpt lat="42.1333574" lon="13.7225202"><ele>518.6666666666666</ele><time>2026-04-26T14:40:32.259Z</time></trkpt><trkpt lat="42.1333507" lon="13.7227396"><ele>518.3333333333333</ele><time>2026-04-26T14:40:33.259Z</time></trkpt><trkpt lat="42.1333767" lon="13.7229588"><ele>518.0</ele><time>2026-04-26T14:40:34.259Z</time></trkpt><trkpt lat="42.1334444" lon="13.7231905"><ele>518.0</ele><time>2026-04-26T14:40:35.259Z</time></trkpt><trkpt lat="42.1335329" lon="13.7234166"><ele>518.0</ele><time>2026-04-26T14:40:36.259Z</time></trkpt><trkpt lat="42.1336228" lon="13.7236559"><ele>518.0</ele><time>2026-04-26T14:40:37.259Z</time></trkpt><trkpt lat="42.1337041" lon="13.723895"><ele>518.3333333333333</ele><time>2026-04-26T14:40:38.259Z</time></trkpt><trkpt lat="42.1337833" lon="13.724124"><ele>518.6666666666666</ele><time>2026-04-26T14:40:39.259Z</time></trkpt><trkpt lat="42.1338543" lon="13.7243356"><ele>519.0</ele><time>2026-04-26T14:40:40.259Z</time></trkpt><trkpt lat="42.1339285" lon="13.7245315"><ele>518.75</ele><time>2026-04-26T14:40:41.26Z</time></trkpt><trkpt lat="42.1339998" lon="13.7247113"><ele>518.5</ele><time>2026-04-26T14:40:42.259Z</time></trkpt><trkpt lat="42.1340536" lon="13.7248671"><ele>518.25</ele><time>2026-04-26T14:40:43.259Z</time></trkpt><trkpt lat="42.1340706" lon="13.7249978"><ele>518.0</ele><time>2026-04-26T14:40:44.259Z</time></trkpt><trkpt lat="42.1340513" lon="13.7251257"><ele>516.25</ele><time>2026-04-26T14:40:45.259Z</time></trkpt><trkpt lat="42.1340017" lon="13.7252705"><ele>514.5</ele><time>2026-04-26T14:40:46.259Z</time></trkpt><trkpt lat="42.1339275" lon="13.7254169"><ele>512.75</ele><time>2026-04-26T14:40:47.26Z</time></trkpt><trkpt lat="42.1338396" lon="13.7255579"><ele>511.0</ele><time>2026-04-26T14:40:48.259Z</time></trkpt><trkpt lat="42.1337479" lon="13.7257025"><ele>511.0</ele><time>2026-04-26T14:40:49.259Z</time></trkpt><trkpt lat="42.1336597" lon="13.7258564"><ele>511.0</ele><time>2026-04-26T14:40:50.259Z</time></trkpt><trkpt lat="42.1335658" lon="13.7260015"><ele>511.0</ele><time>2026-04-26T14:40:51.259Z</time></trkpt><trkpt lat="42.1334705" lon="13.7261046"><ele>511.0</ele><time>2026-04-26T14:40:52.26Z</time></trkpt><trkpt lat="42.1332392" lon="13.7262323"><ele>510.75</ele><time>2026-04-26T14:40:54.259Z</time></trkpt><trkpt lat="42.1331027" lon="13.7262563"><ele>510.5</ele><time>2026-04-26T14:40:55.259Z</time></trkpt><trkpt lat="42.1329758" lon="13.7262648"><ele>510.25</ele><time>2026-04-26T14:40:56.259Z</time></trkpt><trkpt lat="42.1328639" lon="13.7262745"><ele>510.0</ele><time>2026-04-26T14:40:57.259Z</time></trkpt><trkpt lat="42.132774" lon="13.726307"><ele>510.0</ele><time>2026-04-26T14:40:58.259Z</time></trkpt><trkpt lat="42.132693" lon="13.7263761"><ele>510.0</ele><time>2026-04-26T14:40:59.259Z</time></trkpt><trkpt lat="42.1326263" lon="13.7264756"><ele>510.0</ele><time>2026-04-26T14:41:00.26Z</time></trkpt><trkpt lat="42.1325719" lon="13.7266016"><ele>510.0</ele><time>2026-04-26T14:41:01.259Z</time></trkpt><trkpt lat="42.1325142" lon="13.7267386"><ele>510.0</ele><time>2026-04-26T14:41:02.259Z</time></trkpt><trkpt lat="42.1324437" lon="13.726893"><ele>509.5</ele><time>2026-04-26T14:41:03.259Z</time></trkpt><trkpt lat="42.1323738" lon="13.7270312"><ele>509.0</ele><time>2026-04-26T14:41:04.259Z</time></trkpt><trkpt lat="42.1323041" lon="13.7271567"><ele>508.5</ele><time>2026-04-26T14:41:05.259Z</time></trkpt><trkpt lat="42.1322377" lon="13.7272773"><ele>508.0</ele><time>2026-04-26T14:41:06.259Z</time></trkpt><trkpt lat="42.1321759" lon="13.7273986"><ele>508.0</ele><time>2026-04-26T14:41:07.259Z</time></trkpt><trkpt lat="42.1321183" lon="13.7275186"><ele>507.99999999999994</ele><time>2026-04-26T14:41:08.259Z</time></trkpt><trkpt lat="42.1320607" lon="13.7276385"><ele>507.99999999999994</ele><time>2026-04-26T14:41:09.259Z</time></trkpt><trkpt lat="42.1319988" lon="13.7277576"><ele>508.0</ele><time>2026-04-26T14:41:10.259Z</time></trkpt><trkpt lat="42.1319354" lon="13.727883"><ele>508.0</ele><time>2026-04-26T14:41:11.259Z</time></trkpt><trkpt lat="42.1318771" lon="13.7280056"><ele>509.25</ele><time>2026-04-26T14:41:12.259Z</time></trkpt><trkpt lat="42.1318148" lon="13.7281312"><ele>510.5</ele><time>2026-04-26T14:41:13.259Z</time></trkpt><trkpt lat="42.1317502" lon="13.7282623"><ele>511.75</ele><time>2026-04-26T14:41:14.259Z</time></trkpt><trkpt lat="42.1316852" lon="13.7283894"><ele>513.0</ele><time>2026-04-26T14:41:15.259Z</time></trkpt><trkpt lat="42.1316223" lon="13.7285126"><ele>513.4</ele><time>2026-04-26T14:41:16.259Z</time></trkpt><trkpt lat="42.1315593" lon="13.7286359"><ele>513.8</ele><time>2026-04-26T14:41:17.259Z</time></trkpt><trkpt lat="42.1314932" lon="13.7287589"><ele>514.2</ele><time>2026-04-26T14:41:18.259Z</time></trkpt><trkpt lat="42.1314318" lon="13.728883"><ele>514.6</ele><time>2026-04-26T14:41:19.259Z</time></trkpt><trkpt lat="42.1313664" lon="13.7290084"><ele>515.0</ele><time>2026-04-26T14:41:20.259Z</time></trkpt><trkpt lat="42.1312978" lon="13.7291337"><ele>514.4</ele><time>2026-04-26T14:41:21.259Z</time></trkpt><trkpt lat="42.1312335" lon="13.7292609"><ele>513.8</ele><time>2026-04-26T14:41:22.259Z</time></trkpt><trkpt lat="42.131171" lon="13.7293728"><ele>513.2</ele><time>2026-04-26T14:41:23.259Z</time></trkpt><trkpt lat="42.1311154" lon="13.7294892"><ele>512.6</ele><time>2026-04-26T14:41:24.26Z</time></trkpt><trkpt lat="42.1310631" lon="13.7295985"><ele>512.0</ele><time>2026-04-26T14:41:25.259Z</time></trkpt><trkpt lat="42.1310176" lon="13.7297045"><ele>511.99999999999994</ele><time>2026-04-26T14:41:26.259Z</time></trkpt><trkpt lat="42.1309685" lon="13.7298026"><ele>512.0</ele><time>2026-04-26T14:41:27.259Z</time></trkpt><trkpt lat="42.1309204" lon="13.7298956"><ele>512.0</ele><time>2026-04-26T14:41:28.259Z</time></trkpt><trkpt lat="42.130872" lon="13.7299835"><ele>512.0</ele><time>2026-04-26T14:41:29.259Z</time></trkpt><trkpt lat="42.1308266" lon="13.7300712"><ele>511.99999999999994</ele><time>2026-04-26T14:41:30.259Z</time></trkpt><trkpt lat="42.1307764" lon="13.7301487"><ele>512.0</ele><time>2026-04-26T14:41:31.259Z</time></trkpt><trkpt lat="42.1307264" lon="13.7302278"><ele>510.8333333333333</ele><time>2026-04-26T14:41:32.259Z</time></trkpt><trkpt lat="42.1306816" lon="13.730315"><ele>509.66666666666663</ele><time>2026-04-26T14:41:33.259Z</time></trkpt><trkpt lat="42.1306498" lon="13.7304012"><ele>508.5</ele><time>2026-04-26T14:41:34.259Z</time></trkpt><trkpt lat="42.130623" lon="13.7304802"><ele>507.33333333333337</ele><time>2026-04-26T14:41:35.259Z</time></trkpt><trkpt lat="42.1305761" lon="13.7305694"><ele>506.1666666666667</ele><time>2026-04-26T14:41:37.26Z</time></trkpt><trkpt lat="42.1305805" lon="13.7306748"><ele>505.0</ele><time>2026-04-26T14:41:42.259Z</time></trkpt><trkpt lat="42.1306633" lon="13.7307983"><ele>505.0</ele><time>2026-04-26T14:41:44.26Z</time></trkpt><trkpt lat="42.1307156" lon="13.730913"><ele>505.0</ele><time>2026-04-26T14:41:45.259Z</time></trkpt><trkpt lat="42.1307623" lon="13.7310205"><ele>505.0</ele><time>2026-04-26T14:41:46.26Z</time></trkpt><trkpt lat="42.1308188" lon="13.7311146"><ele>505.0</ele><time>2026-04-26T14:41:47.259Z</time></trkpt><trkpt lat="42.1308911" lon="13.7311679"><ele>505.0</ele><time>2026-04-26T14:41:48.259Z</time></trkpt><trkpt lat="42.1309788" lon="13.7311962"><ele>503.0</ele><time>2026-04-26T14:41:49.26Z</time></trkpt><trkpt lat="42.1310822" lon="13.7312029"><ele>501.0</ele><time>2026-04-26T14:41:50.26Z</time></trkpt><trkpt lat="42.1311956" lon="13.7312013"><ele>499.0</ele><time>2026-04-26T14:41:51.26Z</time></trkpt><trkpt lat="42.1313063" lon="13.7311996"><ele>497.0</ele><time>2026-04-26T14:41:52.259Z</time></trkpt><trkpt lat="42.1314219" lon="13.731222"><ele>495.0</ele><time>2026-04-26T14:41:53.259Z</time></trkpt><trkpt lat="42.1315307" lon="13.731279"><ele>497.5</ele><time>2026-04-26T14:41:54.259Z</time></trkpt><trkpt lat="42.1316322" lon="13.7313723"><ele>500.0</ele><time>2026-04-26T14:41:55.259Z</time></trkpt><trkpt lat="42.1317448" lon="13.7315142"><ele>502.5</ele><time>2026-04-26T14:41:56.259Z</time></trkpt><trkpt lat="42.1318565" lon="13.731647"><ele>505.0</ele><time>2026-04-26T14:41:57.259Z</time></trkpt><trkpt lat="42.131966" lon="13.7317476"><ele>505.0</ele><time>2026-04-26T14:41:58.259Z</time></trkpt><trkpt lat="42.1320861" lon="13.7318168"><ele>505.0</ele><time>2026-04-26T14:41:59.259Z</time></trkpt><trkpt lat="42.1322163" lon="13.731861"><ele>505.0</ele><time>2026-04-26T14:42:00.26Z</time></trkpt><trkpt lat="42.1323547" lon="13.7318621"><ele>505.0</ele><time>2026-04-26T14:42:01.259Z</time></trkpt><trkpt lat="42.1324964" lon="13.7318211"><ele>505.75</ele><time>2026-04-26T14:42:02.26Z</time></trkpt><trkpt lat="42.132641" lon="13.7317711"><ele>506.5</ele><time>2026-04-26T14:42:03.259Z</time></trkpt><trkpt lat="42.1327788" lon="13.7317196"><ele>507.25</ele><time>2026-04-26T14:42:04.259Z</time></trkpt><trkpt lat="42.1329193" lon="13.7316881"><ele>508.0</ele><time>2026-04-26T14:42:05.26Z</time></trkpt><trkpt lat="42.1330567" lon="13.7316853"><ele>508.0</ele><time>2026-04-26T14:42:06.26Z</time></trkpt><trkpt lat="42.133189" lon="13.7317221"><ele>508.0</ele><time>2026-04-26T14:42:07.259Z</time></trkpt><trkpt lat="42.1333177" lon="13.7318104"><ele>508.0</ele><time>2026-04-26T14:42:08.259Z</time></trkpt><trkpt lat="42.1334467" lon="13.7319114"><ele>508.0</ele><time>2026-04-26T14:42:09.26Z</time></trkpt><trkpt lat="42.1335811" lon="13.7320077"><ele>505.0</ele><time>2026-04-26T14:42:10.259Z</time></trkpt><trkpt lat="42.1337391" lon="13.7320916"><ele>502.0</ele><time>2026-04-26T14:42:11.26Z</time></trkpt><trkpt lat="42.1339044" lon="13.7321501"><ele>499.0</ele><time>2026-04-26T14:42:12.259Z</time></trkpt><trkpt lat="42.1340552" lon="13.7322347"><ele>499.0</ele><time>2026-04-26T14:42:13.259Z</time></trkpt><trkpt lat="42.1341883" lon="13.7323688"><ele>499.0</ele><time>2026-04-26T14:42:14.259Z</time></trkpt><trkpt lat="42.134313" lon="13.7325481"><ele>499.0</ele><time>2026-04-26T14:42:15.259Z</time></trkpt><trkpt lat="42.1344364" lon="13.7327581"><ele>492.33333333333337</ele><time>2026-04-26T14:42:16.259Z</time></trkpt><trkpt lat="42.1345485" lon="13.7329666"><ele>485.66666666666663</ele><time>2026-04-26T14:42:17.26Z</time></trkpt><trkpt lat="42.1346716" lon="13.733148"><ele>479.0</ele><time>2026-04-26T14:42:18.259Z</time></trkpt><trkpt lat="42.1348245" lon="13.733302"><ele>477.66666666666663</ele><time>2026-04-26T14:42:19.26Z</time></trkpt><trkpt lat="42.1349937" lon="13.733437"><ele>476.33333333333337</ele><time>2026-04-26T14:42:20.26Z</time></trkpt><trkpt lat="42.135157" lon="13.7336152"><ele>475.0</ele><time>2026-04-26T14:42:21.26Z</time></trkpt><trkpt lat="42.135302" lon="13.7338126"><ele>475.0</ele><time>2026-04-26T14:42:22.259Z</time></trkpt><trkpt lat="42.1354394" lon="13.7340073"><ele>475.0</ele><time>2026-04-26T14:42:23.26Z</time></trkpt><trkpt lat="42.1355695" lon="13.7342049"><ele>475.0</ele><time>2026-04-26T14:42:24.259Z</time></trkpt><trkpt lat="42.1356866" lon="13.7344235"><ele>479.33333333333337</ele><time>2026-04-26T14:42:25.26Z</time></trkpt><trkpt lat="42.1357816" lon="13.7346533"><ele>483.66666666666663</ele><time>2026-04-26T14:42:26.259Z</time></trkpt><trkpt lat="42.1358644" lon="13.7348809"><ele>488.0</ele><time>2026-04-26T14:42:27.259Z</time></trkpt><trkpt lat="42.1359235" lon="13.7350962"><ele>485.3333333333333</ele><time>2026-04-26T14:42:28.259Z</time></trkpt><trkpt lat="42.1359542" lon="13.7353245"><ele>482.66666666666663</ele><time>2026-04-26T14:42:29.259Z</time></trkpt><trkpt lat="42.1359495" lon="13.7355528"><ele>480.0</ele><time>2026-04-26T14:42:30.26Z</time></trkpt><trkpt lat="42.1359095" lon="13.7357888"><ele>480.0</ele><time>2026-04-26T14:42:31.259Z</time></trkpt><trkpt lat="42.1358384" lon="13.7360111"><ele>480.0</ele><time>2026-04-26T14:42:32.259Z</time></trkpt><trkpt lat="42.1357608" lon="13.7362073"><ele>480.0</ele><time>2026-04-26T14:42:33.26Z</time></trkpt><trkpt lat="42.1357043" lon="13.736376"><ele>479.75</ele><time>2026-04-26T14:42:34.26Z</time></trkpt><trkpt lat="42.1356807" lon="13.736549"><ele>479.5</ele><time>2026-04-26T14:42:35.259Z</time></trkpt><trkpt lat="42.1357136" lon="13.736705"><ele>479.25</ele><time>2026-04-26T14:42:36.26Z</time></trkpt><trkpt lat="42.1357798" lon="13.7368397"><ele>479.0</ele><time>2026-04-26T14:42:37.259Z</time></trkpt><trkpt lat="42.1358828" lon="13.7369418"><ele>475.0</ele><time>2026-04-26T14:42:38.259Z</time></trkpt><trkpt lat="42.136036" lon="13.7369976"><ele>471.0</ele><time>2026-04-26T14:42:39.26Z</time></trkpt><trkpt lat="42.1362016" lon="13.7370217"><ele>467.0</ele><time>2026-04-26T14:42:40.259Z</time></trkpt><trkpt lat="42.1363884" lon="13.7370147"><ele>467.0</ele><time>2026-04-26T14:42:41.259Z</time></trkpt><trkpt lat="42.1365823" lon="13.7370172"><ele>467.0</ele><time>2026-04-26T14:42:42.26Z</time></trkpt><trkpt lat="42.1367811" lon="13.7370312"><ele>467.0</ele><time>2026-04-26T14:42:43.259Z</time></trkpt><trkpt lat="42.1369689" lon="13.7370762"><ele>467.0</ele><time>2026-04-26T14:42:44.259Z</time></trkpt><trkpt lat="42.1371676" lon="13.7371576"><ele>467.0</ele><time>2026-04-26T14:42:45.26Z</time></trkpt><trkpt lat="42.1373641" lon="13.7372553"><ele>467.0</ele><time>2026-04-26T14:42:46.259Z</time></trkpt><trkpt lat="42.1375594" lon="13.7373415"><ele>468.3333333333333</ele><time>2026-04-26T14:42:47.259Z</time></trkpt><trkpt lat="42.1377559" lon="13.7374006"><ele>469.66666666666663</ele><time>2026-04-26T14:42:48.259Z</time></trkpt><trkpt lat="42.137956" lon="13.7374245"><ele>471.0</ele><time>2026-04-26T14:42:49.259Z</time></trkpt><trkpt lat="42.1381673" lon="13.7374253"><ele>471.66666666666663</ele><time>2026-04-26T14:42:50.26Z</time></trkpt><trkpt lat="42.1383806" lon="13.7374316"><ele>472.3333333333333</ele><time>2026-04-26T14:42:51.259Z</time></trkpt><trkpt lat="42.1385797" lon="13.7374378"><ele>473.0</ele><time>2026-04-26T14:42:52.259Z</time></trkpt><trkpt lat="42.1387724" lon="13.7374493"><ele>473.0</ele><time>2026-04-26T14:42:53.26Z</time></trkpt><trkpt lat="42.1389656" lon="13.737491"><ele>473.0</ele><time>2026-04-26T14:42:54.26Z</time></trkpt><trkpt lat="42.13916" lon="13.7375666"><ele>473.0</ele><time>2026-04-26T14:42:55.259Z</time></trkpt><trkpt lat="42.139345" lon="13.7376795"><ele>467.66666666666663</ele><time>2026-04-26T14:42:56.259Z</time></trkpt><trkpt lat="42.1395224" lon="13.737821"><ele>462.33333333333337</ele><time>2026-04-26T14:42:57.259Z</time></trkpt><trkpt lat="42.1396868" lon="13.7380033"><ele>457.0</ele><time>2026-04-26T14:42:58.259Z</time></trkpt><trkpt lat="42.1398633" lon="13.7382301"><ele>456.0</ele><time>2026-04-26T14:42:59.259Z</time></trkpt><trkpt lat="42.1400362" lon="13.7384739"><ele>455.0</ele><time>2026-04-26T14:43:00.259Z</time></trkpt><trkpt lat="42.1402159" lon="13.738692"><ele>455.0</ele><time>2026-04-26T14:43:01.259Z</time></trkpt><trkpt lat="42.1403935" lon="13.738882"><ele>455.0</ele><time>2026-04-26T14:43:02.259Z</time></trkpt><trkpt lat="42.1405577" lon="13.7390574"><ele>455.0</ele><time>2026-04-26T14:43:03.26Z</time></trkpt><trkpt lat="42.1406952" lon="13.7392287"><ele>456.3333333333333</ele><time>2026-04-26T14:43:04.259Z</time></trkpt><trkpt lat="42.140806" lon="13.7394055"><ele>457.66666666666663</ele><time>2026-04-26T14:43:05.26Z</time></trkpt><trkpt lat="42.1409044" lon="13.7396044"><ele>459.0</ele><time>2026-04-26T14:43:06.259Z</time></trkpt><trkpt lat="42.1409767" lon="13.7398153"><ele>459.0</ele><time>2026-04-26T14:43:07.259Z</time></trkpt><trkpt lat="42.1410126" lon="13.7400675"><ele>459.0</ele><time>2026-04-26T14:43:08.259Z</time></trkpt><trkpt lat="42.1410355" lon="13.7403514"><ele>459.0</ele><time>2026-04-26T14:43:09.259Z</time></trkpt><trkpt lat="42.1410488" lon="13.7406263"><ele>457.33333333333337</ele><time>2026-04-26T14:43:10.259Z</time></trkpt><trkpt lat="42.1410711" lon="13.7408728"><ele>455.6666666666667</ele><time>2026-04-26T14:43:11.259Z</time></trkpt><trkpt lat="42.1410917" lon="13.7410683"><ele>454.0</ele><time>2026-04-26T14:43:12.259Z</time></trkpt><trkpt lat="42.1411082" lon="13.7412274"><ele>453.50000000000006</ele><time>2026-04-26T14:43:13.259Z</time></trkpt><trkpt lat="42.1411236" lon="13.7413542"><ele>453.0</ele><time>2026-04-26T14:43:14.26Z</time></trkpt><trkpt lat="42.1411322" lon="13.7414592"><ele>452.5</ele><time>2026-04-26T14:43:15.259Z</time></trkpt><trkpt lat="42.1411446" lon="13.7415575"><ele>452.0</ele><time>2026-04-26T14:43:16.259Z</time></trkpt><trkpt lat="42.141152" lon="13.7416438"><ele>451.50000000000006</ele><time>2026-04-26T14:43:17.259Z</time></trkpt><trkpt lat="42.1411662" lon="13.7417367"><ele>451.0</ele><time>2026-04-26T14:43:18.26Z</time></trkpt><trkpt lat="42.1411788" lon="13.7418277"><ele>450.6666666666667</ele><time>2026-04-26T14:43:19.259Z</time></trkpt><trkpt lat="42.1412015" lon="13.7419127"><ele>450.33333333333337</ele><time>2026-04-26T14:43:20.259Z</time></trkpt><trkpt lat="42.1412808" lon="13.7420551"><ele>450.0</ele><time>2026-04-26T14:43:22.259Z</time></trkpt><trkpt lat="42.1413405" lon="13.7421259"><ele>449.66666666666663</ele><time>2026-04-26T14:43:23.259Z</time></trkpt><trkpt lat="42.1414031" lon="13.7421794"><ele>449.3333333333333</ele><time>2026-04-26T14:43:24.259Z</time></trkpt><trkpt lat="42.1414712" lon="13.742211"><ele>449.0</ele><time>2026-04-26T14:43:25.259Z</time></trkpt><trkpt lat="42.1415392" lon="13.7422325"><ele>448.99999999999994</ele><time>2026-04-26T14:43:26.26Z</time></trkpt><trkpt lat="42.1416149" lon="13.742241"><ele>449.0</ele><time>2026-04-26T14:43:27.259Z</time></trkpt><trkpt lat="42.1416836" lon="13.742234"><ele>449.0</ele><time>2026-04-26T14:43:28.259Z</time></trkpt><trkpt lat="42.1417489" lon="13.7422144"><ele>449.0</ele><time>2026-04-26T14:43:29.259Z</time></trkpt><trkpt lat="42.1418673" lon="13.7422099"><ele>448.99999999999994</ele><time>2026-04-26T14:43:31.259Z</time></trkpt><trkpt lat="42.1419842" lon="13.742203"><ele>449.0</ele><time>2026-04-26T14:43:33.26Z</time></trkpt><trkpt lat="42.1420804" lon="13.7422226"><ele>449.0</ele><time>2026-04-26T14:43:35.259Z</time></trkpt><trkpt lat="42.1421725" lon="13.7422465"><ele>449.0</ele><time>2026-04-26T14:43:37.259Z</time></trkpt><trkpt lat="42.1422603" lon="13.7422826"><ele>449.0</ele><time>2026-04-26T14:43:39.26Z</time></trkpt><trkpt lat="42.1423633" lon="13.7423606"><ele>449.0</ele><time>2026-04-26T14:43:41.259Z</time></trkpt><trkpt lat="42.1424238" lon="13.7424221"><ele>449.0</ele><time>2026-04-26T14:43:42.26Z</time></trkpt><trkpt lat="42.1424835" lon="13.742495"><ele>449.3333333333333</ele><time>2026-04-26T14:43:43.259Z</time></trkpt><trkpt lat="42.1425375" lon="13.7425769"><ele>449.66666666666663</ele><time>2026-04-26T14:43:44.259Z</time></trkpt><trkpt lat="42.1425897" lon="13.7426718"><ele>450.0</ele><time>2026-04-26T14:43:45.259Z</time></trkpt><trkpt lat="42.1426322" lon="13.742773"><ele>450.33333333333337</ele><time>2026-04-26T14:43:46.259Z</time></trkpt><trkpt lat="42.1426688" lon="13.74289"><ele>450.6666666666667</ele><time>2026-04-26T14:43:47.259Z</time></trkpt><trkpt lat="42.1426895" lon="13.7430085"><ele>451.0</ele><time>2026-04-26T14:43:48.259Z</time></trkpt><trkpt lat="42.1427022" lon="13.7431216"><ele>451.0</ele><time>2026-04-26T14:43:49.26Z</time></trkpt><trkpt lat="42.1427009" lon="13.7432406"><ele>451.0</ele><time>2026-04-26T14:43:50.259Z</time></trkpt><trkpt lat="42.1426985" lon="13.7433826"><ele>451.0</ele><time>2026-04-26T14:43:51.259Z</time></trkpt><trkpt lat="42.1426681" lon="13.7435638"><ele>451.0</ele><time>2026-04-26T14:43:52.259Z</time></trkpt><trkpt lat="42.1426262" lon="13.7437723"><ele>452.6666666666667</ele><time>2026-04-26T14:43:53.259Z</time></trkpt><trkpt lat="42.142573" lon="13.7439987"><ele>454.33333333333337</ele><time>2026-04-26T14:43:54.259Z</time></trkpt><trkpt lat="42.1425272" lon="13.7442203"><ele>456.0</ele><time>2026-04-26T14:43:55.259Z</time></trkpt><trkpt lat="42.1424961" lon="13.744423"><ele>453.33333333333337</ele><time>2026-04-26T14:43:56.26Z</time></trkpt><trkpt lat="42.1424469" lon="13.744597"><ele>450.6666666666667</ele><time>2026-04-26T14:43:57.259Z</time></trkpt><trkpt lat="42.1423541" lon="13.7447776"><ele>448.0</ele><time>2026-04-26T14:43:58.259Z</time></trkpt><trkpt lat="42.1422298" lon="13.7449443"><ele>448.0</ele><time>2026-04-26T14:43:59.26Z</time></trkpt><trkpt lat="42.1421039" lon="13.7451092"><ele>448.0</ele><time>2026-04-26T14:44:00.259Z</time></trkpt><trkpt lat="42.1419697" lon="13.7452624"><ele>448.0</ele><time>2026-04-26T14:44:01.259Z</time></trkpt><trkpt lat="42.1418235" lon="13.7453751"><ele>456.33333333333337</ele><time>2026-04-26T14:44:02.259Z</time></trkpt><trkpt lat="42.1416621" lon="13.7454286"><ele>464.66666666666663</ele><time>2026-04-26T14:44:03.259Z</time></trkpt><trkpt lat="42.1414805" lon="13.7454505"><ele>473.0</ele><time>2026-04-26T14:44:04.26Z</time></trkpt><trkpt lat="42.1412743" lon="13.7454563"><ele>473.0</ele><time>2026-04-26T14:44:05.259Z</time></trkpt><trkpt lat="42.1410534" lon="13.7454562"><ele>473.0</ele><time>2026-04-26T14:44:06.259Z</time></trkpt><trkpt lat="42.1408163" lon="13.745454"><ele>468.0</ele><time>2026-04-26T14:44:07.26Z</time></trkpt><trkpt lat="42.1405755" lon="13.7454415"><ele>463.0</ele><time>2026-04-26T14:44:08.259Z</time></trkpt><trkpt lat="42.140345" lon="13.7454162"><ele>463.0</ele><time>2026-04-26T14:44:09.26Z</time></trkpt><trkpt lat="42.1401349" lon="13.7453932"><ele>463.0</ele><time>2026-04-26T14:44:10.259Z</time></trkpt><trkpt lat="42.139946" lon="13.7453782"><ele>463.0</ele><time>2026-04-26T14:44:11.26Z</time></trkpt><trkpt lat="42.1397775" lon="13.7454061"><ele>458.33333333333337</ele><time>2026-04-26T14:44:12.259Z</time></trkpt><trkpt lat="42.1396346" lon="13.7454776"><ele>453.66666666666663</ele><time>2026-04-26T14:44:13.259Z</time></trkpt><trkpt lat="42.1395048" lon="13.7455995"><ele>449.0</ele><time>2026-04-26T14:44:14.26Z</time></trkpt><trkpt lat="42.1393977" lon="13.7457708"><ele>449.0</ele><time>2026-04-26T14:44:15.259Z</time></trkpt><trkpt lat="42.1393128" lon="13.7459581"><ele>449.0</ele><time>2026-04-26T14:44:16.26Z</time></trkpt><trkpt lat="42.1392572" lon="13.7461221"><ele>449.0</ele><time>2026-04-26T14:44:17.259Z</time></trkpt><trkpt lat="42.1392453" lon="13.7462629"><ele>449.0</ele><time>2026-04-26T14:44:18.259Z</time></trkpt><trkpt lat="42.1392772" lon="13.7464066"><ele>450.25</ele><time>2026-04-26T14:44:19.259Z</time></trkpt><trkpt lat="42.139354" lon="13.7465339"><ele>451.5</ele><time>2026-04-26T14:44:20.259Z</time></trkpt><trkpt lat="42.1394408" lon="13.7466617"><ele>452.75</ele><time>2026-04-26T14:44:21.259Z</time></trkpt><trkpt lat="42.139487" lon="13.7468347"><ele>454.0</ele><time>2026-04-26T14:44:22.259Z</time></trkpt><trkpt lat="42.1394677" lon="13.7470652"><ele>456.0</ele><time>2026-04-26T14:44:23.259Z</time></trkpt><trkpt lat="42.139429" lon="13.7473606"><ele>458.0</ele><time>2026-04-26T14:44:24.26Z</time></trkpt><trkpt lat="42.13939" lon="13.7476866"><ele>458.5</ele><time>2026-04-26T14:44:25.259Z</time></trkpt><trkpt lat="42.1393625" lon="13.7480212"><ele>459.0</ele><time>2026-04-26T14:44:26.259Z</time></trkpt><trkpt lat="42.1393446" lon="13.7483347"><ele>458.66666666666663</ele><time>2026-04-26T14:44:27.26Z</time></trkpt><trkpt lat="42.1393367" lon="13.7486004"><ele>458.3333333333333</ele><time>2026-04-26T14:44:28.266Z</time></trkpt><trkpt lat="42.1393141" lon="13.7488249"><ele>458.0</ele><time>2026-04-26T14:44:29.266Z</time></trkpt><trkpt lat="42.1392652" lon="13.7490309"><ele>458.0</ele><time>2026-04-26T14:44:30.267Z</time></trkpt><trkpt lat="42.139214" lon="13.7492333"><ele>458.0</ele><time>2026-04-26T14:44:31.267Z</time></trkpt><trkpt lat="42.1391588" lon="13.749425"><ele>458.0</ele><time>2026-04-26T14:44:32.267Z</time></trkpt><trkpt lat="42.1391171" lon="13.7496069"><ele>457.75</ele><time>2026-04-26T14:44:33.266Z</time></trkpt><trkpt lat="42.139033" lon="13.7497642"><ele>457.5</ele><time>2026-04-26T14:44:34.266Z</time></trkpt><trkpt lat="42.1389325" lon="13.7498911"><ele>457.25</ele><time>2026-04-26T14:44:35.267Z</time></trkpt><trkpt lat="42.1388174" lon="13.7500258"><ele>457.0</ele><time>2026-04-26T14:44:36.266Z</time></trkpt><trkpt lat="42.1387635" lon="13.7502521"><ele>457.0</ele><time>2026-04-26T14:44:37.266Z</time></trkpt><trkpt lat="42.1386692" lon="13.7504663"><ele>457.0</ele><time>2026-04-26T14:44:38.267Z</time></trkpt><trkpt lat="42.1386151" lon="13.7507128"><ele>457.0</ele><time>2026-04-26T14:44:39.266Z</time></trkpt><trkpt lat="42.1385522" lon="13.750956"><ele>456.6666666666667</ele><time>2026-04-26T14:44:40.266Z</time></trkpt><trkpt lat="42.1384742" lon="13.7511483"><ele>456.33333333333337</ele><time>2026-04-26T14:44:41.266Z</time></trkpt><trkpt lat="42.1384127" lon="13.7513473"><ele>456.0</ele><time>2026-04-26T14:44:42.266Z</time></trkpt><trkpt lat="42.1383194" lon="13.75154"><ele>459.33333333333337</ele><time>2026-04-26T14:44:43.266Z</time></trkpt><trkpt lat="42.1381989" lon="13.7517462"><ele>462.6666666666667</ele><time>2026-04-26T14:44:44.266Z</time></trkpt><trkpt lat="42.1380508" lon="13.7519485"><ele>466.0</ele><time>2026-04-26T14:44:45.266Z</time></trkpt><trkpt lat="42.1378927" lon="13.7521841"><ele>454.0</ele><time>2026-04-26T14:44:46.267Z</time></trkpt><trkpt lat="42.1377418" lon="13.7524283"><ele>442.0</ele><time>2026-04-26T14:44:47.266Z</time></trkpt><trkpt lat="42.1375974" lon="13.7526661"><ele>441.6666666666667</ele><time>2026-04-26T14:44:48.266Z</time></trkpt><trkpt lat="42.1374657" lon="13.7528888"><ele>441.33333333333337</ele><time>2026-04-26T14:44:49.267Z</time></trkpt><trkpt lat="42.137349" lon="13.7530943"><ele>441.0</ele><time>2026-04-26T14:44:50.267Z</time></trkpt><trkpt lat="42.1372464" lon="13.7532654"><ele>441.0</ele><time>2026-04-26T14:44:51.266Z</time></trkpt><trkpt lat="42.137145" lon="13.7533912"><ele>441.0</ele><time>2026-04-26T14:44:52.266Z</time></trkpt><trkpt lat="42.1370276" lon="13.7534765"><ele>441.0</ele><time>2026-04-26T14:44:53.267Z</time></trkpt><trkpt lat="42.1369021" lon="13.7535322"><ele>441.0</ele><time>2026-04-26T14:44:54.266Z</time></trkpt><trkpt lat="42.1367829" lon="13.753566"><ele>441.75</ele><time>2026-04-26T14:44:55.266Z</time></trkpt><trkpt lat="42.1366736" lon="13.7536083"><ele>442.5</ele><time>2026-04-26T14:44:56.266Z</time></trkpt><trkpt lat="42.1365632" lon="13.7536715"><ele>443.25</ele><time>2026-04-26T14:44:57.267Z</time></trkpt><trkpt lat="42.1364283" lon="13.753757"><ele>444.0</ele><time>2026-04-26T14:44:58.266Z</time></trkpt><trkpt lat="42.1362297" lon="13.7539015"><ele>444.0</ele><time>2026-04-26T14:44:59.266Z</time></trkpt><trkpt lat="42.1360161" lon="13.7540396"><ele>444.0</ele><time>2026-04-26T14:45:00.267Z</time></trkpt><trkpt lat="42.1357823" lon="13.7542048"><ele>444.5</ele><time>2026-04-26T14:45:01.266Z</time></trkpt><trkpt lat="42.135531" lon="13.7543851"><ele>445.0</ele><time>2026-04-26T14:45:02.266Z</time></trkpt><trkpt lat="42.1352836" lon="13.7545532"><ele>445.0</ele><time>2026-04-26T14:45:03.266Z</time></trkpt><trkpt lat="42.135061" lon="13.7547144"><ele>445.0</ele><time>2026-04-26T14:45:04.267Z</time></trkpt><trkpt lat="42.1348495" lon="13.7548568"><ele>444.0</ele><time>2026-04-26T14:45:05.267Z</time></trkpt><trkpt lat="42.1346528" lon="13.7549893"><ele>443.0</ele><time>2026-04-26T14:45:06.266Z</time></trkpt><trkpt lat="42.134461" lon="13.7551188"><ele>442.0</ele><time>2026-04-26T14:45:07.266Z</time></trkpt><trkpt lat="42.134282" lon="13.7552462"><ele>442.0</ele><time>2026-04-26T14:45:08.266Z</time></trkpt><trkpt lat="42.1341227" lon="13.7553824"><ele>442.0</ele><time>2026-04-26T14:45:09.267Z</time></trkpt><trkpt lat="42.1339871" lon="13.7555569"><ele>442.0</ele><time>2026-04-26T14:45:10.266Z</time></trkpt><trkpt lat="42.1338843" lon="13.7557535"><ele>439.0</ele><time>2026-04-26T14:45:11.267Z</time></trkpt><trkpt lat="42.1338092" lon="13.7559844"><ele>436.0</ele><time>2026-04-26T14:45:12.266Z</time></trkpt><trkpt lat="42.1337644" lon="13.7562538"><ele>433.0</ele><time>2026-04-26T14:45:13.267Z</time></trkpt><trkpt lat="42.1337461" lon="13.7565511"><ele>433.5</ele><time>2026-04-26T14:45:14.267Z</time></trkpt><trkpt lat="42.133723" lon="13.7568892"><ele>434.0</ele><time>2026-04-26T14:45:15.266Z</time></trkpt><trkpt lat="42.1337051" lon="13.7572319"><ele>434.0</ele><time>2026-04-26T14:45:16.266Z</time></trkpt><trkpt lat="42.133694" lon="13.757561"><ele>434.0</ele><time>2026-04-26T14:45:17.266Z</time></trkpt><trkpt lat="42.1336645" lon="13.7578389"><ele>434.66666666666663</ele><time>2026-04-26T14:45:18.267Z</time></trkpt><trkpt lat="42.1336332" lon="13.758107"><ele>435.33333333333337</ele><time>2026-04-26T14:45:19.266Z</time></trkpt><trkpt lat="42.1335906" lon="13.7583536"><ele>436.0</ele><time>2026-04-26T14:45:20.267Z</time></trkpt><trkpt lat="42.1335112" lon="13.7585804"><ele>435.0</ele><time>2026-04-26T14:45:21.266Z</time></trkpt><trkpt lat="42.1334041" lon="13.7587823"><ele>434.0</ele><time>2026-04-26T14:45:22.267Z</time></trkpt><trkpt lat="42.1332747" lon="13.7589573"><ele>433.0</ele><time>2026-04-26T14:45:23.266Z</time></trkpt><trkpt lat="42.1331354" lon="13.7591194"><ele>433.0</ele><time>2026-04-26T14:45:24.266Z</time></trkpt><trkpt lat="42.1330046" lon="13.7592753"><ele>433.0</ele><time>2026-04-26T14:45:25.266Z</time></trkpt><trkpt lat="42.1328912" lon="13.7594179"><ele>433.0</ele><time>2026-04-26T14:45:26.266Z</time></trkpt><trkpt lat="42.1327838" lon="13.7595397"><ele>434.5</ele><time>2026-04-26T14:45:27.266Z</time></trkpt><trkpt lat="42.13268" lon="13.7596333"><ele>436.0</ele><time>2026-04-26T14:45:28.267Z</time></trkpt><trkpt lat="42.13257" lon="13.759696"><ele>437.5</ele><time>2026-04-26T14:45:29.266Z</time></trkpt><trkpt lat="42.1324735" lon="13.7597661"><ele>439.0</ele><time>2026-04-26T14:45:30.266Z</time></trkpt><trkpt lat="42.1323958" lon="13.7598793"><ele>441.0</ele><time>2026-04-26T14:45:31.266Z</time></trkpt><trkpt lat="42.1323214" lon="13.7600508"><ele>443.0</ele><time>2026-04-26T14:45:32.266Z</time></trkpt><trkpt lat="42.1322505" lon="13.7602424"><ele>445.0</ele><time>2026-04-26T14:45:33.266Z</time></trkpt><trkpt lat="42.1321754" lon="13.7604301"><ele>441.6666666666667</ele><time>2026-04-26T14:45:34.266Z</time></trkpt><trkpt lat="42.132109" lon="13.7606196"><ele>438.33333333333337</ele><time>2026-04-26T14:45:35.266Z</time></trkpt><trkpt lat="42.132033" lon="13.7608218"><ele>435.0</ele><time>2026-04-26T14:45:36.266Z</time></trkpt><trkpt lat="42.1319372" lon="13.7610544"><ele>435.0</ele><time>2026-04-26T14:45:37.266Z</time></trkpt><trkpt lat="42.1318416" lon="13.7613097"><ele>435.0</ele><time>2026-04-26T14:45:38.266Z</time></trkpt><trkpt lat="42.1317298" lon="13.7615538"><ele>435.0</ele><time>2026-04-26T14:45:39.266Z</time></trkpt><trkpt lat="42.1315935" lon="13.7617774"><ele>432.33333333333337</ele><time>2026-04-26T14:45:40.267Z</time></trkpt><trkpt lat="42.1314534" lon="13.7620024"><ele>429.6666666666667</ele><time>2026-04-26T14:45:41.267Z</time></trkpt><trkpt lat="42.1313113" lon="13.7622153"><ele>427.0</ele><time>2026-04-26T14:45:42.266Z</time></trkpt><trkpt lat="42.1311859" lon="13.7624214"><ele>427.0</ele><time>2026-04-26T14:45:43.266Z</time></trkpt><trkpt lat="42.1310667" lon="13.76261"><ele>427.0</ele><time>2026-04-26T14:45:44.266Z</time></trkpt><trkpt lat="42.1309463" lon="13.7627926"><ele>427.0</ele><time>2026-04-26T14:45:45.266Z</time></trkpt><trkpt lat="42.1308414" lon="13.7629751"><ele>429.6666666666667</ele><time>2026-04-26T14:45:46.266Z</time></trkpt><trkpt lat="42.1307487" lon="13.7631537"><ele>432.33333333333337</ele><time>2026-04-26T14:45:47.267Z</time></trkpt><trkpt lat="42.1306655" lon="13.7633352"><ele>435.0</ele><time>2026-04-26T14:45:48.267Z</time></trkpt><trkpt lat="42.130593" lon="13.7635023"><ele>431.75</ele><time>2026-04-26T14:45:49.266Z</time></trkpt><trkpt lat="42.1305008" lon="13.763643"><ele>428.5</ele><time>2026-04-26T14:45:50.267Z</time></trkpt><trkpt lat="42.1303854" lon="13.7637566"><ele>425.25</ele><time>2026-04-26T14:45:51.267Z</time></trkpt><trkpt lat="42.130256" lon="13.7638291"><ele>422.0</ele><time>2026-04-26T14:45:52.266Z</time></trkpt><trkpt lat="42.1301198" lon="13.7638236"><ele>422.0</ele><time>2026-04-26T14:45:53.266Z</time></trkpt><trkpt lat="42.1299906" lon="13.7637924"><ele>422.0</ele><time>2026-04-26T14:45:54.267Z</time></trkpt><trkpt lat="42.1298612" lon="13.7637969"><ele>422.0</ele><time>2026-04-26T14:45:55.267Z</time></trkpt><trkpt lat="42.1297473" lon="13.7638653"><ele>422.0</ele><time>2026-04-26T14:45:56.266Z</time></trkpt><trkpt lat="42.1296639" lon="13.7639934"><ele>427.0</ele><time>2026-04-26T14:45:57.266Z</time></trkpt><trkpt lat="42.1296024" lon="13.7641449"><ele>432.0</ele><time>2026-04-26T14:45:58.266Z</time></trkpt><trkpt lat="42.1295216" lon="13.7643355"><ele>437.0</ele><time>2026-04-26T14:45:59.266Z</time></trkpt><trkpt lat="42.1294377" lon="13.7645664"><ele>437.0</ele><time>2026-04-26T14:46:00.266Z</time></trkpt><trkpt lat="42.1293292" lon="13.7647968"><ele>437.0</ele><time>2026-04-26T14:46:01.266Z</time></trkpt><trkpt lat="42.1292112" lon="13.7650246"><ele>437.0</ele><time>2026-04-26T14:46:02.266Z</time></trkpt><trkpt lat="42.1290923" lon="13.7652769"><ele>449.3333333333333</ele><time>2026-04-26T14:46:03.266Z</time></trkpt><trkpt lat="42.1289813" lon="13.7655273"><ele>461.66666666666663</ele><time>2026-04-26T14:46:04.266Z</time></trkpt><trkpt lat="42.1288759" lon="13.765752"><ele>474.0</ele><time>2026-04-26T14:46:05.266Z</time></trkpt><trkpt lat="42.128792" lon="13.7659861"><ele>462.33333333333337</ele><time>2026-04-26T14:46:06.267Z</time></trkpt><trkpt lat="42.1287244" lon="13.7662307"><ele>450.6666666666667</ele><time>2026-04-26T14:46:07.266Z</time></trkpt><trkpt lat="42.1286888" lon="13.7664883"><ele>439.0</ele><time>2026-04-26T14:46:08.266Z</time></trkpt><trkpt lat="42.1286147" lon="13.7667416"><ele>430.0</ele><time>2026-04-26T14:46:09.266Z</time></trkpt><trkpt lat="42.1285185" lon="13.7670332"><ele>421.0</ele><time>2026-04-26T14:46:10.266Z</time></trkpt><trkpt lat="42.1283964" lon="13.7672988"><ele>421.0</ele><time>2026-04-26T14:46:11.266Z</time></trkpt><trkpt lat="42.1282762" lon="13.7675324"><ele>421.0</ele><time>2026-04-26T14:46:12.266Z</time></trkpt><trkpt lat="42.1281658" lon="13.7677401"><ele>421.0</ele><time>2026-04-26T14:46:13.266Z</time></trkpt><trkpt lat="42.1280572" lon="13.767929"><ele>422.5</ele><time>2026-04-26T14:46:14.266Z</time></trkpt><trkpt lat="42.1279582" lon="13.7680876"><ele>424.0</ele><time>2026-04-26T14:46:15.266Z</time></trkpt><trkpt lat="42.1278888" lon="13.7682194"><ele>425.5</ele><time>2026-04-26T14:46:16.266Z</time></trkpt><trkpt lat="42.1278618" lon="13.7683481"><ele>427.0</ele><time>2026-04-26T14:46:17.266Z</time></trkpt><trkpt lat="42.1278717" lon="13.7684835"><ele>422.33333333333337</ele><time>2026-04-26T14:46:18.266Z</time></trkpt><trkpt lat="42.1278866" lon="13.7686319"><ele>417.66666666666663</ele><time>2026-04-26T14:46:19.266Z</time></trkpt><trkpt lat="42.1278048" lon="13.7689055"><ele>413.0</ele><time>2026-04-26T14:46:20.266Z</time></trkpt><trkpt lat="42.1276217" lon="13.7691305"><ele>415.0</ele><time>2026-04-26T14:46:21.266Z</time></trkpt><trkpt lat="42.1274681" lon="13.7693956"><ele>417.0</ele><time>2026-04-26T14:46:22.266Z</time></trkpt><trkpt lat="42.127315" lon="13.7696759"><ele>417.0</ele><time>2026-04-26T14:46:23.266Z</time></trkpt><trkpt lat="42.1271427" lon="13.7699571"><ele>417.0</ele><time>2026-04-26T14:46:24.266Z</time></trkpt><trkpt lat="42.1269452" lon="13.7702117"><ele>412.5</ele><time>2026-04-26T14:46:25.266Z</time></trkpt><trkpt lat="42.1267416" lon="13.7704743"><ele>408.0</ele><time>2026-04-26T14:46:26.267Z</time></trkpt><trkpt lat="42.1265371" lon="13.7707275"><ele>416.0</ele><time>2026-04-26T14:46:27.266Z</time></trkpt><trkpt lat="42.1263556" lon="13.7709555"><ele>424.0</ele><time>2026-04-26T14:46:28.267Z</time></trkpt><trkpt lat="42.1261959" lon="13.7711658"><ele>424.0</ele><time>2026-04-26T14:46:29.266Z</time></trkpt><trkpt lat="42.1260462" lon="13.7713614"><ele>424.0</ele><time>2026-04-26T14:46:30.266Z</time></trkpt><trkpt lat="42.1259002" lon="13.771544"><ele>424.0</ele><time>2026-04-26T14:46:31.266Z</time></trkpt><trkpt lat="42.1257628" lon="13.7717415"><ele>436.33333333333337</ele><time>2026-04-26T14:46:32.266Z</time></trkpt><trkpt lat="42.1256537" lon="13.7719692"><ele>448.66666666666663</ele><time>2026-04-26T14:46:33.266Z</time></trkpt><trkpt lat="42.1255685" lon="13.7722132"><ele>461.0</ele><time>2026-04-26T14:46:34.267Z</time></trkpt><trkpt lat="42.1255169" lon="13.7724481"><ele>455.3333333333333</ele><time>2026-04-26T14:46:35.266Z</time></trkpt><trkpt lat="42.1254929" lon="13.7727024"><ele>449.66666666666663</ele><time>2026-04-26T14:46:36.266Z</time></trkpt><trkpt lat="42.1254678" lon="13.7729616"><ele>444.0</ele><time>2026-04-26T14:46:37.266Z</time></trkpt><trkpt lat="42.1254074" lon="13.7732252"><ele>444.0</ele><time>2026-04-26T14:46:38.266Z</time></trkpt><trkpt lat="42.1253203" lon="13.7734768"><ele>444.0</ele><time>2026-04-26T14:46:39.266Z</time></trkpt><trkpt lat="42.1252241" lon="13.7737004"><ele>444.0</ele><time>2026-04-26T14:46:40.266Z</time></trkpt><trkpt lat="42.1251335" lon="13.7738894"><ele>442.66666666666663</ele><time>2026-04-26T14:46:41.266Z</time></trkpt><trkpt lat="42.1250264" lon="13.7740422"><ele>441.3333333333333</ele><time>2026-04-26T14:46:42.267Z</time></trkpt><trkpt lat="42.1248718" lon="13.7741799"><ele>440.0</ele><time>2026-04-26T14:46:43.266Z</time></trkpt><trkpt lat="42.1246951" lon="13.7742935"><ele>430.0</ele><time>2026-04-26T14:46:44.267Z</time></trkpt><trkpt lat="42.1245379" lon="13.7743935"><ele>420.0</ele><time>2026-04-26T14:46:45.267Z</time></trkpt><trkpt lat="42.1244031" lon="13.7744603"><ele>410.0</ele><time>2026-04-26T14:46:46.267Z</time></trkpt><trkpt lat="42.1242699" lon="13.7744856"><ele>410.0</ele><time>2026-04-26T14:46:47.266Z</time></trkpt><trkpt lat="42.1241296" lon="13.7744265"><ele>410.0</ele><time>2026-04-26T14:46:48.267Z</time></trkpt><trkpt lat="42.1239676" lon="13.7743945"><ele>410.0</ele><time>2026-04-26T14:46:49.266Z</time></trkpt><trkpt lat="42.1238044" lon="13.7744052"><ele>411.3333333333333</ele><time>2026-04-26T14:46:50.266Z</time></trkpt><trkpt lat="42.1236423" lon="13.7744782"><ele>412.66666666666663</ele><time>2026-04-26T14:46:51.267Z</time></trkpt><trkpt lat="42.1234952" lon="13.7745501"><ele>414.0</ele><time>2026-04-26T14:46:52.267Z</time></trkpt><trkpt lat="42.1233419" lon="13.7745907"><ele>412.0</ele><time>2026-04-26T14:46:53.266Z</time></trkpt><trkpt lat="42.1231623" lon="13.7745649"><ele>410.0</ele><time>2026-04-26T14:46:54.267Z</time></trkpt><trkpt lat="42.1229637" lon="13.7744813"><ele>408.0</ele><time>2026-04-26T14:46:55.266Z</time></trkpt><trkpt lat="42.1227628" lon="13.7743933"><ele>422.0</ele><time>2026-04-26T14:46:56.267Z</time></trkpt><trkpt lat="42.1225763" lon="13.774321"><ele>436.0</ele><time>2026-04-26T14:46:57.266Z</time></trkpt><trkpt lat="42.1224079" lon="13.7742421"><ele>450.0</ele><time>2026-04-26T14:46:58.266Z</time></trkpt><trkpt lat="42.1222375" lon="13.7741968"><ele>451.66666666666663</ele><time>2026-04-26T14:46:59.266Z</time></trkpt><trkpt lat="42.122044" lon="13.7742184"><ele>453.3333333333333</ele><time>2026-04-26T14:47:00.266Z</time></trkpt><trkpt lat="42.1218127" lon="13.7742947"><ele>455.0</ele><time>2026-04-26T14:47:01.266Z</time></trkpt><trkpt lat="42.1215693" lon="13.7743921"><ele>450.5</ele><time>2026-04-26T14:47:02.266Z</time></trkpt><trkpt lat="42.1213322" lon="13.7744838"><ele>446.0</ele><time>2026-04-26T14:47:03.266Z</time></trkpt><trkpt lat="42.1211142" lon="13.7746349"><ele>446.0</ele><time>2026-04-26T14:47:04.266Z</time></trkpt><trkpt lat="42.1209112" lon="13.7748281"><ele>446.0</ele><time>2026-04-26T14:47:05.266Z</time></trkpt><trkpt lat="42.1207047" lon="13.7750556"><ele>450.5</ele><time>2026-04-26T14:47:06.266Z</time></trkpt><trkpt lat="42.120484" lon="13.7753226"><ele>455.0</ele><time>2026-04-26T14:47:07.266Z</time></trkpt><trkpt lat="42.1202663" lon="13.7755926"><ele>455.0</ele><time>2026-04-26T14:47:08.267Z</time></trkpt><trkpt lat="42.120059" lon="13.7758608"><ele>455.0</ele><time>2026-04-26T14:47:09.267Z</time></trkpt><trkpt lat="42.1198954" lon="13.7760879"><ele>457.0</ele><time>2026-04-26T14:47:10.266Z</time></trkpt><trkpt lat="42.1197437" lon="13.7762996"><ele>459.0</ele><time>2026-04-26T14:47:11.266Z</time></trkpt><trkpt lat="42.1196118" lon="13.7764935"><ele>461.0</ele><time>2026-04-26T14:47:12.266Z</time></trkpt><trkpt lat="42.1195002" lon="13.7766567"><ele>461.0</ele><time>2026-04-26T14:47:13.266Z</time></trkpt><trkpt lat="42.1193833" lon="13.7767863"><ele>461.0</ele><time>2026-04-26T14:47:14.267Z</time></trkpt><trkpt lat="42.1192383" lon="13.7768669"><ele>461.0</ele><time>2026-04-26T14:47:15.267Z</time></trkpt><trkpt lat="42.1190637" lon="13.7768774"><ele>455.3333333333333</ele><time>2026-04-26T14:47:16.266Z</time></trkpt><trkpt lat="42.1188655" lon="13.7768675"><ele>449.66666666666663</ele><time>2026-04-26T14:47:17.266Z</time></trkpt><trkpt lat="42.1186516" lon="13.7768968"><ele>444.0</ele><time>2026-04-26T14:47:18.267Z</time></trkpt><trkpt lat="42.1184226" lon="13.7769655"><ele>450.5</ele><time>2026-04-26T14:47:19.267Z</time></trkpt><trkpt lat="42.1181909" lon="13.7770431"><ele>457.0</ele><time>2026-04-26T14:47:20.267Z</time></trkpt><trkpt lat="42.1179724" lon="13.7771279"><ele>457.0</ele><time>2026-04-26T14:47:21.267Z</time></trkpt><trkpt lat="42.1177586" lon="13.7772196"><ele>457.0</ele><time>2026-04-26T14:47:22.266Z</time></trkpt><trkpt lat="42.1175651" lon="13.7773292"><ele>457.0</ele><time>2026-04-26T14:47:23.266Z</time></trkpt><trkpt lat="42.1173796" lon="13.7774649"><ele>460.5</ele><time>2026-04-26T14:47:24.267Z</time></trkpt><trkpt lat="42.117189" lon="13.7776803"><ele>464.0</ele><time>2026-04-26T14:47:25.266Z</time></trkpt><trkpt lat="42.1170045" lon="13.7779186"><ele>464.0</ele><time>2026-04-26T14:47:26.266Z</time></trkpt><trkpt lat="42.1168034" lon="13.7781673"><ele>464.0</ele><time>2026-04-26T14:47:27.266Z</time></trkpt><trkpt lat="42.1165923" lon="13.7784257"><ele>470.0</ele><time>2026-04-26T14:47:28.266Z</time></trkpt><trkpt lat="42.1163836" lon="13.7786864"><ele>476.0</ele><time>2026-04-26T14:47:29.266Z</time></trkpt><trkpt lat="42.1161801" lon="13.7789369"><ele>476.0</ele><time>2026-04-26T14:47:30.266Z</time></trkpt><trkpt lat="42.1159997" lon="13.7791583"><ele>476.0</ele><time>2026-04-26T14:47:31.266Z</time></trkpt><trkpt lat="42.1158278" lon="13.7793821"><ele>488.5</ele><time>2026-04-26T14:47:32.266Z</time></trkpt><trkpt lat="42.1156765" lon="13.7796396"><ele>501.0</ele><time>2026-04-26T14:47:33.266Z</time></trkpt><trkpt lat="42.1155312" lon="13.7799187"><ele>489.0</ele><time>2026-04-26T14:47:34.266Z</time></trkpt><trkpt lat="42.1153889" lon="13.7802086"><ele>477.0</ele><time>2026-04-26T14:47:35.266Z</time></trkpt><trkpt lat="42.1152418" lon="13.7804978"><ele>477.0</ele><time>2026-04-26T14:47:36.266Z</time></trkpt><trkpt lat="42.1150811" lon="13.7807827"><ele>477.0</ele><time>2026-04-26T14:47:37.267Z</time></trkpt><trkpt lat="42.1149211" lon="13.7810517"><ele>486.0</ele><time>2026-04-26T14:47:38.266Z</time></trkpt><trkpt lat="42.114767" lon="13.781301"><ele>495.0</ele><time>2026-04-26T14:47:39.266Z</time></trkpt><trkpt lat="42.1146119" lon="13.7815247"><ele>495.0</ele><time>2026-04-26T14:47:40.266Z</time></trkpt><trkpt lat="42.1144448" lon="13.7817311"><ele>495.0</ele><time>2026-04-26T14:47:41.266Z</time></trkpt><trkpt lat="42.114269" lon="13.7819251"><ele>497.66666666666663</ele><time>2026-04-26T14:47:42.266Z</time></trkpt><trkpt lat="42.1140822" lon="13.7820944"><ele>500.3333333333333</ele><time>2026-04-26T14:47:43.267Z</time></trkpt><trkpt lat="42.1139016" lon="13.7822315"><ele>503.0</ele><time>2026-04-26T14:47:44.266Z</time></trkpt><trkpt lat="42.1137309" lon="13.7823662"><ele>503.0</ele><time>2026-04-26T14:47:45.267Z</time></trkpt><trkpt lat="42.1135539" lon="13.7825459"><ele>503.0</ele><time>2026-04-26T14:47:46.266Z</time></trkpt><trkpt lat="42.113391" lon="13.7828022"><ele>513.0</ele><time>2026-04-26T14:47:47.266Z</time></trkpt><trkpt lat="42.113244" lon="13.7830754"><ele>523.0</ele><time>2026-04-26T14:47:48.267Z</time></trkpt><trkpt lat="42.1131096" lon="13.7833465"><ele>514.5</ele><time>2026-04-26T14:47:49.266Z</time></trkpt><trkpt lat="42.1129804" lon="13.7835895"><ele>506.0</ele><time>2026-04-26T14:47:50.266Z</time></trkpt><trkpt lat="42.112867" lon="13.7838663"><ele>506.0</ele><time>2026-04-26T14:47:51.266Z</time></trkpt><trkpt lat="42.1127954" lon="13.784168"><ele>506.0</ele><time>2026-04-26T14:47:52.267Z</time></trkpt><trkpt lat="42.112719" lon="13.784442"><ele>500.66666666666663</ele><time>2026-04-26T14:47:53.267Z</time></trkpt><trkpt lat="42.1126261" lon="13.7846952"><ele>495.33333333333337</ele><time>2026-04-26T14:47:54.266Z</time></trkpt><trkpt lat="42.1125096" lon="13.7849257"><ele>490.0</ele><time>2026-04-26T14:47:55.266Z</time></trkpt><trkpt lat="42.1123889" lon="13.7851255"><ele>500.6666666666667</ele><time>2026-04-26T14:47:56.267Z</time></trkpt><trkpt lat="42.11231" lon="13.7853717"><ele>511.33333333333337</ele><time>2026-04-26T14:47:57.267Z</time></trkpt><trkpt lat="42.1122653" lon="13.7856634"><ele>522.0</ele><time>2026-04-26T14:47:58.266Z</time></trkpt><trkpt lat="42.112228" lon="13.7859481"><ele>514.6666666666666</ele><time>2026-04-26T14:47:59.266Z</time></trkpt><trkpt lat="42.112165" lon="13.7862039"><ele>507.3333333333333</ele><time>2026-04-26T14:48:00.266Z</time></trkpt><trkpt lat="42.112066" lon="13.7864409"><ele>500.0</ele><time>2026-04-26T14:48:01.266Z</time></trkpt><trkpt lat="42.1119441" lon="13.7866618"><ele>500.0</ele><time>2026-04-26T14:48:02.267Z</time></trkpt><trkpt lat="42.1118096" lon="13.786841"><ele>500.0</ele><time>2026-04-26T14:48:03.266Z</time></trkpt><trkpt lat="42.1116481" lon="13.7869511"><ele>500.0</ele><time>2026-04-26T14:48:04.266Z</time></trkpt><trkpt lat="42.1115151" lon="13.7870375"><ele>505.5</ele><time>2026-04-26T14:48:05.267Z</time></trkpt><trkpt lat="42.1114108" lon="13.7871692"><ele>511.0</ele><time>2026-04-26T14:48:06.266Z</time></trkpt><trkpt lat="42.1113701" lon="13.7873449"><ele>516.5</ele><time>2026-04-26T14:48:07.266Z</time></trkpt><trkpt lat="42.1114051" lon="13.7875638"><ele>522.0</ele><time>2026-04-26T14:48:08.266Z</time></trkpt><trkpt lat="42.1114372" lon="13.787791"><ele>522.0</ele><time>2026-04-26T14:48:09.266Z</time></trkpt><trkpt lat="42.1114142" lon="13.7880472"><ele>522.0</ele><time>2026-04-26T14:48:10.266Z</time></trkpt><trkpt lat="42.1113633" lon="13.7883114"><ele>522.0</ele><time>2026-04-26T14:48:11.266Z</time></trkpt><trkpt lat="42.1113026" lon="13.788542"><ele>515.0</ele><time>2026-04-26T14:48:12.266Z</time></trkpt><trkpt lat="42.1112336" lon="13.7887097"><ele>508.0</ele><time>2026-04-26T14:48:13.267Z</time></trkpt><trkpt lat="42.1111398" lon="13.7888387"><ele>501.0</ele><time>2026-04-26T14:48:14.267Z</time></trkpt><trkpt lat="42.1110001" lon="13.7889334"><ele>494.0</ele><time>2026-04-26T14:48:15.266Z</time></trkpt><trkpt lat="42.1108365" lon="13.7890105"><ele>512.3333333333333</ele><time>2026-04-26T14:48:16.266Z</time></trkpt><trkpt lat="42.1106691" lon="13.78904"><ele>530.6666666666666</ele><time>2026-04-26T14:48:17.266Z</time></trkpt><trkpt lat="42.110518" lon="13.7891067"><ele>549.0</ele><time>2026-04-26T14:48:18.266Z</time></trkpt><trkpt lat="42.1103936" lon="13.7892075"><ele>543.75</ele><time>2026-04-26T14:48:19.267Z</time></trkpt><trkpt lat="42.1103067" lon="13.7893506"><ele>538.5</ele><time>2026-04-26T14:48:20.267Z</time></trkpt><trkpt lat="42.1102663" lon="13.7895315"><ele>533.25</ele><time>2026-04-26T14:48:21.267Z</time></trkpt><trkpt lat="42.1102465" lon="13.7897337"><ele>528.0</ele><time>2026-04-26T14:48:22.267Z</time></trkpt><trkpt lat="42.1102056" lon="13.7899145"><ele>528.0</ele><time>2026-04-26T14:48:23.267Z</time></trkpt><trkpt lat="42.1101103" lon="13.7900845"><ele>528.0</ele><time>2026-04-26T14:48:24.267Z</time></trkpt><trkpt lat="42.1100077" lon="13.7902471"><ele>528.0</ele><time>2026-04-26T14:48:25.266Z</time></trkpt><trkpt lat="42.1099155" lon="13.7904155"><ele>540.0</ele><time>2026-04-26T14:48:26.267Z</time></trkpt><trkpt lat="42.1098537" lon="13.7905979"><ele>552.0</ele><time>2026-04-26T14:48:27.266Z</time></trkpt><trkpt lat="42.109832" lon="13.7908155"><ele>564.0</ele><time>2026-04-26T14:48:28.266Z</time></trkpt><trkpt lat="42.1098216" lon="13.791038"><ele>568.5</ele><time>2026-04-26T14:48:29.267Z</time></trkpt><trkpt lat="42.1098995" lon="13.7915855"><ele>573.0</ele><time>2026-04-26T14:48:31.266Z</time></trkpt><trkpt lat="42.1099472" lon="13.7919364"><ele>544.0</ele><time>2026-04-26T14:48:32.266Z</time></trkpt><trkpt lat="42.10996" lon="13.7923327"><ele>515.0</ele><time>2026-04-26T14:48:33.266Z</time></trkpt><trkpt lat="42.1099832" lon="13.7926359"><ele>514.5</ele><time>2026-04-26T14:48:34.267Z</time></trkpt><trkpt lat="42.1100269" lon="13.7929715"><ele>514.0</ele><time>2026-04-26T14:48:35.267Z</time></trkpt><trkpt lat="42.1100433" lon="13.7932848"><ele>507.0</ele><time>2026-04-26T14:48:36.267Z</time></trkpt><trkpt lat="42.1100661" lon="13.7935673"><ele>500.0</ele><time>2026-04-26T14:48:37.266Z</time></trkpt><trkpt lat="42.1100475" lon="13.7938093"><ele>493.0</ele><time>2026-04-26T14:48:38.267Z</time></trkpt><trkpt lat="42.1100208" lon="13.7940235"><ele>493.0</ele><time>2026-04-26T14:48:39.267Z</time></trkpt><trkpt lat="42.1099475" lon="13.7941866"><ele>493.0</ele><time>2026-04-26T14:48:40.266Z</time></trkpt><trkpt lat="42.109824" lon="13.7942941"><ele>493.0</ele><time>2026-04-26T14:48:41.266Z</time></trkpt><trkpt lat="42.1096698" lon="13.7944087"><ele>494.33333333333337</ele><time>2026-04-26T14:48:42.266Z</time></trkpt><trkpt lat="42.1094865" lon="13.7945327"><ele>495.66666666666663</ele><time>2026-04-26T14:48:43.266Z</time></trkpt><trkpt lat="42.1092798" lon="13.79466"><ele>497.0</ele><time>2026-04-26T14:48:44.266Z</time></trkpt><trkpt lat="42.1090587" lon="13.7947822"><ele>499.66666666666663</ele><time>2026-04-26T14:48:45.267Z</time></trkpt><trkpt lat="42.108854" lon="13.7948729"><ele>502.33333333333337</ele><time>2026-04-26T14:48:46.266Z</time></trkpt><trkpt lat="42.1086756" lon="13.7949628"><ele>505.0</ele><time>2026-04-26T14:48:47.266Z</time></trkpt><trkpt lat="42.1085298" lon="13.7950175"><ele>505.0</ele><time>2026-04-26T14:48:48.267Z</time></trkpt><trkpt lat="42.1083813" lon="13.7950249"><ele>505.0</ele><time>2026-04-26T14:48:49.267Z</time></trkpt><trkpt lat="42.1082051" lon="13.7949676"><ele>505.0</ele><time>2026-04-26T14:48:50.266Z</time></trkpt><trkpt lat="42.1080192" lon="13.7948699"><ele>503.33333333333337</ele><time>2026-04-26T14:48:51.266Z</time></trkpt><trkpt lat="42.1078552" lon="13.7947708"><ele>501.66666666666663</ele><time>2026-04-26T14:48:52.266Z</time></trkpt><trkpt lat="42.1077223" lon="13.7946865"><ele>500.0</ele><time>2026-04-26T14:48:53.266Z</time></trkpt><trkpt lat="42.107599" lon="13.7946199"><ele>500.0</ele><time>2026-04-26T14:48:54.266Z</time></trkpt><trkpt lat="42.1074795" lon="13.7946102"><ele>500.0</ele><time>2026-04-26T14:48:55.266Z</time></trkpt><trkpt lat="42.1073648" lon="13.7946477"><ele>500.0</ele><time>2026-04-26T14:48:56.266Z</time></trkpt><trkpt lat="42.1072745" lon="13.7947511"><ele>500.0</ele><time>2026-04-26T14:48:57.266Z</time></trkpt><trkpt lat="42.1072128" lon="13.7948894"><ele>506.66666666666663</ele><time>2026-04-26T14:48:58.266Z</time></trkpt><trkpt lat="42.1071999" lon="13.7950902"><ele>513.3333333333334</ele><time>2026-04-26T14:48:59.266Z</time></trkpt><trkpt lat="42.1071991" lon="13.7953218"><ele>520.0</ele><time>2026-04-26T14:49:00.266Z</time></trkpt><trkpt lat="42.1072049" lon="13.7955628"><ele>520.0</ele><time>2026-04-26T14:49:01.267Z</time></trkpt><trkpt lat="42.1072085" lon="13.7957806"><ele>520.0</ele><time>2026-04-26T14:49:02.266Z</time></trkpt><trkpt lat="42.1071944" lon="13.7959641"><ele>520.0</ele><time>2026-04-26T14:49:03.266Z</time></trkpt><trkpt lat="42.1071371" lon="13.7961723"><ele>515.0</ele><time>2026-04-26T14:49:04.267Z</time></trkpt><trkpt lat="42.1070282" lon="13.7963962"><ele>510.0</ele><time>2026-04-26T14:49:05.266Z</time></trkpt><trkpt lat="42.1069004" lon="13.7966164"><ele>505.0</ele><time>2026-04-26T14:49:06.266Z</time></trkpt><trkpt lat="42.1067848" lon="13.7968703"><ele>495.5</ele><time>2026-04-26T14:49:07.266Z</time></trkpt><trkpt lat="42.1066862" lon="13.7972058"><ele>486.0</ele><time>2026-04-26T14:49:08.266Z</time></trkpt><trkpt lat="42.1065872" lon="13.7975835"><ele>500.5</ele><time>2026-04-26T14:49:09.266Z</time></trkpt><trkpt lat="42.1064883" lon="13.7979945"><ele>515.0</ele><time>2026-04-26T14:49:10.266Z</time></trkpt><trkpt lat="42.1063949" lon="13.7983886"><ele>508.0</ele><time>2026-04-26T14:49:11.266Z</time></trkpt><trkpt lat="42.1063094" lon="13.7987579"><ele>501.0</ele><time>2026-04-26T14:49:12.266Z</time></trkpt><trkpt lat="42.1062343" lon="13.7991005"><ele>495.5</ele><time>2026-04-26T14:49:13.266Z</time></trkpt><trkpt lat="42.1061795" lon="13.7994321"><ele>490.0</ele><time>2026-04-26T14:49:14.266Z</time></trkpt><trkpt lat="42.1061287" lon="13.7997449"><ele>490.0</ele><time>2026-04-26T14:49:15.266Z</time></trkpt><trkpt lat="42.1060864" lon="13.800046"><ele>490.0</ele><time>2026-04-26T14:49:16.266Z</time></trkpt><trkpt lat="42.1060655" lon="13.8003616"><ele>486.5</ele><time>2026-04-26T14:49:17.267Z</time></trkpt><trkpt lat="42.106064" lon="13.8006881"><ele>483.0</ele><time>2026-04-26T14:49:18.266Z</time></trkpt><trkpt lat="42.1060667" lon="13.8009991"><ele>482.0</ele><time>2026-04-26T14:49:19.266Z</time></trkpt><trkpt lat="42.1060652" lon="13.8012678"><ele>481.0</ele><time>2026-04-26T14:49:20.266Z</time></trkpt><trkpt lat="42.1060747" lon="13.8015263"><ele>480.0</ele><time>2026-04-26T14:49:21.267Z</time></trkpt><trkpt lat="42.1061185" lon="13.8017851"><ele>478.33333333333337</ele><time>2026-04-26T14:49:22.267Z</time></trkpt><trkpt lat="42.1061996" lon="13.8020365"><ele>476.6666666666667</ele><time>2026-04-26T14:49:23.267Z</time></trkpt><trkpt lat="42.1063082" lon="13.8022959"><ele>475.0</ele><time>2026-04-26T14:49:24.266Z</time></trkpt><trkpt lat="42.1064071" lon="13.8025385"><ele>474.0</ele><time>2026-04-26T14:49:25.266Z</time></trkpt><trkpt lat="42.1064811" lon="13.8027473"><ele>473.0</ele><time>2026-04-26T14:49:26.266Z</time></trkpt><trkpt lat="42.1065153" lon="13.8029676"><ele>472.0</ele><time>2026-04-26T14:49:27.266Z</time></trkpt><trkpt lat="42.1065038" lon="13.8031775"><ele>472.0</ele><time>2026-04-26T14:49:28.266Z</time></trkpt><trkpt lat="42.1064577" lon="13.803405"><ele>472.0</ele><time>2026-04-26T14:49:29.266Z</time></trkpt><trkpt lat="42.1063739" lon="13.803607"><ele>472.0</ele><time>2026-04-26T14:49:30.267Z</time></trkpt><trkpt lat="42.1062673" lon="13.8037689"><ele>466.6666666666667</ele><time>2026-04-26T14:49:31.266Z</time></trkpt><trkpt lat="42.1061341" lon="13.8038997"><ele>461.33333333333337</ele><time>2026-04-26T14:49:32.266Z</time></trkpt><trkpt lat="42.105975" lon="13.8039777"><ele>456.0</ele><time>2026-04-26T14:49:33.266Z</time></trkpt><trkpt lat="42.1058067" lon="13.8040164"><ele>452.66666666666663</ele><time>2026-04-26T14:49:34.266Z</time></trkpt><trkpt lat="42.1056322" lon="13.8040026"><ele>449.3333333333333</ele><time>2026-04-26T14:49:35.267Z</time></trkpt><trkpt lat="42.1054631" lon="13.8039355"><ele>446.0</ele><time>2026-04-26T14:49:36.266Z</time></trkpt><trkpt lat="42.1052872" lon="13.8038237"><ele>446.0</ele><time>2026-04-26T14:49:37.266Z</time></trkpt><trkpt lat="42.1050965" lon="13.8036651"><ele>446.0</ele><time>2026-04-26T14:49:38.266Z</time></trkpt><trkpt lat="42.1048865" lon="13.8034793"><ele>444.5</ele><time>2026-04-26T14:49:39.266Z</time></trkpt><trkpt lat="42.104658" lon="13.8032866"><ele>443.0</ele><time>2026-04-26T14:49:40.267Z</time></trkpt><trkpt lat="42.1044161" lon="13.803092"><ele>443.0</ele><time>2026-04-26T14:49:41.266Z</time></trkpt><trkpt lat="42.1041692" lon="13.8028852"><ele>443.0</ele><time>2026-04-26T14:49:42.267Z</time></trkpt><trkpt lat="42.1039235" lon="13.8026689"><ele>441.5</ele><time>2026-04-26T14:49:43.266Z</time></trkpt><trkpt lat="42.1036916" lon="13.8024395"><ele>440.0</ele><time>2026-04-26T14:49:44.266Z</time></trkpt><trkpt lat="42.1034738" lon="13.802221"><ele>440.0</ele><time>2026-04-26T14:49:45.266Z</time></trkpt><trkpt lat="42.1032697" lon="13.8020241"><ele>440.0</ele><time>2026-04-26T14:49:46.266Z</time></trkpt><trkpt lat="42.1030736" lon="13.8018506"><ele>438.0</ele><time>2026-04-26T14:49:47.266Z</time></trkpt><trkpt lat="42.1028733" lon="13.8016843"><ele>436.0</ele><time>2026-04-26T14:49:48.266Z</time></trkpt><trkpt lat="42.1026658" lon="13.8015428"><ele>436.0</ele><time>2026-04-26T14:49:49.267Z</time></trkpt><trkpt lat="42.1024371" lon="13.8014077"><ele>436.0</ele><time>2026-04-26T14:49:50.266Z</time></trkpt><trkpt lat="42.1021928" lon="13.8013058"><ele>430.5</ele><time>2026-04-26T14:49:51.267Z</time></trkpt><trkpt lat="42.1019564" lon="13.8012263"><ele>425.0</ele><time>2026-04-26T14:49:52.267Z</time></trkpt><trkpt lat="42.1017382" lon="13.8011502"><ele>424.66666666666663</ele><time>2026-04-26T14:49:53.266Z</time></trkpt><trkpt lat="42.1015271" lon="13.8010894"><ele>424.33333333333337</ele><time>2026-04-26T14:49:54.266Z</time></trkpt><trkpt lat="42.1013185" lon="13.8010352"><ele>424.0</ele><time>2026-04-26T14:49:55.267Z</time></trkpt><trkpt lat="42.1011102" lon="13.8010139"><ele>424.0</ele><time>2026-04-26T14:49:56.266Z</time></trkpt><trkpt lat="42.1008982" lon="13.8010242"><ele>424.0</ele><time>2026-04-26T14:49:57.266Z</time></trkpt><trkpt lat="42.1006958" lon="13.8010705"><ele>424.0</ele><time>2026-04-26T14:49:58.266Z</time></trkpt><trkpt lat="42.1004938" lon="13.8011442"><ele>425.0</ele><time>2026-04-26T14:49:59.266Z</time></trkpt><trkpt lat="42.1002961" lon="13.801259"><ele>426.0</ele><time>2026-04-26T14:50:00.266Z</time></trkpt><trkpt lat="42.1001123" lon="13.8013987"><ele>427.0</ele><time>2026-04-26T14:50:01.266Z</time></trkpt><trkpt lat="42.0999282" lon="13.8015962"><ele>427.0</ele><time>2026-04-26T14:50:02.267Z</time></trkpt><trkpt lat="42.0997428" lon="13.8018142"><ele>427.0</ele><time>2026-04-26T14:50:03.267Z</time></trkpt><trkpt lat="42.0995628" lon="13.8020231"><ele>424.0</ele><time>2026-04-26T14:50:04.266Z</time></trkpt><trkpt lat="42.0993821" lon="13.8022179"><ele>421.0</ele><time>2026-04-26T14:50:05.267Z</time></trkpt><trkpt lat="42.0992118" lon="13.8024205"><ele>420.5</ele><time>2026-04-26T14:50:06.267Z</time></trkpt><trkpt lat="42.0990445" lon="13.8026452"><ele>420.0</ele><time>2026-04-26T14:50:07.266Z</time></trkpt><trkpt lat="42.0989051" lon="13.8028992"><ele>418.0</ele><time>2026-04-26T14:50:08.266Z</time></trkpt><trkpt lat="42.098798" lon="13.8031627"><ele>416.0</ele><time>2026-04-26T14:50:09.266Z</time></trkpt><trkpt lat="42.0987105" lon="13.803451"><ele>413.5</ele><time>2026-04-26T14:50:10.267Z</time></trkpt><trkpt lat="42.0986466" lon="13.8037563"><ele>411.0</ele><time>2026-04-26T14:50:11.266Z</time></trkpt><trkpt lat="42.0986034" lon="13.8040717"><ele>409.66666666666663</ele><time>2026-04-26T14:50:12.267Z</time></trkpt><trkpt lat="42.098567" lon="13.8043661"><ele>408.3333333333333</ele><time>2026-04-26T14:50:13.267Z</time></trkpt><trkpt lat="42.0985395" lon="13.8046385"><ele>407.0</ele><time>2026-04-26T14:50:14.266Z</time></trkpt><trkpt lat="42.0985142" lon="13.8049001"><ele>407.0</ele><time>2026-04-26T14:50:15.266Z</time></trkpt><trkpt lat="42.0985134" lon="13.8051518"><ele>407.0</ele><time>2026-04-26T14:50:16.266Z</time></trkpt><trkpt lat="42.0985356" lon="13.8053961"><ele>407.0</ele><time>2026-04-26T14:50:17.266Z</time></trkpt><trkpt lat="42.0985886" lon="13.8056355"><ele>406.3333333333333</ele><time>2026-04-26T14:50:18.266Z</time></trkpt><trkpt lat="42.0986689" lon="13.8058578"><ele>405.66666666666663</ele><time>2026-04-26T14:50:19.266Z</time></trkpt><trkpt lat="42.0987644" lon="13.8060584"><ele>405.0</ele><time>2026-04-26T14:50:20.266Z</time></trkpt><trkpt lat="42.0989073" lon="13.8062295"><ele>403.66666666666663</ele><time>2026-04-26T14:50:21.266Z</time></trkpt><trkpt lat="42.0990596" lon="13.8063723"><ele>402.3333333333333</ele><time>2026-04-26T14:50:22.266Z</time></trkpt><trkpt lat="42.0992366" lon="13.8064904"><ele>401.0</ele><time>2026-04-26T14:50:23.266Z</time></trkpt><trkpt lat="42.0994165" lon="13.8065943"><ele>401.0</ele><time>2026-04-26T14:50:24.266Z</time></trkpt><trkpt lat="42.0995846" lon="13.8066969"><ele>401.0</ele><time>2026-04-26T14:50:25.266Z</time></trkpt><trkpt lat="42.0997424" lon="13.8067954"><ele>401.0</ele><time>2026-04-26T14:50:26.266Z</time></trkpt><trkpt lat="42.0998945" lon="13.8068788"><ele>400.0</ele><time>2026-04-26T14:50:27.266Z</time></trkpt><trkpt lat="42.1000348" lon="13.8069623"><ele>399.0</ele><time>2026-04-26T14:50:28.266Z</time></trkpt><trkpt lat="42.1001599" lon="13.8070425"><ele>398.0</ele><time>2026-04-26T14:50:29.266Z</time></trkpt><trkpt lat="42.1002795" lon="13.8071234"><ele>397.0</ele><time>2026-04-26T14:50:30.267Z</time></trkpt><trkpt lat="42.100403" lon="13.8071988"><ele>397.0</ele><time>2026-04-26T14:50:31.267Z</time></trkpt><trkpt lat="42.1005351" lon="13.807284"><ele>397.0</ele><time>2026-04-26T14:50:32.266Z</time></trkpt><trkpt lat="42.100678" lon="13.8073718"><ele>397.0</ele><time>2026-04-26T14:50:33.266Z</time></trkpt><trkpt lat="42.1008227" lon="13.80746"><ele>396.6666666666667</ele><time>2026-04-26T14:50:34.266Z</time></trkpt><trkpt lat="42.1009652" lon="13.8075454"><ele>396.33333333333337</ele><time>2026-04-26T14:50:35.266Z</time></trkpt><trkpt lat="42.1011149" lon="13.8076331"><ele>396.0</ele><time>2026-04-26T14:50:36.266Z</time></trkpt><trkpt lat="42.1012633" lon="13.807725"><ele>395.5</ele><time>2026-04-26T14:50:37.267Z</time></trkpt><trkpt lat="42.1013995" lon="13.8078112"><ele>395.0</ele><time>2026-04-26T14:50:38.266Z</time></trkpt><trkpt lat="42.1015328" lon="13.8078833"><ele>394.5</ele><time>2026-04-26T14:50:39.266Z</time></trkpt><trkpt lat="42.1016555" lon="13.8079516"><ele>394.0</ele><time>2026-04-26T14:50:40.266Z</time></trkpt><trkpt lat="42.1017683" lon="13.808041"><ele>394.0</ele><time>2026-04-26T14:50:41.266Z</time></trkpt><trkpt lat="42.1018726" lon="13.8081406"><ele>394.0</ele><time>2026-04-26T14:50:42.267Z</time></trkpt><trkpt lat="42.1019677" lon="13.8082537"><ele>394.0</ele><time>2026-04-26T14:50:43.266Z</time></trkpt><trkpt lat="42.1020444" lon="13.8083997"><ele>394.0</ele><time>2026-04-26T14:50:44.267Z</time></trkpt><trkpt lat="42.1021172" lon="13.8085621"><ele>393.33333333333337</ele><time>2026-04-26T14:50:45.267Z</time></trkpt><trkpt lat="42.1021779" lon="13.8087506"><ele>392.66666666666663</ele><time>2026-04-26T14:50:46.267Z</time></trkpt><trkpt lat="42.1022265" lon="13.8089582"><ele>392.0</ele><time>2026-04-26T14:50:47.266Z</time></trkpt><trkpt lat="42.1022796" lon="13.8091622"><ele>392.25</ele><time>2026-04-26T14:50:48.266Z</time></trkpt><trkpt lat="42.1023275" lon="13.8093528"><ele>392.5</ele><time>2026-04-26T14:50:49.267Z</time></trkpt><trkpt lat="42.1023773" lon="13.8095324"><ele>392.75</ele><time>2026-04-26T14:50:50.266Z</time></trkpt><trkpt lat="42.1024255" lon="13.8097058"><ele>393.0</ele><time>2026-04-26T14:50:51.267Z</time></trkpt><trkpt lat="42.1024705" lon="13.8098722"><ele>394.0</ele><time>2026-04-26T14:50:52.266Z</time></trkpt><trkpt lat="42.1025087" lon="13.8100254"><ele>395.0</ele><time>2026-04-26T14:50:53.266Z</time></trkpt><trkpt lat="42.1025445" lon="13.810165"><ele>396.0</ele><time>2026-04-26T14:50:54.266Z</time></trkpt><trkpt lat="42.1025756" lon="13.8103154"><ele>397.0</ele><time>2026-04-26T14:50:55.266Z</time></trkpt><trkpt lat="42.1025985" lon="13.8104599"><ele>397.0</ele><time>2026-04-26T14:50:56.266Z</time></trkpt><trkpt lat="42.102617" lon="13.8106034"><ele>397.0</ele><time>2026-04-26T14:50:57.267Z</time></trkpt><trkpt lat="42.1026199" lon="13.810747"><ele>397.0</ele><time>2026-04-26T14:50:58.266Z</time></trkpt><trkpt lat="42.1026117" lon="13.8108781"><ele>397.0</ele><time>2026-04-26T14:50:59.266Z</time></trkpt><trkpt lat="42.1025944" lon="13.8110055"><ele>397.0</ele><time>2026-04-26T14:51:00.266Z</time></trkpt><trkpt lat="42.1025652" lon="13.81113"><ele>396.25</ele><time>2026-04-26T14:51:01.266Z</time></trkpt><trkpt lat="42.1025212" lon="13.8112553"><ele>395.5</ele><time>2026-04-26T14:51:02.266Z</time></trkpt><trkpt lat="42.1024725" lon="13.8113839"><ele>394.75</ele><time>2026-04-26T14:51:03.266Z</time></trkpt><trkpt lat="42.1024292" lon="13.8115388"><ele>394.0</ele><time>2026-04-26T14:51:04.266Z</time></trkpt><trkpt lat="42.1024134" lon="13.8117298"><ele>394.0</ele><time>2026-04-26T14:51:05.266Z</time></trkpt><trkpt lat="42.1024093" lon="13.8119463"><ele>394.0</ele><time>2026-04-26T14:51:06.267Z</time></trkpt><trkpt lat="42.1024039" lon="13.8121777"><ele>394.0</ele><time>2026-04-26T14:51:07.266Z</time></trkpt><trkpt lat="42.102401" lon="13.8124041"><ele>394.0</ele><time>2026-04-26T14:51:08.273Z</time></trkpt><trkpt lat="42.1024032" lon="13.8126087"><ele>394.0</ele><time>2026-04-26T14:51:09.273Z</time></trkpt><trkpt lat="42.1023992" lon="13.8127947"><ele>394.0</ele><time>2026-04-26T14:51:10.273Z</time></trkpt><trkpt lat="42.1024018" lon="13.812957"><ele>394.0</ele><time>2026-04-26T14:51:11.273Z</time></trkpt><trkpt lat="42.102401" lon="13.8131076"><ele>393.6</ele><time>2026-04-26T14:51:12.274Z</time></trkpt><trkpt lat="42.1023994" lon="13.8132339"><ele>393.2</ele><time>2026-04-26T14:51:13.273Z</time></trkpt><trkpt lat="42.102399" lon="13.8133499"><ele>392.8</ele><time>2026-04-26T14:51:14.273Z</time></trkpt><trkpt lat="42.1023981" lon="13.8134659"><ele>392.40000000000003</ele><time>2026-04-26T14:51:15.273Z</time></trkpt><trkpt lat="42.1023928" lon="13.8135908"><ele>392.0</ele><time>2026-04-26T14:51:16.273Z</time></trkpt><trkpt lat="42.1023907" lon="13.8137275"><ele>391.6</ele><time>2026-04-26T14:51:17.273Z</time></trkpt><trkpt lat="42.1023856" lon="13.8138691"><ele>391.20000000000005</ele><time>2026-04-26T14:51:18.273Z</time></trkpt><trkpt lat="42.1023816" lon="13.8140083"><ele>390.8</ele><time>2026-04-26T14:51:19.273Z</time></trkpt><trkpt lat="42.1023833" lon="13.8141484"><ele>390.4</ele><time>2026-04-26T14:51:20.273Z</time></trkpt><trkpt lat="42.1023791" lon="13.8142714"><ele>390.0</ele><time>2026-04-26T14:51:21.273Z</time></trkpt><trkpt lat="42.1023739" lon="13.8143938"><ele>389.5</ele><time>2026-04-26T14:51:22.274Z</time></trkpt><trkpt lat="42.1023779" lon="13.814512"><ele>389.0</ele><time>2026-04-26T14:51:23.274Z</time></trkpt><trkpt lat="42.1023946" lon="13.8146248"><ele>388.5</ele><time>2026-04-26T14:51:24.273Z</time></trkpt><trkpt lat="42.1024301" lon="13.8147154"><ele>388.0</ele><time>2026-04-26T14:51:25.273Z</time></trkpt><trkpt lat="42.1024733" lon="13.8147909"><ele>387.5</ele><time>2026-04-26T14:51:26.273Z</time></trkpt><trkpt lat="42.102522" lon="13.8148602"><ele>387.0</ele><time>2026-04-26T14:51:27.273Z</time></trkpt><trkpt lat="42.102561" lon="13.8149316"><ele>386.8</ele><time>2026-04-26T14:51:28.273Z</time></trkpt><trkpt lat="42.1025878" lon="13.8150225"><ele>386.6</ele><time>2026-04-26T14:51:29.273Z</time></trkpt><trkpt lat="42.1025851" lon="13.8151293"><ele>386.40000000000003</ele><time>2026-04-26T14:51:30.273Z</time></trkpt><trkpt lat="42.1025775" lon="13.8152521"><ele>386.20000000000005</ele><time>2026-04-26T14:51:31.273Z</time></trkpt><trkpt lat="42.1025619" lon="13.8153905"><ele>386.0</ele><time>2026-04-26T14:51:32.274Z</time></trkpt><trkpt lat="42.1025556" lon="13.8155338"><ele>386.0</ele><time>2026-04-26T14:51:33.273Z</time></trkpt><trkpt lat="42.102539" lon="13.8156873"><ele>386.0</ele><time>2026-04-26T14:51:34.273Z</time></trkpt><trkpt lat="42.1025285" lon="13.8158462"><ele>386.0</ele><time>2026-04-26T14:51:35.273Z</time></trkpt><trkpt lat="42.102509" lon="13.8160299"><ele>386.0</ele><time>2026-04-26T14:51:36.273Z</time></trkpt><trkpt lat="42.1024927" lon="13.8162414"><ele>385.66666666666663</ele><time>2026-04-26T14:51:37.273Z</time></trkpt><trkpt lat="42.1024833" lon="13.8164729"><ele>385.33333333333337</ele><time>2026-04-26T14:51:38.273Z</time></trkpt><trkpt lat="42.1024643" lon="13.816712"><ele>385.0</ele><time>2026-04-26T14:51:39.274Z</time></trkpt><trkpt lat="42.1024485" lon="13.8169684"><ele>384.33333333333337</ele><time>2026-04-26T14:51:40.273Z</time></trkpt><trkpt lat="42.1024322" lon="13.8172376"><ele>383.6666666666667</ele><time>2026-04-26T14:51:41.273Z</time></trkpt><trkpt lat="42.1024126" lon="13.8175077"><ele>383.0</ele><time>2026-04-26T14:51:42.274Z</time></trkpt><trkpt lat="42.1023958" lon="13.8177738"><ele>382.6666666666667</ele><time>2026-04-26T14:51:43.274Z</time></trkpt><trkpt lat="42.1023783" lon="13.818041"><ele>382.3333333333333</ele><time>2026-04-26T14:51:44.274Z</time></trkpt><trkpt lat="42.102362" lon="13.8183127"><ele>382.0</ele><time>2026-04-26T14:51:45.273Z</time></trkpt><trkpt lat="42.1023501" lon="13.818584"><ele>382.0</ele><time>2026-04-26T14:51:46.273Z</time></trkpt><trkpt lat="42.10233" lon="13.8188398"><ele>382.0</ele><time>2026-04-26T14:51:47.274Z</time></trkpt><trkpt lat="42.1023065" lon="13.8190848"><ele>382.0</ele><time>2026-04-26T14:51:48.273Z</time></trkpt><trkpt lat="42.1022887" lon="13.8193276"><ele>381.3333333333333</ele><time>2026-04-26T14:51:49.274Z</time></trkpt><trkpt lat="42.1022769" lon="13.8195577"><ele>380.6666666666667</ele><time>2026-04-26T14:51:50.273Z</time></trkpt><trkpt lat="42.1022624" lon="13.8197965"><ele>380.0</ele><time>2026-04-26T14:51:51.273Z</time></trkpt><trkpt lat="42.1022491" lon="13.8200325"><ele>379.33333333333337</ele><time>2026-04-26T14:51:52.273Z</time></trkpt><trkpt lat="42.1022299" lon="13.8202575"><ele>378.6666666666667</ele><time>2026-04-26T14:51:53.274Z</time></trkpt><trkpt lat="42.1022116" lon="13.8204758"><ele>378.0</ele><time>2026-04-26T14:51:54.274Z</time></trkpt><trkpt lat="42.1021934" lon="13.8206896"><ele>378.0</ele><time>2026-04-26T14:51:55.274Z</time></trkpt><trkpt lat="42.1021744" lon="13.8209139"><ele>378.0</ele><time>2026-04-26T14:51:56.274Z</time></trkpt><trkpt lat="42.1021562" lon="13.8211419"><ele>378.0</ele><time>2026-04-26T14:51:57.274Z</time></trkpt><trkpt lat="42.10214" lon="13.8213693"><ele>378.0</ele><time>2026-04-26T14:51:58.274Z</time></trkpt><trkpt lat="42.1021259" lon="13.8215834"><ele>378.0</ele><time>2026-04-26T14:51:59.274Z</time></trkpt><trkpt lat="42.1021167" lon="13.8217801"><ele>378.0</ele><time>2026-04-26T14:52:00.273Z</time></trkpt><trkpt lat="42.1021093" lon="13.8219784"><ele>377.75</ele><time>2026-04-26T14:52:01.273Z</time></trkpt><trkpt lat="42.1020953" lon="13.8221716"><ele>377.5</ele><time>2026-04-26T14:52:02.273Z</time></trkpt><trkpt lat="42.1020815" lon="13.822366"><ele>377.25</ele><time>2026-04-26T14:52:03.273Z</time></trkpt><trkpt lat="42.1020649" lon="13.8225532"><ele>377.0</ele><time>2026-04-26T14:52:04.274Z</time></trkpt><trkpt lat="42.1020491" lon="13.8227508"><ele>376.5</ele><time>2026-04-26T14:52:05.273Z</time></trkpt><trkpt lat="42.1020405" lon="13.82296"><ele>376.0</ele><time>2026-04-26T14:52:06.273Z</time></trkpt><trkpt lat="42.1020261" lon="13.8231628"><ele>375.5</ele><time>2026-04-26T14:52:07.273Z</time></trkpt><trkpt lat="42.1020123" lon="13.8233545"><ele>375.0</ele><time>2026-04-26T14:52:08.274Z</time></trkpt><trkpt lat="42.1020002" lon="13.8235452"><ele>374.5</ele><time>2026-04-26T14:52:09.273Z</time></trkpt><trkpt lat="42.1019863" lon="13.8237273"><ele>374.0</ele><time>2026-04-26T14:52:10.274Z</time></trkpt><trkpt lat="42.1019696" lon="13.8239053"><ele>373.5</ele><time>2026-04-26T14:52:11.273Z</time></trkpt><trkpt lat="42.101956" lon="13.8240821"><ele>373.0</ele><time>2026-04-26T14:52:12.273Z</time></trkpt><trkpt lat="42.1019388" lon="13.8242608"><ele>372.5</ele><time>2026-04-26T14:52:13.273Z</time></trkpt><trkpt lat="42.101928" lon="13.8244414"><ele>372.0</ele><time>2026-04-26T14:52:14.273Z</time></trkpt><trkpt lat="42.101914" lon="13.8246146"><ele>371.5</ele><time>2026-04-26T14:52:15.273Z</time></trkpt><trkpt lat="42.1019018" lon="13.8247958"><ele>371.0</ele><time>2026-04-26T14:52:16.274Z</time></trkpt><trkpt lat="42.101894" lon="13.8249763"><ele>370.33333333333337</ele><time>2026-04-26T14:52:17.273Z</time></trkpt><trkpt lat="42.1018861" lon="13.8251699"><ele>369.6666666666667</ele><time>2026-04-26T14:52:18.273Z</time></trkpt><trkpt lat="42.1018838" lon="13.8254005"><ele>369.0</ele><time>2026-04-26T14:52:19.273Z</time></trkpt><trkpt lat="42.1018696" lon="13.8256615"><ele>369.0</ele><time>2026-04-26T14:52:20.273Z</time></trkpt><trkpt lat="42.101831" lon="13.8259565"><ele>369.0</ele><time>2026-04-26T14:52:21.273Z</time></trkpt><trkpt lat="42.101801" lon="13.826283"><ele>368.5</ele><time>2026-04-26T14:52:22.273Z</time></trkpt><trkpt lat="42.101781" lon="13.8266152"><ele>368.0</ele><time>2026-04-26T14:52:23.273Z</time></trkpt><trkpt lat="42.101763" lon="13.8269607"><ele>366.5</ele><time>2026-04-26T14:52:24.273Z</time></trkpt><trkpt lat="42.1017373" lon="13.8273015"><ele>365.0</ele><time>2026-04-26T14:52:25.274Z</time></trkpt><trkpt lat="42.1017126" lon="13.8276244"><ele>364.6666666666667</ele><time>2026-04-26T14:52:26.274Z</time></trkpt><trkpt lat="42.1016969" lon="13.8279231"><ele>364.3333333333333</ele><time>2026-04-26T14:52:27.274Z</time></trkpt><trkpt lat="42.1016797" lon="13.8281984"><ele>364.0</ele><time>2026-04-26T14:52:28.273Z</time></trkpt><trkpt lat="42.1016642" lon="13.8284396"><ele>363.66666666666663</ele><time>2026-04-26T14:52:29.273Z</time></trkpt><trkpt lat="42.1016504" lon="13.8286684"><ele>363.3333333333333</ele><time>2026-04-26T14:52:30.274Z</time></trkpt><trkpt lat="42.1016362" lon="13.8288823"><ele>363.0</ele><time>2026-04-26T14:52:31.274Z</time></trkpt><trkpt lat="42.1016286" lon="13.829087"><ele>363.0</ele><time>2026-04-26T14:52:32.273Z</time></trkpt><trkpt lat="42.1016102" lon="13.8292768"><ele>363.0</ele><time>2026-04-26T14:52:33.273Z</time></trkpt><trkpt lat="42.101587" lon="13.829473"><ele>363.0</ele><time>2026-04-26T14:52:34.273Z</time></trkpt><trkpt lat="42.1015738" lon="13.8296449"><ele>363.0</ele><time>2026-04-26T14:52:35.273Z</time></trkpt><trkpt lat="42.1015586" lon="13.8298163"><ele>362.79999999999995</ele><time>2026-04-26T14:52:36.273Z</time></trkpt><trkpt lat="42.101543" lon="13.8299765"><ele>362.6</ele><time>2026-04-26T14:52:37.273Z</time></trkpt><trkpt lat="42.1015247" lon="13.83013"><ele>362.4</ele><time>2026-04-26T14:52:38.273Z</time></trkpt><trkpt lat="42.1014976" lon="13.830276"><ele>362.20000000000005</ele><time>2026-04-26T14:52:39.273Z</time></trkpt><trkpt lat="42.1014754" lon="13.8304003"><ele>362.0</ele><time>2026-04-26T14:52:40.273Z</time></trkpt><trkpt lat="42.1014658" lon="13.8305196"><ele>362.0</ele><time>2026-04-26T14:52:41.273Z</time></trkpt><trkpt lat="42.1014951" lon="13.8306192"><ele>362.0</ele><time>2026-04-26T14:52:42.273Z</time></trkpt><trkpt lat="42.1015409" lon="13.8306959"><ele>362.0</ele><time>2026-04-26T14:52:43.273Z</time></trkpt><trkpt lat="42.101604" lon="13.8307443"><ele>362.0</ele><time>2026-04-26T14:52:44.273Z</time></trkpt><trkpt lat="42.1016724" lon="13.8307814"><ele>362.0</ele><time>2026-04-26T14:52:45.273Z</time></trkpt><trkpt lat="42.1017276" lon="13.8308427"><ele>362.0</ele><time>2026-04-26T14:52:46.273Z</time></trkpt><trkpt lat="42.1017833" lon="13.8309203"><ele>362.25</ele><time>2026-04-26T14:52:47.274Z</time></trkpt><trkpt lat="42.1018216" lon="13.8310273"><ele>362.5</ele><time>2026-04-26T14:52:48.273Z</time></trkpt><trkpt lat="42.1018529" lon="13.8311668"><ele>362.75</ele><time>2026-04-26T14:52:49.273Z</time></trkpt><trkpt lat="42.1018644" lon="13.8313524"><ele>363.0</ele><time>2026-04-26T14:52:50.274Z</time></trkpt><trkpt lat="42.101875" lon="13.8315738"><ele>362.3333333333333</ele><time>2026-04-26T14:52:51.27Z</time></trkpt><trkpt lat="42.1018844" lon="13.8318334"><ele>361.66666666666663</ele><time>2026-04-26T14:52:52.273Z</time></trkpt><trkpt lat="42.1018768" lon="13.832135"><ele>361.0</ele><time>2026-04-26T14:52:53.273Z</time></trkpt><trkpt lat="42.1018691" lon="13.8324763"><ele>362.0</ele><time>2026-04-26T14:52:54.274Z</time></trkpt><trkpt lat="42.1018651" lon="13.83284"><ele>363.0</ele><time>2026-04-26T14:52:55.274Z</time></trkpt><trkpt lat="42.1018675" lon="13.8332105"><ele>362.5</ele><time>2026-04-26T14:52:56.273Z</time></trkpt><trkpt lat="42.1018683" lon="13.8335742"><ele>362.0</ele><time>2026-04-26T14:52:57.273Z</time></trkpt><trkpt lat="42.1018747" lon="13.8339347"><ele>362.0</ele><time>2026-04-26T14:52:58.273Z</time></trkpt><trkpt lat="42.1018887" lon="13.8343059"><ele>362.0</ele><time>2026-04-26T14:52:59.273Z</time></trkpt><trkpt lat="42.1019148" lon="13.8346746"><ele>362.0</ele><time>2026-04-26T14:53:00.274Z</time></trkpt><trkpt lat="42.1019339" lon="13.8350259"><ele>362.0</ele><time>2026-04-26T14:53:01.274Z</time></trkpt><trkpt lat="42.1019504" lon="13.8353722"><ele>362.0</ele><time>2026-04-26T14:53:02.273Z</time></trkpt><trkpt lat="42.1019673" lon="13.8356953"><ele>362.0</ele><time>2026-04-26T14:53:03.273Z</time></trkpt><trkpt lat="42.1019907" lon="13.8360159"><ele>362.5</ele><time>2026-04-26T14:53:04.273Z</time></trkpt><trkpt lat="42.1020162" lon="13.8363406"><ele>363.0</ele><time>2026-04-26T14:53:05.273Z</time></trkpt><trkpt lat="42.1020536" lon="13.8366717"><ele>362.0</ele><time>2026-04-26T14:53:06.274Z</time></trkpt><trkpt lat="42.1021011" lon="13.8370074"><ele>361.0</ele><time>2026-04-26T14:53:07.273Z</time></trkpt><trkpt lat="42.1021501" lon="13.8373459"><ele>361.5</ele><time>2026-04-26T14:53:08.274Z</time></trkpt><trkpt lat="42.1022021" lon="13.8376845"><ele>362.0</ele><time>2026-04-26T14:53:09.274Z</time></trkpt><trkpt lat="42.1022517" lon="13.8380169"><ele>362.0</ele><time>2026-04-26T14:53:10.274Z</time></trkpt><trkpt lat="42.1022956" lon="13.838347"><ele>362.0</ele><time>2026-04-26T14:53:11.274Z</time></trkpt><trkpt lat="42.1023448" lon="13.8386723"><ele>362.0</ele><time>2026-04-26T14:53:12.273Z</time></trkpt><trkpt lat="42.1023868" lon="13.8389684"><ele>362.0</ele><time>2026-04-26T14:53:13.273Z</time></trkpt><trkpt lat="42.1024246" lon="13.8392257"><ele>362.0</ele><time>2026-04-26T14:53:14.273Z</time></trkpt><trkpt lat="42.1024581" lon="13.8394528"><ele>362.0</ele><time>2026-04-26T14:53:15.273Z</time></trkpt><trkpt lat="42.1024856" lon="13.8396669"><ele>362.0</ele><time>2026-04-26T14:53:16.274Z</time></trkpt><trkpt lat="42.1024975" lon="13.8398568"><ele>362.0</ele><time>2026-04-26T14:53:17.274Z</time></trkpt><trkpt lat="42.1025027" lon="13.8400242"><ele>362.0</ele><time>2026-04-26T14:53:18.273Z</time></trkpt><trkpt lat="42.102483" lon="13.8401846"><ele>362.0</ele><time>2026-04-26T14:53:19.273Z</time></trkpt><trkpt lat="42.1024394" lon="13.8403225"><ele>362.0</ele><time>2026-04-26T14:53:20.273Z</time></trkpt><trkpt lat="42.1023667" lon="13.8404371"><ele>362.0</ele><time>2026-04-26T14:53:21.273Z</time></trkpt><trkpt lat="42.1022745" lon="13.8405602"><ele>362.0</ele><time>2026-04-26T14:53:22.274Z</time></trkpt><trkpt lat="42.102197" lon="13.840704"><ele>361.8</ele><time>2026-04-26T14:53:23.273Z</time></trkpt><trkpt lat="42.1021568" lon="13.8408427"><ele>361.6</ele><time>2026-04-26T14:53:24.273Z</time></trkpt><trkpt lat="42.1021492" lon="13.8409567"><ele>361.40000000000003</ele><time>2026-04-26T14:53:25.273Z</time></trkpt><trkpt lat="42.102195" lon="13.8410942"><ele>361.20000000000005</ele><time>2026-04-26T14:53:26.274Z</time></trkpt><trkpt lat="42.1022559" lon="13.8412204"><ele>361.0</ele><time>2026-04-26T14:53:27.273Z</time></trkpt><trkpt lat="42.1023021" lon="13.841355"><ele>360.5</ele><time>2026-04-26T14:53:28.273Z</time></trkpt><trkpt lat="42.1022918" lon="13.8415166"><ele>360.0</ele><time>2026-04-26T14:53:29.273Z</time></trkpt><trkpt lat="42.1022645" lon="13.8416951"><ele>359.5</ele><time>2026-04-26T14:53:30.273Z</time></trkpt><trkpt lat="42.1022164" lon="13.8419052"><ele>359.0</ele><time>2026-04-26T14:53:31.273Z</time></trkpt><trkpt lat="42.1021817" lon="13.8421471"><ele>359.0</ele><time>2026-04-26T14:53:32.273Z</time></trkpt><trkpt lat="42.1021609" lon="13.8424501"><ele>359.0</ele><time>2026-04-26T14:53:33.273Z</time></trkpt><trkpt lat="42.1021471" lon="13.8427796"><ele>358.5</ele><time>2026-04-26T14:53:34.273Z</time></trkpt><trkpt lat="42.1021426" lon="13.8431287"><ele>358.0</ele><time>2026-04-26T14:53:35.274Z</time></trkpt><trkpt lat="42.1021356" lon="13.8434867"><ele>357.5</ele><time>2026-04-26T14:53:36.273Z</time></trkpt><trkpt lat="42.1021239" lon="13.8438469"><ele>357.0</ele><time>2026-04-26T14:53:37.273Z</time></trkpt><trkpt lat="42.1021154" lon="13.844188"><ele>357.5</ele><time>2026-04-26T14:53:38.273Z</time></trkpt><trkpt lat="42.1020991" lon="13.8445233"><ele>358.0</ele><time>2026-04-26T14:53:39.273Z</time></trkpt><trkpt lat="42.1020854" lon="13.8448568"><ele>357.0</ele><time>2026-04-26T14:53:40.273Z</time></trkpt><trkpt lat="42.1020571" lon="13.8452075"><ele>356.0</ele><time>2026-04-26T14:53:41.273Z</time></trkpt><trkpt lat="42.1020075" lon="13.8455659"><ele>356.0</ele><time>2026-04-26T14:53:42.274Z</time></trkpt><trkpt lat="42.1019381" lon="13.8459103"><ele>356.0</ele><time>2026-04-26T14:53:43.273Z</time></trkpt><trkpt lat="42.1018611" lon="13.8462363"><ele>356.0</ele><time>2026-04-26T14:53:44.274Z</time></trkpt><trkpt lat="42.1017578" lon="13.8465562"><ele>356.0</ele><time>2026-04-26T14:53:45.274Z</time></trkpt><trkpt lat="42.1016365" lon="13.8468598"><ele>356.5</ele><time>2026-04-26T14:53:46.273Z</time></trkpt><trkpt lat="42.1015092" lon="13.8471603"><ele>357.0</ele><time>2026-04-26T14:53:47.273Z</time></trkpt><trkpt lat="42.1013782" lon="13.8474567"><ele>357.5</ele><time>2026-04-26T14:53:48.273Z</time></trkpt><trkpt lat="42.1012482" lon="13.8477548"><ele>358.0</ele><time>2026-04-26T14:53:49.273Z</time></trkpt><trkpt lat="42.1011142" lon="13.8480552"><ele>358.0</ele><time>2026-04-26T14:53:50.273Z</time></trkpt><trkpt lat="42.1009873" lon="13.8483463"><ele>358.0</ele><time>2026-04-26T14:53:51.273Z</time></trkpt><trkpt lat="42.1008662" lon="13.8486305"><ele>357.5</ele><time>2026-04-26T14:53:52.273Z</time></trkpt><trkpt lat="42.1007517" lon="13.8489074"><ele>357.0</ele><time>2026-04-26T14:53:53.273Z</time></trkpt><trkpt lat="42.1006529" lon="13.849196"><ele>356.0</ele><time>2026-04-26T14:53:54.274Z</time></trkpt><trkpt lat="42.1005776" lon="13.8494805"><ele>355.0</ele><time>2026-04-26T14:53:55.273Z</time></trkpt><trkpt lat="42.1005068" lon="13.8497514"><ele>354.0</ele><time>2026-04-26T14:53:56.273Z</time></trkpt><trkpt lat="42.1004395" lon="13.850019"><ele>354.0</ele><time>2026-04-26T14:53:57.273Z</time></trkpt><trkpt lat="42.1003885" lon="13.850267"><ele>354.0</ele><time>2026-04-26T14:53:58.273Z</time></trkpt><trkpt lat="42.1003573" lon="13.8505106"><ele>354.0</ele><time>2026-04-26T14:53:59.273Z</time></trkpt><trkpt lat="42.1003403" lon="13.850758"><ele>353.3333333333333</ele><time>2026-04-26T14:54:00.273Z</time></trkpt><trkpt lat="42.100346" lon="13.8510273"><ele>352.66666666666663</ele><time>2026-04-26T14:54:01.273Z</time></trkpt><trkpt lat="42.1003635" lon="13.8513368"><ele>352.0</ele><time>2026-04-26T14:54:02.273Z</time></trkpt><trkpt lat="42.1003857" lon="13.8516681"><ele>351.0</ele><time>2026-04-26T14:54:03.274Z</time></trkpt><trkpt lat="42.1003945" lon="13.8520159"><ele>350.0</ele><time>2026-04-26T14:54:04.273Z</time></trkpt><trkpt lat="42.100387" lon="13.8523676"><ele>349.0</ele><time>2026-04-26T14:54:05.273Z</time></trkpt><trkpt lat="42.1003615" lon="13.8527278"><ele>348.0</ele><time>2026-04-26T14:54:06.273Z</time></trkpt><trkpt lat="42.1003171" lon="13.8530898"><ele>348.5</ele><time>2026-04-26T14:54:07.274Z</time></trkpt><trkpt lat="42.1002555" lon="13.8534701"><ele>349.0</ele><time>2026-04-26T14:54:08.274Z</time></trkpt><trkpt lat="42.1001803" lon="13.8538617"><ele>349.0</ele><time>2026-04-26T14:54:09.273Z</time></trkpt><trkpt lat="42.1001021" lon="13.8542719"><ele>349.0</ele><time>2026-04-26T14:54:10.273Z</time></trkpt><trkpt lat="42.1000242" lon="13.8546999"><ele>349.0</ele><time>2026-04-26T14:54:11.274Z</time></trkpt><trkpt lat="42.0999488" lon="13.8551176"><ele>349.0</ele><time>2026-04-26T14:54:12.273Z</time></trkpt><trkpt lat="42.0998814" lon="13.8555053"><ele>347.0</ele><time>2026-04-26T14:54:13.273Z</time></trkpt><trkpt lat="42.099818" lon="13.8558615"><ele>345.0</ele><time>2026-04-26T14:54:14.274Z</time></trkpt><trkpt lat="42.0997612" lon="13.8562037"><ele>344.5</ele><time>2026-04-26T14:54:15.273Z</time></trkpt><trkpt lat="42.0997203" lon="13.8565285"><ele>344.0</ele><time>2026-04-26T14:54:16.273Z</time></trkpt><trkpt lat="42.0997088" lon="13.8568555"><ele>344.0</ele><time>2026-04-26T14:54:17.273Z</time></trkpt><trkpt lat="42.0997208" lon="13.8572015"><ele>344.0</ele><time>2026-04-26T14:54:18.273Z</time></trkpt><trkpt lat="42.0997372" lon="13.8575467"><ele>343.0</ele><time>2026-04-26T14:54:19.273Z</time></trkpt><trkpt lat="42.0997666" lon="13.8578734"><ele>342.0</ele><time>2026-04-26T14:54:20.273Z</time></trkpt><trkpt lat="42.0998122" lon="13.8581633"><ele>342.0</ele><time>2026-04-26T14:54:21.274Z</time></trkpt><trkpt lat="42.0998809" lon="13.8584258"><ele>342.0</ele><time>2026-04-26T14:54:22.273Z</time></trkpt><trkpt lat="42.099966" lon="13.8586883"><ele>342.0</ele><time>2026-04-26T14:54:23.273Z</time></trkpt><trkpt lat="42.1000582" lon="13.85896"><ele>343.6666666666667</ele><time>2026-04-26T14:54:24.273Z</time></trkpt><trkpt lat="42.1001371" lon="13.8592222"><ele>345.33333333333337</ele><time>2026-04-26T14:54:25.273Z</time></trkpt><trkpt lat="42.1001974" lon="13.8594802"><ele>347.0</ele><time>2026-04-26T14:54:26.273Z</time></trkpt><trkpt lat="42.1002333" lon="13.8597224"><ele>347.0</ele><time>2026-04-26T14:54:27.274Z</time></trkpt><trkpt lat="42.1002378" lon="13.8599575"><ele>347.0</ele><time>2026-04-26T14:54:28.274Z</time></trkpt><trkpt lat="42.1002257" lon="13.8602"><ele>347.0</ele><time>2026-04-26T14:54:29.273Z</time></trkpt><trkpt lat="42.1002095" lon="13.86044"><ele>347.0</ele><time>2026-04-26T14:54:30.273Z</time></trkpt><trkpt lat="42.1001924" lon="13.8606637"><ele>347.0</ele><time>2026-04-26T14:54:31.273Z</time></trkpt><trkpt lat="42.1001829" lon="13.8608789"><ele>347.0</ele><time>2026-04-26T14:54:32.274Z</time></trkpt><trkpt lat="42.1001697" lon="13.8610724"><ele>346.33333333333337</ele><time>2026-04-26T14:54:33.274Z</time></trkpt><trkpt lat="42.1001661" lon="13.8612838"><ele>345.6666666666667</ele><time>2026-04-26T14:54:34.273Z</time></trkpt><trkpt lat="42.1001752" lon="13.861511"><ele>345.0</ele><time>2026-04-26T14:54:35.274Z</time></trkpt><trkpt lat="42.1001998" lon="13.8617621"><ele>345.0</ele><time>2026-04-26T14:54:36.273Z</time></trkpt><trkpt lat="42.1002313" lon="13.8620211"><ele>345.0</ele><time>2026-04-26T14:54:37.273Z</time></trkpt><trkpt lat="42.1002728" lon="13.8622998"><ele>345.0</ele><time>2026-04-26T14:54:38.273Z</time></trkpt><trkpt lat="42.1003199" lon="13.862593"><ele>345.3333333333333</ele><time>2026-04-26T14:54:39.273Z</time></trkpt><trkpt lat="42.100363" lon="13.8628736"><ele>345.66666666666663</ele><time>2026-04-26T14:54:40.274Z</time></trkpt><trkpt lat="42.1004033" lon="13.8631411"><ele>346.0</ele><time>2026-04-26T14:54:41.274Z</time></trkpt><trkpt lat="42.1004445" lon="13.8633987"><ele>346.0</ele><time>2026-04-26T14:54:42.274Z</time></trkpt><trkpt lat="42.1004893" lon="13.8636527"><ele>346.0</ele><time>2026-04-26T14:54:43.273Z</time></trkpt><trkpt lat="42.1005335" lon="13.8638956"><ele>346.0</ele><time>2026-04-26T14:54:44.273Z</time></trkpt><trkpt lat="42.1005725" lon="13.8641423"><ele>345.0</ele><time>2026-04-26T14:54:45.273Z</time></trkpt><trkpt lat="42.1006177" lon="13.8643829"><ele>344.0</ele><time>2026-04-26T14:54:46.274Z</time></trkpt><trkpt lat="42.1006661" lon="13.8646241"><ele>343.0</ele><time>2026-04-26T14:54:47.273Z</time></trkpt><trkpt lat="42.1007236" lon="13.8648562"><ele>339.66666666666663</ele><time>2026-04-26T14:54:48.273Z</time></trkpt><trkpt lat="42.1007861" lon="13.8650861"><ele>336.3333333333333</ele><time>2026-04-26T14:54:49.273Z</time></trkpt><trkpt lat="42.10084" lon="13.865305"><ele>333.0</ele><time>2026-04-26T14:54:50.273Z</time></trkpt><trkpt lat="42.1008962" lon="13.865496"><ele>331.25</ele><time>2026-04-26T14:54:51.274Z</time></trkpt><trkpt lat="42.100947" lon="13.8656763"><ele>329.5</ele><time>2026-04-26T14:54:52.273Z</time></trkpt><trkpt lat="42.1009963" lon="13.8658512"><ele>327.75</ele><time>2026-04-26T14:54:53.273Z</time></trkpt><trkpt lat="42.1010404" lon="13.8660299"><ele>326.0</ele><time>2026-04-26T14:54:54.273Z</time></trkpt><trkpt lat="42.1010721" lon="13.8662094"><ele>325.0</ele><time>2026-04-26T14:54:55.273Z</time></trkpt><trkpt lat="42.1010805" lon="13.8664006"><ele>324.0</ele><time>2026-04-26T14:54:56.273Z</time></trkpt><trkpt lat="42.101068" lon="13.8665988"><ele>323.0</ele><time>2026-04-26T14:54:57.273Z</time></trkpt><trkpt lat="42.1010429" lon="13.8668033"><ele>322.0</ele><time>2026-04-26T14:54:58.273Z</time></trkpt><trkpt lat="42.101016" lon="13.8670014"><ele>321.0</ele><time>2026-04-26T14:54:59.273Z</time></trkpt><trkpt lat="42.1009937" lon="13.8671927"><ele>320.0</ele><time>2026-04-26T14:55:00.273Z</time></trkpt><trkpt lat="42.1009691" lon="13.8673758"><ele>319.0</ele><time>2026-04-26T14:55:01.273Z</time></trkpt><trkpt lat="42.1009529" lon="13.8675598"><ele>318.0</ele><time>2026-04-26T14:55:02.273Z</time></trkpt><trkpt lat="42.1009403" lon="13.8677446"><ele>317.25</ele><time>2026-04-26T14:55:03.273Z</time></trkpt><trkpt lat="42.1009398" lon="13.8679246"><ele>316.5</ele><time>2026-04-26T14:55:04.273Z</time></trkpt><trkpt lat="42.100947" lon="13.8681004"><ele>315.75</ele><time>2026-04-26T14:55:05.274Z</time></trkpt><trkpt lat="42.1009558" lon="13.8682709"><ele>315.0</ele><time>2026-04-26T14:55:06.274Z</time></trkpt><trkpt lat="42.1009651" lon="13.8684431"><ele>313.75</ele><time>2026-04-26T14:55:07.273Z</time></trkpt><trkpt lat="42.1009705" lon="13.8686182"><ele>312.5</ele><time>2026-04-26T14:55:08.274Z</time></trkpt><trkpt lat="42.1009724" lon="13.8687936"><ele>311.25</ele><time>2026-04-26T14:55:09.273Z</time></trkpt><trkpt lat="42.100982" lon="13.8689629"><ele>310.0</ele><time>2026-04-26T14:55:10.274Z</time></trkpt><trkpt lat="42.1009901" lon="13.869128"><ele>308.4</ele><time>2026-04-26T14:55:11.273Z</time></trkpt><trkpt lat="42.1009928" lon="13.8692949"><ele>306.8</ele><time>2026-04-26T14:55:12.274Z</time></trkpt><trkpt lat="42.1009909" lon="13.8694573"><ele>305.2</ele><time>2026-04-26T14:55:13.273Z</time></trkpt><trkpt lat="42.1009819" lon="13.8696107"><ele>303.6</ele><time>2026-04-26T14:55:14.274Z</time></trkpt><trkpt lat="42.1009698" lon="13.8697146"><ele>302.0</ele><time>2026-04-26T14:55:15.273Z</time></trkpt><trkpt lat="42.1009645" lon="13.8698375"><ele>302.0</ele><time>2026-04-26T14:55:17.273Z</time></trkpt><trkpt lat="42.1009621" lon="13.8700083"><ele>302.0</ele><time>2026-04-26T14:55:19.273Z</time></trkpt><trkpt lat="42.1009642" lon="13.8701359"><ele>302.0</ele><time>2026-04-26T14:55:20.273Z</time></trkpt><trkpt lat="42.100985" lon="13.8702562"><ele>302.0</ele><time>2026-04-26T14:55:21.273Z</time></trkpt><trkpt lat="42.101028" lon="13.8703583"><ele>302.0</ele><time>2026-04-26T14:55:22.273Z</time></trkpt><trkpt lat="42.1011018" lon="13.8704263"><ele>300.75</ele><time>2026-04-26T14:55:23.273Z</time></trkpt><trkpt lat="42.1011933" lon="13.8704894"><ele>299.5</ele><time>2026-04-26T14:55:24.273Z</time></trkpt><trkpt lat="42.1012929" lon="13.8705757"><ele>298.25</ele><time>2026-04-26T14:55:25.273Z</time></trkpt><trkpt lat="42.1013916" lon="13.8707117"><ele>297.0</ele><time>2026-04-26T14:55:26.273Z</time></trkpt><trkpt lat="42.1015026" lon="13.8708891"><ele>296.3333333333333</ele><time>2026-04-26T14:55:27.273Z</time></trkpt><trkpt lat="42.1016409" lon="13.8710634"><ele>295.66666666666663</ele><time>2026-04-26T14:55:28.274Z</time></trkpt><trkpt lat="42.1018025" lon="13.8712156"><ele>295.0</ele><time>2026-04-26T14:55:29.273Z</time></trkpt><trkpt lat="42.1019889" lon="13.8713689"><ele>295.0</ele><time>2026-04-26T14:55:30.273Z</time></trkpt><trkpt lat="42.1021729" lon="13.8715113"><ele>295.0</ele><time>2026-04-26T14:55:31.274Z</time></trkpt><trkpt lat="42.1023391" lon="13.8716525"><ele>295.0</ele><time>2026-04-26T14:55:32.274Z</time></trkpt><trkpt lat="42.1025001" lon="13.8717764"><ele>293.3333333333333</ele><time>2026-04-26T14:55:33.273Z</time></trkpt><trkpt lat="42.1026583" lon="13.8718949"><ele>291.6666666666667</ele><time>2026-04-26T14:55:34.273Z</time></trkpt><trkpt lat="42.1028171" lon="13.8720142"><ele>290.0</ele><time>2026-04-26T14:55:35.274Z</time></trkpt><trkpt lat="42.102968" lon="13.8721283"><ele>290.0</ele><time>2026-04-26T14:55:36.273Z</time></trkpt><trkpt lat="42.1031076" lon="13.8722425"><ele>290.0</ele><time>2026-04-26T14:55:37.273Z</time></trkpt><trkpt lat="42.1032358" lon="13.8723454"><ele>290.0</ele><time>2026-04-26T14:55:38.273Z</time></trkpt><trkpt lat="42.1033545" lon="13.87244"><ele>290.0</ele><time>2026-04-26T14:55:39.273Z</time></trkpt><trkpt lat="42.1034482" lon="13.8725248"><ele>290.0</ele><time>2026-04-26T14:55:40.273Z</time></trkpt><trkpt lat="42.1035173" lon="13.8725846"><ele>290.0</ele><time>2026-04-26T14:55:41.274Z</time></trkpt><trkpt lat="42.1035985" lon="13.8726692"><ele>290.0</ele><time>2026-04-26T14:55:43.273Z</time></trkpt><trkpt lat="42.1036738" lon="13.8727128"><ele>290.0</ele><time>2026-04-26T14:56:05.273Z</time></trkpt><trkpt lat="42.1037645" lon="13.872777"><ele>289.0</ele><time>2026-04-26T14:56:06.273Z</time></trkpt><trkpt lat="42.1038875" lon="13.8728823"><ele>288.0</ele><time>2026-04-26T14:56:07.273Z</time></trkpt><trkpt lat="42.1040499" lon="13.8730076"><ele>287.0</ele><time>2026-04-26T14:56:08.273Z</time></trkpt><trkpt lat="42.1042331" lon="13.8731547"><ele>286.5</ele><time>2026-04-26T14:56:09.274Z</time></trkpt><trkpt lat="42.1044584" lon="13.8733322"><ele>286.0</ele><time>2026-04-26T14:56:10.273Z</time></trkpt><trkpt lat="42.1046793" lon="13.8735069"><ele>286.0</ele><time>2026-04-26T14:56:11.274Z</time></trkpt><trkpt lat="42.1048629" lon="13.8736492"><ele>286.0</ele><time>2026-04-26T14:56:12.274Z</time></trkpt><trkpt lat="42.1050349" lon="13.8737848"><ele>286.0</ele><time>2026-04-26T14:56:13.274Z</time></trkpt><trkpt lat="42.1051904" lon="13.8739198"><ele>285.66666666666663</ele><time>2026-04-26T14:56:14.273Z</time></trkpt><trkpt lat="42.1053348" lon="13.8740403"><ele>285.3333333333333</ele><time>2026-04-26T14:56:15.273Z</time></trkpt><trkpt lat="42.1054602" lon="13.8741416"><ele>285.0</ele><time>2026-04-26T14:56:16.274Z</time></trkpt><trkpt lat="42.1055762" lon="13.8742468"><ele>285.2</ele><time>2026-04-26T14:56:17.274Z</time></trkpt><trkpt lat="42.1056641" lon="13.8743401"><ele>285.4</ele><time>2026-04-26T14:56:18.273Z</time></trkpt><trkpt lat="42.1057423" lon="13.8744413"><ele>285.6</ele><time>2026-04-26T14:56:19.273Z</time></trkpt><trkpt lat="42.1058067" lon="13.8745558"><ele>285.8</ele><time>2026-04-26T14:56:20.273Z</time></trkpt><trkpt lat="42.1058594" lon="13.8746758"><ele>286.0</ele><time>2026-04-26T14:56:21.274Z</time></trkpt><trkpt lat="42.1059122" lon="13.8747867"><ele>285.40000000000003</ele><time>2026-04-26T14:56:22.273Z</time></trkpt><trkpt lat="42.1059708" lon="13.8748703"><ele>284.8</ele><time>2026-04-26T14:56:23.274Z</time></trkpt><trkpt lat="42.1060451" lon="13.8748894"><ele>284.20000000000005</ele><time>2026-04-26T14:56:24.274Z</time></trkpt><trkpt lat="42.1061344" lon="13.8748911"><ele>283.6</ele><time>2026-04-26T14:56:25.274Z</time></trkpt><trkpt lat="42.1062552" lon="13.874897"><ele>283.0</ele><time>2026-04-26T14:56:26.273Z</time></trkpt><trkpt lat="42.1064146" lon="13.8749429"><ele>282.3333333333333</ele><time>2026-04-26T14:56:27.273Z</time></trkpt><trkpt lat="42.1065935" lon="13.8750334"><ele>281.6666666666667</ele><time>2026-04-26T14:56:28.274Z</time></trkpt><trkpt lat="42.1067963" lon="13.8751493"><ele>281.0</ele><time>2026-04-26T14:56:29.273Z</time></trkpt><trkpt lat="42.1070077" lon="13.8753068"><ele>281.0</ele><time>2026-04-26T14:56:30.274Z</time></trkpt><trkpt lat="42.1072445" lon="13.8754895"><ele>281.0</ele><time>2026-04-26T14:56:31.273Z</time></trkpt><trkpt lat="42.1074908" lon="13.8756899"><ele>281.5</ele><time>2026-04-26T14:56:32.273Z</time></trkpt><trkpt lat="42.1077502" lon="13.8758967"><ele>282.0</ele><time>2026-04-26T14:56:33.273Z</time></trkpt><trkpt lat="42.1080109" lon="13.8761039"><ele>283.5</ele><time>2026-04-26T14:56:34.273Z</time></trkpt><trkpt lat="42.1082649" lon="13.8763067"><ele>285.0</ele><time>2026-04-26T14:56:35.273Z</time></trkpt><trkpt lat="42.1085116" lon="13.8765068"><ele>285.0</ele><time>2026-04-26T14:56:36.273Z</time></trkpt><trkpt lat="42.1087495" lon="13.8766929"><ele>285.0</ele><time>2026-04-26T14:56:37.273Z</time></trkpt><trkpt lat="42.1089644" lon="13.8768649"><ele>284.5</ele><time>2026-04-26T14:56:38.273Z</time></trkpt><trkpt lat="42.1091579" lon="13.8770236"><ele>284.0</ele><time>2026-04-26T14:56:39.273Z</time></trkpt><trkpt lat="42.109521" lon="13.8773062"><ele>284.0</ele><time>2026-04-26T14:56:41.273Z</time></trkpt><trkpt lat="42.1097104" lon="13.8774298"><ele>284.0</ele><time>2026-04-26T14:56:42.273Z</time></trkpt><trkpt lat="42.1099173" lon="13.8775351"><ele>284.0</ele><time>2026-04-26T14:56:43.273Z</time></trkpt><trkpt lat="42.1101298" lon="13.8776085"><ele>284.0</ele><time>2026-04-26T14:56:44.273Z</time></trkpt><trkpt lat="42.1103497" lon="13.8776573"><ele>284.0</ele><time>2026-04-26T14:56:45.273Z</time></trkpt><trkpt lat="42.110571" lon="13.8776897"><ele>284.0</ele><time>2026-04-26T14:56:46.274Z</time></trkpt><trkpt lat="42.1107887" lon="13.8777079"><ele>285.33333333333337</ele><time>2026-04-26T14:56:47.273Z</time></trkpt><trkpt lat="42.1109936" lon="13.8777122"><ele>286.6666666666667</ele><time>2026-04-26T14:56:48.274Z</time></trkpt><trkpt lat="42.1111826" lon="13.8777216"><ele>288.0</ele><time>2026-04-26T14:56:49.274Z</time></trkpt><trkpt lat="42.1113543" lon="13.8777392"><ele>288.0</ele><time>2026-04-26T14:56:50.273Z</time></trkpt><trkpt lat="42.1114905" lon="13.877787"><ele>288.0</ele><time>2026-04-26T14:56:51.274Z</time></trkpt><trkpt lat="42.1116124" lon="13.8778588"><ele>288.0</ele><time>2026-04-26T14:56:52.273Z</time></trkpt><trkpt lat="42.1117126" lon="13.8779727"><ele>288.0</ele><time>2026-04-26T14:56:53.274Z</time></trkpt><trkpt lat="42.1117736" lon="13.8781138"><ele>288.0</ele><time>2026-04-26T14:56:54.273Z</time></trkpt><trkpt lat="42.1117991" lon="13.8782914"><ele>288.0</ele><time>2026-04-26T14:56:55.273Z</time></trkpt><trkpt lat="42.111782" lon="13.8784622"><ele>288.0</ele><time>2026-04-26T14:56:56.273Z</time></trkpt><trkpt lat="42.1117128" lon="13.8786245"><ele>288.0</ele><time>2026-04-26T14:56:57.273Z</time></trkpt><trkpt lat="42.1116134" lon="13.8787686"><ele>289.3333333333333</ele><time>2026-04-26T14:56:58.273Z</time></trkpt><trkpt lat="42.1114878" lon="13.8788794"><ele>290.66666666666663</ele><time>2026-04-26T14:56:59.273Z</time></trkpt><trkpt lat="42.1113509" lon="13.878962"><ele>292.0</ele><time>2026-04-26T14:57:00.274Z</time></trkpt><trkpt lat="42.1111892" lon="13.8790738"><ele>292.0</ele><time>2026-04-26T14:57:01.273Z</time></trkpt><trkpt lat="42.1109911" lon="13.8792075"><ele>292.0</ele><time>2026-04-26T14:57:02.273Z</time></trkpt><trkpt lat="42.1107732" lon="13.8793863"><ele>294.5</ele><time>2026-04-26T14:57:03.273Z</time></trkpt><trkpt lat="42.1105349" lon="13.8795861"><ele>297.0</ele><time>2026-04-26T14:57:04.273Z</time></trkpt><trkpt lat="42.1102933" lon="13.8797913"><ele>297.0</ele><time>2026-04-26T14:57:05.273Z</time></trkpt><trkpt lat="42.1100454" lon="13.8800013"><ele>297.0</ele><time>2026-04-26T14:57:06.273Z</time></trkpt><trkpt lat="42.1098029" lon="13.8802146"><ele>298.0</ele><time>2026-04-26T14:57:07.273Z</time></trkpt><trkpt lat="42.1095718" lon="13.8804285"><ele>299.0</ele><time>2026-04-26T14:57:08.274Z</time></trkpt><trkpt lat="42.1093271" lon="13.8806554"><ele>300.5</ele><time>2026-04-26T14:57:09.273Z</time></trkpt><trkpt lat="42.1090656" lon="13.8808851"><ele>302.0</ele><time>2026-04-26T14:57:10.273Z</time></trkpt><trkpt lat="42.1087819" lon="13.8811209"><ele>302.0</ele><time>2026-04-26T14:57:11.273Z</time></trkpt><trkpt lat="42.1085037" lon="13.8813634"><ele>302.0</ele><time>2026-04-26T14:57:12.273Z</time></trkpt><trkpt lat="42.1082342" lon="13.8816041"><ele>302.5</ele><time>2026-04-26T14:57:13.273Z</time></trkpt><trkpt lat="42.1079671" lon="13.8818423"><ele>303.0</ele><time>2026-04-26T14:57:14.273Z</time></trkpt><trkpt lat="42.1076919" lon="13.8820773"><ele>303.0</ele><time>2026-04-26T14:57:15.273Z</time></trkpt><trkpt lat="42.1074121" lon="13.8823219"><ele>303.0</ele><time>2026-04-26T14:57:16.274Z</time></trkpt><trkpt lat="42.1070967" lon="13.8825194"><ele>306.0</ele><time>2026-04-26T14:57:17.273Z</time></trkpt><trkpt lat="42.1068272" lon="13.8827578"><ele>309.0</ele><time>2026-04-26T14:57:18.273Z</time></trkpt><trkpt lat="42.1065714" lon="13.8829889"><ele>311.0</ele><time>2026-04-26T14:57:19.273Z</time></trkpt><trkpt lat="42.1063215" lon="13.8832071"><ele>313.0</ele><time>2026-04-26T14:57:20.273Z</time></trkpt><trkpt lat="42.1060891" lon="13.8834147"><ele>315.0</ele><time>2026-04-26T14:57:21.273Z</time></trkpt><trkpt lat="42.1058805" lon="13.8836055"><ele>317.0</ele><time>2026-04-26T14:57:22.274Z</time></trkpt><trkpt lat="42.1056726" lon="13.883779"><ele>317.5</ele><time>2026-04-26T14:57:23.273Z</time></trkpt><trkpt lat="42.1054552" lon="13.8839629"><ele>318.0</ele><time>2026-04-26T14:57:24.273Z</time></trkpt><trkpt lat="42.105237" lon="13.8841566"><ele>318.0</ele><time>2026-04-26T14:57:25.274Z</time></trkpt><trkpt lat="42.1050486" lon="13.884317"><ele>318.0</ele><time>2026-04-26T14:57:26.273Z</time></trkpt><trkpt lat="42.1048924" lon="13.88445"><ele>318.0</ele><time>2026-04-26T14:57:27.273Z</time></trkpt><trkpt lat="42.1047475" lon="13.8845679"><ele>318.0</ele><time>2026-04-26T14:57:28.273Z</time></trkpt><trkpt lat="42.1046058" lon="13.8846807"><ele>318.0</ele><time>2026-04-26T14:57:29.273Z</time></trkpt><trkpt lat="42.1044674" lon="13.8847911"><ele>318.0</ele><time>2026-04-26T14:57:30.273Z</time></trkpt><trkpt lat="42.1043283" lon="13.8848982"><ele>318.0</ele><time>2026-04-26T14:57:31.274Z</time></trkpt><trkpt lat="42.1041897" lon="13.8850004"><ele>318.0</ele><time>2026-04-26T14:57:32.273Z</time></trkpt><trkpt lat="42.1040467" lon="13.885113"><ele>318.0</ele><time>2026-04-26T14:57:33.274Z</time></trkpt><trkpt lat="42.1039002" lon="13.8852259"><ele>319.3333333333333</ele><time>2026-04-26T14:57:34.273Z</time></trkpt><trkpt lat="42.1037541" lon="13.8853402"><ele>320.66666666666663</ele><time>2026-04-26T14:57:35.274Z</time></trkpt><trkpt lat="42.103614" lon="13.8854504"><ele>322.0</ele><time>2026-04-26T14:57:36.273Z</time></trkpt><trkpt lat="42.1034898" lon="13.8855666"><ele>322.0</ele><time>2026-04-26T14:57:37.273Z</time></trkpt><trkpt lat="42.103373" lon="13.8856738"><ele>322.0</ele><time>2026-04-26T14:57:38.274Z</time></trkpt><trkpt lat="42.1032569" lon="13.8857705"><ele>322.0</ele><time>2026-04-26T14:57:39.273Z</time></trkpt><trkpt lat="42.1031447" lon="13.8858661"><ele>322.0</ele><time>2026-04-26T14:57:40.274Z</time></trkpt><trkpt lat="42.1030367" lon="13.8859549"><ele>323.5</ele><time>2026-04-26T14:57:41.273Z</time></trkpt><trkpt lat="42.1029316" lon="13.8860398"><ele>325.0</ele><time>2026-04-26T14:57:42.273Z</time></trkpt><trkpt lat="42.1028217" lon="13.8861237"><ele>326.5</ele><time>2026-04-26T14:57:43.274Z</time></trkpt><trkpt lat="42.1027089" lon="13.8862102"><ele>328.0</ele><time>2026-04-26T14:57:44.273Z</time></trkpt><trkpt lat="42.1026039" lon="13.8862997"><ele>328.0</ele><time>2026-04-26T14:57:45.274Z</time></trkpt><trkpt lat="42.1024986" lon="13.886392"><ele>328.0</ele><time>2026-04-26T14:57:46.273Z</time></trkpt><trkpt lat="42.1023882" lon="13.8864938"><ele>328.0</ele><time>2026-04-26T14:57:47.273Z</time></trkpt><trkpt lat="42.1022712" lon="13.886597"><ele>328.0</ele><time>2026-04-26T14:57:48.28Z</time></trkpt><trkpt lat="42.1021495" lon="13.8867072"><ele>330.3333333333333</ele><time>2026-04-26T14:57:49.28Z</time></trkpt><trkpt lat="42.1020174" lon="13.8868253"><ele>332.6666666666667</ele><time>2026-04-26T14:57:50.28Z</time></trkpt><trkpt lat="42.1018738" lon="13.8869647"><ele>335.0</ele><time>2026-04-26T14:57:51.281Z</time></trkpt><trkpt lat="42.1017146" lon="13.8871098"><ele>335.33333333333337</ele><time>2026-04-26T14:57:52.28Z</time></trkpt><trkpt lat="42.1015495" lon="13.8872506"><ele>335.6666666666667</ele><time>2026-04-26T14:57:53.28Z</time></trkpt><trkpt lat="42.1013912" lon="13.8873683"><ele>336.0</ele><time>2026-04-26T14:57:54.28Z</time></trkpt><trkpt lat="42.101239" lon="13.8874825"><ele>336.0</ele><time>2026-04-26T14:57:55.281Z</time></trkpt><trkpt lat="42.1011048" lon="13.8875904"><ele>336.0</ele><time>2026-04-26T14:57:56.28Z</time></trkpt><trkpt lat="42.1009831" lon="13.8876918"><ele>336.0</ele><time>2026-04-26T14:57:57.281Z</time></trkpt><trkpt lat="42.1008474" lon="13.8877854"><ele>338.0</ele><time>2026-04-26T14:57:58.28Z</time></trkpt><trkpt lat="42.100695" lon="13.8879048"><ele>340.0</ele><time>2026-04-26T14:57:59.28Z</time></trkpt><trkpt lat="42.1005167" lon="13.8880389"><ele>342.0</ele><time>2026-04-26T14:58:00.28Z</time></trkpt><trkpt lat="42.100331" lon="13.8881732"><ele>342.0</ele><time>2026-04-26T14:58:01.28Z</time></trkpt><trkpt lat="42.1001528" lon="13.8883092"><ele>342.0</ele><time>2026-04-26T14:58:02.281Z</time></trkpt><trkpt lat="42.0999808" lon="13.8884446"><ele>342.0</ele><time>2026-04-26T14:58:03.28Z</time></trkpt><trkpt lat="42.0998263" lon="13.8885825"><ele>343.3333333333333</ele><time>2026-04-26T14:58:04.28Z</time></trkpt><trkpt lat="42.0996867" lon="13.8887105"><ele>344.66666666666663</ele><time>2026-04-26T14:58:05.28Z</time></trkpt><trkpt lat="42.0995593" lon="13.888839"><ele>346.0</ele><time>2026-04-26T14:58:06.28Z</time></trkpt><trkpt lat="42.0994417" lon="13.888952"><ele>346.0</ele><time>2026-04-26T14:58:07.28Z</time></trkpt><trkpt lat="42.0993352" lon="13.8890555"><ele>346.0</ele><time>2026-04-26T14:58:08.28Z</time></trkpt><trkpt lat="42.0992275" lon="13.8891581"><ele>346.0</ele><time>2026-04-26T14:58:09.28Z</time></trkpt><trkpt lat="42.0991239" lon="13.889261"><ele>346.0</ele><time>2026-04-26T14:58:10.28Z</time></trkpt><trkpt lat="42.0990248" lon="13.8893576"><ele>346.5</ele><time>2026-04-26T14:58:11.281Z</time></trkpt><trkpt lat="42.0989273" lon="13.8894526"><ele>347.0</ele><time>2026-04-26T14:58:12.28Z</time></trkpt><trkpt lat="42.0988288" lon="13.889554"><ele>347.5</ele><time>2026-04-26T14:58:13.28Z</time></trkpt><trkpt lat="42.0987267" lon="13.889661"><ele>348.0</ele><time>2026-04-26T14:58:14.28Z</time></trkpt><trkpt lat="42.0986087" lon="13.889763"><ele>348.0</ele><time>2026-04-26T14:58:15.28Z</time></trkpt><trkpt lat="42.0984984" lon="13.8898694"><ele>348.0</ele><time>2026-04-26T14:58:16.28Z</time></trkpt><trkpt lat="42.0983746" lon="13.8900048"><ele>348.0</ele><time>2026-04-26T14:58:17.281Z</time></trkpt><trkpt lat="42.0982132" lon="13.8901554"><ele>348.5</ele><time>2026-04-26T14:58:18.281Z</time></trkpt><trkpt lat="42.0980268" lon="13.8903235"><ele>349.0</ele><time>2026-04-26T14:58:19.28Z</time></trkpt><trkpt lat="42.0978089" lon="13.8905046"><ele>349.0</ele><time>2026-04-26T14:58:20.281Z</time></trkpt><trkpt lat="42.0975974" lon="13.8906941"><ele>349.0</ele><time>2026-04-26T14:58:21.28Z</time></trkpt><trkpt lat="42.0974036" lon="13.890876"><ele>348.3333333333333</ele><time>2026-04-26T14:58:22.28Z</time></trkpt><trkpt lat="42.097225" lon="13.8910635"><ele>347.6666666666667</ele><time>2026-04-26T14:58:23.28Z</time></trkpt><trkpt lat="42.0970541" lon="13.8912343"><ele>347.0</ele><time>2026-04-26T14:58:24.281Z</time></trkpt><trkpt lat="42.096902" lon="13.8913934"><ele>347.0</ele><time>2026-04-26T14:58:25.28Z</time></trkpt><trkpt lat="42.0967458" lon="13.8915575"><ele>347.0</ele><time>2026-04-26T14:58:26.28Z</time></trkpt><trkpt lat="42.0965653" lon="13.8917421"><ele>347.0</ele><time>2026-04-26T14:58:27.28Z</time></trkpt><trkpt lat="42.0963574" lon="13.8919372"><ele>348.5</ele><time>2026-04-26T14:58:28.28Z</time></trkpt><trkpt lat="42.0961362" lon="13.8921351"><ele>350.0</ele><time>2026-04-26T14:58:29.281Z</time></trkpt><trkpt lat="42.0959259" lon="13.8923325"><ele>350.0</ele><time>2026-04-26T14:58:30.281Z</time></trkpt><trkpt lat="42.095722" lon="13.8925382"><ele>350.0</ele><time>2026-04-26T14:58:31.281Z</time></trkpt><trkpt lat="42.0955221" lon="13.8927417"><ele>350.0</ele><time>2026-04-26T14:58:32.28Z</time></trkpt><trkpt lat="42.0953237" lon="13.8929337"><ele>350.0</ele><time>2026-04-26T14:58:33.28Z</time></trkpt><trkpt lat="42.0951282" lon="13.8931196"><ele>350.0</ele><time>2026-04-26T14:58:34.28Z</time></trkpt><trkpt lat="42.0949352" lon="13.8933029"><ele>350.0</ele><time>2026-04-26T14:58:35.28Z</time></trkpt><trkpt lat="42.0947334" lon="13.8934897"><ele>351.0</ele><time>2026-04-26T14:58:36.28Z</time></trkpt><trkpt lat="42.0945327" lon="13.8936736"><ele>352.0</ele><time>2026-04-26T14:58:37.28Z</time></trkpt><trkpt lat="42.094337" lon="13.8938648"><ele>352.0</ele><time>2026-04-26T14:58:38.28Z</time></trkpt><trkpt lat="42.0941475" lon="13.8940712"><ele>352.0</ele><time>2026-04-26T14:58:39.28Z</time></trkpt><trkpt lat="42.0939609" lon="13.8942933"><ele>350.5</ele><time>2026-04-26T14:58:40.281Z</time></trkpt><trkpt lat="42.0937851" lon="13.8945373"><ele>349.0</ele><time>2026-04-26T14:58:41.28Z</time></trkpt><trkpt lat="42.0936226" lon="13.8948131"><ele>350.5</ele><time>2026-04-26T14:58:42.28Z</time></trkpt><trkpt lat="42.0934679" lon="13.895145"><ele>352.0</ele><time>2026-04-26T14:58:43.281Z</time></trkpt><trkpt lat="42.0933336" lon="13.8954876"><ele>352.5</ele><time>2026-04-26T14:58:44.281Z</time></trkpt><trkpt lat="42.09322" lon="13.8958394"><ele>353.0</ele><time>2026-04-26T14:58:45.28Z</time></trkpt><trkpt lat="42.0931227" lon="13.8962079"><ele>353.0</ele><time>2026-04-26T14:58:46.28Z</time></trkpt><trkpt lat="42.0930461" lon="13.8965867"><ele>353.0</ele><time>2026-04-26T14:58:47.28Z</time></trkpt><trkpt lat="42.0929874" lon="13.8969719"><ele>353.0</ele><time>2026-04-26T14:58:48.28Z</time></trkpt><trkpt lat="42.0929541" lon="13.8973574"><ele>353.0</ele><time>2026-04-26T14:58:49.28Z</time></trkpt><trkpt lat="42.0929151" lon="13.8977488"><ele>353.0</ele><time>2026-04-26T14:58:50.28Z</time></trkpt><trkpt lat="42.0928743" lon="13.8981469"><ele>353.0</ele><time>2026-04-26T14:58:51.281Z</time></trkpt><trkpt lat="42.0928348" lon="13.8985488"><ele>353.0</ele><time>2026-04-26T14:58:52.28Z</time></trkpt><trkpt lat="42.0927971" lon="13.8989484"><ele>353.0</ele><time>2026-04-26T14:58:53.28Z</time></trkpt><trkpt lat="42.092757" lon="13.8993636"><ele>352.5</ele><time>2026-04-26T14:58:54.28Z</time></trkpt><trkpt lat="42.0927153" lon="13.8997726"><ele>352.0</ele><time>2026-04-26T14:58:55.28Z</time></trkpt><trkpt lat="42.0926719" lon="13.900183"><ele>352.0</ele><time>2026-04-26T14:58:56.28Z</time></trkpt><trkpt lat="42.0926297" lon="13.9005919"><ele>352.0</ele><time>2026-04-26T14:58:57.28Z</time></trkpt><trkpt lat="42.0925847" lon="13.9009951"><ele>352.0</ele><time>2026-04-26T14:58:58.281Z</time></trkpt><trkpt lat="42.0925385" lon="13.9014014"><ele>352.0</ele><time>2026-04-26T14:58:59.28Z</time></trkpt><trkpt lat="42.0924974" lon="13.9018057"><ele>351.5</ele><time>2026-04-26T14:59:00.28Z</time></trkpt><trkpt lat="42.0924576" lon="13.9022056"><ele>351.0</ele><time>2026-04-26T14:59:01.28Z</time></trkpt><trkpt lat="42.0924141" lon="13.9026029"><ele>352.0</ele><time>2026-04-26T14:59:02.28Z</time></trkpt><trkpt lat="42.0923614" lon="13.9030015"><ele>353.0</ele><time>2026-04-26T14:59:03.281Z</time></trkpt><trkpt lat="42.092296" lon="13.9033954"><ele>351.5</ele><time>2026-04-26T14:59:04.28Z</time></trkpt><trkpt lat="42.0922239" lon="13.9037887"><ele>350.0</ele><time>2026-04-26T14:59:05.28Z</time></trkpt><trkpt lat="42.0921346" lon="13.9041707"><ele>350.5</ele><time>2026-04-26T14:59:06.28Z</time></trkpt><trkpt lat="42.0920401" lon="13.90455"><ele>351.0</ele><time>2026-04-26T14:59:07.28Z</time></trkpt><trkpt lat="42.0919374" lon="13.9049166"><ele>352.0</ele><time>2026-04-26T14:59:08.28Z</time></trkpt><trkpt lat="42.0918231" lon="13.9052723"><ele>353.0</ele><time>2026-04-26T14:59:09.281Z</time></trkpt><trkpt lat="42.0916989" lon="13.9056206"><ele>352.0</ele><time>2026-04-26T14:59:10.281Z</time></trkpt><trkpt lat="42.0915655" lon="13.905957"><ele>351.0</ele><time>2026-04-26T14:59:11.28Z</time></trkpt><trkpt lat="42.0914217" lon="13.906282"><ele>354.0</ele><time>2026-04-26T14:59:12.28Z</time></trkpt><trkpt lat="42.0891763" lon="13.9055691"><ele>354.5</ele><time>2026-04-26T14:59:13.281Z</time></trkpt><trkpt lat="42.0889837" lon="13.905846"><ele>355.0</ele><time>2026-04-26T14:59:14.28Z</time></trkpt><trkpt lat="42.088782" lon="13.9061096"><ele>355.0</ele><time>2026-04-26T14:59:15.28Z</time></trkpt><trkpt lat="42.088565" lon="13.9063824"><ele>355.0</ele><time>2026-04-26T14:59:16.28Z</time></trkpt><trkpt lat="42.0883388" lon="13.906637"><ele>355.0</ele><time>2026-04-26T14:59:17.28Z</time></trkpt><trkpt lat="42.0881076" lon="13.9068752"><ele>355.0</ele><time>2026-04-26T14:59:18.28Z</time></trkpt><trkpt lat="42.0878729" lon="13.9071086"><ele>355.0</ele><time>2026-04-26T14:59:19.281Z</time></trkpt><trkpt lat="42.0876326" lon="13.9073281"><ele>355.0</ele><time>2026-04-26T14:59:20.28Z</time></trkpt><trkpt lat="42.0873927" lon="13.9075421"><ele>354.0</ele><time>2026-04-26T14:59:21.28Z</time></trkpt><trkpt lat="42.087147" lon="13.9077582"><ele>353.0</ele><time>2026-04-26T14:59:22.28Z</time></trkpt><trkpt lat="42.0869031" lon="13.9079761"><ele>353.0</ele><time>2026-04-26T14:59:23.281Z</time></trkpt><trkpt lat="42.0866552" lon="13.9081948"><ele>353.0</ele><time>2026-04-26T14:59:24.28Z</time></trkpt><trkpt lat="42.0864074" lon="13.9084251"><ele>352.5</ele><time>2026-04-26T14:59:25.281Z</time></trkpt><trkpt lat="42.0861541" lon="13.9086511"><ele>352.0</ele><time>2026-04-26T14:59:26.28Z</time></trkpt><trkpt lat="42.0859026" lon="13.9088772"><ele>352.5</ele><time>2026-04-26T14:59:27.28Z</time></trkpt><trkpt lat="42.0856474" lon="13.9091032"><ele>353.0</ele><time>2026-04-26T14:59:28.28Z</time></trkpt><trkpt lat="42.0853898" lon="13.909338"><ele>353.0</ele><time>2026-04-26T14:59:29.281Z</time></trkpt><trkpt lat="42.0851309" lon="13.9095749"><ele>353.0</ele><time>2026-04-26T14:59:30.28Z</time></trkpt><trkpt lat="42.0848755" lon="13.909814"><ele>353.0</ele><time>2026-04-26T14:59:31.28Z</time></trkpt><trkpt lat="42.0846206" lon="13.9100466"><ele>353.0</ele><time>2026-04-26T14:59:32.28Z</time></trkpt><trkpt lat="42.0843597" lon="13.9102789"><ele>353.5</ele><time>2026-04-26T14:59:33.28Z</time></trkpt><trkpt lat="42.0841062" lon="13.9105117"><ele>354.0</ele><time>2026-04-26T14:59:34.281Z</time></trkpt><trkpt lat="42.0838482" lon="13.9107386"><ele>355.5</ele><time>2026-04-26T14:59:35.28Z</time></trkpt><trkpt lat="42.0835898" lon="13.9109651"><ele>357.0</ele><time>2026-04-26T14:59:36.28Z</time></trkpt><trkpt lat="42.0833346" lon="13.9111958"><ele>356.5</ele><time>2026-04-26T14:59:37.281Z</time></trkpt><trkpt lat="42.0830777" lon="13.9114279"><ele>356.0</ele><time>2026-04-26T14:59:38.281Z</time></trkpt><trkpt lat="42.0828239" lon="13.9116609"><ele>356.0</ele><time>2026-04-26T14:59:39.28Z</time></trkpt><trkpt lat="42.082568" lon="13.9118908"><ele>356.0</ele><time>2026-04-26T14:59:40.28Z</time></trkpt><trkpt lat="42.0823079" lon="13.9121204"><ele>356.0</ele><time>2026-04-26T14:59:41.28Z</time></trkpt><trkpt lat="42.0820503" lon="13.912351"><ele>356.0</ele><time>2026-04-26T14:59:42.281Z</time></trkpt><trkpt lat="42.0817928" lon="13.9125824"><ele>356.5</ele><time>2026-04-26T14:59:43.28Z</time></trkpt><trkpt lat="42.0815398" lon="13.912811"><ele>357.0</ele><time>2026-04-26T14:59:44.28Z</time></trkpt><trkpt lat="42.0812849" lon="13.9130406"><ele>357.0</ele><time>2026-04-26T14:59:45.281Z</time></trkpt><trkpt lat="42.0810306" lon="13.9132738"><ele>357.0</ele><time>2026-04-26T14:59:46.28Z</time></trkpt><trkpt lat="42.0807717" lon="13.913503"><ele>358.0</ele><time>2026-04-26T14:59:47.28Z</time></trkpt><trkpt lat="42.0805163" lon="13.9137316"><ele>359.0</ele><time>2026-04-26T14:59:48.28Z</time></trkpt><trkpt lat="42.0802608" lon="13.9139598"><ele>359.0</ele><time>2026-04-26T14:59:49.281Z</time></trkpt><trkpt lat="42.0800066" lon="13.9141938"><ele>359.0</ele><time>2026-04-26T14:59:50.28Z</time></trkpt><trkpt lat="42.0797519" lon="13.9144238"><ele>359.5</ele><time>2026-04-26T14:59:51.28Z</time></trkpt><trkpt lat="42.0794939" lon="13.9146519"><ele>360.0</ele><time>2026-04-26T14:59:52.28Z</time></trkpt><trkpt lat="42.0792371" lon="13.9148812"><ele>359.5</ele><time>2026-04-26T14:59:53.28Z</time></trkpt><trkpt lat="42.078982" lon="13.915111"><ele>359.0</ele><time>2026-04-26T14:59:54.281Z</time></trkpt><trkpt lat="42.0787245" lon="13.915343"><ele>359.0</ele><time>2026-04-26T14:59:55.281Z</time></trkpt><trkpt lat="42.0784704" lon="13.9155714"><ele>359.0</ele><time>2026-04-26T14:59:56.28Z</time></trkpt><trkpt lat="42.0782133" lon="13.9158041"><ele>360.0</ele><time>2026-04-26T14:59:57.28Z</time></trkpt><trkpt lat="42.0779551" lon="13.9160372"><ele>361.0</ele><time>2026-04-26T14:59:58.28Z</time></trkpt><trkpt lat="42.0777003" lon="13.9162603"><ele>361.0</ele><time>2026-04-26T14:59:59.28Z</time></trkpt><trkpt lat="42.0774422" lon="13.9164879"><ele>361.0</ele><time>2026-04-26T15:00:00.28Z</time></trkpt><trkpt lat="42.0771856" lon="13.9167161"><ele>361.0</ele><time>2026-04-26T15:00:01.28Z</time></trkpt><trkpt lat="42.0769295" lon="13.9169465"><ele>361.0</ele><time>2026-04-26T15:00:02.28Z</time></trkpt><trkpt lat="42.076672" lon="13.9171759"><ele>361.5</ele><time>2026-04-26T15:00:03.28Z</time></trkpt><trkpt lat="42.0764156" lon="13.9174058"><ele>362.0</ele><time>2026-04-26T15:00:04.28Z</time></trkpt><trkpt lat="42.0761589" lon="13.917634"><ele>362.0</ele><time>2026-04-26T15:00:05.281Z</time></trkpt><trkpt lat="42.0759015" lon="13.9178615"><ele>362.0</ele><time>2026-04-26T15:00:06.281Z</time></trkpt><trkpt lat="42.0756452" lon="13.9180964"><ele>362.0</ele><time>2026-04-26T15:00:07.281Z</time></trkpt><trkpt lat="42.0753889" lon="13.9183288"><ele>362.0</ele><time>2026-04-26T15:00:08.28Z</time></trkpt><trkpt lat="42.0751327" lon="13.9185572"><ele>364.0</ele><time>2026-04-26T15:00:09.28Z</time></trkpt><trkpt lat="42.0748747" lon="13.9187887"><ele>366.0</ele><time>2026-04-26T15:00:10.28Z</time></trkpt><trkpt lat="42.0746186" lon="13.9190182"><ele>366.5</ele><time>2026-04-26T15:00:11.28Z</time></trkpt><trkpt lat="42.0743683" lon="13.9192447"><ele>367.0</ele><time>2026-04-26T15:00:12.28Z</time></trkpt><trkpt lat="42.0741136" lon="13.9194784"><ele>366.5</ele><time>2026-04-26T15:00:13.28Z</time></trkpt><trkpt lat="42.0738564" lon="13.9197124"><ele>366.0</ele><time>2026-04-26T15:00:14.28Z</time></trkpt><trkpt lat="42.0735974" lon="13.9199438"><ele>366.0</ele><time>2026-04-26T15:00:15.28Z</time></trkpt><trkpt lat="42.0733375" lon="13.9201752"><ele>366.0</ele><time>2026-04-26T15:00:16.28Z</time></trkpt><trkpt lat="42.0730801" lon="13.9204063"><ele>366.5</ele><time>2026-04-26T15:00:17.28Z</time></trkpt><trkpt lat="42.072822" lon="13.9206375"><ele>367.0</ele><time>2026-04-26T15:00:18.28Z</time></trkpt><trkpt lat="42.0725648" lon="13.9208685"><ele>368.0</ele><time>2026-04-26T15:00:19.28Z</time></trkpt><trkpt lat="42.0723063" lon="13.921098"><ele>369.0</ele><time>2026-04-26T15:00:20.28Z</time></trkpt><trkpt lat="42.072048" lon="13.9213282"><ele>369.0</ele><time>2026-04-26T15:00:21.28Z</time></trkpt><trkpt lat="42.0717934" lon="13.9215632"><ele>369.0</ele><time>2026-04-26T15:00:22.28Z</time></trkpt><trkpt lat="42.0715392" lon="13.9217958"><ele>370.0</ele><time>2026-04-26T15:00:23.28Z</time></trkpt><trkpt lat="42.0712864" lon="13.9220289"><ele>371.0</ele><time>2026-04-26T15:00:24.28Z</time></trkpt><trkpt lat="42.0710304" lon="13.9222555"><ele>370.5</ele><time>2026-04-26T15:00:25.28Z</time></trkpt><trkpt lat="42.0707703" lon="13.9224854"><ele>370.0</ele><time>2026-04-26T15:00:26.28Z</time></trkpt><trkpt lat="42.0705129" lon="13.9227141"><ele>369.0</ele><time>2026-04-26T15:00:27.281Z</time></trkpt><trkpt lat="42.0702522" lon="13.9229416"><ele>368.0</ele><time>2026-04-26T15:00:28.28Z</time></trkpt><trkpt lat="42.0699921" lon="13.9231715"><ele>370.5</ele><time>2026-04-26T15:00:29.28Z</time></trkpt><trkpt lat="42.0697345" lon="13.9234048"><ele>373.0</ele><time>2026-04-26T15:00:30.28Z</time></trkpt><trkpt lat="42.0694801" lon="13.9236401"><ele>373.0</ele><time>2026-04-26T15:00:31.28Z</time></trkpt><trkpt lat="42.0692253" lon="13.923872"><ele>373.0</ele><time>2026-04-26T15:00:32.28Z</time></trkpt><trkpt lat="42.068964" lon="13.9241042"><ele>373.5</ele><time>2026-04-26T15:00:33.28Z</time></trkpt><trkpt lat="42.0687059" lon="13.924338"><ele>374.0</ele><time>2026-04-26T15:00:34.28Z</time></trkpt><trkpt lat="42.0684494" lon="13.924567"><ele>375.0</ele><time>2026-04-26T15:00:35.281Z</time></trkpt><trkpt lat="42.0681931" lon="13.9248008"><ele>376.0</ele><time>2026-04-26T15:00:36.28Z</time></trkpt><trkpt lat="42.0679393" lon="13.9250297"><ele>377.0</ele><time>2026-04-26T15:00:37.28Z</time></trkpt><trkpt lat="42.0676857" lon="13.9252577"><ele>378.0</ele><time>2026-04-26T15:00:38.28Z</time></trkpt><trkpt lat="42.0674289" lon="13.9254868"><ele>379.0</ele><time>2026-04-26T15:00:39.28Z</time></trkpt><trkpt lat="42.0671715" lon="13.9257166"><ele>380.0</ele><time>2026-04-26T15:00:40.28Z</time></trkpt><trkpt lat="42.0669148" lon="13.9259445"><ele>380.0</ele><time>2026-04-26T15:00:41.28Z</time></trkpt><trkpt lat="42.0666571" lon="13.9261766"><ele>380.0</ele><time>2026-04-26T15:00:42.28Z</time></trkpt><trkpt lat="42.0663998" lon="13.9264102"><ele>380.0</ele><time>2026-04-26T15:00:43.28Z</time></trkpt><trkpt lat="42.0661398" lon="13.9266408"><ele>380.0</ele><time>2026-04-26T15:00:44.28Z</time></trkpt><trkpt lat="42.0658832" lon="13.9268704"><ele>382.0</ele><time>2026-04-26T15:00:45.28Z</time></trkpt><trkpt lat="42.0656251" lon="13.9271006"><ele>384.0</ele><time>2026-04-26T15:00:46.28Z</time></trkpt><trkpt lat="42.0653668" lon="13.9273314"><ele>385.0</ele><time>2026-04-26T15:00:47.28Z</time></trkpt><trkpt lat="42.0651038" lon="13.9275836"><ele>386.0</ele><time>2026-04-26T15:00:48.28Z</time></trkpt><trkpt lat="42.064849" lon="13.9278203"><ele>386.5</ele><time>2026-04-26T15:00:49.281Z</time></trkpt><trkpt lat="42.0645915" lon="13.9280536"><ele>387.0</ele><time>2026-04-26T15:00:50.28Z</time></trkpt><trkpt lat="42.0643348" lon="13.9282825"><ele>386.5</ele><time>2026-04-26T15:00:51.28Z</time></trkpt><trkpt lat="42.0640781" lon="13.9285087"><ele>386.0</ele><time>2026-04-26T15:00:52.28Z</time></trkpt><trkpt lat="42.0638237" lon="13.9287354"><ele>386.0</ele><time>2026-04-26T15:00:53.281Z</time></trkpt><trkpt lat="42.0635651" lon="13.9289658"><ele>386.0</ele><time>2026-04-26T15:00:54.28Z</time></trkpt><trkpt lat="42.0633082" lon="13.9291901"><ele>387.5</ele><time>2026-04-26T15:00:55.28Z</time></trkpt><trkpt lat="42.0630494" lon="13.9294235"><ele>389.0</ele><time>2026-04-26T15:00:56.28Z</time></trkpt><trkpt lat="42.062793" lon="13.9296602"><ele>389.0</ele><time>2026-04-26T15:00:57.28Z</time></trkpt><trkpt lat="42.0625355" lon="13.9298798"><ele>389.0</ele><time>2026-04-26T15:00:58.28Z</time></trkpt><trkpt lat="42.062276" lon="13.9301029"><ele>389.0</ele><time>2026-04-26T15:00:59.28Z</time></trkpt><trkpt lat="42.0620179" lon="13.9303405"><ele>389.0</ele><time>2026-04-26T15:01:00.281Z</time></trkpt><trkpt lat="42.0617599" lon="13.9305691"><ele>390.5</ele><time>2026-04-26T15:01:01.281Z</time></trkpt><trkpt lat="42.0615109" lon="13.9307822"><ele>392.0</ele><time>2026-04-26T15:01:02.28Z</time></trkpt><trkpt lat="42.0612821" lon="13.9309874"><ele>392.5</ele><time>2026-04-26T15:01:03.28Z</time></trkpt><trkpt lat="42.061077" lon="13.9311827"><ele>393.0</ele><time>2026-04-26T15:01:04.28Z</time></trkpt><trkpt lat="42.0608685" lon="13.9313695"><ele>393.5</ele><time>2026-04-26T15:01:05.28Z</time></trkpt><trkpt lat="42.0606662" lon="13.9315433"><ele>394.0</ele><time>2026-04-26T15:01:06.28Z</time></trkpt><trkpt lat="42.0604669" lon="13.9317198"><ele>394.5</ele><time>2026-04-26T15:01:07.281Z</time></trkpt><trkpt lat="42.0602688" lon="13.9318984"><ele>395.0</ele><time>2026-04-26T15:01:08.28Z</time></trkpt><trkpt lat="42.0600727" lon="13.9320733"><ele>397.0</ele><time>2026-04-26T15:01:09.28Z</time></trkpt><trkpt lat="42.0598779" lon="13.9322524"><ele>399.0</ele><time>2026-04-26T15:01:10.281Z</time></trkpt><trkpt lat="42.0596814" lon="13.9324266"><ele>399.0</ele><time>2026-04-26T15:01:11.281Z</time></trkpt><trkpt lat="42.0594869" lon="13.9325993"><ele>399.0</ele><time>2026-04-26T15:01:12.28Z</time></trkpt><trkpt lat="42.0592943" lon="13.9327871"><ele>400.5</ele><time>2026-04-26T15:01:13.28Z</time></trkpt><trkpt lat="42.0590994" lon="13.9329673"><ele>402.0</ele><time>2026-04-26T15:01:14.28Z</time></trkpt><trkpt lat="42.0589052" lon="13.9331608"><ele>402.0</ele><time>2026-04-26T15:01:15.28Z</time></trkpt><trkpt lat="42.0587039" lon="13.9333773"><ele>402.0</ele><time>2026-04-26T15:01:16.281Z</time></trkpt><trkpt lat="42.0584883" lon="13.9336044"><ele>403.5</ele><time>2026-04-26T15:01:17.28Z</time></trkpt><trkpt lat="42.0582653" lon="13.9338475"><ele>405.0</ele><time>2026-04-26T15:01:18.28Z</time></trkpt><trkpt lat="42.058038" lon="13.9341048"><ele>404.0</ele><time>2026-04-26T15:01:19.28Z</time></trkpt><trkpt lat="42.0578075" lon="13.9343733"><ele>403.0</ele><time>2026-04-26T15:01:20.281Z</time></trkpt><trkpt lat="42.057574" lon="13.9346445"><ele>404.5</ele><time>2026-04-26T15:01:21.28Z</time></trkpt><trkpt lat="42.0573461" lon="13.9349253"><ele>406.0</ele><time>2026-04-26T15:01:22.28Z</time></trkpt><trkpt lat="42.0571215" lon="13.9352159"><ele>406.0</ele><time>2026-04-26T15:01:23.28Z</time></trkpt><trkpt lat="42.0569045" lon="13.9355185"><ele>406.0</ele><time>2026-04-26T15:01:24.281Z</time></trkpt><trkpt lat="42.0566928" lon="13.9358288"><ele>406.5</ele><time>2026-04-26T15:01:25.28Z</time></trkpt><trkpt lat="42.0564828" lon="13.9361285"><ele>407.0</ele><time>2026-04-26T15:01:26.28Z</time></trkpt><trkpt lat="42.0562739" lon="13.9364345"><ele>406.0</ele><time>2026-04-26T15:01:27.28Z</time></trkpt><trkpt lat="42.0560706" lon="13.9367195"><ele>405.0</ele><time>2026-04-26T15:01:28.28Z</time></trkpt><trkpt lat="42.055878" lon="13.9369843"><ele>406.5</ele><time>2026-04-26T15:01:29.281Z</time></trkpt><trkpt lat="42.0556987" lon="13.9372496"><ele>408.0</ele><time>2026-04-26T15:01:30.28Z</time></trkpt><trkpt lat="42.0555322" lon="13.9374909"><ele>409.33333333333337</ele><time>2026-04-26T15:01:31.28Z</time></trkpt><trkpt lat="42.0553764" lon="13.9377153"><ele>410.6666666666667</ele><time>2026-04-26T15:01:32.28Z</time></trkpt><trkpt lat="42.0552286" lon="13.9379277"><ele>412.0</ele><time>2026-04-26T15:01:33.28Z</time></trkpt><trkpt lat="42.0550665" lon="13.9381418"><ele>411.6666666666667</ele><time>2026-04-26T15:01:34.28Z</time></trkpt><trkpt lat="42.0549102" lon="13.9383435"><ele>411.33333333333337</ele><time>2026-04-26T15:01:35.28Z</time></trkpt><trkpt lat="42.0547712" lon="13.9385353"><ele>411.0</ele><time>2026-04-26T15:01:36.281Z</time></trkpt><trkpt lat="42.0546438" lon="13.9387141"><ele>411.0</ele><time>2026-04-26T15:01:37.281Z</time></trkpt><trkpt lat="42.0545231" lon="13.9388746"><ele>411.0</ele><time>2026-04-26T15:01:38.28Z</time></trkpt><trkpt lat="42.0544077" lon="13.9390203"><ele>411.0</ele><time>2026-04-26T15:01:39.28Z</time></trkpt><trkpt lat="42.0543007" lon="13.9391493"><ele>411.5</ele><time>2026-04-26T15:01:40.281Z</time></trkpt><trkpt lat="42.0542038" lon="13.9392735"><ele>412.0</ele><time>2026-04-26T15:01:41.281Z</time></trkpt><trkpt lat="42.0541193" lon="13.9393863"><ele>412.5</ele><time>2026-04-26T15:01:42.28Z</time></trkpt><trkpt lat="42.0540334" lon="13.9394749"><ele>413.0</ele><time>2026-04-26T15:01:43.28Z</time></trkpt><trkpt lat="42.0539546" lon="13.9395367"><ele>413.16666666666663</ele><time>2026-04-26T15:01:44.28Z</time></trkpt><trkpt lat="42.0538946" lon="13.9395998"><ele>413.3333333333333</ele><time>2026-04-26T15:01:45.281Z</time></trkpt><trkpt lat="42.053855" lon="13.9396704"><ele>413.5</ele><time>2026-04-26T15:01:46.281Z</time></trkpt><trkpt lat="42.0538423" lon="13.9397662"><ele>413.66666666666663</ele><time>2026-04-26T15:01:47.28Z</time></trkpt><trkpt lat="42.0538253" lon="13.9398622"><ele>413.8333333333333</ele><time>2026-04-26T15:01:48.28Z</time></trkpt><trkpt lat="42.0537918" lon="13.9399566"><ele>414.0</ele><time>2026-04-26T15:01:49.281Z</time></trkpt><trkpt lat="42.0537414" lon="13.9400607"><ele>414.0</ele><time>2026-04-26T15:01:50.28Z</time></trkpt><trkpt lat="42.053662" lon="13.9401881"><ele>414.0</ele><time>2026-04-26T15:01:51.28Z</time></trkpt><trkpt lat="42.0535768" lon="13.9403214"><ele>414.0</ele><time>2026-04-26T15:01:52.28Z</time></trkpt><trkpt lat="42.0534522" lon="13.940483"><ele>414.0</ele><time>2026-04-26T15:01:53.281Z</time></trkpt><trkpt lat="42.0532898" lon="13.9406603"><ele>415.5</ele><time>2026-04-26T15:01:54.28Z</time></trkpt><trkpt lat="42.0530602" lon="13.9408826"><ele>417.0</ele><time>2026-04-26T15:01:55.28Z</time></trkpt><trkpt lat="42.0528323" lon="13.9410742"><ele>417.0</ele><time>2026-04-26T15:01:56.281Z</time></trkpt><trkpt lat="42.0526187" lon="13.9412284"><ele>417.0</ele><time>2026-04-26T15:01:57.281Z</time></trkpt><trkpt lat="42.052403" lon="13.941369"><ele>417.5</ele><time>2026-04-26T15:01:58.28Z</time></trkpt><trkpt lat="42.0521768" lon="13.941481"><ele>418.0</ele><time>2026-04-26T15:01:59.28Z</time></trkpt><trkpt lat="42.0519404" lon="13.9415804"><ele>418.0</ele><time>2026-04-26T15:02:00.28Z</time></trkpt><trkpt lat="42.051711" lon="13.941645"><ele>418.0</ele><time>2026-04-26T15:02:01.28Z</time></trkpt><trkpt lat="42.0514807" lon="13.9416892"><ele>418.0</ele><time>2026-04-26T15:02:02.281Z</time></trkpt><trkpt lat="42.051253" lon="13.9417076"><ele>418.0</ele><time>2026-04-26T15:02:03.281Z</time></trkpt><trkpt lat="42.0510208" lon="13.9416982"><ele>419.0</ele><time>2026-04-26T15:02:04.28Z</time></trkpt><trkpt lat="42.0507817" lon="13.9416699"><ele>420.0</ele><time>2026-04-26T15:02:05.28Z</time></trkpt><trkpt lat="42.050549" lon="13.941613"><ele>420.0</ele><time>2026-04-26T15:02:06.281Z</time></trkpt><trkpt lat="42.0503097" lon="13.9415335"><ele>420.0</ele><time>2026-04-26T15:02:07.28Z</time></trkpt><trkpt lat="42.0500676" lon="13.9414306"><ele>420.0</ele><time>2026-04-26T15:02:08.28Z</time></trkpt><trkpt lat="42.0498001" lon="13.9413198"><ele>420.0</ele><time>2026-04-26T15:02:09.28Z</time></trkpt><trkpt lat="42.0495553" lon="13.9411726"><ele>420.0</ele><time>2026-04-26T15:02:10.281Z</time></trkpt><trkpt lat="42.0493048" lon="13.9410209"><ele>420.0</ele><time>2026-04-26T15:02:11.28Z</time></trkpt><trkpt lat="42.0490603" lon="13.9408736"><ele>420.0</ele><time>2026-04-26T15:02:12.281Z</time></trkpt><trkpt lat="42.048825" lon="13.9407378"><ele>420.0</ele><time>2026-04-26T15:02:13.28Z</time></trkpt><trkpt lat="42.0486073" lon="13.940604"><ele>420.0</ele><time>2026-04-26T15:02:14.28Z</time></trkpt><trkpt lat="42.0483972" lon="13.9404796"><ele>420.0</ele><time>2026-04-26T15:02:15.28Z</time></trkpt><trkpt lat="42.0482011" lon="13.9403562"><ele>420.0</ele><time>2026-04-26T15:02:16.281Z</time></trkpt><trkpt lat="42.0480124" lon="13.9402509"><ele>421.33333333333337</ele><time>2026-04-26T15:02:17.28Z</time></trkpt><trkpt lat="42.0478277" lon="13.940145"><ele>422.6666666666667</ele><time>2026-04-26T15:02:18.28Z</time></trkpt><trkpt lat="42.047659" lon="13.940052"><ele>424.0</ele><time>2026-04-26T15:02:19.281Z</time></trkpt><trkpt lat="42.0475264" lon="13.9399709"><ele>424.0</ele><time>2026-04-26T15:02:20.28Z</time></trkpt><trkpt lat="42.0474191" lon="13.9398852"><ele>424.0</ele><time>2026-04-26T15:02:21.281Z</time></trkpt><trkpt lat="42.0473319" lon="13.9398195"><ele>424.0</ele><time>2026-04-26T15:02:22.28Z</time></trkpt><trkpt lat="42.0472623" lon="13.9397324"><ele>424.0</ele><time>2026-04-26T15:02:23.281Z</time></trkpt><trkpt lat="42.0471939" lon="13.9396226"><ele>424.0</ele><time>2026-04-26T15:02:24.28Z</time></trkpt><trkpt lat="42.047131" lon="13.9395225"><ele>424.0</ele><time>2026-04-26T15:02:25.28Z</time></trkpt><trkpt lat="42.047046" lon="13.9394718"><ele>424.0</ele><time>2026-04-26T15:02:26.28Z</time></trkpt><trkpt lat="42.0469424" lon="13.9394698"><ele>424.0</ele><time>2026-04-26T15:02:27.28Z</time></trkpt><trkpt lat="42.0468261" lon="13.9394801"><ele>424.0</ele><time>2026-04-26T15:02:28.28Z</time></trkpt><trkpt lat="42.0466807" lon="13.9394662"><ele>424.0</ele><time>2026-04-26T15:02:29.28Z</time></trkpt><trkpt lat="42.0465223" lon="13.9394013"><ele>424.0</ele><time>2026-04-26T15:02:30.28Z</time></trkpt><trkpt lat="42.0463311" lon="13.9392828"><ele>424.0</ele><time>2026-04-26T15:02:31.28Z</time></trkpt><trkpt lat="42.0461131" lon="13.9391493"><ele>424.0</ele><time>2026-04-26T15:02:32.281Z</time></trkpt><trkpt lat="42.0458736" lon="13.9390098"><ele>424.0</ele><time>2026-04-26T15:02:33.281Z</time></trkpt><trkpt lat="42.0456166" lon="13.9388621"><ele>425.0</ele><time>2026-04-26T15:02:34.28Z</time></trkpt><trkpt lat="42.0453766" lon="13.9387217"><ele>426.0</ele><time>2026-04-26T15:02:35.281Z</time></trkpt><trkpt lat="42.0451441" lon="13.9385855"><ele>423.0</ele><time>2026-04-26T15:02:36.28Z</time></trkpt><trkpt lat="42.0449229" lon="13.9384497"><ele>420.0</ele><time>2026-04-26T15:02:37.28Z</time></trkpt><trkpt lat="42.0447086" lon="13.9383166"><ele>420.0</ele><time>2026-04-26T15:02:38.28Z</time></trkpt><trkpt lat="42.0444942" lon="13.9381892"><ele>420.0</ele><time>2026-04-26T15:02:39.281Z</time></trkpt><trkpt lat="42.0442809" lon="13.9380712"><ele>419.0</ele><time>2026-04-26T15:02:40.28Z</time></trkpt><trkpt lat="42.0440665" lon="13.937948"><ele>418.0</ele><time>2026-04-26T15:02:41.281Z</time></trkpt><trkpt lat="42.0438416" lon="13.9378198"><ele>418.0</ele><time>2026-04-26T15:02:42.28Z</time></trkpt><trkpt lat="42.0436102" lon="13.9376883"><ele>418.0</ele><time>2026-04-26T15:02:43.281Z</time></trkpt><trkpt lat="42.0433694" lon="13.9375616"><ele>423.0</ele><time>2026-04-26T15:02:44.281Z</time></trkpt><trkpt lat="42.043127" lon="13.9374237"><ele>428.0</ele><time>2026-04-26T15:02:45.28Z</time></trkpt><trkpt lat="42.0428782" lon="13.9372776"><ele>428.0</ele><time>2026-04-26T15:02:46.281Z</time></trkpt><trkpt lat="42.0426283" lon="13.937124"><ele>428.0</ele><time>2026-04-26T15:02:47.28Z</time></trkpt><trkpt lat="42.0423745" lon="13.9369665"><ele>427.5</ele><time>2026-04-26T15:02:48.28Z</time></trkpt><trkpt lat="42.0421221" lon="13.9368069"><ele>427.0</ele><time>2026-04-26T15:02:49.281Z</time></trkpt><trkpt lat="42.041869" lon="13.9366575"><ele>427.0</ele><time>2026-04-26T15:02:50.28Z</time></trkpt><trkpt lat="42.0416166" lon="13.9365201"><ele>427.0</ele><time>2026-04-26T15:02:51.28Z</time></trkpt><trkpt lat="42.0413699" lon="13.9364062"><ele>427.0</ele><time>2026-04-26T15:02:52.28Z</time></trkpt><trkpt lat="42.0411153" lon="13.9363104"><ele>427.0</ele><time>2026-04-26T15:02:53.28Z</time></trkpt><trkpt lat="42.040855" lon="13.9362482"><ele>428.0</ele><time>2026-04-26T15:02:54.28Z</time></trkpt><trkpt lat="42.0406059" lon="13.9362017"><ele>429.0</ele><time>2026-04-26T15:02:55.28Z</time></trkpt><trkpt lat="42.0403747" lon="13.9361727"><ele>429.0</ele><time>2026-04-26T15:02:56.281Z</time></trkpt><trkpt lat="42.0401593" lon="13.9361668"><ele>429.0</ele><time>2026-04-26T15:02:57.281Z</time></trkpt><trkpt lat="42.0399585" lon="13.936164"><ele>429.0</ele><time>2026-04-26T15:02:58.28Z</time></trkpt><trkpt lat="42.0397827" lon="13.9361685"><ele>429.0</ele><time>2026-04-26T15:02:59.281Z</time></trkpt><trkpt lat="42.0396177" lon="13.9361647"><ele>429.0</ele><time>2026-04-26T15:03:00.281Z</time></trkpt><trkpt lat="42.0394755" lon="13.9361607"><ele>429.0</ele><time>2026-04-26T15:03:01.28Z</time></trkpt><trkpt lat="42.03935" lon="13.9361698"><ele>429.0</ele><time>2026-04-26T15:03:02.28Z</time></trkpt><trkpt lat="42.0392342" lon="13.9361554"><ele>429.0</ele><time>2026-04-26T15:03:03.28Z</time></trkpt><trkpt lat="42.0391367" lon="13.9361246"><ele>429.0</ele><time>2026-04-26T15:03:04.28Z</time></trkpt><trkpt lat="42.0390376" lon="13.936094"><ele>429.0</ele><time>2026-04-26T15:03:05.28Z</time></trkpt><trkpt lat="42.0389212" lon="13.9361365"><ele>429.0</ele><time>2026-04-26T15:03:06.281Z</time></trkpt><trkpt lat="42.0387839" lon="13.9361929"><ele>428.66666666666663</ele><time>2026-04-26T15:03:07.281Z</time></trkpt><trkpt lat="42.0386148" lon="13.936228"><ele>428.3333333333333</ele><time>2026-04-26T15:03:08.281Z</time></trkpt><trkpt lat="42.0384034" lon="13.9362422"><ele>428.0</ele><time>2026-04-26T15:03:09.28Z</time></trkpt><trkpt lat="42.038156" lon="13.9362386"><ele>430.0</ele><time>2026-04-26T15:03:10.28Z</time></trkpt><trkpt lat="42.0378861" lon="13.9362358"><ele>432.0</ele><time>2026-04-26T15:03:11.28Z</time></trkpt><trkpt lat="42.0375933" lon="13.9362477"><ele>434.5</ele><time>2026-04-26T15:03:12.281Z</time></trkpt><trkpt lat="42.037294" lon="13.9362622"><ele>437.0</ele><time>2026-04-26T15:03:13.281Z</time></trkpt><trkpt lat="42.036993" lon="13.9362726"><ele>437.0</ele><time>2026-04-26T15:03:14.28Z</time></trkpt><trkpt lat="42.0366977" lon="13.9362835"><ele>437.0</ele><time>2026-04-26T15:03:15.28Z</time></trkpt><trkpt lat="42.0364085" lon="13.93629"><ele>436.0</ele><time>2026-04-26T15:03:16.28Z</time></trkpt><trkpt lat="42.0361243" lon="13.9362943"><ele>435.0</ele><time>2026-04-26T15:03:17.28Z</time></trkpt><trkpt lat="42.0358451" lon="13.9363025"><ele>436.0</ele><time>2026-04-26T15:03:18.281Z</time></trkpt><trkpt lat="42.0355647" lon="13.9363069"><ele>437.0</ele><time>2026-04-26T15:03:19.28Z</time></trkpt><trkpt lat="42.0352817" lon="13.9363168"><ele>437.0</ele><time>2026-04-26T15:03:20.28Z</time></trkpt><trkpt lat="42.0349973" lon="13.9363247"><ele>437.0</ele><time>2026-04-26T15:03:21.28Z</time></trkpt><trkpt lat="42.0347076" lon="13.9363343"><ele>438.0</ele><time>2026-04-26T15:03:22.281Z</time></trkpt><trkpt lat="42.0344174" lon="13.936341"><ele>439.0</ele><time>2026-04-26T15:03:23.28Z</time></trkpt><trkpt lat="42.0341259" lon="13.9363446"><ele>439.0</ele><time>2026-04-26T15:03:24.28Z</time></trkpt><trkpt lat="42.0338315" lon="13.9363514"><ele>439.0</ele><time>2026-04-26T15:03:25.28Z</time></trkpt><trkpt lat="42.03354" lon="13.9363615"><ele>440.0</ele><time>2026-04-26T15:03:26.28Z</time></trkpt><trkpt lat="42.03326" lon="13.9363742"><ele>441.0</ele><time>2026-04-26T15:03:27.281Z</time></trkpt><trkpt lat="42.0329807" lon="13.9363825"><ele>441.0</ele><time>2026-04-26T15:03:28.28Z</time></trkpt><trkpt lat="42.0327036" lon="13.9363866"><ele>441.0</ele><time>2026-04-26T15:03:29.28Z</time></trkpt><trkpt lat="42.0324311" lon="13.9363944"><ele>441.0</ele><time>2026-04-26T15:03:30.28Z</time></trkpt><trkpt lat="42.0321775" lon="13.9364042"><ele>441.0</ele><time>2026-04-26T15:03:31.28Z</time></trkpt><trkpt lat="42.0319422" lon="13.9364115"><ele>441.0</ele><time>2026-04-26T15:03:32.28Z</time></trkpt><trkpt lat="42.0317263" lon="13.9364154"><ele>441.0</ele><time>2026-04-26T15:03:33.28Z</time></trkpt><trkpt lat="42.0315437" lon="13.9364183"><ele>441.0</ele><time>2026-04-26T15:03:34.28Z</time></trkpt><trkpt lat="42.0313779" lon="13.9364252"><ele>441.25</ele><time>2026-04-26T15:03:35.281Z</time></trkpt><trkpt lat="42.0312302" lon="13.9364335"><ele>441.5</ele><time>2026-04-26T15:03:36.281Z</time></trkpt><trkpt lat="42.0311035" lon="13.9364349"><ele>441.75</ele><time>2026-04-26T15:03:37.28Z</time></trkpt><trkpt lat="42.0309894" lon="13.9364203"><ele>442.0</ele><time>2026-04-26T15:03:38.281Z</time></trkpt><trkpt lat="42.0308987" lon="13.9363685"><ele>442.0</ele><time>2026-04-26T15:03:39.28Z</time></trkpt><trkpt lat="42.0308157" lon="13.9362855"><ele>442.00000000000006</ele><time>2026-04-26T15:03:40.28Z</time></trkpt><trkpt lat="42.0307134" lon="13.9362642"><ele>442.00000000000006</ele><time>2026-04-26T15:03:41.28Z</time></trkpt><trkpt lat="42.0306117" lon="13.9363076"><ele>442.0</ele><time>2026-04-26T15:03:42.281Z</time></trkpt><trkpt lat="42.0304912" lon="13.9363871"><ele>442.0</ele><time>2026-04-26T15:03:43.281Z</time></trkpt><trkpt lat="42.0303411" lon="13.9364378"><ele>442.6666666666667</ele><time>2026-04-26T15:03:44.28Z</time></trkpt><trkpt lat="42.0301569" lon="13.936461"><ele>443.33333333333337</ele><time>2026-04-26T15:03:45.28Z</time></trkpt><trkpt lat="42.0299248" lon="13.936473"><ele>444.0</ele><time>2026-04-26T15:03:46.28Z</time></trkpt><trkpt lat="42.0296553" lon="13.9364843"><ele>444.5</ele><time>2026-04-26T15:03:47.28Z</time></trkpt><trkpt lat="42.0293611" lon="13.9364849"><ele>445.0</ele><time>2026-04-26T15:03:48.28Z</time></trkpt><trkpt lat="42.0290479" lon="13.9364799"><ele>447.0</ele><time>2026-04-26T15:03:49.281Z</time></trkpt><trkpt lat="42.0287291" lon="13.9364849"><ele>449.0</ele><time>2026-04-26T15:03:50.281Z</time></trkpt><trkpt lat="42.0284371" lon="13.936493"><ele>449.5</ele><time>2026-04-26T15:03:51.28Z</time></trkpt><trkpt lat="42.0281669" lon="13.9365171"><ele>450.0</ele><time>2026-04-26T15:03:52.28Z</time></trkpt><trkpt lat="42.0278964" lon="13.9365559"><ele>450.0</ele><time>2026-04-26T15:03:53.28Z</time></trkpt><trkpt lat="42.0276309" lon="13.9366321"><ele>450.0</ele><time>2026-04-26T15:03:54.281Z</time></trkpt><trkpt lat="42.0273663" lon="13.936726"><ele>451.0</ele><time>2026-04-26T15:03:55.281Z</time></trkpt><trkpt lat="42.0270906" lon="13.9368507"><ele>452.0</ele><time>2026-04-26T15:03:56.281Z</time></trkpt><trkpt lat="42.0268152" lon="13.9369807"><ele>452.5</ele><time>2026-04-26T15:03:57.28Z</time></trkpt><trkpt lat="42.0265386" lon="13.9371274"><ele>453.0</ele><time>2026-04-26T15:03:58.281Z</time></trkpt><trkpt lat="42.0262634" lon="13.9372703"><ele>453.0</ele><time>2026-04-26T15:03:59.28Z</time></trkpt><trkpt lat="42.0259867" lon="13.9374086"><ele>453.0</ele><time>2026-04-26T15:04:00.28Z</time></trkpt><trkpt lat="42.0257096" lon="13.9375549"><ele>455.0</ele><time>2026-04-26T15:04:01.281Z</time></trkpt><trkpt lat="42.0254359" lon="13.9376938"><ele>457.0</ele><time>2026-04-26T15:04:02.281Z</time></trkpt><trkpt lat="42.0251777" lon="13.9378284"><ele>456.5</ele><time>2026-04-26T15:04:03.28Z</time></trkpt><trkpt lat="42.0249259" lon="13.9379505"><ele>456.0</ele><time>2026-04-26T15:04:04.279Z</time></trkpt><trkpt lat="42.0246723" lon="13.9380616"><ele>456.0</ele><time>2026-04-26T15:04:05.279Z</time></trkpt><trkpt lat="42.0244107" lon="13.9381542"><ele>456.0</ele><time>2026-04-26T15:04:06.279Z</time></trkpt><trkpt lat="42.024153" lon="13.9382234"><ele>454.0</ele><time>2026-04-26T15:04:07.279Z</time></trkpt><trkpt lat="42.0238917" lon="13.9382908"><ele>452.0</ele><time>2026-04-26T15:04:08.28Z</time></trkpt><trkpt lat="42.0236291" lon="13.9383692"><ele>456.0</ele><time>2026-04-26T15:04:09.279Z</time></trkpt><trkpt lat="42.0233573" lon="13.9384716"><ele>460.0</ele><time>2026-04-26T15:04:10.279Z</time></trkpt><trkpt lat="42.023079" lon="13.9386145"><ele>460.0</ele><time>2026-04-26T15:04:11.279Z</time></trkpt><trkpt lat="42.0227939" lon="13.9387899"><ele>460.0</ele><time>2026-04-26T15:04:12.279Z</time></trkpt><trkpt lat="42.0224995" lon="13.9389923"><ele>456.5</ele><time>2026-04-26T15:04:13.279Z</time></trkpt><trkpt lat="42.022192" lon="13.9391942"><ele>453.0</ele><time>2026-04-26T15:04:14.279Z</time></trkpt><trkpt lat="42.0218756" lon="13.9394073"><ele>455.5</ele><time>2026-04-26T15:04:15.28Z</time></trkpt><trkpt lat="42.0215593" lon="13.9396141"><ele>458.0</ele><time>2026-04-26T15:04:16.279Z</time></trkpt><trkpt lat="42.0212472" lon="13.9398194"><ele>458.0</ele><time>2026-04-26T15:04:17.279Z</time></trkpt><trkpt lat="42.0209431" lon="13.9400305"><ele>458.0</ele><time>2026-04-26T15:04:18.279Z</time></trkpt><trkpt lat="42.0206416" lon="13.9402361"><ele>461.0</ele><time>2026-04-26T15:04:19.28Z</time></trkpt><trkpt lat="42.0203427" lon="13.9404423"><ele>464.0</ele><time>2026-04-26T15:04:20.279Z</time></trkpt><trkpt lat="42.0200518" lon="13.9406404"><ele>460.5</ele><time>2026-04-26T15:04:21.279Z</time></trkpt><trkpt lat="42.0197666" lon="13.9408342"><ele>457.0</ele><time>2026-04-26T15:04:22.279Z</time></trkpt><trkpt lat="42.019484" lon="13.941021"><ele>460.5</ele><time>2026-04-26T15:04:23.279Z</time></trkpt><trkpt lat="42.0192081" lon="13.9412112"><ele>464.0</ele><time>2026-04-26T15:04:24.279Z</time></trkpt><trkpt lat="42.0189307" lon="13.9413978"><ele>464.0</ele><time>2026-04-26T15:04:25.279Z</time></trkpt><trkpt lat="42.0186593" lon="13.9415802"><ele>464.0</ele><time>2026-04-26T15:04:26.28Z</time></trkpt><trkpt lat="42.0183863" lon="13.941764"><ele>466.0</ele><time>2026-04-26T15:04:27.28Z</time></trkpt><trkpt lat="42.0181238" lon="13.9419459"><ele>468.0</ele><time>2026-04-26T15:04:28.279Z</time></trkpt><trkpt lat="42.0178561" lon="13.9421269"><ele>468.0</ele><time>2026-04-26T15:04:29.287Z</time></trkpt><trkpt lat="42.0175887" lon="13.9423045"><ele>468.0</ele><time>2026-04-26T15:04:30.287Z</time></trkpt><trkpt lat="42.0173206" lon="13.9424691"><ele>472.0</ele><time>2026-04-26T15:04:31.287Z</time></trkpt><trkpt lat="42.0170449" lon="13.9426165"><ele>476.0</ele><time>2026-04-26T15:04:32.288Z</time></trkpt><trkpt lat="42.0167584" lon="13.94275"><ele>475.5</ele><time>2026-04-26T15:04:33.288Z</time></trkpt><trkpt lat="42.0164626" lon="13.9428717"><ele>475.0</ele><time>2026-04-26T15:04:34.288Z</time></trkpt><trkpt lat="42.0161546" lon="13.9429857"><ele>475.0</ele><time>2026-04-26T15:04:35.288Z</time></trkpt><trkpt lat="42.0158433" lon="13.9431032"><ele>475.0</ele><time>2026-04-26T15:04:36.287Z</time></trkpt><trkpt lat="42.0155322" lon="13.9432223"><ele>474.0</ele><time>2026-04-26T15:04:37.287Z</time></trkpt><trkpt lat="42.0152205" lon="13.9433343"><ele>473.0</ele><time>2026-04-26T15:04:38.287Z</time></trkpt><trkpt lat="42.0149115" lon="13.9434475"><ele>477.0</ele><time>2026-04-26T15:04:39.287Z</time></trkpt><trkpt lat="42.0146098" lon="13.9435625"><ele>481.0</ele><time>2026-04-26T15:04:40.287Z</time></trkpt><trkpt lat="42.0143349" lon="13.9436586"><ele>480.5</ele><time>2026-04-26T15:04:41.287Z</time></trkpt><trkpt lat="42.0140574" lon="13.9437642"><ele>480.0</ele><time>2026-04-26T15:04:42.288Z</time></trkpt><trkpt lat="42.0137757" lon="13.9438662"><ele>480.0</ele><time>2026-04-26T15:04:43.287Z</time></trkpt><trkpt lat="42.0134929" lon="13.9439712"><ele>480.0</ele><time>2026-04-26T15:04:44.287Z</time></trkpt><trkpt lat="42.0132154" lon="13.9440969"><ele>480.5</ele><time>2026-04-26T15:04:45.287Z</time></trkpt><trkpt lat="42.0129455" lon="13.9442392"><ele>481.0</ele><time>2026-04-26T15:04:46.287Z</time></trkpt><trkpt lat="42.0126817" lon="13.9444188"><ele>477.5</ele><time>2026-04-26T15:04:47.288Z</time></trkpt><trkpt lat="42.0124221" lon="13.9446269"><ele>474.0</ele><time>2026-04-26T15:04:48.287Z</time></trkpt><trkpt lat="42.0121707" lon="13.9448436"><ele>475.5</ele><time>2026-04-26T15:04:49.287Z</time></trkpt><trkpt lat="42.0119153" lon="13.945073"><ele>477.0</ele><time>2026-04-26T15:04:50.288Z</time></trkpt><trkpt lat="42.0116515" lon="13.9453067"><ele>477.0</ele><time>2026-04-26T15:04:51.287Z</time></trkpt><trkpt lat="42.0113811" lon="13.9455411"><ele>477.0</ele><time>2026-04-26T15:04:52.288Z</time></trkpt><trkpt lat="42.0111067" lon="13.9457695"><ele>481.5</ele><time>2026-04-26T15:04:53.288Z</time></trkpt><trkpt lat="42.0108195" lon="13.9459942"><ele>486.0</ele><time>2026-04-26T15:04:54.287Z</time></trkpt><trkpt lat="42.0105246" lon="13.946206"><ele>486.0</ele><time>2026-04-26T15:04:55.287Z</time></trkpt><trkpt lat="42.0102355" lon="13.9464023"><ele>486.0</ele><time>2026-04-26T15:04:56.287Z</time></trkpt><trkpt lat="42.0099513" lon="13.9466024"><ele>489.5</ele><time>2026-04-26T15:04:57.287Z</time></trkpt><trkpt lat="42.0096669" lon="13.9468032"><ele>493.0</ele><time>2026-04-26T15:04:58.288Z</time></trkpt><trkpt lat="42.0093898" lon="13.9470024"><ele>487.5</ele><time>2026-04-26T15:04:59.287Z</time></trkpt><trkpt lat="42.0091206" lon="13.9471937"><ele>482.0</ele><time>2026-04-26T15:05:00.287Z</time></trkpt><trkpt lat="42.0088508" lon="13.9473927"><ele>489.0</ele><time>2026-04-26T15:05:01.287Z</time></trkpt><trkpt lat="42.0085876" lon="13.9475858"><ele>496.0</ele><time>2026-04-26T15:05:02.287Z</time></trkpt><trkpt lat="42.0083389" lon="13.9477605"><ele>489.0</ele><time>2026-04-26T15:05:03.287Z</time></trkpt><trkpt lat="42.0080978" lon="13.9479268"><ele>482.0</ele><time>2026-04-26T15:05:04.287Z</time></trkpt><trkpt lat="42.0078674" lon="13.9480801"><ele>482.0</ele><time>2026-04-26T15:05:05.287Z</time></trkpt><trkpt lat="42.0076459" lon="13.9482321"><ele>482.0</ele><time>2026-04-26T15:05:06.287Z</time></trkpt><trkpt lat="42.0074311" lon="13.948381"><ele>482.5</ele><time>2026-04-26T15:05:07.287Z</time></trkpt><trkpt lat="42.007216" lon="13.9485324"><ele>483.0</ele><time>2026-04-26T15:05:08.288Z</time></trkpt><trkpt lat="42.0070025" lon="13.9486805"><ele>483.0</ele><time>2026-04-26T15:05:09.287Z</time></trkpt><trkpt lat="42.0067876" lon="13.9488205"><ele>483.0</ele><time>2026-04-26T15:05:10.287Z</time></trkpt><trkpt lat="42.0065828" lon="13.948956"><ele>481.0</ele><time>2026-04-26T15:05:11.287Z</time></trkpt><trkpt lat="42.0063798" lon="13.9490965"><ele>479.0</ele><time>2026-04-26T15:05:12.287Z</time></trkpt><trkpt lat="42.0061601" lon="13.9492529"><ele>483.0</ele><time>2026-04-26T15:05:13.287Z</time></trkpt><trkpt lat="42.0059258" lon="13.9494325"><ele>487.0</ele><time>2026-04-26T15:05:14.288Z</time></trkpt><trkpt lat="42.0056656" lon="13.9496103"><ele>487.0</ele><time>2026-04-26T15:05:15.287Z</time></trkpt><trkpt lat="42.00539" lon="13.9497866"><ele>487.0</ele><time>2026-04-26T15:05:16.287Z</time></trkpt><trkpt lat="42.0051211" lon="13.9499559"><ele>490.0</ele><time>2026-04-26T15:05:17.288Z</time></trkpt><trkpt lat="42.0048582" lon="13.9501256"><ele>493.0</ele><time>2026-04-26T15:05:18.287Z</time></trkpt><trkpt lat="42.0046073" lon="13.9502882"><ele>493.0</ele><time>2026-04-26T15:05:19.287Z</time></trkpt><trkpt lat="42.004359" lon="13.9504596"><ele>493.0</ele><time>2026-04-26T15:05:20.287Z</time></trkpt><trkpt lat="42.0041119" lon="13.9506296"><ele>490.0</ele><time>2026-04-26T15:05:21.287Z</time></trkpt><trkpt lat="42.0038617" lon="13.9508012"><ele>487.0</ele><time>2026-04-26T15:05:22.287Z</time></trkpt><trkpt lat="42.0036086" lon="13.9509614"><ele>491.5</ele><time>2026-04-26T15:05:23.287Z</time></trkpt><trkpt lat="42.0033515" lon="13.9511006"><ele>496.0</ele><time>2026-04-26T15:05:24.287Z</time></trkpt><trkpt lat="42.0030914" lon="13.9512279"><ele>496.0</ele><time>2026-04-26T15:05:25.287Z</time></trkpt><trkpt lat="42.0028315" lon="13.9513504"><ele>496.0</ele><time>2026-04-26T15:05:26.288Z</time></trkpt><trkpt lat="42.0025806" lon="13.9514686"><ele>494.0</ele><time>2026-04-26T15:05:27.287Z</time></trkpt><trkpt lat="42.0023304" lon="13.9515985"><ele>492.0</ele><time>2026-04-26T15:05:28.287Z</time></trkpt><trkpt lat="42.0020855" lon="13.9517171"><ele>495.0</ele><time>2026-04-26T15:05:29.287Z</time></trkpt><trkpt lat="42.0018362" lon="13.9518357"><ele>498.0</ele><time>2026-04-26T15:05:30.287Z</time></trkpt><trkpt lat="42.0015927" lon="13.9519576"><ele>498.0</ele><time>2026-04-26T15:05:31.287Z</time></trkpt><trkpt lat="42.0013508" lon="13.9520871"><ele>498.0</ele><time>2026-04-26T15:05:32.287Z</time></trkpt><trkpt lat="42.0011036" lon="13.9522221"><ele>498.0</ele><time>2026-04-26T15:05:33.287Z</time></trkpt><trkpt lat="42.0008542" lon="13.9523589"><ele>498.0</ele><time>2026-04-26T15:05:34.288Z</time></trkpt><trkpt lat="42.000603" lon="13.9525066"><ele>500.0</ele><time>2026-04-26T15:05:35.287Z</time></trkpt><trkpt lat="42.0003569" lon="13.9526588"><ele>502.0</ele><time>2026-04-26T15:05:36.287Z</time></trkpt><trkpt lat="42.0001186" lon="13.9528072"><ele>502.0</ele><time>2026-04-26T15:05:37.288Z</time></trkpt><trkpt lat="41.9998789" lon="13.9529492"><ele>502.0</ele><time>2026-04-26T15:05:38.287Z</time></trkpt><trkpt lat="41.9996326" lon="13.9530728"><ele>502.0</ele><time>2026-04-26T15:05:39.287Z</time></trkpt><trkpt lat="41.9993782" lon="13.9531797"><ele>502.0</ele><time>2026-04-26T15:05:40.288Z</time></trkpt><trkpt lat="41.9991042" lon="13.9532628"><ele>502.5</ele><time>2026-04-26T15:05:41.287Z</time></trkpt><trkpt lat="41.9988357" lon="13.953326"><ele>503.0</ele><time>2026-04-26T15:05:42.287Z</time></trkpt><trkpt lat="41.9985721" lon="13.9533791"><ele>509.0</ele><time>2026-04-26T15:05:43.287Z</time></trkpt><trkpt lat="41.9983147" lon="13.9534446"><ele>515.0</ele><time>2026-04-26T15:05:44.287Z</time></trkpt><trkpt lat="41.9980544" lon="13.9535032"><ele>515.0</ele><time>2026-04-26T15:05:45.287Z</time></trkpt><trkpt lat="41.9977952" lon="13.9535641"><ele>515.0</ele><time>2026-04-26T15:05:46.287Z</time></trkpt><trkpt lat="41.997553" lon="13.9536278"><ele>514.6666666666666</ele><time>2026-04-26T15:05:47.288Z</time></trkpt><trkpt lat="41.9973269" lon="13.9536845"><ele>514.3333333333334</ele><time>2026-04-26T15:05:48.287Z</time></trkpt><trkpt lat="41.9971157" lon="13.9537398"><ele>514.0</ele><time>2026-04-26T15:05:49.287Z</time></trkpt><trkpt lat="41.9968962" lon="13.9537883"><ele>514.0</ele><time>2026-04-26T15:05:50.288Z</time></trkpt><trkpt lat="41.9966804" lon="13.953842"><ele>514.0</ele><time>2026-04-26T15:05:51.287Z</time></trkpt><trkpt lat="41.9964778" lon="13.9538958"><ele>514.0</ele><time>2026-04-26T15:05:52.287Z</time></trkpt><trkpt lat="41.9962712" lon="13.9539521"><ele>514.0</ele><time>2026-04-26T15:05:53.288Z</time></trkpt><trkpt lat="41.996069" lon="13.9540136"><ele>514.0</ele><time>2026-04-26T15:05:54.287Z</time></trkpt><trkpt lat="41.9958765" lon="13.9540812"><ele>514.0</ele><time>2026-04-26T15:05:55.287Z</time></trkpt><trkpt lat="41.9956811" lon="13.9541639"><ele>517.5</ele><time>2026-04-26T15:05:56.287Z</time></trkpt><trkpt lat="41.9954617" lon="13.9542621"><ele>521.0</ele><time>2026-04-26T15:05:57.287Z</time></trkpt><trkpt lat="41.9952173" lon="13.9543929"><ele>519.5</ele><time>2026-04-26T15:05:58.287Z</time></trkpt><trkpt lat="41.9949438" lon="13.9545116"><ele>518.0</ele><time>2026-04-26T15:05:59.287Z</time></trkpt><trkpt lat="41.9946621" lon="13.9546162"><ele>518.0</ele><time>2026-04-26T15:06:00.288Z</time></trkpt><trkpt lat="41.994379" lon="13.9547324"><ele>518.0</ele><time>2026-04-26T15:06:01.287Z</time></trkpt><trkpt lat="41.9941062" lon="13.9548458"><ele>516.5</ele><time>2026-04-26T15:06:02.287Z</time></trkpt><trkpt lat="41.9938447" lon="13.9549308"><ele>515.0</ele><time>2026-04-26T15:06:03.287Z</time></trkpt><trkpt lat="41.9935847" lon="13.9549665"><ele>514.0</ele><time>2026-04-26T15:06:04.287Z</time></trkpt><trkpt lat="41.9933019" lon="13.9550046"><ele>513.0</ele><time>2026-04-26T15:06:05.287Z</time></trkpt><trkpt lat="41.9929911" lon="13.954993"><ele>513.0</ele><time>2026-04-26T15:06:06.288Z</time></trkpt><trkpt lat="41.9926625" lon="13.9549968"><ele>513.0</ele><time>2026-04-26T15:06:07.287Z</time></trkpt><trkpt lat="41.99233" lon="13.9550028"><ele>514.0</ele><time>2026-04-26T15:06:08.287Z</time></trkpt><trkpt lat="41.992002" lon="13.9550059"><ele>515.0</ele><time>2026-04-26T15:06:09.287Z</time></trkpt><trkpt lat="41.9916692" lon="13.9550099"><ele>515.0</ele><time>2026-04-26T15:06:10.287Z</time></trkpt><trkpt lat="41.9913352" lon="13.9550119"><ele>515.0</ele><time>2026-04-26T15:06:11.287Z</time></trkpt><trkpt lat="41.9910298" lon="13.9550078"><ele>516.5</ele><time>2026-04-26T15:06:12.288Z</time></trkpt><trkpt lat="41.9907133" lon="13.9550048"><ele>518.0</ele><time>2026-04-26T15:06:13.288Z</time></trkpt><trkpt lat="41.9903841" lon="13.9550097"><ele>518.0</ele><time>2026-04-26T15:06:14.287Z</time></trkpt><trkpt lat="41.990067" lon="13.9550163"><ele>518.0</ele><time>2026-04-26T15:06:15.287Z</time></trkpt><trkpt lat="41.9897607" lon="13.955023"><ele>517.5</ele><time>2026-04-26T15:06:16.287Z</time></trkpt><trkpt lat="41.9894393" lon="13.9550272"><ele>517.0</ele><time>2026-04-26T15:06:17.287Z</time></trkpt><trkpt lat="41.9891258" lon="13.9550375"><ele>520.0</ele><time>2026-04-26T15:06:18.287Z</time></trkpt><trkpt lat="41.9888367" lon="13.9550469"><ele>523.0</ele><time>2026-04-26T15:06:19.288Z</time></trkpt><trkpt lat="41.9885472" lon="13.955066"><ele>524.0</ele><time>2026-04-26T15:06:20.287Z</time></trkpt><trkpt lat="41.9882582" lon="13.9551096"><ele>525.0</ele><time>2026-04-26T15:06:21.287Z</time></trkpt><trkpt lat="41.9879693" lon="13.955173"><ele>525.0</ele><time>2026-04-26T15:06:22.287Z</time></trkpt><trkpt lat="41.9876799" lon="13.9552458"><ele>525.0</ele><time>2026-04-26T15:06:23.288Z</time></trkpt><trkpt lat="41.9873973" lon="13.9553227"><ele>526.0</ele><time>2026-04-26T15:06:24.287Z</time></trkpt><trkpt lat="41.9871181" lon="13.9554144"><ele>527.0</ele><time>2026-04-26T15:06:25.288Z</time></trkpt><trkpt lat="41.9868464" lon="13.9555132"><ele>527.5</ele><time>2026-04-26T15:06:26.287Z</time></trkpt><trkpt lat="41.9865807" lon="13.9556293"><ele>528.0</ele><time>2026-04-26T15:06:27.288Z</time></trkpt><trkpt lat="41.9863195" lon="13.9557498"><ele>530.5</ele><time>2026-04-26T15:06:28.288Z</time></trkpt><trkpt lat="41.9860645" lon="13.955881"><ele>533.0</ele><time>2026-04-26T15:06:29.288Z</time></trkpt><trkpt lat="41.9858138" lon="13.9560208"><ele>533.5</ele><time>2026-04-26T15:06:30.287Z</time></trkpt><trkpt lat="41.9855703" lon="13.9561822"><ele>534.0</ele><time>2026-04-26T15:06:31.287Z</time></trkpt><trkpt lat="41.9853302" lon="13.9563506"><ele>534.0</ele><time>2026-04-26T15:06:32.288Z</time></trkpt><trkpt lat="41.9850933" lon="13.956535"><ele>534.0</ele><time>2026-04-26T15:06:33.287Z</time></trkpt><trkpt lat="41.984854" lon="13.956741"><ele>535.5</ele><time>2026-04-26T15:06:34.287Z</time></trkpt><trkpt lat="41.9846208" lon="13.9569545"><ele>537.0</ele><time>2026-04-26T15:06:35.287Z</time></trkpt><trkpt lat="41.9843961" lon="13.9571635"><ele>537.0</ele><time>2026-04-26T15:06:36.287Z</time></trkpt><trkpt lat="41.9841826" lon="13.9573503"><ele>537.0</ele><time>2026-04-26T15:06:37.287Z</time></trkpt><trkpt lat="41.9839651" lon="13.9575289"><ele>540.5</ele><time>2026-04-26T15:06:38.287Z</time></trkpt><trkpt lat="41.9837393" lon="13.95769"><ele>544.0</ele><time>2026-04-26T15:06:39.287Z</time></trkpt><trkpt lat="41.9835155" lon="13.9578146"><ele>546.0</ele><time>2026-04-26T15:06:40.288Z</time></trkpt><trkpt lat="41.9832919" lon="13.957907"><ele>548.0</ele><time>2026-04-26T15:06:41.287Z</time></trkpt><trkpt lat="41.9830515" lon="13.957978"><ele>548.0</ele><time>2026-04-26T15:06:42.288Z</time></trkpt><trkpt lat="41.9828259" lon="13.9580235"><ele>548.0</ele><time>2026-04-26T15:06:43.288Z</time></trkpt><trkpt lat="41.9826208" lon="13.9580434"><ele>548.0</ele><time>2026-04-26T15:06:44.287Z</time></trkpt><trkpt lat="41.9824517" lon="13.95804"><ele>548.5</ele><time>2026-04-26T15:06:45.287Z</time></trkpt><trkpt lat="41.9822986" lon="13.958028"><ele>549.0</ele><time>2026-04-26T15:06:46.287Z</time></trkpt><trkpt lat="41.9821709" lon="13.9580295"><ele>549.5</ele><time>2026-04-26T15:06:47.288Z</time></trkpt><trkpt lat="41.9820709" lon="13.9580372"><ele>550.0</ele><time>2026-04-26T15:06:48.287Z</time></trkpt><trkpt lat="41.9819977" lon="13.958031"><ele>550.0</ele><time>2026-04-26T15:06:49.287Z</time></trkpt><trkpt lat="41.9819322" lon="13.9580397"><ele>550.0</ele><time>2026-04-26T15:06:53.287Z</time></trkpt><trkpt lat="41.9818106" lon="13.9580661"><ele>550.0</ele><time>2026-04-26T15:07:18.287Z</time></trkpt><trkpt lat="41.9817175" lon="13.9580809"><ele>550.0</ele><time>2026-04-26T15:07:19.287Z</time></trkpt><trkpt lat="41.9815894" lon="13.9580912"><ele>550.0</ele><time>2026-04-26T15:07:20.287Z</time></trkpt><trkpt lat="41.9814342" lon="13.9581025"><ele>550.3333333333334</ele><time>2026-04-26T15:07:21.287Z</time></trkpt><trkpt lat="41.9812518" lon="13.9581144"><ele>550.6666666666666</ele><time>2026-04-26T15:07:22.287Z</time></trkpt><trkpt lat="41.9810494" lon="13.9581258"><ele>551.0</ele><time>2026-04-26T15:07:23.287Z</time></trkpt><trkpt lat="41.980838" lon="13.9581409"><ele>551.3333333333333</ele><time>2026-04-26T15:07:24.288Z</time></trkpt><trkpt lat="41.9806397" lon="13.9581569"><ele>551.6666666666666</ele><time>2026-04-26T15:07:25.287Z</time></trkpt><trkpt lat="41.980448" lon="13.9581681"><ele>552.0</ele><time>2026-04-26T15:07:26.287Z</time></trkpt><trkpt lat="41.9802641" lon="13.9581819"><ele>552.0</ele><time>2026-04-26T15:07:27.287Z</time></trkpt><trkpt lat="41.9800804" lon="13.9582088"><ele>552.0</ele><time>2026-04-26T15:07:28.287Z</time></trkpt><trkpt lat="41.9798902" lon="13.9582565"><ele>552.0</ele><time>2026-04-26T15:07:29.288Z</time></trkpt><trkpt lat="41.9796929" lon="13.9583329"><ele>554.3333333333334</ele><time>2026-04-26T15:07:30.287Z</time></trkpt><trkpt lat="41.9794962" lon="13.9584464"><ele>556.6666666666667</ele><time>2026-04-26T15:07:31.287Z</time></trkpt><trkpt lat="41.9793097" lon="13.9585949"><ele>559.0</ele><time>2026-04-26T15:07:32.288Z</time></trkpt><trkpt lat="41.9791285" lon="13.9588033"><ele>560.0</ele><time>2026-04-26T15:07:33.287Z</time></trkpt><trkpt lat="41.9789517" lon="13.9590122"><ele>561.0</ele><time>2026-04-26T15:07:34.287Z</time></trkpt><trkpt lat="41.9787734" lon="13.9592195"><ele>565.5</ele><time>2026-04-26T15:07:35.288Z</time></trkpt><trkpt lat="41.978597" lon="13.9594142"><ele>570.0</ele><time>2026-04-26T15:07:36.287Z</time></trkpt><trkpt lat="41.9784105" lon="13.9595942"><ele>569.5</ele><time>2026-04-26T15:07:37.287Z</time></trkpt><trkpt lat="41.9782227" lon="13.959772"><ele>569.0</ele><time>2026-04-26T15:07:38.287Z</time></trkpt><trkpt lat="41.9780288" lon="13.9599552"><ele>573.5</ele><time>2026-04-26T15:07:39.287Z</time></trkpt><trkpt lat="41.97783" lon="13.9601365"><ele>578.0</ele><time>2026-04-26T15:07:40.287Z</time></trkpt><trkpt lat="41.9776462" lon="13.9603237"><ele>576.0</ele><time>2026-04-26T15:07:41.287Z</time></trkpt><trkpt lat="41.9774566" lon="13.9605286"><ele>574.0</ele><time>2026-04-26T15:07:42.287Z</time></trkpt><trkpt lat="41.9772563" lon="13.9607788"><ele>579.0</ele><time>2026-04-26T15:07:43.287Z</time></trkpt><trkpt lat="41.9770727" lon="13.9610245"><ele>584.0</ele><time>2026-04-26T15:07:44.287Z</time></trkpt><trkpt lat="41.9769" lon="13.9612435"><ele>584.0</ele><time>2026-04-26T15:07:45.287Z</time></trkpt><trkpt lat="41.9767367" lon="13.9614535"><ele>584.0</ele><time>2026-04-26T15:07:46.288Z</time></trkpt><trkpt lat="41.9765743" lon="13.9616462"><ele>584.0</ele><time>2026-04-26T15:07:47.287Z</time></trkpt><trkpt lat="41.976406" lon="13.9618086"><ele>585.3333333333333</ele><time>2026-04-26T15:07:48.287Z</time></trkpt><trkpt lat="41.9762259" lon="13.9619172"><ele>586.6666666666666</ele><time>2026-04-26T15:07:49.287Z</time></trkpt><trkpt lat="41.9760272" lon="13.9619756"><ele>588.0</ele><time>2026-04-26T15:07:50.287Z</time></trkpt><trkpt lat="41.9757846" lon="13.9620324"><ele>590.5</ele><time>2026-04-26T15:07:51.287Z</time></trkpt><trkpt lat="41.9755243" lon="13.9621011"><ele>593.0</ele><time>2026-04-26T15:07:52.287Z</time></trkpt><trkpt lat="41.9752568" lon="13.9621643"><ele>592.0</ele><time>2026-04-26T15:07:53.287Z</time></trkpt><trkpt lat="41.9749903" lon="13.9622241"><ele>591.0</ele><time>2026-04-26T15:07:54.287Z</time></trkpt><trkpt lat="41.9747321" lon="13.9622819"><ele>591.0</ele><time>2026-04-26T15:07:55.288Z</time></trkpt><trkpt lat="41.9744859" lon="13.9623341"><ele>591.0</ele><time>2026-04-26T15:07:56.287Z</time></trkpt><trkpt lat="41.9742405" lon="13.9624181"><ele>590.0</ele><time>2026-04-26T15:07:57.288Z</time></trkpt><trkpt lat="41.9740023" lon="13.962531"><ele>589.0</ele><time>2026-04-26T15:07:58.288Z</time></trkpt><trkpt lat="41.9737754" lon="13.962671"><ele>595.0</ele><time>2026-04-26T15:07:59.287Z</time></trkpt><trkpt lat="41.9735544" lon="13.9628209"><ele>601.0</ele><time>2026-04-26T15:08:00.287Z</time></trkpt><trkpt lat="41.9733389" lon="13.9629553"><ele>601.5</ele><time>2026-04-26T15:08:01.287Z</time></trkpt><trkpt lat="41.9731322" lon="13.963091"><ele>602.0</ele><time>2026-04-26T15:08:02.287Z</time></trkpt><trkpt lat="41.9729343" lon="13.9632535"><ele>610.5</ele><time>2026-04-26T15:08:03.287Z</time></trkpt><trkpt lat="41.9727398" lon="13.9634541"><ele>619.0</ele><time>2026-04-26T15:08:04.287Z</time></trkpt><trkpt lat="41.9725524" lon="13.9636799"><ele>615.5</ele><time>2026-04-26T15:08:05.288Z</time></trkpt><trkpt lat="41.9723639" lon="13.9639259"><ele>612.0</ele><time>2026-04-26T15:08:06.288Z</time></trkpt><trkpt lat="41.9721705" lon="13.9641787"><ele>619.5</ele><time>2026-04-26T15:08:07.287Z</time></trkpt><trkpt lat="41.9719667" lon="13.9644215"><ele>627.0</ele><time>2026-04-26T15:08:08.287Z</time></trkpt><trkpt lat="41.9717445" lon="13.9646524"><ele>629.0</ele><time>2026-04-26T15:08:09.287Z</time></trkpt><trkpt lat="41.9715126" lon="13.9648637"><ele>631.0</ele><time>2026-04-26T15:08:10.287Z</time></trkpt><trkpt lat="41.9712693" lon="13.9650616"><ele>631.0</ele><time>2026-04-26T15:08:11.287Z</time></trkpt><trkpt lat="41.9710166" lon="13.9652714"><ele>631.0</ele><time>2026-04-26T15:08:12.287Z</time></trkpt><trkpt lat="41.9707747" lon="13.9654728"><ele>626.0</ele><time>2026-04-26T15:08:13.287Z</time></trkpt><trkpt lat="41.9705395" lon="13.9656713"><ele>621.0</ele><time>2026-04-26T15:08:14.288Z</time></trkpt><trkpt lat="41.9703134" lon="13.9658559"><ele>628.0</ele><time>2026-04-26T15:08:15.288Z</time></trkpt><trkpt lat="41.9700941" lon="13.966028"><ele>635.0</ele><time>2026-04-26T15:08:16.287Z</time></trkpt><trkpt lat="41.9698799" lon="13.9662134"><ele>635.0</ele><time>2026-04-26T15:08:17.287Z</time></trkpt><trkpt lat="41.9696538" lon="13.966408"><ele>635.0</ele><time>2026-04-26T15:08:18.287Z</time></trkpt><trkpt lat="41.969422" lon="13.9665961"><ele>644.0</ele><time>2026-04-26T15:08:19.287Z</time></trkpt><trkpt lat="41.9691833" lon="13.9667772"><ele>653.0</ele><time>2026-04-26T15:08:20.287Z</time></trkpt><trkpt lat="41.9689282" lon="13.9669378"><ele>653.0</ele><time>2026-04-26T15:08:21.288Z</time></trkpt><trkpt lat="41.9686456" lon="13.9670831"><ele>653.0</ele><time>2026-04-26T15:08:22.287Z</time></trkpt><trkpt lat="41.9683503" lon="13.9672227"><ele>646.5</ele><time>2026-04-26T15:08:23.288Z</time></trkpt><trkpt lat="41.9680477" lon="13.9673657"><ele>640.0</ele><time>2026-04-26T15:08:24.287Z</time></trkpt><trkpt lat="41.9677541" lon="13.9674998"><ele>645.5</ele><time>2026-04-26T15:08:25.287Z</time></trkpt><trkpt lat="41.9674648" lon="13.9676252"><ele>651.0</ele><time>2026-04-26T15:08:26.287Z</time></trkpt><trkpt lat="41.9671883" lon="13.9677517"><ele>651.0</ele><time>2026-04-26T15:08:27.287Z</time></trkpt><trkpt lat="41.9669108" lon="13.9678795"><ele>651.0</ele><time>2026-04-26T15:08:28.287Z</time></trkpt><trkpt lat="41.9666444" lon="13.9680033"><ele>648.0</ele><time>2026-04-26T15:08:29.287Z</time></trkpt><trkpt lat="41.9663759" lon="13.9681336"><ele>645.0</ele><time>2026-04-26T15:08:30.288Z</time></trkpt><trkpt lat="41.9661163" lon="13.9682651"><ele>654.5</ele><time>2026-04-26T15:08:31.287Z</time></trkpt><trkpt lat="41.9658629" lon="13.9683875"><ele>664.0</ele><time>2026-04-26T15:08:32.287Z</time></trkpt><trkpt lat="41.9656065" lon="13.9685081"><ele>664.0</ele><time>2026-04-26T15:08:33.287Z</time></trkpt><trkpt lat="41.9653558" lon="13.9686306"><ele>664.0</ele><time>2026-04-26T15:08:34.288Z</time></trkpt><trkpt lat="41.965104" lon="13.9687498"><ele>662.0</ele><time>2026-04-26T15:08:35.287Z</time></trkpt><trkpt lat="41.9648493" lon="13.9688783"><ele>660.0</ele><time>2026-04-26T15:08:36.287Z</time></trkpt><trkpt lat="41.964591" lon="13.9689945"><ele>660.0</ele><time>2026-04-26T15:08:37.287Z</time></trkpt><trkpt lat="41.9643367" lon="13.9691183"><ele>660.0</ele><time>2026-04-26T15:08:38.287Z</time></trkpt><trkpt lat="41.9640886" lon="13.9692429"><ele>670.0</ele><time>2026-04-26T15:08:39.288Z</time></trkpt><trkpt lat="41.9638482" lon="13.9693535"><ele>680.0</ele><time>2026-04-26T15:08:40.287Z</time></trkpt><trkpt lat="41.9636049" lon="13.9694411"><ele>676.5</ele><time>2026-04-26T15:08:41.287Z</time></trkpt><trkpt lat="41.9633528" lon="13.9695084"><ele>673.0</ele><time>2026-04-26T15:08:42.287Z</time></trkpt><trkpt lat="41.9631094" lon="13.9695346"><ele>673.0</ele><time>2026-04-26T15:08:43.287Z</time></trkpt><trkpt lat="41.9628801" lon="13.9695399"><ele>673.0</ele><time>2026-04-26T15:08:44.287Z</time></trkpt><trkpt lat="41.962668" lon="13.9695459"><ele>673.0</ele><time>2026-04-26T15:08:45.288Z</time></trkpt><trkpt lat="41.9624729" lon="13.9695605"><ele>673.0</ele><time>2026-04-26T15:08:46.288Z</time></trkpt><trkpt lat="41.9623132" lon="13.9695932"><ele>673.0</ele><time>2026-04-26T15:08:47.288Z</time></trkpt><trkpt lat="41.9621866" lon="13.969661"><ele>673.0</ele><time>2026-04-26T15:08:48.287Z</time></trkpt><trkpt lat="41.9620779" lon="13.9697913"><ele>673.0</ele><time>2026-04-26T15:08:49.288Z</time></trkpt><trkpt lat="41.9620104" lon="13.9699452"><ele>678.25</ele><time>2026-04-26T15:08:50.287Z</time></trkpt><trkpt lat="41.9619954" lon="13.9701323"><ele>683.5</ele><time>2026-04-26T15:08:51.288Z</time></trkpt><trkpt lat="41.9620319" lon="13.9703113"><ele>688.75</ele><time>2026-04-26T15:08:52.288Z</time></trkpt><trkpt lat="41.9621069" lon="13.9704701"><ele>694.0</ele><time>2026-04-26T15:08:53.287Z</time></trkpt><trkpt lat="41.962226" lon="13.9705672"><ele>694.0</ele><time>2026-04-26T15:08:54.287Z</time></trkpt><trkpt lat="41.9623656" lon="13.9705828"><ele>694.0</ele><time>2026-04-26T15:08:55.287Z</time></trkpt><trkpt lat="41.9625369" lon="13.9705645"><ele>694.0</ele><time>2026-04-26T15:08:56.287Z</time></trkpt><trkpt lat="41.9627551" lon="13.970495"><ele>698.0</ele><time>2026-04-26T15:08:57.287Z</time></trkpt><trkpt lat="41.9629974" lon="13.9703876"><ele>702.0</ele><time>2026-04-26T15:08:58.287Z</time></trkpt><trkpt lat="41.9632636" lon="13.9702692"><ele>704.5</ele><time>2026-04-26T15:08:59.288Z</time></trkpt><trkpt lat="41.9635524" lon="13.9701582"><ele>707.0</ele><time>2026-04-26T15:09:00.287Z</time></trkpt><trkpt lat="41.9638261" lon="13.9700662"><ele>695.0</ele><time>2026-04-26T15:09:01.288Z</time></trkpt><trkpt lat="41.964069" lon="13.9699832"><ele>683.0</ele><time>2026-04-26T15:09:02.287Z</time></trkpt><trkpt lat="41.9643171" lon="13.969934"><ele>683.0</ele><time>2026-04-26T15:09:03.287Z</time></trkpt><trkpt lat="41.9645878" lon="13.9699366"><ele>683.0</ele><time>2026-04-26T15:09:04.287Z</time></trkpt><trkpt lat="41.9648729" lon="13.9699882"><ele>687.5</ele><time>2026-04-26T15:09:05.288Z</time></trkpt><trkpt lat="41.9651641" lon="13.9700247"><ele>692.0</ele><time>2026-04-26T15:09:06.287Z</time></trkpt><trkpt lat="41.9654704" lon="13.9700094"><ele>692.0</ele><time>2026-04-26T15:09:07.287Z</time></trkpt><trkpt lat="41.9657829" lon="13.9699445"><ele>692.0</ele><time>2026-04-26T15:09:08.288Z</time></trkpt><trkpt lat="41.9661003" lon="13.9698428"><ele>698.0</ele><time>2026-04-26T15:09:09.287Z</time></trkpt><trkpt lat="41.9664132" lon="13.9697349"><ele>704.0</ele><time>2026-04-26T15:09:10.287Z</time></trkpt><trkpt lat="41.9667366" lon="13.9696602"><ele>706.5</ele><time>2026-04-26T15:09:11.287Z</time></trkpt><trkpt lat="41.9670734" lon="13.9696053"><ele>709.0</ele><time>2026-04-26T15:09:12.287Z</time></trkpt><trkpt lat="41.9674224" lon="13.9695665"><ele>708.5</ele><time>2026-04-26T15:09:13.287Z</time></trkpt><trkpt lat="41.9677878" lon="13.9695587"><ele>708.0</ele><time>2026-04-26T15:09:14.288Z</time></trkpt><trkpt lat="41.9681616" lon="13.9695957"><ele>709.5</ele><time>2026-04-26T15:09:15.287Z</time></trkpt><trkpt lat="41.9685443" lon="13.9696298"><ele>711.0</ele><time>2026-04-26T15:09:16.287Z</time></trkpt><trkpt lat="41.9689545" lon="13.9696051"><ele>713.5</ele><time>2026-04-26T15:09:17.287Z</time></trkpt><trkpt lat="41.969344" lon="13.9696086"><ele>716.0</ele><time>2026-04-26T15:09:18.287Z</time></trkpt><trkpt lat="41.969703" lon="13.9695998"><ele>719.5</ele><time>2026-04-26T15:09:19.287Z</time></trkpt><trkpt lat="41.9700599" lon="13.9696033"><ele>723.0</ele><time>2026-04-26T15:09:20.288Z</time></trkpt><trkpt lat="41.9704002" lon="13.9696069"><ele>723.0</ele><time>2026-04-26T15:09:21.288Z</time></trkpt><trkpt lat="41.9707284" lon="13.969606"><ele>723.0</ele><time>2026-04-26T15:09:22.287Z</time></trkpt><trkpt lat="41.9710477" lon="13.9696212"><ele>724.0</ele><time>2026-04-26T15:09:23.287Z</time></trkpt><trkpt lat="41.9713615" lon="13.9696521"><ele>725.0</ele><time>2026-04-26T15:09:24.287Z</time></trkpt><trkpt lat="41.9716815" lon="13.969708"><ele>725.5</ele><time>2026-04-26T15:09:25.287Z</time></trkpt><trkpt lat="41.9719924" lon="13.9697854"><ele>726.0</ele><time>2026-04-26T15:09:26.287Z</time></trkpt><trkpt lat="41.9723126" lon="13.9698688"><ele>726.0</ele><time>2026-04-26T15:09:27.287Z</time></trkpt><trkpt lat="41.9726386" lon="13.9699567"><ele>726.0</ele><time>2026-04-26T15:09:28.288Z</time></trkpt><trkpt lat="41.9729707" lon="13.9700313"><ele>734.0</ele><time>2026-04-26T15:09:29.287Z</time></trkpt><trkpt lat="41.9733094" lon="13.9700805"><ele>742.0</ele><time>2026-04-26T15:09:30.287Z</time></trkpt><trkpt lat="41.9736403" lon="13.9700919"><ele>743.5</ele><time>2026-04-26T15:09:31.287Z</time></trkpt><trkpt lat="41.9739677" lon="13.9700846"><ele>745.0</ele><time>2026-04-26T15:09:32.287Z</time></trkpt><trkpt lat="41.974284" lon="13.9700836"><ele>748.0</ele><time>2026-04-26T15:09:33.287Z</time></trkpt><trkpt lat="41.9745935" lon="13.9700838"><ele>751.0</ele><time>2026-04-26T15:09:34.288Z</time></trkpt><trkpt lat="41.9749057" lon="13.9700818"><ele>755.0</ele><time>2026-04-26T15:09:35.287Z</time></trkpt><trkpt lat="41.9752184" lon="13.9700773"><ele>759.0</ele><time>2026-04-26T15:09:36.287Z</time></trkpt><trkpt lat="41.9755342" lon="13.9700666"><ele>765.5</ele><time>2026-04-26T15:09:37.287Z</time></trkpt><trkpt lat="41.9758575" lon="13.9700474"><ele>772.0</ele><time>2026-04-26T15:09:38.287Z</time></trkpt><trkpt lat="41.9761889" lon="13.9700276"><ele>772.0</ele><time>2026-04-26T15:09:39.287Z</time></trkpt><trkpt lat="41.9765062" lon="13.9700267"><ele>772.0</ele><time>2026-04-26T15:09:40.287Z</time></trkpt><trkpt lat="41.9768109" lon="13.9700377"><ele>774.0</ele><time>2026-04-26T15:09:41.287Z</time></trkpt><trkpt lat="41.9770791" lon="13.9700397"><ele>776.0</ele><time>2026-04-26T15:09:42.287Z</time></trkpt><trkpt lat="41.9773253" lon="13.9700505"><ele>770.0</ele><time>2026-04-26T15:09:43.287Z</time></trkpt><trkpt lat="41.9775692" lon="13.9700927"><ele>764.0</ele><time>2026-04-26T15:09:44.287Z</time></trkpt><trkpt lat="41.9778159" lon="13.9702026"><ele>764.0</ele><time>2026-04-26T15:09:45.287Z</time></trkpt><trkpt lat="41.978056" lon="13.9703447"><ele>764.0</ele><time>2026-04-26T15:09:46.287Z</time></trkpt><trkpt lat="41.9783023" lon="13.9705143"><ele>758.0</ele><time>2026-04-26T15:09:47.287Z</time></trkpt><trkpt lat="41.9785424" lon="13.9706554"><ele>752.0</ele><time>2026-04-26T15:09:48.288Z</time></trkpt><trkpt lat="41.9787841" lon="13.9707597"><ele>752.0</ele><time>2026-04-26T15:09:49.287Z</time></trkpt><trkpt lat="41.9790437" lon="13.970799"><ele>752.0</ele><time>2026-04-26T15:09:50.288Z</time></trkpt><trkpt lat="41.9793248" lon="13.970828"><ele>756.5</ele><time>2026-04-26T15:09:51.287Z</time></trkpt><trkpt lat="41.9796128" lon="13.9708454"><ele>761.0</ele><time>2026-04-26T15:09:52.288Z</time></trkpt><trkpt lat="41.9798681" lon="13.9708701"><ele>762.6666666666666</ele><time>2026-04-26T15:09:53.287Z</time></trkpt><trkpt lat="41.9800898" lon="13.9708918"><ele>764.3333333333334</ele><time>2026-04-26T15:09:54.288Z</time></trkpt><trkpt lat="41.9802838" lon="13.9709303"><ele>766.0</ele><time>2026-04-26T15:09:55.287Z</time></trkpt><trkpt lat="41.9804426" lon="13.9709887"><ele>766.0</ele><time>2026-04-26T15:09:56.287Z</time></trkpt><trkpt lat="41.9805717" lon="13.9710793"><ele>766.0</ele><time>2026-04-26T15:09:57.287Z</time></trkpt><trkpt lat="41.9806753" lon="13.9712289"><ele>766.0</ele><time>2026-04-26T15:09:58.288Z</time></trkpt><trkpt lat="41.9807379" lon="13.971418"><ele>766.0</ele><time>2026-04-26T15:09:59.287Z</time></trkpt><trkpt lat="41.9807633" lon="13.9716093"><ele>766.0</ele><time>2026-04-26T15:10:00.287Z</time></trkpt><trkpt lat="41.980749" lon="13.9718038"><ele>766.0</ele><time>2026-04-26T15:10:01.288Z</time></trkpt><trkpt lat="41.9806894" lon="13.971972"><ele>766.0</ele><time>2026-04-26T15:10:02.287Z</time></trkpt><trkpt lat="41.9805949" lon="13.9721297"><ele>770.75</ele><time>2026-04-26T15:10:03.288Z</time></trkpt><trkpt lat="41.9804778" lon="13.9722401"><ele>775.5</ele><time>2026-04-26T15:10:04.287Z</time></trkpt><trkpt lat="41.9803325" lon="13.9722997"><ele>780.25</ele><time>2026-04-26T15:10:05.287Z</time></trkpt><trkpt lat="41.9801784" lon="13.9723115"><ele>785.0</ele><time>2026-04-26T15:10:06.287Z</time></trkpt><trkpt lat="41.9800075" lon="13.9722567"><ele>785.0</ele><time>2026-04-26T15:10:07.287Z</time></trkpt><trkpt lat="41.9798286" lon="13.9721444"><ele>785.0</ele><time>2026-04-26T15:10:08.288Z</time></trkpt><trkpt lat="41.9796188" lon="13.9719779"><ele>785.0</ele><time>2026-04-26T15:10:09.288Z</time></trkpt><trkpt lat="41.9793857" lon="13.9717765"><ele>783.0</ele><time>2026-04-26T15:10:10.287Z</time></trkpt><trkpt lat="41.9791149" lon="13.9715855"><ele>781.0</ele><time>2026-04-26T15:10:11.288Z</time></trkpt><trkpt lat="41.978838" lon="13.9714128"><ele>781.0</ele><time>2026-04-26T15:10:12.288Z</time></trkpt><trkpt lat="41.9785967" lon="13.9712943"><ele>781.0</ele><time>2026-04-26T15:10:13.287Z</time></trkpt><trkpt lat="41.9783815" lon="13.9711735"><ele>785.0</ele><time>2026-04-26T15:10:14.287Z</time></trkpt><trkpt lat="41.9781342" lon="13.9710956"><ele>789.0</ele><time>2026-04-26T15:10:15.287Z</time></trkpt><trkpt lat="41.9778732" lon="13.9710542"><ele>789.0</ele><time>2026-04-26T15:10:16.287Z</time></trkpt><trkpt lat="41.977613" lon="13.9710631"><ele>789.0</ele><time>2026-04-26T15:10:17.287Z</time></trkpt><trkpt lat="41.9773627" lon="13.9711123"><ele>796.0</ele><time>2026-04-26T15:10:18.287Z</time></trkpt><trkpt lat="41.9771196" lon="13.9712337"><ele>803.0</ele><time>2026-04-26T15:10:19.287Z</time></trkpt><trkpt lat="41.9768609" lon="13.9714007"><ele>800.5</ele><time>2026-04-26T15:10:20.287Z</time></trkpt><trkpt lat="41.9766005" lon="13.9716053"><ele>798.0</ele><time>2026-04-26T15:10:21.287Z</time></trkpt><trkpt lat="41.9763265" lon="13.9718455"><ele>803.0</ele><time>2026-04-26T15:10:22.287Z</time></trkpt><trkpt lat="41.9760297" lon="13.9720977"><ele>808.0</ele><time>2026-04-26T15:10:23.287Z</time></trkpt><trkpt lat="41.9757495" lon="13.9723422"><ele>820.5</ele><time>2026-04-26T15:10:24.288Z</time></trkpt><trkpt lat="41.9754833" lon="13.972551"><ele>833.0</ele><time>2026-04-26T15:10:25.287Z</time></trkpt><trkpt lat="41.9752026" lon="13.9727379"><ele>827.5</ele><time>2026-04-26T15:10:26.287Z</time></trkpt><trkpt lat="41.9748959" lon="13.9729081"><ele>822.0</ele><time>2026-04-26T15:10:27.287Z</time></trkpt><trkpt lat="41.9745716" lon="13.9730579"><ele>822.0</ele><time>2026-04-26T15:10:28.287Z</time></trkpt><trkpt lat="41.9742367" lon="13.9731973"><ele>822.0</ele><time>2026-04-26T15:10:29.287Z</time></trkpt><trkpt lat="41.9738921" lon="13.9733406"><ele>824.0</ele><time>2026-04-26T15:10:30.287Z</time></trkpt><trkpt lat="41.9735458" lon="13.9734831"><ele>826.0</ele><time>2026-04-26T15:10:31.288Z</time></trkpt><trkpt lat="41.9732062" lon="13.9736315"><ele>826.0</ele><time>2026-04-26T15:10:32.287Z</time></trkpt><trkpt lat="41.9728829" lon="13.9737698"><ele>826.0</ele><time>2026-04-26T15:10:33.287Z</time></trkpt><trkpt lat="41.9725856" lon="13.9739039"><ele>825.0</ele><time>2026-04-26T15:10:34.288Z</time></trkpt><trkpt lat="41.9723065" lon="13.9740177"><ele>824.0</ele><time>2026-04-26T15:10:35.288Z</time></trkpt><trkpt lat="41.9720327" lon="13.9741238"><ele>835.0</ele><time>2026-04-26T15:10:36.288Z</time></trkpt><trkpt lat="41.9717732" lon="13.9742354"><ele>846.0</ele><time>2026-04-26T15:10:37.287Z</time></trkpt><trkpt lat="41.9715306" lon="13.9743562"><ele>846.0</ele><time>2026-04-26T15:10:38.287Z</time></trkpt><trkpt lat="41.9713134" lon="13.9745107"><ele>846.0</ele><time>2026-04-26T15:10:39.288Z</time></trkpt><trkpt lat="41.9711116" lon="13.9746881"><ele>846.0</ele><time>2026-04-26T15:10:40.288Z</time></trkpt><trkpt lat="41.9709393" lon="13.9748861"><ele>846.0</ele><time>2026-04-26T15:10:41.288Z</time></trkpt><trkpt lat="41.9707744" lon="13.9751061"><ele>850.3333333333333</ele><time>2026-04-26T15:10:42.287Z</time></trkpt><trkpt lat="41.970609" lon="13.9753041"><ele>854.6666666666666</ele><time>2026-04-26T15:10:43.287Z</time></trkpt><trkpt lat="41.9704199" lon="13.9754724"><ele>859.0</ele><time>2026-04-26T15:10:44.287Z</time></trkpt><trkpt lat="41.9702327" lon="13.9755989"><ele>859.0</ele><time>2026-04-26T15:10:45.288Z</time></trkpt><trkpt lat="41.9700303" lon="13.9756745"><ele>859.0</ele><time>2026-04-26T15:10:46.287Z</time></trkpt><trkpt lat="41.9698081" lon="13.9757084"><ele>859.0</ele><time>2026-04-26T15:10:47.288Z</time></trkpt><trkpt lat="41.9695679" lon="13.9757403"><ele>852.0</ele><time>2026-04-26T15:10:48.287Z</time></trkpt><trkpt lat="41.9692978" lon="13.9757851"><ele>845.0</ele><time>2026-04-26T15:10:49.287Z</time></trkpt><trkpt lat="41.9690035" lon="13.9758372"><ele>857.0</ele><time>2026-04-26T15:10:50.287Z</time></trkpt><trkpt lat="41.9687004" lon="13.9758772"><ele>869.0</ele><time>2026-04-26T15:10:51.287Z</time></trkpt><trkpt lat="41.9684116" lon="13.9759078"><ele>868.5</ele><time>2026-04-26T15:10:52.287Z</time></trkpt><trkpt lat="41.9681451" lon="13.9759351"><ele>868.0</ele><time>2026-04-26T15:10:53.288Z</time></trkpt><trkpt lat="41.9678726" lon="13.9760097"><ele>868.0</ele><time>2026-04-26T15:10:54.287Z</time></trkpt><trkpt lat="41.9675913" lon="13.9761415"><ele>868.0</ele><time>2026-04-26T15:10:55.287Z</time></trkpt><trkpt lat="41.9672896" lon="13.9763138"><ele>863.0</ele><time>2026-04-26T15:10:56.287Z</time></trkpt><trkpt lat="41.9669723" lon="13.9764879"><ele>858.0</ele><time>2026-04-26T15:10:57.288Z</time></trkpt><trkpt lat="41.9666295" lon="13.9766463"><ele>865.0</ele><time>2026-04-26T15:10:58.288Z</time></trkpt><trkpt lat="41.9662662" lon="13.9767953"><ele>872.0</ele><time>2026-04-26T15:10:59.287Z</time></trkpt><trkpt lat="41.9658961" lon="13.9769481"><ele>871.5</ele><time>2026-04-26T15:11:00.287Z</time></trkpt><trkpt lat="41.965523" lon="13.9771152"><ele>871.0</ele><time>2026-04-26T15:11:01.288Z</time></trkpt><trkpt lat="41.9651398" lon="13.977296"><ele>867.0</ele><time>2026-04-26T15:11:02.287Z</time></trkpt><trkpt lat="41.9647449" lon="13.9774672"><ele>863.0</ele><time>2026-04-26T15:11:03.288Z</time></trkpt><trkpt lat="41.9643582" lon="13.9776338"><ele>873.5</ele><time>2026-04-26T15:11:04.288Z</time></trkpt><trkpt lat="41.9639758" lon="13.977794"><ele>884.0</ele><time>2026-04-26T15:11:05.288Z</time></trkpt><trkpt lat="41.9636229" lon="13.9779465"><ele>879.0</ele><time>2026-04-26T15:11:06.288Z</time></trkpt><trkpt lat="41.9632838" lon="13.9780905"><ele>874.0</ele><time>2026-04-26T15:11:07.287Z</time></trkpt><trkpt lat="41.9629588" lon="13.9782276"><ele>881.0</ele><time>2026-04-26T15:11:08.288Z</time></trkpt><trkpt lat="41.9626462" lon="13.9783595"><ele>888.0</ele><time>2026-04-26T15:11:09.294Z</time></trkpt><trkpt lat="41.9623289" lon="13.9784923"><ele>888.0</ele><time>2026-04-26T15:11:10.295Z</time></trkpt><trkpt lat="41.9620196" lon="13.9786482"><ele>888.0</ele><time>2026-04-26T15:11:11.294Z</time></trkpt><trkpt lat="41.9617072" lon="13.9788244"><ele>886.0</ele><time>2026-04-26T15:11:12.294Z</time></trkpt><trkpt lat="41.9613905" lon="13.9790333"><ele>884.0</ele><time>2026-04-26T15:11:13.294Z</time></trkpt><trkpt lat="41.9610794" lon="13.9792594"><ele>891.0</ele><time>2026-04-26T15:11:14.295Z</time></trkpt><trkpt lat="41.9607708" lon="13.9794909"><ele>898.0</ele><time>2026-04-26T15:11:15.295Z</time></trkpt><trkpt lat="41.9604675" lon="13.9797184"><ele>898.0</ele><time>2026-04-26T15:11:16.295Z</time></trkpt><trkpt lat="41.9601661" lon="13.9799431"><ele>898.0</ele><time>2026-04-26T15:11:17.294Z</time></trkpt><trkpt lat="41.9598876" lon="13.9801557"><ele>903.5</ele><time>2026-04-26T15:11:18.294Z</time></trkpt><trkpt lat="41.9596226" lon="13.9803608"><ele>909.0</ele><time>2026-04-26T15:11:19.294Z</time></trkpt><trkpt lat="41.9593709" lon="13.9805535"><ele>903.5</ele><time>2026-04-26T15:11:20.294Z</time></trkpt><trkpt lat="41.9591315" lon="13.980753"><ele>898.0</ele><time>2026-04-26T15:11:21.294Z</time></trkpt><trkpt lat="41.9589021" lon="13.9809297"><ele>913.0</ele><time>2026-04-26T15:11:22.294Z</time></trkpt><trkpt lat="41.9586787" lon="13.9810913"><ele>928.0</ele><time>2026-04-26T15:11:23.295Z</time></trkpt><trkpt lat="41.9584587" lon="13.9812206"><ele>926.6666666666666</ele><time>2026-04-26T15:11:24.294Z</time></trkpt><trkpt lat="41.958248" lon="13.9813004"><ele>925.3333333333333</ele><time>2026-04-26T15:11:25.294Z</time></trkpt><trkpt lat="41.95802" lon="13.9813364"><ele>924.0</ele><time>2026-04-26T15:11:26.295Z</time></trkpt><trkpt lat="41.9578005" lon="13.9813258"><ele>924.0</ele><time>2026-04-26T15:11:27.295Z</time></trkpt><trkpt lat="41.9576102" lon="13.9812649"><ele>924.0</ele><time>2026-04-26T15:11:28.294Z</time></trkpt><trkpt lat="41.9574385" lon="13.9811897"><ele>924.0</ele><time>2026-04-26T15:11:29.294Z</time></trkpt><trkpt lat="41.9572692" lon="13.9810777"><ele>923.0</ele><time>2026-04-26T15:11:30.294Z</time></trkpt><trkpt lat="41.9571073" lon="13.9809215"><ele>922.0</ele><time>2026-04-26T15:11:31.295Z</time></trkpt><trkpt lat="41.9569684" lon="13.980739"><ele>921.0</ele><time>2026-04-26T15:11:32.295Z</time></trkpt><trkpt lat="41.9568338" lon="13.9805327"><ele>912.0</ele><time>2026-04-26T15:11:33.294Z</time></trkpt><trkpt lat="41.9567294" lon="13.9802885"><ele>903.0</ele><time>2026-04-26T15:11:34.294Z</time></trkpt><trkpt lat="41.956646" lon="13.9800319"><ele>894.0</ele><time>2026-04-26T15:11:35.294Z</time></trkpt><trkpt lat="41.9565973" lon="13.9797785"><ele>891.3333333333333</ele><time>2026-04-26T15:11:36.295Z</time></trkpt><trkpt lat="41.9565701" lon="13.9795171"><ele>888.6666666666666</ele><time>2026-04-26T15:11:37.294Z</time></trkpt><trkpt lat="41.9565771" lon="13.9792352"><ele>886.0</ele><time>2026-04-26T15:11:38.294Z</time></trkpt><trkpt lat="41.9566033" lon="13.9789421"><ele>891.0</ele><time>2026-04-26T15:11:39.294Z</time></trkpt><trkpt lat="41.9566788" lon="13.9786379"><ele>896.0</ele><time>2026-04-26T15:11:40.294Z</time></trkpt><trkpt lat="41.9567699" lon="13.9783176"><ele>896.0</ele><time>2026-04-26T15:11:41.294Z</time></trkpt><trkpt lat="41.9568773" lon="13.9779844"><ele>896.0</ele><time>2026-04-26T15:11:42.294Z</time></trkpt><trkpt lat="41.9569706" lon="13.9776602"><ele>901.0</ele><time>2026-04-26T15:11:43.295Z</time></trkpt><trkpt lat="41.9570545" lon="13.9773612"><ele>906.0</ele><time>2026-04-26T15:11:44.294Z</time></trkpt><trkpt lat="41.957109" lon="13.97707"><ele>906.0</ele><time>2026-04-26T15:11:45.295Z</time></trkpt><trkpt lat="41.9571481" lon="13.9767966"><ele>906.0</ele><time>2026-04-26T15:11:46.294Z</time></trkpt><trkpt lat="41.9571565" lon="13.9765239"><ele>906.0</ele><time>2026-04-26T15:11:47.295Z</time></trkpt><trkpt lat="41.957127" lon="13.9762419"><ele>906.5</ele><time>2026-04-26T15:11:48.294Z</time></trkpt><trkpt lat="41.9570638" lon="13.9759514"><ele>907.0</ele><time>2026-04-26T15:11:49.294Z</time></trkpt><trkpt lat="41.9569567" lon="13.9756687"><ele>904.6666666666666</ele><time>2026-04-26T15:11:50.294Z</time></trkpt><trkpt lat="41.9568251" lon="13.9754254"><ele>902.3333333333333</ele><time>2026-04-26T15:11:51.294Z</time></trkpt><trkpt lat="41.9566688" lon="13.9752296"><ele>900.0</ele><time>2026-04-26T15:11:52.294Z</time></trkpt><trkpt lat="41.9564909" lon="13.9750653"><ele>909.6666666666667</ele><time>2026-04-26T15:11:53.295Z</time></trkpt><trkpt lat="41.9562906" lon="13.9749296"><ele>919.3333333333334</ele><time>2026-04-26T15:11:54.294Z</time></trkpt><trkpt lat="41.9560842" lon="13.9748468"><ele>929.0</ele><time>2026-04-26T15:11:55.294Z</time></trkpt><trkpt lat="41.9558737" lon="13.9748146"><ele>937.5</ele><time>2026-04-26T15:11:56.295Z</time></trkpt><trkpt lat="41.9556394" lon="13.9748331"><ele>946.0</ele><time>2026-04-26T15:11:57.294Z</time></trkpt><trkpt lat="41.95541" lon="13.9748877"><ele>946.0</ele><time>2026-04-26T15:11:58.294Z</time></trkpt><trkpt lat="41.9551842" lon="13.9750054"><ele>946.0</ele><time>2026-04-26T15:11:59.294Z</time></trkpt><trkpt lat="41.9549626" lon="13.9751774"><ele>960.5</ele><time>2026-04-26T15:12:00.294Z</time></trkpt><trkpt lat="41.9547442" lon="13.9753489"><ele>975.0</ele><time>2026-04-26T15:12:01.294Z</time></trkpt><trkpt lat="41.9545359" lon="13.9754662"><ele>975.0</ele><time>2026-04-26T15:12:02.295Z</time></trkpt><trkpt lat="41.9543301" lon="13.9755522"><ele>975.0</ele><time>2026-04-26T15:12:03.294Z</time></trkpt><trkpt lat="41.9541089" lon="13.9755906"><ele>975.0</ele><time>2026-04-26T15:12:04.295Z</time></trkpt><trkpt lat="41.9521478" lon="13.9757221"><ele>977.0</ele><time>2026-04-26T15:12:11.294Z</time></trkpt><trkpt lat="41.9518342" lon="13.9757024"><ele>979.0</ele><time>2026-04-26T15:12:12.295Z</time></trkpt><trkpt lat="41.951515" lon="13.9756876"><ele>979.0</ele><time>2026-04-26T15:12:13.295Z</time></trkpt><trkpt lat="41.9512073" lon="13.9756678"><ele>979.0</ele><time>2026-04-26T15:12:14.294Z</time></trkpt><trkpt lat="41.9509048" lon="13.9756279"><ele>987.0</ele><time>2026-04-26T15:12:15.295Z</time></trkpt><trkpt lat="41.9505985" lon="13.9755592"><ele>995.0</ele><time>2026-04-26T15:12:16.294Z</time></trkpt><trkpt lat="41.9502867" lon="13.9754699"><ele>1001.5</ele><time>2026-04-26T15:12:17.294Z</time></trkpt><trkpt lat="41.9500048" lon="13.9753644"><ele>1008.0</ele><time>2026-04-26T15:12:18.295Z</time></trkpt><trkpt lat="41.9497302" lon="13.9752529"><ele>1008.0</ele><time>2026-04-26T15:12:19.295Z</time></trkpt><trkpt lat="41.9494649" lon="13.9751523"><ele>1008.0</ele><time>2026-04-26T15:12:20.294Z</time></trkpt><trkpt lat="41.9491959" lon="13.9750952"><ele>1017.0</ele><time>2026-04-26T15:12:21.294Z</time></trkpt><trkpt lat="41.9489169" lon="13.9750902"><ele>1026.0</ele><time>2026-04-26T15:12:22.294Z</time></trkpt><trkpt lat="41.9486181" lon="13.9751241"><ele>1028.0</ele><time>2026-04-26T15:12:23.294Z</time></trkpt><trkpt lat="41.9483087" lon="13.975199"><ele>1030.0</ele><time>2026-04-26T15:12:24.294Z</time></trkpt><trkpt lat="41.9479867" lon="13.9752897"><ele>1030.0</ele><time>2026-04-26T15:12:25.294Z</time></trkpt><trkpt lat="41.9476368" lon="13.9753919"><ele>1030.0</ele><time>2026-04-26T15:12:26.294Z</time></trkpt><trkpt lat="41.9472792" lon="13.9754806"><ele>1024.5</ele><time>2026-04-26T15:12:27.295Z</time></trkpt><trkpt lat="41.9469237" lon="13.9755611"><ele>1019.0</ele><time>2026-04-26T15:12:28.295Z</time></trkpt><trkpt lat="41.9465985" lon="13.9756472"><ele>1013.5</ele><time>2026-04-26T15:12:29.294Z</time></trkpt><trkpt lat="41.9463069" lon="13.9757134"><ele>1008.0</ele><time>2026-04-26T15:12:30.295Z</time></trkpt><trkpt lat="41.9460299" lon="13.9757759"><ele>1031.0</ele><time>2026-04-26T15:12:31.294Z</time></trkpt><trkpt lat="41.9457633" lon="13.9758552"><ele>1054.0</ele><time>2026-04-26T15:12:32.294Z</time></trkpt><trkpt lat="41.9455129" lon="13.9759682"><ele>1054.0</ele><time>2026-04-26T15:12:33.294Z</time></trkpt><trkpt lat="41.9452726" lon="13.9761206"><ele>1054.0</ele><time>2026-04-26T15:12:34.295Z</time></trkpt><trkpt lat="41.9450473" lon="13.976323"><ele>1060.5</ele><time>2026-04-26T15:12:35.294Z</time></trkpt><trkpt lat="41.9448485" lon="13.9765565"><ele>1067.0</ele><time>2026-04-26T15:12:36.295Z</time></trkpt><trkpt lat="41.9446658" lon="13.9767884"><ele>1067.0</ele><time>2026-04-26T15:12:37.294Z</time></trkpt><trkpt lat="41.9444804" lon="13.9770128"><ele>1067.0</ele><time>2026-04-26T15:12:38.295Z</time></trkpt><trkpt lat="41.944293" lon="13.9771917"><ele>1053.0</ele><time>2026-04-26T15:12:39.294Z</time></trkpt><trkpt lat="41.9440902" lon="13.9773368"><ele>1039.0</ele><time>2026-04-26T15:12:40.294Z</time></trkpt><trkpt lat="41.9438808" lon="13.977442"><ele>1039.0</ele><time>2026-04-26T15:12:41.294Z</time></trkpt><trkpt lat="41.9436553" lon="13.9774991"><ele>1039.0</ele><time>2026-04-26T15:12:42.295Z</time></trkpt><trkpt lat="41.9434395" lon="13.9774975"><ele>1039.0</ele><time>2026-04-26T15:12:43.295Z</time></trkpt><trkpt lat="41.9432318" lon="13.9774406"><ele>1035.6666666666665</ele><time>2026-04-26T15:12:44.294Z</time></trkpt><trkpt lat="41.9430298" lon="13.977348"><ele>1032.3333333333333</ele><time>2026-04-26T15:12:45.294Z</time></trkpt><trkpt lat="41.9428429" lon="13.9772288"><ele>1029.0</ele><time>2026-04-26T15:12:46.294Z</time></trkpt><trkpt lat="41.9426797" lon="13.9770808"><ele>1030.0</ele><time>2026-04-26T15:12:47.294Z</time></trkpt><trkpt lat="41.942544" lon="13.9768947"><ele>1031.0</ele><time>2026-04-26T15:12:48.295Z</time></trkpt><trkpt lat="41.9424246" lon="13.9766678"><ele>1032.0</ele><time>2026-04-26T15:12:49.294Z</time></trkpt><trkpt lat="41.9423369" lon="13.9764262"><ele>1026.0</ele><time>2026-04-26T15:12:50.294Z</time></trkpt><trkpt lat="41.9422852" lon="13.9761637"><ele>1020.0</ele><time>2026-04-26T15:12:51.294Z</time></trkpt><trkpt lat="41.942253" lon="13.9758887"><ele>1014.0</ele><time>2026-04-26T15:12:52.294Z</time></trkpt><trkpt lat="41.9422509" lon="13.9756256"><ele>1014.6666666666667</ele><time>2026-04-26T15:12:53.294Z</time></trkpt><trkpt lat="41.9422834" lon="13.9753509"><ele>1015.3333333333334</ele><time>2026-04-26T15:12:54.294Z</time></trkpt><trkpt lat="41.9423481" lon="13.9751024"><ele>1016.0</ele><time>2026-04-26T15:12:55.294Z</time></trkpt><trkpt lat="41.9424536" lon="13.9748493"><ele>1022.3333333333334</ele><time>2026-04-26T15:12:56.294Z</time></trkpt><trkpt lat="41.9425839" lon="13.974625"><ele>1028.6666666666667</ele><time>2026-04-26T15:12:57.294Z</time></trkpt><trkpt lat="41.9427432" lon="13.97439"><ele>1035.0</ele><time>2026-04-26T15:12:58.294Z</time></trkpt><trkpt lat="41.9429566" lon="13.9741873"><ele>1035.0</ele><time>2026-04-26T15:12:59.294Z</time></trkpt><trkpt lat="41.9431933" lon="13.9739879"><ele>1035.0</ele><time>2026-04-26T15:13:00.294Z</time></trkpt><trkpt lat="41.9434276" lon="13.973787"><ele>1002.0</ele><time>2026-04-26T15:13:01.294Z</time></trkpt><trkpt lat="41.9440125" lon="13.9733575"><ele>1005.0</ele><time>2026-04-26T15:13:03.295Z</time></trkpt><trkpt lat="41.9442625" lon="13.9729863"><ele>1008.0</ele><time>2026-04-26T15:13:04.295Z</time></trkpt><trkpt lat="41.9444842" lon="13.9727188"><ele>1033.5</ele><time>2026-04-26T15:13:05.294Z</time></trkpt><trkpt lat="41.9447372" lon="13.9724402"><ele>1059.0</ele><time>2026-04-26T15:13:06.294Z</time></trkpt><trkpt lat="41.9450146" lon="13.9721633"><ele>1027.0</ele><time>2026-04-26T15:13:07.295Z</time></trkpt><trkpt lat="41.946337" lon="13.9711529"><ele>1027.0</ele><time>2026-04-26T15:13:11.294Z</time></trkpt><trkpt lat="41.9466373" lon="13.9709527"><ele>1027.0</ele><time>2026-04-26T15:13:12.295Z</time></trkpt><trkpt lat="41.9468672" lon="13.9708016"><ele>1026.5</ele><time>2026-04-26T15:13:13.295Z</time></trkpt><trkpt lat="41.9470729" lon="13.9706307"><ele>1026.0</ele><time>2026-04-26T15:13:14.294Z</time></trkpt><trkpt lat="41.9472823" lon="13.9704598"><ele>1026.0</ele><time>2026-04-26T15:13:15.294Z</time></trkpt><trkpt lat="41.9474783" lon="13.9702754"><ele>1026.0</ele><time>2026-04-26T15:13:16.294Z</time></trkpt><trkpt lat="41.9476724" lon="13.9700632"><ele>1023.5</ele><time>2026-04-26T15:13:17.294Z</time></trkpt><trkpt lat="41.9478403" lon="13.9698315"><ele>1021.0</ele><time>2026-04-26T15:13:18.295Z</time></trkpt><trkpt lat="41.9479728" lon="13.9695901"><ele>1021.0</ele><time>2026-04-26T15:13:19.294Z</time></trkpt><trkpt lat="41.9480699" lon="13.9693177"><ele>1021.0</ele><time>2026-04-26T15:13:20.294Z</time></trkpt><trkpt lat="41.9481504" lon="13.9690305"><ele>1035.5</ele><time>2026-04-26T15:13:21.294Z</time></trkpt><trkpt lat="41.9481928" lon="13.9687193"><ele>1050.0</ele><time>2026-04-26T15:13:22.294Z</time></trkpt><trkpt lat="41.9481866" lon="13.9684025"><ele>1054.6666666666667</ele><time>2026-04-26T15:13:23.294Z</time></trkpt><trkpt lat="41.9481534" lon="13.9681052"><ele>1059.3333333333335</ele><time>2026-04-26T15:13:24.294Z</time></trkpt><trkpt lat="41.9480897" lon="13.967817"><ele>1064.0</ele><time>2026-04-26T15:13:25.294Z</time></trkpt><trkpt lat="41.9479947" lon="13.9675568"><ele>1065.0</ele><time>2026-04-26T15:13:26.294Z</time></trkpt><trkpt lat="41.947872" lon="13.9673224"><ele>1066.0</ele><time>2026-04-26T15:13:27.294Z</time></trkpt><trkpt lat="41.9477278" lon="13.9671058"><ele>1067.0</ele><time>2026-04-26T15:13:28.295Z</time></trkpt><trkpt lat="41.9475603" lon="13.9669099"><ele>1067.0</ele><time>2026-04-26T15:13:29.294Z</time></trkpt><trkpt lat="41.9473865" lon="13.9667575"><ele>1067.0</ele><time>2026-04-26T15:13:30.295Z</time></trkpt><trkpt lat="41.9472002" lon="13.9666518"><ele>1067.0</ele><time>2026-04-26T15:13:31.295Z</time></trkpt><trkpt lat="41.9469822" lon="13.9665988"><ele>1067.0</ele><time>2026-04-26T15:13:32.294Z</time></trkpt><trkpt lat="41.9467557" lon="13.9665709"><ele>1067.0</ele><time>2026-04-26T15:13:33.294Z</time></trkpt><trkpt lat="41.9465239" lon="13.9665872"><ele>1071.5</ele><time>2026-04-26T15:13:34.294Z</time></trkpt><trkpt lat="41.9462986" lon="13.9666501"><ele>1076.0</ele><time>2026-04-26T15:13:35.294Z</time></trkpt><trkpt lat="41.9460839" lon="13.9667643"><ele>1070.5</ele><time>2026-04-26T15:13:36.295Z</time></trkpt><trkpt lat="41.9458746" lon="13.9669416"><ele>1065.0</ele><time>2026-04-26T15:13:37.295Z</time></trkpt><trkpt lat="41.9456702" lon="13.9671459"><ele>1065.0</ele><time>2026-04-26T15:13:38.294Z</time></trkpt><trkpt lat="41.9454602" lon="13.9673779"><ele>1065.0</ele><time>2026-04-26T15:13:39.294Z</time></trkpt><trkpt lat="41.945228" lon="13.9676213"><ele>1069.5</ele><time>2026-04-26T15:13:40.294Z</time></trkpt><trkpt lat="41.9449962" lon="13.9678644"><ele>1074.0</ele><time>2026-04-26T15:13:41.295Z</time></trkpt><trkpt lat="41.9447711" lon="13.9681054"><ele>1074.0</ele><time>2026-04-26T15:13:42.295Z</time></trkpt><trkpt lat="41.9445514" lon="13.9683341"><ele>1074.0</ele><time>2026-04-26T15:13:43.294Z</time></trkpt><trkpt lat="41.9443425" lon="13.9685664"><ele>1076.5</ele><time>2026-04-26T15:13:44.294Z</time></trkpt><trkpt lat="41.9441368" lon="13.9687828"><ele>1079.0</ele><time>2026-04-26T15:13:45.294Z</time></trkpt><trkpt lat="41.9439481" lon="13.9690013"><ele>1075.0</ele><time>2026-04-26T15:13:46.295Z</time></trkpt><trkpt lat="41.9437815" lon="13.9692411"><ele>1071.0</ele><time>2026-04-26T15:13:47.294Z</time></trkpt><trkpt lat="41.9436262" lon="13.9695216"><ele>1071.0</ele><time>2026-04-26T15:13:48.294Z</time></trkpt><trkpt lat="41.9434901" lon="13.9698199"><ele>1071.0</ele><time>2026-04-26T15:13:49.294Z</time></trkpt><trkpt lat="41.9433677" lon="13.970138"><ele>1081.0</ele><time>2026-04-26T15:13:50.295Z</time></trkpt><trkpt lat="41.943259" lon="13.9704483"><ele>1091.0</ele><time>2026-04-26T15:13:51.294Z</time></trkpt><trkpt lat="41.9431485" lon="13.9707224"><ele>1087.0</ele><time>2026-04-26T15:13:52.294Z</time></trkpt><trkpt lat="41.9430285" lon="13.9709765"><ele>1083.0</ele><time>2026-04-26T15:13:53.295Z</time></trkpt><trkpt lat="41.9428911" lon="13.9711964"><ele>1079.0</ele><time>2026-04-26T15:13:54.294Z</time></trkpt><trkpt lat="41.9427337" lon="13.9713824"><ele>1079.0</ele><time>2026-04-26T15:13:55.294Z</time></trkpt><trkpt lat="41.9425658" lon="13.9715216"><ele>1079.0</ele><time>2026-04-26T15:13:56.295Z</time></trkpt><trkpt lat="41.9423757" lon="13.971633"><ele>1079.0</ele><time>2026-04-26T15:13:57.294Z</time></trkpt><trkpt lat="41.9421745" lon="13.9717177"><ele>1075.5</ele><time>2026-04-26T15:13:58.295Z</time></trkpt><trkpt lat="41.9419486" lon="13.9717909"><ele>1072.0</ele><time>2026-04-26T15:13:59.294Z</time></trkpt><trkpt lat="41.9417147" lon="13.9718586"><ele>1082.0</ele><time>2026-04-26T15:14:00.295Z</time></trkpt><trkpt lat="41.9414716" lon="13.9719213"><ele>1092.0</ele><time>2026-04-26T15:14:01.294Z</time></trkpt><trkpt lat="41.9412236" lon="13.9719786"><ele>1092.0</ele><time>2026-04-26T15:14:02.295Z</time></trkpt><trkpt lat="41.9409754" lon="13.9720356"><ele>1092.0</ele><time>2026-04-26T15:14:03.295Z</time></trkpt><trkpt lat="41.9407322" lon="13.9720926"><ele>1096.0</ele><time>2026-04-26T15:14:04.294Z</time></trkpt><trkpt lat="41.9404883" lon="13.9721486"><ele>1100.0</ele><time>2026-04-26T15:14:05.294Z</time></trkpt><trkpt lat="41.9402386" lon="13.9722044"><ele>1106.5</ele><time>2026-04-26T15:14:06.294Z</time></trkpt><trkpt lat="41.9399878" lon="13.9722551"><ele>1113.0</ele><time>2026-04-26T15:14:07.294Z</time></trkpt><trkpt lat="41.9397226" lon="13.9723122"><ele>1113.0</ele><time>2026-04-26T15:14:08.294Z</time></trkpt><trkpt lat="41.9394461" lon="13.9723867"><ele>1113.0</ele><time>2026-04-26T15:14:09.295Z</time></trkpt><trkpt lat="41.9391618" lon="13.9724754"><ele>1098.0</ele><time>2026-04-26T15:14:10.295Z</time></trkpt><trkpt lat="41.9388702" lon="13.9725996"><ele>1083.0</ele><time>2026-04-26T15:14:11.294Z</time></trkpt><trkpt lat="41.9385715" lon="13.9727697"><ele>1098.5</ele><time>2026-04-26T15:14:12.294Z</time></trkpt><trkpt lat="41.9382566" lon="13.9729633"><ele>1114.0</ele><time>2026-04-26T15:14:13.295Z</time></trkpt><trkpt lat="41.9379304" lon="13.9731728"><ele>1106.0</ele><time>2026-04-26T15:14:14.294Z</time></trkpt><trkpt lat="41.937599" lon="13.9733832"><ele>1098.0</ele><time>2026-04-26T15:14:15.294Z</time></trkpt><trkpt lat="41.9372898" lon="13.9735721"><ele>1098.0</ele><time>2026-04-26T15:14:16.294Z</time></trkpt><trkpt lat="41.9370007" lon="13.9737242"><ele>1098.0</ele><time>2026-04-26T15:14:17.294Z</time></trkpt><trkpt lat="41.9367229" lon="13.9738334"><ele>1112.0</ele><time>2026-04-26T15:14:18.294Z</time></trkpt><trkpt lat="41.9364457" lon="13.9739045"><ele>1126.0</ele><time>2026-04-26T15:14:19.294Z</time></trkpt><trkpt lat="41.9361596" lon="13.9739341"><ele>1131.0</ele><time>2026-04-26T15:14:20.294Z</time></trkpt><trkpt lat="41.9358715" lon="13.973935"><ele>1136.0</ele><time>2026-04-26T15:14:21.294Z</time></trkpt><trkpt lat="41.9355853" lon="13.9738996"><ele>1136.0</ele><time>2026-04-26T15:14:22.294Z</time></trkpt><trkpt lat="41.9352881" lon="13.9738426"><ele>1136.0</ele><time>2026-04-26T15:14:23.294Z</time></trkpt><trkpt lat="41.9349779" lon="13.9737846"><ele>1135.5</ele><time>2026-04-26T15:14:24.295Z</time></trkpt><trkpt lat="41.9346639" lon="13.9737244"><ele>1135.0</ele><time>2026-04-26T15:14:25.294Z</time></trkpt><trkpt lat="41.934354" lon="13.9736698"><ele>1140.5</ele><time>2026-04-26T15:14:26.294Z</time></trkpt><trkpt lat="41.9340588" lon="13.9736081"><ele>1146.0</ele><time>2026-04-26T15:14:27.294Z</time></trkpt><trkpt lat="41.9337893" lon="13.9735731"><ele>1146.0</ele><time>2026-04-26T15:14:28.294Z</time></trkpt><trkpt lat="41.9335261" lon="13.9735669"><ele>1146.0</ele><time>2026-04-26T15:14:29.295Z</time></trkpt><trkpt lat="41.9332647" lon="13.9736113"><ele>1145.0</ele><time>2026-04-26T15:14:30.294Z</time></trkpt><trkpt lat="41.9330049" lon="13.9736952"><ele>1144.0</ele><time>2026-04-26T15:14:31.294Z</time></trkpt><trkpt lat="41.9327656" lon="13.973832"><ele>1140.0</ele><time>2026-04-26T15:14:32.295Z</time></trkpt><trkpt lat="41.9325311" lon="13.9740207"><ele>1136.0</ele><time>2026-04-26T15:14:33.294Z</time></trkpt><trkpt lat="41.9323004" lon="13.9742171"><ele>1136.0</ele><time>2026-04-26T15:14:34.294Z</time></trkpt><trkpt lat="41.9320744" lon="13.9743861"><ele>1136.0</ele><time>2026-04-26T15:14:35.294Z</time></trkpt><trkpt lat="41.9318395" lon="13.9745292"><ele>1147.5</ele><time>2026-04-26T15:14:36.294Z</time></trkpt><trkpt lat="41.9315778" lon="13.9746282"><ele>1159.0</ele><time>2026-04-26T15:14:37.294Z</time></trkpt><trkpt lat="41.9313245" lon="13.9746877"><ele>1159.0</ele><time>2026-04-26T15:14:38.295Z</time></trkpt><trkpt lat="41.9310582" lon="13.9747063"><ele>1159.0</ele><time>2026-04-26T15:14:39.295Z</time></trkpt><trkpt lat="41.9307893" lon="13.9746922"><ele>1166.5</ele><time>2026-04-26T15:14:40.294Z</time></trkpt><trkpt lat="41.9305091" lon="13.9746902"><ele>1174.0</ele><time>2026-04-26T15:14:41.295Z</time></trkpt><trkpt lat="41.9302355" lon="13.9747152"><ele>1176.5</ele><time>2026-04-26T15:14:42.294Z</time></trkpt><trkpt lat="41.9299794" lon="13.9747711"><ele>1179.0</ele><time>2026-04-26T15:14:43.295Z</time></trkpt><trkpt lat="41.9297352" lon="13.9748895"><ele>1157.0</ele><time>2026-04-26T15:14:44.294Z</time></trkpt><trkpt lat="41.9294784" lon="13.975028"><ele>1135.0</ele><time>2026-04-26T15:14:45.294Z</time></trkpt><trkpt lat="41.9292162" lon="13.9751947"><ele>1133.0</ele><time>2026-04-26T15:14:46.294Z</time></trkpt><trkpt lat="41.9289365" lon="13.9753782"><ele>1131.0</ele><time>2026-04-26T15:14:47.294Z</time></trkpt><trkpt lat="41.9286431" lon="13.9755634"><ele>1144.0</ele><time>2026-04-26T15:14:48.295Z</time></trkpt><trkpt lat="41.9283411" lon="13.9757474"><ele>1157.0</ele><time>2026-04-26T15:14:49.294Z</time></trkpt><trkpt lat="41.9280363" lon="13.9759426"><ele>1157.0</ele><time>2026-04-26T15:14:50.294Z</time></trkpt><trkpt lat="41.9277271" lon="13.976133"><ele>1157.0</ele><time>2026-04-26T15:14:51.294Z</time></trkpt><trkpt lat="41.9274158" lon="13.9763184"><ele>1159.0</ele><time>2026-04-26T15:14:52.295Z</time></trkpt><trkpt lat="41.9271106" lon="13.9765164"><ele>1161.0</ele><time>2026-04-26T15:14:53.295Z</time></trkpt><trkpt lat="41.9268132" lon="13.9767296"><ele>1173.0</ele><time>2026-04-26T15:14:54.294Z</time></trkpt><trkpt lat="41.9265187" lon="13.9769763"><ele>1185.0</ele><time>2026-04-26T15:14:55.295Z</time></trkpt><trkpt lat="41.9262254" lon="13.9772811"><ele>1181.5</ele><time>2026-04-26T15:14:56.295Z</time></trkpt><trkpt lat="41.9259343" lon="13.9776223"><ele>1178.0</ele><time>2026-04-26T15:14:57.294Z</time></trkpt><trkpt lat="41.9256587" lon="13.9779414"><ele>1187.0</ele><time>2026-04-26T15:14:58.294Z</time></trkpt><trkpt lat="41.9254037" lon="13.9782301"><ele>1196.0</ele><time>2026-04-26T15:14:59.294Z</time></trkpt><trkpt lat="41.9251608" lon="13.9784979"><ele>1204.5</ele><time>2026-04-26T15:15:00.294Z</time></trkpt><trkpt lat="41.9249234" lon="13.9787667"><ele>1213.0</ele><time>2026-04-26T15:15:01.294Z</time></trkpt><trkpt lat="41.9246771" lon="13.9790115"><ele>1221.5</ele><time>2026-04-26T15:15:02.294Z</time></trkpt><trkpt lat="41.9244222" lon="13.9792279"><ele>1230.0</ele><time>2026-04-26T15:15:03.294Z</time></trkpt><trkpt lat="41.9241599" lon="13.9794147"><ele>1231.5</ele><time>2026-04-26T15:15:04.294Z</time></trkpt><trkpt lat="41.923888" lon="13.9795638"><ele>1233.0</ele><time>2026-04-26T15:15:05.294Z</time></trkpt><trkpt lat="41.9236092" lon="13.9796694"><ele>1239.0</ele><time>2026-04-26T15:15:06.295Z</time></trkpt><trkpt lat="41.9233184" lon="13.9797433"><ele>1245.0</ele><time>2026-04-26T15:15:07.294Z</time></trkpt><trkpt lat="41.9230015" lon="13.9798056"><ele>1245.0</ele><time>2026-04-26T15:15:08.294Z</time></trkpt><trkpt lat="41.9226801" lon="13.9798744"><ele>1245.0</ele><time>2026-04-26T15:15:09.294Z</time></trkpt><trkpt lat="41.9223497" lon="13.9799473"><ele>1248.0</ele><time>2026-04-26T15:15:10.294Z</time></trkpt><trkpt lat="41.9220329" lon="13.9800082"><ele>1251.0</ele><time>2026-04-26T15:15:11.294Z</time></trkpt><trkpt lat="41.9217174" lon="13.9800753"><ele>1265.0</ele><time>2026-04-26T15:15:12.295Z</time></trkpt><trkpt lat="41.9214045" lon="13.9801257"><ele>1279.0</ele><time>2026-04-26T15:15:13.294Z</time></trkpt><trkpt lat="41.9210897" lon="13.9801833"><ele>1281.0</ele><time>2026-04-26T15:15:14.294Z</time></trkpt><trkpt lat="41.9133854" lon="13.9817627"><ele>1281.0</ele><time>2026-04-26T15:15:39.295Z</time></trkpt><trkpt lat="41.9131241" lon="13.9819171"><ele>1281.0</ele><time>2026-04-26T15:15:40.294Z</time></trkpt><trkpt lat="41.9128583" lon="13.9821049"><ele>1281.0</ele><time>2026-04-26T15:15:41.295Z</time></trkpt><trkpt lat="41.912559" lon="13.9823226"><ele>1281.0</ele><time>2026-04-26T15:15:42.295Z</time></trkpt><trkpt lat="41.9122612" lon="13.9825663"><ele>1281.0</ele><time>2026-04-26T15:15:43.295Z</time></trkpt><trkpt lat="41.9119636" lon="13.9828024"><ele>1281.0</ele><time>2026-04-26T15:15:44.294Z</time></trkpt><trkpt lat="41.9116599" lon="13.9830549"><ele>1281.5</ele><time>2026-04-26T15:15:45.294Z</time></trkpt><trkpt lat="41.9113407" lon="13.9833047"><ele>1282.0</ele><time>2026-04-26T15:15:46.294Z</time></trkpt><trkpt lat="41.9110144" lon="13.9835471"><ele>1282.0</ele><time>2026-04-26T15:15:47.294Z</time></trkpt><trkpt lat="41.910677" lon="13.9837783"><ele>1282.0</ele><time>2026-04-26T15:15:48.294Z</time></trkpt><trkpt lat="41.910332" lon="13.9839977"><ele>1283.0</ele><time>2026-04-26T15:15:49.294Z</time></trkpt><trkpt lat="41.9099809" lon="13.9841962"><ele>1284.0</ele><time>2026-04-26T15:15:50.294Z</time></trkpt><trkpt lat="41.9096216" lon="13.9843834"><ele>1284.0</ele><time>2026-04-26T15:15:51.294Z</time></trkpt><trkpt lat="41.9092589" lon="13.9845703"><ele>1284.0</ele><time>2026-04-26T15:15:52.294Z</time></trkpt><trkpt lat="41.9088977" lon="13.9847491"><ele>1285.0</ele><time>2026-04-26T15:15:53.295Z</time></trkpt><trkpt lat="41.9085548" lon="13.9849177"><ele>1286.0</ele><time>2026-04-26T15:15:54.295Z</time></trkpt><trkpt lat="41.9082341" lon="13.9850771"><ele>1287.5</ele><time>2026-04-26T15:15:55.294Z</time></trkpt><trkpt lat="41.9079239" lon="13.9852263"><ele>1289.0</ele><time>2026-04-26T15:15:56.294Z</time></trkpt><trkpt lat="41.9076187" lon="13.98537"><ele>1289.0</ele><time>2026-04-26T15:15:57.295Z</time></trkpt><trkpt lat="41.9073196" lon="13.9855158"><ele>1289.0</ele><time>2026-04-26T15:15:58.295Z</time></trkpt><trkpt lat="41.9070271" lon="13.9856566"><ele>1289.0</ele><time>2026-04-26T15:15:59.294Z</time></trkpt><trkpt lat="41.9067316" lon="13.9858031"><ele>1289.0</ele><time>2026-04-26T15:16:00.294Z</time></trkpt><trkpt lat="41.9064329" lon="13.985951"><ele>1289.5</ele><time>2026-04-26T15:16:01.294Z</time></trkpt><trkpt lat="41.9061286" lon="13.9861041"><ele>1290.0</ele><time>2026-04-26T15:16:02.295Z</time></trkpt><trkpt lat="41.905821" lon="13.986258"><ele>1290.5</ele><time>2026-04-26T15:16:03.294Z</time></trkpt><trkpt lat="41.9055115" lon="13.9864105"><ele>1291.0</ele><time>2026-04-26T15:16:04.294Z</time></trkpt><trkpt lat="41.9051996" lon="13.9865591"><ele>1292.0</ele><time>2026-04-26T15:16:05.295Z</time></trkpt><trkpt lat="41.9048819" lon="13.9867175"><ele>1293.0</ele><time>2026-04-26T15:16:06.294Z</time></trkpt><trkpt lat="41.9045604" lon="13.9868776"><ele>1293.0</ele><time>2026-04-26T15:16:07.295Z</time></trkpt><trkpt lat="41.904249" lon="13.9870305"><ele>1293.0</ele><time>2026-04-26T15:16:08.294Z</time></trkpt><trkpt lat="41.9039425" lon="13.9871812"><ele>1292.0</ele><time>2026-04-26T15:16:09.295Z</time></trkpt><trkpt lat="41.9036347" lon="13.9873367"><ele>1291.0</ele><time>2026-04-26T15:16:10.294Z</time></trkpt><trkpt lat="41.9033243" lon="13.9874892"><ele>1289.0</ele><time>2026-04-26T15:16:11.294Z</time></trkpt><trkpt lat="41.903015" lon="13.987645"><ele>1287.0</ele><time>2026-04-26T15:16:12.294Z</time></trkpt><trkpt lat="41.9027005" lon="13.987797"><ele>1286.5</ele><time>2026-04-26T15:16:13.295Z</time></trkpt><trkpt lat="41.9023811" lon="13.9879515"><ele>1286.0</ele><time>2026-04-26T15:16:14.294Z</time></trkpt><trkpt lat="41.9020625" lon="13.9881052"><ele>1285.5</ele><time>2026-04-26T15:16:15.294Z</time></trkpt><trkpt lat="41.9017432" lon="13.9882589"><ele>1285.0</ele><time>2026-04-26T15:16:16.294Z</time></trkpt><trkpt lat="41.9014253" lon="13.9884131"><ele>1284.0</ele><time>2026-04-26T15:16:17.294Z</time></trkpt><trkpt lat="41.9011086" lon="13.9885724"><ele>1283.0</ele><time>2026-04-26T15:16:18.294Z</time></trkpt><trkpt lat="41.9007902" lon="13.9887309"><ele>1283.0</ele><time>2026-04-26T15:16:19.294Z</time></trkpt><trkpt lat="41.9004768" lon="13.9888833"><ele>1283.0</ele><time>2026-04-26T15:16:20.294Z</time></trkpt><trkpt lat="41.9001663" lon="13.9890345"><ele>1281.5</ele><time>2026-04-26T15:16:21.294Z</time></trkpt><trkpt lat="41.8998592" lon="13.9891895"><ele>1280.0</ele><time>2026-04-26T15:16:22.295Z</time></trkpt><trkpt lat="41.8995508" lon="13.9893407"><ele>1281.0</ele><time>2026-04-26T15:16:23.294Z</time></trkpt><trkpt lat="41.8992453" lon="13.9894898"><ele>1282.0</ele><time>2026-04-26T15:16:24.294Z</time></trkpt><trkpt lat="41.8989404" lon="13.9896397"><ele>1282.0</ele><time>2026-04-26T15:16:25.294Z</time></trkpt><trkpt lat="41.8986344" lon="13.9897903"><ele>1282.0</ele><time>2026-04-26T15:16:26.294Z</time></trkpt><trkpt lat="41.8983314" lon="13.9899431"><ele>1285.5</ele><time>2026-04-26T15:16:27.295Z</time></trkpt><trkpt lat="41.8980361" lon="13.9900869"><ele>1289.0</ele><time>2026-04-26T15:16:28.294Z</time></trkpt><trkpt lat="41.8977504" lon="13.9902193"><ele>1288.0</ele><time>2026-04-26T15:16:29.294Z</time></trkpt><trkpt lat="41.8974807" lon="13.9903542"><ele>1287.0</ele><time>2026-04-26T15:16:30.294Z</time></trkpt><trkpt lat="41.8972269" lon="13.9904788"><ele>1287.0</ele><time>2026-04-26T15:16:31.294Z</time></trkpt><trkpt lat="41.8969806" lon="13.9906067"><ele>1287.0</ele><time>2026-04-26T15:16:32.294Z</time></trkpt><trkpt lat="41.8967312" lon="13.9907402"><ele>1284.5</ele><time>2026-04-26T15:16:33.295Z</time></trkpt><trkpt lat="41.8964836" lon="13.9908969"><ele>1282.0</ele><time>2026-04-26T15:16:34.294Z</time></trkpt><trkpt lat="41.8962364" lon="13.9910802"><ele>1282.0</ele><time>2026-04-26T15:16:35.294Z</time></trkpt><trkpt lat="41.8959884" lon="13.9913008"><ele>1282.0</ele><time>2026-04-26T15:16:36.295Z</time></trkpt><trkpt lat="41.8957455" lon="13.9915488"><ele>1281.0</ele><time>2026-04-26T15:16:37.294Z</time></trkpt><trkpt lat="41.8955077" lon="13.9918225"><ele>1280.0</ele><time>2026-04-26T15:16:38.294Z</time></trkpt><trkpt lat="41.8952669" lon="13.9921159"><ele>1280.5</ele><time>2026-04-26T15:16:39.295Z</time></trkpt><trkpt lat="41.8950334" lon="13.9924075"><ele>1281.0</ele><time>2026-04-26T15:16:40.294Z</time></trkpt><trkpt lat="41.8948045" lon="13.9926958"><ele>1281.0</ele><time>2026-04-26T15:16:41.294Z</time></trkpt><trkpt lat="41.8945797" lon="13.9929716"><ele>1281.0</ele><time>2026-04-26T15:16:42.295Z</time></trkpt><trkpt lat="41.89436" lon="13.9932401"><ele>1280.5</ele><time>2026-04-26T15:16:43.294Z</time></trkpt><trkpt lat="41.8941398" lon="13.9935101"><ele>1280.0</ele><time>2026-04-26T15:16:44.294Z</time></trkpt><trkpt lat="41.8939223" lon="13.9937758"><ele>1280.0</ele><time>2026-04-26T15:16:45.294Z</time></trkpt><trkpt lat="41.8937065" lon="13.9940485"><ele>1280.0</ele><time>2026-04-26T15:16:46.295Z</time></trkpt><trkpt lat="41.8934892" lon="13.9943127"><ele>1280.5</ele><time>2026-04-26T15:16:47.294Z</time></trkpt><trkpt lat="41.8932707" lon="13.9945744"><ele>1281.0</ele><time>2026-04-26T15:16:48.295Z</time></trkpt><trkpt lat="41.8930565" lon="13.9948422"><ele>1287.0</ele><time>2026-04-26T15:16:49.294Z</time></trkpt><trkpt lat="41.8928381" lon="13.9951099"><ele>1293.0</ele><time>2026-04-26T15:16:50.295Z</time></trkpt><trkpt lat="41.8926186" lon="13.9953787"><ele>1296.5</ele><time>2026-04-26T15:16:51.294Z</time></trkpt><trkpt lat="41.8924008" lon="13.9956454"><ele>1300.0</ele><time>2026-04-26T15:16:52.294Z</time></trkpt><trkpt lat="41.8921787" lon="13.9959354"><ele>1300.0</ele><time>2026-04-26T15:16:53.295Z</time></trkpt><trkpt lat="41.8919534" lon="13.9962162"><ele>1300.0</ele><time>2026-04-26T15:16:54.294Z</time></trkpt><trkpt lat="41.8917274" lon="13.996499"><ele>1298.5</ele><time>2026-04-26T15:16:55.294Z</time></trkpt><trkpt lat="41.8914969" lon="13.9967773"><ele>1297.0</ele><time>2026-04-26T15:16:56.294Z</time></trkpt><trkpt lat="41.8912643" lon="13.9970631"><ele>1297.0</ele><time>2026-04-26T15:16:57.294Z</time></trkpt><trkpt lat="41.8910354" lon="13.9973535"><ele>1297.0</ele><time>2026-04-26T15:16:58.294Z</time></trkpt><trkpt lat="41.8908042" lon="13.9976411"><ele>1292.0</ele><time>2026-04-26T15:16:59.294Z</time></trkpt><trkpt lat="41.890569" lon="13.9979267"><ele>1287.0</ele><time>2026-04-26T15:17:00.294Z</time></trkpt><trkpt lat="41.8903211" lon="13.9981908"><ele>1282.5</ele><time>2026-04-26T15:17:01.294Z</time></trkpt><trkpt lat="41.890084" lon="13.998481"><ele>1278.0</ele><time>2026-04-26T15:17:02.294Z</time></trkpt><trkpt lat="41.8898502" lon="13.9987725"><ele>1278.0</ele><time>2026-04-26T15:17:03.295Z</time></trkpt><trkpt lat="41.8896134" lon="13.999069"><ele>1278.0</ele><time>2026-04-26T15:17:04.294Z</time></trkpt><trkpt lat="41.8893764" lon="13.9993647"><ele>1277.0</ele><time>2026-04-26T15:17:05.294Z</time></trkpt><trkpt lat="41.8891402" lon="13.9996599"><ele>1276.0</ele><time>2026-04-26T15:17:06.294Z</time></trkpt><trkpt lat="41.8889027" lon="13.9999539"><ele>1276.0</ele><time>2026-04-26T15:17:07.294Z</time></trkpt><trkpt lat="41.888663" lon="14.000248"><ele>1276.0</ele><time>2026-04-26T15:17:08.295Z</time></trkpt><trkpt lat="41.8884296" lon="14.0005465"><ele>1275.0</ele><time>2026-04-26T15:17:09.295Z</time></trkpt><trkpt lat="41.888188" lon="14.0008479"><ele>1274.0</ele><time>2026-04-26T15:17:10.295Z</time></trkpt><trkpt lat="41.8879491" lon="14.001137"><ele>1274.0</ele><time>2026-04-26T15:17:11.294Z</time></trkpt><trkpt lat="41.8877107" lon="14.0014274"><ele>1274.0</ele><time>2026-04-26T15:17:12.294Z</time></trkpt><trkpt lat="41.8874703" lon="14.0017206"><ele>1274.0</ele><time>2026-04-26T15:17:13.295Z</time></trkpt><trkpt lat="41.8872285" lon="14.0020177"><ele>1274.0</ele><time>2026-04-26T15:17:14.295Z</time></trkpt><trkpt lat="41.8869882" lon="14.0023136"><ele>1273.0</ele><time>2026-04-26T15:17:15.294Z</time></trkpt><trkpt lat="41.8867488" lon="14.0026072"><ele>1272.0</ele><time>2026-04-26T15:17:16.294Z</time></trkpt><trkpt lat="41.8865163" lon="14.0028994"><ele>1272.0</ele><time>2026-04-26T15:17:17.294Z</time></trkpt><trkpt lat="41.8862826" lon="14.0031883"><ele>1272.0</ele><time>2026-04-26T15:17:18.295Z</time></trkpt><trkpt lat="41.8860543" lon="14.003473"><ele>1270.5</ele><time>2026-04-26T15:17:19.295Z</time></trkpt><trkpt lat="41.8858304" lon="14.0037487"><ele>1269.0</ele><time>2026-04-26T15:17:20.294Z</time></trkpt><trkpt lat="41.8856078" lon="14.0040214"><ele>1268.5</ele><time>2026-04-26T15:17:21.294Z</time></trkpt><trkpt lat="41.8853841" lon="14.004296"><ele>1268.0</ele><time>2026-04-26T15:17:22.294Z</time></trkpt><trkpt lat="41.8851601" lon="14.0045696"><ele>1267.5</ele><time>2026-04-26T15:17:23.295Z</time></trkpt><trkpt lat="41.8849344" lon="14.0048468"><ele>1267.0</ele><time>2026-04-26T15:17:24.294Z</time></trkpt><trkpt lat="41.8847089" lon="14.0051263"><ele>1266.5</ele><time>2026-04-26T15:17:25.294Z</time></trkpt><trkpt lat="41.8844774" lon="14.0054086"><ele>1266.0</ele><time>2026-04-26T15:17:26.294Z</time></trkpt><trkpt lat="41.8842421" lon="14.0056959"><ele>1266.0</ele><time>2026-04-26T15:17:27.294Z</time></trkpt><trkpt lat="41.8840095" lon="14.0059822"><ele>1266.0</ele><time>2026-04-26T15:17:28.294Z</time></trkpt><trkpt lat="41.8837767" lon="14.006278"><ele>1266.0</ele><time>2026-04-26T15:17:29.294Z</time></trkpt><trkpt lat="41.8835381" lon="14.0065762"><ele>1266.0</ele><time>2026-04-26T15:17:30.294Z</time></trkpt><trkpt lat="41.8832945" lon="14.006874"><ele>1264.5</ele><time>2026-04-26T15:17:31.295Z</time></trkpt><trkpt lat="41.8830487" lon="14.00718"><ele>1263.0</ele><time>2026-04-26T15:17:32.295Z</time></trkpt><trkpt lat="41.8828025" lon="14.0074883"><ele>1263.5</ele><time>2026-04-26T15:17:33.294Z</time></trkpt><trkpt lat="41.8825551" lon="14.0077898"><ele>1264.0</ele><time>2026-04-26T15:17:34.294Z</time></trkpt><trkpt lat="41.8823075" lon="14.0080916"><ele>1263.0</ele><time>2026-04-26T15:17:35.295Z</time></trkpt><trkpt lat="41.8820585" lon="14.0083915"><ele>1262.0</ele><time>2026-04-26T15:17:36.295Z</time></trkpt><trkpt lat="41.8818118" lon="14.0086925"><ele>1261.5</ele><time>2026-04-26T15:17:37.294Z</time></trkpt><trkpt lat="41.8815651" lon="14.008995"><ele>1261.0</ele><time>2026-04-26T15:17:38.294Z</time></trkpt><trkpt lat="41.8813204" lon="14.0092952"><ele>1260.5</ele><time>2026-04-26T15:17:39.294Z</time></trkpt><trkpt lat="41.8810753" lon="14.0095954"><ele>1260.0</ele><time>2026-04-26T15:17:40.294Z</time></trkpt><trkpt lat="41.880828" lon="14.0098928"><ele>1259.5</ele><time>2026-04-26T15:17:41.294Z</time></trkpt><trkpt lat="41.8805805" lon="14.0101963"><ele>1259.0</ele><time>2026-04-26T15:17:42.294Z</time></trkpt><trkpt lat="41.8803347" lon="14.010498"><ele>1258.5</ele><time>2026-04-26T15:17:43.295Z</time></trkpt><trkpt lat="41.8800896" lon="14.0108002"><ele>1258.0</ele><time>2026-04-26T15:17:44.295Z</time></trkpt><trkpt lat="41.8798498" lon="14.0110899"><ele>1257.0</ele><time>2026-04-26T15:17:45.294Z</time></trkpt><trkpt lat="41.8796087" lon="14.0113832"><ele>1256.0</ele><time>2026-04-26T15:17:46.294Z</time></trkpt><trkpt lat="41.8793675" lon="14.011679"><ele>1254.5</ele><time>2026-04-26T15:17:47.294Z</time></trkpt><trkpt lat="41.87913" lon="14.0119702"><ele>1253.0</ele><time>2026-04-26T15:17:48.294Z</time></trkpt><trkpt lat="41.8788921" lon="14.0122655"><ele>1253.0</ele><time>2026-04-26T15:17:49.302Z</time></trkpt><trkpt lat="41.8786499" lon="14.0125657"><ele>1253.0</ele><time>2026-04-26T15:17:50.302Z</time></trkpt><trkpt lat="41.8784062" lon="14.0128687"><ele>1252.5</ele><time>2026-04-26T15:17:51.302Z</time></trkpt><trkpt lat="41.878162" lon="14.0131721"><ele>1252.0</ele><time>2026-04-26T15:17:52.303Z</time></trkpt><trkpt lat="41.8779097" lon="14.0134788"><ele>1251.0</ele><time>2026-04-26T15:17:53.302Z</time></trkpt><trkpt lat="41.8776646" lon="14.0137822"><ele>1250.0</ele><time>2026-04-26T15:17:54.302Z</time></trkpt><trkpt lat="41.8774212" lon="14.0140829"><ele>1249.5</ele><time>2026-04-26T15:17:55.302Z</time></trkpt><trkpt lat="41.8771741" lon="14.0143878"><ele>1249.0</ele><time>2026-04-26T15:17:56.302Z</time></trkpt><trkpt lat="41.8769251" lon="14.0146969"><ele>1249.0</ele><time>2026-04-26T15:17:57.302Z</time></trkpt><trkpt lat="41.8766804" lon="14.0149976"><ele>1249.0</ele><time>2026-04-26T15:17:58.302Z</time></trkpt><trkpt lat="41.8764356" lon="14.0152935"><ele>1249.0</ele><time>2026-04-26T15:17:59.303Z</time></trkpt><trkpt lat="41.8761932" lon="14.0155951"><ele>1249.0</ele><time>2026-04-26T15:18:00.302Z</time></trkpt><trkpt lat="41.8759492" lon="14.0158936"><ele>1248.5</ele><time>2026-04-26T15:18:01.303Z</time></trkpt><trkpt lat="41.8757045" lon="14.0161987"><ele>1248.0</ele><time>2026-04-26T15:18:02.302Z</time></trkpt><trkpt lat="41.8754567" lon="14.0165058"><ele>1248.0</ele><time>2026-04-26T15:18:03.302Z</time></trkpt><trkpt lat="41.8752104" lon="14.0168107"><ele>1248.0</ele><time>2026-04-26T15:18:04.302Z</time></trkpt><trkpt lat="41.8749592" lon="14.0171179"><ele>1247.5</ele><time>2026-04-26T15:18:05.302Z</time></trkpt><trkpt lat="41.8747121" lon="14.0174239"><ele>1247.0</ele><time>2026-04-26T15:18:06.303Z</time></trkpt><trkpt lat="41.8744649" lon="14.0177269"><ele>1247.0</ele><time>2026-04-26T15:18:07.302Z</time></trkpt><trkpt lat="41.8742218" lon="14.018029"><ele>1247.0</ele><time>2026-04-26T15:18:08.302Z</time></trkpt><trkpt lat="41.8739785" lon="14.0183254"><ele>1247.0</ele><time>2026-04-26T15:18:09.302Z</time></trkpt><trkpt lat="41.8737444" lon="14.0186197"><ele>1247.0</ele><time>2026-04-26T15:18:10.302Z</time></trkpt><trkpt lat="41.873508" lon="14.0189162"><ele>1247.0</ele><time>2026-04-26T15:18:11.302Z</time></trkpt><trkpt lat="41.8732703" lon="14.0192056"><ele>1247.0</ele><time>2026-04-26T15:18:12.302Z</time></trkpt><trkpt lat="41.8730377" lon="14.0194994"><ele>1247.0</ele><time>2026-04-26T15:18:13.302Z</time></trkpt><trkpt lat="41.8728081" lon="14.0197722"><ele>1247.0</ele><time>2026-04-26T15:18:14.302Z</time></trkpt><trkpt lat="41.8725878" lon="14.0200429"><ele>1246.0</ele><time>2026-04-26T15:18:15.303Z</time></trkpt><trkpt lat="41.8723642" lon="14.0203177"><ele>1245.0</ele><time>2026-04-26T15:18:16.302Z</time></trkpt><trkpt lat="41.8721451" lon="14.0205923"><ele>1245.5</ele><time>2026-04-26T15:18:17.302Z</time></trkpt><trkpt lat="41.8719225" lon="14.0208621"><ele>1246.0</ele><time>2026-04-26T15:18:18.303Z</time></trkpt><trkpt lat="41.8716996" lon="14.0211309"><ele>1246.5</ele><time>2026-04-26T15:18:19.302Z</time></trkpt><trkpt lat="41.8714779" lon="14.021398"><ele>1247.0</ele><time>2026-04-26T15:18:20.302Z</time></trkpt><trkpt lat="41.8712523" lon="14.0216691"><ele>1247.0</ele><time>2026-04-26T15:18:21.303Z</time></trkpt><trkpt lat="41.8710293" lon="14.0219427"><ele>1247.0</ele><time>2026-04-26T15:18:22.302Z</time></trkpt><trkpt lat="41.8708037" lon="14.022221"><ele>1249.0</ele><time>2026-04-26T15:18:23.302Z</time></trkpt><trkpt lat="41.8705799" lon="14.0225006"><ele>1251.0</ele><time>2026-04-26T15:18:24.302Z</time></trkpt><trkpt lat="41.8703524" lon="14.0227788"><ele>1251.0</ele><time>2026-04-26T15:18:25.302Z</time></trkpt><trkpt lat="41.8701297" lon="14.0230533"><ele>1251.0</ele><time>2026-04-26T15:18:26.302Z</time></trkpt><trkpt lat="41.8699074" lon="14.0233284"><ele>1251.0</ele><time>2026-04-26T15:18:27.302Z</time></trkpt><trkpt lat="41.8696846" lon="14.0235992"><ele>1251.0</ele><time>2026-04-26T15:18:28.303Z</time></trkpt><trkpt lat="41.8694615" lon="14.0238697"><ele>1251.0</ele><time>2026-04-26T15:18:29.302Z</time></trkpt><trkpt lat="41.869241" lon="14.0241438"><ele>1251.0</ele><time>2026-04-26T15:18:30.302Z</time></trkpt><trkpt lat="41.8690226" lon="14.0244168"><ele>1251.0</ele><time>2026-04-26T15:18:31.302Z</time></trkpt><trkpt lat="41.8688049" lon="14.0246867"><ele>1251.0</ele><time>2026-04-26T15:18:32.302Z</time></trkpt><trkpt lat="41.8685852" lon="14.0249537"><ele>1251.0</ele><time>2026-04-26T15:18:33.302Z</time></trkpt><trkpt lat="41.8683681" lon="14.0252213"><ele>1251.0</ele><time>2026-04-26T15:18:34.303Z</time></trkpt><trkpt lat="41.868145" lon="14.0254918"><ele>1251.0</ele><time>2026-04-26T15:18:35.302Z</time></trkpt><trkpt lat="41.8679222" lon="14.0257619"><ele>1251.0</ele><time>2026-04-26T15:18:36.302Z</time></trkpt><trkpt lat="41.8676998" lon="14.0260365"><ele>1250.5</ele><time>2026-04-26T15:18:37.303Z</time></trkpt><trkpt lat="41.86747" lon="14.0263166"><ele>1250.0</ele><time>2026-04-26T15:18:38.303Z</time></trkpt><trkpt lat="41.867247" lon="14.0265911"><ele>1252.5</ele><time>2026-04-26T15:18:39.302Z</time></trkpt><trkpt lat="41.8670241" lon="14.0268653"><ele>1255.0</ele><time>2026-04-26T15:18:40.302Z</time></trkpt><trkpt lat="41.8667974" lon="14.0271428"><ele>1252.5</ele><time>2026-04-26T15:18:41.302Z</time></trkpt><trkpt lat="41.8665777" lon="14.0274134"><ele>1250.0</ele><time>2026-04-26T15:18:42.303Z</time></trkpt><trkpt lat="41.8663679" lon="14.0276527"><ele>1250.0</ele><time>2026-04-26T15:18:43.302Z</time></trkpt><trkpt lat="41.8661644" lon="14.0278836"><ele>1250.0</ele><time>2026-04-26T15:18:44.302Z</time></trkpt><trkpt lat="41.86597" lon="14.0281236"><ele>1249.5</ele><time>2026-04-26T15:18:45.302Z</time></trkpt><trkpt lat="41.8657893" lon="14.028368"><ele>1249.0</ele><time>2026-04-26T15:18:46.303Z</time></trkpt><trkpt lat="41.8656239" lon="14.0286225"><ele>1249.0</ele><time>2026-04-26T15:18:47.303Z</time></trkpt><trkpt lat="41.8654814" lon="14.0288974"><ele>1249.0</ele><time>2026-04-26T15:18:48.302Z</time></trkpt><trkpt lat="41.8653582" lon="14.0291964"><ele>1249.0</ele><time>2026-04-26T15:18:49.302Z</time></trkpt><trkpt lat="41.8652607" lon="14.029517"><ele>1249.0</ele><time>2026-04-26T15:18:50.302Z</time></trkpt><trkpt lat="41.8651843" lon="14.0298611"><ele>1251.5</ele><time>2026-04-26T15:18:51.303Z</time></trkpt><trkpt lat="41.8651402" lon="14.0302228"><ele>1254.0</ele><time>2026-04-26T15:18:52.302Z</time></trkpt><trkpt lat="41.8651247" lon="14.0305964"><ele>1256.0</ele><time>2026-04-26T15:18:53.302Z</time></trkpt><trkpt lat="41.8651371" lon="14.0309932"><ele>1258.0</ele><time>2026-04-26T15:18:54.302Z</time></trkpt><trkpt lat="41.8651569" lon="14.0314021"><ele>1257.5</ele><time>2026-04-26T15:18:55.302Z</time></trkpt><trkpt lat="41.8651755" lon="14.0318255"><ele>1257.0</ele><time>2026-04-26T15:18:56.302Z</time></trkpt><trkpt lat="41.8651947" lon="14.0322628"><ele>1255.0</ele><time>2026-04-26T15:18:57.302Z</time></trkpt><trkpt lat="41.865218" lon="14.0327139"><ele>1253.0</ele><time>2026-04-26T15:18:58.302Z</time></trkpt><trkpt lat="41.8652406" lon="14.0331799"><ele>1250.5</ele><time>2026-04-26T15:18:59.302Z</time></trkpt><trkpt lat="41.8652619" lon="14.0336373"><ele>1248.0</ele><time>2026-04-26T15:19:00.303Z</time></trkpt><trkpt lat="41.8652799" lon="14.0340951"><ele>1247.5</ele><time>2026-04-26T15:19:01.302Z</time></trkpt><trkpt lat="41.8652999" lon="14.0345511"><ele>1247.0</ele><time>2026-04-26T15:19:02.302Z</time></trkpt><trkpt lat="41.8653234" lon="14.0350054"><ele>1247.0</ele><time>2026-04-26T15:19:03.302Z</time></trkpt><trkpt lat="41.8653491" lon="14.035459"><ele>1247.0</ele><time>2026-04-26T15:19:04.302Z</time></trkpt><trkpt lat="41.8653706" lon="14.0359092"><ele>1247.0</ele><time>2026-04-26T15:19:05.303Z</time></trkpt><trkpt lat="41.8653928" lon="14.0363525"><ele>1247.0</ele><time>2026-04-26T15:19:06.302Z</time></trkpt><trkpt lat="41.8654139" lon="14.0367926"><ele>1247.0</ele><time>2026-04-26T15:19:07.302Z</time></trkpt><trkpt lat="41.8654331" lon="14.03723"><ele>1247.0</ele><time>2026-04-26T15:19:08.303Z</time></trkpt><trkpt lat="41.8654493" lon="14.0376451"><ele>1247.0</ele><time>2026-04-26T15:19:09.302Z</time></trkpt><trkpt lat="41.8654672" lon="14.0380549"><ele>1247.0</ele><time>2026-04-26T15:19:10.302Z</time></trkpt><trkpt lat="41.8654854" lon="14.0384743"><ele>1247.0</ele><time>2026-04-26T15:19:11.302Z</time></trkpt><trkpt lat="41.8655005" lon="14.0388866"><ele>1247.0</ele><time>2026-04-26T15:19:12.302Z</time></trkpt><trkpt lat="41.8655178" lon="14.0392729"><ele>1247.0</ele><time>2026-04-26T15:19:13.302Z</time></trkpt><trkpt lat="41.865534" lon="14.0396575"><ele>1247.0</ele><time>2026-04-26T15:19:14.302Z</time></trkpt><trkpt lat="41.8655488" lon="14.0400359"><ele>1247.5</ele><time>2026-04-26T15:19:15.302Z</time></trkpt><trkpt lat="41.8655629" lon="14.04039"><ele>1248.0</ele><time>2026-04-26T15:19:16.302Z</time></trkpt><trkpt lat="41.8655793" lon="14.0407288"><ele>1248.5</ele><time>2026-04-26T15:19:17.303Z</time></trkpt><trkpt lat="41.8655932" lon="14.0410475"><ele>1249.0</ele><time>2026-04-26T15:19:18.302Z</time></trkpt><trkpt lat="41.8655941" lon="14.0413551"><ele>1248.6666666666665</ele><time>2026-04-26T15:19:19.302Z</time></trkpt><trkpt lat="41.8655892" lon="14.0416397"><ele>1248.3333333333333</ele><time>2026-04-26T15:19:20.302Z</time></trkpt><trkpt lat="41.8655905" lon="14.0418852"><ele>1248.0</ele><time>2026-04-26T15:19:21.302Z</time></trkpt><trkpt lat="41.8655862" lon="14.0420975"><ele>1248.0</ele><time>2026-04-26T15:19:22.302Z</time></trkpt><trkpt lat="41.8655705" lon="14.0422901"><ele>1248.0</ele><time>2026-04-26T15:19:23.302Z</time></trkpt><trkpt lat="41.8655434" lon="14.0424556"><ele>1248.0</ele><time>2026-04-26T15:19:24.302Z</time></trkpt><trkpt lat="41.8654915" lon="14.0425952"><ele>1248.0</ele><time>2026-04-26T15:19:25.302Z</time></trkpt><trkpt lat="41.8654213" lon="14.0427084"><ele>1248.2</ele><time>2026-04-26T15:19:26.302Z</time></trkpt><trkpt lat="41.8653426" lon="14.0428087"><ele>1248.4</ele><time>2026-04-26T15:19:27.302Z</time></trkpt><trkpt lat="41.8652923" lon="14.0429168"><ele>1248.6000000000001</ele><time>2026-04-26T15:19:28.303Z</time></trkpt><trkpt lat="41.8652843" lon="14.0430334"><ele>1248.8</ele><time>2026-04-26T15:19:29.302Z</time></trkpt><trkpt lat="41.8653117" lon="14.0431521"><ele>1249.0</ele><time>2026-04-26T15:19:30.303Z</time></trkpt><trkpt lat="41.8653827" lon="14.0432836"><ele>1250.0</ele><time>2026-04-26T15:19:31.303Z</time></trkpt><trkpt lat="41.8654264" lon="14.043406"><ele>1251.0</ele><time>2026-04-26T15:19:32.303Z</time></trkpt><trkpt lat="41.8654236" lon="14.0435956"><ele>1252.0</ele><time>2026-04-26T15:19:33.303Z</time></trkpt><trkpt lat="41.8653954" lon="14.0438226"><ele>1253.0</ele><time>2026-04-26T15:19:34.303Z</time></trkpt><trkpt lat="41.8653649" lon="14.0440828"><ele>1255.0</ele><time>2026-04-26T15:19:35.303Z</time></trkpt><trkpt lat="41.8653271" lon="14.0443916"><ele>1257.0</ele><time>2026-04-26T15:19:36.303Z</time></trkpt><trkpt lat="41.8652877" lon="14.0447434"><ele>1258.5</ele><time>2026-04-26T15:19:37.303Z</time></trkpt><trkpt lat="41.8652472" lon="14.0451286"><ele>1260.0</ele><time>2026-04-26T15:19:38.303Z</time></trkpt><trkpt lat="41.8652018" lon="14.0455109"><ele>1263.0</ele><time>2026-04-26T15:19:39.304Z</time></trkpt><trkpt lat="41.865157" lon="14.0458883"><ele>1266.0</ele><time>2026-04-26T15:19:40.303Z</time></trkpt><trkpt lat="41.8651091" lon="14.046249"><ele>1264.5</ele><time>2026-04-26T15:19:41.303Z</time></trkpt><trkpt lat="41.8650694" lon="14.0465948"><ele>1263.0</ele><time>2026-04-26T15:19:42.303Z</time></trkpt><trkpt lat="41.8650374" lon="14.0469386"><ele>1260.0</ele><time>2026-04-26T15:19:43.303Z</time></trkpt><trkpt lat="41.8641445" lon="14.0535087"><ele>1260.0</ele><time>2026-04-26T15:20:09.303Z</time></trkpt><trkpt lat="41.8641717" lon="14.0539645"><ele>1260.0</ele><time>2026-04-26T15:20:10.303Z</time></trkpt><trkpt lat="41.8641095" lon="14.0542093"><ele>1254.6666666666667</ele><time>2026-04-26T15:20:11.303Z</time></trkpt><trkpt lat="41.8640425" lon="14.0544536"><ele>1249.3333333333335</ele><time>2026-04-26T15:20:12.304Z</time></trkpt><trkpt lat="41.8639688" lon="14.0546813"><ele>1244.0</ele><time>2026-04-26T15:20:13.303Z</time></trkpt><trkpt lat="41.8638988" lon="14.0549166"><ele>1240.6666666666667</ele><time>2026-04-26T15:20:14.303Z</time></trkpt><trkpt lat="41.8638264" lon="14.0551424"><ele>1237.3333333333333</ele><time>2026-04-26T15:20:15.304Z</time></trkpt><trkpt lat="41.8637525" lon="14.0553487"><ele>1234.0</ele><time>2026-04-26T15:20:16.303Z</time></trkpt><trkpt lat="41.8636869" lon="14.0555351"><ele>1234.0</ele><time>2026-04-26T15:20:17.303Z</time></trkpt><trkpt lat="41.8636149" lon="14.0557051"><ele>1234.0</ele><time>2026-04-26T15:20:18.304Z</time></trkpt><trkpt lat="41.8635544" lon="14.0558591"><ele>1234.0</ele><time>2026-04-26T15:20:19.303Z</time></trkpt><trkpt lat="41.8635056" lon="14.0560152"><ele>1234.0</ele><time>2026-04-26T15:20:20.303Z</time></trkpt><trkpt lat="41.8634642" lon="14.0561588"><ele>1235.0</ele><time>2026-04-26T15:20:21.303Z</time></trkpt><trkpt lat="41.8634234" lon="14.0562814"><ele>1236.0</ele><time>2026-04-26T15:20:22.304Z</time></trkpt><trkpt lat="41.8633726" lon="14.0563987"><ele>1237.0</ele><time>2026-04-26T15:20:23.303Z</time></trkpt><trkpt lat="41.8633194" lon="14.0565258"><ele>1238.0</ele><time>2026-04-26T15:20:24.304Z</time></trkpt><trkpt lat="41.8632692" lon="14.0566669"><ele>1239.0</ele><time>2026-04-26T15:20:25.303Z</time></trkpt><trkpt lat="41.8632214" lon="14.0568333"><ele>1239.0</ele><time>2026-04-26T15:20:26.304Z</time></trkpt><trkpt lat="41.863154" lon="14.0570097"><ele>1239.0</ele><time>2026-04-26T15:20:27.303Z</time></trkpt><trkpt lat="41.8630718" lon="14.0571772"><ele>1239.0</ele><time>2026-04-26T15:20:28.304Z</time></trkpt><trkpt lat="41.8629727" lon="14.0573454"><ele>1237.3333333333333</ele><time>2026-04-26T15:20:29.304Z</time></trkpt><trkpt lat="41.8628721" lon="14.0575422"><ele>1235.6666666666665</ele><time>2026-04-26T15:20:30.303Z</time></trkpt><trkpt lat="41.8627657" lon="14.057746"><ele>1234.0</ele><time>2026-04-26T15:20:31.304Z</time></trkpt><trkpt lat="41.862649" lon="14.0579832"><ele>1236.0</ele><time>2026-04-26T15:20:32.304Z</time></trkpt><trkpt lat="41.8625109" lon="14.0582581"><ele>1238.0</ele><time>2026-04-26T15:20:33.303Z</time></trkpt><trkpt lat="41.8623486" lon="14.0585343"><ele>1238.0</ele><time>2026-04-26T15:20:34.303Z</time></trkpt><trkpt lat="41.8621827" lon="14.0587985"><ele>1238.0</ele><time>2026-04-26T15:20:35.304Z</time></trkpt><trkpt lat="41.8620168" lon="14.059055"><ele>1236.0</ele><time>2026-04-26T15:20:36.304Z</time></trkpt><trkpt lat="41.8618685" lon="14.0593063"><ele>1234.0</ele><time>2026-04-26T15:20:37.303Z</time></trkpt><trkpt lat="41.8617209" lon="14.0595516"><ele>1235.0</ele><time>2026-04-26T15:20:38.303Z</time></trkpt><trkpt lat="41.8615741" lon="14.0598078"><ele>1236.0</ele><time>2026-04-26T15:20:39.303Z</time></trkpt><trkpt lat="41.8614265" lon="14.0600589"><ele>1236.0</ele><time>2026-04-26T15:20:40.304Z</time></trkpt><trkpt lat="41.861279" lon="14.0603225"><ele>1236.0</ele><time>2026-04-26T15:20:41.304Z</time></trkpt><trkpt lat="41.8611168" lon="14.0605782"><ele>1232.5</ele><time>2026-04-26T15:20:42.303Z</time></trkpt><trkpt lat="41.8609513" lon="14.0608306"><ele>1229.0</ele><time>2026-04-26T15:20:43.303Z</time></trkpt><trkpt lat="41.8607866" lon="14.0610653"><ele>1236.5</ele><time>2026-04-26T15:20:44.303Z</time></trkpt><trkpt lat="41.8606182" lon="14.0612745"><ele>1244.0</ele><time>2026-04-26T15:20:45.303Z</time></trkpt><trkpt lat="41.860446" lon="14.0614741"><ele>1244.0</ele><time>2026-04-26T15:20:46.303Z</time></trkpt><trkpt lat="41.8602749" lon="14.0616601"><ele>1244.0</ele><time>2026-04-26T15:20:47.304Z</time></trkpt><trkpt lat="41.8601092" lon="14.0618172"><ele>1244.0</ele><time>2026-04-26T15:20:48.303Z</time></trkpt><trkpt lat="41.859955" lon="14.0619666"><ele>1244.0</ele><time>2026-04-26T15:20:49.304Z</time></trkpt><trkpt lat="41.8598154" lon="14.0621003"><ele>1244.0</ele><time>2026-04-26T15:20:50.303Z</time></trkpt><trkpt lat="41.8596898" lon="14.0622282"><ele>1244.0</ele><time>2026-04-26T15:20:51.304Z</time></trkpt><trkpt lat="41.85958" lon="14.0623551"><ele>1244.8</ele><time>2026-04-26T15:20:52.303Z</time></trkpt><trkpt lat="41.8594921" lon="14.0624715"><ele>1245.6000000000001</ele><time>2026-04-26T15:20:53.303Z</time></trkpt><trkpt lat="41.8594163" lon="14.0625791"><ele>1246.4</ele><time>2026-04-26T15:20:54.303Z</time></trkpt><trkpt lat="41.8593438" lon="14.0626647"><ele>1247.2</ele><time>2026-04-26T15:20:55.304Z</time></trkpt><trkpt lat="41.8592572" lon="14.0627384"><ele>1248.0</ele><time>2026-04-26T15:20:56.303Z</time></trkpt><trkpt lat="41.8591521" lon="14.0628296"><ele>1248.0</ele><time>2026-04-26T15:20:57.304Z</time></trkpt><trkpt lat="41.85903" lon="14.0629606"><ele>1248.0</ele><time>2026-04-26T15:20:58.303Z</time></trkpt><trkpt lat="41.8588779" lon="14.0631213"><ele>1248.0</ele><time>2026-04-26T15:20:59.303Z</time></trkpt><trkpt lat="41.8587061" lon="14.0632923"><ele>1247.5</ele><time>2026-04-26T15:21:00.303Z</time></trkpt><trkpt lat="41.8585167" lon="14.0634687"><ele>1247.0</ele><time>2026-04-26T15:21:01.303Z</time></trkpt><trkpt lat="41.858328" lon="14.0636572"><ele>1247.0</ele><time>2026-04-26T15:21:02.303Z</time></trkpt><trkpt lat="41.858135" lon="14.0638508"><ele>1247.0</ele><time>2026-04-26T15:21:03.304Z</time></trkpt><trkpt lat="41.8579435" lon="14.0640459"><ele>1248.0</ele><time>2026-04-26T15:21:04.303Z</time></trkpt><trkpt lat="41.8577636" lon="14.0642544"><ele>1249.0</ele><time>2026-04-26T15:21:05.303Z</time></trkpt><trkpt lat="41.857585" lon="14.0644758"><ele>1249.0</ele><time>2026-04-26T15:21:06.303Z</time></trkpt><trkpt lat="41.8574086" lon="14.0647157"><ele>1249.0</ele><time>2026-04-26T15:21:07.303Z</time></trkpt><trkpt lat="41.8572295" lon="14.0649634"><ele>1240.5</ele><time>2026-04-26T15:21:08.303Z</time></trkpt><trkpt lat="41.8570412" lon="14.0652104"><ele>1232.0</ele><time>2026-04-26T15:21:09.303Z</time></trkpt><trkpt lat="41.85685" lon="14.0654669"><ele>1233.5</ele><time>2026-04-26T15:21:10.304Z</time></trkpt><trkpt lat="41.8566553" lon="14.0657323"><ele>1235.0</ele><time>2026-04-26T15:21:11.303Z</time></trkpt><trkpt lat="41.8564626" lon="14.0659952"><ele>1235.0</ele><time>2026-04-26T15:21:12.303Z</time></trkpt><trkpt lat="41.8562789" lon="14.0662647"><ele>1235.0</ele><time>2026-04-26T15:21:13.303Z</time></trkpt><trkpt lat="41.856113" lon="14.0665419"><ele>1232.0</ele><time>2026-04-26T15:21:14.303Z</time></trkpt><trkpt lat="41.8559581" lon="14.066832"><ele>1229.0</ele><time>2026-04-26T15:21:15.303Z</time></trkpt><trkpt lat="41.8558127" lon="14.0671245"><ele>1232.0</ele><time>2026-04-26T15:21:16.303Z</time></trkpt><trkpt lat="41.8556782" lon="14.0674102"><ele>1235.0</ele><time>2026-04-26T15:21:17.303Z</time></trkpt><trkpt lat="41.8555551" lon="14.0676886"><ele>1235.0</ele><time>2026-04-26T15:21:18.303Z</time></trkpt><trkpt lat="41.8554394" lon="14.0679638"><ele>1235.0</ele><time>2026-04-26T15:21:19.303Z</time></trkpt><trkpt lat="41.8553238" lon="14.0682393"><ele>1233.0</ele><time>2026-04-26T15:21:20.303Z</time></trkpt><trkpt lat="41.8552118" lon="14.0684947"><ele>1231.0</ele><time>2026-04-26T15:21:21.303Z</time></trkpt><trkpt lat="41.8550938" lon="14.0687519"><ele>1229.0</ele><time>2026-04-26T15:21:22.303Z</time></trkpt><trkpt lat="41.8549722" lon="14.0690186"><ele>1232.3333333333335</ele><time>2026-04-26T15:21:23.303Z</time></trkpt><trkpt lat="41.8548577" lon="14.0692793"><ele>1235.6666666666667</ele><time>2026-04-26T15:21:24.303Z</time></trkpt><trkpt lat="41.8547503" lon="14.0695317"><ele>1239.0</ele><time>2026-04-26T15:21:25.303Z</time></trkpt><trkpt lat="41.854646" lon="14.0697705"><ele>1237.3333333333333</ele><time>2026-04-26T15:21:26.303Z</time></trkpt><trkpt lat="41.8545428" lon="14.0700075"><ele>1235.6666666666665</ele><time>2026-04-26T15:21:27.303Z</time></trkpt><trkpt lat="41.8544465" lon="14.0702215"><ele>1234.0</ele><time>2026-04-26T15:21:28.303Z</time></trkpt><trkpt lat="41.8543639" lon="14.070423"><ele>1234.25</ele><time>2026-04-26T15:21:29.303Z</time></trkpt><trkpt lat="41.8542876" lon="14.0706045"><ele>1234.5</ele><time>2026-04-26T15:21:30.304Z</time></trkpt><trkpt lat="41.8542082" lon="14.0707658"><ele>1234.75</ele><time>2026-04-26T15:21:31.303Z</time></trkpt><trkpt lat="41.8541281" lon="14.0709236"><ele>1235.0</ele><time>2026-04-26T15:21:32.304Z</time></trkpt><trkpt lat="41.8540541" lon="14.0710671"><ele>1235.0</ele><time>2026-04-26T15:21:33.303Z</time></trkpt><trkpt lat="41.8539888" lon="14.0711932"><ele>1235.0</ele><time>2026-04-26T15:21:34.303Z</time></trkpt><trkpt lat="41.8539294" lon="14.0713007"><ele>1235.0</ele><time>2026-04-26T15:21:35.303Z</time></trkpt><trkpt lat="41.8538729" lon="14.0713852"><ele>1235.0</ele><time>2026-04-26T15:21:36.304Z</time></trkpt><trkpt lat="41.8538211" lon="14.0714594"><ele>1235.0</ele><time>2026-04-26T15:21:37.303Z</time></trkpt><trkpt lat="41.8537837" lon="14.0715546"><ele>1234.0</ele><time>2026-04-26T15:21:38.303Z</time></trkpt><trkpt lat="41.8537816" lon="14.0716637"><ele>1233.0</ele><time>2026-04-26T15:21:39.303Z</time></trkpt><trkpt lat="41.8538093" lon="14.071769"><ele>1232.0</ele><time>2026-04-26T15:21:40.303Z</time></trkpt><trkpt lat="41.8538612" lon="14.0718816"><ele>1231.0</ele><time>2026-04-26T15:21:41.304Z</time></trkpt><trkpt lat="41.8539048" lon="14.0720114"><ele>1230.0</ele><time>2026-04-26T15:21:42.303Z</time></trkpt><trkpt lat="41.8539209" lon="14.0721709"><ele>1230.0</ele><time>2026-04-26T15:21:43.304Z</time></trkpt><trkpt lat="41.8539117" lon="14.0723847"><ele>1230.0</ele><time>2026-04-26T15:21:44.303Z</time></trkpt><trkpt lat="41.8539133" lon="14.0726083"><ele>1230.0</ele><time>2026-04-26T15:21:45.303Z</time></trkpt><trkpt lat="41.8539212" lon="14.0728298"><ele>1229.6666666666667</ele><time>2026-04-26T15:21:46.303Z</time></trkpt><trkpt lat="41.8539274" lon="14.0730407"><ele>1229.3333333333335</ele><time>2026-04-26T15:21:47.303Z</time></trkpt><trkpt lat="41.8539384" lon="14.0732578"><ele>1229.0</ele><time>2026-04-26T15:21:48.303Z</time></trkpt><trkpt lat="41.8539496" lon="14.0734755"><ele>1229.0</ele><time>2026-04-26T15:21:49.303Z</time></trkpt><trkpt lat="41.8539623" lon="14.0737071"><ele>1229.0</ele><time>2026-04-26T15:21:50.303Z</time></trkpt><trkpt lat="41.8539741" lon="14.0739435"><ele>1229.0</ele><time>2026-04-26T15:21:51.304Z</time></trkpt><trkpt lat="41.8539878" lon="14.0741731"><ele>1229.0</ele><time>2026-04-26T15:21:52.303Z</time></trkpt><trkpt lat="41.8540058" lon="14.074408"><ele>1229.0</ele><time>2026-04-26T15:21:53.303Z</time></trkpt><trkpt lat="41.8540199" lon="14.0746514"><ele>1229.0</ele><time>2026-04-26T15:21:54.303Z</time></trkpt><trkpt lat="41.8540321" lon="14.0748971"><ele>1228.3333333333335</ele><time>2026-04-26T15:21:55.303Z</time></trkpt><trkpt lat="41.8540523" lon="14.0751521"><ele>1227.6666666666667</ele><time>2026-04-26T15:21:56.304Z</time></trkpt><trkpt lat="41.854068" lon="14.0754074"><ele>1227.0</ele><time>2026-04-26T15:21:57.303Z</time></trkpt><trkpt lat="41.8540831" lon="14.0756575"><ele>1227.0</ele><time>2026-04-26T15:21:58.303Z</time></trkpt><trkpt lat="41.8540974" lon="14.0758986"><ele>1227.0</ele><time>2026-04-26T15:21:59.303Z</time></trkpt><trkpt lat="41.8541145" lon="14.0761472"><ele>1227.0</ele><time>2026-04-26T15:22:00.304Z</time></trkpt><trkpt lat="41.8541324" lon="14.0763892"><ele>1226.6666666666667</ele><time>2026-04-26T15:22:01.303Z</time></trkpt><trkpt lat="41.8541499" lon="14.0766386"><ele>1226.3333333333335</ele><time>2026-04-26T15:22:02.304Z</time></trkpt><trkpt lat="41.8541663" lon="14.0768844"><ele>1226.0</ele><time>2026-04-26T15:22:03.304Z</time></trkpt><trkpt lat="41.8541814" lon="14.077125"><ele>1226.0</ele><time>2026-04-26T15:22:04.303Z</time></trkpt><trkpt lat="41.8541909" lon="14.0773763"><ele>1226.0</ele><time>2026-04-26T15:22:05.304Z</time></trkpt><trkpt lat="41.8541899" lon="14.0776329"><ele>1226.0</ele><time>2026-04-26T15:22:06.303Z</time></trkpt><trkpt lat="41.8541623" lon="14.077884"><ele>1226.0</ele><time>2026-04-26T15:22:07.303Z</time></trkpt><trkpt lat="41.8541147" lon="14.0781384"><ele>1226.0</ele><time>2026-04-26T15:22:08.303Z</time></trkpt><trkpt lat="41.8540476" lon="14.0783937"><ele>1226.0</ele><time>2026-04-26T15:22:09.304Z</time></trkpt><trkpt lat="41.8539635" lon="14.0786423"><ele>1225.6666666666667</ele><time>2026-04-26T15:22:10.304Z</time></trkpt><trkpt lat="41.8538563" lon="14.0788787"><ele>1225.3333333333333</ele><time>2026-04-26T15:22:11.303Z</time></trkpt><trkpt lat="41.8537311" lon="14.0791026"><ele>1225.0</ele><time>2026-04-26T15:22:12.304Z</time></trkpt><trkpt lat="41.8535932" lon="14.079319"><ele>1225.3333333333333</ele><time>2026-04-26T15:22:13.304Z</time></trkpt><trkpt lat="41.8534348" lon="14.079508"><ele>1225.6666666666667</ele><time>2026-04-26T15:22:14.304Z</time></trkpt><trkpt lat="41.8532683" lon="14.0796714"><ele>1226.0</ele><time>2026-04-26T15:22:15.303Z</time></trkpt><trkpt lat="41.8531057" lon="14.0798243"><ele>1226.0</ele><time>2026-04-26T15:22:16.303Z</time></trkpt><trkpt lat="41.8529373" lon="14.0799655"><ele>1226.0</ele><time>2026-04-26T15:22:17.303Z</time></trkpt><trkpt lat="41.8527715" lon="14.080108"><ele>1226.0</ele><time>2026-04-26T15:22:18.303Z</time></trkpt><trkpt lat="41.8526046" lon="14.0802513"><ele>1226.0</ele><time>2026-04-26T15:22:19.303Z</time></trkpt><trkpt lat="41.8524442" lon="14.0803835"><ele>1226.0</ele><time>2026-04-26T15:22:20.303Z</time></trkpt><trkpt lat="41.8522935" lon="14.0804958"><ele>1226.0</ele><time>2026-04-26T15:22:21.304Z</time></trkpt><trkpt lat="41.8521525" lon="14.0806064"><ele>1226.0</ele><time>2026-04-26T15:22:22.303Z</time></trkpt><trkpt lat="41.8520164" lon="14.080708"><ele>1226.0</ele><time>2026-04-26T15:22:23.303Z</time></trkpt><trkpt lat="41.8518911" lon="14.0808093"><ele>1226.0</ele><time>2026-04-26T15:22:24.303Z</time></trkpt><trkpt lat="41.8517705" lon="14.0809195"><ele>1226.0</ele><time>2026-04-26T15:22:25.303Z</time></trkpt><trkpt lat="41.8516402" lon="14.081026"><ele>1225.3333333333335</ele><time>2026-04-26T15:22:26.304Z</time></trkpt><trkpt lat="41.8515043" lon="14.0811335"><ele>1224.6666666666667</ele><time>2026-04-26T15:22:27.303Z</time></trkpt><trkpt lat="41.8513687" lon="14.081243"><ele>1224.0</ele><time>2026-04-26T15:22:28.303Z</time></trkpt><trkpt lat="41.8512378" lon="14.0813547"><ele>1224.0</ele><time>2026-04-26T15:22:29.304Z</time></trkpt><trkpt lat="41.8511048" lon="14.0814724"><ele>1224.0</ele><time>2026-04-26T15:22:30.303Z</time></trkpt><trkpt lat="41.8509781" lon="14.0815822"><ele>1224.0</ele><time>2026-04-26T15:22:31.304Z</time></trkpt><trkpt lat="41.8508531" lon="14.0816842"><ele>1224.5</ele><time>2026-04-26T15:22:32.303Z</time></trkpt><trkpt lat="41.8507222" lon="14.0817927"><ele>1225.0</ele><time>2026-04-26T15:22:33.303Z</time></trkpt><trkpt lat="41.8506009" lon="14.0818922"><ele>1225.5</ele><time>2026-04-26T15:22:34.303Z</time></trkpt><trkpt lat="41.8504763" lon="14.0819951"><ele>1226.0</ele><time>2026-04-26T15:22:35.303Z</time></trkpt><trkpt lat="41.8503545" lon="14.0820973"><ele>1226.0</ele><time>2026-04-26T15:22:36.303Z</time></trkpt><trkpt lat="41.8501294" lon="14.0822752"><ele>1226.0</ele><time>2026-04-26T15:22:38.303Z</time></trkpt><trkpt lat="41.8500235" lon="14.0823635"><ele>1226.0</ele><time>2026-04-26T15:22:39.304Z</time></trkpt><trkpt lat="41.84992" lon="14.082444"><ele>1226.2</ele><time>2026-04-26T15:22:40.303Z</time></trkpt><trkpt lat="41.8498197" lon="14.0825301"><ele>1226.3999999999999</ele><time>2026-04-26T15:22:41.303Z</time></trkpt><trkpt lat="41.8497269" lon="14.0826037"><ele>1226.6</ele><time>2026-04-26T15:22:42.303Z</time></trkpt><trkpt lat="41.8496457" lon="14.0826641"><ele>1226.8</ele><time>2026-04-26T15:22:43.303Z</time></trkpt><trkpt lat="41.849576" lon="14.0827234"><ele>1227.0</ele><time>2026-04-26T15:22:44.303Z</time></trkpt><trkpt lat="41.8495159" lon="14.0827655"><ele>1227.0</ele><time>2026-04-26T15:22:45.303Z</time></trkpt><trkpt lat="41.8494139" lon="14.0828397"><ele>1227.0</ele><time>2026-04-26T15:22:47.303Z</time></trkpt><trkpt lat="41.8493001" lon="14.0828917"><ele>1227.0</ele><time>2026-04-26T15:22:49.303Z</time></trkpt><trkpt lat="41.8492369" lon="14.0829124"><ele>1227.0</ele><time>2026-04-26T15:22:50.303Z</time></trkpt><trkpt lat="41.8491648" lon="14.0829378"><ele>1227.0</ele><time>2026-04-26T15:22:51.303Z</time></trkpt><trkpt lat="41.8490949" lon="14.0829818"><ele>1226.8</ele><time>2026-04-26T15:22:52.304Z</time></trkpt><trkpt lat="41.8490315" lon="14.083058"><ele>1226.6</ele><time>2026-04-26T15:22:53.303Z</time></trkpt><trkpt lat="41.8489668" lon="14.083152"><ele>1226.3999999999999</ele><time>2026-04-26T15:22:54.304Z</time></trkpt><trkpt lat="41.8488955" lon="14.0832545"><ele>1226.2</ele><time>2026-04-26T15:22:55.303Z</time></trkpt><trkpt lat="41.848806" lon="14.0833636"><ele>1226.0</ele><time>2026-04-26T15:22:56.304Z</time></trkpt><trkpt lat="41.8486997" lon="14.083472"><ele>1226.6666666666667</ele><time>2026-04-26T15:22:57.304Z</time></trkpt><trkpt lat="41.8485671" lon="14.0835983"><ele>1227.3333333333333</ele><time>2026-04-26T15:22:58.303Z</time></trkpt><trkpt lat="41.8484004" lon="14.0837371"><ele>1228.0</ele><time>2026-04-26T15:22:59.303Z</time></trkpt><trkpt lat="41.8482121" lon="14.0838859"><ele>1228.5</ele><time>2026-04-26T15:23:00.304Z</time></trkpt><trkpt lat="41.8480021" lon="14.0840557"><ele>1229.0</ele><time>2026-04-26T15:23:01.304Z</time></trkpt><trkpt lat="41.8477842" lon="14.0842393"><ele>1226.0</ele><time>2026-04-26T15:23:02.304Z</time></trkpt><trkpt lat="41.8475656" lon="14.0844221"><ele>1223.0</ele><time>2026-04-26T15:23:03.304Z</time></trkpt><trkpt lat="41.8473353" lon="14.0846104"><ele>1223.0</ele><time>2026-04-26T15:23:04.303Z</time></trkpt><trkpt lat="41.847096" lon="14.0848039"><ele>1223.0</ele><time>2026-04-26T15:23:05.303Z</time></trkpt><trkpt lat="41.8468598" lon="14.0849889"><ele>1222.5</ele><time>2026-04-26T15:23:06.303Z</time></trkpt><trkpt lat="41.8466291" lon="14.0851665"><ele>1222.0</ele><time>2026-04-26T15:23:07.304Z</time></trkpt><trkpt lat="41.846403" lon="14.0853458"><ele>1222.0</ele><time>2026-04-26T15:23:08.303Z</time></trkpt><trkpt lat="41.8461689" lon="14.0855196"><ele>1222.0</ele><time>2026-04-26T15:23:09.304Z</time></trkpt><trkpt lat="41.8459125" lon="14.0856784"><ele>1222.5</ele><time>2026-04-26T15:23:10.304Z</time></trkpt><trkpt lat="41.8456456" lon="14.0858029"><ele>1223.0</ele><time>2026-04-26T15:23:11.304Z</time></trkpt><trkpt lat="41.8453743" lon="14.0858897"><ele>1220.5</ele><time>2026-04-26T15:23:12.304Z</time></trkpt><trkpt lat="41.8451068" lon="14.0859736"><ele>1218.0</ele><time>2026-04-26T15:23:13.303Z</time></trkpt><trkpt lat="41.8448491" lon="14.0860602"><ele>1218.0</ele><time>2026-04-26T15:23:14.303Z</time></trkpt><trkpt lat="41.8445974" lon="14.0861693"><ele>1218.0</ele><time>2026-04-26T15:23:15.303Z</time></trkpt><trkpt lat="41.8443596" lon="14.0863109"><ele>1219.0</ele><time>2026-04-26T15:23:16.304Z</time></trkpt><trkpt lat="41.844136" lon="14.0864898"><ele>1220.0</ele><time>2026-04-26T15:23:17.303Z</time></trkpt><trkpt lat="41.8439269" lon="14.086712"><ele>1220.0</ele><time>2026-04-26T15:23:18.303Z</time></trkpt><trkpt lat="41.8437249" lon="14.0869692"><ele>1220.0</ele><time>2026-04-26T15:23:19.303Z</time></trkpt><trkpt lat="41.8435343" lon="14.0872659"><ele>1216.0</ele><time>2026-04-26T15:23:20.304Z</time></trkpt><trkpt lat="41.8433515" lon="14.0875689"><ele>1212.0</ele><time>2026-04-26T15:23:21.303Z</time></trkpt><trkpt lat="41.8431676" lon="14.087874"><ele>1212.0</ele><time>2026-04-26T15:23:22.303Z</time></trkpt><trkpt lat="41.8429788" lon="14.0881649"><ele>1212.0</ele><time>2026-04-26T15:23:23.303Z</time></trkpt><trkpt lat="41.842803" lon="14.0884456"><ele>1219.0</ele><time>2026-04-26T15:23:24.303Z</time></trkpt><trkpt lat="41.8426405" lon="14.0887209"><ele>1226.0</ele><time>2026-04-26T15:23:25.304Z</time></trkpt><trkpt lat="41.8424793" lon="14.0889724"><ele>1212.5</ele><time>2026-04-26T15:23:26.303Z</time></trkpt><trkpt lat="41.8423226" lon="14.0892286"><ele>1199.0</ele><time>2026-04-26T15:23:27.304Z</time></trkpt><trkpt lat="41.8421592" lon="14.0894809"><ele>1199.0</ele><time>2026-04-26T15:23:28.303Z</time></trkpt><trkpt lat="41.8420025" lon="14.0897203"><ele>1199.0</ele><time>2026-04-26T15:23:29.304Z</time></trkpt><trkpt lat="41.8418591" lon="14.0899615"><ele>1196.6666666666667</ele><time>2026-04-26T15:23:30.303Z</time></trkpt><trkpt lat="41.8417195" lon="14.0901945"><ele>1194.3333333333333</ele><time>2026-04-26T15:23:31.303Z</time></trkpt><trkpt lat="41.8415681" lon="14.090386"><ele>1192.0</ele><time>2026-04-26T15:23:32.303Z</time></trkpt><trkpt lat="41.8414012" lon="14.090546"><ele>1192.0</ele><time>2026-04-26T15:23:33.303Z</time></trkpt><trkpt lat="41.8412225" lon="14.0906612"><ele>1192.0</ele><time>2026-04-26T15:23:34.304Z</time></trkpt><trkpt lat="41.8410366" lon="14.0907586"><ele>1192.0</ele><time>2026-04-26T15:23:35.303Z</time></trkpt><trkpt lat="41.8408442" lon="14.0908292"><ele>1191.3333333333333</ele><time>2026-04-26T15:23:36.303Z</time></trkpt><trkpt lat="41.8406546" lon="14.0908949"><ele>1190.6666666666667</ele><time>2026-04-26T15:23:37.303Z</time></trkpt><trkpt lat="41.8404657" lon="14.0909484"><ele>1190.0</ele><time>2026-04-26T15:23:38.303Z</time></trkpt><trkpt lat="41.8402616" lon="14.0909861"><ele>1188.0</ele><time>2026-04-26T15:23:39.303Z</time></trkpt><trkpt lat="41.8400301" lon="14.0909962"><ele>1186.0</ele><time>2026-04-26T15:23:40.304Z</time></trkpt><trkpt lat="41.8397921" lon="14.0909913"><ele>1186.0</ele><time>2026-04-26T15:23:41.303Z</time></trkpt><trkpt lat="41.8395587" lon="14.0910001"><ele>1186.0</ele><time>2026-04-26T15:23:42.303Z</time></trkpt><trkpt lat="41.8393532" lon="14.0909993"><ele>1186.0</ele><time>2026-04-26T15:23:43.303Z</time></trkpt><trkpt lat="41.839166" lon="14.0909905"><ele>1186.3333333333333</ele><time>2026-04-26T15:23:44.304Z</time></trkpt><trkpt lat="41.8389989" lon="14.0909998"><ele>1186.6666666666667</ele><time>2026-04-26T15:23:45.304Z</time></trkpt><trkpt lat="41.8388188" lon="14.0910185"><ele>1187.0</ele><time>2026-04-26T15:23:46.303Z</time></trkpt><trkpt lat="41.8386031" lon="14.0910378"><ele>1185.5</ele><time>2026-04-26T15:23:47.303Z</time></trkpt><trkpt lat="41.8383731" lon="14.0910488"><ele>1184.0</ele><time>2026-04-26T15:23:48.304Z</time></trkpt><trkpt lat="41.8381518" lon="14.0910657"><ele>1184.0</ele><time>2026-04-26T15:23:49.303Z</time></trkpt><trkpt lat="41.8379514" lon="14.0910815"><ele>1184.0</ele><time>2026-04-26T15:23:50.303Z</time></trkpt><trkpt lat="41.8377738" lon="14.091109"><ele>1184.0</ele><time>2026-04-26T15:23:51.303Z</time></trkpt><trkpt lat="41.8376135" lon="14.0911633"><ele>1181.3333333333335</ele><time>2026-04-26T15:23:52.304Z</time></trkpt><trkpt lat="41.8374542" lon="14.0912411"><ele>1178.6666666666667</ele><time>2026-04-26T15:23:53.303Z</time></trkpt><trkpt lat="41.8373046" lon="14.0913212"><ele>1176.0</ele><time>2026-04-26T15:23:54.303Z</time></trkpt><trkpt lat="41.8371731" lon="14.0914195"><ele>1176.0</ele><time>2026-04-26T15:23:55.304Z</time></trkpt><trkpt lat="41.8370393" lon="14.0915422"><ele>1176.0</ele><time>2026-04-26T15:23:56.303Z</time></trkpt><trkpt lat="41.8369171" lon="14.0917026"><ele>1176.0</ele><time>2026-04-26T15:23:57.303Z</time></trkpt><trkpt lat="41.8367982" lon="14.0918927"><ele>1178.5</ele><time>2026-04-26T15:23:58.303Z</time></trkpt><trkpt lat="41.8366309" lon="14.0921461"><ele>1181.0</ele><time>2026-04-26T15:23:59.304Z</time></trkpt><trkpt lat="41.8364278" lon="14.0924323"><ele>1185.5</ele><time>2026-04-26T15:24:00.303Z</time></trkpt><trkpt lat="41.8362305" lon="14.0927251"><ele>1190.0</ele><time>2026-04-26T15:24:01.303Z</time></trkpt><trkpt lat="41.8360396" lon="14.0930344"><ele>1184.0</ele><time>2026-04-26T15:24:02.303Z</time></trkpt><trkpt lat="41.8358523" lon="14.0933304"><ele>1178.0</ele><time>2026-04-26T15:24:03.304Z</time></trkpt><trkpt lat="41.835665" lon="14.0936016"><ele>1178.0</ele><time>2026-04-26T15:24:04.303Z</time></trkpt><trkpt lat="41.8354659" lon="14.0938631"><ele>1178.0</ele><time>2026-04-26T15:24:05.303Z</time></trkpt><trkpt lat="41.8352342" lon="14.094129"><ele>1173.0</ele><time>2026-04-26T15:24:06.303Z</time></trkpt><trkpt lat="41.8349941" lon="14.0943963"><ele>1168.0</ele><time>2026-04-26T15:24:07.303Z</time></trkpt><trkpt lat="41.8347388" lon="14.0946811"><ele>1169.5</ele><time>2026-04-26T15:24:08.303Z</time></trkpt><trkpt lat="41.8344643" lon="14.0949727"><ele>1171.0</ele><time>2026-04-26T15:24:09.303Z</time></trkpt><trkpt lat="41.8341928" lon="14.095257"><ele>1166.5</ele><time>2026-04-26T15:24:10.303Z</time></trkpt><trkpt lat="41.8339382" lon="14.0955231"><ele>1162.0</ele><time>2026-04-26T15:24:11.304Z</time></trkpt><trkpt lat="41.8336993" lon="14.0957751"><ele>1157.0</ele><time>2026-04-26T15:24:12.303Z</time></trkpt><trkpt lat="41.8334699" lon="14.0960183"><ele>1152.0</ele><time>2026-04-26T15:24:13.303Z</time></trkpt><trkpt lat="41.8332524" lon="14.0962514"><ele>1152.0</ele><time>2026-04-26T15:24:14.303Z</time></trkpt><trkpt lat="41.8330429" lon="14.0964776"><ele>1152.0</ele><time>2026-04-26T15:24:15.303Z</time></trkpt><trkpt lat="41.8328423" lon="14.0967113"><ele>1152.0</ele><time>2026-04-26T15:24:16.303Z</time></trkpt><trkpt lat="41.8326572" lon="14.0969701"><ele>1152.0</ele><time>2026-04-26T15:24:17.304Z</time></trkpt><trkpt lat="41.8324996" lon="14.0972503"><ele>1149.0</ele><time>2026-04-26T15:24:18.303Z</time></trkpt><trkpt lat="41.8323681" lon="14.0975485"><ele>1146.0</ele><time>2026-04-26T15:24:19.303Z</time></trkpt><trkpt lat="41.8322625" lon="14.0978823"><ele>1146.0</ele><time>2026-04-26T15:24:20.303Z</time></trkpt><trkpt lat="41.832178" lon="14.0982183"><ele>1146.0</ele><time>2026-04-26T15:24:21.303Z</time></trkpt><trkpt lat="41.8321135" lon="14.098532"><ele>1144.3333333333333</ele><time>2026-04-26T15:24:22.304Z</time></trkpt><trkpt lat="41.8320583" lon="14.0988255"><ele>1142.6666666666665</ele><time>2026-04-26T15:24:23.304Z</time></trkpt><trkpt lat="41.8320075" lon="14.0990735"><ele>1141.0</ele><time>2026-04-26T15:24:24.303Z</time></trkpt><trkpt lat="41.8319691" lon="14.0993138"><ele>1140.75</ele><time>2026-04-26T15:24:25.304Z</time></trkpt><trkpt lat="41.831926" lon="14.0995131"><ele>1140.5</ele><time>2026-04-26T15:24:26.303Z</time></trkpt><trkpt lat="41.8318926" lon="14.0996748"><ele>1140.25</ele><time>2026-04-26T15:24:27.303Z</time></trkpt><trkpt lat="41.8318443" lon="14.099812"><ele>1140.0</ele><time>2026-04-26T15:24:28.303Z</time></trkpt><trkpt lat="41.8317916" lon="14.0999208"><ele>1138.0</ele><time>2026-04-26T15:24:29.303Z</time></trkpt><trkpt lat="41.8317215" lon="14.100006"><ele>1136.0</ele><time>2026-04-26T15:24:30.31Z</time></trkpt><trkpt lat="41.8316378" lon="14.1000524"><ele>1134.0</ele><time>2026-04-26T15:24:31.311Z</time></trkpt><trkpt lat="41.8315433" lon="14.100095"><ele>1132.0</ele><time>2026-04-26T15:24:32.31Z</time></trkpt><trkpt lat="41.8314262" lon="14.1001316"><ele>1130.0</ele><time>2026-04-26T15:24:33.31Z</time></trkpt><trkpt lat="41.8313052" lon="14.100193"><ele>1130.0</ele><time>2026-04-26T15:24:34.31Z</time></trkpt><trkpt lat="41.8311937" lon="14.100287"><ele>1130.0</ele><time>2026-04-26T15:24:35.31Z</time></trkpt><trkpt lat="41.8311095" lon="14.1004119"><ele>1130.0</ele><time>2026-04-26T15:24:36.31Z</time></trkpt><trkpt lat="41.8310418" lon="14.1005732"><ele>1130.0</ele><time>2026-04-26T15:24:37.31Z</time></trkpt><trkpt lat="41.8310007" lon="14.1007631"><ele>1126.5</ele><time>2026-04-26T15:24:38.31Z</time></trkpt><trkpt lat="41.8309706" lon="14.1009682"><ele>1123.0</ele><time>2026-04-26T15:24:39.311Z</time></trkpt><trkpt lat="41.8309447" lon="14.1011492"><ele>1119.5</ele><time>2026-04-26T15:24:40.31Z</time></trkpt><trkpt lat="41.8309205" lon="14.1013054"><ele>1116.0</ele><time>2026-04-26T15:24:41.31Z</time></trkpt><trkpt lat="41.8308942" lon="14.10143"><ele>1116.0</ele><time>2026-04-26T15:24:42.311Z</time></trkpt><trkpt lat="41.830849" lon="14.1015094"><ele>1116.0</ele><time>2026-04-26T15:24:43.31Z</time></trkpt><trkpt lat="41.8307841" lon="14.1015337"><ele>1116.0</ele><time>2026-04-26T15:24:44.31Z</time></trkpt><trkpt lat="41.8307147" lon="14.1015135"><ele>1116.0</ele><time>2026-04-26T15:24:45.31Z</time></trkpt><trkpt lat="41.8306509" lon="14.1014354"><ele>1116.0</ele><time>2026-04-26T15:24:46.311Z</time></trkpt><trkpt lat="41.8305937" lon="14.1013077"><ele>1116.0</ele><time>2026-04-26T15:24:47.31Z</time></trkpt><trkpt lat="41.8305289" lon="14.1011932"><ele>1116.0</ele><time>2026-04-26T15:24:48.31Z</time></trkpt><trkpt lat="41.8304364" lon="14.1011588"><ele>1116.0</ele><time>2026-04-26T15:24:49.31Z</time></trkpt><trkpt lat="41.8303299" lon="14.101165"><ele>1116.0</ele><time>2026-04-26T15:24:50.31Z</time></trkpt><trkpt lat="41.8302095" lon="14.1012475"><ele>1116.0</ele><time>2026-04-26T15:24:51.31Z</time></trkpt><trkpt lat="41.8300763" lon="14.1013386"><ele>1112.0</ele><time>2026-04-26T15:24:52.311Z</time></trkpt><trkpt lat="41.8299243" lon="14.1014472"><ele>1108.0</ele><time>2026-04-26T15:24:53.31Z</time></trkpt><trkpt lat="41.8297549" lon="14.1015204"><ele>1104.0</ele><time>2026-04-26T15:24:54.311Z</time></trkpt><trkpt lat="41.8295715" lon="14.101551"><ele>1104.0</ele><time>2026-04-26T15:24:55.311Z</time></trkpt><trkpt lat="41.8293759" lon="14.1015591"><ele>1104.0</ele><time>2026-04-26T15:24:56.31Z</time></trkpt><trkpt lat="41.8291821" lon="14.1015604"><ele>1104.0</ele><time>2026-04-26T15:24:57.31Z</time></trkpt><trkpt lat="41.8290017" lon="14.1015751"><ele>1099.0</ele><time>2026-04-26T15:24:58.31Z</time></trkpt><trkpt lat="41.8288278" lon="14.1015867"><ele>1094.0</ele><time>2026-04-26T15:24:59.31Z</time></trkpt><trkpt lat="41.8286721" lon="14.1015931"><ele>1089.0</ele><time>2026-04-26T15:25:00.31Z</time></trkpt><trkpt lat="41.8285292" lon="14.1016007"><ele>1086.75</ele><time>2026-04-26T15:25:01.31Z</time></trkpt><trkpt lat="41.8283969" lon="14.1016164"><ele>1084.5</ele><time>2026-04-26T15:25:02.311Z</time></trkpt><trkpt lat="41.8282822" lon="14.101651"><ele>1082.25</ele><time>2026-04-26T15:25:03.31Z</time></trkpt><trkpt lat="41.8281969" lon="14.1017604"><ele>1080.0</ele><time>2026-04-26T15:25:04.31Z</time></trkpt><trkpt lat="41.8281443" lon="14.1019089"><ele>1080.0</ele><time>2026-04-26T15:25:05.31Z</time></trkpt><trkpt lat="41.8281073" lon="14.1020815"><ele>1080.0</ele><time>2026-04-26T15:25:06.31Z</time></trkpt><trkpt lat="41.828075" lon="14.1022757"><ele>1080.0</ele><time>2026-04-26T15:25:07.31Z</time></trkpt><trkpt lat="41.8280422" lon="14.1024587"><ele>1080.0</ele><time>2026-04-26T15:25:08.311Z</time></trkpt><trkpt lat="41.8280234" lon="14.1026217"><ele>1080.0</ele><time>2026-04-26T15:25:09.31Z</time></trkpt><trkpt lat="41.8279935" lon="14.1027344"><ele>1080.0</ele><time>2026-04-26T15:25:10.31Z</time></trkpt><trkpt lat="41.8279281" lon="14.1028075"><ele>1080.0</ele><time>2026-04-26T15:25:11.31Z</time></trkpt><trkpt lat="41.8278362" lon="14.1028333"><ele>1080.0</ele><time>2026-04-26T15:25:12.31Z</time></trkpt><trkpt lat="41.8277304" lon="14.1027978"><ele>1080.0</ele><time>2026-04-26T15:25:13.31Z</time></trkpt><trkpt lat="41.8275952" lon="14.1027392"><ele>1076.5</ele><time>2026-04-26T15:25:14.31Z</time></trkpt><trkpt lat="41.8274731" lon="14.102674"><ele>1073.0</ele><time>2026-04-26T15:25:15.311Z</time></trkpt><trkpt lat="41.8273603" lon="14.1025839"><ele>1069.5</ele><time>2026-04-26T15:25:16.31Z</time></trkpt><trkpt lat="41.8272646" lon="14.1024618"><ele>1066.0</ele><time>2026-04-26T15:25:17.311Z</time></trkpt><trkpt lat="41.8271835" lon="14.1023228"><ele>1065.75</ele><time>2026-04-26T15:25:18.31Z</time></trkpt><trkpt lat="41.8271018" lon="14.102192"><ele>1065.5</ele><time>2026-04-26T15:25:19.31Z</time></trkpt><trkpt lat="41.8270275" lon="14.1020804"><ele>1065.25</ele><time>2026-04-26T15:25:20.311Z</time></trkpt><trkpt lat="41.8269604" lon="14.1019724"><ele>1065.0</ele><time>2026-04-26T15:25:21.31Z</time></trkpt><trkpt lat="41.8268928" lon="14.1018602"><ele>1065.0</ele><time>2026-04-26T15:25:22.31Z</time></trkpt><trkpt lat="41.8268152" lon="14.1017542"><ele>1065.0</ele><time>2026-04-26T15:25:23.31Z</time></trkpt><trkpt lat="41.8267399" lon="14.1016521"><ele>1065.0</ele><time>2026-04-26T15:25:24.311Z</time></trkpt><trkpt lat="41.8266681" lon="14.1015541"><ele>1065.0</ele><time>2026-04-26T15:25:25.31Z</time></trkpt><trkpt lat="41.8266044" lon="14.1014599"><ele>1065.0</ele><time>2026-04-26T15:25:26.31Z</time></trkpt><trkpt lat="41.826539" lon="14.1013764"><ele>1062.8</ele><time>2026-04-26T15:25:27.311Z</time></trkpt><trkpt lat="41.8264647" lon="14.1013093"><ele>1060.6</ele><time>2026-04-26T15:25:28.31Z</time></trkpt><trkpt lat="41.8263812" lon="14.101265"><ele>1058.4</ele><time>2026-04-26T15:25:29.31Z</time></trkpt><trkpt lat="41.8262986" lon="14.101265"><ele>1056.2</ele><time>2026-04-26T15:25:30.31Z</time></trkpt><trkpt lat="41.8262113" lon="14.1012928"><ele>1054.0</ele><time>2026-04-26T15:25:31.311Z</time></trkpt><trkpt lat="41.8261212" lon="14.101367"><ele>1054.0</ele><time>2026-04-26T15:25:32.31Z</time></trkpt><trkpt lat="41.8260196" lon="14.101466"><ele>1054.0</ele><time>2026-04-26T15:25:33.31Z</time></trkpt><trkpt lat="41.8259129" lon="14.1015644"><ele>1054.0</ele><time>2026-04-26T15:25:34.31Z</time></trkpt><trkpt lat="41.8258091" lon="14.1016395"><ele>1054.0</ele><time>2026-04-26T15:25:35.31Z</time></trkpt><trkpt lat="41.8257086" lon="14.1016961"><ele>1051.6666666666665</ele><time>2026-04-26T15:25:36.31Z</time></trkpt><trkpt lat="41.8255883" lon="14.1017251"><ele>1049.3333333333333</ele><time>2026-04-26T15:25:37.31Z</time></trkpt><trkpt lat="41.8254352" lon="14.1017337"><ele>1047.0</ele><time>2026-04-26T15:25:38.31Z</time></trkpt><trkpt lat="41.8252417" lon="14.10173"><ele>1043.3333333333333</ele><time>2026-04-26T15:25:39.31Z</time></trkpt><trkpt lat="41.8250336" lon="14.1017151"><ele>1039.6666666666665</ele><time>2026-04-26T15:25:40.31Z</time></trkpt><trkpt lat="41.8248257" lon="14.101731"><ele>1036.0</ele><time>2026-04-26T15:25:41.311Z</time></trkpt><trkpt lat="41.824629" lon="14.1017642"><ele>1036.0</ele><time>2026-04-26T15:25:42.31Z</time></trkpt><trkpt lat="41.8244364" lon="14.1018167"><ele>1036.0</ele><time>2026-04-26T15:25:43.31Z</time></trkpt><trkpt lat="41.8242359" lon="14.1018602"><ele>1036.0</ele><time>2026-04-26T15:25:44.311Z</time></trkpt><trkpt lat="41.8240399" lon="14.1019045"><ele>1033.6666666666665</ele><time>2026-04-26T15:25:45.311Z</time></trkpt><trkpt lat="41.8238488" lon="14.1019445"><ele>1031.3333333333333</ele><time>2026-04-26T15:25:46.311Z</time></trkpt><trkpt lat="41.8236664" lon="14.1019973"><ele>1029.0</ele><time>2026-04-26T15:25:47.31Z</time></trkpt><trkpt lat="41.8234909" lon="14.1020397"><ele>1026.0</ele><time>2026-04-26T15:25:48.311Z</time></trkpt><trkpt lat="41.8233233" lon="14.1020802"><ele>1023.0</ele><time>2026-04-26T15:25:49.31Z</time></trkpt><trkpt lat="41.8231624" lon="14.102113"><ele>1020.0</ele><time>2026-04-26T15:25:50.31Z</time></trkpt><trkpt lat="41.8230032" lon="14.1021541"><ele>1020.0</ele><time>2026-04-26T15:25:51.31Z</time></trkpt><trkpt lat="41.8228416" lon="14.1021882"><ele>1020.0</ele><time>2026-04-26T15:25:52.31Z</time></trkpt><trkpt lat="41.8226733" lon="14.102225"><ele>1020.0</ele><time>2026-04-26T15:25:53.31Z</time></trkpt><trkpt lat="41.8224964" lon="14.1022615"><ele>1017.6666666666667</ele><time>2026-04-26T15:25:54.31Z</time></trkpt><trkpt lat="41.82232" lon="14.1023064"><ele>1015.3333333333334</ele><time>2026-04-26T15:25:55.31Z</time></trkpt><trkpt lat="41.8221499" lon="14.1023456"><ele>1013.0</ele><time>2026-04-26T15:25:56.31Z</time></trkpt><trkpt lat="41.8219872" lon="14.1023818"><ele>1013.0</ele><time>2026-04-26T15:25:57.311Z</time></trkpt><trkpt lat="41.8218338" lon="14.1024141"><ele>1013.0</ele><time>2026-04-26T15:25:58.31Z</time></trkpt><trkpt lat="41.821691" lon="14.102448"><ele>1013.0</ele><time>2026-04-26T15:25:59.31Z</time></trkpt><trkpt lat="41.8215581" lon="14.1024727"><ele>1013.0</ele><time>2026-04-26T15:26:00.31Z</time></trkpt><trkpt lat="41.8214315" lon="14.1025024"><ele>1011.0</ele><time>2026-04-26T15:26:01.31Z</time></trkpt><trkpt lat="41.8213082" lon="14.1025563"><ele>1009.0</ele><time>2026-04-26T15:26:02.311Z</time></trkpt><trkpt lat="41.8211846" lon="14.1026535"><ele>1007.0</ele><time>2026-04-26T15:26:03.31Z</time></trkpt><trkpt lat="41.8210741" lon="14.1027698"><ele>1005.0</ele><time>2026-04-26T15:26:04.31Z</time></trkpt><trkpt lat="41.8209812" lon="14.1028833"><ele>1003.4</ele><time>2026-04-26T15:26:05.31Z</time></trkpt><trkpt lat="41.8208932" lon="14.1029921"><ele>1001.8</ele><time>2026-04-26T15:26:06.31Z</time></trkpt><trkpt lat="41.8208097" lon="14.1030769"><ele>1000.2</ele><time>2026-04-26T15:26:07.31Z</time></trkpt><trkpt lat="41.8207308" lon="14.1031375"><ele>998.6</ele><time>2026-04-26T15:26:08.311Z</time></trkpt><trkpt lat="41.8206377" lon="14.1031853"><ele>997.0</ele><time>2026-04-26T15:26:09.311Z</time></trkpt><trkpt lat="41.8205387" lon="14.1032066"><ele>997.0</ele><time>2026-04-26T15:26:10.31Z</time></trkpt><trkpt lat="41.8204326" lon="14.1032208"><ele>997.0</ele><time>2026-04-26T15:26:11.311Z</time></trkpt><trkpt lat="41.8203267" lon="14.1032436"><ele>997.0</ele><time>2026-04-26T15:26:12.311Z</time></trkpt><trkpt lat="41.8202249" lon="14.1032832"><ele>997.0</ele><time>2026-04-26T15:26:13.31Z</time></trkpt><trkpt lat="41.820135" lon="14.1033602"><ele>997.0</ele><time>2026-04-26T15:26:14.31Z</time></trkpt><trkpt lat="41.8200557" lon="14.1034824"><ele>995.0</ele><time>2026-04-26T15:26:15.31Z</time></trkpt><trkpt lat="41.8199799" lon="14.1036303"><ele>993.0</ele><time>2026-04-26T15:26:16.311Z</time></trkpt><trkpt lat="41.8198953" lon="14.1037934"><ele>991.0</ele><time>2026-04-26T15:26:17.311Z</time></trkpt><trkpt lat="41.8198161" lon="14.1039438"><ele>989.0</ele><time>2026-04-26T15:26:18.311Z</time></trkpt><trkpt lat="41.8197461" lon="14.1040809"><ele>989.0</ele><time>2026-04-26T15:26:19.311Z</time></trkpt><trkpt lat="41.8196649" lon="14.1042161"><ele>989.0</ele><time>2026-04-26T15:26:20.31Z</time></trkpt><trkpt lat="41.8195582" lon="14.1043391"><ele>989.0</ele><time>2026-04-26T15:26:21.31Z</time></trkpt><trkpt lat="41.8194086" lon="14.1044677"><ele>989.0</ele><time>2026-04-26T15:26:22.31Z</time></trkpt><trkpt lat="41.8192498" lon="14.1045997"><ele>986.0</ele><time>2026-04-26T15:26:23.31Z</time></trkpt><trkpt lat="41.8190631" lon="14.1047501"><ele>983.0</ele><time>2026-04-26T15:26:24.31Z</time></trkpt><trkpt lat="41.8188407" lon="14.1048885"><ele>983.5</ele><time>2026-04-26T15:26:25.31Z</time></trkpt><trkpt lat="41.8185996" lon="14.1050267"><ele>984.0</ele><time>2026-04-26T15:26:26.31Z</time></trkpt><trkpt lat="41.818364" lon="14.1051491"><ele>978.5</ele><time>2026-04-26T15:26:27.31Z</time></trkpt><trkpt lat="41.8181438" lon="14.1052799"><ele>973.0</ele><time>2026-04-26T15:26:28.31Z</time></trkpt><trkpt lat="41.8179176" lon="14.1053792"><ele>973.0</ele><time>2026-04-26T15:26:29.31Z</time></trkpt><trkpt lat="41.8177137" lon="14.1054606"><ele>973.0</ele><time>2026-04-26T15:26:30.311Z</time></trkpt><trkpt lat="41.8175274" lon="14.105535"><ele>973.0</ele><time>2026-04-26T15:26:31.31Z</time></trkpt><trkpt lat="41.8173544" lon="14.1056192"><ele>970.0</ele><time>2026-04-26T15:26:32.311Z</time></trkpt><trkpt lat="41.8171952" lon="14.1057107"><ele>967.0</ele><time>2026-04-26T15:26:33.31Z</time></trkpt><trkpt lat="41.8170529" lon="14.1058478"><ele>964.0</ele><time>2026-04-26T15:26:34.31Z</time></trkpt><trkpt lat="41.8169235" lon="14.1060285"><ele>960.6666666666666</ele><time>2026-04-26T15:26:35.31Z</time></trkpt><trkpt lat="41.8167805" lon="14.1062243"><ele>957.3333333333333</ele><time>2026-04-26T15:26:36.311Z</time></trkpt><trkpt lat="41.8166396" lon="14.1064286"><ele>954.0</ele><time>2026-04-26T15:26:37.311Z</time></trkpt><trkpt lat="41.8164999" lon="14.1066289"><ele>953.6666666666667</ele><time>2026-04-26T15:26:38.31Z</time></trkpt><trkpt lat="41.8163687" lon="14.1068233"><ele>953.3333333333334</ele><time>2026-04-26T15:26:39.31Z</time></trkpt><trkpt lat="41.8162366" lon="14.1070134"><ele>953.0</ele><time>2026-04-26T15:26:40.31Z</time></trkpt><trkpt lat="41.8161048" lon="14.1071977"><ele>950.6666666666667</ele><time>2026-04-26T15:26:41.31Z</time></trkpt><trkpt lat="41.8159679" lon="14.107388"><ele>948.3333333333333</ele><time>2026-04-26T15:26:42.31Z</time></trkpt><trkpt lat="41.8158411" lon="14.1075762"><ele>946.0</ele><time>2026-04-26T15:26:43.31Z</time></trkpt><trkpt lat="41.8157105" lon="14.1077642"><ele>945.3333333333333</ele><time>2026-04-26T15:26:44.31Z</time></trkpt><trkpt lat="41.8155665" lon="14.1079245"><ele>944.6666666666667</ele><time>2026-04-26T15:26:45.31Z</time></trkpt><trkpt lat="41.8154102" lon="14.1080829"><ele>944.0</ele><time>2026-04-26T15:26:46.31Z</time></trkpt><trkpt lat="41.8152435" lon="14.1082329"><ele>942.0</ele><time>2026-04-26T15:26:47.31Z</time></trkpt><trkpt lat="41.8150816" lon="14.108364"><ele>940.0</ele><time>2026-04-26T15:26:48.31Z</time></trkpt><trkpt lat="41.8149245" lon="14.1084995"><ele>938.0</ele><time>2026-04-26T15:26:49.311Z</time></trkpt><trkpt lat="41.8147698" lon="14.1086223"><ele>938.0</ele><time>2026-04-26T15:26:50.31Z</time></trkpt><trkpt lat="41.8146152" lon="14.1087005"><ele>938.0</ele><time>2026-04-26T15:26:51.31Z</time></trkpt><trkpt lat="41.8144455" lon="14.1087407"><ele>938.0</ele><time>2026-04-26T15:26:52.31Z</time></trkpt><trkpt lat="41.8142733" lon="14.108744"><ele>937.0</ele><time>2026-04-26T15:26:53.311Z</time></trkpt><trkpt lat="41.8140937" lon="14.1087487"><ele>936.0</ele><time>2026-04-26T15:26:54.311Z</time></trkpt><trkpt lat="41.81392" lon="14.1087624"><ele>935.0</ele><time>2026-04-26T15:26:55.31Z</time></trkpt><trkpt lat="41.8137467" lon="14.1087643"><ele>935.0</ele><time>2026-04-26T15:26:56.311Z</time></trkpt><trkpt lat="41.8135828" lon="14.1087674"><ele>935.0</ele><time>2026-04-26T15:26:57.31Z</time></trkpt><trkpt lat="41.8134202" lon="14.1087609"><ele>935.0</ele><time>2026-04-26T15:26:58.31Z</time></trkpt><trkpt lat="41.8132622" lon="14.1087233"><ele>931.6666666666667</ele><time>2026-04-26T15:26:59.31Z</time></trkpt><trkpt lat="41.8131041" lon="14.1086288"><ele>928.3333333333333</ele><time>2026-04-26T15:27:00.31Z</time></trkpt><trkpt lat="41.8129412" lon="14.1085049"><ele>925.0</ele><time>2026-04-26T15:27:01.31Z</time></trkpt><trkpt lat="41.8127651" lon="14.1083737"><ele>922.6666666666666</ele><time>2026-04-26T15:27:02.311Z</time></trkpt><trkpt lat="41.812571" lon="14.1082472"><ele>920.3333333333333</ele><time>2026-04-26T15:27:03.31Z</time></trkpt><trkpt lat="41.8123673" lon="14.1081114"><ele>918.0</ele><time>2026-04-26T15:27:04.31Z</time></trkpt><trkpt lat="41.8121742" lon="14.1079648"><ele>917.0</ele><time>2026-04-26T15:27:05.31Z</time></trkpt><trkpt lat="41.8120018" lon="14.1078234"><ele>916.0</ele><time>2026-04-26T15:27:06.311Z</time></trkpt><trkpt lat="41.8118247" lon="14.1076987"><ele>915.0</ele><time>2026-04-26T15:27:07.31Z</time></trkpt><trkpt lat="41.8116341" lon="14.107618"><ele>912.6666666666667</ele><time>2026-04-26T15:27:08.31Z</time></trkpt><trkpt lat="41.8114296" lon="14.1076095"><ele>910.3333333333334</ele><time>2026-04-26T15:27:09.31Z</time></trkpt><trkpt lat="41.8112155" lon="14.1076211"><ele>908.0</ele><time>2026-04-26T15:27:10.311Z</time></trkpt><trkpt lat="41.8109983" lon="14.1076767"><ele>905.6666666666667</ele><time>2026-04-26T15:27:11.31Z</time></trkpt><trkpt lat="41.8107959" lon="14.1077589"><ele>903.3333333333333</ele><time>2026-04-26T15:27:12.311Z</time></trkpt><trkpt lat="41.8106125" lon="14.1078356"><ele>901.0</ele><time>2026-04-26T15:27:13.31Z</time></trkpt><trkpt lat="41.81046" lon="14.1079282"><ele>901.0</ele><time>2026-04-26T15:27:14.311Z</time></trkpt><trkpt lat="41.8103362" lon="14.1080699"><ele>901.0</ele><time>2026-04-26T15:27:15.31Z</time></trkpt><trkpt lat="41.8102452" lon="14.1082277"><ele>901.0</ele><time>2026-04-26T15:27:16.31Z</time></trkpt><trkpt lat="41.8101499" lon="14.1083852"><ele>899.0</ele><time>2026-04-26T15:27:17.31Z</time></trkpt><trkpt lat="41.8099958" lon="14.1084705"><ele>897.0</ele><time>2026-04-26T15:27:18.311Z</time></trkpt><trkpt lat="41.8098176" lon="14.1085333"><ele>895.0</ele><time>2026-04-26T15:27:19.31Z</time></trkpt><trkpt lat="41.8096275" lon="14.1085992"><ele>895.0</ele><time>2026-04-26T15:27:20.31Z</time></trkpt><trkpt lat="41.8094491" lon="14.1086608"><ele>895.0</ele><time>2026-04-26T15:27:21.31Z</time></trkpt><trkpt lat="41.8092931" lon="14.1087709"><ele>895.0</ele><time>2026-04-26T15:27:22.311Z</time></trkpt><trkpt lat="41.8091635" lon="14.108894"><ele>893.8</ele><time>2026-04-26T15:27:23.311Z</time></trkpt><trkpt lat="41.8090684" lon="14.1090128"><ele>892.6</ele><time>2026-04-26T15:27:24.311Z</time></trkpt><trkpt lat="41.8089838" lon="14.1090828"><ele>891.4000000000001</ele><time>2026-04-26T15:27:25.31Z</time></trkpt><trkpt lat="41.8088935" lon="14.1091137"><ele>890.2</ele><time>2026-04-26T15:27:26.311Z</time></trkpt><trkpt lat="41.8087998" lon="14.1090771"><ele>889.0</ele><time>2026-04-26T15:27:27.31Z</time></trkpt><trkpt lat="41.8087356" lon="14.1089834"><ele>888.3333333333333</ele><time>2026-04-26T15:27:28.311Z</time></trkpt><trkpt lat="41.808687" lon="14.10883"><ele>887.6666666666667</ele><time>2026-04-26T15:27:29.31Z</time></trkpt><trkpt lat="41.8086308" lon="14.1086109"><ele>887.0</ele><time>2026-04-26T15:27:30.31Z</time></trkpt><trkpt lat="41.8085744" lon="14.1083958"><ele>884.6666666666667</ele><time>2026-04-26T15:27:31.31Z</time></trkpt><trkpt lat="41.808504" lon="14.1081857"><ele>882.3333333333333</ele><time>2026-04-26T15:27:32.31Z</time></trkpt><trkpt lat="41.8084488" lon="14.1080002"><ele>880.0</ele><time>2026-04-26T15:27:33.31Z</time></trkpt><trkpt lat="41.8083975" lon="14.1078228"><ele>878.2</ele><time>2026-04-26T15:27:34.31Z</time></trkpt><trkpt lat="41.8083574" lon="14.1076732"><ele>876.4</ele><time>2026-04-26T15:27:35.31Z</time></trkpt><trkpt lat="41.8083153" lon="14.1075486"><ele>874.5999999999999</ele><time>2026-04-26T15:27:36.31Z</time></trkpt><trkpt lat="41.80825" lon="14.1074702"><ele>872.8</ele><time>2026-04-26T15:27:37.311Z</time></trkpt><trkpt lat="41.8081509" lon="14.1074424"><ele>871.0</ele><time>2026-04-26T15:27:38.311Z</time></trkpt><trkpt lat="41.8080358" lon="14.1074674"><ele>871.0</ele><time>2026-04-26T15:27:39.311Z</time></trkpt><trkpt lat="41.8079031" lon="14.107506"><ele>871.0</ele><time>2026-04-26T15:27:40.31Z</time></trkpt><trkpt lat="41.8077772" lon="14.1075427"><ele>871.0</ele><time>2026-04-26T15:27:41.31Z</time></trkpt><trkpt lat="41.8076593" lon="14.1075708"><ele>871.0</ele><time>2026-04-26T15:27:42.31Z</time></trkpt><trkpt lat="41.8075463" lon="14.107589"><ele>869.1999999999999</ele><time>2026-04-26T15:27:43.311Z</time></trkpt><trkpt lat="41.8074269" lon="14.107578"><ele>867.3999999999999</ele><time>2026-04-26T15:27:44.311Z</time></trkpt><trkpt lat="41.8073163" lon="14.1075385"><ele>865.6</ele><time>2026-04-26T15:27:45.31Z</time></trkpt><trkpt lat="41.8072137" lon="14.1074925"><ele>863.8</ele><time>2026-04-26T15:27:46.31Z</time></trkpt><trkpt lat="41.8071128" lon="14.1074467"><ele>862.0</ele><time>2026-04-26T15:27:47.31Z</time></trkpt><trkpt lat="41.8070089" lon="14.1074147"><ele>862.0</ele><time>2026-04-26T15:27:48.31Z</time></trkpt><trkpt lat="41.8069052" lon="14.1074148"><ele>862.0</ele><time>2026-04-26T15:27:49.31Z</time></trkpt><trkpt lat="41.8068087" lon="14.1074398"><ele>862.0</ele><time>2026-04-26T15:27:50.311Z</time></trkpt><trkpt lat="41.8067204" lon="14.1074982"><ele>862.0</ele><time>2026-04-26T15:27:51.31Z</time></trkpt><trkpt lat="41.8066351" lon="14.1075624"><ele>862.0</ele><time>2026-04-26T15:27:52.311Z</time></trkpt><trkpt lat="41.8065621" lon="14.1076005"><ele>860.7142857142858</ele><time>2026-04-26T15:27:53.311Z</time></trkpt><trkpt lat="41.8064958" lon="14.1076181"><ele>859.4285714285713</ele><time>2026-04-26T15:27:54.31Z</time></trkpt><trkpt lat="41.8064314" lon="14.1076106"><ele>858.1428571428571</ele><time>2026-04-26T15:27:55.31Z</time></trkpt><trkpt lat="41.8063571" lon="14.1075688"><ele>856.8571428571429</ele><time>2026-04-26T15:27:56.31Z</time></trkpt><trkpt lat="41.8062957" lon="14.1075008"><ele>855.5714285714287</ele><time>2026-04-26T15:27:57.31Z</time></trkpt><trkpt lat="41.8062504" lon="14.1074257"><ele>854.2857142857142</ele><time>2026-04-26T15:27:58.31Z</time></trkpt><trkpt lat="41.8062185" lon="14.1073363"><ele>853.0</ele><time>2026-04-26T15:27:59.31Z</time></trkpt><trkpt lat="41.8061962" lon="14.1072339"><ele>852.1666666666666</ele><time>2026-04-26T15:28:00.311Z</time></trkpt><trkpt lat="41.8061929" lon="14.1071261"><ele>851.3333333333333</ele><time>2026-04-26T15:28:01.31Z</time></trkpt><trkpt lat="41.8062202" lon="14.1070186"><ele>850.5</ele><time>2026-04-26T15:28:02.311Z</time></trkpt><trkpt lat="41.8062461" lon="14.106919"><ele>849.6666666666667</ele><time>2026-04-26T15:28:03.311Z</time></trkpt><trkpt lat="41.8062395" lon="14.1068125"><ele>848.8333333333334</ele><time>2026-04-26T15:28:04.31Z</time></trkpt><trkpt lat="41.8061869" lon="14.106709"><ele>848.0</ele><time>2026-04-26T15:28:05.31Z</time></trkpt><trkpt lat="41.8061159" lon="14.1066273"><ele>847.5</ele><time>2026-04-26T15:28:06.311Z</time></trkpt><trkpt lat="41.8060076" lon="14.1065226"><ele>847.0</ele><time>2026-04-26T15:28:07.311Z</time></trkpt><trkpt lat="41.8058813" lon="14.106412"><ele>846.5</ele><time>2026-04-26T15:28:08.31Z</time></trkpt><trkpt lat="41.8057603" lon="14.1063337"><ele>846.0</ele><time>2026-04-26T15:28:09.31Z</time></trkpt><trkpt lat="41.8056383" lon="14.1063048"><ele>842.3333333333333</ele><time>2026-04-26T15:28:10.311Z</time></trkpt><trkpt lat="41.8055143" lon="14.1063258"><ele>838.6666666666666</ele><time>2026-04-26T15:28:11.31Z</time></trkpt><trkpt lat="41.8053758" lon="14.1063992"><ele>835.0</ele><time>2026-04-26T15:28:12.311Z</time></trkpt><trkpt lat="41.8050301" lon="14.1066106"><ele>834.6666666666666</ele><time>2026-04-26T15:28:14.311Z</time></trkpt><trkpt lat="41.8048316" lon="14.1067202"><ele>834.3333333333333</ele><time>2026-04-26T15:28:15.311Z</time></trkpt><trkpt lat="41.8046337" lon="14.1068143"><ele>834.0</ele><time>2026-04-26T15:28:16.311Z</time></trkpt><trkpt lat="41.804456" lon="14.1068875"><ele>832.0</ele><time>2026-04-26T15:28:17.31Z</time></trkpt><trkpt lat="41.8042853" lon="14.1069372"><ele>830.0</ele><time>2026-04-26T15:28:18.31Z</time></trkpt><trkpt lat="41.8041059" lon="14.1069291"><ele>828.0</ele><time>2026-04-26T15:28:19.31Z</time></trkpt><trkpt lat="41.8039291" lon="14.1068875"><ele>828.0</ele><time>2026-04-26T15:28:20.31Z</time></trkpt><trkpt lat="41.8037538" lon="14.1067967"><ele>828.0</ele><time>2026-04-26T15:28:21.31Z</time></trkpt><trkpt lat="41.8035518" lon="14.1066672"><ele>828.0</ele><time>2026-04-26T15:28:22.31Z</time></trkpt><trkpt lat="41.8033472" lon="14.1064948"><ele>824.6666666666667</ele><time>2026-04-26T15:28:23.31Z</time></trkpt><trkpt lat="41.8031622" lon="14.1063278"><ele>821.3333333333334</ele><time>2026-04-26T15:28:24.31Z</time></trkpt><trkpt lat="41.8029866" lon="14.1061522"><ele>818.0</ele><time>2026-04-26T15:28:25.311Z</time></trkpt><trkpt lat="41.8028146" lon="14.106002"><ele>817.6666666666667</ele><time>2026-04-26T15:28:26.31Z</time></trkpt><trkpt lat="41.8026595" lon="14.1058836"><ele>817.3333333333333</ele><time>2026-04-26T15:28:27.311Z</time></trkpt><trkpt lat="41.8025117" lon="14.1057849"><ele>817.0</ele><time>2026-04-26T15:28:28.31Z</time></trkpt><trkpt lat="41.8023698" lon="14.1057132"><ele>817.0</ele><time>2026-04-26T15:28:29.311Z</time></trkpt><trkpt lat="41.8022185" lon="14.1056884"><ele>817.0</ele><time>2026-04-26T15:28:30.311Z</time></trkpt><trkpt lat="41.8020602" lon="14.1057126"><ele>817.0</ele><time>2026-04-26T15:28:31.31Z</time></trkpt><trkpt lat="41.8018829" lon="14.1057608"><ele>815.0</ele><time>2026-04-26T15:28:32.31Z</time></trkpt><trkpt lat="41.8017078" lon="14.1057923"><ele>813.0</ele><time>2026-04-26T15:28:33.31Z</time></trkpt><trkpt lat="41.8015229" lon="14.1057573"><ele>811.0</ele><time>2026-04-26T15:28:34.31Z</time></trkpt><trkpt lat="41.8013356" lon="14.1056836"><ele>810.6666666666666</ele><time>2026-04-26T15:28:35.31Z</time></trkpt><trkpt lat="41.8011647" lon="14.1055795"><ele>810.3333333333333</ele><time>2026-04-26T15:28:36.31Z</time></trkpt><trkpt lat="41.8010122" lon="14.1054424"><ele>810.0</ele><time>2026-04-26T15:28:37.31Z</time></trkpt><trkpt lat="41.8008477" lon="14.1053112"><ele>808.0</ele><time>2026-04-26T15:28:38.31Z</time></trkpt><trkpt lat="41.8006669" lon="14.1051795"><ele>806.0</ele><time>2026-04-26T15:28:39.31Z</time></trkpt><trkpt lat="41.8004843" lon="14.1050455"><ele>804.0</ele><time>2026-04-26T15:28:40.31Z</time></trkpt><trkpt lat="41.8003056" lon="14.1049193"><ele>804.3333333333333</ele><time>2026-04-26T15:28:41.31Z</time></trkpt><trkpt lat="41.8001479" lon="14.1047992"><ele>804.6666666666666</ele><time>2026-04-26T15:28:42.311Z</time></trkpt><trkpt lat="41.7999915" lon="14.1046835"><ele>805.0</ele><time>2026-04-26T15:28:43.31Z</time></trkpt><trkpt lat="41.799832" lon="14.1045648"><ele>805.0</ele><time>2026-04-26T15:28:44.311Z</time></trkpt><trkpt lat="41.7996779" lon="14.1044464"><ele>805.0</ele><time>2026-04-26T15:28:45.31Z</time></trkpt><trkpt lat="41.799525" lon="14.1043301"><ele>805.0</ele><time>2026-04-26T15:28:46.311Z</time></trkpt><trkpt lat="41.7993691" lon="14.1042132"><ele>803.3333333333333</ele><time>2026-04-26T15:28:47.311Z</time></trkpt><trkpt lat="41.7991927" lon="14.1040931"><ele>801.6666666666667</ele><time>2026-04-26T15:28:48.311Z</time></trkpt><trkpt lat="41.7990125" lon="14.1039718"><ele>800.0</ele><time>2026-04-26T15:28:49.311Z</time></trkpt><trkpt lat="41.7988448" lon="14.1038645"><ele>803.3333333333334</ele><time>2026-04-26T15:28:50.311Z</time></trkpt><trkpt lat="41.7986983" lon="14.1037632"><ele>806.6666666666667</ele><time>2026-04-26T15:28:51.31Z</time></trkpt><trkpt lat="41.7985473" lon="14.1036888"><ele>810.0</ele><time>2026-04-26T15:28:52.31Z</time></trkpt><trkpt lat="41.798402" lon="14.1036469"><ele>810.75</ele><time>2026-04-26T15:28:53.311Z</time></trkpt><trkpt lat="41.7982546" lon="14.103635"><ele>811.5</ele><time>2026-04-26T15:28:54.31Z</time></trkpt><trkpt lat="41.7981105" lon="14.1036018"><ele>812.25</ele><time>2026-04-26T15:28:55.31Z</time></trkpt><trkpt lat="41.7979715" lon="14.1035184"><ele>813.0</ele><time>2026-04-26T15:28:56.31Z</time></trkpt><trkpt lat="41.7978462" lon="14.1034038"><ele>813.0</ele><time>2026-04-26T15:28:57.31Z</time></trkpt><trkpt lat="41.7977302" lon="14.1032824"><ele>813.0</ele><time>2026-04-26T15:28:58.311Z</time></trkpt><trkpt lat="41.7976238" lon="14.1031599"><ele>813.0</ele><time>2026-04-26T15:28:59.31Z</time></trkpt><trkpt lat="41.7975248" lon="14.1030428"><ele>813.0</ele><time>2026-04-26T15:29:00.31Z</time></trkpt><trkpt lat="41.7974203" lon="14.1028958"><ele>813.6666666666667</ele><time>2026-04-26T15:29:01.311Z</time></trkpt><trkpt lat="41.7973173" lon="14.1027092"><ele>814.3333333333334</ele><time>2026-04-26T15:29:02.31Z</time></trkpt><trkpt lat="41.7972187" lon="14.102473"><ele>815.0</ele><time>2026-04-26T15:29:03.31Z</time></trkpt><trkpt lat="41.797132" lon="14.1022192"><ele>818.6666666666667</ele><time>2026-04-26T15:29:04.31Z</time></trkpt><trkpt lat="41.7970122" lon="14.101973"><ele>822.3333333333333</ele><time>2026-04-26T15:29:05.31Z</time></trkpt><trkpt lat="41.7968829" lon="14.1017604"><ele>826.0</ele><time>2026-04-26T15:29:06.311Z</time></trkpt><trkpt lat="41.7967664" lon="14.1015805"><ele>826.0</ele><time>2026-04-26T15:29:07.31Z</time></trkpt><trkpt lat="41.7966919" lon="14.1014147"><ele>826.0</ele><time>2026-04-26T15:29:08.31Z</time></trkpt><trkpt lat="41.7966601" lon="14.1012495"><ele>826.0</ele><time>2026-04-26T15:29:09.31Z</time></trkpt><trkpt lat="41.7966705" lon="14.1010439"><ele>826.0</ele><time>2026-04-26T15:29:10.31Z</time></trkpt><trkpt lat="41.7966887" lon="14.1008196"><ele>827.75</ele><time>2026-04-26T15:29:11.31Z</time></trkpt><trkpt lat="41.7966928" lon="14.1006013"><ele>829.5</ele><time>2026-04-26T15:29:12.311Z</time></trkpt><trkpt lat="41.7966678" lon="14.1004138"><ele>831.25</ele><time>2026-04-26T15:29:13.311Z</time></trkpt><trkpt lat="41.7966135" lon="14.100237"><ele>833.0</ele><time>2026-04-26T15:29:14.31Z</time></trkpt><trkpt lat="41.7965245" lon="14.1000553"><ele>837.0</ele><time>2026-04-26T15:29:15.311Z</time></trkpt><trkpt lat="41.7963925" lon="14.0998441"><ele>841.0</ele><time>2026-04-26T15:29:16.31Z</time></trkpt><trkpt lat="41.7962377" lon="14.0996056"><ele>845.0</ele><time>2026-04-26T15:29:17.31Z</time></trkpt><trkpt lat="41.7960563" lon="14.0992884"><ele>845.0</ele><time>2026-04-26T15:29:18.311Z</time></trkpt><trkpt lat="41.7958558" lon="14.0989417"><ele>845.0</ele><time>2026-04-26T15:29:19.31Z</time></trkpt><trkpt lat="41.7956535" lon="14.0985958"><ele>845.0</ele><time>2026-04-26T15:29:20.31Z</time></trkpt><trkpt lat="41.7954814" lon="14.0982877"><ele>845.0</ele><time>2026-04-26T15:29:21.311Z</time></trkpt><trkpt lat="41.7953227" lon="14.0980229"><ele>847.3333333333334</ele><time>2026-04-26T15:29:22.311Z</time></trkpt><trkpt lat="41.795173" lon="14.0977825"><ele>849.6666666666667</ele><time>2026-04-26T15:29:23.31Z</time></trkpt><trkpt lat="41.7950505" lon="14.0975717"><ele>852.0</ele><time>2026-04-26T15:29:24.31Z</time></trkpt><trkpt lat="41.794936" lon="14.097399"><ele>858.6666666666667</ele><time>2026-04-26T15:29:25.31Z</time></trkpt><trkpt lat="41.7948146" lon="14.0972888"><ele>865.3333333333334</ele><time>2026-04-26T15:29:26.311Z</time></trkpt><trkpt lat="41.7946772" lon="14.0972339"><ele>872.0</ele><time>2026-04-26T15:29:27.31Z</time></trkpt><trkpt lat="41.7945135" lon="14.0972465"><ele>872.0</ele><time>2026-04-26T15:29:28.311Z</time></trkpt><trkpt lat="41.7943315" lon="14.0972965"><ele>872.0</ele><time>2026-04-26T15:29:29.31Z</time></trkpt><trkpt lat="41.7941669" lon="14.0973831"><ele>872.0</ele><time>2026-04-26T15:29:30.31Z</time></trkpt><trkpt lat="41.7940305" lon="14.09745"><ele>872.0</ele><time>2026-04-26T15:29:31.311Z</time></trkpt><trkpt lat="41.7939176" lon="14.0975122"><ele>872.0</ele><time>2026-04-26T15:29:32.31Z</time></trkpt><trkpt lat="41.7938313" lon="14.0975162"><ele>872.0</ele><time>2026-04-26T15:29:33.31Z</time></trkpt><trkpt lat="41.7937391" lon="14.0974483"><ele>872.0</ele><time>2026-04-26T15:29:35.31Z</time></trkpt><trkpt lat="41.7937163" lon="14.0973408"><ele>872.0</ele><time>2026-04-26T15:29:37.31Z</time></trkpt><trkpt lat="41.7937557" lon="14.0972083"><ele>872.0</ele><time>2026-04-26T15:29:39.31Z</time></trkpt><trkpt lat="41.7937912" lon="14.0971186"><ele>872.0</ele><time>2026-04-26T15:29:40.31Z</time></trkpt><trkpt lat="41.7938268" lon="14.0970146"><ele>872.0</ele><time>2026-04-26T15:29:41.311Z</time></trkpt><trkpt lat="41.7938677" lon="14.0968888"><ele>872.0</ele><time>2026-04-26T15:29:42.31Z</time></trkpt><trkpt lat="41.7939033" lon="14.0967448"><ele>872.0</ele><time>2026-04-26T15:29:43.311Z</time></trkpt><trkpt lat="41.7939512" lon="14.0965885"><ele>875.0</ele><time>2026-04-26T15:29:44.31Z</time></trkpt><trkpt lat="41.794005" lon="14.0964035"><ele>878.0</ele><time>2026-04-26T15:29:45.31Z</time></trkpt><trkpt lat="41.7940642" lon="14.0962018"><ele>881.0</ele><time>2026-04-26T15:29:46.31Z</time></trkpt><trkpt lat="41.7941064" lon="14.0960468"><ele>884.0</ele><time>2026-04-26T15:29:47.31Z</time></trkpt><trkpt lat="41.7941623" lon="14.0958941"><ele>884.0</ele><time>2026-04-26T15:29:48.311Z</time></trkpt><trkpt lat="41.794251" lon="14.0957655"><ele>884.0</ele><time>2026-04-26T15:29:49.31Z</time></trkpt><trkpt lat="41.7943552" lon="14.0956886"><ele>884.0</ele><time>2026-04-26T15:29:50.311Z</time></trkpt><trkpt lat="41.7944919" lon="14.0956675"><ele>884.0</ele><time>2026-04-26T15:29:51.311Z</time></trkpt><trkpt lat="41.7946654" lon="14.0956561"><ele>893.0</ele><time>2026-04-26T15:29:52.31Z</time></trkpt><trkpt lat="41.7948625" lon="14.0956649"><ele>902.0</ele><time>2026-04-26T15:29:53.31Z</time></trkpt><trkpt lat="41.7950291" lon="14.0956495"><ele>911.0</ele><time>2026-04-26T15:29:54.31Z</time></trkpt><trkpt lat="41.7951613" lon="14.09568"><ele>909.6666666666667</ele><time>2026-04-26T15:29:55.31Z</time></trkpt><trkpt lat="41.7952521" lon="14.0957396"><ele>908.3333333333334</ele><time>2026-04-26T15:29:56.31Z</time></trkpt><trkpt lat="41.7952751" lon="14.095829"><ele>907.0</ele><time>2026-04-26T15:29:57.311Z</time></trkpt><trkpt lat="41.7952572" lon="14.0959239"><ele>905.6666666666667</ele><time>2026-04-26T15:29:58.31Z</time></trkpt><trkpt lat="41.7952077" lon="14.0960148"><ele>904.3333333333334</ele><time>2026-04-26T15:29:59.311Z</time></trkpt><trkpt lat="41.79513" lon="14.0960899"><ele>903.0</ele><time>2026-04-26T15:30:00.311Z</time></trkpt><trkpt lat="41.7950195" lon="14.0961201"><ele>899.0</ele><time>2026-04-26T15:30:01.31Z</time></trkpt><trkpt lat="41.7949031" lon="14.0961315"><ele>895.0</ele><time>2026-04-26T15:30:02.31Z</time></trkpt><trkpt lat="41.7947757" lon="14.0961362"><ele>891.0</ele><time>2026-04-26T15:30:03.311Z</time></trkpt><trkpt lat="41.7946165" lon="14.0961572"><ele>887.0</ele><time>2026-04-26T15:30:04.311Z</time></trkpt><trkpt lat="41.7944284" lon="14.0961814"><ele>886.0</ele><time>2026-04-26T15:30:05.31Z</time></trkpt><trkpt lat="41.7942236" lon="14.0962178"><ele>885.0</ele><time>2026-04-26T15:30:06.31Z</time></trkpt><trkpt lat="41.794015" lon="14.0962618"><ele>884.0</ele><time>2026-04-26T15:30:07.31Z</time></trkpt><trkpt lat="41.7937943" lon="14.0963362"><ele>884.0</ele><time>2026-04-26T15:30:08.31Z</time></trkpt><trkpt lat="41.793568" lon="14.0964219"><ele>884.0</ele><time>2026-04-26T15:30:09.31Z</time></trkpt><trkpt lat="41.7933467" lon="14.0965313"><ele>880.0</ele><time>2026-04-26T15:30:10.31Z</time></trkpt><trkpt lat="41.7931343" lon="14.09667"><ele>876.0</ele><time>2026-04-26T15:30:11.31Z</time></trkpt><trkpt lat="41.7929252" lon="14.0968184"><ele>876.0</ele><time>2026-04-26T15:30:12.311Z</time></trkpt><trkpt lat="41.7927299" lon="14.0969651"><ele>876.0</ele><time>2026-04-26T15:30:13.31Z</time></trkpt><trkpt lat="41.7925453" lon="14.097115"><ele>876.0</ele><time>2026-04-26T15:30:14.31Z</time></trkpt><trkpt lat="41.7923575" lon="14.097276"><ele>876.5</ele><time>2026-04-26T15:30:15.31Z</time></trkpt><trkpt lat="41.792168" lon="14.0974453"><ele>877.0</ele><time>2026-04-26T15:30:16.31Z</time></trkpt><trkpt lat="41.7919684" lon="14.0976099"><ele>881.5</ele><time>2026-04-26T15:30:17.311Z</time></trkpt><trkpt lat="41.7917593" lon="14.0977751"><ele>886.0</ele><time>2026-04-26T15:30:18.31Z</time></trkpt><trkpt lat="41.7915469" lon="14.097946"><ele>886.0</ele><time>2026-04-26T15:30:19.31Z</time></trkpt><trkpt lat="41.7913254" lon="14.0981039"><ele>886.0</ele><time>2026-04-26T15:30:20.31Z</time></trkpt><trkpt lat="41.7910938" lon="14.0982395"><ele>883.5</ele><time>2026-04-26T15:30:21.31Z</time></trkpt><trkpt lat="41.7908518" lon="14.0983508"><ele>881.0</ele><time>2026-04-26T15:30:22.311Z</time></trkpt><trkpt lat="41.7906007" lon="14.0984426"><ele>881.0</ele><time>2026-04-26T15:30:23.311Z</time></trkpt><trkpt lat="41.7903389" lon="14.0985123"><ele>881.0</ele><time>2026-04-26T15:30:24.31Z</time></trkpt><trkpt lat="41.790076" lon="14.098562"><ele>880.0</ele><time>2026-04-26T15:30:25.31Z</time></trkpt><trkpt lat="41.7898097" lon="14.0985779"><ele>879.0</ele><time>2026-04-26T15:30:26.31Z</time></trkpt><trkpt lat="41.7895382" lon="14.098562"><ele>874.5</ele><time>2026-04-26T15:30:27.311Z</time></trkpt><trkpt lat="41.7892617" lon="14.0985197"><ele>870.0</ele><time>2026-04-26T15:30:28.31Z</time></trkpt><trkpt lat="41.7889918" lon="14.0984543"><ele>870.0</ele><time>2026-04-26T15:30:29.31Z</time></trkpt><trkpt lat="41.7887297" lon="14.0983643"><ele>870.0</ele><time>2026-04-26T15:30:30.31Z</time></trkpt><trkpt lat="41.7884602" lon="14.098251"><ele>870.0</ele><time>2026-04-26T15:30:31.311Z</time></trkpt><trkpt lat="41.7881901" lon="14.0981014"><ele>870.0</ele><time>2026-04-26T15:30:32.31Z</time></trkpt><trkpt lat="41.7879143" lon="14.0979399"><ele>860.5</ele><time>2026-04-26T15:30:33.31Z</time></trkpt><trkpt lat="41.7876438" lon="14.0977799"><ele>851.0</ele><time>2026-04-26T15:30:34.31Z</time></trkpt><trkpt lat="41.7873845" lon="14.0976299"><ele>851.0</ele><time>2026-04-26T15:30:35.31Z</time></trkpt><trkpt lat="41.7871352" lon="14.0974855"><ele>851.0</ele><time>2026-04-26T15:30:36.31Z</time></trkpt><trkpt lat="41.786895" lon="14.097353"><ele>850.0</ele><time>2026-04-26T15:30:37.311Z</time></trkpt><trkpt lat="41.7866426" lon="14.0972352"><ele>849.0</ele><time>2026-04-26T15:30:38.31Z</time></trkpt><trkpt lat="41.7863808" lon="14.0971305"><ele>849.0</ele><time>2026-04-26T15:30:39.31Z</time></trkpt><trkpt lat="41.786108" lon="14.0970552"><ele>849.0</ele><time>2026-04-26T15:30:40.311Z</time></trkpt><trkpt lat="41.7858272" lon="14.0970217"><ele>845.5</ele><time>2026-04-26T15:30:41.31Z</time></trkpt><trkpt lat="41.7855596" lon="14.0970202"><ele>842.0</ele><time>2026-04-26T15:30:42.31Z</time></trkpt><trkpt lat="41.7853017" lon="14.0970422"><ele>839.5</ele><time>2026-04-26T15:30:43.31Z</time></trkpt><trkpt lat="41.7850596" lon="14.0971067"><ele>837.0</ele><time>2026-04-26T15:30:44.31Z</time></trkpt><trkpt lat="41.7848183" lon="14.0971901"><ele>837.0</ele><time>2026-04-26T15:30:45.311Z</time></trkpt><trkpt lat="41.7845939" lon="14.0972903"><ele>837.0</ele><time>2026-04-26T15:30:46.31Z</time></trkpt><trkpt lat="41.7843807" lon="14.0974068"><ele>837.6666666666667</ele><time>2026-04-26T15:30:47.31Z</time></trkpt><trkpt lat="41.7841886" lon="14.0975295"><ele>838.3333333333334</ele><time>2026-04-26T15:30:48.31Z</time></trkpt><trkpt lat="41.784006" lon="14.0976609"><ele>839.0</ele><time>2026-04-26T15:30:49.31Z</time></trkpt><trkpt lat="41.7838376" lon="14.0977887"><ele>839.0</ele><time>2026-04-26T15:30:50.31Z</time></trkpt><trkpt lat="41.7836927" lon="14.0979079"><ele>839.0</ele><time>2026-04-26T15:30:51.31Z</time></trkpt><trkpt lat="41.7835631" lon="14.0980022"><ele>839.0</ele><time>2026-04-26T15:30:52.31Z</time></trkpt><trkpt lat="41.7834759" lon="14.0980597"><ele>839.0</ele><time>2026-04-26T15:30:53.31Z</time></trkpt><trkpt lat="41.7834051" lon="14.0981063"><ele>840.0000000000001</ele><time>2026-04-26T15:30:54.31Z</time></trkpt><trkpt lat="41.7833348" lon="14.0981654"><ele>841.0</ele><time>2026-04-26T15:30:56.311Z</time></trkpt><trkpt lat="41.7832587" lon="14.0982433"><ele>842.0</ele><time>2026-04-26T15:31:13.317Z</time></trkpt><trkpt lat="41.7831738" lon="14.0983135"><ele>843.0</ele><time>2026-04-26T15:31:15.317Z</time></trkpt><trkpt lat="41.7832262" lon="14.0983636"><ele>844.0000000000001</ele><time>2026-04-26T15:31:27.318Z</time></trkpt><trkpt lat="41.7832764" lon="14.0982765"><ele>845.0</ele><time>2026-04-26T15:32:07.317Z</time></trkpt><trkpt lat="41.7831922" lon="14.0983545"><ele>841.75</ele><time>2026-04-26T15:32:09.317Z</time></trkpt><trkpt lat="41.7831139" lon="14.0984227"><ele>838.5</ele><time>2026-04-26T15:32:10.317Z</time></trkpt><trkpt lat="41.7830032" lon="14.0985013"><ele>835.25</ele><time>2026-04-26T15:32:11.318Z</time></trkpt><trkpt lat="41.7828739" lon="14.0985896"><ele>832.0</ele><time>2026-04-26T15:32:12.318Z</time></trkpt><trkpt lat="41.7827225" lon="14.0986993"><ele>831.6666666666666</ele><time>2026-04-26T15:32:13.318Z</time></trkpt><trkpt lat="41.7825638" lon="14.0988271"><ele>831.3333333333333</ele><time>2026-04-26T15:32:14.317Z</time></trkpt><trkpt lat="41.7823973" lon="14.09896"><ele>831.0</ele><time>2026-04-26T15:32:15.318Z</time></trkpt><trkpt lat="41.7822223" lon="14.0990877"><ele>825.3333333333333</ele><time>2026-04-26T15:32:16.317Z</time></trkpt><trkpt lat="41.7820389" lon="14.0992219"><ele>819.6666666666666</ele><time>2026-04-26T15:32:17.318Z</time></trkpt><trkpt lat="41.781855" lon="14.0993607"><ele>814.0</ele><time>2026-04-26T15:32:18.317Z</time></trkpt><trkpt lat="41.7816382" lon="14.0994859"><ele>809.5</ele><time>2026-04-26T15:32:19.318Z</time></trkpt><trkpt lat="41.7814395" lon="14.0996292"><ele>805.0</ele><time>2026-04-26T15:32:20.317Z</time></trkpt><trkpt lat="41.781237" lon="14.0997773"><ele>803.5</ele><time>2026-04-26T15:32:21.317Z</time></trkpt><trkpt lat="41.7810316" lon="14.0999242"><ele>802.0</ele><time>2026-04-26T15:32:22.317Z</time></trkpt><trkpt lat="41.7808286" lon="14.1000694"><ele>802.0</ele><time>2026-04-26T15:32:23.318Z</time></trkpt><trkpt lat="41.7806311" lon="14.1002077"><ele>802.0</ele><time>2026-04-26T15:32:24.317Z</time></trkpt><trkpt lat="41.7804261" lon="14.1003553"><ele>802.0</ele><time>2026-04-26T15:32:25.317Z</time></trkpt><trkpt lat="41.780217" lon="14.1004972"><ele>802.0</ele><time>2026-04-26T15:32:26.317Z</time></trkpt><trkpt lat="41.7800082" lon="14.1006203"><ele>801.5</ele><time>2026-04-26T15:32:27.317Z</time></trkpt><trkpt lat="41.7797965" lon="14.1007602"><ele>801.0</ele><time>2026-04-26T15:32:28.317Z</time></trkpt><trkpt lat="41.7795844" lon="14.100921"><ele>801.0</ele><time>2026-04-26T15:32:29.317Z</time></trkpt><trkpt lat="41.7793713" lon="14.1010869"><ele>801.0</ele><time>2026-04-26T15:32:30.317Z</time></trkpt><trkpt lat="41.7791551" lon="14.1012528"><ele>801.0</ele><time>2026-04-26T15:32:31.317Z</time></trkpt><trkpt lat="41.7789326" lon="14.1014187"><ele>801.0</ele><time>2026-04-26T15:32:32.318Z</time></trkpt><trkpt lat="41.7787087" lon="14.1015808"><ele>802.5</ele><time>2026-04-26T15:32:33.317Z</time></trkpt><trkpt lat="41.7784789" lon="14.1017482"><ele>804.0</ele><time>2026-04-26T15:32:34.317Z</time></trkpt><trkpt lat="41.7782459" lon="14.1019141"><ele>804.0</ele><time>2026-04-26T15:32:35.317Z</time></trkpt><trkpt lat="41.7780172" lon="14.1020683"><ele>804.0</ele><time>2026-04-26T15:32:36.318Z</time></trkpt><trkpt lat="41.7777803" lon="14.1022113"><ele>804.0</ele><time>2026-04-26T15:32:37.317Z</time></trkpt><trkpt lat="41.7775215" lon="14.1023399"><ele>804.0</ele><time>2026-04-26T15:32:38.317Z</time></trkpt><trkpt lat="41.7772511" lon="14.1024627"><ele>804.0</ele><time>2026-04-26T15:32:39.317Z</time></trkpt><trkpt lat="41.7769766" lon="14.1025772"><ele>804.0</ele><time>2026-04-26T15:32:40.317Z</time></trkpt><trkpt lat="41.7767036" lon="14.1026691"><ele>804.5</ele><time>2026-04-26T15:32:41.317Z</time></trkpt><trkpt lat="41.77645" lon="14.1027382"><ele>805.0</ele><time>2026-04-26T15:32:42.318Z</time></trkpt><trkpt lat="41.7762095" lon="14.1027937"><ele>805.6666666666666</ele><time>2026-04-26T15:32:43.317Z</time></trkpt><trkpt lat="41.7759846" lon="14.1028376"><ele>806.3333333333333</ele><time>2026-04-26T15:32:44.317Z</time></trkpt><trkpt lat="41.7757733" lon="14.102861"><ele>807.0</ele><time>2026-04-26T15:32:45.317Z</time></trkpt><trkpt lat="41.775575" lon="14.102882"><ele>807.0</ele><time>2026-04-26T15:32:46.317Z</time></trkpt><trkpt lat="41.7753905" lon="14.1028999"><ele>807.0</ele><time>2026-04-26T15:32:47.317Z</time></trkpt><trkpt lat="41.7752252" lon="14.102923"><ele>807.0</ele><time>2026-04-26T15:32:48.317Z</time></trkpt><trkpt lat="41.7750883" lon="14.1029522"><ele>807.0</ele><time>2026-04-26T15:32:49.318Z</time></trkpt><trkpt lat="41.7749742" lon="14.1029903"><ele>807.0</ele><time>2026-04-26T15:32:50.317Z</time></trkpt><trkpt lat="41.7748637" lon="14.1030125"><ele>807.0</ele><time>2026-04-26T15:32:51.317Z</time></trkpt><trkpt lat="41.7747291" lon="14.1029967"><ele>807.0</ele><time>2026-04-26T15:32:52.317Z</time></trkpt><trkpt lat="41.7745617" lon="14.1029585"><ele>807.0</ele><time>2026-04-26T15:32:53.318Z</time></trkpt><trkpt lat="41.7743676" lon="14.1029123"><ele>807.0</ele><time>2026-04-26T15:32:54.317Z</time></trkpt><trkpt lat="41.7741547" lon="14.1028358"><ele>807.0</ele><time>2026-04-26T15:32:55.317Z</time></trkpt><trkpt lat="41.7739397" lon="14.10277"><ele>807.0</ele><time>2026-04-26T15:32:56.317Z</time></trkpt><trkpt lat="41.7737158" lon="14.1027336"><ele>807.0</ele><time>2026-04-26T15:32:57.317Z</time></trkpt><trkpt lat="41.7735114" lon="14.1026946"><ele>807.0</ele><time>2026-04-26T15:32:58.317Z</time></trkpt><trkpt lat="41.7733128" lon="14.1026361"><ele>807.0</ele><time>2026-04-26T15:32:59.318Z</time></trkpt><trkpt lat="41.7731047" lon="14.1025597"><ele>807.0</ele><time>2026-04-26T15:33:00.317Z</time></trkpt><trkpt lat="41.7729062" lon="14.1024682"><ele>807.0</ele><time>2026-04-26T15:33:01.317Z</time></trkpt><trkpt lat="41.7727134" lon="14.1023671"><ele>807.6666666666667</ele><time>2026-04-26T15:33:02.317Z</time></trkpt><trkpt lat="41.7725123" lon="14.1022574"><ele>808.3333333333334</ele><time>2026-04-26T15:33:03.317Z</time></trkpt><trkpt lat="41.7723084" lon="14.1021471"><ele>809.0</ele><time>2026-04-26T15:33:04.317Z</time></trkpt><trkpt lat="41.7721036" lon="14.1020357"><ele>809.0</ele><time>2026-04-26T15:33:05.317Z</time></trkpt><trkpt lat="41.7719043" lon="14.1019248"><ele>809.0</ele><time>2026-04-26T15:33:06.317Z</time></trkpt><trkpt lat="41.7717077" lon="14.1018118"><ele>809.0</ele><time>2026-04-26T15:33:07.317Z</time></trkpt><trkpt lat="41.7715133" lon="14.101693"><ele>809.3333333333334</ele><time>2026-04-26T15:33:08.318Z</time></trkpt><trkpt lat="41.7713178" lon="14.1015841"><ele>809.6666666666667</ele><time>2026-04-26T15:33:09.317Z</time></trkpt><trkpt lat="41.7711142" lon="14.1014698"><ele>810.0</ele><time>2026-04-26T15:33:10.317Z</time></trkpt><trkpt lat="41.7709073" lon="14.1013559"><ele>811.0</ele><time>2026-04-26T15:33:11.317Z</time></trkpt><trkpt lat="41.7707032" lon="14.10124"><ele>812.0</ele><time>2026-04-26T15:33:12.317Z</time></trkpt><trkpt lat="41.7705023" lon="14.1011242"><ele>813.0</ele><time>2026-04-26T15:33:13.317Z</time></trkpt><trkpt lat="41.7703091" lon="14.1010217"><ele>813.3333333333333</ele><time>2026-04-26T15:33:14.317Z</time></trkpt><trkpt lat="41.7701128" lon="14.100914"><ele>813.6666666666666</ele><time>2026-04-26T15:33:15.317Z</time></trkpt><trkpt lat="41.7699147" lon="14.1008065"><ele>814.0</ele><time>2026-04-26T15:33:16.317Z</time></trkpt><trkpt lat="41.769718" lon="14.1006938"><ele>814.0</ele><time>2026-04-26T15:33:17.317Z</time></trkpt><trkpt lat="41.7695223" lon="14.1005878"><ele>814.0</ele><time>2026-04-26T15:33:18.318Z</time></trkpt><trkpt lat="41.7693265" lon="14.1004838"><ele>814.0</ele><time>2026-04-26T15:33:19.318Z</time></trkpt><trkpt lat="41.7691358" lon="14.1003782"><ele>814.6666666666666</ele><time>2026-04-26T15:33:20.317Z</time></trkpt><trkpt lat="41.7689451" lon="14.1002738"><ele>815.3333333333333</ele><time>2026-04-26T15:33:21.317Z</time></trkpt><trkpt lat="41.7687548" lon="14.1001667"><ele>816.0</ele><time>2026-04-26T15:33:22.317Z</time></trkpt><trkpt lat="41.7685566" lon="14.1000592"><ele>815.6666666666667</ele><time>2026-04-26T15:33:23.317Z</time></trkpt><trkpt lat="41.7683589" lon="14.0999509"><ele>815.3333333333334</ele><time>2026-04-26T15:33:24.317Z</time></trkpt><trkpt lat="41.7681581" lon="14.0998349"><ele>815.0</ele><time>2026-04-26T15:33:25.317Z</time></trkpt><trkpt lat="41.7679696" lon="14.0997248"><ele>815.0</ele><time>2026-04-26T15:33:26.317Z</time></trkpt><trkpt lat="41.7677912" lon="14.0996217"><ele>815.0</ele><time>2026-04-26T15:33:27.318Z</time></trkpt><trkpt lat="41.7676103" lon="14.0995183"><ele>815.0</ele><time>2026-04-26T15:33:28.317Z</time></trkpt><trkpt lat="41.7674214" lon="14.099412"><ele>815.0</ele><time>2026-04-26T15:33:29.317Z</time></trkpt><trkpt lat="41.7672165" lon="14.0993063"><ele>815.0</ele><time>2026-04-26T15:33:30.317Z</time></trkpt><trkpt lat="41.7670083" lon="14.0991852"><ele>815.0</ele><time>2026-04-26T15:33:31.317Z</time></trkpt><trkpt lat="41.7667964" lon="14.0990642"><ele>814.5</ele><time>2026-04-26T15:33:32.317Z</time></trkpt><trkpt lat="41.766586" lon="14.0989492"><ele>814.0</ele><time>2026-04-26T15:33:33.317Z</time></trkpt><trkpt lat="41.7663804" lon="14.0988349"><ele>814.0</ele><time>2026-04-26T15:33:34.317Z</time></trkpt><trkpt lat="41.7661792" lon="14.0987215"><ele>814.0</ele><time>2026-04-26T15:33:35.318Z</time></trkpt><trkpt lat="41.7659806" lon="14.0986129"><ele>814.0</ele><time>2026-04-26T15:33:36.318Z</time></trkpt><trkpt lat="41.765783" lon="14.098501"><ele>814.3333333333333</ele><time>2026-04-26T15:33:37.317Z</time></trkpt><trkpt lat="41.7655867" lon="14.0983927"><ele>814.6666666666667</ele><time>2026-04-26T15:33:38.318Z</time></trkpt><trkpt lat="41.765391" lon="14.0982808"><ele>815.0</ele><time>2026-04-26T15:33:39.318Z</time></trkpt><trkpt lat="41.7652029" lon="14.0981738"><ele>815.3333333333334</ele><time>2026-04-26T15:33:40.317Z</time></trkpt><trkpt lat="41.7650199" lon="14.0980715"><ele>815.6666666666667</ele><time>2026-04-26T15:33:41.317Z</time></trkpt><trkpt lat="41.7648456" lon="14.0979679"><ele>816.0</ele><time>2026-04-26T15:33:42.317Z</time></trkpt><trkpt lat="41.7646798" lon="14.0978705"><ele>816.0</ele><time>2026-04-26T15:33:43.318Z</time></trkpt><trkpt lat="41.7645256" lon="14.0977802"><ele>816.0</ele><time>2026-04-26T15:33:44.318Z</time></trkpt><trkpt lat="41.7643717" lon="14.0977037"><ele>816.0</ele><time>2026-04-26T15:33:45.317Z</time></trkpt><trkpt lat="41.7642156" lon="14.0976208"><ele>816.25</ele><time>2026-04-26T15:33:46.317Z</time></trkpt><trkpt lat="41.7640665" lon="14.0975393"><ele>816.5</ele><time>2026-04-26T15:33:47.317Z</time></trkpt><trkpt lat="41.7639353" lon="14.0974649"><ele>816.75</ele><time>2026-04-26T15:33:48.317Z</time></trkpt><trkpt lat="41.7638361" lon="14.0973834"><ele>817.0</ele><time>2026-04-26T15:33:49.317Z</time></trkpt><trkpt lat="41.7637538" lon="14.0972994"><ele>817.1666666666666</ele><time>2026-04-26T15:33:50.317Z</time></trkpt><trkpt lat="41.7636939" lon="14.0972008"><ele>817.3333333333333</ele><time>2026-04-26T15:33:51.317Z</time></trkpt><trkpt lat="41.7636507" lon="14.0971002"><ele>817.5</ele><time>2026-04-26T15:33:52.318Z</time></trkpt><trkpt lat="41.7636189" lon="14.0970128"><ele>817.6666666666667</ele><time>2026-04-26T15:33:53.317Z</time></trkpt><trkpt lat="41.763505" lon="14.0969766"><ele>817.8333333333334</ele><time>2026-04-26T15:33:55.317Z</time></trkpt><trkpt lat="41.7634416" lon="14.0970279"><ele>818.0</ele><time>2026-04-26T15:33:56.317Z</time></trkpt><trkpt lat="41.7633708" lon="14.0970722"><ele>817.5</ele><time>2026-04-26T15:33:57.317Z</time></trkpt><trkpt lat="41.763259" lon="14.0970545"><ele>817.0</ele><time>2026-04-26T15:33:58.317Z</time></trkpt><trkpt lat="41.7631343" lon="14.097001"><ele>816.5</ele><time>2026-04-26T15:33:59.318Z</time></trkpt><trkpt lat="41.7629727" lon="14.0969145"><ele>816.0</ele><time>2026-04-26T15:34:00.317Z</time></trkpt><trkpt lat="41.7628049" lon="14.0968262"><ele>816.0</ele><time>2026-04-26T15:34:01.317Z</time></trkpt><trkpt lat="41.7626499" lon="14.0967393"><ele>816.0</ele><time>2026-04-26T15:34:02.317Z</time></trkpt><trkpt lat="41.7624729" lon="14.0966399"><ele>816.0</ele><time>2026-04-26T15:34:03.317Z</time></trkpt><trkpt lat="41.7622871" lon="14.0965377"><ele>816.0</ele><time>2026-04-26T15:34:04.317Z</time></trkpt><trkpt lat="41.7621054" lon="14.0964368"><ele>816.0</ele><time>2026-04-26T15:34:05.317Z</time></trkpt><trkpt lat="41.7619353" lon="14.0963445"><ele>816.0</ele><time>2026-04-26T15:34:06.318Z</time></trkpt><trkpt lat="41.7617558" lon="14.0962538"><ele>817.0</ele><time>2026-04-26T15:34:07.317Z</time></trkpt><trkpt lat="41.761565" lon="14.0961632"><ele>818.0</ele><time>2026-04-26T15:34:08.317Z</time></trkpt><trkpt lat="41.7613781" lon="14.0960647"><ele>819.0</ele><time>2026-04-26T15:34:09.317Z</time></trkpt><trkpt lat="41.7612095" lon="14.0959514"><ele>819.0</ele><time>2026-04-26T15:34:10.317Z</time></trkpt><trkpt lat="41.7610556" lon="14.0958627"><ele>819.0</ele><time>2026-04-26T15:34:11.317Z</time></trkpt><trkpt lat="41.7609078" lon="14.0957771"><ele>819.0</ele><time>2026-04-26T15:34:12.317Z</time></trkpt><trkpt lat="41.7607629" lon="14.0956924"><ele>819.0</ele><time>2026-04-26T15:34:13.317Z</time></trkpt><trkpt lat="41.7606162" lon="14.0956111"><ele>819.0</ele><time>2026-04-26T15:34:14.317Z</time></trkpt><trkpt lat="41.760474" lon="14.0955309"><ele>819.0</ele><time>2026-04-26T15:34:15.317Z</time></trkpt><trkpt lat="41.7603371" lon="14.0954524"><ele>819.0</ele><time>2026-04-26T15:34:16.317Z</time></trkpt><trkpt lat="41.7602053" lon="14.0953757"><ele>819.0</ele><time>2026-04-26T15:34:17.317Z</time></trkpt><trkpt lat="41.7600707" lon="14.0952968"><ele>819.0</ele><time>2026-04-26T15:34:18.318Z</time></trkpt><trkpt lat="41.7599291" lon="14.0952116"><ele>819.0</ele><time>2026-04-26T15:34:19.317Z</time></trkpt><trkpt lat="41.7597838" lon="14.0951329"><ele>819.6666666666667</ele><time>2026-04-26T15:34:20.317Z</time></trkpt><trkpt lat="41.7596279" lon="14.0950492"><ele>820.3333333333334</ele><time>2026-04-26T15:34:21.317Z</time></trkpt><trkpt lat="41.7594658" lon="14.0949654"><ele>821.0</ele><time>2026-04-26T15:34:22.317Z</time></trkpt><trkpt lat="41.7593054" lon="14.0948749"><ele>821.3333333333334</ele><time>2026-04-26T15:34:23.317Z</time></trkpt><trkpt lat="41.7591604" lon="14.0947865"><ele>821.6666666666667</ele><time>2026-04-26T15:34:24.317Z</time></trkpt><trkpt lat="41.7590255" lon="14.094706"><ele>822.0</ele><time>2026-04-26T15:34:25.317Z</time></trkpt><trkpt lat="41.7588934" lon="14.094631"><ele>822.0</ele><time>2026-04-26T15:34:26.317Z</time></trkpt><trkpt lat="41.7587444" lon="14.0945563"><ele>822.0</ele><time>2026-04-26T15:34:27.318Z</time></trkpt><trkpt lat="41.7585633" lon="14.094466"><ele>822.0</ele><time>2026-04-26T15:34:28.317Z</time></trkpt><trkpt lat="41.7583741" lon="14.094362"><ele>821.6666666666667</ele><time>2026-04-26T15:34:29.317Z</time></trkpt><trkpt lat="41.7581903" lon="14.0942496"><ele>821.3333333333334</ele><time>2026-04-26T15:34:30.317Z</time></trkpt><trkpt lat="41.75802" lon="14.0941476"><ele>821.0</ele><time>2026-04-26T15:34:31.317Z</time></trkpt><trkpt lat="41.757857" lon="14.0940512"><ele>821.0</ele><time>2026-04-26T15:34:32.317Z</time></trkpt><trkpt lat="41.7577092" lon="14.0939699"><ele>821.0</ele><time>2026-04-26T15:34:33.318Z</time></trkpt><trkpt lat="41.7575675" lon="14.0938835"><ele>821.0</ele><time>2026-04-26T15:34:34.318Z</time></trkpt><trkpt lat="41.7574322" lon="14.0938095"><ele>821.5</ele><time>2026-04-26T15:34:35.318Z</time></trkpt><trkpt lat="41.7573055" lon="14.0937394"><ele>822.0</ele><time>2026-04-26T15:34:36.318Z</time></trkpt><trkpt lat="41.7571841" lon="14.0936749"><ele>822.5</ele><time>2026-04-26T15:34:37.317Z</time></trkpt><trkpt lat="41.7570687" lon="14.0936165"><ele>823.0</ele><time>2026-04-26T15:34:38.317Z</time></trkpt><trkpt lat="41.7569503" lon="14.0935771"><ele>823.2</ele><time>2026-04-26T15:34:39.317Z</time></trkpt><trkpt lat="41.7568395" lon="14.0935482"><ele>823.4</ele><time>2026-04-26T15:34:40.317Z</time></trkpt><trkpt lat="41.7567381" lon="14.0935221"><ele>823.6</ele><time>2026-04-26T15:34:41.318Z</time></trkpt><trkpt lat="41.7566463" lon="14.093493"><ele>823.8000000000001</ele><time>2026-04-26T15:34:42.317Z</time></trkpt><trkpt lat="41.7565646" lon="14.0934593"><ele>824.0</ele><time>2026-04-26T15:34:43.317Z</time></trkpt><trkpt lat="41.756496" lon="14.093421"><ele>824.0</ele><time>2026-04-26T15:34:44.317Z</time></trkpt><trkpt lat="41.7563941" lon="14.0933335"><ele>824.0</ele><time>2026-04-26T15:34:46.317Z</time></trkpt><trkpt lat="41.7563217" lon="14.0932146"><ele>824.0</ele><time>2026-04-26T15:34:48.317Z</time></trkpt><trkpt lat="41.7562312" lon="14.0931485"><ele>824.0</ele><time>2026-04-26T15:34:50.317Z</time></trkpt><trkpt lat="41.7561383" lon="14.0931996"><ele>824.0</ele><time>2026-04-26T15:34:52.317Z</time></trkpt><trkpt lat="41.7560569" lon="14.0933293"><ele>823.6</ele><time>2026-04-26T15:34:54.317Z</time></trkpt><trkpt lat="41.7559925" lon="14.0933815"><ele>823.2</ele><time>2026-04-26T15:34:55.318Z</time></trkpt><trkpt lat="41.7559185" lon="14.093408"><ele>822.8000000000001</ele><time>2026-04-26T15:34:56.318Z</time></trkpt><trkpt lat="41.7558376" lon="14.0934018"><ele>822.4000000000001</ele><time>2026-04-26T15:34:57.318Z</time></trkpt><trkpt lat="41.7557351" lon="14.093399"><ele>822.0</ele><time>2026-04-26T15:34:58.317Z</time></trkpt><trkpt lat="41.7556008" lon="14.0933902"><ele>822.0</ele><time>2026-04-26T15:34:59.317Z</time></trkpt><trkpt lat="41.7554382" lon="14.0933863"><ele>822.0</ele><time>2026-04-26T15:35:00.317Z</time></trkpt><trkpt lat="41.755238" lon="14.0933532"><ele>822.0</ele><time>2026-04-26T15:35:01.318Z</time></trkpt><trkpt lat="41.7550222" lon="14.0933206"><ele>822.5</ele><time>2026-04-26T15:35:02.317Z</time></trkpt><trkpt lat="41.7547902" lon="14.0932913"><ele>823.0</ele><time>2026-04-26T15:35:03.317Z</time></trkpt><trkpt lat="41.754539" lon="14.0932593"><ele>824.0</ele><time>2026-04-26T15:35:04.317Z</time></trkpt><trkpt lat="41.7542885" lon="14.0932312"><ele>825.0</ele><time>2026-04-26T15:35:05.317Z</time></trkpt><trkpt lat="41.7540403" lon="14.0932055"><ele>825.0</ele><time>2026-04-26T15:35:06.317Z</time></trkpt><trkpt lat="41.7537924" lon="14.0931843"><ele>825.0</ele><time>2026-04-26T15:35:07.317Z</time></trkpt><trkpt lat="41.7535407" lon="14.0931538"><ele>825.5</ele><time>2026-04-26T15:35:08.318Z</time></trkpt><trkpt lat="41.7533029" lon="14.0931271"><ele>826.0</ele><time>2026-04-26T15:35:09.318Z</time></trkpt><trkpt lat="41.7530763" lon="14.0931026"><ele>826.0</ele><time>2026-04-26T15:35:10.317Z</time></trkpt><trkpt lat="41.7528585" lon="14.093081"><ele>826.0</ele><time>2026-04-26T15:35:11.318Z</time></trkpt><trkpt lat="41.7526567" lon="14.093058"><ele>826.0</ele><time>2026-04-26T15:35:12.317Z</time></trkpt><trkpt lat="41.7524578" lon="14.0930313"><ele>824.6666666666666</ele><time>2026-04-26T15:35:13.317Z</time></trkpt><trkpt lat="41.7522746" lon="14.0930091"><ele>823.3333333333333</ele><time>2026-04-26T15:35:14.317Z</time></trkpt><trkpt lat="41.7521056" lon="14.0929873"><ele>822.0</ele><time>2026-04-26T15:35:15.317Z</time></trkpt><trkpt lat="41.7519528" lon="14.0929675"><ele>821.8</ele><time>2026-04-26T15:35:16.317Z</time></trkpt><trkpt lat="41.7518152" lon="14.0929467"><ele>821.6</ele><time>2026-04-26T15:35:17.317Z</time></trkpt><trkpt lat="41.7516958" lon="14.0929299"><ele>821.4</ele><time>2026-04-26T15:35:18.317Z</time></trkpt><trkpt lat="41.7515965" lon="14.0929264"><ele>821.1999999999999</ele><time>2026-04-26T15:35:19.318Z</time></trkpt><trkpt lat="41.7515157" lon="14.0929266"><ele>821.0</ele><time>2026-04-26T15:35:20.317Z</time></trkpt><trkpt lat="41.7514335" lon="14.0929472"><ele>821.0000000000001</ele><time>2026-04-26T15:35:21.318Z</time></trkpt><trkpt lat="41.7513557" lon="14.0929759"><ele>821.0</ele><time>2026-04-26T15:35:22.317Z</time></trkpt><trkpt lat="41.7512887" lon="14.0930234"><ele>821.0</ele><time>2026-04-26T15:35:23.318Z</time></trkpt><trkpt lat="41.751231" lon="14.0930986"><ele>821.0</ele><time>2026-04-26T15:35:24.318Z</time></trkpt><trkpt lat="41.7511908" lon="14.0931822"><ele>821.0000000000001</ele><time>2026-04-26T15:35:25.318Z</time></trkpt><trkpt lat="41.7511569" lon="14.0933061"><ele>821.0</ele><time>2026-04-26T15:35:26.317Z</time></trkpt><trkpt lat="41.7511225" lon="14.0934783"><ele>821.3333333333334</ele><time>2026-04-26T15:35:27.317Z</time></trkpt><trkpt lat="41.7510818" lon="14.0936819"><ele>821.6666666666667</ele><time>2026-04-26T15:35:28.317Z</time></trkpt><trkpt lat="41.7510358" lon="14.0939336"><ele>822.0</ele><time>2026-04-26T15:35:29.318Z</time></trkpt><trkpt lat="41.750974" lon="14.0941825"><ele>822.0</ele><time>2026-04-26T15:35:30.317Z</time></trkpt><trkpt lat="41.7509086" lon="14.0944449"><ele>822.0</ele><time>2026-04-26T15:35:31.317Z</time></trkpt><trkpt lat="41.7508513" lon="14.0947012"><ele>822.0</ele><time>2026-04-26T15:35:32.317Z</time></trkpt><trkpt lat="41.7507907" lon="14.0949539"><ele>822.6666666666667</ele><time>2026-04-26T15:35:33.318Z</time></trkpt><trkpt lat="41.7507326" lon="14.0952025"><ele>823.3333333333334</ele><time>2026-04-26T15:35:34.318Z</time></trkpt><trkpt lat="41.7506745" lon="14.0954642"><ele>824.0</ele><time>2026-04-26T15:35:35.317Z</time></trkpt><trkpt lat="41.7506159" lon="14.0957168"><ele>825.0</ele><time>2026-04-26T15:35:36.318Z</time></trkpt><trkpt lat="41.750557" lon="14.0959622"><ele>826.0</ele><time>2026-04-26T15:35:37.317Z</time></trkpt><trkpt lat="41.7505063" lon="14.0961986"><ele>827.0</ele><time>2026-04-26T15:35:38.317Z</time></trkpt><trkpt lat="41.7504492" lon="14.096422"><ele>827.3333333333334</ele><time>2026-04-26T15:35:39.317Z</time></trkpt><trkpt lat="41.7503749" lon="14.0966091"><ele>827.6666666666667</ele><time>2026-04-26T15:35:40.317Z</time></trkpt><trkpt lat="41.7502832" lon="14.0967853"><ele>828.0</ele><time>2026-04-26T15:35:41.317Z</time></trkpt><trkpt lat="41.7501708" lon="14.0969507"><ele>826.3333333333333</ele><time>2026-04-26T15:35:42.318Z</time></trkpt><trkpt lat="41.75004" lon="14.0970791"><ele>824.6666666666666</ele><time>2026-04-26T15:35:43.318Z</time></trkpt><trkpt lat="41.7498985" lon="14.0971707"><ele>823.0</ele><time>2026-04-26T15:35:44.317Z</time></trkpt><trkpt lat="41.7497424" lon="14.097223"><ele>823.0</ele><time>2026-04-26T15:35:45.318Z</time></trkpt><trkpt lat="41.7495795" lon="14.0972452"><ele>823.0</ele><time>2026-04-26T15:35:46.317Z</time></trkpt><trkpt lat="41.7493793" lon="14.0972535"><ele>823.0</ele><time>2026-04-26T15:35:47.317Z</time></trkpt><trkpt lat="41.7491527" lon="14.0972368"><ele>822.5</ele><time>2026-04-26T15:35:48.317Z</time></trkpt><trkpt lat="41.7489019" lon="14.0971918"><ele>822.0</ele><time>2026-04-26T15:35:49.317Z</time></trkpt><trkpt lat="41.7486254" lon="14.097157"><ele>823.0</ele><time>2026-04-26T15:35:50.317Z</time></trkpt><trkpt lat="41.7483423" lon="14.09712"><ele>824.0</ele><time>2026-04-26T15:35:51.318Z</time></trkpt><trkpt lat="41.7480976" lon="14.097109"><ele>824.0</ele><time>2026-04-26T15:35:52.317Z</time></trkpt><trkpt lat="41.7478823" lon="14.0970645"><ele>824.0</ele><time>2026-04-26T15:35:53.317Z</time></trkpt><trkpt lat="41.7476896" lon="14.096978"><ele>824.0</ele><time>2026-04-26T15:35:54.317Z</time></trkpt><trkpt lat="41.7475063" lon="14.0968348"><ele>824.3333333333334</ele><time>2026-04-26T15:35:55.317Z</time></trkpt><trkpt lat="41.747357" lon="14.0966547"><ele>824.6666666666667</ele><time>2026-04-26T15:35:56.317Z</time></trkpt><trkpt lat="41.7472156" lon="14.0964874"><ele>825.0</ele><time>2026-04-26T15:35:57.317Z</time></trkpt><trkpt lat="41.74707" lon="14.0963691"><ele>825.0</ele><time>2026-04-26T15:35:58.318Z</time></trkpt><trkpt lat="41.7469071" lon="14.0962978"><ele>825.0</ele><time>2026-04-26T15:35:59.318Z</time></trkpt><trkpt lat="41.7467452" lon="14.0962833"><ele>825.0</ele><time>2026-04-26T15:36:00.317Z</time></trkpt><trkpt lat="41.7465772" lon="14.0963287"><ele>825.0</ele><time>2026-04-26T15:36:01.317Z</time></trkpt><trkpt lat="41.746408" lon="14.0964223"><ele>825.0</ele><time>2026-04-26T15:36:02.318Z</time></trkpt><trkpt lat="41.7462691" lon="14.0965731"><ele>825.0</ele><time>2026-04-26T15:36:03.317Z</time></trkpt><trkpt lat="41.7461654" lon="14.096758"><ele>827.6666666666667</ele><time>2026-04-26T15:36:04.317Z</time></trkpt><trkpt lat="41.7460907" lon="14.0969619"><ele>830.3333333333334</ele><time>2026-04-26T15:36:05.317Z</time></trkpt><trkpt lat="41.7460567" lon="14.097185"><ele>833.0</ele><time>2026-04-26T15:36:06.317Z</time></trkpt><trkpt lat="41.7460654" lon="14.0974181"><ele>836.3333333333334</ele><time>2026-04-26T15:36:07.317Z</time></trkpt><trkpt lat="41.7461071" lon="14.0976781"><ele>839.6666666666667</ele><time>2026-04-26T15:36:08.318Z</time></trkpt><trkpt lat="41.7461699" lon="14.097954"><ele>843.0</ele><time>2026-04-26T15:36:09.317Z</time></trkpt><trkpt lat="41.7462181" lon="14.0982154"><ele>844.0</ele><time>2026-04-26T15:36:10.317Z</time></trkpt><trkpt lat="41.7462235" lon="14.0984694"><ele>845.0</ele><time>2026-04-26T15:36:11.317Z</time></trkpt><trkpt lat="41.7462024" lon="14.0987317"><ele>846.0</ele><time>2026-04-26T15:36:12.317Z</time></trkpt><trkpt lat="41.7461498" lon="14.0990545"><ele>845.5</ele><time>2026-04-26T15:36:13.317Z</time></trkpt><trkpt lat="41.7460887" lon="14.0994298"><ele>845.0</ele><time>2026-04-26T15:36:14.318Z</time></trkpt><trkpt lat="41.7460237" lon="14.0998171"><ele>848.0</ele><time>2026-04-26T15:36:15.317Z</time></trkpt><trkpt lat="41.7459574" lon="14.1002005"><ele>851.0</ele><time>2026-04-26T15:36:16.318Z</time></trkpt><trkpt lat="41.7458908" lon="14.1005631"><ele>852.0</ele><time>2026-04-26T15:36:17.317Z</time></trkpt><trkpt lat="41.7458284" lon="14.1009226"><ele>853.0</ele><time>2026-04-26T15:36:18.317Z</time></trkpt><trkpt lat="41.7457715" lon="14.1012933"><ele>853.5</ele><time>2026-04-26T15:36:19.318Z</time></trkpt><trkpt lat="41.7457167" lon="14.1016597"><ele>854.0</ele><time>2026-04-26T15:36:20.317Z</time></trkpt><trkpt lat="41.7456564" lon="14.1020083"><ele>854.0</ele><time>2026-04-26T15:36:21.317Z</time></trkpt><trkpt lat="41.7455944" lon="14.1023166"><ele>854.0</ele><time>2026-04-26T15:36:22.317Z</time></trkpt><trkpt lat="41.7455386" lon="14.1025896"><ele>854.0</ele><time>2026-04-26T15:36:23.317Z</time></trkpt><trkpt lat="41.7454927" lon="14.1028265"><ele>855.6666666666667</ele><time>2026-04-26T15:36:24.317Z</time></trkpt><trkpt lat="41.7454485" lon="14.1030361"><ele>857.3333333333333</ele><time>2026-04-26T15:36:25.318Z</time></trkpt><trkpt lat="41.7454103" lon="14.1032346"><ele>859.0</ele><time>2026-04-26T15:36:26.317Z</time></trkpt><trkpt lat="41.7453751" lon="14.1034228"><ele>859.5</ele><time>2026-04-26T15:36:27.317Z</time></trkpt><trkpt lat="41.7453247" lon="14.1035983"><ele>860.0</ele><time>2026-04-26T15:36:28.317Z</time></trkpt><trkpt lat="41.7452596" lon="14.1037603"><ele>860.5</ele><time>2026-04-26T15:36:29.318Z</time></trkpt><trkpt lat="41.7451875" lon="14.1039125"><ele>861.0</ele><time>2026-04-26T15:36:30.317Z</time></trkpt><trkpt lat="41.7451092" lon="14.1040638"><ele>865.0</ele><time>2026-04-26T15:36:31.318Z</time></trkpt><trkpt lat="41.7450342" lon="14.1042141"><ele>869.0</ele><time>2026-04-26T15:36:32.317Z</time></trkpt><trkpt lat="41.7449601" lon="14.1043632"><ele>873.0</ele><time>2026-04-26T15:36:33.317Z</time></trkpt><trkpt lat="41.7448853" lon="14.1045148"><ele>877.0</ele><time>2026-04-26T15:36:34.318Z</time></trkpt><trkpt lat="41.7448129" lon="14.1046795"><ele>877.0</ele><time>2026-04-26T15:36:35.317Z</time></trkpt><trkpt lat="41.744746" lon="14.1048776"><ele>877.0</ele><time>2026-04-26T15:36:36.317Z</time></trkpt><trkpt lat="41.7446779" lon="14.1051217"><ele>877.0</ele><time>2026-04-26T15:36:37.318Z</time></trkpt><trkpt lat="41.7446091" lon="14.1054194"><ele>875.5</ele><time>2026-04-26T15:36:38.317Z</time></trkpt><trkpt lat="41.7445361" lon="14.1057303"><ele>874.0</ele><time>2026-04-26T15:36:39.318Z</time></trkpt><trkpt lat="41.744459" lon="14.106031"><ele>877.3333333333333</ele><time>2026-04-26T15:36:40.317Z</time></trkpt><trkpt lat="41.7443556" lon="14.106307"><ele>880.6666666666667</ele><time>2026-04-26T15:36:41.317Z</time></trkpt><trkpt lat="41.7442337" lon="14.106542"><ele>884.0</ele><time>2026-04-26T15:36:42.317Z</time></trkpt><trkpt lat="41.7440868" lon="14.1067707"><ele>886.5</ele><time>2026-04-26T15:36:43.317Z</time></trkpt><trkpt lat="41.7439157" lon="14.1070062"><ele>889.0</ele><time>2026-04-26T15:36:44.318Z</time></trkpt><trkpt lat="41.7437447" lon="14.1072845"><ele>890.5</ele><time>2026-04-26T15:36:45.317Z</time></trkpt><trkpt lat="41.7435665" lon="14.1075812"><ele>892.0</ele><time>2026-04-26T15:36:46.317Z</time></trkpt><trkpt lat="41.7434038" lon="14.1078705"><ele>895.5</ele><time>2026-04-26T15:36:47.317Z</time></trkpt><trkpt lat="41.7432612" lon="14.1081713"><ele>899.0</ele><time>2026-04-26T15:36:48.317Z</time></trkpt><trkpt lat="41.7431342" lon="14.1084752"><ele>900.0</ele><time>2026-04-26T15:36:49.317Z</time></trkpt><trkpt lat="41.7430228" lon="14.108779"><ele>901.0</ele><time>2026-04-26T15:36:50.318Z</time></trkpt><trkpt lat="41.7429184" lon="14.1090753"><ele>901.0</ele><time>2026-04-26T15:36:51.318Z</time></trkpt><trkpt lat="41.7428219" lon="14.1093459"><ele>901.0</ele><time>2026-04-26T15:36:52.318Z</time></trkpt><trkpt lat="41.7427322" lon="14.1095936"><ele>901.0</ele><time>2026-04-26T15:36:53.317Z</time></trkpt><trkpt lat="41.7426552" lon="14.1098273"><ele>902.3333333333333</ele><time>2026-04-26T15:36:54.318Z</time></trkpt><trkpt lat="41.74257" lon="14.1100444"><ele>903.6666666666667</ele><time>2026-04-26T15:36:55.317Z</time></trkpt><trkpt lat="41.7424665" lon="14.1102288"><ele>905.0</ele><time>2026-04-26T15:36:56.317Z</time></trkpt><trkpt lat="41.7423311" lon="14.1103669"><ele>905.0</ele><time>2026-04-26T15:36:57.317Z</time></trkpt><trkpt lat="41.7421567" lon="14.1104712"><ele>905.0</ele><time>2026-04-26T15:36:58.317Z</time></trkpt><trkpt lat="41.7419505" lon="14.1105636"><ele>905.0</ele><time>2026-04-26T15:36:59.317Z</time></trkpt><trkpt lat="41.7417309" lon="14.110651"><ele>904.6666666666667</ele><time>2026-04-26T15:37:00.318Z</time></trkpt><trkpt lat="41.7415096" lon="14.1107177"><ele>904.3333333333333</ele><time>2026-04-26T15:37:01.317Z</time></trkpt><trkpt lat="41.7413042" lon="14.1107778"><ele>904.0</ele><time>2026-04-26T15:37:02.317Z</time></trkpt><trkpt lat="41.7411147" lon="14.110864"><ele>906.6666666666666</ele><time>2026-04-26T15:37:03.317Z</time></trkpt><trkpt lat="41.7409314" lon="14.1110022"><ele>909.3333333333333</ele><time>2026-04-26T15:37:04.318Z</time></trkpt><trkpt lat="41.7407478" lon="14.1112054"><ele>912.0</ele><time>2026-04-26T15:37:05.317Z</time></trkpt><trkpt lat="41.7404391" lon="14.1113928"><ele>915.5</ele><time>2026-04-26T15:37:06.317Z</time></trkpt><trkpt lat="41.7402373" lon="14.111618"><ele>919.0</ele><time>2026-04-26T15:37:07.317Z</time></trkpt><trkpt lat="41.7400259" lon="14.1118065"><ele>919.0</ele><time>2026-04-26T15:37:08.318Z</time></trkpt><trkpt lat="41.7397857" lon="14.1119712"><ele>919.0</ele><time>2026-04-26T15:37:09.317Z</time></trkpt><trkpt lat="41.7395213" lon="14.1121074"><ele>918.0</ele><time>2026-04-26T15:37:10.318Z</time></trkpt><trkpt lat="41.739246" lon="14.1122295"><ele>917.0</ele><time>2026-04-26T15:37:11.317Z</time></trkpt><trkpt lat="41.7389889" lon="14.1123378"><ele>921.5</ele><time>2026-04-26T15:37:12.317Z</time></trkpt><trkpt lat="41.7387541" lon="14.1124297"><ele>926.0</ele><time>2026-04-26T15:37:13.318Z</time></trkpt><trkpt lat="41.7385499" lon="14.1125187"><ele>926.0</ele><time>2026-04-26T15:37:14.318Z</time></trkpt><trkpt lat="41.7383628" lon="14.1126204"><ele>926.0</ele><time>2026-04-26T15:37:15.317Z</time></trkpt><trkpt lat="41.7381893" lon="14.1127524"><ele>926.0</ele><time>2026-04-26T15:37:16.317Z</time></trkpt><trkpt lat="41.7380501" lon="14.1129308"><ele>926.0</ele><time>2026-04-26T15:37:17.318Z</time></trkpt><trkpt lat="41.737945" lon="14.1131092"><ele>926.0</ele><time>2026-04-26T15:37:18.317Z</time></trkpt><trkpt lat="41.7378773" lon="14.1132854"><ele>926.0</ele><time>2026-04-26T15:37:19.317Z</time></trkpt><trkpt lat="41.737852" lon="14.1134761"><ele>928.25</ele><time>2026-04-26T15:37:20.317Z</time></trkpt><trkpt lat="41.7378393" lon="14.1136486"><ele>930.5</ele><time>2026-04-26T15:37:21.317Z</time></trkpt><trkpt lat="41.7378202" lon="14.1138252"><ele>932.75</ele><time>2026-04-26T15:37:22.317Z</time></trkpt><trkpt lat="41.7377669" lon="14.1139707"><ele>935.0</ele><time>2026-04-26T15:37:23.317Z</time></trkpt><trkpt lat="41.7376733" lon="14.1141056"><ele>935.0</ele><time>2026-04-26T15:37:24.317Z</time></trkpt><trkpt lat="41.7375366" lon="14.1142293"><ele>935.0</ele><time>2026-04-26T15:37:25.318Z</time></trkpt><trkpt lat="41.7373701" lon="14.1143639"><ele>935.0</ele><time>2026-04-26T15:37:26.317Z</time></trkpt><trkpt lat="41.7371899" lon="14.1145167"><ele>935.0</ele><time>2026-04-26T15:37:27.317Z</time></trkpt><trkpt lat="41.73704" lon="14.1146624"><ele>935.0</ele><time>2026-04-26T15:37:28.317Z</time></trkpt><trkpt lat="41.7369022" lon="14.1147808"><ele>935.0</ele><time>2026-04-26T15:37:29.318Z</time></trkpt><trkpt lat="41.7367801" lon="14.1148955"><ele>936.25</ele><time>2026-04-26T15:37:30.318Z</time></trkpt><trkpt lat="41.7366635" lon="14.1149903"><ele>937.5</ele><time>2026-04-26T15:37:31.317Z</time></trkpt><trkpt lat="41.7365435" lon="14.1150434"><ele>938.75</ele><time>2026-04-26T15:37:32.317Z</time></trkpt><trkpt lat="41.7364159" lon="14.1150619"><ele>940.0</ele><time>2026-04-26T15:37:33.317Z</time></trkpt><trkpt lat="41.7362833" lon="14.1150507"><ele>940.0</ele><time>2026-04-26T15:37:34.317Z</time></trkpt><trkpt lat="41.7361615" lon="14.1150099"><ele>940.0</ele><time>2026-04-26T15:37:35.317Z</time></trkpt><trkpt lat="41.7360426" lon="14.1149524"><ele>940.0</ele><time>2026-04-26T15:37:36.317Z</time></trkpt><trkpt lat="41.73593" lon="14.1148898"><ele>940.0</ele><time>2026-04-26T15:37:37.317Z</time></trkpt><trkpt lat="41.7358082" lon="14.1148563"><ele>941.5</ele><time>2026-04-26T15:37:38.318Z</time></trkpt><trkpt lat="41.7356831" lon="14.1148814"><ele>943.0</ele><time>2026-04-26T15:37:39.317Z</time></trkpt><trkpt lat="41.7355611" lon="14.1149328"><ele>944.5</ele><time>2026-04-26T15:37:40.318Z</time></trkpt><trkpt lat="41.7354436" lon="14.1150149"><ele>946.0</ele><time>2026-04-26T15:37:41.317Z</time></trkpt><trkpt lat="41.7353366" lon="14.115134"><ele>947.0</ele><time>2026-04-26T15:37:42.317Z</time></trkpt><trkpt lat="41.7352291" lon="14.1152734"><ele>948.0</ele><time>2026-04-26T15:37:43.317Z</time></trkpt><trkpt lat="41.7351211" lon="14.1154262"><ele>949.0</ele><time>2026-04-26T15:37:44.317Z</time></trkpt><trkpt lat="41.7350129" lon="14.115568"><ele>952.0</ele><time>2026-04-26T15:37:45.317Z</time></trkpt><trkpt lat="41.7349089" lon="14.1157087"><ele>955.0</ele><time>2026-04-26T15:37:46.318Z</time></trkpt><trkpt lat="41.7348065" lon="14.1158506"><ele>958.0</ele><time>2026-04-26T15:37:47.318Z</time></trkpt><trkpt lat="41.734701" lon="14.1160008"><ele>961.0</ele><time>2026-04-26T15:37:48.317Z</time></trkpt><trkpt lat="41.7345901" lon="14.1161552"><ele>961.0</ele><time>2026-04-26T15:37:49.317Z</time></trkpt><trkpt lat="41.7344763" lon="14.1163135"><ele>961.0</ele><time>2026-04-26T15:37:50.325Z</time></trkpt><trkpt lat="41.7343594" lon="14.1164745"><ele>961.0</ele><time>2026-04-26T15:37:51.326Z</time></trkpt><trkpt lat="41.7342425" lon="14.1166375"><ele>962.6666666666666</ele><time>2026-04-26T15:37:52.325Z</time></trkpt><trkpt lat="41.7341234" lon="14.1167953"><ele>964.3333333333333</ele><time>2026-04-26T15:37:53.326Z</time></trkpt><trkpt lat="41.7340048" lon="14.1169589"><ele>966.0</ele><time>2026-04-26T15:37:54.326Z</time></trkpt><trkpt lat="41.7338776" lon="14.1171191"><ele>966.0</ele><time>2026-04-26T15:37:55.325Z</time></trkpt><trkpt lat="41.7337448" lon="14.1172985"><ele>966.0</ele><time>2026-04-26T15:37:56.325Z</time></trkpt><trkpt lat="41.7335938" lon="14.1175103"><ele>966.0</ele><time>2026-04-26T15:37:57.326Z</time></trkpt><trkpt lat="41.7333992" lon="14.1177267"><ele>966.0</ele><time>2026-04-26T15:37:58.325Z</time></trkpt><trkpt lat="41.7331931" lon="14.1179866"><ele>966.0</ele><time>2026-04-26T15:37:59.325Z</time></trkpt><trkpt lat="41.7329677" lon="14.1182473"><ele>966.0</ele><time>2026-04-26T15:38:00.325Z</time></trkpt><trkpt lat="41.7327421" lon="14.1185026"><ele>966.0</ele><time>2026-04-26T15:38:01.326Z</time></trkpt><trkpt lat="41.7325404" lon="14.1187396"><ele>966.0</ele><time>2026-04-26T15:38:02.325Z</time></trkpt><trkpt lat="41.7323499" lon="14.1189518"><ele>966.0</ele><time>2026-04-26T15:38:03.325Z</time></trkpt><trkpt lat="41.732171" lon="14.119157"><ele>966.0</ele><time>2026-04-26T15:38:04.325Z</time></trkpt><trkpt lat="41.7319947" lon="14.1193441"><ele>966.0</ele><time>2026-04-26T15:38:05.326Z</time></trkpt><trkpt lat="41.7318136" lon="14.1195196"><ele>966.0</ele><time>2026-04-26T15:38:06.325Z</time></trkpt><trkpt lat="41.7314799" lon="14.1197918"><ele>966.0</ele><time>2026-04-26T15:38:08.325Z</time></trkpt><trkpt lat="41.7313372" lon="14.1198805"><ele>966.0</ele><time>2026-04-26T15:38:09.326Z</time></trkpt><trkpt lat="41.7312049" lon="14.1199567"><ele>966.0</ele><time>2026-04-26T15:38:10.326Z</time></trkpt><trkpt lat="41.7310965" lon="14.120042"><ele>966.0</ele><time>2026-04-26T15:38:11.326Z</time></trkpt><trkpt lat="41.731003" lon="14.1201393"><ele>964.5</ele><time>2026-04-26T15:38:12.325Z</time></trkpt><trkpt lat="41.7309216" lon="14.1202539"><ele>963.0</ele><time>2026-04-26T15:38:13.325Z</time></trkpt><trkpt lat="41.7308476" lon="14.1203692"><ele>961.5</ele><time>2026-04-26T15:38:14.326Z</time></trkpt><trkpt lat="41.7307502" lon="14.1204521"><ele>960.0</ele><time>2026-04-26T15:38:15.325Z</time></trkpt><trkpt lat="41.7306234" lon="14.1205324"><ele>960.0</ele><time>2026-04-26T15:38:16.325Z</time></trkpt><trkpt lat="41.7304756" lon="14.1206236"><ele>960.0</ele><time>2026-04-26T15:38:17.326Z</time></trkpt><trkpt lat="41.7303295" lon="14.1207394"><ele>960.0</ele><time>2026-04-26T15:38:18.325Z</time></trkpt><trkpt lat="41.7301922" lon="14.1208726"><ele>959.5</ele><time>2026-04-26T15:38:19.326Z</time></trkpt><trkpt lat="41.7300832" lon="14.1210271"><ele>959.0</ele><time>2026-04-26T15:38:20.325Z</time></trkpt><trkpt lat="41.7300088" lon="14.1211825"><ele>958.5</ele><time>2026-04-26T15:38:21.325Z</time></trkpt><trkpt lat="41.729968" lon="14.1213654"><ele>958.0</ele><time>2026-04-26T15:38:22.325Z</time></trkpt><trkpt lat="41.7299495" lon="14.1215577"><ele>958.75</ele><time>2026-04-26T15:38:23.325Z</time></trkpt><trkpt lat="41.7299622" lon="14.121747"><ele>959.5</ele><time>2026-04-26T15:38:24.325Z</time></trkpt><trkpt lat="41.7299933" lon="14.1219152"><ele>960.25</ele><time>2026-04-26T15:38:25.325Z</time></trkpt><trkpt lat="41.7300457" lon="14.1220618"><ele>961.0</ele><time>2026-04-26T15:38:26.326Z</time></trkpt><trkpt lat="41.7301049" lon="14.122183"><ele>961.0</ele><time>2026-04-26T15:38:27.325Z</time></trkpt><trkpt lat="41.7301687" lon="14.1222811"><ele>961.0</ele><time>2026-04-26T15:38:28.325Z</time></trkpt><trkpt lat="41.730251" lon="14.1223682"><ele>961.0</ele><time>2026-04-26T15:38:29.326Z</time></trkpt><trkpt lat="41.7303543" lon="14.1224563"><ele>961.0</ele><time>2026-04-26T15:38:30.325Z</time></trkpt><trkpt lat="41.7305034" lon="14.1225114"><ele>960.5</ele><time>2026-04-26T15:38:31.326Z</time></trkpt><trkpt lat="41.7306299" lon="14.1225464"><ele>960.0</ele><time>2026-04-26T15:38:32.325Z</time></trkpt><trkpt lat="41.7307486" lon="14.1225801"><ele>959.5</ele><time>2026-04-26T15:38:33.325Z</time></trkpt><trkpt lat="41.7308532" lon="14.1226339"><ele>959.0</ele><time>2026-04-26T15:38:34.325Z</time></trkpt><trkpt lat="41.7309397" lon="14.1227251"><ele>959.0</ele><time>2026-04-26T15:38:35.326Z</time></trkpt><trkpt lat="41.7310224" lon="14.1228429"><ele>959.0</ele><time>2026-04-26T15:38:36.325Z</time></trkpt><trkpt lat="41.7310804" lon="14.123009"><ele>959.0</ele><time>2026-04-26T15:38:37.325Z</time></trkpt><trkpt lat="41.7311318" lon="14.1232245"><ele>959.0</ele><time>2026-04-26T15:38:38.325Z</time></trkpt><trkpt lat="41.7311793" lon="14.1234664"><ele>959.6666666666667</ele><time>2026-04-26T15:38:39.326Z</time></trkpt><trkpt lat="41.7312084" lon="14.1237337"><ele>960.3333333333333</ele><time>2026-04-26T15:38:40.326Z</time></trkpt><trkpt lat="41.7312412" lon="14.1240218"><ele>961.0</ele><time>2026-04-26T15:38:41.325Z</time></trkpt><trkpt lat="41.7314736" lon="14.1261313"><ele>961.0</ele><time>2026-04-26T15:38:47.325Z</time></trkpt><trkpt lat="41.7315066" lon="14.1264229"><ele>961.0</ele><time>2026-04-26T15:38:48.325Z</time></trkpt><trkpt lat="41.7315188" lon="14.1267742"><ele>957.5</ele><time>2026-04-26T15:38:49.325Z</time></trkpt><trkpt lat="41.7315359" lon="14.1271215"><ele>954.0</ele><time>2026-04-26T15:38:50.326Z</time></trkpt><trkpt lat="41.7315426" lon="14.1274737"><ele>949.5</ele><time>2026-04-26T15:38:51.325Z</time></trkpt><trkpt lat="41.7315323" lon="14.1278181"><ele>945.0</ele><time>2026-04-26T15:38:52.326Z</time></trkpt><trkpt lat="41.731509" lon="14.1281456"><ele>943.5</ele><time>2026-04-26T15:38:53.325Z</time></trkpt><trkpt lat="41.7314759" lon="14.1284672"><ele>942.0</ele><time>2026-04-26T15:38:54.325Z</time></trkpt><trkpt lat="41.7314178" lon="14.1287917"><ele>939.5</ele><time>2026-04-26T15:38:55.326Z</time></trkpt><trkpt lat="41.7313451" lon="14.1291219"><ele>937.0</ele><time>2026-04-26T15:38:56.325Z</time></trkpt><trkpt lat="41.7312647" lon="14.1294425"><ele>937.0</ele><time>2026-04-26T15:38:57.326Z</time></trkpt><trkpt lat="41.7311731" lon="14.1297517"><ele>937.0</ele><time>2026-04-26T15:38:58.325Z</time></trkpt><trkpt lat="41.731074" lon="14.1300607"><ele>941.5</ele><time>2026-04-26T15:38:59.325Z</time></trkpt><trkpt lat="41.73097" lon="14.1303456"><ele>946.0</ele><time>2026-04-26T15:39:00.325Z</time></trkpt><trkpt lat="41.7308581" lon="14.1306148"><ele>939.5</ele><time>2026-04-26T15:39:01.326Z</time></trkpt><trkpt lat="41.7307399" lon="14.1308874"><ele>933.0</ele><time>2026-04-26T15:39:02.325Z</time></trkpt><trkpt lat="41.7306088" lon="14.1311478"><ele>933.0</ele><time>2026-04-26T15:39:03.325Z</time></trkpt><trkpt lat="41.7304692" lon="14.131398"><ele>933.0</ele><time>2026-04-26T15:39:04.325Z</time></trkpt><trkpt lat="41.7303285" lon="14.1316225"><ele>933.3333333333333</ele><time>2026-04-26T15:39:05.325Z</time></trkpt><trkpt lat="41.7301837" lon="14.1318343"><ele>933.6666666666666</ele><time>2026-04-26T15:39:06.326Z</time></trkpt><trkpt lat="41.7300346" lon="14.1320343"><ele>934.0</ele><time>2026-04-26T15:39:07.325Z</time></trkpt><trkpt lat="41.729881" lon="14.1322188"><ele>936.3333333333333</ele><time>2026-04-26T15:39:08.325Z</time></trkpt><trkpt lat="41.7297275" lon="14.1323973"><ele>938.6666666666667</ele><time>2026-04-26T15:39:09.325Z</time></trkpt><trkpt lat="41.7295574" lon="14.1325736"><ele>941.0</ele><time>2026-04-26T15:39:10.326Z</time></trkpt><trkpt lat="41.7293691" lon="14.1327599"><ele>941.0</ele><time>2026-04-26T15:39:11.325Z</time></trkpt><trkpt lat="41.7291516" lon="14.1329514"><ele>941.0</ele><time>2026-04-26T15:39:12.325Z</time></trkpt><trkpt lat="41.7289074" lon="14.1331428"><ele>936.0</ele><time>2026-04-26T15:39:13.325Z</time></trkpt><trkpt lat="41.7286531" lon="14.1333332"><ele>931.0</ele><time>2026-04-26T15:39:14.326Z</time></trkpt><trkpt lat="41.7283749" lon="14.1335208"><ele>931.0</ele><time>2026-04-26T15:39:15.325Z</time></trkpt><trkpt lat="41.7280811" lon="14.1337007"><ele>931.0</ele><time>2026-04-26T15:39:16.325Z</time></trkpt><trkpt lat="41.7277638" lon="14.1338654"><ele>932.5</ele><time>2026-04-26T15:39:17.326Z</time></trkpt><trkpt lat="41.7274484" lon="14.134029"><ele>934.0</ele><time>2026-04-26T15:39:18.325Z</time></trkpt><trkpt lat="41.7271472" lon="14.1341816"><ele>922.5</ele><time>2026-04-26T15:39:19.325Z</time></trkpt><trkpt lat="41.7268591" lon="14.1343204"><ele>911.0</ele><time>2026-04-26T15:39:20.325Z</time></trkpt><trkpt lat="41.7265914" lon="14.1344524"><ele>911.0</ele><time>2026-04-26T15:39:21.325Z</time></trkpt><trkpt lat="41.7263351" lon="14.134579"><ele>911.0</ele><time>2026-04-26T15:39:22.325Z</time></trkpt><trkpt lat="41.726091" lon="14.1347165"><ele>912.0</ele><time>2026-04-26T15:39:23.325Z</time></trkpt><trkpt lat="41.7258686" lon="14.1348396"><ele>913.0</ele><time>2026-04-26T15:39:24.325Z</time></trkpt><trkpt lat="41.7256598" lon="14.1349582"><ele>913.3333333333333</ele><time>2026-04-26T15:39:25.325Z</time></trkpt><trkpt lat="41.7254652" lon="14.1350644"><ele>913.6666666666667</ele><time>2026-04-26T15:39:26.325Z</time></trkpt><trkpt lat="41.7252768" lon="14.1351827"><ele>914.0</ele><time>2026-04-26T15:39:27.325Z</time></trkpt><trkpt lat="41.7250904" lon="14.1353083"><ele>914.0</ele><time>2026-04-26T15:39:28.325Z</time></trkpt><trkpt lat="41.7249111" lon="14.1354412"><ele>914.0</ele><time>2026-04-26T15:39:29.326Z</time></trkpt><trkpt lat="41.7247319" lon="14.1355924"><ele>914.0</ele><time>2026-04-26T15:39:30.325Z</time></trkpt><trkpt lat="41.7245359" lon="14.1357838"><ele>910.0</ele><time>2026-04-26T15:39:31.325Z</time></trkpt><trkpt lat="41.7243221" lon="14.1359953"><ele>906.0</ele><time>2026-04-26T15:39:32.326Z</time></trkpt><trkpt lat="41.7241059" lon="14.1362302"><ele>906.0</ele><time>2026-04-26T15:39:33.325Z</time></trkpt><trkpt lat="41.7239063" lon="14.1364924"><ele>906.0</ele><time>2026-04-26T15:39:34.325Z</time></trkpt><trkpt lat="41.7237232" lon="14.1367612"><ele>904.0</ele><time>2026-04-26T15:39:35.325Z</time></trkpt><trkpt lat="41.723553" lon="14.1370462"><ele>902.0</ele><time>2026-04-26T15:39:36.325Z</time></trkpt><trkpt lat="41.7234021" lon="14.1373382"><ele>896.5</ele><time>2026-04-26T15:39:37.325Z</time></trkpt><trkpt lat="41.72326" lon="14.1376402"><ele>891.0</ele><time>2026-04-26T15:39:38.325Z</time></trkpt><trkpt lat="41.7231348" lon="14.137949"><ele>886.5</ele><time>2026-04-26T15:39:39.325Z</time></trkpt><trkpt lat="41.7230227" lon="14.1382603"><ele>882.0</ele><time>2026-04-26T15:39:40.326Z</time></trkpt><trkpt lat="41.7229291" lon="14.1385754"><ele>882.0</ele><time>2026-04-26T15:39:41.325Z</time></trkpt><trkpt lat="41.7228537" lon="14.1388897"><ele>882.0</ele><time>2026-04-26T15:39:42.325Z</time></trkpt><trkpt lat="41.7227872" lon="14.1391937"><ele>877.5</ele><time>2026-04-26T15:39:43.325Z</time></trkpt><trkpt lat="41.7227354" lon="14.1395068"><ele>873.0</ele><time>2026-04-26T15:39:44.325Z</time></trkpt><trkpt lat="41.7226957" lon="14.1398328"><ele>872.3333333333333</ele><time>2026-04-26T15:39:45.326Z</time></trkpt><trkpt lat="41.7226685" lon="14.1401358"><ele>871.6666666666666</ele><time>2026-04-26T15:39:46.326Z</time></trkpt><trkpt lat="41.7226554" lon="14.1404266"><ele>871.0</ele><time>2026-04-26T15:39:47.325Z</time></trkpt><trkpt lat="41.7226578" lon="14.1407186"><ele>876.0</ele><time>2026-04-26T15:39:48.326Z</time></trkpt><trkpt lat="41.7226738" lon="14.1410352"><ele>881.0</ele><time>2026-04-26T15:39:49.325Z</time></trkpt><trkpt lat="41.7227055" lon="14.1413696"><ele>872.0</ele><time>2026-04-26T15:39:50.326Z</time></trkpt><trkpt lat="41.7227477" lon="14.1417137"><ele>863.0</ele><time>2026-04-26T15:39:51.325Z</time></trkpt><trkpt lat="41.7227936" lon="14.142075"><ele>865.5</ele><time>2026-04-26T15:39:52.326Z</time></trkpt><trkpt lat="41.722862" lon="14.1424407"><ele>868.0</ele><time>2026-04-26T15:39:53.325Z</time></trkpt><trkpt lat="41.7229578" lon="14.142816"><ele>868.0</ele><time>2026-04-26T15:39:54.325Z</time></trkpt><trkpt lat="41.7230731" lon="14.1431888"><ele>868.0</ele><time>2026-04-26T15:39:55.325Z</time></trkpt><trkpt lat="41.7231873" lon="14.1435615"><ele>868.0</ele><time>2026-04-26T15:39:56.326Z</time></trkpt><trkpt lat="41.7240418" lon="14.1455497"><ele>858.5</ele><time>2026-04-26T15:40:01.325Z</time></trkpt><trkpt lat="41.7242231" lon="14.1458919"><ele>849.0</ele><time>2026-04-26T15:40:02.325Z</time></trkpt><trkpt lat="41.7243577" lon="14.1462739"><ele>834.5</ele><time>2026-04-26T15:40:03.325Z</time></trkpt><trkpt lat="41.7245244" lon="14.1466559"><ele>820.0</ele><time>2026-04-26T15:40:04.325Z</time></trkpt><trkpt lat="41.7246816" lon="14.1470206"><ele>827.0</ele><time>2026-04-26T15:40:05.326Z</time></trkpt><trkpt lat="41.7248232" lon="14.1473904"><ele>834.0</ele><time>2026-04-26T15:40:06.325Z</time></trkpt><trkpt lat="41.7249596" lon="14.1477637"><ele>834.0</ele><time>2026-04-26T15:40:07.326Z</time></trkpt><trkpt lat="41.7250743" lon="14.148142"><ele>834.0</ele><time>2026-04-26T15:40:08.326Z</time></trkpt><trkpt lat="41.7251842" lon="14.1485305"><ele>836.0</ele><time>2026-04-26T15:40:09.325Z</time></trkpt><trkpt lat="41.7252751" lon="14.1489123"><ele>838.0</ele><time>2026-04-26T15:40:10.326Z</time></trkpt><trkpt lat="41.7253491" lon="14.149305"><ele>839.0</ele><time>2026-04-26T15:40:11.325Z</time></trkpt><trkpt lat="41.7254066" lon="14.1497048"><ele>840.0</ele><time>2026-04-26T15:40:12.325Z</time></trkpt><trkpt lat="41.7254431" lon="14.1501025"><ele>840.0</ele><time>2026-04-26T15:40:13.325Z</time></trkpt><trkpt lat="41.7254546" lon="14.1504854"><ele>840.0</ele><time>2026-04-26T15:40:14.325Z</time></trkpt><trkpt lat="41.7254654" lon="14.1508785"><ele>835.0</ele><time>2026-04-26T15:40:15.325Z</time></trkpt><trkpt lat="41.7254586" lon="14.1512949"><ele>830.0</ele><time>2026-04-26T15:40:16.325Z</time></trkpt><trkpt lat="41.7254292" lon="14.1517125"><ele>825.5</ele><time>2026-04-26T15:40:17.326Z</time></trkpt><trkpt lat="41.725387" lon="14.1521185"><ele>821.0</ele><time>2026-04-26T15:40:18.325Z</time></trkpt><trkpt lat="41.7253264" lon="14.1525201"><ele>819.0</ele><time>2026-04-26T15:40:19.325Z</time></trkpt><trkpt lat="41.7252416" lon="14.1529247"><ele>817.0</ele><time>2026-04-26T15:40:20.325Z</time></trkpt><trkpt lat="41.7251323" lon="14.153324"><ele>819.5</ele><time>2026-04-26T15:40:21.325Z</time></trkpt><trkpt lat="41.7250132" lon="14.1537303"><ele>822.0</ele><time>2026-04-26T15:40:22.325Z</time></trkpt><trkpt lat="41.7248764" lon="14.1541396"><ele>822.0</ele><time>2026-04-26T15:40:23.325Z</time></trkpt><trkpt lat="41.7247216" lon="14.1545404"><ele>822.0</ele><time>2026-04-26T15:40:24.325Z</time></trkpt><trkpt lat="41.7245635" lon="14.1549487"><ele>822.0</ele><time>2026-04-26T15:40:25.326Z</time></trkpt><trkpt lat="41.7243988" lon="14.1553447"><ele>822.0</ele><time>2026-04-26T15:40:26.325Z</time></trkpt><trkpt lat="41.7242309" lon="14.1557374"><ele>822.0</ele><time>2026-04-26T15:40:27.326Z</time></trkpt><trkpt lat="41.7240658" lon="14.1560982"><ele>822.0</ele><time>2026-04-26T15:40:28.326Z</time></trkpt><trkpt lat="41.7238827" lon="14.1564427"><ele>824.0</ele><time>2026-04-26T15:40:29.325Z</time></trkpt><trkpt lat="41.7236833" lon="14.1567697"><ele>826.0</ele><time>2026-04-26T15:40:30.325Z</time></trkpt><trkpt lat="41.723469" lon="14.1570874"><ele>816.0</ele><time>2026-04-26T15:40:31.325Z</time></trkpt><trkpt lat="41.7232387" lon="14.1573882"><ele>806.0</ele><time>2026-04-26T15:40:32.325Z</time></trkpt><trkpt lat="41.7230007" lon="14.1576888"><ele>806.0</ele><time>2026-04-26T15:40:33.325Z</time></trkpt><trkpt lat="41.7227599" lon="14.157986"><ele>806.0</ele><time>2026-04-26T15:40:34.325Z</time></trkpt><trkpt lat="41.7225365" lon="14.1582943"><ele>802.0</ele><time>2026-04-26T15:40:35.325Z</time></trkpt><trkpt lat="41.7220591" lon="14.1588338"><ele>797.5</ele><time>2026-04-26T15:40:37.325Z</time></trkpt><trkpt lat="41.7218127" lon="14.1590846"><ele>793.0</ele><time>2026-04-26T15:40:38.325Z</time></trkpt><trkpt lat="41.721577" lon="14.1593516"><ele>793.0</ele><time>2026-04-26T15:40:39.325Z</time></trkpt><trkpt lat="41.7213576" lon="14.1596263"><ele>793.0</ele><time>2026-04-26T15:40:40.326Z</time></trkpt><trkpt lat="41.7211591" lon="14.1599435"><ele>789.0</ele><time>2026-04-26T15:40:41.326Z</time></trkpt><trkpt lat="41.7209626" lon="14.1602584"><ele>785.0</ele><time>2026-04-26T15:40:42.325Z</time></trkpt><trkpt lat="41.7207832" lon="14.1605862"><ele>779.5</ele><time>2026-04-26T15:40:43.325Z</time></trkpt><trkpt lat="41.7206174" lon="14.1609091"><ele>774.0</ele><time>2026-04-26T15:40:44.325Z</time></trkpt><trkpt lat="41.7204541" lon="14.1612047"><ele>774.0</ele><time>2026-04-26T15:40:45.325Z</time></trkpt><trkpt lat="41.7202915" lon="14.1615004"><ele>774.0</ele><time>2026-04-26T15:40:46.325Z</time></trkpt><trkpt lat="41.7201348" lon="14.1617904"><ele>777.5</ele><time>2026-04-26T15:40:47.325Z</time></trkpt><trkpt lat="41.719978" lon="14.1620744"><ele>781.0</ele><time>2026-04-26T15:40:48.326Z</time></trkpt><trkpt lat="41.719825" lon="14.1623495"><ele>777.5</ele><time>2026-04-26T15:40:49.325Z</time></trkpt><trkpt lat="41.7196608" lon="14.1626224"><ele>774.0</ele><time>2026-04-26T15:40:50.326Z</time></trkpt><trkpt lat="41.7194863" lon="14.162898"><ele>771.0</ele><time>2026-04-26T15:40:51.325Z</time></trkpt><trkpt lat="41.7181581" lon="14.1642576"><ele>771.0</ele><time>2026-04-26T15:40:58.325Z</time></trkpt><trkpt lat="41.7179587" lon="14.1644027"><ele>771.0</ele><time>2026-04-26T15:40:59.325Z</time></trkpt><trkpt lat="41.7177368" lon="14.1645511"><ele>772.0</ele><time>2026-04-26T15:41:00.326Z</time></trkpt><trkpt lat="41.7174954" lon="14.1646825"><ele>773.0</ele><time>2026-04-26T15:41:01.325Z</time></trkpt><trkpt lat="41.7172547" lon="14.1647953"><ele>763.5</ele><time>2026-04-26T15:41:02.325Z</time></trkpt><trkpt lat="41.7170225" lon="14.1648789"><ele>754.0</ele><time>2026-04-26T15:41:03.325Z</time></trkpt><trkpt lat="41.716796" lon="14.1649463"><ele>754.0</ele><time>2026-04-26T15:41:04.325Z</time></trkpt><trkpt lat="41.7165646" lon="14.1650143"><ele>754.0</ele><time>2026-04-26T15:41:05.325Z</time></trkpt><trkpt lat="41.7163267" lon="14.1650621"><ele>754.0</ele><time>2026-04-26T15:41:06.326Z</time></trkpt><trkpt lat="41.7160881" lon="14.1651083"><ele>754.0</ele><time>2026-04-26T15:41:07.325Z</time></trkpt><trkpt lat="41.7158556" lon="14.1651558"><ele>755.5</ele><time>2026-04-26T15:41:08.325Z</time></trkpt><trkpt lat="41.7156256" lon="14.1652048"><ele>757.0</ele><time>2026-04-26T15:41:09.325Z</time></trkpt><trkpt lat="41.7153954" lon="14.1652568"><ele>755.0</ele><time>2026-04-26T15:41:10.325Z</time></trkpt><trkpt lat="41.7151652" lon="14.1653012"><ele>753.0</ele><time>2026-04-26T15:41:11.325Z</time></trkpt><trkpt lat="41.7149419" lon="14.165344"><ele>753.0</ele><time>2026-04-26T15:41:12.325Z</time></trkpt><trkpt lat="41.7147268" lon="14.1653774"><ele>753.0</ele><time>2026-04-26T15:41:13.325Z</time></trkpt><trkpt lat="41.7145177" lon="14.1654131"><ele>753.0</ele><time>2026-04-26T15:41:14.325Z</time></trkpt><trkpt lat="41.7143037" lon="14.1654532"><ele>751.6666666666666</ele><time>2026-04-26T15:41:15.325Z</time></trkpt><trkpt lat="41.7140882" lon="14.1654921"><ele>750.3333333333333</ele><time>2026-04-26T15:41:16.326Z</time></trkpt><trkpt lat="41.7138684" lon="14.1655302"><ele>749.0</ele><time>2026-04-26T15:41:17.325Z</time></trkpt><trkpt lat="41.7136549" lon="14.1655639"><ele>748.3333333333333</ele><time>2026-04-26T15:41:18.325Z</time></trkpt><trkpt lat="41.7134491" lon="14.1656059"><ele>747.6666666666666</ele><time>2026-04-26T15:41:19.325Z</time></trkpt><trkpt lat="41.7132384" lon="14.1656506"><ele>747.0</ele><time>2026-04-26T15:41:20.325Z</time></trkpt><trkpt lat="41.7130281" lon="14.1656941"><ele>743.6666666666666</ele><time>2026-04-26T15:41:21.325Z</time></trkpt><trkpt lat="41.7128224" lon="14.1657264"><ele>740.3333333333333</ele><time>2026-04-26T15:41:22.326Z</time></trkpt><trkpt lat="41.7126164" lon="14.1657591"><ele>737.0</ele><time>2026-04-26T15:41:23.325Z</time></trkpt><trkpt lat="41.7111454" lon="14.1659862"><ele>729.0</ele><time>2026-04-26T15:41:29.325Z</time></trkpt><trkpt lat="41.7109083" lon="14.1659805"><ele>721.0</ele><time>2026-04-26T15:41:30.326Z</time></trkpt><trkpt lat="41.7106017" lon="14.1659914"><ele>721.0</ele><time>2026-04-26T15:41:31.326Z</time></trkpt><trkpt lat="41.7102566" lon="14.165998"><ele>721.0</ele><time>2026-04-26T15:41:32.325Z</time></trkpt><trkpt lat="41.7098968" lon="14.1659958"><ele>718.5</ele><time>2026-04-26T15:41:33.325Z</time></trkpt><trkpt lat="41.7095433" lon="14.165996"><ele>716.0</ele><time>2026-04-26T15:41:34.325Z</time></trkpt><trkpt lat="41.7092027" lon="14.1660123"><ele>716.0</ele><time>2026-04-26T15:41:35.326Z</time></trkpt><trkpt lat="41.7088875" lon="14.1660171"><ele>716.0</ele><time>2026-04-26T15:41:36.325Z</time></trkpt><trkpt lat="41.7085809" lon="14.1660182"><ele>715.0</ele><time>2026-04-26T15:41:37.325Z</time></trkpt><trkpt lat="41.7082883" lon="14.1660206"><ele>714.0</ele><time>2026-04-26T15:41:38.325Z</time></trkpt><trkpt lat="41.7080188" lon="14.1660109"><ele>714.0</ele><time>2026-04-26T15:41:39.325Z</time></trkpt><trkpt lat="41.7077579" lon="14.1660071"><ele>714.0</ele><time>2026-04-26T15:41:40.326Z</time></trkpt><trkpt lat="41.7075113" lon="14.1659959"><ele>713.0</ele><time>2026-04-26T15:41:41.326Z</time></trkpt><trkpt lat="41.707276" lon="14.1659735"><ele>712.0</ele><time>2026-04-26T15:41:42.325Z</time></trkpt><trkpt lat="41.7070241" lon="14.1659413"><ele>709.0</ele><time>2026-04-26T15:41:43.326Z</time></trkpt><trkpt lat="41.7067694" lon="14.1658809"><ele>706.0</ele><time>2026-04-26T15:41:44.326Z</time></trkpt><trkpt lat="41.7065111" lon="14.1658214"><ele>706.0</ele><time>2026-04-26T15:41:45.325Z</time></trkpt><trkpt lat="41.7062353" lon="14.1657559"><ele>706.0</ele><time>2026-04-26T15:41:46.325Z</time></trkpt><trkpt lat="41.7059276" lon="14.1656705"><ele>710.5</ele><time>2026-04-26T15:41:47.325Z</time></trkpt><trkpt lat="41.7056124" lon="14.165566"><ele>715.0</ele><time>2026-04-26T15:41:48.325Z</time></trkpt><trkpt lat="41.7052905" lon="14.165454"><ele>710.5</ele><time>2026-04-26T15:41:49.325Z</time></trkpt><trkpt lat="41.7049702" lon="14.1653488"><ele>706.0</ele><time>2026-04-26T15:41:50.325Z</time></trkpt><trkpt lat="41.7046543" lon="14.1652506"><ele>697.5</ele><time>2026-04-26T15:41:51.325Z</time></trkpt><trkpt lat="41.7043388" lon="14.1651805"><ele>689.0</ele><time>2026-04-26T15:41:52.325Z</time></trkpt><trkpt lat="41.7040321" lon="14.1651207"><ele>689.0</ele><time>2026-04-26T15:41:53.326Z</time></trkpt><trkpt lat="41.7037305" lon="14.1650835"><ele>689.0</ele><time>2026-04-26T15:41:54.325Z</time></trkpt><trkpt lat="41.703428" lon="14.1650692"><ele>683.0</ele><time>2026-04-26T15:41:55.325Z</time></trkpt><trkpt lat="41.7031252" lon="14.1650746"><ele>677.0</ele><time>2026-04-26T15:41:56.325Z</time></trkpt><trkpt lat="41.702817" lon="14.1650994"><ele>671.5</ele><time>2026-04-26T15:41:57.325Z</time></trkpt><trkpt lat="41.7024935" lon="14.1651439"><ele>666.0</ele><time>2026-04-26T15:41:58.325Z</time></trkpt><trkpt lat="41.7021716" lon="14.1652075"><ele>665.5</ele><time>2026-04-26T15:41:59.326Z</time></trkpt><trkpt lat="41.7018443" lon="14.1652767"><ele>665.0</ele><time>2026-04-26T15:42:00.326Z</time></trkpt><trkpt lat="41.7015163" lon="14.1653577"><ele>665.0</ele><time>2026-04-26T15:42:01.325Z</time></trkpt><trkpt lat="41.7011997" lon="14.1654351"><ele>665.0</ele><time>2026-04-26T15:42:02.326Z</time></trkpt><trkpt lat="41.7008959" lon="14.1655146"><ele>667.5</ele><time>2026-04-26T15:42:03.325Z</time></trkpt><trkpt lat="41.7006038" lon="14.1655895"><ele>670.0</ele><time>2026-04-26T15:42:04.326Z</time></trkpt><trkpt lat="41.7003211" lon="14.1656694"><ele>666.0</ele><time>2026-04-26T15:42:05.325Z</time></trkpt><trkpt lat="41.7000406" lon="14.1657479"><ele>662.0</ele><time>2026-04-26T15:42:06.326Z</time></trkpt><trkpt lat="41.6997506" lon="14.1658369"><ele>662.0</ele><time>2026-04-26T15:42:07.326Z</time></trkpt><trkpt lat="41.6994588" lon="14.1659222"><ele>662.0</ele><time>2026-04-26T15:42:08.325Z</time></trkpt><trkpt lat="41.6991694" lon="14.1659995"><ele>664.0</ele><time>2026-04-26T15:42:09.325Z</time></trkpt><trkpt lat="41.6988846" lon="14.166076"><ele>666.0</ele><time>2026-04-26T15:42:10.325Z</time></trkpt><trkpt lat="41.6986009" lon="14.1661549"><ele>665.0</ele><time>2026-04-26T15:42:11.325Z</time></trkpt><trkpt lat="41.6983206" lon="14.1662323"><ele>664.0</ele><time>2026-04-26T15:42:12.325Z</time></trkpt><trkpt lat="41.6980514" lon="14.1663084"><ele>664.0</ele><time>2026-04-26T15:42:13.326Z</time></trkpt><trkpt lat="41.6977878" lon="14.166397"><ele>664.0</ele><time>2026-04-26T15:42:14.325Z</time></trkpt><trkpt lat="41.6975265" lon="14.1664974"><ele>650.5</ele><time>2026-04-26T15:42:15.325Z</time></trkpt><trkpt lat="41.6972739" lon="14.1666094"><ele>637.0</ele><time>2026-04-26T15:42:16.325Z</time></trkpt><trkpt lat="41.6970264" lon="14.1667413"><ele>637.5</ele><time>2026-04-26T15:42:17.325Z</time></trkpt><trkpt lat="41.6967863" lon="14.1668929"><ele>638.0</ele><time>2026-04-26T15:42:18.325Z</time></trkpt><trkpt lat="41.6965545" lon="14.1670573"><ele>638.0</ele><time>2026-04-26T15:42:19.325Z</time></trkpt><trkpt lat="41.6963325" lon="14.1672434"><ele>638.0</ele><time>2026-04-26T15:42:20.325Z</time></trkpt><trkpt lat="41.6961144" lon="14.1674444"><ele>640.5</ele><time>2026-04-26T15:42:21.326Z</time></trkpt><trkpt lat="41.6959036" lon="14.1676641"><ele>643.0</ele><time>2026-04-26T15:42:22.326Z</time></trkpt><trkpt lat="41.6957015" lon="14.1679016"><ele>643.0</ele><time>2026-04-26T15:42:23.326Z</time></trkpt><trkpt lat="41.6955039" lon="14.1681568"><ele>643.0</ele><time>2026-04-26T15:42:24.325Z</time></trkpt><trkpt lat="41.6953143" lon="14.1684484"><ele>640.0</ele><time>2026-04-26T15:42:25.325Z</time></trkpt><trkpt lat="41.6951132" lon="14.1687721"><ele>637.0</ele><time>2026-04-26T15:42:26.325Z</time></trkpt><trkpt lat="41.6949059" lon="14.1691266"><ele>637.0</ele><time>2026-04-26T15:42:27.325Z</time></trkpt><trkpt lat="41.6946924" lon="14.1694832"><ele>637.0</ele><time>2026-04-26T15:42:28.325Z</time></trkpt><trkpt lat="41.69448" lon="14.1698776"><ele>634.5</ele><time>2026-04-26T15:42:29.325Z</time></trkpt><trkpt lat="41.6942701" lon="14.1702844"><ele>632.0</ele><time>2026-04-26T15:42:30.325Z</time></trkpt><trkpt lat="41.6940658" lon="14.1706835"><ele>623.5</ele><time>2026-04-26T15:42:31.325Z</time></trkpt><trkpt lat="41.6938683" lon="14.1710566"><ele>615.0</ele><time>2026-04-26T15:42:32.325Z</time></trkpt><trkpt lat="41.6936847" lon="14.1714295"><ele>620.0</ele><time>2026-04-26T15:42:33.326Z</time></trkpt><trkpt lat="41.6934962" lon="14.1717855"><ele>625.0</ele><time>2026-04-26T15:42:34.325Z</time></trkpt><trkpt lat="41.6932986" lon="14.1721459"><ele>625.0</ele><time>2026-04-26T15:42:35.325Z</time></trkpt><trkpt lat="41.6930899" lon="14.1725083"><ele>625.0</ele><time>2026-04-26T15:42:36.325Z</time></trkpt><trkpt lat="41.6924463" lon="14.1736153"><ele>625.0</ele><time>2026-04-26T15:42:39.325Z</time></trkpt><trkpt lat="41.6922099" lon="14.1739926"><ele>625.0</ele><time>2026-04-26T15:42:40.326Z</time></trkpt><trkpt lat="41.6919812" lon="14.1743545"><ele>626.5</ele><time>2026-04-26T15:42:41.325Z</time></trkpt><trkpt lat="41.6917478" lon="14.1747253"><ele>628.0</ele><time>2026-04-26T15:42:42.325Z</time></trkpt><trkpt lat="41.6915213" lon="14.1751032"><ele>618.0</ele><time>2026-04-26T15:42:43.326Z</time></trkpt><trkpt lat="41.6913075" lon="14.1754876"><ele>608.0</ele><time>2026-04-26T15:42:44.325Z</time></trkpt><trkpt lat="41.6911013" lon="14.1758594"><ele>608.0</ele><time>2026-04-26T15:42:45.325Z</time></trkpt><trkpt lat="41.6909056" lon="14.1762288"><ele>608.0</ele><time>2026-04-26T15:42:46.325Z</time></trkpt><trkpt lat="41.690721" lon="14.1766003"><ele>605.0</ele><time>2026-04-26T15:42:47.325Z</time></trkpt><trkpt lat="41.6905412" lon="14.1769759"><ele>602.0</ele><time>2026-04-26T15:42:48.325Z</time></trkpt><trkpt lat="41.6903668" lon="14.1773591"><ele>600.5</ele><time>2026-04-26T15:42:49.326Z</time></trkpt><trkpt lat="41.6902048" lon="14.1777541"><ele>599.0</ele><time>2026-04-26T15:42:50.326Z</time></trkpt><trkpt lat="41.6893292" lon="14.1804025"><ele>594.0</ele><time>2026-04-26T15:42:56.325Z</time></trkpt><trkpt lat="41.6892007" lon="14.1808179"><ele>589.0</ele><time>2026-04-26T15:42:57.325Z</time></trkpt><trkpt lat="41.6890695" lon="14.181261"><ele>587.0</ele><time>2026-04-26T15:42:58.325Z</time></trkpt><trkpt lat="41.6889415" lon="14.1816981"><ele>585.0</ele><time>2026-04-26T15:42:59.325Z</time></trkpt><trkpt lat="41.6888336" lon="14.1821426"><ele>583.0</ele><time>2026-04-26T15:43:00.326Z</time></trkpt><trkpt lat="41.6887297" lon="14.1825852"><ele>581.0</ele><time>2026-04-26T15:43:01.326Z</time></trkpt><trkpt lat="41.6886469" lon="14.1830216"><ele>583.0</ele><time>2026-04-26T15:43:02.325Z</time></trkpt><trkpt lat="41.6885773" lon="14.1834634"><ele>585.0</ele><time>2026-04-26T15:43:03.325Z</time></trkpt><trkpt lat="41.6885207" lon="14.1839155"><ele>580.0</ele><time>2026-04-26T15:43:04.325Z</time></trkpt><trkpt lat="41.6884818" lon="14.1843602"><ele>575.0</ele><time>2026-04-26T15:43:05.325Z</time></trkpt><trkpt lat="41.6884564" lon="14.184818"><ele>575.5</ele><time>2026-04-26T15:43:06.325Z</time></trkpt><trkpt lat="41.6884388" lon="14.1852778"><ele>576.0</ele><time>2026-04-26T15:43:07.325Z</time></trkpt><trkpt lat="41.6884288" lon="14.1857343"><ele>576.0</ele><time>2026-04-26T15:43:08.325Z</time></trkpt><trkpt lat="41.6884202" lon="14.1861943"><ele>576.0</ele><time>2026-04-26T15:43:09.325Z</time></trkpt><trkpt lat="41.6884125" lon="14.1866616"><ele>576.0</ele><time>2026-04-26T15:43:10.325Z</time></trkpt><trkpt lat="41.6884064" lon="14.18713"><ele>576.0</ele><time>2026-04-26T15:43:11.325Z</time></trkpt><trkpt lat="41.688403" lon="14.1876012"><ele>573.0</ele><time>2026-04-26T15:43:12.325Z</time></trkpt><trkpt lat="41.6884005" lon="14.1880704"><ele>570.0</ele><time>2026-04-26T15:43:13.326Z</time></trkpt><trkpt lat="41.6883941" lon="14.18853"><ele>566.0</ele><time>2026-04-26T15:43:14.325Z</time></trkpt><trkpt lat="41.6883889" lon="14.1889904"><ele>562.0</ele><time>2026-04-26T15:43:15.325Z</time></trkpt><trkpt lat="41.6883857" lon="14.1894425"><ele>549.5</ele><time>2026-04-26T15:43:16.326Z</time></trkpt><trkpt lat="41.6883806" lon="14.1898872"><ele>537.0</ele><time>2026-04-26T15:43:17.325Z</time></trkpt><trkpt lat="41.6883716" lon="14.1903346"><ele>525.0</ele><time>2026-04-26T15:43:18.326Z</time></trkpt><trkpt lat="41.6883671" lon="14.1907845"><ele>513.0</ele><time>2026-04-26T15:43:19.325Z</time></trkpt><trkpt lat="41.68836" lon="14.1912422"><ele>507.5</ele><time>2026-04-26T15:43:20.326Z</time></trkpt><trkpt lat="41.6883518" lon="14.1916983"><ele>502.0</ele><time>2026-04-26T15:43:21.325Z</time></trkpt><trkpt lat="41.6883484" lon="14.1921594"><ele>498.5</ele><time>2026-04-26T15:43:22.325Z</time></trkpt><trkpt lat="41.6883483" lon="14.1926208"><ele>495.0</ele><time>2026-04-26T15:43:23.326Z</time></trkpt><trkpt lat="41.6883448" lon="14.1930874"><ele>500.0</ele><time>2026-04-26T15:43:24.325Z</time></trkpt><trkpt lat="41.6883373" lon="14.1935592"><ele>505.0</ele><time>2026-04-26T15:43:25.325Z</time></trkpt><trkpt lat="41.6883328" lon="14.1940323"><ele>516.0</ele><time>2026-04-26T15:43:26.325Z</time></trkpt><trkpt lat="41.6883267" lon="14.1945058"><ele>527.0</ele><time>2026-04-26T15:43:27.325Z</time></trkpt><trkpt lat="41.6883222" lon="14.1949763"><ele>534.5</ele><time>2026-04-26T15:43:28.326Z</time></trkpt><trkpt lat="41.6883188" lon="14.1954459"><ele>542.0</ele><time>2026-04-26T15:43:29.325Z</time></trkpt><trkpt lat="41.6883124" lon="14.1959105"><ele>542.0</ele><time>2026-04-26T15:43:30.325Z</time></trkpt><trkpt lat="41.688309" lon="14.1963794"><ele>542.0</ele><time>2026-04-26T15:43:31.325Z</time></trkpt><trkpt lat="41.6883079" lon="14.1968539"><ele>539.5</ele><time>2026-04-26T15:43:32.325Z</time></trkpt><trkpt lat="41.6883064" lon="14.1973294"><ele>537.0</ele><time>2026-04-26T15:43:33.325Z</time></trkpt><trkpt lat="41.6882948" lon="14.1978031"><ele>541.0</ele><time>2026-04-26T15:43:34.326Z</time></trkpt><trkpt lat="41.6882767" lon="14.1982605"><ele>545.0</ele><time>2026-04-26T15:43:35.325Z</time></trkpt><trkpt lat="41.6882517" lon="14.1987051"><ele>522.0</ele><time>2026-04-26T15:43:36.325Z</time></trkpt><trkpt lat="41.6863084" lon="14.2051882"><ele>522.0</ele><time>2026-04-26T15:43:52.325Z</time></trkpt><trkpt lat="41.6861382" lon="14.2056064"><ele>522.0</ele><time>2026-04-26T15:43:53.325Z</time></trkpt><trkpt lat="41.6859568" lon="14.2060497"><ele>521.0</ele><time>2026-04-26T15:43:54.325Z</time></trkpt><trkpt lat="41.6857661" lon="14.206466"><ele>520.0</ele><time>2026-04-26T15:43:55.325Z</time></trkpt><trkpt lat="41.6855789" lon="14.2068702"><ele>520.0</ele><time>2026-04-26T15:43:56.326Z</time></trkpt><trkpt lat="41.6853921" lon="14.207267"><ele>520.0</ele><time>2026-04-26T15:43:57.325Z</time></trkpt><trkpt lat="41.685219" lon="14.2076477"><ele>516.0</ele><time>2026-04-26T15:43:58.325Z</time></trkpt><trkpt lat="41.6850619" lon="14.2080176"><ele>512.0</ele><time>2026-04-26T15:43:59.325Z</time></trkpt><trkpt lat="41.6849104" lon="14.2083672"><ele>526.0</ele><time>2026-04-26T15:44:00.325Z</time></trkpt><trkpt lat="41.6838992" lon="14.2106083"><ele>517.0</ele><time>2026-04-26T15:44:07.325Z</time></trkpt><trkpt lat="41.6837505" lon="14.2109445"><ele>508.0</ele><time>2026-04-26T15:44:08.325Z</time></trkpt><trkpt lat="41.6836108" lon="14.2112587"><ele>489.5</ele><time>2026-04-26T15:44:09.326Z</time></trkpt><trkpt lat="41.683462" lon="14.2116106"><ele>471.0</ele><time>2026-04-26T15:44:10.325Z</time></trkpt><trkpt lat="41.6833064" lon="14.2119558"><ele>471.0</ele><time>2026-04-26T15:44:11.326Z</time></trkpt><trkpt lat="41.6831494" lon="14.2123097"><ele>471.0</ele><time>2026-04-26T15:44:12.325Z</time></trkpt><trkpt lat="41.6829851" lon="14.2126603"><ele>467.0</ele><time>2026-04-26T15:44:13.325Z</time></trkpt><trkpt lat="41.6828203" lon="14.2130053"><ele>463.0</ele><time>2026-04-26T15:44:14.326Z</time></trkpt><trkpt lat="41.6826448" lon="14.2133546"><ele>475.5</ele><time>2026-04-26T15:44:15.325Z</time></trkpt><trkpt lat="41.6824561" lon="14.2137026"><ele>488.0</ele><time>2026-04-26T15:44:16.326Z</time></trkpt><trkpt lat="41.6822579" lon="14.2140642"><ele>495.5</ele><time>2026-04-26T15:44:17.325Z</time></trkpt><trkpt lat="41.6820481" lon="14.2144209"><ele>503.0</ele><time>2026-04-26T15:44:18.325Z</time></trkpt><trkpt lat="41.6818324" lon="14.2147763"><ele>512.0</ele><time>2026-04-26T15:44:19.325Z</time></trkpt><trkpt lat="41.6816058" lon="14.2151348"><ele>521.0</ele><time>2026-04-26T15:44:20.325Z</time></trkpt><trkpt lat="41.6813817" lon="14.2154985"><ele>524.5</ele><time>2026-04-26T15:44:21.325Z</time></trkpt><trkpt lat="41.6811478" lon="14.2158724"><ele>528.0</ele><time>2026-04-26T15:44:22.326Z</time></trkpt><trkpt lat="41.6809161" lon="14.216249"><ele>535.5</ele><time>2026-04-26T15:44:23.325Z</time></trkpt><trkpt lat="41.6806852" lon="14.2166212"><ele>543.0</ele><time>2026-04-26T15:44:24.325Z</time></trkpt><trkpt lat="41.6786044" lon="14.2197602"><ele>534.5</ele><time>2026-04-26T15:44:33.332Z</time></trkpt><trkpt lat="41.6784163" lon="14.2200849"><ele>526.0</ele><time>2026-04-26T15:44:34.333Z</time></trkpt><trkpt lat="41.6782108" lon="14.2204304"><ele>534.5</ele><time>2026-04-26T15:44:35.332Z</time></trkpt><trkpt lat="41.6779979" lon="14.2207542"><ele>543.0</ele><time>2026-04-26T15:44:36.332Z</time></trkpt><trkpt lat="41.6777958" lon="14.2210823"><ele>541.0</ele><time>2026-04-26T15:44:37.332Z</time></trkpt><trkpt lat="41.6775818" lon="14.2214074"><ele>539.0</ele><time>2026-04-26T15:44:38.333Z</time></trkpt><trkpt lat="41.6773666" lon="14.2217493"><ele>537.0</ele><time>2026-04-26T15:44:39.332Z</time></trkpt><trkpt lat="41.6771448" lon="14.2220956"><ele>535.0</ele><time>2026-04-26T15:44:40.332Z</time></trkpt><trkpt lat="41.6769146" lon="14.2224501"><ele>530.5</ele><time>2026-04-26T15:44:41.333Z</time></trkpt><trkpt lat="41.6766898" lon="14.2227953"><ele>526.0</ele><time>2026-04-26T15:44:42.332Z</time></trkpt><trkpt lat="41.6764549" lon="14.2231484"><ele>526.0</ele><time>2026-04-26T15:44:43.332Z</time></trkpt><trkpt lat="41.6762283" lon="14.22352"><ele>526.0</ele><time>2026-04-26T15:44:44.332Z</time></trkpt><trkpt lat="41.6759973" lon="14.2238799"><ele>534.0</ele><time>2026-04-26T15:44:45.332Z</time></trkpt><trkpt lat="41.6757641" lon="14.2242448"><ele>542.0</ele><time>2026-04-26T15:44:46.333Z</time></trkpt><trkpt lat="41.6755327" lon="14.2246022"><ele>549.5</ele><time>2026-04-26T15:44:47.332Z</time></trkpt><trkpt lat="41.6753031" lon="14.2249601"><ele>557.0</ele><time>2026-04-26T15:44:48.333Z</time></trkpt><trkpt lat="41.6750742" lon="14.2253003"><ele>549.0</ele><time>2026-04-26T15:44:49.332Z</time></trkpt><trkpt lat="41.6748477" lon="14.2256322"><ele>541.0</ele><time>2026-04-26T15:44:50.332Z</time></trkpt><trkpt lat="41.6746175" lon="14.225963"><ele>542.0</ele><time>2026-04-26T15:44:51.332Z</time></trkpt><trkpt lat="41.6743763" lon="14.2262716"><ele>543.0</ele><time>2026-04-26T15:44:52.332Z</time></trkpt><trkpt lat="41.6741281" lon="14.2265789"><ele>543.0</ele><time>2026-04-26T15:44:53.332Z</time></trkpt><trkpt lat="41.6738769" lon="14.2268756"><ele>543.0</ele><time>2026-04-26T15:44:54.332Z</time></trkpt><trkpt lat="41.6736134" lon="14.2271568"><ele>531.0</ele><time>2026-04-26T15:44:55.332Z</time></trkpt><trkpt lat="41.6733488" lon="14.2274188"><ele>519.0</ele><time>2026-04-26T15:44:56.332Z</time></trkpt><trkpt lat="41.6730741" lon="14.2276785"><ele>519.0</ele><time>2026-04-26T15:44:57.332Z</time></trkpt><trkpt lat="41.6727915" lon="14.2279216"><ele>519.0</ele><time>2026-04-26T15:44:58.332Z</time></trkpt><trkpt lat="41.6724973" lon="14.2281609"><ele>513.0</ele><time>2026-04-26T15:44:59.332Z</time></trkpt><trkpt lat="41.6721931" lon="14.2283801"><ele>507.0</ele><time>2026-04-26T15:45:00.333Z</time></trkpt><trkpt lat="41.671884" lon="14.2285933"><ele>507.0</ele><time>2026-04-26T15:45:01.333Z</time></trkpt><trkpt lat="41.6715645" lon="14.2287914"><ele>507.0</ele><time>2026-04-26T15:45:02.332Z</time></trkpt><trkpt lat="41.6712434" lon="14.2289767"><ele>524.5</ele><time>2026-04-26T15:45:03.332Z</time></trkpt><trkpt lat="41.6709227" lon="14.2291446"><ele>542.0</ele><time>2026-04-26T15:45:04.332Z</time></trkpt><trkpt lat="41.6705925" lon="14.2292923"><ele>542.5</ele><time>2026-04-26T15:45:05.332Z</time></trkpt><trkpt lat="41.6702609" lon="14.2294259"><ele>543.0</ele><time>2026-04-26T15:45:06.332Z</time></trkpt><trkpt lat="41.6699219" lon="14.2295435"><ele>543.0</ele><time>2026-04-26T15:45:07.333Z</time></trkpt><trkpt lat="41.6695747" lon="14.229656"><ele>543.0</ele><time>2026-04-26T15:45:08.332Z</time></trkpt><trkpt lat="41.6692264" lon="14.2297526"><ele>553.5</ele><time>2026-04-26T15:45:09.333Z</time></trkpt><trkpt lat="41.6688874" lon="14.229833"><ele>564.0</ele><time>2026-04-26T15:45:10.332Z</time></trkpt><trkpt lat="41.6685531" lon="14.2298936"><ele>565.5</ele><time>2026-04-26T15:45:11.333Z</time></trkpt><trkpt lat="41.6682312" lon="14.2299252"><ele>567.0</ele><time>2026-04-26T15:45:12.332Z</time></trkpt><trkpt lat="41.6679258" lon="14.2299416"><ele>566.5</ele><time>2026-04-26T15:45:13.333Z</time></trkpt><trkpt lat="41.6676378" lon="14.229943"><ele>566.0</ele><time>2026-04-26T15:45:14.333Z</time></trkpt><trkpt lat="41.667358" lon="14.2299444"><ele>566.0</ele><time>2026-04-26T15:45:15.333Z</time></trkpt><trkpt lat="41.6671024" lon="14.2299415"><ele>566.0</ele><time>2026-04-26T15:45:16.332Z</time></trkpt><trkpt lat="41.6668681" lon="14.2299195"><ele>566.3333333333333</ele><time>2026-04-26T15:45:17.333Z</time></trkpt><trkpt lat="41.6666443" lon="14.2298941"><ele>566.6666666666666</ele><time>2026-04-26T15:45:18.332Z</time></trkpt><trkpt lat="41.6664285" lon="14.2298658"><ele>567.0</ele><time>2026-04-26T15:45:19.332Z</time></trkpt><trkpt lat="41.6662082" lon="14.2298326"><ele>560.3333333333334</ele><time>2026-04-26T15:45:20.332Z</time></trkpt><trkpt lat="41.6659853" lon="14.2297921"><ele>553.6666666666667</ele><time>2026-04-26T15:45:21.333Z</time></trkpt><trkpt lat="41.6657737" lon="14.2297403"><ele>547.0</ele><time>2026-04-26T15:45:22.332Z</time></trkpt><trkpt lat="41.6655688" lon="14.2296895"><ele>547.0</ele><time>2026-04-26T15:45:23.333Z</time></trkpt><trkpt lat="41.6653656" lon="14.2296222"><ele>547.0</ele><time>2026-04-26T15:45:24.332Z</time></trkpt><trkpt lat="41.6651698" lon="14.2295574"><ele>547.0</ele><time>2026-04-26T15:45:25.332Z</time></trkpt><trkpt lat="41.6649768" lon="14.229487"><ele>553.6666666666667</ele><time>2026-04-26T15:45:26.333Z</time></trkpt><trkpt lat="41.6647769" lon="14.2294145"><ele>560.3333333333334</ele><time>2026-04-26T15:45:27.332Z</time></trkpt><trkpt lat="41.664572" lon="14.2293337"><ele>567.0</ele><time>2026-04-26T15:45:28.332Z</time></trkpt><trkpt lat="41.6643675" lon="14.2292568"><ele>570.0</ele><time>2026-04-26T15:45:29.332Z</time></trkpt><trkpt lat="41.6641591" lon="14.2291925"><ele>573.0</ele><time>2026-04-26T15:45:30.332Z</time></trkpt><trkpt lat="41.6639312" lon="14.2291223"><ele>576.0</ele><time>2026-04-26T15:45:31.333Z</time></trkpt><trkpt lat="41.6636878" lon="14.2290197"><ele>572.0</ele><time>2026-04-26T15:45:32.333Z</time></trkpt><trkpt lat="41.663418" lon="14.2288838"><ele>568.0</ele><time>2026-04-26T15:45:33.332Z</time></trkpt><trkpt lat="41.6631302" lon="14.2287477"><ele>568.0</ele><time>2026-04-26T15:45:34.332Z</time></trkpt><trkpt lat="41.6628267" lon="14.2286054"><ele>568.0</ele><time>2026-04-26T15:45:35.333Z</time></trkpt><trkpt lat="41.6625144" lon="14.2284581"><ele>574.0</ele><time>2026-04-26T15:45:36.333Z</time></trkpt><trkpt lat="41.6621936" lon="14.2283175"><ele>580.0</ele><time>2026-04-26T15:45:37.332Z</time></trkpt><trkpt lat="41.661889" lon="14.228175"><ele>588.5</ele><time>2026-04-26T15:45:38.332Z</time></trkpt><trkpt lat="41.6615942" lon="14.2280348"><ele>597.0</ele><time>2026-04-26T15:45:39.333Z</time></trkpt><trkpt lat="41.6596449" lon="14.2274957"><ele>587.0</ele><time>2026-04-26T15:45:45.332Z</time></trkpt><trkpt lat="41.6593082" lon="14.2274552"><ele>577.0</ele><time>2026-04-26T15:45:46.332Z</time></trkpt><trkpt lat="41.6589563" lon="14.2274046"><ele>579.0</ele><time>2026-04-26T15:45:47.332Z</time></trkpt><trkpt lat="41.6586056" lon="14.2273625"><ele>581.0</ele><time>2026-04-26T15:45:48.333Z</time></trkpt><trkpt lat="41.6582357" lon="14.2273042"><ele>587.5</ele><time>2026-04-26T15:45:49.332Z</time></trkpt><trkpt lat="41.6578707" lon="14.227261"><ele>594.0</ele><time>2026-04-26T15:45:50.332Z</time></trkpt><trkpt lat="41.6575035" lon="14.2272166"><ele>598.0</ele><time>2026-04-26T15:45:51.333Z</time></trkpt><trkpt lat="41.6571435" lon="14.2271699"><ele>602.0</ele><time>2026-04-26T15:45:52.332Z</time></trkpt><trkpt lat="41.6567869" lon="14.227121"><ele>604.0</ele><time>2026-04-26T15:45:53.332Z</time></trkpt><trkpt lat="41.6564276" lon="14.2270762"><ele>606.0</ele><time>2026-04-26T15:45:54.333Z</time></trkpt><trkpt lat="41.6446221" lon="14.2256113"><ele>600.0</ele><time>2026-04-26T15:46:29.333Z</time></trkpt><trkpt lat="41.644012" lon="14.2255569"><ele>600.0</ele><time>2026-04-26T15:46:31.332Z</time></trkpt><trkpt lat="41.6437129" lon="14.225496"><ele>600.0</ele><time>2026-04-26T15:46:32.332Z</time></trkpt><trkpt lat="41.6434012" lon="14.2254105"><ele>597.0</ele><time>2026-04-26T15:46:33.332Z</time></trkpt><trkpt lat="41.6430788" lon="14.2253131"><ele>594.0</ele><time>2026-04-26T15:46:34.332Z</time></trkpt><trkpt lat="41.6427531" lon="14.2252046"><ele>592.0</ele><time>2026-04-26T15:46:35.333Z</time></trkpt><trkpt lat="41.6424285" lon="14.2250811"><ele>590.0</ele><time>2026-04-26T15:46:36.332Z</time></trkpt><trkpt lat="41.6421114" lon="14.224942"><ele>586.0</ele><time>2026-04-26T15:46:37.332Z</time></trkpt><trkpt lat="41.6418021" lon="14.2247937"><ele>582.0</ele><time>2026-04-26T15:46:38.333Z</time></trkpt><trkpt lat="41.6415009" lon="14.2246393"><ele>582.0</ele><time>2026-04-26T15:46:39.332Z</time></trkpt><trkpt lat="41.6411974" lon="14.2244841"><ele>582.0</ele><time>2026-04-26T15:46:40.333Z</time></trkpt><trkpt lat="41.6408958" lon="14.2243364"><ele>581.5</ele><time>2026-04-26T15:46:41.333Z</time></trkpt><trkpt lat="41.6405918" lon="14.224193"><ele>581.0</ele><time>2026-04-26T15:46:42.332Z</time></trkpt><trkpt lat="41.6402823" lon="14.2240622"><ele>577.5</ele><time>2026-04-26T15:46:43.333Z</time></trkpt><trkpt lat="41.6399614" lon="14.2239398"><ele>574.0</ele><time>2026-04-26T15:46:44.333Z</time></trkpt><trkpt lat="41.6396457" lon="14.2238439"><ele>574.0</ele><time>2026-04-26T15:46:45.332Z</time></trkpt><trkpt lat="41.6393387" lon="14.2237684"><ele>574.0</ele><time>2026-04-26T15:46:46.332Z</time></trkpt><trkpt lat="41.6390317" lon="14.223718"><ele>574.0</ele><time>2026-04-26T15:46:47.332Z</time></trkpt><trkpt lat="41.6387116" lon="14.2237003"><ele>574.0</ele><time>2026-04-26T15:46:48.332Z</time></trkpt><trkpt lat="41.6384005" lon="14.223696"><ele>571.5</ele><time>2026-04-26T15:46:49.332Z</time></trkpt><trkpt lat="41.6381044" lon="14.223721"><ele>569.0</ele><time>2026-04-26T15:46:50.333Z</time></trkpt><trkpt lat="41.6378228" lon="14.2237614"><ele>566.0</ele><time>2026-04-26T15:46:51.333Z</time></trkpt><trkpt lat="41.6375482" lon="14.2238257"><ele>563.0</ele><time>2026-04-26T15:46:52.332Z</time></trkpt><trkpt lat="41.6372848" lon="14.2238987"><ele>563.0</ele><time>2026-04-26T15:46:53.332Z</time></trkpt><trkpt lat="41.6370345" lon="14.2239758"><ele>563.0</ele><time>2026-04-26T15:46:54.333Z</time></trkpt><trkpt lat="41.6367893" lon="14.2240819"><ele>564.5</ele><time>2026-04-26T15:46:55.332Z</time></trkpt><trkpt lat="41.6365587" lon="14.224202"><ele>566.0</ele><time>2026-04-26T15:46:56.332Z</time></trkpt><trkpt lat="41.6363349" lon="14.2243278"><ele>565.0</ele><time>2026-04-26T15:46:57.332Z</time></trkpt><trkpt lat="41.6361154" lon="14.2244722"><ele>564.0</ele><time>2026-04-26T15:46:58.332Z</time></trkpt><trkpt lat="41.6358712" lon="14.2246486"><ele>567.5</ele><time>2026-04-26T15:46:59.332Z</time></trkpt><trkpt lat="41.6356135" lon="14.2248476"><ele>571.0</ele><time>2026-04-26T15:47:00.333Z</time></trkpt><trkpt lat="41.6353327" lon="14.2250627"><ele>566.5</ele><time>2026-04-26T15:47:01.332Z</time></trkpt><trkpt lat="41.6350392" lon="14.2252869"><ele>562.0</ele><time>2026-04-26T15:47:02.333Z</time></trkpt><trkpt lat="41.634745" lon="14.2255166"><ele>557.0</ele><time>2026-04-26T15:47:03.332Z</time></trkpt><trkpt lat="41.6344497" lon="14.2257542"><ele>552.0</ele><time>2026-04-26T15:47:04.333Z</time></trkpt><trkpt lat="41.6341564" lon="14.2259875"><ele>552.0</ele><time>2026-04-26T15:47:05.333Z</time></trkpt><trkpt lat="41.6338669" lon="14.2262249"><ele>552.0</ele><time>2026-04-26T15:47:06.332Z</time></trkpt><trkpt lat="41.6335796" lon="14.2264562"><ele>549.5</ele><time>2026-04-26T15:47:07.332Z</time></trkpt><trkpt lat="41.6332972" lon="14.2266839"><ele>547.0</ele><time>2026-04-26T15:47:08.332Z</time></trkpt><trkpt lat="41.6330182" lon="14.2269109"><ele>549.5</ele><time>2026-04-26T15:47:09.332Z</time></trkpt><trkpt lat="41.6327421" lon="14.2271275"><ele>552.0</ele><time>2026-04-26T15:47:10.333Z</time></trkpt><trkpt lat="41.6324613" lon="14.2273446"><ele>552.0</ele><time>2026-04-26T15:47:11.332Z</time></trkpt><trkpt lat="41.6321903" lon="14.2275694"><ele>552.0</ele><time>2026-04-26T15:47:12.332Z</time></trkpt><trkpt lat="41.6319206" lon="14.2277894"><ele>552.5</ele><time>2026-04-26T15:47:13.332Z</time></trkpt><trkpt lat="41.6316533" lon="14.2280089"><ele>553.0</ele><time>2026-04-26T15:47:14.332Z</time></trkpt><trkpt lat="41.6313965" lon="14.2282221"><ele>553.0</ele><time>2026-04-26T15:47:15.332Z</time></trkpt><trkpt lat="41.6311479" lon="14.2284349"><ele>553.0</ele><time>2026-04-26T15:47:16.332Z</time></trkpt><trkpt lat="41.6309166" lon="14.2286507"><ele>552.0</ele><time>2026-04-26T15:47:17.333Z</time></trkpt><trkpt lat="41.6306759" lon="14.2288707"><ele>551.0</ele><time>2026-04-26T15:47:18.332Z</time></trkpt><trkpt lat="41.6304412" lon="14.2290927"><ele>547.5</ele><time>2026-04-26T15:47:19.332Z</time></trkpt><trkpt lat="41.6302028" lon="14.2293212"><ele>544.0</ele><time>2026-04-26T15:47:20.332Z</time></trkpt><trkpt lat="41.6299651" lon="14.229541"><ele>544.0</ele><time>2026-04-26T15:47:21.332Z</time></trkpt><trkpt lat="41.6287678" lon="14.2309707"><ele>539.3333333333334</ele><time>2026-04-26T15:47:27.332Z</time></trkpt><trkpt lat="41.6285956" lon="14.2311337"><ele>534.6666666666666</ele><time>2026-04-26T15:47:28.332Z</time></trkpt><trkpt lat="41.6284274" lon="14.2313505"><ele>530.0</ele><time>2026-04-26T15:47:29.332Z</time></trkpt><trkpt lat="41.6282663" lon="14.2315565"><ele>530.0</ele><time>2026-04-26T15:47:30.332Z</time></trkpt><trkpt lat="41.6281223" lon="14.2317465"><ele>530.0</ele><time>2026-04-26T15:47:31.332Z</time></trkpt><trkpt lat="41.6279707" lon="14.2319427"><ele>530.0</ele><time>2026-04-26T15:47:32.332Z</time></trkpt><trkpt lat="41.6278182" lon="14.2321349"><ele>530.0</ele><time>2026-04-26T15:47:33.333Z</time></trkpt><trkpt lat="41.6276727" lon="14.2323174"><ele>530.0</ele><time>2026-04-26T15:47:34.333Z</time></trkpt><trkpt lat="41.6275297" lon="14.2324961"><ele>530.0</ele><time>2026-04-26T15:47:35.332Z</time></trkpt><trkpt lat="41.6273804" lon="14.2326693"><ele>530.0</ele><time>2026-04-26T15:47:36.332Z</time></trkpt><trkpt lat="41.6272342" lon="14.2328288"><ele>530.0</ele><time>2026-04-26T15:47:37.332Z</time></trkpt><trkpt lat="41.6270812" lon="14.2329836"><ele>530.0</ele><time>2026-04-26T15:47:38.332Z</time></trkpt><trkpt lat="41.6269266" lon="14.2331483"><ele>526.3333333333333</ele><time>2026-04-26T15:47:39.332Z</time></trkpt><trkpt lat="41.6267765" lon="14.2333146"><ele>522.6666666666666</ele><time>2026-04-26T15:47:40.332Z</time></trkpt><trkpt lat="41.6266299" lon="14.233472"><ele>519.0</ele><time>2026-04-26T15:47:41.332Z</time></trkpt><trkpt lat="41.6264856" lon="14.2336218"><ele>519.0</ele><time>2026-04-26T15:47:42.332Z</time></trkpt><trkpt lat="41.6263484" lon="14.2337676"><ele>519.0</ele><time>2026-04-26T15:47:43.332Z</time></trkpt><trkpt lat="41.6262096" lon="14.2339119"><ele>519.0</ele><time>2026-04-26T15:47:44.332Z</time></trkpt><trkpt lat="41.6260812" lon="14.2340589"><ele>516.3333333333334</ele><time>2026-04-26T15:47:45.332Z</time></trkpt><trkpt lat="41.6259658" lon="14.2342025"><ele>513.6666666666667</ele><time>2026-04-26T15:47:46.332Z</time></trkpt><trkpt lat="41.6258521" lon="14.2343403"><ele>511.0</ele><time>2026-04-26T15:47:47.332Z</time></trkpt><trkpt lat="41.6257474" lon="14.2344733"><ele>511.0</ele><time>2026-04-26T15:47:48.333Z</time></trkpt><trkpt lat="41.6256496" lon="14.2346072"><ele>511.0</ele><time>2026-04-26T15:47:49.332Z</time></trkpt><trkpt lat="41.6255628" lon="14.2347399"><ele>511.0</ele><time>2026-04-26T15:47:50.333Z</time></trkpt><trkpt lat="41.6254851" lon="14.2348547"><ele>511.0</ele><time>2026-04-26T15:47:51.332Z</time></trkpt><trkpt lat="41.6254112" lon="14.2349538"><ele>512.0</ele><time>2026-04-26T15:47:52.332Z</time></trkpt><trkpt lat="41.6253416" lon="14.2350234"><ele>513.0</ele><time>2026-04-26T15:47:53.332Z</time></trkpt><trkpt lat="41.6252722" lon="14.2350503"><ele>514.0</ele><time>2026-04-26T15:47:54.333Z</time></trkpt><trkpt lat="41.6251633" lon="14.2350305"><ele>515.0</ele><time>2026-04-26T15:47:56.332Z</time></trkpt><trkpt lat="41.6250976" lon="14.2349019"><ele>516.0</ele><time>2026-04-26T15:47:58.332Z</time></trkpt><trkpt lat="41.625084" lon="14.2347886"><ele>512.0</ele><time>2026-04-26T15:47:59.332Z</time></trkpt><trkpt lat="41.6250848" lon="14.2346468"><ele>508.0</ele><time>2026-04-26T15:48:00.332Z</time></trkpt><trkpt lat="41.6251012" lon="14.2344737"><ele>504.0</ele><time>2026-04-26T15:48:01.332Z</time></trkpt><trkpt lat="41.6251377" lon="14.2342813"><ele>500.0</ele><time>2026-04-26T15:48:02.332Z</time></trkpt><trkpt lat="41.6251876" lon="14.2340755"><ele>499.25</ele><time>2026-04-26T15:48:03.332Z</time></trkpt><trkpt lat="41.625243" lon="14.2338749"><ele>498.5</ele><time>2026-04-26T15:48:04.332Z</time></trkpt><trkpt lat="41.6252983" lon="14.2336896"><ele>497.75</ele><time>2026-04-26T15:48:05.332Z</time></trkpt><trkpt lat="41.6253569" lon="14.2335353"><ele>497.0</ele><time>2026-04-26T15:48:06.333Z</time></trkpt><trkpt lat="41.6253893" lon="14.2333733"><ele>498.25</ele><time>2026-04-26T15:48:07.333Z</time></trkpt><trkpt lat="41.6254003" lon="14.2332029"><ele>499.5</ele><time>2026-04-26T15:48:08.332Z</time></trkpt><trkpt lat="41.6253919" lon="14.2330258"><ele>500.75</ele><time>2026-04-26T15:48:09.332Z</time></trkpt><trkpt lat="41.6253603" lon="14.2328314"><ele>502.0</ele><time>2026-04-26T15:48:10.333Z</time></trkpt><trkpt lat="41.6253448" lon="14.2326515"><ele>502.0</ele><time>2026-04-26T15:48:11.332Z</time></trkpt><trkpt lat="41.6253411" lon="14.2324824"><ele>502.0</ele><time>2026-04-26T15:48:12.332Z</time></trkpt><trkpt lat="41.6253547" lon="14.2323226"><ele>502.0</ele><time>2026-04-26T15:48:13.332Z</time></trkpt><trkpt lat="41.6253968" lon="14.2321628"><ele>502.0</ele><time>2026-04-26T15:48:14.332Z</time></trkpt><trkpt lat="41.6254548" lon="14.2319971"><ele>500.25</ele><time>2026-04-26T15:48:15.332Z</time></trkpt><trkpt lat="41.6255134" lon="14.2318326"><ele>498.5</ele><time>2026-04-26T15:48:16.332Z</time></trkpt><trkpt lat="41.6255668" lon="14.2316715"><ele>496.75</ele><time>2026-04-26T15:48:17.333Z</time></trkpt><trkpt lat="41.6256146" lon="14.2315283"><ele>495.0</ele><time>2026-04-26T15:48:18.332Z</time></trkpt><trkpt lat="41.6256495" lon="14.2314065"><ele>494.6666666666667</ele><time>2026-04-26T15:48:19.332Z</time></trkpt><trkpt lat="41.6256755" lon="14.2312922"><ele>494.33333333333337</ele><time>2026-04-26T15:48:20.332Z</time></trkpt><trkpt lat="41.6256893" lon="14.2311734"><ele>494.0</ele><time>2026-04-26T15:48:21.332Z</time></trkpt><trkpt lat="41.6256887" lon="14.2310669"><ele>493.6666666666667</ele><time>2026-04-26T15:48:22.332Z</time></trkpt><trkpt lat="41.6256687" lon="14.2309712"><ele>493.33333333333337</ele><time>2026-04-26T15:48:23.332Z</time></trkpt><trkpt lat="41.6256336" lon="14.2308905"><ele>493.0</ele><time>2026-04-26T15:48:24.332Z</time></trkpt><trkpt lat="41.6256018" lon="14.2308175"><ele>493.0</ele><time>2026-04-26T15:48:25.333Z</time></trkpt><trkpt lat="41.625534" lon="14.2307185"><ele>493.0</ele><time>2026-04-26T15:48:27.333Z</time></trkpt><trkpt lat="41.6254587" lon="14.2306791"><ele>493.0</ele><time>2026-04-26T15:48:30.332Z</time></trkpt><trkpt lat="41.6253064" lon="14.2307241"><ele>493.0</ele><time>2026-04-26T15:48:32.332Z</time></trkpt><trkpt lat="41.6251834" lon="14.2307635"><ele>492.0</ele><time>2026-04-26T15:48:33.332Z</time></trkpt><trkpt lat="41.6250362" lon="14.230799"><ele>491.0</ele><time>2026-04-26T15:48:34.332Z</time></trkpt><trkpt lat="41.6248747" lon="14.2308307"><ele>490.0</ele><time>2026-04-26T15:48:35.332Z</time></trkpt><trkpt lat="41.6247056" lon="14.2308665"><ele>490.0</ele><time>2026-04-26T15:48:36.332Z</time></trkpt><trkpt lat="41.6245394" lon="14.2309018"><ele>490.0</ele><time>2026-04-26T15:48:37.332Z</time></trkpt><trkpt lat="41.6243426" lon="14.2309561"><ele>490.0</ele><time>2026-04-26T15:48:38.332Z</time></trkpt><trkpt lat="41.6241215" lon="14.2310167"><ele>489.6666666666667</ele><time>2026-04-26T15:48:39.333Z</time></trkpt><trkpt lat="41.6238943" lon="14.2310594"><ele>489.33333333333337</ele><time>2026-04-26T15:48:40.333Z</time></trkpt><trkpt lat="41.6236841" lon="14.2310832"><ele>489.0</ele><time>2026-04-26T15:48:41.332Z</time></trkpt><trkpt lat="41.6234995" lon="14.231114"><ele>488.66666666666663</ele><time>2026-04-26T15:48:42.332Z</time></trkpt><trkpt lat="41.6233255" lon="14.2311754"><ele>488.3333333333333</ele><time>2026-04-26T15:48:43.332Z</time></trkpt><trkpt lat="41.623152" lon="14.2312946"><ele>488.0</ele><time>2026-04-26T15:48:44.332Z</time></trkpt><trkpt lat="41.6229803" lon="14.2314611"><ele>486.5</ele><time>2026-04-26T15:48:45.333Z</time></trkpt><trkpt lat="41.6227988" lon="14.231664"><ele>485.0</ele><time>2026-04-26T15:48:46.332Z</time></trkpt><trkpt lat="41.6226024" lon="14.2318961"><ele>485.0</ele><time>2026-04-26T15:48:47.332Z</time></trkpt><trkpt lat="41.6223897" lon="14.232139"><ele>485.0</ele><time>2026-04-26T15:48:48.333Z</time></trkpt><trkpt lat="41.6221756" lon="14.2323812"><ele>486.0</ele><time>2026-04-26T15:48:49.332Z</time></trkpt><trkpt lat="41.6219623" lon="14.2326189"><ele>487.0</ele><time>2026-04-26T15:48:50.333Z</time></trkpt><trkpt lat="41.6217497" lon="14.2328514"><ele>487.0</ele><time>2026-04-26T15:48:51.333Z</time></trkpt><trkpt lat="41.6215505" lon="14.2330726"><ele>487.0</ele><time>2026-04-26T15:48:52.332Z</time></trkpt><trkpt lat="41.6213524" lon="14.2332894"><ele>488.0</ele><time>2026-04-26T15:48:53.333Z</time></trkpt><trkpt lat="41.6211518" lon="14.2335113"><ele>489.0</ele><time>2026-04-26T15:48:54.332Z</time></trkpt><trkpt lat="41.6209582" lon="14.2337227"><ele>489.0</ele><time>2026-04-26T15:48:55.332Z</time></trkpt><trkpt lat="41.6207705" lon="14.2339308"><ele>489.0</ele><time>2026-04-26T15:48:56.332Z</time></trkpt><trkpt lat="41.6205911" lon="14.2341406"><ele>487.5</ele><time>2026-04-26T15:48:57.332Z</time></trkpt><trkpt lat="41.6204075" lon="14.2343497"><ele>486.0</ele><time>2026-04-26T15:48:58.332Z</time></trkpt><trkpt lat="41.6202177" lon="14.2345645"><ele>486.0</ele><time>2026-04-26T15:48:59.333Z</time></trkpt><trkpt lat="41.6200189" lon="14.2347872"><ele>486.0</ele><time>2026-04-26T15:49:00.332Z</time></trkpt><trkpt lat="41.6198092" lon="14.2350006"><ele>485.0</ele><time>2026-04-26T15:49:01.332Z</time></trkpt><trkpt lat="41.6195928" lon="14.2352027"><ele>484.0</ele><time>2026-04-26T15:49:02.332Z</time></trkpt><trkpt lat="41.6193634" lon="14.235385"><ele>484.0</ele><time>2026-04-26T15:49:03.332Z</time></trkpt><trkpt lat="41.6191321" lon="14.2355446"><ele>484.0</ele><time>2026-04-26T15:49:04.332Z</time></trkpt><trkpt lat="41.6189052" lon="14.2356747"><ele>481.0</ele><time>2026-04-26T15:49:05.332Z</time></trkpt><trkpt lat="41.6186779" lon="14.235788"><ele>478.0</ele><time>2026-04-26T15:49:06.333Z</time></trkpt><trkpt lat="41.6184472" lon="14.2358864"><ele>478.0</ele><time>2026-04-26T15:49:07.332Z</time></trkpt><trkpt lat="41.6182233" lon="14.2359639"><ele>478.0</ele><time>2026-04-26T15:49:08.332Z</time></trkpt><trkpt lat="41.6180131" lon="14.2360341"><ele>478.0</ele><time>2026-04-26T15:49:09.332Z</time></trkpt><trkpt lat="41.61782" lon="14.2361049"><ele>479.0</ele><time>2026-04-26T15:49:10.332Z</time></trkpt><trkpt lat="41.6176385" lon="14.2361757"><ele>480.0</ele><time>2026-04-26T15:49:11.332Z</time></trkpt><trkpt lat="41.6174614" lon="14.2362387"><ele>481.0</ele><time>2026-04-26T15:49:12.332Z</time></trkpt><trkpt lat="41.6172843" lon="14.2363028"><ele>481.0</ele><time>2026-04-26T15:49:13.332Z</time></trkpt><trkpt lat="41.6171118" lon="14.2363609"><ele>481.0</ele><time>2026-04-26T15:49:14.332Z</time></trkpt><trkpt lat="41.6169426" lon="14.236418"><ele>481.0</ele><time>2026-04-26T15:49:15.332Z</time></trkpt><trkpt lat="41.6167782" lon="14.2364713"><ele>480.0</ele><time>2026-04-26T15:49:16.332Z</time></trkpt><trkpt lat="41.6166167" lon="14.2365265"><ele>479.0</ele><time>2026-04-26T15:49:17.332Z</time></trkpt><trkpt lat="41.616458" lon="14.2365837"><ele>478.0</ele><time>2026-04-26T15:49:18.332Z</time></trkpt><trkpt lat="41.6162998" lon="14.2366366"><ele>479.33333333333337</ele><time>2026-04-26T15:49:19.333Z</time></trkpt><trkpt lat="41.6161456" lon="14.2366839"><ele>480.66666666666663</ele><time>2026-04-26T15:49:20.332Z</time></trkpt><trkpt lat="41.6159949" lon="14.2367219"><ele>482.0</ele><time>2026-04-26T15:49:21.333Z</time></trkpt><trkpt lat="41.6158541" lon="14.2367532"><ele>482.0</ele><time>2026-04-26T15:49:22.332Z</time></trkpt><trkpt lat="41.6157225" lon="14.2367866"><ele>482.0</ele><time>2026-04-26T15:49:23.332Z</time></trkpt><trkpt lat="41.6155917" lon="14.2368133"><ele>482.0</ele><time>2026-04-26T15:49:24.332Z</time></trkpt><trkpt lat="41.6154701" lon="14.2368387"><ele>482.0</ele><time>2026-04-26T15:49:25.333Z</time></trkpt><trkpt lat="41.6153431" lon="14.2368615"><ele>482.25</ele><time>2026-04-26T15:49:26.333Z</time></trkpt><trkpt lat="41.6152224" lon="14.2368925"><ele>482.5</ele><time>2026-04-26T15:49:27.332Z</time></trkpt><trkpt lat="41.6151022" lon="14.2369313"><ele>482.75</ele><time>2026-04-26T15:49:28.332Z</time></trkpt><trkpt lat="41.6149853" lon="14.2369555"><ele>483.0</ele><time>2026-04-26T15:49:29.332Z</time></trkpt><trkpt lat="41.6148731" lon="14.2369846"><ele>483.0</ele><time>2026-04-26T15:49:30.332Z</time></trkpt><trkpt lat="41.6147716" lon="14.2370185"><ele>482.99999999999994</ele><time>2026-04-26T15:49:31.332Z</time></trkpt><trkpt lat="41.6146802" lon="14.237049"><ele>482.99999999999994</ele><time>2026-04-26T15:49:32.332Z</time></trkpt><trkpt lat="41.6145833" lon="14.2370805"><ele>483.0</ele><time>2026-04-26T15:49:33.332Z</time></trkpt><trkpt lat="41.614485" lon="14.2371066"><ele>483.0</ele><time>2026-04-26T15:49:34.332Z</time></trkpt><trkpt lat="41.6143872" lon="14.2371396"><ele>482.79999999999995</ele><time>2026-04-26T15:49:35.332Z</time></trkpt><trkpt lat="41.6142873" lon="14.2371746"><ele>482.59999999999997</ele><time>2026-04-26T15:49:36.332Z</time></trkpt><trkpt lat="41.6141843" lon="14.2372068"><ele>482.40000000000003</ele><time>2026-04-26T15:49:37.332Z</time></trkpt><trkpt lat="41.6140833" lon="14.237242"><ele>482.20000000000005</ele><time>2026-04-26T15:49:38.332Z</time></trkpt><trkpt lat="41.6139774" lon="14.2372736"><ele>482.0</ele><time>2026-04-26T15:49:39.332Z</time></trkpt><trkpt lat="41.6138752" lon="14.2373065"><ele>480.0</ele><time>2026-04-26T15:49:40.332Z</time></trkpt><trkpt lat="41.6137617" lon="14.2373375"><ele>478.0</ele><time>2026-04-26T15:49:41.332Z</time></trkpt><trkpt lat="41.6136394" lon="14.2373668"><ele>476.0</ele><time>2026-04-26T15:49:42.332Z</time></trkpt><trkpt lat="41.6134982" lon="14.2373915"><ele>474.0</ele><time>2026-04-26T15:49:43.332Z</time></trkpt><trkpt lat="41.6133314" lon="14.2374182"><ele>474.0</ele><time>2026-04-26T15:49:44.332Z</time></trkpt><trkpt lat="41.6131479" lon="14.2374266"><ele>474.0</ele><time>2026-04-26T15:49:45.333Z</time></trkpt><trkpt lat="41.6129526" lon="14.237425"><ele>474.0</ele><time>2026-04-26T15:49:46.333Z</time></trkpt><trkpt lat="41.6127563" lon="14.2374157"><ele>474.0</ele><time>2026-04-26T15:49:47.332Z</time></trkpt><trkpt lat="41.6125587" lon="14.2373944"><ele>474.0</ele><time>2026-04-26T15:49:48.332Z</time></trkpt><trkpt lat="41.6123471" lon="14.2373821"><ele>474.0</ele><time>2026-04-26T15:49:49.332Z</time></trkpt><trkpt lat="41.6121333" lon="14.237372"><ele>475.0</ele><time>2026-04-26T15:49:50.332Z</time></trkpt><trkpt lat="41.6119406" lon="14.2373783"><ele>476.0</ele><time>2026-04-26T15:49:51.332Z</time></trkpt><trkpt lat="41.6117743" lon="14.2373493"><ele>477.0</ele><time>2026-04-26T15:49:52.332Z</time></trkpt><trkpt lat="41.6116401" lon="14.2373598"><ele>477.0</ele><time>2026-04-26T15:49:53.332Z</time></trkpt><trkpt lat="41.611546" lon="14.237464"><ele>477.00000000000006</ele><time>2026-04-26T15:49:55.332Z</time></trkpt><trkpt lat="41.6115187" lon="14.2375596"><ele>477.00000000000006</ele><time>2026-04-26T15:49:56.333Z</time></trkpt><trkpt lat="41.6114398" lon="14.2376253"><ele>477.0</ele><time>2026-04-26T15:49:57.332Z</time></trkpt><trkpt lat="41.6113786" lon="14.2377009"><ele>477.0</ele><time>2026-04-26T15:49:58.332Z</time></trkpt><trkpt lat="41.6113038" lon="14.2377529"><ele>477.0</ele><time>2026-04-26T15:49:59.332Z</time></trkpt><trkpt lat="41.6112211" lon="14.2378031"><ele>477.0</ele><time>2026-04-26T15:50:00.332Z</time></trkpt><trkpt lat="41.6111336" lon="14.237846"><ele>477.0</ele><time>2026-04-26T15:50:01.333Z</time></trkpt><trkpt lat="41.6110485" lon="14.2378801"><ele>477.0</ele><time>2026-04-26T15:50:02.333Z</time></trkpt><trkpt lat="41.610967" lon="14.2379143"><ele>477.0</ele><time>2026-04-26T15:50:03.332Z</time></trkpt><trkpt lat="41.6108943" lon="14.2379592"><ele>477.0</ele><time>2026-04-26T15:50:04.333Z</time></trkpt><trkpt lat="41.6108134" lon="14.2380078"><ele>476.3333333333333</ele><time>2026-04-26T15:50:05.332Z</time></trkpt><trkpt lat="41.6107516" lon="14.2380621"><ele>475.66666666666663</ele><time>2026-04-26T15:50:06.332Z</time></trkpt><trkpt lat="41.6106885" lon="14.2381321"><ele>475.0</ele><time>2026-04-26T15:50:07.333Z</time></trkpt><trkpt lat="41.6106108" lon="14.2381937"><ele>474.3333333333333</ele><time>2026-04-26T15:50:08.332Z</time></trkpt><trkpt lat="41.6105272" lon="14.238256"><ele>473.66666666666663</ele><time>2026-04-26T15:50:09.333Z</time></trkpt><trkpt lat="41.6104303" lon="14.238311"><ele>473.0</ele><time>2026-04-26T15:50:10.332Z</time></trkpt><trkpt lat="41.6103271" lon="14.2383539"><ele>473.59999999999997</ele><time>2026-04-26T15:50:11.332Z</time></trkpt><trkpt lat="41.6102289" lon="14.2384003"><ele>474.19999999999993</ele><time>2026-04-26T15:50:12.333Z</time></trkpt><trkpt lat="41.6101222" lon="14.2384475"><ele>474.8</ele><time>2026-04-26T15:50:13.332Z</time></trkpt><trkpt lat="41.6100168" lon="14.2384926"><ele>475.4</ele><time>2026-04-26T15:50:14.332Z</time></trkpt><trkpt lat="41.6099083" lon="14.2385371"><ele>476.0</ele><time>2026-04-26T15:50:15.332Z</time></trkpt><trkpt lat="41.6098015" lon="14.2385786"><ele>476.0</ele><time>2026-04-26T15:50:16.332Z</time></trkpt><trkpt lat="41.6097099" lon="14.23862"><ele>476.0</ele><time>2026-04-26T15:50:17.332Z</time></trkpt><trkpt lat="41.6096232" lon="14.2386501"><ele>476.0</ele><time>2026-04-26T15:50:18.332Z</time></trkpt><trkpt lat="41.6095318" lon="14.2386801"><ele>476.0</ele><time>2026-04-26T15:50:19.332Z</time></trkpt><trkpt lat="41.609438" lon="14.2387155"><ele>476.0</ele><time>2026-04-26T15:50:20.332Z</time></trkpt><trkpt lat="41.6093287" lon="14.2387517"><ele>475.75</ele><time>2026-04-26T15:50:21.332Z</time></trkpt><trkpt lat="41.6092057" lon="14.2387856"><ele>475.5</ele><time>2026-04-26T15:50:22.332Z</time></trkpt><trkpt lat="41.6090906" lon="14.2388185"><ele>475.25</ele><time>2026-04-26T15:50:23.333Z</time></trkpt><trkpt lat="41.6089785" lon="14.2388504"><ele>475.0</ele><time>2026-04-26T15:50:24.332Z</time></trkpt><trkpt lat="41.6088617" lon="14.2388858"><ele>475.0</ele><time>2026-04-26T15:50:25.332Z</time></trkpt><trkpt lat="41.6087415" lon="14.2389262"><ele>475.0</ele><time>2026-04-26T15:50:26.332Z</time></trkpt><trkpt lat="41.6086165" lon="14.2389619"><ele>475.0</ele><time>2026-04-26T15:50:27.332Z</time></trkpt><trkpt lat="41.6084898" lon="14.2389977"><ele>475.0</ele><time>2026-04-26T15:50:28.332Z</time></trkpt><trkpt lat="41.608364" lon="14.2390353"><ele>474.5</ele><time>2026-04-26T15:50:29.333Z</time></trkpt><trkpt lat="41.6082416" lon="14.2390691"><ele>474.0</ele><time>2026-04-26T15:50:30.332Z</time></trkpt><trkpt lat="41.6081204" lon="14.2391014"><ele>473.5</ele><time>2026-04-26T15:50:31.332Z</time></trkpt><trkpt lat="41.6080023" lon="14.2391338"><ele>473.0</ele><time>2026-04-26T15:50:32.332Z</time></trkpt><trkpt lat="41.6078913" lon="14.2391621"><ele>472.0</ele><time>2026-04-26T15:50:33.333Z</time></trkpt><trkpt lat="41.6077876" lon="14.2391872"><ele>471.0</ele><time>2026-04-26T15:50:34.333Z</time></trkpt><trkpt lat="41.6076799" lon="14.2392166"><ele>470.0</ele><time>2026-04-26T15:50:35.332Z</time></trkpt><trkpt lat="41.6075578" lon="14.2392529"><ele>469.0</ele><time>2026-04-26T15:50:36.332Z</time></trkpt><trkpt lat="41.6074276" lon="14.23928"><ele>469.0</ele><time>2026-04-26T15:50:37.332Z</time></trkpt><trkpt lat="41.6073032" lon="14.2392966"><ele>469.0</ele><time>2026-04-26T15:50:38.333Z</time></trkpt><trkpt lat="41.6071832" lon="14.2393169"><ele>469.0</ele><time>2026-04-26T15:50:39.332Z</time></trkpt><trkpt lat="41.6070554" lon="14.2393455"><ele>469.0</ele><time>2026-04-26T15:50:40.333Z</time></trkpt><trkpt lat="41.6069294" lon="14.2393842"><ele>468.75</ele><time>2026-04-26T15:50:41.332Z</time></trkpt><trkpt lat="41.6067958" lon="14.2394038"><ele>468.5</ele><time>2026-04-26T15:50:42.333Z</time></trkpt><trkpt lat="41.6066736" lon="14.2394328"><ele>468.25</ele><time>2026-04-26T15:50:43.332Z</time></trkpt><trkpt lat="41.6065535" lon="14.2394668"><ele>468.0</ele><time>2026-04-26T15:50:44.332Z</time></trkpt><trkpt lat="41.606431" lon="14.2395011"><ele>468.0</ele><time>2026-04-26T15:50:45.332Z</time></trkpt><trkpt lat="41.6063115" lon="14.2395298"><ele>467.99999999999994</ele><time>2026-04-26T15:50:46.333Z</time></trkpt><trkpt lat="41.6061997" lon="14.2395585"><ele>467.99999999999994</ele><time>2026-04-26T15:50:47.332Z</time></trkpt><trkpt lat="41.6060988" lon="14.2395883"><ele>468.0</ele><time>2026-04-26T15:50:48.332Z</time></trkpt><trkpt lat="41.6059991" lon="14.2396194"><ele>468.0</ele><time>2026-04-26T15:50:49.332Z</time></trkpt><trkpt lat="41.6058982" lon="14.2396427"><ele>468.0</ele><time>2026-04-26T15:50:50.333Z</time></trkpt><trkpt lat="41.6057952" lon="14.239667"><ele>467.99999999999994</ele><time>2026-04-26T15:50:51.333Z</time></trkpt><trkpt lat="41.6056957" lon="14.239688"><ele>467.99999999999994</ele><time>2026-04-26T15:50:52.333Z</time></trkpt><trkpt lat="41.605602" lon="14.2397119"><ele>468.0</ele><time>2026-04-26T15:50:53.333Z</time></trkpt><trkpt lat="41.6055097" lon="14.2397267"><ele>468.0</ele><time>2026-04-26T15:50:54.332Z</time></trkpt><trkpt lat="41.6054167" lon="14.2397357"><ele>467.8333333333333</ele><time>2026-04-26T15:50:55.332Z</time></trkpt><trkpt lat="41.6053274" lon="14.239743"><ele>467.66666666666663</ele><time>2026-04-26T15:50:56.333Z</time></trkpt><trkpt lat="41.6052402" lon="14.2397431"><ele>467.5</ele><time>2026-04-26T15:50:57.332Z</time></trkpt><trkpt lat="41.6051488" lon="14.2397363"><ele>467.3333333333333</ele><time>2026-04-26T15:50:58.332Z</time></trkpt><trkpt lat="41.6050588" lon="14.239722"><ele>467.16666666666663</ele><time>2026-04-26T15:50:59.333Z</time></trkpt><trkpt lat="41.6049828" lon="14.2397155"><ele>467.0</ele><time>2026-04-26T15:51:00.333Z</time></trkpt><trkpt lat="41.6049159" lon="14.2397156"><ele>466.99999999999994</ele><time>2026-04-26T15:51:01.333Z</time></trkpt><trkpt lat="41.6048512" lon="14.2397272"><ele>467.0</ele><time>2026-04-26T15:51:02.333Z</time></trkpt><trkpt lat="41.6047881" lon="14.2397339"><ele>467.0</ele><time>2026-04-26T15:51:03.332Z</time></trkpt><trkpt lat="41.6046738" lon="14.2397342"><ele>467.0</ele><time>2026-04-26T15:51:05.332Z</time></trkpt><trkpt lat="41.6045839" lon="14.2397151"><ele>466.99999999999994</ele><time>2026-04-26T15:51:07.332Z</time></trkpt><trkpt lat="41.604488" lon="14.2396763"><ele>467.0</ele><time>2026-04-26T15:51:09.333Z</time></trkpt><trkpt lat="41.6043696" lon="14.2396633"><ele>466.8</ele><time>2026-04-26T15:51:11.342Z</time></trkpt><trkpt lat="41.6042994" lon="14.2396572"><ele>466.6</ele><time>2026-04-26T15:51:12.342Z</time></trkpt><trkpt lat="41.6042085" lon="14.239639"><ele>466.40000000000003</ele><time>2026-04-26T15:51:13.343Z</time></trkpt><trkpt lat="41.6041125" lon="14.2396207"><ele>466.20000000000005</ele><time>2026-04-26T15:51:14.342Z</time></trkpt><trkpt lat="41.6040119" lon="14.2396037"><ele>466.0</ele><time>2026-04-26T15:51:15.342Z</time></trkpt><trkpt lat="41.6039002" lon="14.239586"><ele>466.0</ele><time>2026-04-26T15:51:16.343Z</time></trkpt><trkpt lat="41.6037868" lon="14.2395718"><ele>466.0</ele><time>2026-04-26T15:51:17.342Z</time></trkpt><trkpt lat="41.6036702" lon="14.239568"><ele>466.0</ele><time>2026-04-26T15:51:18.342Z</time></trkpt><trkpt lat="41.6035475" lon="14.2395809"><ele>466.0</ele><time>2026-04-26T15:51:19.342Z</time></trkpt><trkpt lat="41.6034025" lon="14.2395945"><ele>465.5</ele><time>2026-04-26T15:51:20.342Z</time></trkpt><trkpt lat="41.6032547" lon="14.2396119"><ele>465.0</ele><time>2026-04-26T15:51:21.342Z</time></trkpt><trkpt lat="41.6031168" lon="14.2396255"><ele>464.5</ele><time>2026-04-26T15:51:22.342Z</time></trkpt><trkpt lat="41.6029895" lon="14.2396384"><ele>464.0</ele><time>2026-04-26T15:51:23.342Z</time></trkpt><trkpt lat="41.602886" lon="14.2396545"><ele>465.0</ele><time>2026-04-26T15:51:24.342Z</time></trkpt><trkpt lat="41.6028018" lon="14.2396967"><ele>466.0</ele><time>2026-04-26T15:51:25.342Z</time></trkpt><trkpt lat="41.602734" lon="14.2397633"><ele>467.0</ele><time>2026-04-26T15:51:26.342Z</time></trkpt><trkpt lat="41.6026877" lon="14.2398557"><ele>468.0</ele><time>2026-04-26T15:51:27.342Z</time></trkpt><trkpt lat="41.6026595" lon="14.2399851"><ele>469.0</ele><time>2026-04-26T15:51:28.342Z</time></trkpt><trkpt lat="41.6026447" lon="14.2401339"><ele>469.4</ele><time>2026-04-26T15:51:29.342Z</time></trkpt><trkpt lat="41.6026281" lon="14.2402827"><ele>469.79999999999995</ele><time>2026-04-26T15:51:30.342Z</time></trkpt><trkpt lat="41.6026134" lon="14.2404325"><ele>470.20000000000005</ele><time>2026-04-26T15:51:31.342Z</time></trkpt><trkpt lat="41.6025934" lon="14.240581"><ele>470.6</ele><time>2026-04-26T15:51:32.342Z</time></trkpt><trkpt lat="41.6025706" lon="14.2407206"><ele>471.0</ele><time>2026-04-26T15:51:33.343Z</time></trkpt><trkpt lat="41.6025464" lon="14.2408496"><ele>471.0</ele><time>2026-04-26T15:51:34.342Z</time></trkpt><trkpt lat="41.602522" lon="14.240962"><ele>471.0</ele><time>2026-04-26T15:51:35.342Z</time></trkpt><trkpt lat="41.602496" lon="14.2410603"><ele>471.0</ele><time>2026-04-26T15:51:36.343Z</time></trkpt><trkpt lat="41.6024612" lon="14.2411418"><ele>471.0</ele><time>2026-04-26T15:51:37.342Z</time></trkpt><trkpt lat="41.6024193" lon="14.2412151"><ele>471.0</ele><time>2026-04-26T15:51:38.342Z</time></trkpt><trkpt lat="41.6023736" lon="14.2412981"><ele>471.0</ele><time>2026-04-26T15:51:39.342Z</time></trkpt><trkpt lat="41.6023285" lon="14.2413745"><ele>471.0</ele><time>2026-04-26T15:51:40.343Z</time></trkpt><trkpt lat="41.6022906" lon="14.2414543"><ele>471.0</ele><time>2026-04-26T15:51:41.342Z</time></trkpt><trkpt lat="41.6022212" lon="14.2415878"><ele>471.0</ele><time>2026-04-26T15:51:43.342Z</time></trkpt><trkpt lat="41.6021757" lon="14.2416753"><ele>471.0</ele><time>2026-04-26T15:51:44.343Z</time></trkpt><trkpt lat="41.6020975" lon="14.2417934"><ele>471.0</ele><time>2026-04-26T15:51:46.343Z</time></trkpt><trkpt lat="41.6020581" lon="14.2418638"><ele>471.0</ele><time>2026-04-26T15:51:47.342Z</time></trkpt><trkpt lat="41.6020001" lon="14.241959"><ele>471.0</ele><time>2026-04-26T15:51:48.342Z</time></trkpt><trkpt lat="41.6019349" lon="14.24206"><ele>471.0</ele><time>2026-04-26T15:51:49.343Z</time></trkpt><trkpt lat="41.6018811" lon="14.2421487"><ele>471.0</ele><time>2026-04-26T15:51:50.342Z</time></trkpt><trkpt lat="41.6018361" lon="14.242229"><ele>471.0</ele><time>2026-04-26T15:51:51.342Z</time></trkpt><trkpt lat="41.6017729" lon="14.2423197"><ele>471.0</ele><time>2026-04-26T15:51:53.343Z</time></trkpt><trkpt lat="41.6017048" lon="14.2424227"><ele>471.0</ele><time>2026-04-26T15:51:55.342Z</time></trkpt><trkpt lat="41.6016695" lon="14.2425098"><ele>471.0</ele><time>2026-04-26T15:51:56.343Z</time></trkpt><trkpt lat="41.6016386" lon="14.2425946"><ele>471.0</ele><time>2026-04-26T15:51:57.343Z</time></trkpt><trkpt lat="41.6016082" lon="14.2426824"><ele>471.0</ele><time>2026-04-26T15:51:58.342Z</time></trkpt><trkpt lat="41.6015671" lon="14.2427712"><ele>471.0</ele><time>2026-04-26T15:51:59.342Z</time></trkpt><trkpt lat="41.6015274" lon="14.2428491"><ele>471.0</ele><time>2026-04-26T15:52:00.342Z</time></trkpt><trkpt lat="41.6014603" lon="14.2429736"><ele>471.0</ele><time>2026-04-26T15:52:02.342Z</time></trkpt><trkpt lat="41.6014043" lon="14.2430812"><ele>471.0</ele><time>2026-04-26T15:52:04.342Z</time></trkpt><trkpt lat="41.6013334" lon="14.2432097"><ele>471.0</ele><time>2026-04-26T15:52:06.342Z</time></trkpt><trkpt lat="41.6012708" lon="14.2433267"><ele>471.0</ele><time>2026-04-26T15:52:07.343Z</time></trkpt><trkpt lat="41.6012039" lon="14.2434484"><ele>471.0</ele><time>2026-04-26T15:52:08.342Z</time></trkpt><trkpt lat="41.6011267" lon="14.2435847"><ele>471.33333333333337</ele><time>2026-04-26T15:52:09.342Z</time></trkpt><trkpt lat="41.6010366" lon="14.2437395"><ele>471.6666666666667</ele><time>2026-04-26T15:52:10.342Z</time></trkpt><trkpt lat="41.6009406" lon="14.2439049"><ele>472.0</ele><time>2026-04-26T15:52:11.343Z</time></trkpt><trkpt lat="41.6008389" lon="14.2440721"><ele>471.0</ele><time>2026-04-26T15:52:12.342Z</time></trkpt><trkpt lat="41.6007274" lon="14.2442505"><ele>470.0</ele><time>2026-04-26T15:52:13.343Z</time></trkpt><trkpt lat="41.6006237" lon="14.2444167"><ele>469.0</ele><time>2026-04-26T15:52:14.342Z</time></trkpt><trkpt lat="41.6005269" lon="14.2445729"><ele>469.0</ele><time>2026-04-26T15:52:15.343Z</time></trkpt><trkpt lat="41.6004582" lon="14.2447016"><ele>469.0</ele><time>2026-04-26T15:52:16.343Z</time></trkpt><trkpt lat="41.6004304" lon="14.244804"><ele>469.0</ele><time>2026-04-26T15:52:17.342Z</time></trkpt><trkpt lat="41.6003779" lon="14.244938"><ele>469.0</ele><time>2026-04-26T15:52:18.342Z</time></trkpt><trkpt lat="41.6003247" lon="14.2450707"><ele>469.0</ele><time>2026-04-26T15:52:19.342Z</time></trkpt><trkpt lat="41.6002711" lon="14.245196"><ele>469.6</ele><time>2026-04-26T15:52:20.342Z</time></trkpt><trkpt lat="41.6002172" lon="14.2453154"><ele>470.2</ele><time>2026-04-26T15:52:21.342Z</time></trkpt><trkpt lat="41.6001599" lon="14.2454173"><ele>470.80000000000007</ele><time>2026-04-26T15:52:22.342Z</time></trkpt><trkpt lat="41.6001061" lon="14.245509"><ele>471.40000000000003</ele><time>2026-04-26T15:52:23.342Z</time></trkpt><trkpt lat="41.6000533" lon="14.2456103"><ele>472.0</ele><time>2026-04-26T15:52:24.342Z</time></trkpt><trkpt lat="41.599997" lon="14.2457214"><ele>472.0</ele><time>2026-04-26T15:52:25.342Z</time></trkpt><trkpt lat="41.5999425" lon="14.2458271"><ele>472.00000000000006</ele><time>2026-04-26T15:52:26.343Z</time></trkpt><trkpt lat="41.5998826" lon="14.2459457"><ele>472.00000000000006</ele><time>2026-04-26T15:52:27.342Z</time></trkpt><trkpt lat="41.5998249" lon="14.2460541"><ele>472.0</ele><time>2026-04-26T15:52:28.343Z</time></trkpt><trkpt lat="41.5997638" lon="14.246168"><ele>472.0</ele><time>2026-04-26T15:52:29.342Z</time></trkpt><trkpt lat="41.599699" lon="14.2462805"><ele>472.0</ele><time>2026-04-26T15:52:30.342Z</time></trkpt><trkpt lat="41.5996375" lon="14.246398"><ele>472.00000000000006</ele><time>2026-04-26T15:52:31.342Z</time></trkpt><trkpt lat="41.5995782" lon="14.2465026"><ele>472.00000000000006</ele><time>2026-04-26T15:52:32.342Z</time></trkpt><trkpt lat="41.5995271" lon="14.2466104"><ele>472.0</ele><time>2026-04-26T15:52:33.342Z</time></trkpt><trkpt lat="41.5994749" lon="14.2467074"><ele>472.0</ele><time>2026-04-26T15:52:34.342Z</time></trkpt><trkpt lat="41.5994257" lon="14.2467934"><ele>471.83333333333337</ele><time>2026-04-26T15:52:35.342Z</time></trkpt><trkpt lat="41.5993821" lon="14.2468703"><ele>471.6666666666667</ele><time>2026-04-26T15:52:36.343Z</time></trkpt><trkpt lat="41.5993372" lon="14.2469491"><ele>471.5</ele><time>2026-04-26T15:52:38.342Z</time></trkpt><trkpt lat="41.599288" lon="14.2470472"><ele>471.33333333333337</ele><time>2026-04-26T15:52:45.342Z</time></trkpt><trkpt lat="41.5992241" lon="14.2471548"><ele>471.1666666666667</ele><time>2026-04-26T15:52:47.342Z</time></trkpt><trkpt lat="41.599165" lon="14.2472425"><ele>471.0</ele><time>2026-04-26T15:52:49.342Z</time></trkpt><trkpt lat="41.5990797" lon="14.2472985"><ele>470.57142857142867</ele><time>2026-04-26T15:52:52.342Z</time></trkpt><trkpt lat="41.5990078" lon="14.2473128"><ele>470.14285714285717</ele><time>2026-04-26T15:52:53.342Z</time></trkpt><trkpt lat="41.5989451" lon="14.2473309"><ele>469.7142857142858</ele><time>2026-04-26T15:52:54.342Z</time></trkpt><trkpt lat="41.5988851" lon="14.2473671"><ele>469.28571428571433</ele><time>2026-04-26T15:52:55.343Z</time></trkpt><trkpt lat="41.5988421" lon="14.2474313"><ele>468.8571428571429</ele><time>2026-04-26T15:52:56.342Z</time></trkpt><trkpt lat="41.59882" lon="14.2475239"><ele>468.42857142857144</ele><time>2026-04-26T15:52:57.342Z</time></trkpt><trkpt lat="41.5988085" lon="14.2476302"><ele>468.0</ele><time>2026-04-26T15:52:58.342Z</time></trkpt><trkpt lat="41.5987977" lon="14.2477425"><ele>468.0</ele><time>2026-04-26T15:52:59.342Z</time></trkpt><trkpt lat="41.5987816" lon="14.2478645"><ele>467.99999999999994</ele><time>2026-04-26T15:53:00.342Z</time></trkpt><trkpt lat="41.5987461" lon="14.2479884"><ele>467.99999999999994</ele><time>2026-04-26T15:53:01.343Z</time></trkpt><trkpt lat="41.5986993" lon="14.2481072"><ele>468.0</ele><time>2026-04-26T15:53:02.342Z</time></trkpt><trkpt lat="41.5986542" lon="14.2482141"><ele>468.0</ele><time>2026-04-26T15:53:03.342Z</time></trkpt><trkpt lat="41.5986123" lon="14.248307"><ele>468.8333333333333</ele><time>2026-04-26T15:53:04.342Z</time></trkpt><trkpt lat="41.5985757" lon="14.2483902"><ele>469.66666666666663</ele><time>2026-04-26T15:53:05.342Z</time></trkpt><trkpt lat="41.5985382" lon="14.2484657"><ele>470.5</ele><time>2026-04-26T15:53:06.342Z</time></trkpt><trkpt lat="41.5984785" lon="14.2485827"><ele>471.3333333333333</ele><time>2026-04-26T15:53:08.342Z</time></trkpt><trkpt lat="41.5984365" lon="14.2486518"><ele>472.16666666666663</ele><time>2026-04-26T15:53:10.343Z</time></trkpt><trkpt lat="41.5983901" lon="14.2487238"><ele>473.0</ele><time>2026-04-26T15:53:13.342Z</time></trkpt><trkpt lat="41.5983459" lon="14.248805"><ele>472.99999999999994</ele><time>2026-04-26T15:53:16.343Z</time></trkpt><trkpt lat="41.5982981" lon="14.2489053"><ele>473.0</ele><time>2026-04-26T15:53:20.342Z</time></trkpt><trkpt lat="41.5982606" lon="14.24898"><ele>473.0</ele><time>2026-04-26T15:53:22.342Z</time></trkpt><trkpt lat="41.598207" lon="14.2490564"><ele>473.0</ele><time>2026-04-26T15:53:25.342Z</time></trkpt><trkpt lat="41.598162" lon="14.2491354"><ele>472.99999999999994</ele><time>2026-04-26T15:53:27.342Z</time></trkpt><trkpt lat="41.5980944" lon="14.2492672"><ele>473.0</ele><time>2026-04-26T15:53:29.343Z</time></trkpt><trkpt lat="41.5980494" lon="14.2493533"><ele>473.0</ele><time>2026-04-26T15:53:30.342Z</time></trkpt><trkpt lat="41.5979979" lon="14.249462"><ele>472.99999999999994</ele><time>2026-04-26T15:53:31.342Z</time></trkpt><trkpt lat="41.5979404" lon="14.2495712"><ele>472.99999999999994</ele><time>2026-04-26T15:53:32.342Z</time></trkpt><trkpt lat="41.5978872" lon="14.2496827"><ele>473.0</ele><time>2026-04-26T15:53:33.342Z</time></trkpt><trkpt lat="41.5978313" lon="14.2498049"><ele>473.0</ele><time>2026-04-26T15:53:34.343Z</time></trkpt><trkpt lat="41.5977554" lon="14.2499404"><ele>472.99999999999994</ele><time>2026-04-26T15:53:35.342Z</time></trkpt><trkpt lat="41.5976861" lon="14.2500547"><ele>473.0</ele><time>2026-04-26T15:53:36.342Z</time></trkpt><trkpt lat="41.5976276" lon="14.2501427"><ele>473.0</ele><time>2026-04-26T15:53:37.342Z</time></trkpt><trkpt lat="41.5975747" lon="14.2502165"><ele>473.0</ele><time>2026-04-26T15:53:39.342Z</time></trkpt><trkpt lat="41.5975246" lon="14.2502915"><ele>472.99999999999994</ele><time>2026-04-26T15:53:44.343Z</time></trkpt><trkpt lat="41.5974623" lon="14.2503695"><ele>473.0</ele><time>2026-04-26T15:53:46.342Z</time></trkpt><trkpt lat="41.5974068" lon="14.2504481"><ele>473.0</ele><time>2026-04-26T15:53:48.342Z</time></trkpt><trkpt lat="41.5973508" lon="14.2505058"><ele>472.99999999999994</ele><time>2026-04-26T15:53:50.342Z</time></trkpt><trkpt lat="41.5972693" lon="14.2505577"><ele>472.99999999999994</ele><time>2026-04-26T15:53:52.342Z</time></trkpt><trkpt lat="41.5971866" lon="14.2506109"><ele>473.0</ele><time>2026-04-26T15:53:54.343Z</time></trkpt><trkpt lat="41.5971375" lon="14.2507718"><ele>473.0</ele><time>2026-04-26T15:53:56.342Z</time></trkpt><trkpt lat="41.5971036" lon="14.2508661"><ele>473.16666666666663</ele><time>2026-04-26T15:53:57.343Z</time></trkpt><trkpt lat="41.5970698" lon="14.2509399"><ele>473.3333333333333</ele><time>2026-04-26T15:53:58.342Z</time></trkpt><trkpt lat="41.5970275" lon="14.2510025"><ele>473.5</ele><time>2026-04-26T15:53:59.343Z</time></trkpt><trkpt lat="41.5969807" lon="14.2511501"><ele>473.66666666666663</ele><time>2026-04-26T15:54:01.342Z</time></trkpt><trkpt lat="41.5969788" lon="14.2512492"><ele>473.8333333333333</ele><time>2026-04-26T15:54:02.342Z</time></trkpt><trkpt lat="41.5969695" lon="14.2513614"><ele>474.0</ele><time>2026-04-26T15:54:03.342Z</time></trkpt><trkpt lat="41.5969452" lon="14.251485"><ele>475.5</ele><time>2026-04-26T15:54:04.343Z</time></trkpt><trkpt lat="41.5968971" lon="14.2516322"><ele>477.0</ele><time>2026-04-26T15:54:05.342Z</time></trkpt><trkpt lat="41.5968352" lon="14.2518088"><ele>478.5</ele><time>2026-04-26T15:54:06.342Z</time></trkpt><trkpt lat="41.5967663" lon="14.2520099"><ele>480.0</ele><time>2026-04-26T15:54:07.342Z</time></trkpt><trkpt lat="41.5967132" lon="14.2522195"><ele>479.33333333333337</ele><time>2026-04-26T15:54:08.342Z</time></trkpt><trkpt lat="41.5966875" lon="14.2524356"><ele>478.6666666666667</ele><time>2026-04-26T15:54:09.342Z</time></trkpt><trkpt lat="41.5966723" lon="14.2526851"><ele>478.0</ele><time>2026-04-26T15:54:10.342Z</time></trkpt><trkpt lat="41.596675" lon="14.252955"><ele>478.0</ele><time>2026-04-26T15:54:11.343Z</time></trkpt><trkpt lat="41.5967033" lon="14.2532262"><ele>478.0</ele><time>2026-04-26T15:54:12.342Z</time></trkpt><trkpt lat="41.596756" lon="14.2534865"><ele>478.0</ele><time>2026-04-26T15:54:13.342Z</time></trkpt><trkpt lat="41.5968245" lon="14.2537374"><ele>478.0</ele><time>2026-04-26T15:54:14.342Z</time></trkpt><trkpt lat="41.5968905" lon="14.2539523"><ele>478.0</ele><time>2026-04-26T15:54:15.343Z</time></trkpt><trkpt lat="41.5969641" lon="14.2541484"><ele>478.0</ele><time>2026-04-26T15:54:16.342Z</time></trkpt><trkpt lat="41.597069" lon="14.2542872"><ele>479.6666666666667</ele><time>2026-04-26T15:54:17.342Z</time></trkpt><trkpt lat="41.5971904" lon="14.2544066"><ele>481.33333333333337</ele><time>2026-04-26T15:54:18.342Z</time></trkpt><trkpt lat="41.5973412" lon="14.2545208"><ele>483.0</ele><time>2026-04-26T15:54:19.342Z</time></trkpt><trkpt lat="41.5975043" lon="14.2546351"><ele>483.0</ele><time>2026-04-26T15:54:20.342Z</time></trkpt><trkpt lat="41.5976848" lon="14.2547717"><ele>483.0</ele><time>2026-04-26T15:54:21.343Z</time></trkpt><trkpt lat="41.5978706" lon="14.2549232"><ele>483.0</ele><time>2026-04-26T15:54:22.343Z</time></trkpt><trkpt lat="41.5980502" lon="14.2550839"><ele>485.5</ele><time>2026-04-26T15:54:23.342Z</time></trkpt><trkpt lat="41.5982333" lon="14.2552594"><ele>488.0</ele><time>2026-04-26T15:54:24.343Z</time></trkpt><trkpt lat="41.5984313" lon="14.255446"><ele>487.0</ele><time>2026-04-26T15:54:25.342Z</time></trkpt><trkpt lat="41.5986459" lon="14.2556435"><ele>486.0</ele><time>2026-04-26T15:54:26.343Z</time></trkpt><trkpt lat="41.5988594" lon="14.2558426"><ele>486.0</ele><time>2026-04-26T15:54:27.342Z</time></trkpt><trkpt lat="41.5990829" lon="14.2560548"><ele>486.0</ele><time>2026-04-26T15:54:28.342Z</time></trkpt><trkpt lat="41.5993103" lon="14.2562704"><ele>490.0</ele><time>2026-04-26T15:54:29.343Z</time></trkpt><trkpt lat="41.5995361" lon="14.2564942"><ele>494.0</ele><time>2026-04-26T15:54:30.342Z</time></trkpt><trkpt lat="41.5997657" lon="14.2567134"><ele>494.0</ele><time>2026-04-26T15:54:31.342Z</time></trkpt><trkpt lat="41.5999872" lon="14.2569325"><ele>494.0</ele><time>2026-04-26T15:54:32.342Z</time></trkpt><trkpt lat="41.6001933" lon="14.2571438"><ele>496.0</ele><time>2026-04-26T15:54:33.343Z</time></trkpt><trkpt lat="41.6003923" lon="14.2573488"><ele>498.0</ele><time>2026-04-26T15:54:34.343Z</time></trkpt><trkpt lat="41.6005735" lon="14.2575398"><ele>498.0</ele><time>2026-04-26T15:54:35.342Z</time></trkpt><trkpt lat="41.6007483" lon="14.2577495"><ele>498.0</ele><time>2026-04-26T15:54:36.342Z</time></trkpt><trkpt lat="41.6009113" lon="14.2579664"><ele>497.5</ele><time>2026-04-26T15:54:37.342Z</time></trkpt><trkpt lat="41.6010619" lon="14.2582003"><ele>497.0</ele><time>2026-04-26T15:54:38.342Z</time></trkpt><trkpt lat="41.601198" lon="14.2584518"><ele>497.0</ele><time>2026-04-26T15:54:39.342Z</time></trkpt><trkpt lat="41.6013268" lon="14.2587252"><ele>497.0</ele><time>2026-04-26T15:54:40.342Z</time></trkpt><trkpt lat="41.6014448" lon="14.2590184"><ele>498.5</ele><time>2026-04-26T15:54:41.343Z</time></trkpt><trkpt lat="41.6015426" lon="14.259319"><ele>500.0</ele><time>2026-04-26T15:54:42.343Z</time></trkpt><trkpt lat="41.601632" lon="14.2596173"><ele>500.5</ele><time>2026-04-26T15:54:43.342Z</time></trkpt><trkpt lat="41.6017147" lon="14.259913"><ele>501.0</ele><time>2026-04-26T15:54:44.342Z</time></trkpt><trkpt lat="41.6017856" lon="14.2602004"><ele>501.0</ele><time>2026-04-26T15:54:45.343Z</time></trkpt><trkpt lat="41.6018457" lon="14.2604775"><ele>501.0</ele><time>2026-04-26T15:54:46.343Z</time></trkpt><trkpt lat="41.6018921" lon="14.2607548"><ele>501.0</ele><time>2026-04-26T15:54:47.343Z</time></trkpt><trkpt lat="41.6019345" lon="14.2610366"><ele>501.66666666666663</ele><time>2026-04-26T15:54:48.343Z</time></trkpt><trkpt lat="41.6019659" lon="14.261311"><ele>502.3333333333333</ele><time>2026-04-26T15:54:49.343Z</time></trkpt><trkpt lat="41.6019829" lon="14.2615814"><ele>503.0</ele><time>2026-04-26T15:54:50.342Z</time></trkpt><trkpt lat="41.6019956" lon="14.2618544"><ele>505.3333333333333</ele><time>2026-04-26T15:54:51.342Z</time></trkpt><trkpt lat="41.6020011" lon="14.2621205"><ele>507.66666666666663</ele><time>2026-04-26T15:54:52.342Z</time></trkpt><trkpt lat="41.6019946" lon="14.2623899"><ele>510.0</ele><time>2026-04-26T15:54:53.342Z</time></trkpt><trkpt lat="41.6019787" lon="14.2626562"><ele>510.0</ele><time>2026-04-26T15:54:54.342Z</time></trkpt><trkpt lat="41.6019484" lon="14.2629168"><ele>510.0</ele><time>2026-04-26T15:54:55.343Z</time></trkpt><trkpt lat="41.6019034" lon="14.2631759"><ele>510.0</ele><time>2026-04-26T15:54:56.342Z</time></trkpt><trkpt lat="41.601852" lon="14.2634339"><ele>511.33333333333337</ele><time>2026-04-26T15:54:57.342Z</time></trkpt><trkpt lat="41.6017894" lon="14.263694"><ele>512.6666666666667</ele><time>2026-04-26T15:54:58.342Z</time></trkpt><trkpt lat="41.601717" lon="14.2639512"><ele>514.0</ele><time>2026-04-26T15:54:59.342Z</time></trkpt><trkpt lat="41.6016339" lon="14.2642027"><ele>516.0</ele><time>2026-04-26T15:55:00.343Z</time></trkpt><trkpt lat="41.6015441" lon="14.2644527"><ele>518.0</ele><time>2026-04-26T15:55:01.342Z</time></trkpt><trkpt lat="41.6014549" lon="14.2646967"><ele>520.0</ele><time>2026-04-26T15:55:02.343Z</time></trkpt><trkpt lat="41.6013584" lon="14.2649374"><ele>522.3333333333334</ele><time>2026-04-26T15:55:03.342Z</time></trkpt><trkpt lat="41.6012615" lon="14.2651721"><ele>524.6666666666666</ele><time>2026-04-26T15:55:04.342Z</time></trkpt><trkpt lat="41.6011595" lon="14.2654005"><ele>527.0</ele><time>2026-04-26T15:55:05.342Z</time></trkpt><trkpt lat="41.601056" lon="14.2656218"><ele>528.3333333333333</ele><time>2026-04-26T15:55:06.343Z</time></trkpt><trkpt lat="41.600955" lon="14.2658466"><ele>529.6666666666666</ele><time>2026-04-26T15:55:07.342Z</time></trkpt><trkpt lat="41.6008466" lon="14.2660672"><ele>531.0</ele><time>2026-04-26T15:55:08.343Z</time></trkpt><trkpt lat="41.6007338" lon="14.266289"><ele>532.3333333333334</ele><time>2026-04-26T15:55:09.342Z</time></trkpt><trkpt lat="41.6006149" lon="14.26652"><ele>533.6666666666667</ele><time>2026-04-26T15:55:10.342Z</time></trkpt><trkpt lat="41.6004934" lon="14.2667523"><ele>535.0</ele><time>2026-04-26T15:55:11.342Z</time></trkpt><trkpt lat="41.6003774" lon="14.2669881"><ele>534.3333333333334</ele><time>2026-04-26T15:55:12.342Z</time></trkpt><trkpt lat="41.6002611" lon="14.2672188"><ele>533.6666666666666</ele><time>2026-04-26T15:55:13.342Z</time></trkpt><trkpt lat="41.6001447" lon="14.267453"><ele>533.0</ele><time>2026-04-26T15:55:14.343Z</time></trkpt><trkpt lat="41.6000142" lon="14.2677104"><ele>531.5</ele><time>2026-04-26T15:55:15.342Z</time></trkpt><trkpt lat="41.599873" lon="14.2679866"><ele>530.0</ele><time>2026-04-26T15:55:16.342Z</time></trkpt><trkpt lat="41.5997274" lon="14.2682792"><ele>530.0</ele><time>2026-04-26T15:55:17.342Z</time></trkpt><trkpt lat="41.5995683" lon="14.2685767"><ele>530.0</ele><time>2026-04-26T15:55:18.342Z</time></trkpt><trkpt lat="41.5994135" lon="14.2688778"><ele>525.5</ele><time>2026-04-26T15:55:19.343Z</time></trkpt><trkpt lat="41.5992637" lon="14.2691762"><ele>521.0</ele><time>2026-04-26T15:55:20.342Z</time></trkpt><trkpt lat="41.5991117" lon="14.2694668"><ele>521.0</ele><time>2026-04-26T15:55:21.343Z</time></trkpt><trkpt lat="41.5989626" lon="14.2697577"><ele>521.0</ele><time>2026-04-26T15:55:22.342Z</time></trkpt><trkpt lat="41.5988124" lon="14.2700503"><ele>518.0</ele><time>2026-04-26T15:55:23.343Z</time></trkpt><trkpt lat="41.5986628" lon="14.2703465"><ele>515.0</ele><time>2026-04-26T15:55:24.342Z</time></trkpt><trkpt lat="41.5985124" lon="14.2706528"><ele>515.0</ele><time>2026-04-26T15:55:25.343Z</time></trkpt><trkpt lat="41.5983741" lon="14.2709697"><ele>515.0</ele><time>2026-04-26T15:55:26.342Z</time></trkpt><trkpt lat="41.5982457" lon="14.2712888"><ele>517.5</ele><time>2026-04-26T15:55:27.342Z</time></trkpt><trkpt lat="41.5981269" lon="14.2716145"><ele>520.0</ele><time>2026-04-26T15:55:28.342Z</time></trkpt><trkpt lat="41.5980183" lon="14.2719317"><ele>520.0</ele><time>2026-04-26T15:55:29.343Z</time></trkpt><trkpt lat="41.5979048" lon="14.2722474"><ele>520.0</ele><time>2026-04-26T15:55:30.342Z</time></trkpt><trkpt lat="41.5977951" lon="14.2725589"><ele>518.0</ele><time>2026-04-26T15:55:31.342Z</time></trkpt><trkpt lat="41.5976851" lon="14.2728601"><ele>516.0</ele><time>2026-04-26T15:55:32.342Z</time></trkpt><trkpt lat="41.597577" lon="14.2731407"><ele>516.0</ele><time>2026-04-26T15:55:33.342Z</time></trkpt><trkpt lat="41.5974812" lon="14.2734039"><ele>516.0</ele><time>2026-04-26T15:55:34.342Z</time></trkpt><trkpt lat="41.5974014" lon="14.2736416"><ele>516.0</ele><time>2026-04-26T15:55:35.343Z</time></trkpt><trkpt lat="41.5973374" lon="14.2738522"><ele>517.0</ele><time>2026-04-26T15:55:36.342Z</time></trkpt><trkpt lat="41.5972786" lon="14.2740474"><ele>518.0</ele><time>2026-04-26T15:55:37.343Z</time></trkpt><trkpt lat="41.5972125" lon="14.2742303"><ele>519.0</ele><time>2026-04-26T15:55:38.343Z</time></trkpt><trkpt lat="41.5971238" lon="14.2744195"><ele>519.0</ele><time>2026-04-26T15:55:39.342Z</time></trkpt><trkpt lat="41.5970251" lon="14.2746237"><ele>519.0</ele><time>2026-04-26T15:55:40.343Z</time></trkpt><trkpt lat="41.5969145" lon="14.2748498"><ele>519.0</ele><time>2026-04-26T15:55:41.342Z</time></trkpt><trkpt lat="41.596782" lon="14.2750852"><ele>515.5</ele><time>2026-04-26T15:55:42.342Z</time></trkpt><trkpt lat="41.5966243" lon="14.275328"><ele>512.0</ele><time>2026-04-26T15:55:43.343Z</time></trkpt><trkpt lat="41.5964437" lon="14.2755597"><ele>513.0</ele><time>2026-04-26T15:55:44.342Z</time></trkpt><trkpt lat="41.5962395" lon="14.2757666"><ele>514.0</ele><time>2026-04-26T15:55:45.343Z</time></trkpt><trkpt lat="41.5960114" lon="14.2759467"><ele>514.0</ele><time>2026-04-26T15:55:46.342Z</time></trkpt><trkpt lat="41.5957686" lon="14.2760999"><ele>514.0</ele><time>2026-04-26T15:55:47.342Z</time></trkpt><trkpt lat="41.5955263" lon="14.2762146"><ele>514.5</ele><time>2026-04-26T15:55:48.342Z</time></trkpt><trkpt lat="41.5952586" lon="14.2762969"><ele>515.0</ele><time>2026-04-26T15:55:49.342Z</time></trkpt><trkpt lat="41.594988" lon="14.2763514"><ele>515.0</ele><time>2026-04-26T15:55:50.342Z</time></trkpt><trkpt lat="41.5947174" lon="14.2763726"><ele>515.0</ele><time>2026-04-26T15:55:51.342Z</time></trkpt><trkpt lat="41.5944375" lon="14.276358"><ele>517.0</ele><time>2026-04-26T15:55:52.342Z</time></trkpt><trkpt lat="41.5941416" lon="14.2763187"><ele>519.0</ele><time>2026-04-26T15:55:53.342Z</time></trkpt><trkpt lat="41.5938347" lon="14.2762618"><ele>518.5</ele><time>2026-04-26T15:55:54.343Z</time></trkpt><trkpt lat="41.5934929" lon="14.2761957"><ele>518.0</ele><time>2026-04-26T15:55:55.343Z</time></trkpt><trkpt lat="41.5931468" lon="14.2761133"><ele>516.5</ele><time>2026-04-26T15:55:56.343Z</time></trkpt><trkpt lat="41.5927846" lon="14.2760332"><ele>515.0</ele><time>2026-04-26T15:55:57.342Z</time></trkpt><trkpt lat="41.5924132" lon="14.2759462"><ele>515.0</ele><time>2026-04-26T15:55:58.343Z</time></trkpt><trkpt lat="41.5920486" lon="14.2758646"><ele>515.0</ele><time>2026-04-26T15:55:59.342Z</time></trkpt><trkpt lat="41.591688" lon="14.2757834"><ele>514.5</ele><time>2026-04-26T15:56:00.342Z</time></trkpt><trkpt lat="41.5913288" lon="14.2757043"><ele>514.0</ele><time>2026-04-26T15:56:01.342Z</time></trkpt><trkpt lat="41.5909695" lon="14.2756266"><ele>514.0</ele><time>2026-04-26T15:56:02.342Z</time></trkpt><trkpt lat="41.5906171" lon="14.2755483"><ele>514.0</ele><time>2026-04-26T15:56:03.342Z</time></trkpt><trkpt lat="41.5902878" lon="14.2754753"><ele>514.0</ele><time>2026-04-26T15:56:04.342Z</time></trkpt><trkpt lat="41.5899752" lon="14.2754032"><ele>514.0</ele><time>2026-04-26T15:56:05.342Z</time></trkpt><trkpt lat="41.5896758" lon="14.2753426"><ele>513.5</ele><time>2026-04-26T15:56:06.342Z</time></trkpt><trkpt lat="41.5893938" lon="14.275276"><ele>513.0</ele><time>2026-04-26T15:56:07.341Z</time></trkpt><trkpt lat="41.5891288" lon="14.2752106"><ele>513.0</ele><time>2026-04-26T15:56:08.341Z</time></trkpt><trkpt lat="41.5888608" lon="14.2751524"><ele>513.0</ele><time>2026-04-26T15:56:09.341Z</time></trkpt><trkpt lat="41.5885924" lon="14.2750949"><ele>514.5</ele><time>2026-04-26T15:56:10.341Z</time></trkpt><trkpt lat="41.5883321" lon="14.2750412"><ele>516.0</ele><time>2026-04-26T15:56:11.342Z</time></trkpt><trkpt lat="41.5880767" lon="14.2749982"><ele>518.5</ele><time>2026-04-26T15:56:12.341Z</time></trkpt><trkpt lat="41.5878132" lon="14.274986"><ele>521.0</ele><time>2026-04-26T15:56:13.342Z</time></trkpt><trkpt lat="41.5875486" lon="14.2750008"><ele>521.0</ele><time>2026-04-26T15:56:14.342Z</time></trkpt><trkpt lat="41.587285" lon="14.2750448"><ele>521.0</ele><time>2026-04-26T15:56:15.341Z</time></trkpt><trkpt lat="41.5870573" lon="14.2751054"><ele>524.0</ele><time>2026-04-26T15:56:16.341Z</time></trkpt><trkpt lat="41.5868473" lon="14.2751952"><ele>527.0</ele><time>2026-04-26T15:56:17.341Z</time></trkpt><trkpt lat="41.5866462" lon="14.2753091"><ele>530.0</ele><time>2026-04-26T15:56:18.341Z</time></trkpt><trkpt lat="41.5864641" lon="14.2754297"><ele>530.0</ele><time>2026-04-26T15:56:19.341Z</time></trkpt><trkpt lat="41.5862825" lon="14.2755547"><ele>530.0</ele><time>2026-04-26T15:56:20.341Z</time></trkpt><trkpt lat="41.5860935" lon="14.2756943"><ele>530.0</ele><time>2026-04-26T15:56:21.342Z</time></trkpt><trkpt lat="41.585893" lon="14.2758422"><ele>534.0</ele><time>2026-04-26T15:56:22.341Z</time></trkpt><trkpt lat="41.5856705" lon="14.2760189"><ele>538.0</ele><time>2026-04-26T15:56:23.342Z</time></trkpt><trkpt lat="41.5854189" lon="14.2762"><ele>538.5</ele><time>2026-04-26T15:56:24.341Z</time></trkpt><trkpt lat="41.5851573" lon="14.2763864"><ele>539.0</ele><time>2026-04-26T15:56:25.342Z</time></trkpt><trkpt lat="41.5848908" lon="14.2765799"><ele>539.0</ele><time>2026-04-26T15:56:26.341Z</time></trkpt><trkpt lat="41.5846086" lon="14.2767811"><ele>539.0</ele><time>2026-04-26T15:56:27.341Z</time></trkpt><trkpt lat="41.5843144" lon="14.2769864"><ele>541.5</ele><time>2026-04-26T15:56:28.341Z</time></trkpt><trkpt lat="41.5840158" lon="14.2771955"><ele>544.0</ele><time>2026-04-26T15:56:29.341Z</time></trkpt><trkpt lat="41.5837239" lon="14.2774112"><ele>552.5</ele><time>2026-04-26T15:56:30.342Z</time></trkpt><trkpt lat="41.5834253" lon="14.277624"><ele>561.0</ele><time>2026-04-26T15:56:31.342Z</time></trkpt><trkpt lat="41.5831258" lon="14.2778361"><ele>561.0</ele><time>2026-04-26T15:56:32.341Z</time></trkpt><trkpt lat="41.5828313" lon="14.2780534"><ele>561.0</ele><time>2026-04-26T15:56:33.341Z</time></trkpt><trkpt lat="41.5825422" lon="14.2782768"><ele>561.0</ele><time>2026-04-26T15:56:34.341Z</time></trkpt><trkpt lat="41.582252" lon="14.2785149"><ele>561.0</ele><time>2026-04-26T15:56:35.341Z</time></trkpt><trkpt lat="41.5819517" lon="14.2787544"><ele>561.0</ele><time>2026-04-26T15:56:36.341Z</time></trkpt><trkpt lat="41.5816575" lon="14.2789884"><ele>561.0</ele><time>2026-04-26T15:56:37.341Z</time></trkpt><trkpt lat="41.5813757" lon="14.2792149"><ele>569.0</ele><time>2026-04-26T15:56:38.342Z</time></trkpt><trkpt lat="41.5811053" lon="14.279426"><ele>577.0</ele><time>2026-04-26T15:56:39.341Z</time></trkpt><trkpt lat="41.5808341" lon="14.2796389"><ele>575.0</ele><time>2026-04-26T15:56:40.342Z</time></trkpt><trkpt lat="41.5805708" lon="14.2798585"><ele>573.0</ele><time>2026-04-26T15:56:41.341Z</time></trkpt><trkpt lat="41.5803107" lon="14.280065"><ele>573.0</ele><time>2026-04-26T15:56:42.341Z</time></trkpt><trkpt lat="41.5800476" lon="14.2802694"><ele>573.0</ele><time>2026-04-26T15:56:43.341Z</time></trkpt><trkpt lat="41.5797855" lon="14.2804808"><ele>574.0</ele><time>2026-04-26T15:56:44.342Z</time></trkpt><trkpt lat="41.5795174" lon="14.2806921"><ele>575.0</ele><time>2026-04-26T15:56:45.341Z</time></trkpt><trkpt lat="41.579244" lon="14.2809085"><ele>575.0</ele><time>2026-04-26T15:56:46.342Z</time></trkpt><trkpt lat="41.5789747" lon="14.2811155"><ele>575.0</ele><time>2026-04-26T15:56:47.341Z</time></trkpt><trkpt lat="41.578703" lon="14.2813144"><ele>572.5</ele><time>2026-04-26T15:56:48.342Z</time></trkpt><trkpt lat="41.578434" lon="14.2815052"><ele>570.0</ele><time>2026-04-26T15:56:49.341Z</time></trkpt><trkpt lat="41.578161" lon="14.2816763"><ele>570.0</ele><time>2026-04-26T15:56:50.341Z</time></trkpt><trkpt lat="41.5778869" lon="14.2818421"><ele>570.0</ele><time>2026-04-26T15:56:51.341Z</time></trkpt><trkpt lat="41.5776111" lon="14.2820013"><ele>574.5</ele><time>2026-04-26T15:56:52.341Z</time></trkpt><trkpt lat="41.5773254" lon="14.2821655"><ele>579.0</ele><time>2026-04-26T15:56:53.341Z</time></trkpt><trkpt lat="41.5770379" lon="14.2823366"><ele>576.0</ele><time>2026-04-26T15:56:54.341Z</time></trkpt><trkpt lat="41.5767421" lon="14.2825085"><ele>573.0</ele><time>2026-04-26T15:56:55.341Z</time></trkpt><trkpt lat="41.5764486" lon="14.2826832"><ele>588.0</ele><time>2026-04-26T15:56:56.341Z</time></trkpt><trkpt lat="41.5761468" lon="14.2828617"><ele>603.0</ele><time>2026-04-26T15:56:57.342Z</time></trkpt><trkpt lat="41.5758472" lon="14.2830394"><ele>601.0</ele><time>2026-04-26T15:56:58.341Z</time></trkpt><trkpt lat="41.5755496" lon="14.283211"><ele>599.0</ele><time>2026-04-26T15:56:59.342Z</time></trkpt><trkpt lat="41.5752581" lon="14.2833907"><ele>599.0</ele><time>2026-04-26T15:57:00.342Z</time></trkpt><trkpt lat="41.5749739" lon="14.283583"><ele>599.0</ele><time>2026-04-26T15:57:01.341Z</time></trkpt><trkpt lat="41.574697" lon="14.2837976"><ele>599.5</ele><time>2026-04-26T15:57:02.341Z</time></trkpt><trkpt lat="41.5744277" lon="14.2840257"><ele>600.0</ele><time>2026-04-26T15:57:03.341Z</time></trkpt><trkpt lat="41.5741614" lon="14.2842669"><ele>600.0</ele><time>2026-04-26T15:57:04.342Z</time></trkpt><trkpt lat="41.5739113" lon="14.2845054"><ele>600.0</ele><time>2026-04-26T15:57:05.342Z</time></trkpt><trkpt lat="41.5736754" lon="14.2847261"><ele>601.0</ele><time>2026-04-26T15:57:06.341Z</time></trkpt><trkpt lat="41.5734385" lon="14.2849199"><ele>602.0</ele><time>2026-04-26T15:57:07.341Z</time></trkpt><trkpt lat="41.5732001" lon="14.285098"><ele>602.0</ele><time>2026-04-26T15:57:08.341Z</time></trkpt><trkpt lat="41.5729494" lon="14.2852495"><ele>602.0</ele><time>2026-04-26T15:57:09.341Z</time></trkpt><trkpt lat="41.5726877" lon="14.2853722"><ele>612.0</ele><time>2026-04-26T15:57:10.341Z</time></trkpt><trkpt lat="41.5724133" lon="14.2854823"><ele>622.0</ele><time>2026-04-26T15:57:11.341Z</time></trkpt><trkpt lat="41.5721354" lon="14.2855818"><ele>618.5</ele><time>2026-04-26T15:57:12.341Z</time></trkpt><trkpt lat="41.5718562" lon="14.285682"><ele>615.0</ele><time>2026-04-26T15:57:13.341Z</time></trkpt><trkpt lat="41.5715799" lon="14.2857743"><ele>615.0</ele><time>2026-04-26T15:57:14.342Z</time></trkpt><trkpt lat="41.5712977" lon="14.2858282"><ele>615.0</ele><time>2026-04-26T15:57:15.342Z</time></trkpt><trkpt lat="41.5710117" lon="14.2858477"><ele>619.5</ele><time>2026-04-26T15:57:16.341Z</time></trkpt><trkpt lat="41.5707274" lon="14.2858402"><ele>624.0</ele><time>2026-04-26T15:57:17.342Z</time></trkpt><trkpt lat="41.5704456" lon="14.2858105"><ele>624.5</ele><time>2026-04-26T15:57:18.341Z</time></trkpt><trkpt lat="41.5701787" lon="14.2857778"><ele>625.0</ele><time>2026-04-26T15:57:19.341Z</time></trkpt><trkpt lat="41.5699073" lon="14.2857713"><ele>625.0</ele><time>2026-04-26T15:57:20.341Z</time></trkpt><trkpt lat="41.5696301" lon="14.2857881"><ele>625.0</ele><time>2026-04-26T15:57:21.342Z</time></trkpt><trkpt lat="41.5693376" lon="14.2858404"><ele>627.5</ele><time>2026-04-26T15:57:22.342Z</time></trkpt><trkpt lat="41.5690429" lon="14.2859143"><ele>630.0</ele><time>2026-04-26T15:57:23.341Z</time></trkpt><trkpt lat="41.5687444" lon="14.2860149"><ele>630.5</ele><time>2026-04-26T15:57:24.342Z</time></trkpt><trkpt lat="41.5684599" lon="14.2861197"><ele>631.0</ele><time>2026-04-26T15:57:25.341Z</time></trkpt><trkpt lat="41.5681791" lon="14.2862226"><ele>631.0</ele><time>2026-04-26T15:57:26.341Z</time></trkpt><trkpt lat="41.567895" lon="14.2863252"><ele>631.0</ele><time>2026-04-26T15:57:27.341Z</time></trkpt><trkpt lat="41.5676169" lon="14.2864283"><ele>632.5</ele><time>2026-04-26T15:57:28.342Z</time></trkpt><trkpt lat="41.5673543" lon="14.2865494"><ele>634.0</ele><time>2026-04-26T15:57:29.342Z</time></trkpt><trkpt lat="41.5670981" lon="14.2867116"><ele>637.0</ele><time>2026-04-26T15:57:30.341Z</time></trkpt><trkpt lat="41.5668411" lon="14.2869107"><ele>640.0</ele><time>2026-04-26T15:57:31.342Z</time></trkpt><trkpt lat="41.5665897" lon="14.2871364"><ele>640.0</ele><time>2026-04-26T15:57:32.342Z</time></trkpt><trkpt lat="41.5663452" lon="14.2873874"><ele>640.0</ele><time>2026-04-26T15:57:33.342Z</time></trkpt><trkpt lat="41.5661105" lon="14.287674"><ele>642.5</ele><time>2026-04-26T15:57:34.342Z</time></trkpt><trkpt lat="41.5658758" lon="14.2879836"><ele>645.0</ele><time>2026-04-26T15:57:35.342Z</time></trkpt><trkpt lat="41.5656361" lon="14.2882994"><ele>645.0</ele><time>2026-04-26T15:57:36.341Z</time></trkpt><trkpt lat="41.5654019" lon="14.2886173"><ele>645.0</ele><time>2026-04-26T15:57:37.342Z</time></trkpt><trkpt lat="41.5651692" lon="14.2889299"><ele>644.5</ele><time>2026-04-26T15:57:38.341Z</time></trkpt><trkpt lat="41.5649462" lon="14.2892277"><ele>644.0</ele><time>2026-04-26T15:57:39.342Z</time></trkpt><trkpt lat="41.56474" lon="14.2895048"><ele>643.5</ele><time>2026-04-26T15:57:40.341Z</time></trkpt><trkpt lat="41.564557" lon="14.2897608"><ele>643.0</ele><time>2026-04-26T15:57:41.342Z</time></trkpt><trkpt lat="41.5644071" lon="14.290028"><ele>643.0</ele><time>2026-04-26T15:57:42.342Z</time></trkpt><trkpt lat="41.5642941" lon="14.2903215"><ele>643.0</ele><time>2026-04-26T15:57:43.342Z</time></trkpt><trkpt lat="41.5642141" lon="14.2906374"><ele>644.0</ele><time>2026-04-26T15:57:44.341Z</time></trkpt><trkpt lat="41.56417" lon="14.2909733"><ele>645.0</ele><time>2026-04-26T15:57:45.341Z</time></trkpt><trkpt lat="41.5641606" lon="14.2913172"><ele>646.0</ele><time>2026-04-26T15:57:46.341Z</time></trkpt><trkpt lat="41.5641862" lon="14.2916817"><ele>647.0</ele><time>2026-04-26T15:57:47.341Z</time></trkpt><trkpt lat="41.5642473" lon="14.2920653"><ele>645.5</ele><time>2026-04-26T15:57:48.342Z</time></trkpt><trkpt lat="41.5643179" lon="14.2924687"><ele>644.0</ele><time>2026-04-26T15:57:49.341Z</time></trkpt><trkpt lat="41.5643863" lon="14.2929036"><ele>642.5</ele><time>2026-04-26T15:57:50.341Z</time></trkpt><trkpt lat="41.5644585" lon="14.293371"><ele>641.0</ele><time>2026-04-26T15:57:51.342Z</time></trkpt><trkpt lat="41.5645448" lon="14.2938559"><ele>644.0</ele><time>2026-04-26T15:57:52.349Z</time></trkpt><trkpt lat="41.5646317" lon="14.2943434"><ele>647.0</ele><time>2026-04-26T15:57:53.35Z</time></trkpt><trkpt lat="41.5647134" lon="14.294823"><ele>647.0</ele><time>2026-04-26T15:57:54.349Z</time></trkpt><trkpt lat="41.5647888" lon="14.2952946"><ele>647.0</ele><time>2026-04-26T15:57:55.35Z</time></trkpt><trkpt lat="41.5648678" lon="14.2957611"><ele>645.0</ele><time>2026-04-26T15:57:56.349Z</time></trkpt><trkpt lat="41.5649424" lon="14.2962134"><ele>643.0</ele><time>2026-04-26T15:57:57.349Z</time></trkpt><trkpt lat="41.565025" lon="14.2966488"><ele>643.5</ele><time>2026-04-26T15:57:58.349Z</time></trkpt><trkpt lat="41.5651027" lon="14.2970703"><ele>644.0</ele><time>2026-04-26T15:57:59.349Z</time></trkpt><trkpt lat="41.565172" lon="14.2974913"><ele>644.0</ele><time>2026-04-26T15:58:00.349Z</time></trkpt><trkpt lat="41.5652416" lon="14.2979083"><ele>644.0</ele><time>2026-04-26T15:58:01.35Z</time></trkpt><trkpt lat="41.5652959" lon="14.2982997"><ele>643.0</ele><time>2026-04-26T15:58:02.349Z</time></trkpt><trkpt lat="41.5653234" lon="14.2986681"><ele>642.0</ele><time>2026-04-26T15:58:03.349Z</time></trkpt><trkpt lat="41.5653374" lon="14.2990228"><ele>640.5</ele><time>2026-04-26T15:58:04.35Z</time></trkpt><trkpt lat="41.5653257" lon="14.299383"><ele>639.0</ele><time>2026-04-26T15:58:05.35Z</time></trkpt><trkpt lat="41.56529" lon="14.299735"><ele>640.0</ele><time>2026-04-26T15:58:06.349Z</time></trkpt><trkpt lat="41.5652296" lon="14.3000762"><ele>641.0</ele><time>2026-04-26T15:58:07.35Z</time></trkpt><trkpt lat="41.5651363" lon="14.300394"><ele>641.5</ele><time>2026-04-26T15:58:08.35Z</time></trkpt><trkpt lat="41.5650235" lon="14.300715"><ele>642.0</ele><time>2026-04-26T15:58:09.349Z</time></trkpt><trkpt lat="41.5648891" lon="14.3010313"><ele>642.0</ele><time>2026-04-26T15:58:10.349Z</time></trkpt><trkpt lat="41.564731" lon="14.3013344"><ele>642.0</ele><time>2026-04-26T15:58:11.349Z</time></trkpt><trkpt lat="41.5645423" lon="14.3016289"><ele>644.0</ele><time>2026-04-26T15:58:12.35Z</time></trkpt><trkpt lat="41.5643373" lon="14.3019167"><ele>646.0</ele><time>2026-04-26T15:58:13.35Z</time></trkpt><trkpt lat="41.5641337" lon="14.3022018"><ele>653.0</ele><time>2026-04-26T15:58:14.349Z</time></trkpt><trkpt lat="41.563935" lon="14.30248"><ele>660.0</ele><time>2026-04-26T15:58:15.35Z</time></trkpt><trkpt lat="41.5637453" lon="14.302739"><ele>659.0</ele><time>2026-04-26T15:58:16.349Z</time></trkpt><trkpt lat="41.5635688" lon="14.3029923"><ele>658.0</ele><time>2026-04-26T15:58:17.35Z</time></trkpt><trkpt lat="41.563402" lon="14.3032403"><ele>658.0</ele><time>2026-04-26T15:58:18.349Z</time></trkpt><trkpt lat="41.5632469" lon="14.3034949"><ele>658.0</ele><time>2026-04-26T15:58:19.349Z</time></trkpt><trkpt lat="41.5630989" lon="14.3037884"><ele>654.5</ele><time>2026-04-26T15:58:20.349Z</time></trkpt><trkpt lat="41.5629666" lon="14.3041046"><ele>651.0</ele><time>2026-04-26T15:58:21.349Z</time></trkpt><trkpt lat="41.562833" lon="14.3044264"><ele>651.0</ele><time>2026-04-26T15:58:22.349Z</time></trkpt><trkpt lat="41.562709" lon="14.3047393"><ele>651.0</ele><time>2026-04-26T15:58:23.349Z</time></trkpt><trkpt lat="41.5625992" lon="14.3050433"><ele>657.0</ele><time>2026-04-26T15:58:24.349Z</time></trkpt><trkpt lat="41.5625233" lon="14.305356"><ele>663.0</ele><time>2026-04-26T15:58:25.349Z</time></trkpt><trkpt lat="41.5624778" lon="14.305678"><ele>668.5</ele><time>2026-04-26T15:58:26.349Z</time></trkpt><trkpt lat="41.5624479" lon="14.3059999"><ele>674.0</ele><time>2026-04-26T15:58:27.349Z</time></trkpt><trkpt lat="41.5624216" lon="14.3063202"><ele>674.5</ele><time>2026-04-26T15:58:28.349Z</time></trkpt><trkpt lat="41.5623742" lon="14.306622"><ele>675.0</ele><time>2026-04-26T15:58:29.35Z</time></trkpt><trkpt lat="41.5622979" lon="14.3069039"><ele>675.0</ele><time>2026-04-26T15:58:30.35Z</time></trkpt><trkpt lat="41.5621793" lon="14.3071756"><ele>675.0</ele><time>2026-04-26T15:58:31.35Z</time></trkpt><trkpt lat="41.5620199" lon="14.3074419"><ele>674.5</ele><time>2026-04-26T15:58:32.349Z</time></trkpt><trkpt lat="41.5618278" lon="14.3076914"><ele>674.0</ele><time>2026-04-26T15:58:33.35Z</time></trkpt><trkpt lat="41.5616373" lon="14.3079293"><ele>684.5</ele><time>2026-04-26T15:58:34.349Z</time></trkpt><trkpt lat="41.5614647" lon="14.3081868"><ele>695.0</ele><time>2026-04-26T15:58:35.349Z</time></trkpt><trkpt lat="41.5613184" lon="14.3084812"><ele>690.5</ele><time>2026-04-26T15:58:36.35Z</time></trkpt><trkpt lat="41.5611961" lon="14.3087832"><ele>686.0</ele><time>2026-04-26T15:58:37.35Z</time></trkpt><trkpt lat="41.5610884" lon="14.3090844"><ele>686.0</ele><time>2026-04-26T15:58:38.349Z</time></trkpt><trkpt lat="41.5609715" lon="14.30934"><ele>686.0</ele><time>2026-04-26T15:58:39.35Z</time></trkpt><trkpt lat="41.5608365" lon="14.3095656"><ele>686.0</ele><time>2026-04-26T15:58:40.349Z</time></trkpt><trkpt lat="41.5606715" lon="14.3097542"><ele>688.0</ele><time>2026-04-26T15:58:41.349Z</time></trkpt><trkpt lat="41.5604942" lon="14.3099159"><ele>690.0</ele><time>2026-04-26T15:58:42.349Z</time></trkpt><trkpt lat="41.5602993" lon="14.3100385"><ele>692.0</ele><time>2026-04-26T15:58:43.349Z</time></trkpt><trkpt lat="41.560081" lon="14.31014"><ele>692.0</ele><time>2026-04-26T15:58:44.349Z</time></trkpt><trkpt lat="41.5598574" lon="14.3101818"><ele>692.0</ele><time>2026-04-26T15:58:45.349Z</time></trkpt><trkpt lat="41.5596166" lon="14.3101656"><ele>697.0</ele><time>2026-04-26T15:58:46.349Z</time></trkpt><trkpt lat="41.5593591" lon="14.3101063"><ele>702.0</ele><time>2026-04-26T15:58:47.35Z</time></trkpt><trkpt lat="41.5590747" lon="14.3100458"><ele>702.0</ele><time>2026-04-26T15:58:48.35Z</time></trkpt><trkpt lat="41.5587934" lon="14.3099904"><ele>702.0</ele><time>2026-04-26T15:58:49.349Z</time></trkpt><trkpt lat="41.5585269" lon="14.3099442"><ele>707.5</ele><time>2026-04-26T15:58:50.349Z</time></trkpt><trkpt lat="41.5582765" lon="14.309896"><ele>713.0</ele><time>2026-04-26T15:58:51.349Z</time></trkpt><trkpt lat="41.5580307" lon="14.3098762"><ele>713.0</ele><time>2026-04-26T15:58:52.349Z</time></trkpt><trkpt lat="41.5577753" lon="14.3098927"><ele>713.0</ele><time>2026-04-26T15:58:53.35Z</time></trkpt><trkpt lat="41.5575311" lon="14.3099721"><ele>713.0</ele><time>2026-04-26T15:58:54.35Z</time></trkpt><trkpt lat="41.5572941" lon="14.3101023"><ele>713.0</ele><time>2026-04-26T15:58:55.349Z</time></trkpt><trkpt lat="41.5570449" lon="14.3102768"><ele>708.5</ele><time>2026-04-26T15:58:56.349Z</time></trkpt><trkpt lat="41.5567861" lon="14.3104362"><ele>704.0</ele><time>2026-04-26T15:58:57.35Z</time></trkpt><trkpt lat="41.5565364" lon="14.310567"><ele>715.0</ele><time>2026-04-26T15:58:58.35Z</time></trkpt><trkpt lat="41.5562745" lon="14.3106416"><ele>726.0</ele><time>2026-04-26T15:58:59.349Z</time></trkpt><trkpt lat="41.5559935" lon="14.3106783"><ele>727.0</ele><time>2026-04-26T15:59:00.349Z</time></trkpt><trkpt lat="41.5557176" lon="14.3106919"><ele>728.0</ele><time>2026-04-26T15:59:01.349Z</time></trkpt><trkpt lat="41.5554476" lon="14.3107008"><ele>730.5</ele><time>2026-04-26T15:59:02.349Z</time></trkpt><trkpt lat="41.5551955" lon="14.3107104"><ele>733.0</ele><time>2026-04-26T15:59:03.35Z</time></trkpt><trkpt lat="41.5549618" lon="14.3107189"><ele>733.0</ele><time>2026-04-26T15:59:04.349Z</time></trkpt><trkpt lat="41.5547384" lon="14.3107294"><ele>733.0</ele><time>2026-04-26T15:59:05.349Z</time></trkpt><trkpt lat="41.5545193" lon="14.3107612"><ele>733.0</ele><time>2026-04-26T15:59:06.349Z</time></trkpt><trkpt lat="41.5543056" lon="14.3108244"><ele>733.0</ele><time>2026-04-26T15:59:07.35Z</time></trkpt><trkpt lat="41.5541038" lon="14.3109149"><ele>733.0</ele><time>2026-04-26T15:59:08.349Z</time></trkpt><trkpt lat="41.5539039" lon="14.3110359"><ele>733.0</ele><time>2026-04-26T15:59:09.35Z</time></trkpt><trkpt lat="41.5537225" lon="14.3111772"><ele>733.6666666666667</ele><time>2026-04-26T15:59:10.349Z</time></trkpt><trkpt lat="41.5535518" lon="14.3113287"><ele>734.3333333333334</ele><time>2026-04-26T15:59:11.349Z</time></trkpt><trkpt lat="41.5534027" lon="14.3115112"><ele>735.0</ele><time>2026-04-26T15:59:12.349Z</time></trkpt><trkpt lat="41.553276" lon="14.3117173"><ele>735.0</ele><time>2026-04-26T15:59:13.349Z</time></trkpt><trkpt lat="41.5531665" lon="14.3119493"><ele>735.0</ele><time>2026-04-26T15:59:14.349Z</time></trkpt><trkpt lat="41.5530796" lon="14.3121885"><ele>735.0</ele><time>2026-04-26T15:59:15.349Z</time></trkpt><trkpt lat="41.5530156" lon="14.3124425"><ele>737.0</ele><time>2026-04-26T15:59:16.349Z</time></trkpt><trkpt lat="41.5529691" lon="14.312726"><ele>739.0</ele><time>2026-04-26T15:59:17.349Z</time></trkpt><trkpt lat="41.552922" lon="14.3130525"><ele>739.5</ele><time>2026-04-26T15:59:18.35Z</time></trkpt><trkpt lat="41.5528652" lon="14.3134109"><ele>740.0</ele><time>2026-04-26T15:59:19.349Z</time></trkpt><trkpt lat="41.5528003" lon="14.3137917"><ele>741.0</ele><time>2026-04-26T15:59:20.349Z</time></trkpt><trkpt lat="41.5527347" lon="14.3141889"><ele>742.0</ele><time>2026-04-26T15:59:21.349Z</time></trkpt><trkpt lat="41.5526672" lon="14.3145797"><ele>742.0</ele><time>2026-04-26T15:59:22.349Z</time></trkpt><trkpt lat="41.5526031" lon="14.3149524"><ele>742.0</ele><time>2026-04-26T15:59:23.35Z</time></trkpt><trkpt lat="41.5525387" lon="14.3153163"><ele>741.0</ele><time>2026-04-26T15:59:24.349Z</time></trkpt><trkpt lat="41.5524779" lon="14.3156917"><ele>740.0</ele><time>2026-04-26T15:59:25.349Z</time></trkpt><trkpt lat="41.552417" lon="14.3160575"><ele>740.0</ele><time>2026-04-26T15:59:26.35Z</time></trkpt><trkpt lat="41.5523555" lon="14.3164196"><ele>740.0</ele><time>2026-04-26T15:59:27.349Z</time></trkpt><trkpt lat="41.5522993" lon="14.3167835"><ele>740.0</ele><time>2026-04-26T15:59:28.35Z</time></trkpt><trkpt lat="41.5522433" lon="14.3171788"><ele>740.0</ele><time>2026-04-26T15:59:29.35Z</time></trkpt><trkpt lat="41.5521743" lon="14.3176044"><ele>741.5</ele><time>2026-04-26T15:59:30.349Z</time></trkpt><trkpt lat="41.5520835" lon="14.3180193"><ele>743.0</ele><time>2026-04-26T15:59:31.349Z</time></trkpt><trkpt lat="41.5519868" lon="14.3184322"><ele>743.5</ele><time>2026-04-26T15:59:32.35Z</time></trkpt><trkpt lat="41.5518708" lon="14.3188353"><ele>744.0</ele><time>2026-04-26T15:59:33.349Z</time></trkpt><trkpt lat="41.5517332" lon="14.3192423"><ele>744.0</ele><time>2026-04-26T15:59:34.35Z</time></trkpt><trkpt lat="41.5515948" lon="14.3196723"><ele>744.0</ele><time>2026-04-26T15:59:35.349Z</time></trkpt><trkpt lat="41.5514424" lon="14.3201153"><ele>744.0</ele><time>2026-04-26T15:59:36.349Z</time></trkpt><trkpt lat="41.5513011" lon="14.3205648"><ele>744.0</ele><time>2026-04-26T15:59:37.35Z</time></trkpt><trkpt lat="41.5511565" lon="14.3210005"><ele>740.5</ele><time>2026-04-26T15:59:38.35Z</time></trkpt><trkpt lat="41.5510141" lon="14.3214441"><ele>737.0</ele><time>2026-04-26T15:59:39.349Z</time></trkpt><trkpt lat="41.5508728" lon="14.3218725"><ele>733.0</ele><time>2026-04-26T15:59:40.349Z</time></trkpt><trkpt lat="41.5507318" lon="14.3222902"><ele>729.0</ele><time>2026-04-26T15:59:41.349Z</time></trkpt><trkpt lat="41.5505921" lon="14.3227037"><ele>728.5</ele><time>2026-04-26T15:59:42.349Z</time></trkpt><trkpt lat="41.5504521" lon="14.3231137"><ele>728.0</ele><time>2026-04-26T15:59:43.349Z</time></trkpt><trkpt lat="41.5503148" lon="14.3235327"><ele>723.5</ele><time>2026-04-26T15:59:44.349Z</time></trkpt><trkpt lat="41.5501704" lon="14.3239629"><ele>719.0</ele><time>2026-04-26T15:59:45.35Z</time></trkpt><trkpt lat="41.5500266" lon="14.3243971"><ele>716.0</ele><time>2026-04-26T15:59:46.349Z</time></trkpt><trkpt lat="41.54988" lon="14.324844"><ele>713.0</ele><time>2026-04-26T15:59:47.349Z</time></trkpt><trkpt lat="41.549737" lon="14.3252893"><ele>714.5</ele><time>2026-04-26T15:59:48.349Z</time></trkpt><trkpt lat="41.5495982" lon="14.3257265"><ele>716.0</ele><time>2026-04-26T15:59:49.349Z</time></trkpt><trkpt lat="41.5494598" lon="14.3261357"><ele>713.0</ele><time>2026-04-26T15:59:50.349Z</time></trkpt><trkpt lat="41.5493269" lon="14.3265208"><ele>710.0</ele><time>2026-04-26T15:59:51.35Z</time></trkpt><trkpt lat="41.5491975" lon="14.3268892"><ele>707.0</ele><time>2026-04-26T15:59:52.349Z</time></trkpt><trkpt lat="41.549077" lon="14.3272381"><ele>704.0</ele><time>2026-04-26T15:59:53.349Z</time></trkpt><trkpt lat="41.548947" lon="14.327569"><ele>704.0</ele><time>2026-04-26T15:59:54.349Z</time></trkpt><trkpt lat="41.5487878" lon="14.327891"><ele>704.0</ele><time>2026-04-26T15:59:55.349Z</time></trkpt><trkpt lat="41.5485852" lon="14.3282094"><ele>703.5</ele><time>2026-04-26T15:59:56.349Z</time></trkpt><trkpt lat="41.5483665" lon="14.3285243"><ele>703.0</ele><time>2026-04-26T15:59:57.349Z</time></trkpt><trkpt lat="41.5481221" lon="14.328836"><ele>702.0</ele><time>2026-04-26T15:59:58.349Z</time></trkpt><trkpt lat="41.5478569" lon="14.329151"><ele>701.0</ele><time>2026-04-26T15:59:59.349Z</time></trkpt><trkpt lat="41.5475879" lon="14.3294837"><ele>696.5</ele><time>2026-04-26T16:00:00.35Z</time></trkpt><trkpt lat="41.5473087" lon="14.3298276"><ele>692.0</ele><time>2026-04-26T16:00:01.349Z</time></trkpt><trkpt lat="41.5470315" lon="14.3301754"><ele>692.0</ele><time>2026-04-26T16:00:02.349Z</time></trkpt><trkpt lat="41.5467553" lon="14.3305353"><ele>692.0</ele><time>2026-04-26T16:00:03.349Z</time></trkpt><trkpt lat="41.5464557" lon="14.3309004"><ele>691.0</ele><time>2026-04-26T16:00:04.349Z</time></trkpt><trkpt lat="41.5461469" lon="14.3312646"><ele>690.0</ele><time>2026-04-26T16:00:05.349Z</time></trkpt><trkpt lat="41.5458201" lon="14.3316408"><ele>690.0</ele><time>2026-04-26T16:00:06.35Z</time></trkpt><trkpt lat="41.5454947" lon="14.3320318"><ele>690.0</ele><time>2026-04-26T16:00:07.349Z</time></trkpt><trkpt lat="41.5451626" lon="14.3324318"><ele>685.0</ele><time>2026-04-26T16:00:08.35Z</time></trkpt><trkpt lat="41.5448289" lon="14.3328447"><ele>683.0</ele><time>2026-04-26T16:00:09.349Z</time></trkpt><trkpt lat="41.5445097" lon="14.3332458"><ele>681.0</ele><time>2026-04-26T16:00:10.35Z</time></trkpt><trkpt lat="41.5442032" lon="14.3336166"><ele>677.5</ele><time>2026-04-26T16:00:11.349Z</time></trkpt><trkpt lat="41.5439124" lon="14.3339769"><ele>674.0</ele><time>2026-04-26T16:00:12.35Z</time></trkpt><trkpt lat="41.5436307" lon="14.3343218"><ele>674.0</ele><time>2026-04-26T16:00:13.349Z</time></trkpt><trkpt lat="41.5433523" lon="14.3346562"><ele>674.0</ele><time>2026-04-26T16:00:14.35Z</time></trkpt><trkpt lat="41.54308" lon="14.3349848"><ele>673.0</ele><time>2026-04-26T16:00:15.35Z</time></trkpt><trkpt lat="41.5428079" lon="14.3353197"><ele>672.0</ele><time>2026-04-26T16:00:16.349Z</time></trkpt><trkpt lat="41.5425352" lon="14.3356447"><ele>666.5</ele><time>2026-04-26T16:00:17.349Z</time></trkpt><trkpt lat="41.5422605" lon="14.3359731"><ele>661.0</ele><time>2026-04-26T16:00:18.349Z</time></trkpt><trkpt lat="41.5419795" lon="14.3363136"><ele>656.5</ele><time>2026-04-26T16:00:19.35Z</time></trkpt><trkpt lat="41.5417065" lon="14.3366477"><ele>652.0</ele><time>2026-04-26T16:00:20.349Z</time></trkpt><trkpt lat="41.5414478" lon="14.3369622"><ele>652.0</ele><time>2026-04-26T16:00:21.349Z</time></trkpt><trkpt lat="41.541199" lon="14.3372614"><ele>652.0</ele><time>2026-04-26T16:00:22.35Z</time></trkpt><trkpt lat="41.5409674" lon="14.3375483"><ele>652.0</ele><time>2026-04-26T16:00:23.349Z</time></trkpt><trkpt lat="41.5407625" lon="14.3378356"><ele>652.0</ele><time>2026-04-26T16:00:24.349Z</time></trkpt><trkpt lat="41.5405775" lon="14.3381413"><ele>653.5</ele><time>2026-04-26T16:00:25.349Z</time></trkpt><trkpt lat="41.5404191" lon="14.3384804"><ele>655.0</ele><time>2026-04-26T16:00:26.349Z</time></trkpt><trkpt lat="41.5402717" lon="14.3388497"><ele>652.5</ele><time>2026-04-26T16:00:27.349Z</time></trkpt><trkpt lat="41.5401498" lon="14.3392546"><ele>650.0</ele><time>2026-04-26T16:00:28.349Z</time></trkpt><trkpt lat="41.5400298" lon="14.3396931"><ele>648.0</ele><time>2026-04-26T16:00:29.349Z</time></trkpt><trkpt lat="41.5399044" lon="14.3401578"><ele>646.0</ele><time>2026-04-26T16:00:30.349Z</time></trkpt><trkpt lat="41.539777" lon="14.3406291"><ele>645.0</ele><time>2026-04-26T16:00:31.35Z</time></trkpt><trkpt lat="41.5396516" lon="14.3410978"><ele>644.0</ele><time>2026-04-26T16:00:32.35Z</time></trkpt><trkpt lat="41.5395247" lon="14.3415517"><ele>646.0</ele><time>2026-04-26T16:00:33.349Z</time></trkpt><trkpt lat="41.5394022" lon="14.3420019"><ele>648.0</ele><time>2026-04-26T16:00:34.349Z</time></trkpt><trkpt lat="41.5392774" lon="14.342457"><ele>648.0</ele><time>2026-04-26T16:00:35.349Z</time></trkpt><trkpt lat="41.5391536" lon="14.342913"><ele>648.0</ele><time>2026-04-26T16:00:36.35Z</time></trkpt><trkpt lat="41.5387673" lon="14.3442979"><ele>645.0</ele><time>2026-04-26T16:00:36.991Z</time></trkpt><trkpt lat="41.5386373" lon="14.3447839"><ele>642.0</ele><time>2026-04-26T16:00:37.991Z</time></trkpt><trkpt lat="41.5385049" lon="14.3452798"><ele>640.0</ele><time>2026-04-26T16:00:38.991Z</time></trkpt><trkpt lat="41.5383708" lon="14.345777"><ele>638.0</ele><time>2026-04-26T16:00:39.991Z</time></trkpt><trkpt lat="41.5382366" lon="14.3462806"><ele>635.5</ele><time>2026-04-26T16:00:40.991Z</time></trkpt><trkpt lat="41.5380997" lon="14.3467827"><ele>633.0</ele><time>2026-04-26T16:00:41.991Z</time></trkpt><trkpt lat="41.5379616" lon="14.3472818"><ele>629.5</ele><time>2026-04-26T16:00:42.991Z</time></trkpt><trkpt lat="41.5378295" lon="14.3477685"><ele>626.0</ele><time>2026-04-26T16:00:43.991Z</time></trkpt><trkpt lat="41.537698" lon="14.3482346"><ele>623.5</ele><time>2026-04-26T16:00:44.991Z</time></trkpt><trkpt lat="41.5375767" lon="14.3486903"><ele>621.0</ele><time>2026-04-26T16:00:45.991Z</time></trkpt><trkpt lat="41.5374505" lon="14.3491452"><ele>620.0</ele><time>2026-04-26T16:00:46.991Z</time></trkpt><trkpt lat="41.537328" lon="14.3495881"><ele>619.0</ele><time>2026-04-26T16:00:47.991Z</time></trkpt><trkpt lat="41.5372107" lon="14.3500181"><ele>618.5</ele><time>2026-04-26T16:00:48.991Z</time></trkpt><trkpt lat="41.5370963" lon="14.3504375"><ele>618.0</ele><time>2026-04-26T16:00:49.991Z</time></trkpt><trkpt lat="41.536984" lon="14.3508483"><ele>619.5</ele><time>2026-04-26T16:00:50.991Z</time></trkpt><trkpt lat="41.5368806" lon="14.3512297"><ele>621.0</ele><time>2026-04-26T16:00:51.991Z</time></trkpt><trkpt lat="41.5367877" lon="14.351596"><ele>621.0</ele><time>2026-04-26T16:00:52.991Z</time></trkpt><trkpt lat="41.5366947" lon="14.3519497"><ele>621.0</ele><time>2026-04-26T16:00:53.991Z</time></trkpt><trkpt lat="41.5366147" lon="14.3523024"><ele>619.0</ele><time>2026-04-26T16:00:54.992Z</time></trkpt><trkpt lat="41.5365603" lon="14.3526709"><ele>617.0</ele><time>2026-04-26T16:00:55.991Z</time></trkpt><trkpt lat="41.5365369" lon="14.3530417"><ele>614.5</ele><time>2026-04-26T16:00:56.991Z</time></trkpt><trkpt lat="41.5365446" lon="14.3534323"><ele>612.0</ele><time>2026-04-26T16:00:57.991Z</time></trkpt><trkpt lat="41.5365826" lon="14.3538407"><ele>610.5</ele><time>2026-04-26T16:00:58.991Z</time></trkpt><trkpt lat="41.5366357" lon="14.3542466"><ele>609.0</ele><time>2026-04-26T16:00:59.991Z</time></trkpt><trkpt lat="41.5366966" lon="14.3546518"><ele>608.5</ele><time>2026-04-26T16:01:00.991Z</time></trkpt><trkpt lat="41.5367497" lon="14.3550505"><ele>608.0</ele><time>2026-04-26T16:01:01.991Z</time></trkpt><trkpt lat="41.5368059" lon="14.3554396"><ele>608.0</ele><time>2026-04-26T16:01:02.991Z</time></trkpt><trkpt lat="41.536862" lon="14.3558163"><ele>608.0</ele><time>2026-04-26T16:01:03.991Z</time></trkpt><trkpt lat="41.5369173" lon="14.3561939"><ele>607.0</ele><time>2026-04-26T16:01:04.991Z</time></trkpt><trkpt lat="41.5369776" lon="14.3565697"><ele>606.0</ele><time>2026-04-26T16:01:05.991Z</time></trkpt><trkpt lat="41.5370396" lon="14.3569656"><ele>602.0</ele><time>2026-04-26T16:01:06.991Z</time></trkpt><trkpt lat="41.5370942" lon="14.3573827"><ele>598.0</ele><time>2026-04-26T16:01:07.992Z</time></trkpt><trkpt lat="41.5371457" lon="14.3578142"><ele>596.5</ele><time>2026-04-26T16:01:08.991Z</time></trkpt><trkpt lat="41.5372044" lon="14.3582553"><ele>595.0</ele><time>2026-04-26T16:01:09.991Z</time></trkpt><trkpt lat="41.5372698" lon="14.3587132"><ele>593.5</ele><time>2026-04-26T16:01:10.991Z</time></trkpt><trkpt lat="41.5373379" lon="14.3591738"><ele>592.0</ele><time>2026-04-26T16:01:11.991Z</time></trkpt><trkpt lat="41.5374051" lon="14.3596216"><ele>590.5</ele><time>2026-04-26T16:01:12.991Z</time></trkpt><trkpt lat="41.5374666" lon="14.3600573"><ele>589.0</ele><time>2026-04-26T16:01:13.991Z</time></trkpt><trkpt lat="41.5375228" lon="14.3604784"><ele>588.0</ele><time>2026-04-26T16:01:14.991Z</time></trkpt><trkpt lat="41.5375836" lon="14.3608927"><ele>587.0</ele><time>2026-04-26T16:01:15.991Z</time></trkpt><trkpt lat="41.5376463" lon="14.3612972"><ele>587.5</ele><time>2026-04-26T16:01:16.991Z</time></trkpt><trkpt lat="41.5377063" lon="14.3616975"><ele>588.0</ele><time>2026-04-26T16:01:17.991Z</time></trkpt><trkpt lat="41.5377599" lon="14.3620887"><ele>587.0</ele><time>2026-04-26T16:01:18.991Z</time></trkpt><trkpt lat="41.5378105" lon="14.3624555"><ele>586.0</ele><time>2026-04-26T16:01:19.991Z</time></trkpt><trkpt lat="41.5378524" lon="14.3628129"><ele>583.5</ele><time>2026-04-26T16:01:20.991Z</time></trkpt><trkpt lat="41.5378756" lon="14.363151"><ele>581.0</ele><time>2026-04-26T16:01:21.991Z</time></trkpt><trkpt lat="41.5378821" lon="14.3634835"><ele>581.0</ele><time>2026-04-26T16:01:22.991Z</time></trkpt><trkpt lat="41.5378647" lon="14.3638516"><ele>581.0</ele><time>2026-04-26T16:01:23.991Z</time></trkpt><trkpt lat="41.5378479" lon="14.3642579"><ele>579.5</ele><time>2026-04-26T16:01:24.991Z</time></trkpt><trkpt lat="41.5378347" lon="14.3646896"><ele>578.0</ele><time>2026-04-26T16:01:25.991Z</time></trkpt><trkpt lat="41.5378171" lon="14.3651272"><ele>576.5</ele><time>2026-04-26T16:01:26.991Z</time></trkpt><trkpt lat="41.5377981" lon="14.3655582"><ele>575.0</ele><time>2026-04-26T16:01:27.991Z</time></trkpt><trkpt lat="41.5377794" lon="14.3659735"><ele>575.0</ele><time>2026-04-26T16:01:28.991Z</time></trkpt><trkpt lat="41.5377647" lon="14.3663648"><ele>575.0</ele><time>2026-04-26T16:01:29.991Z</time></trkpt><trkpt lat="41.5377438" lon="14.3667355"><ele>575.0</ele><time>2026-04-26T16:01:30.991Z</time></trkpt><trkpt lat="41.5377317" lon="14.3670873"><ele>575.0</ele><time>2026-04-26T16:01:31.992Z</time></trkpt><trkpt lat="41.5377213" lon="14.3674077"><ele>574.6666666666666</ele><time>2026-04-26T16:01:32.991Z</time></trkpt><trkpt lat="41.5377015" lon="14.3677092"><ele>574.3333333333334</ele><time>2026-04-26T16:01:33.991Z</time></trkpt><trkpt lat="41.5376903" lon="14.3679723"><ele>574.0</ele><time>2026-04-26T16:01:34.991Z</time></trkpt><trkpt lat="41.5376757" lon="14.3682082"><ele>573.5</ele><time>2026-04-26T16:01:35.991Z</time></trkpt><trkpt lat="41.5376675" lon="14.3684169"><ele>573.0</ele><time>2026-04-26T16:01:36.991Z</time></trkpt><trkpt lat="41.5376672" lon="14.3686067"><ele>572.5</ele><time>2026-04-26T16:01:37.991Z</time></trkpt><trkpt lat="41.5376718" lon="14.3687664"><ele>572.0</ele><time>2026-04-26T16:01:38.992Z</time></trkpt><trkpt lat="41.5376703" lon="14.3689167"><ele>572.0</ele><time>2026-04-26T16:01:39.991Z</time></trkpt><trkpt lat="41.537654" lon="14.3691068"><ele>572.0</ele><time>2026-04-26T16:01:40.991Z</time></trkpt><trkpt lat="41.5376363" lon="14.3693285"><ele>572.0</ele><time>2026-04-26T16:01:41.991Z</time></trkpt><trkpt lat="41.5376119" lon="14.3696232"><ele>572.0</ele><time>2026-04-26T16:01:42.991Z</time></trkpt><trkpt lat="41.5376012" lon="14.3699651"><ele>572.0</ele><time>2026-04-26T16:01:43.991Z</time></trkpt><trkpt lat="41.5375931" lon="14.3703943"><ele>570.5</ele><time>2026-04-26T16:01:44.991Z</time></trkpt><trkpt lat="41.5375699" lon="14.370837"><ele>569.0</ele><time>2026-04-26T16:01:45.991Z</time></trkpt><trkpt lat="41.5375386" lon="14.3712729"><ele>567.0</ele><time>2026-04-26T16:01:46.991Z</time></trkpt><trkpt lat="41.5375145" lon="14.3716793"><ele>565.0</ele><time>2026-04-26T16:01:47.991Z</time></trkpt><trkpt lat="41.5374894" lon="14.3720713"><ele>564.0</ele><time>2026-04-26T16:01:48.992Z</time></trkpt><trkpt lat="41.5374737" lon="14.3724334"><ele>563.0</ele><time>2026-04-26T16:01:49.991Z</time></trkpt><trkpt lat="41.5374552" lon="14.3727749"><ele>562.5</ele><time>2026-04-26T16:01:50.992Z</time></trkpt><trkpt lat="41.5374441" lon="14.373113"><ele>562.0</ele><time>2026-04-26T16:01:51.991Z</time></trkpt><trkpt lat="41.5374254" lon="14.3734575"><ele>562.0</ele><time>2026-04-26T16:01:52.992Z</time></trkpt><trkpt lat="41.5373822" lon="14.3738076"><ele>562.0</ele><time>2026-04-26T16:01:53.991Z</time></trkpt><trkpt lat="41.5373059" lon="14.3741497"><ele>561.5</ele><time>2026-04-26T16:01:54.991Z</time></trkpt><trkpt lat="41.537218" lon="14.3744863"><ele>561.0</ele><time>2026-04-26T16:01:55.991Z</time></trkpt><trkpt lat="41.5371104" lon="14.3748058"><ele>563.5</ele><time>2026-04-26T16:01:56.991Z</time></trkpt><trkpt lat="41.5369974" lon="14.3751419"><ele>566.0</ele><time>2026-04-26T16:01:57.991Z</time></trkpt><trkpt lat="41.5368901" lon="14.3754816"><ele>565.0</ele><time>2026-04-26T16:01:58.991Z</time></trkpt><trkpt lat="41.5367942" lon="14.3758611"><ele>564.0</ele><time>2026-04-26T16:01:59.992Z</time></trkpt><trkpt lat="41.5366724" lon="14.3762866"><ele>560.0</ele><time>2026-04-26T16:02:00.991Z</time></trkpt><trkpt lat="41.5365638" lon="14.3767418"><ele>556.0</ele><time>2026-04-26T16:02:01.991Z</time></trkpt><trkpt lat="41.5364117" lon="14.3771791"><ele>555.0</ele><time>2026-04-26T16:02:02.991Z</time></trkpt><trkpt lat="41.5362829" lon="14.3776276"><ele>554.0</ele><time>2026-04-26T16:02:03.991Z</time></trkpt><trkpt lat="41.5361121" lon="14.3780667"><ele>554.0</ele><time>2026-04-26T16:02:04.992Z</time></trkpt><trkpt lat="41.5359705" lon="14.3785367"><ele>554.0</ele><time>2026-04-26T16:02:05.992Z</time></trkpt><trkpt lat="41.5358067" lon="14.3789787"><ele>553.5</ele><time>2026-04-26T16:02:06.991Z</time></trkpt><trkpt lat="41.5356601" lon="14.3794127"><ele>553.0</ele><time>2026-04-26T16:02:07.991Z</time></trkpt><trkpt lat="41.5355175" lon="14.3798376"><ele>552.5</ele><time>2026-04-26T16:02:08.991Z</time></trkpt><trkpt lat="41.5353745" lon="14.3802647"><ele>552.0</ele><time>2026-04-26T16:02:09.991Z</time></trkpt><trkpt lat="41.5352362" lon="14.3806886"><ele>552.0</ele><time>2026-04-26T16:02:10.991Z</time></trkpt><trkpt lat="41.5350991" lon="14.381109"><ele>552.0</ele><time>2026-04-26T16:02:11.991Z</time></trkpt><trkpt lat="41.5349635" lon="14.3815384"><ele>550.5</ele><time>2026-04-26T16:02:12.991Z</time></trkpt><trkpt lat="41.5348287" lon="14.3819473"><ele>549.0</ele><time>2026-04-26T16:02:13.991Z</time></trkpt><trkpt lat="41.534694" lon="14.3823596"><ele>549.0</ele><time>2026-04-26T16:02:14.991Z</time></trkpt><trkpt lat="41.5345615" lon="14.3827661"><ele>549.0</ele><time>2026-04-26T16:02:15.991Z</time></trkpt><trkpt lat="41.5344339" lon="14.3831476"><ele>548.5</ele><time>2026-04-26T16:02:16.991Z</time></trkpt><trkpt lat="41.5343088" lon="14.3835256"><ele>548.0</ele><time>2026-04-26T16:02:17.991Z</time></trkpt><trkpt lat="41.5341857" lon="14.3839077"><ele>548.0</ele><time>2026-04-26T16:02:18.991Z</time></trkpt><trkpt lat="41.5340631" lon="14.3842985"><ele>548.0</ele><time>2026-04-26T16:02:19.991Z</time></trkpt><trkpt lat="41.5339438" lon="14.3846854"><ele>547.5</ele><time>2026-04-26T16:02:20.991Z</time></trkpt><trkpt lat="41.5338291" lon="14.385059"><ele>547.0</ele><time>2026-04-26T16:02:21.991Z</time></trkpt><trkpt lat="41.5337094" lon="14.3854239"><ele>548.5</ele><time>2026-04-26T16:02:22.991Z</time></trkpt><trkpt lat="41.5335914" lon="14.3857752"><ele>550.0</ele><time>2026-04-26T16:02:23.991Z</time></trkpt><trkpt lat="41.5334671" lon="14.3861061"><ele>549.0</ele><time>2026-04-26T16:02:24.992Z</time></trkpt><trkpt lat="41.5333228" lon="14.3864073"><ele>548.0</ele><time>2026-04-26T16:02:25.991Z</time></trkpt><trkpt lat="41.5331505" lon="14.3866931"><ele>548.0</ele><time>2026-04-26T16:02:26.991Z</time></trkpt><trkpt lat="41.5329442" lon="14.3869589"><ele>548.0</ele><time>2026-04-26T16:02:27.991Z</time></trkpt><trkpt lat="41.5327255" lon="14.3872365"><ele>546.5</ele><time>2026-04-26T16:02:28.991Z</time></trkpt><trkpt lat="41.5324937" lon="14.3875228"><ele>545.0</ele><time>2026-04-26T16:02:29.991Z</time></trkpt><trkpt lat="41.5322641" lon="14.3878061"><ele>543.0</ele><time>2026-04-26T16:02:30.991Z</time></trkpt><trkpt lat="41.5320402" lon="14.3880645"><ele>541.0</ele><time>2026-04-26T16:02:31.991Z</time></trkpt><trkpt lat="41.531827" lon="14.3883108"><ele>541.0</ele><time>2026-04-26T16:02:32.991Z</time></trkpt><trkpt lat="41.5316151" lon="14.388562"><ele>541.0</ele><time>2026-04-26T16:02:33.991Z</time></trkpt><trkpt lat="41.5314187" lon="14.3888001"><ele>541.0</ele><time>2026-04-26T16:02:34.991Z</time></trkpt><trkpt lat="41.5312415" lon="14.3890364"><ele>541.0</ele><time>2026-04-26T16:02:35.991Z</time></trkpt><trkpt lat="41.5310835" lon="14.3892726"><ele>541.0</ele><time>2026-04-26T16:02:36.991Z</time></trkpt><trkpt lat="41.5309495" lon="14.3895315"><ele>541.0</ele><time>2026-04-26T16:02:37.992Z</time></trkpt><trkpt lat="41.530847" lon="14.3897974"><ele>540.6666666666667</ele><time>2026-04-26T16:02:38.991Z</time></trkpt><trkpt lat="41.5307738" lon="14.3900615"><ele>540.3333333333334</ele><time>2026-04-26T16:02:39.991Z</time></trkpt><trkpt lat="41.5307272" lon="14.3903192"><ele>540.0</ele><time>2026-04-26T16:02:40.991Z</time></trkpt><trkpt lat="41.5306868" lon="14.3905461"><ele>539.5</ele><time>2026-04-26T16:02:41.991Z</time></trkpt><trkpt lat="41.5306405" lon="14.3907504"><ele>539.0</ele><time>2026-04-26T16:02:42.991Z</time></trkpt><trkpt lat="41.5305934" lon="14.3909379"><ele>538.5</ele><time>2026-04-26T16:02:43.992Z</time></trkpt><trkpt lat="41.5305579" lon="14.3911184"><ele>538.0</ele><time>2026-04-26T16:02:44.991Z</time></trkpt><trkpt lat="41.5305543" lon="14.3913088"><ele>537.3333333333334</ele><time>2026-04-26T16:02:45.991Z</time></trkpt><trkpt lat="41.5305496" lon="14.3915227"><ele>536.6666666666666</ele><time>2026-04-26T16:02:46.991Z</time></trkpt><trkpt lat="41.5305224" lon="14.3917667"><ele>536.0</ele><time>2026-04-26T16:02:47.991Z</time></trkpt><trkpt lat="41.5304851" lon="14.3920639"><ele>536.0</ele><time>2026-04-26T16:02:48.991Z</time></trkpt><trkpt lat="41.5304379" lon="14.3923899"><ele>536.0</ele><time>2026-04-26T16:02:49.991Z</time></trkpt><trkpt lat="41.5303886" lon="14.3927441"><ele>535.0</ele><time>2026-04-26T16:02:50.991Z</time></trkpt><trkpt lat="41.5303333" lon="14.393121"><ele>534.0</ele><time>2026-04-26T16:02:51.991Z</time></trkpt><trkpt lat="41.5302823" lon="14.3935119"><ele>535.0</ele><time>2026-04-26T16:02:52.991Z</time></trkpt><trkpt lat="41.5302309" lon="14.3939079"><ele>536.0</ele><time>2026-04-26T16:02:53.991Z</time></trkpt><trkpt lat="41.5301795" lon="14.3943059"><ele>536.5</ele><time>2026-04-26T16:02:54.991Z</time></trkpt><trkpt lat="41.5301258" lon="14.3946983"><ele>537.0</ele><time>2026-04-26T16:02:55.992Z</time></trkpt><trkpt lat="41.5300691" lon="14.3950974"><ele>536.5</ele><time>2026-04-26T16:02:56.991Z</time></trkpt><trkpt lat="41.5300174" lon="14.3955116"><ele>536.0</ele><time>2026-04-26T16:02:57.991Z</time></trkpt><trkpt lat="41.5299596" lon="14.3959305"><ele>536.5</ele><time>2026-04-26T16:02:58.991Z</time></trkpt><trkpt lat="41.529904" lon="14.3963366"><ele>537.0</ele><time>2026-04-26T16:02:59.991Z</time></trkpt><trkpt lat="41.5298493" lon="14.3967246"><ele>537.0</ele><time>2026-04-26T16:03:00.991Z</time></trkpt><trkpt lat="41.5297948" lon="14.397093"><ele>537.0</ele><time>2026-04-26T16:03:01.991Z</time></trkpt><trkpt lat="41.5297295" lon="14.3974362"><ele>538.0</ele><time>2026-04-26T16:03:02.992Z</time></trkpt><trkpt lat="41.5296453" lon="14.3977559"><ele>539.0</ele><time>2026-04-26T16:03:03.991Z</time></trkpt><trkpt lat="41.5295262" lon="14.3980721"><ele>539.0</ele><time>2026-04-26T16:03:04.991Z</time></trkpt><trkpt lat="41.5293737" lon="14.3983911"><ele>539.0</ele><time>2026-04-26T16:03:05.991Z</time></trkpt><trkpt lat="41.5291955" lon="14.3987369"><ele>534.5</ele><time>2026-04-26T16:03:06.991Z</time></trkpt><trkpt lat="41.5290129" lon="14.3991068"><ele>530.0</ele><time>2026-04-26T16:03:07.991Z</time></trkpt><trkpt lat="41.5288305" lon="14.3994803"><ele>531.0</ele><time>2026-04-26T16:03:08.991Z</time></trkpt><trkpt lat="41.528634" lon="14.3998743"><ele>532.0</ele><time>2026-04-26T16:03:09.991Z</time></trkpt><trkpt lat="41.5284375" lon="14.4002782"><ele>529.5</ele><time>2026-04-26T16:03:10.991Z</time></trkpt><trkpt lat="41.5282452" lon="14.4006738"><ele>527.0</ele><time>2026-04-26T16:03:11.991Z</time></trkpt><trkpt lat="41.528051" lon="14.4010715"><ele>527.5</ele><time>2026-04-26T16:03:12.991Z</time></trkpt><trkpt lat="41.5278559" lon="14.4014654"><ele>528.0</ele><time>2026-04-26T16:03:13.991Z</time></trkpt><trkpt lat="41.5276603" lon="14.4018502"><ele>526.0</ele><time>2026-04-26T16:03:14.991Z</time></trkpt><trkpt lat="41.527463" lon="14.4022423"><ele>524.0</ele><time>2026-04-26T16:03:15.991Z</time></trkpt><trkpt lat="41.5272659" lon="14.40263"><ele>524.0</ele><time>2026-04-26T16:03:16.991Z</time></trkpt><trkpt lat="41.5270757" lon="14.4030145"><ele>524.0</ele><time>2026-04-26T16:03:17.991Z</time></trkpt><trkpt lat="41.526885" lon="14.4033967"><ele>523.5</ele><time>2026-04-26T16:03:18.991Z</time></trkpt><trkpt lat="41.5266907" lon="14.4037891"><ele>523.0</ele><time>2026-04-26T16:03:19.991Z</time></trkpt><trkpt lat="41.5264964" lon="14.4041818"><ele>523.0</ele><time>2026-04-26T16:03:20.991Z</time></trkpt><trkpt lat="41.5263002" lon="14.4045667"><ele>523.0</ele><time>2026-04-26T16:03:21.991Z</time></trkpt><trkpt lat="41.5261157" lon="14.4049504"><ele>523.0</ele><time>2026-04-26T16:03:22.991Z</time></trkpt><trkpt lat="41.5259323" lon="14.405323"><ele>523.0</ele><time>2026-04-26T16:03:23.991Z</time></trkpt><trkpt lat="41.5257498" lon="14.4056761"><ele>522.5</ele><time>2026-04-26T16:03:24.991Z</time></trkpt><trkpt lat="41.5255719" lon="14.4060382"><ele>522.0</ele><time>2026-04-26T16:03:25.991Z</time></trkpt><trkpt lat="41.5253934" lon="14.4063935"><ele>521.5</ele><time>2026-04-26T16:03:26.991Z</time></trkpt><trkpt lat="41.52521" lon="14.4067554"><ele>521.0</ele><time>2026-04-26T16:03:27.991Z</time></trkpt><trkpt lat="41.5250242" lon="14.4071202"><ele>520.5</ele><time>2026-04-26T16:03:28.991Z</time></trkpt><trkpt lat="41.5248431" lon="14.4074923"><ele>520.0</ele><time>2026-04-26T16:03:29.992Z</time></trkpt><trkpt lat="41.5246585" lon="14.4078623"><ele>520.0</ele><time>2026-04-26T16:03:30.991Z</time></trkpt><trkpt lat="41.5244729" lon="14.4082315"><ele>520.0</ele><time>2026-04-26T16:03:31.991Z</time></trkpt><trkpt lat="41.5242857" lon="14.4085982"><ele>520.0</ele><time>2026-04-26T16:03:32.992Z</time></trkpt><trkpt lat="41.5241059" lon="14.4089616"><ele>520.0</ele><time>2026-04-26T16:03:33.991Z</time></trkpt><trkpt lat="41.5239293" lon="14.4093338"><ele>520.0</ele><time>2026-04-26T16:03:34.991Z</time></trkpt><trkpt lat="41.5237461" lon="14.4097148"><ele>520.0</ele><time>2026-04-26T16:03:35.991Z</time></trkpt><trkpt lat="41.5235575" lon="14.4101033"><ele>520.5</ele><time>2026-04-26T16:03:36.991Z</time></trkpt><trkpt lat="41.5233662" lon="14.4105067"><ele>521.0</ele><time>2026-04-26T16:03:37.991Z</time></trkpt><trkpt lat="41.5231689" lon="14.4109081"><ele>521.0</ele><time>2026-04-26T16:03:38.991Z</time></trkpt><trkpt lat="41.5229706" lon="14.4113089"><ele>521.0</ele><time>2026-04-26T16:03:39.991Z</time></trkpt><trkpt lat="41.522772" lon="14.411702"><ele>520.0</ele><time>2026-04-26T16:03:40.991Z</time></trkpt><trkpt lat="41.5225707" lon="14.4120905"><ele>519.0</ele><time>2026-04-26T16:03:41.991Z</time></trkpt><trkpt lat="41.5223705" lon="14.4124731"><ele>519.0</ele><time>2026-04-26T16:03:42.991Z</time></trkpt><trkpt lat="41.5221703" lon="14.4128669"><ele>519.0</ele><time>2026-04-26T16:03:43.992Z</time></trkpt><trkpt lat="41.5219711" lon="14.4132637"><ele>518.5</ele><time>2026-04-26T16:03:44.991Z</time></trkpt><trkpt lat="41.521776" lon="14.4136538"><ele>518.0</ele><time>2026-04-26T16:03:45.991Z</time></trkpt><trkpt lat="41.5215879" lon="14.4140349"><ele>518.0</ele><time>2026-04-26T16:03:46.991Z</time></trkpt><trkpt lat="41.5213964" lon="14.4144135"><ele>518.0</ele><time>2026-04-26T16:03:47.991Z</time></trkpt><trkpt lat="41.5212043" lon="14.4147973"><ele>518.0</ele><time>2026-04-26T16:03:48.991Z</time></trkpt><trkpt lat="41.5210149" lon="14.4151795"><ele>518.0</ele><time>2026-04-26T16:03:49.991Z</time></trkpt><trkpt lat="41.5208239" lon="14.4155661"><ele>518.0</ele><time>2026-04-26T16:03:50.991Z</time></trkpt><trkpt lat="41.5206316" lon="14.4159566"><ele>518.0</ele><time>2026-04-26T16:03:51.991Z</time></trkpt><trkpt lat="41.5204357" lon="14.4163493"><ele>517.5</ele><time>2026-04-26T16:03:52.991Z</time></trkpt><trkpt lat="41.5202359" lon="14.416745"><ele>517.0</ele><time>2026-04-26T16:03:53.991Z</time></trkpt><trkpt lat="41.5200437" lon="14.4171344"><ele>517.5</ele><time>2026-04-26T16:03:54.991Z</time></trkpt><trkpt lat="41.5198569" lon="14.4175112"><ele>518.0</ele><time>2026-04-26T16:03:55.992Z</time></trkpt><trkpt lat="41.5196716" lon="14.41788"><ele>516.5</ele><time>2026-04-26T16:03:56.991Z</time></trkpt><trkpt lat="41.5194838" lon="14.4182461"><ele>515.0</ele><time>2026-04-26T16:03:57.991Z</time></trkpt><trkpt lat="41.5192961" lon="14.4186188"><ele>514.5</ele><time>2026-04-26T16:03:58.991Z</time></trkpt><trkpt lat="41.519116" lon="14.4189846"><ele>514.0</ele><time>2026-04-26T16:03:59.991Z</time></trkpt><trkpt lat="41.518937" lon="14.4193392"><ele>514.0</ele><time>2026-04-26T16:04:00.991Z</time></trkpt><trkpt lat="41.5187671" lon="14.4196827"><ele>514.0</ele><time>2026-04-26T16:04:01.991Z</time></trkpt><trkpt lat="41.5186028" lon="14.4200183"><ele>514.5</ele><time>2026-04-26T16:04:02.991Z</time></trkpt><trkpt lat="41.5184456" lon="14.4203282"><ele>515.0</ele><time>2026-04-26T16:04:03.991Z</time></trkpt><trkpt lat="41.5182989" lon="14.4206275"><ele>515.0</ele><time>2026-04-26T16:04:04.991Z</time></trkpt><trkpt lat="41.5181514" lon="14.4209261"><ele>515.0</ele><time>2026-04-26T16:04:05.991Z</time></trkpt><trkpt lat="41.5180051" lon="14.4212323"><ele>515.0</ele><time>2026-04-26T16:04:06.991Z</time></trkpt><trkpt lat="41.5178494" lon="14.4215304"><ele>515.0</ele><time>2026-04-26T16:04:07.991Z</time></trkpt><trkpt lat="41.5176975" lon="14.4218331"><ele>515.0</ele><time>2026-04-26T16:04:08.991Z</time></trkpt><trkpt lat="41.5175499" lon="14.4221285"><ele>515.0</ele><time>2026-04-26T16:04:09.991Z</time></trkpt><trkpt lat="41.5173988" lon="14.4224268"><ele>515.0</ele><time>2026-04-26T16:04:10.991Z</time></trkpt><trkpt lat="41.5172463" lon="14.4227306"><ele>515.0</ele><time>2026-04-26T16:04:11.992Z</time></trkpt><trkpt lat="41.5170928" lon="14.4230435"><ele>514.0</ele><time>2026-04-26T16:04:12.991Z</time></trkpt><trkpt lat="41.5169324" lon="14.4233751"><ele>513.0</ele><time>2026-04-26T16:04:13.991Z</time></trkpt><trkpt lat="41.5167566" lon="14.4237402"><ele>513.0</ele><time>2026-04-26T16:04:14.991Z</time></trkpt><trkpt lat="41.5165731" lon="14.4241171"><ele>513.0</ele><time>2026-04-26T16:04:15.991Z</time></trkpt><trkpt lat="41.5163781" lon="14.4245073"><ele>513.5</ele><time>2026-04-26T16:04:16.991Z</time></trkpt><trkpt lat="41.5161816" lon="14.4248903"><ele>514.0</ele><time>2026-04-26T16:04:17.991Z</time></trkpt><trkpt lat="41.5159846" lon="14.4252732"><ele>514.0</ele><time>2026-04-26T16:04:18.991Z</time></trkpt><trkpt lat="41.5157923" lon="14.4256624"><ele>514.0</ele><time>2026-04-26T16:04:19.991Z</time></trkpt><trkpt lat="41.5155984" lon="14.4260532"><ele>514.5</ele><time>2026-04-26T16:04:20.991Z</time></trkpt><trkpt lat="41.5154059" lon="14.4264366"><ele>515.0</ele><time>2026-04-26T16:04:21.991Z</time></trkpt><trkpt lat="41.515215" lon="14.4268137"><ele>514.0</ele><time>2026-04-26T16:04:22.991Z</time></trkpt><trkpt lat="41.5150293" lon="14.42719"><ele>513.0</ele><time>2026-04-26T16:04:23.991Z</time></trkpt><trkpt lat="41.5148376" lon="14.4275611"><ele>513.0</ele><time>2026-04-26T16:04:24.991Z</time></trkpt><trkpt lat="41.5146509" lon="14.4279428"><ele>513.0</ele><time>2026-04-26T16:04:25.991Z</time></trkpt><trkpt lat="41.514458" lon="14.4283277"><ele>513.5</ele><time>2026-04-26T16:04:26.991Z</time></trkpt><trkpt lat="41.5142657" lon="14.4287117"><ele>514.0</ele><time>2026-04-26T16:04:27.991Z</time></trkpt><trkpt lat="41.5140835" lon="14.4290889"><ele>514.0</ele><time>2026-04-26T16:04:28.991Z</time></trkpt><trkpt lat="41.5139145" lon="14.4294357"><ele>514.0</ele><time>2026-04-26T16:04:29.998Z</time></trkpt><trkpt lat="41.5137427" lon="14.4297614"><ele>513.0</ele><time>2026-04-26T16:04:30.999Z</time></trkpt><trkpt lat="41.5135894" lon="14.4300729"><ele>512.0</ele><time>2026-04-26T16:04:31.998Z</time></trkpt><trkpt lat="41.5134404" lon="14.4303676"><ele>512.0</ele><time>2026-04-26T16:04:32.998Z</time></trkpt><trkpt lat="41.5132888" lon="14.4306644"><ele>512.0</ele><time>2026-04-26T16:04:33.998Z</time></trkpt><trkpt lat="41.5131375" lon="14.4309719"><ele>512.0</ele><time>2026-04-26T16:04:34.999Z</time></trkpt><trkpt lat="41.5129866" lon="14.4312791"><ele>512.0</ele><time>2026-04-26T16:04:35.998Z</time></trkpt><trkpt lat="41.512841" lon="14.4315752"><ele>512.0</ele><time>2026-04-26T16:04:36.998Z</time></trkpt><trkpt lat="41.5127058" lon="14.4318482"><ele>512.0</ele><time>2026-04-26T16:04:37.998Z</time></trkpt><trkpt lat="41.5125786" lon="14.4321087"><ele>512.0</ele><time>2026-04-26T16:04:38.998Z</time></trkpt><trkpt lat="41.5124548" lon="14.4323448"><ele>512.0</ele><time>2026-04-26T16:04:39.998Z</time></trkpt><trkpt lat="41.5123398" lon="14.4325681"><ele>512.0</ele><time>2026-04-26T16:04:40.998Z</time></trkpt><trkpt lat="41.512234" lon="14.4327863"><ele>512.3333333333333</ele><time>2026-04-26T16:04:41.998Z</time></trkpt><trkpt lat="41.5121275" lon="14.4329991"><ele>512.6666666666666</ele><time>2026-04-26T16:04:42.998Z</time></trkpt><trkpt lat="41.5120214" lon="14.4332017"><ele>513.0</ele><time>2026-04-26T16:04:43.998Z</time></trkpt><trkpt lat="41.5119202" lon="14.4334037"><ele>513.0</ele><time>2026-04-26T16:04:44.998Z</time></trkpt><trkpt lat="41.5118301" lon="14.4335945"><ele>513.0</ele><time>2026-04-26T16:04:45.998Z</time></trkpt><trkpt lat="41.5117394" lon="14.4337772"><ele>513.0</ele><time>2026-04-26T16:04:46.999Z</time></trkpt><trkpt lat="41.5116506" lon="14.4339465"><ele>513.0</ele><time>2026-04-26T16:04:47.999Z</time></trkpt><trkpt lat="41.5115648" lon="14.4341117"><ele>513.0</ele><time>2026-04-26T16:04:48.998Z</time></trkpt><trkpt lat="41.5114783" lon="14.4342812"><ele>513.0</ele><time>2026-04-26T16:04:49.998Z</time></trkpt><trkpt lat="41.5113899" lon="14.4344523"><ele>513.0</ele><time>2026-04-26T16:04:50.998Z</time></trkpt><trkpt lat="41.5112967" lon="14.4346261"><ele>513.0</ele><time>2026-04-26T16:04:51.998Z</time></trkpt><trkpt lat="41.5112052" lon="14.4348009"><ele>513.0</ele><time>2026-04-26T16:04:52.998Z</time></trkpt><trkpt lat="41.5111173" lon="14.4349723"><ele>513.0</ele><time>2026-04-26T16:04:53.998Z</time></trkpt><trkpt lat="41.5110281" lon="14.4351484"><ele>513.0</ele><time>2026-04-26T16:04:54.998Z</time></trkpt><trkpt lat="41.5109505" lon="14.4353052"><ele>513.0</ele><time>2026-04-26T16:04:55.998Z</time></trkpt><trkpt lat="41.5108814" lon="14.435441"><ele>513.0</ele><time>2026-04-26T16:04:56.998Z</time></trkpt><trkpt lat="41.510816" lon="14.4355482"><ele>513.0</ele><time>2026-04-26T16:04:57.998Z</time></trkpt><trkpt lat="41.5107521" lon="14.4356394"><ele>513.0</ele><time>2026-04-26T16:04:58.998Z</time></trkpt><trkpt lat="41.5106857" lon="14.4357065"><ele>513.0</ele><time>2026-04-26T16:04:59.999Z</time></trkpt><trkpt lat="41.5106231" lon="14.4357569"><ele>513.0</ele><time>2026-04-26T16:05:00.998Z</time></trkpt><trkpt lat="41.5105582" lon="14.4357757"><ele>513.0</ele><time>2026-04-26T16:05:01.998Z</time></trkpt><trkpt lat="41.510489" lon="14.4357903"><ele>513.0</ele><time>2026-04-26T16:05:02.998Z</time></trkpt><trkpt lat="41.510418" lon="14.4358265"><ele>512.8</ele><time>2026-04-26T16:05:03.998Z</time></trkpt><trkpt lat="41.5103667" lon="14.4359021"><ele>512.5999999999999</ele><time>2026-04-26T16:05:04.998Z</time></trkpt><trkpt lat="41.510327" lon="14.4360082"><ele>512.4000000000001</ele><time>2026-04-26T16:05:05.998Z</time></trkpt><trkpt lat="41.510322" lon="14.4361428"><ele>512.2</ele><time>2026-04-26T16:05:06.999Z</time></trkpt><trkpt lat="41.510319" lon="14.4363051"><ele>512.0</ele><time>2026-04-26T16:05:07.998Z</time></trkpt><trkpt lat="41.5102891" lon="14.4364998"><ele>512.0</ele><time>2026-04-26T16:05:08.998Z</time></trkpt><trkpt lat="41.5102091" lon="14.4367232"><ele>512.0</ele><time>2026-04-26T16:05:09.998Z</time></trkpt><trkpt lat="41.5101086" lon="14.4369675"><ele>512.0</ele><time>2026-04-26T16:05:10.998Z</time></trkpt><trkpt lat="41.5099751" lon="14.4372274"><ele>511.5</ele><time>2026-04-26T16:05:11.998Z</time></trkpt><trkpt lat="41.5098265" lon="14.4375078"><ele>511.0</ele><time>2026-04-26T16:05:12.998Z</time></trkpt><trkpt lat="41.5096751" lon="14.4378073"><ele>512.0</ele><time>2026-04-26T16:05:13.998Z</time></trkpt><trkpt lat="41.5095109" lon="14.4381401"><ele>513.0</ele><time>2026-04-26T16:05:14.998Z</time></trkpt><trkpt lat="41.5093358" lon="14.4384942"><ele>511.5</ele><time>2026-04-26T16:05:15.998Z</time></trkpt><trkpt lat="41.5091479" lon="14.4388683"><ele>510.0</ele><time>2026-04-26T16:05:16.998Z</time></trkpt><trkpt lat="41.5089572" lon="14.4392469"><ele>510.0</ele><time>2026-04-26T16:05:17.998Z</time></trkpt><trkpt lat="41.5087616" lon="14.4396322"><ele>510.0</ele><time>2026-04-26T16:05:18.998Z</time></trkpt><trkpt lat="41.5085654" lon="14.4400262"><ele>510.0</ele><time>2026-04-26T16:05:19.998Z</time></trkpt><trkpt lat="41.5083751" lon="14.440405"><ele>510.0</ele><time>2026-04-26T16:05:20.998Z</time></trkpt><trkpt lat="41.5081972" lon="14.4407592"><ele>510.0</ele><time>2026-04-26T16:05:21.998Z</time></trkpt><trkpt lat="41.5080287" lon="14.4410863"><ele>510.0</ele><time>2026-04-26T16:05:22.998Z</time></trkpt><trkpt lat="41.5078762" lon="14.4414093"><ele>509.0</ele><time>2026-04-26T16:05:23.998Z</time></trkpt><trkpt lat="41.5077246" lon="14.4417202"><ele>508.0</ele><time>2026-04-26T16:05:24.998Z</time></trkpt><trkpt lat="41.5075659" lon="14.4420298"><ele>508.0</ele><time>2026-04-26T16:05:25.998Z</time></trkpt><trkpt lat="41.5074085" lon="14.4423509"><ele>508.0</ele><time>2026-04-26T16:05:26.998Z</time></trkpt><trkpt lat="41.5072472" lon="14.4426741"><ele>508.0</ele><time>2026-04-26T16:05:27.998Z</time></trkpt><trkpt lat="41.507088" lon="14.4430024"><ele>508.0</ele><time>2026-04-26T16:05:28.998Z</time></trkpt><trkpt lat="41.5069278" lon="14.4433267"><ele>508.0</ele><time>2026-04-26T16:05:29.998Z</time></trkpt><trkpt lat="41.5067669" lon="14.44365"><ele>508.0</ele><time>2026-04-26T16:05:30.998Z</time></trkpt><trkpt lat="41.5066066" lon="14.4439602"><ele>508.0</ele><time>2026-04-26T16:05:31.998Z</time></trkpt><trkpt lat="41.5064497" lon="14.4442753"><ele>508.0</ele><time>2026-04-26T16:05:32.999Z</time></trkpt><trkpt lat="41.5062923" lon="14.4446031"><ele>508.0</ele><time>2026-04-26T16:05:33.998Z</time></trkpt><trkpt lat="41.5061301" lon="14.4449344"><ele>508.0</ele><time>2026-04-26T16:05:34.998Z</time></trkpt><trkpt lat="41.505954" lon="14.4452786"><ele>507.5</ele><time>2026-04-26T16:05:35.998Z</time></trkpt><trkpt lat="41.5057674" lon="14.4456281"><ele>507.0</ele><time>2026-04-26T16:05:36.998Z</time></trkpt><trkpt lat="41.5055891" lon="14.445998"><ele>506.0</ele><time>2026-04-26T16:05:37.998Z</time></trkpt><trkpt lat="41.5054013" lon="14.4463727"><ele>505.0</ele><time>2026-04-26T16:05:38.998Z</time></trkpt><trkpt lat="41.5052151" lon="14.4467469"><ele>505.0</ele><time>2026-04-26T16:05:39.998Z</time></trkpt><trkpt lat="41.5050274" lon="14.4471143"><ele>505.0</ele><time>2026-04-26T16:05:40.998Z</time></trkpt><trkpt lat="41.5048439" lon="14.4474817"><ele>505.0</ele><time>2026-04-26T16:05:41.999Z</time></trkpt><trkpt lat="41.5046691" lon="14.4478266"><ele>505.0</ele><time>2026-04-26T16:05:42.998Z</time></trkpt><trkpt lat="41.5045" lon="14.4481504"><ele>504.0</ele><time>2026-04-26T16:05:43.998Z</time></trkpt><trkpt lat="41.5043381" lon="14.4484731"><ele>503.0</ele><time>2026-04-26T16:05:44.999Z</time></trkpt><trkpt lat="41.5041858" lon="14.4487891"><ele>503.0</ele><time>2026-04-26T16:05:45.998Z</time></trkpt><trkpt lat="41.5040403" lon="14.4490979"><ele>503.0</ele><time>2026-04-26T16:05:46.998Z</time></trkpt><trkpt lat="41.5038967" lon="14.449404"><ele>503.0</ele><time>2026-04-26T16:05:47.998Z</time></trkpt><trkpt lat="41.5037528" lon="14.4497122"><ele>503.0</ele><time>2026-04-26T16:05:48.998Z</time></trkpt><trkpt lat="41.5036032" lon="14.4500308"><ele>502.5</ele><time>2026-04-26T16:05:49.998Z</time></trkpt><trkpt lat="41.5034533" lon="14.4503491"><ele>502.0</ele><time>2026-04-26T16:05:50.998Z</time></trkpt><trkpt lat="41.5033" lon="14.4506713"><ele>501.5</ele><time>2026-04-26T16:05:51.998Z</time></trkpt><trkpt lat="41.5031472" lon="14.4510026"><ele>501.0</ele><time>2026-04-26T16:05:52.998Z</time></trkpt><trkpt lat="41.5029894" lon="14.4513324"><ele>501.0</ele><time>2026-04-26T16:05:53.999Z</time></trkpt><trkpt lat="41.5028294" lon="14.4516579"><ele>501.0</ele><time>2026-04-26T16:05:54.998Z</time></trkpt><trkpt lat="41.5026759" lon="14.45198"><ele>500.5</ele><time>2026-04-26T16:05:55.998Z</time></trkpt><trkpt lat="41.5025271" lon="14.4523027"><ele>500.0</ele><time>2026-04-26T16:05:56.998Z</time></trkpt><trkpt lat="41.5023764" lon="14.4526296"><ele>500.0</ele><time>2026-04-26T16:05:57.998Z</time></trkpt><trkpt lat="41.5022241" lon="14.452961"><ele>500.0</ele><time>2026-04-26T16:05:58.999Z</time></trkpt><trkpt lat="41.5020697" lon="14.4532882"><ele>500.0</ele><time>2026-04-26T16:05:59.998Z</time></trkpt><trkpt lat="41.5019164" lon="14.4536147"><ele>500.0</ele><time>2026-04-26T16:06:00.998Z</time></trkpt><trkpt lat="41.5017662" lon="14.453948"><ele>500.0</ele><time>2026-04-26T16:06:01.998Z</time></trkpt><trkpt lat="41.50161" lon="14.4542869"><ele>500.0</ele><time>2026-04-26T16:06:02.998Z</time></trkpt><trkpt lat="41.5014532" lon="14.4546294"><ele>500.0</ele><time>2026-04-26T16:06:03.998Z</time></trkpt><trkpt lat="41.5012945" lon="14.4549725"><ele>500.0</ele><time>2026-04-26T16:06:04.998Z</time></trkpt><trkpt lat="41.5011352" lon="14.4553185"><ele>499.5</ele><time>2026-04-26T16:06:05.998Z</time></trkpt><trkpt lat="41.5009742" lon="14.4556658"><ele>499.0</ele><time>2026-04-26T16:06:06.998Z</time></trkpt><trkpt lat="41.5008132" lon="14.4560102"><ele>498.5</ele><time>2026-04-26T16:06:07.998Z</time></trkpt><trkpt lat="41.5006564" lon="14.4563429"><ele>498.0</ele><time>2026-04-26T16:06:08.998Z</time></trkpt><trkpt lat="41.5004988" lon="14.456679"><ele>498.5</ele><time>2026-04-26T16:06:09.998Z</time></trkpt><trkpt lat="41.5003416" lon="14.4570175"><ele>499.0</ele><time>2026-04-26T16:06:10.998Z</time></trkpt><trkpt lat="41.5001822" lon="14.4573437"><ele>498.0</ele><time>2026-04-26T16:06:11.999Z</time></trkpt><trkpt lat="41.5000339" lon="14.4576512"><ele>497.0</ele><time>2026-04-26T16:06:12.998Z</time></trkpt><trkpt lat="41.4998969" lon="14.4579401"><ele>496.5</ele><time>2026-04-26T16:06:13.998Z</time></trkpt><trkpt lat="41.4997683" lon="14.4582166"><ele>496.0</ele><time>2026-04-26T16:06:14.998Z</time></trkpt><trkpt lat="41.4996486" lon="14.4584887"><ele>496.0</ele><time>2026-04-26T16:06:15.998Z</time></trkpt><trkpt lat="41.4995282" lon="14.4587489"><ele>496.0</ele><time>2026-04-26T16:06:16.998Z</time></trkpt><trkpt lat="41.4994104" lon="14.4590004"><ele>496.33333333333337</ele><time>2026-04-26T16:06:17.998Z</time></trkpt><trkpt lat="41.4992927" lon="14.4592472"><ele>496.66666666666663</ele><time>2026-04-26T16:06:18.998Z</time></trkpt><trkpt lat="41.4991807" lon="14.4594967"><ele>497.0</ele><time>2026-04-26T16:06:19.998Z</time></trkpt><trkpt lat="41.499069" lon="14.45973"><ele>497.3333333333333</ele><time>2026-04-26T16:06:20.998Z</time></trkpt><trkpt lat="41.4989632" lon="14.4599445"><ele>497.66666666666663</ele><time>2026-04-26T16:06:21.998Z</time></trkpt><trkpt lat="41.4988776" lon="14.4601364"><ele>498.0</ele><time>2026-04-26T16:06:22.998Z</time></trkpt><trkpt lat="41.4988042" lon="14.4603032"><ele>498.0</ele><time>2026-04-26T16:06:23.998Z</time></trkpt><trkpt lat="41.4987337" lon="14.4604417"><ele>497.99999999999994</ele><time>2026-04-26T16:06:24.998Z</time></trkpt><trkpt lat="41.4986571" lon="14.4605479"><ele>497.99999999999994</ele><time>2026-04-26T16:06:25.998Z</time></trkpt><trkpt lat="41.4985737" lon="14.4606252"><ele>498.0</ele><time>2026-04-26T16:06:26.998Z</time></trkpt><trkpt lat="41.4984942" lon="14.4606927"><ele>498.0</ele><time>2026-04-26T16:06:27.998Z</time></trkpt><trkpt lat="41.4984323" lon="14.4607677"><ele>497.8333333333333</ele><time>2026-04-26T16:06:28.998Z</time></trkpt><trkpt lat="41.4984024" lon="14.4608543"><ele>497.66666666666663</ele><time>2026-04-26T16:06:29.998Z</time></trkpt><trkpt lat="41.4983972" lon="14.4609482"><ele>497.5</ele><time>2026-04-26T16:06:30.998Z</time></trkpt><trkpt lat="41.4983946" lon="14.4610462"><ele>497.3333333333333</ele><time>2026-04-26T16:06:31.998Z</time></trkpt><trkpt lat="41.4983735" lon="14.4611507"><ele>497.16666666666663</ele><time>2026-04-26T16:06:32.998Z</time></trkpt><trkpt lat="41.4983351" lon="14.4612572"><ele>497.0</ele><time>2026-04-26T16:06:33.999Z</time></trkpt><trkpt lat="41.4982794" lon="14.4613858"><ele>496.0</ele><time>2026-04-26T16:06:34.998Z</time></trkpt><trkpt lat="41.4982108" lon="14.4615663"><ele>495.0</ele><time>2026-04-26T16:06:35.998Z</time></trkpt><trkpt lat="41.4981172" lon="14.46179"><ele>494.0</ele><time>2026-04-26T16:06:36.998Z</time></trkpt><trkpt lat="41.4980021" lon="14.462076"><ele>493.0</ele><time>2026-04-26T16:06:37.998Z</time></trkpt><trkpt lat="41.4978616" lon="14.4624061"><ele>492.0</ele><time>2026-04-26T16:06:38.999Z</time></trkpt><trkpt lat="41.4976987" lon="14.4627589"><ele>492.0</ele><time>2026-04-26T16:06:39.998Z</time></trkpt><trkpt lat="41.4975435" lon="14.4630777"><ele>492.0</ele><time>2026-04-26T16:06:40.998Z</time></trkpt><trkpt lat="41.4973838" lon="14.4634159"><ele>492.0</ele><time>2026-04-26T16:06:41.998Z</time></trkpt><trkpt lat="41.4972211" lon="14.4637692"><ele>492.0</ele><time>2026-04-26T16:06:42.998Z</time></trkpt><trkpt lat="41.4970601" lon="14.4641284"><ele>492.5</ele><time>2026-04-26T16:06:43.998Z</time></trkpt><trkpt lat="41.4968991" lon="14.4644758"><ele>493.0</ele><time>2026-04-26T16:06:44.998Z</time></trkpt><trkpt lat="41.4967417" lon="14.4648093"><ele>493.5</ele><time>2026-04-26T16:06:45.998Z</time></trkpt><trkpt lat="41.4965897" lon="14.4651334"><ele>494.0</ele><time>2026-04-26T16:06:46.998Z</time></trkpt><trkpt lat="41.4964388" lon="14.4654545"><ele>492.5</ele><time>2026-04-26T16:06:47.998Z</time></trkpt><trkpt lat="41.4962845" lon="14.4657865"><ele>491.0</ele><time>2026-04-26T16:06:48.998Z</time></trkpt><trkpt lat="41.4961322" lon="14.4661128"><ele>490.5</ele><time>2026-04-26T16:06:49.998Z</time></trkpt><trkpt lat="41.4959894" lon="14.4664177"><ele>490.0</ele><time>2026-04-26T16:06:50.998Z</time></trkpt><trkpt lat="41.4958495" lon="14.466719"><ele>490.0</ele><time>2026-04-26T16:06:51.998Z</time></trkpt><trkpt lat="41.4957117" lon="14.4670181"><ele>490.0</ele><time>2026-04-26T16:06:52.998Z</time></trkpt><trkpt lat="41.4955718" lon="14.4673161"><ele>489.5</ele><time>2026-04-26T16:06:53.998Z</time></trkpt><trkpt lat="41.4954367" lon="14.4676108"><ele>489.0</ele><time>2026-04-26T16:06:54.999Z</time></trkpt><trkpt lat="41.4952972" lon="14.4679114"><ele>489.0</ele><time>2026-04-26T16:06:55.998Z</time></trkpt><trkpt lat="41.4951497" lon="14.468228"><ele>489.0</ele><time>2026-04-26T16:06:56.998Z</time></trkpt><trkpt lat="41.4949966" lon="14.4685719"><ele>488.5</ele><time>2026-04-26T16:06:57.998Z</time></trkpt><trkpt lat="41.4948334" lon="14.468914"><ele>488.0</ele><time>2026-04-26T16:06:58.998Z</time></trkpt><trkpt lat="41.4946728" lon="14.4692651"><ele>487.5</ele><time>2026-04-26T16:06:59.998Z</time></trkpt><trkpt lat="41.4945108" lon="14.4696224"><ele>487.0</ele><time>2026-04-26T16:07:00.998Z</time></trkpt><trkpt lat="41.49434" lon="14.4699835"><ele>487.0</ele><time>2026-04-26T16:07:01.998Z</time></trkpt><trkpt lat="41.4941684" lon="14.470347"><ele>487.0</ele><time>2026-04-26T16:07:02.998Z</time></trkpt><trkpt lat="41.4939996" lon="14.4707131"><ele>486.5</ele><time>2026-04-26T16:07:03.998Z</time></trkpt><trkpt lat="41.4938331" lon="14.4710826"><ele>486.0</ele><time>2026-04-26T16:07:04.998Z</time></trkpt><trkpt lat="41.4936675" lon="14.4714493"><ele>486.0</ele><time>2026-04-26T16:07:05.998Z</time></trkpt><trkpt lat="41.4935064" lon="14.4717975"><ele>486.0</ele><time>2026-04-26T16:07:06.998Z</time></trkpt><trkpt lat="41.4933523" lon="14.4721391"><ele>486.5</ele><time>2026-04-26T16:07:07.998Z</time></trkpt><trkpt lat="41.4931959" lon="14.4724604"><ele>487.0</ele><time>2026-04-26T16:07:08.998Z</time></trkpt><trkpt lat="41.4930451" lon="14.4727873"><ele>485.0</ele><time>2026-04-26T16:07:09.998Z</time></trkpt><trkpt lat="41.4928895" lon="14.4731128"><ele>483.0</ele><time>2026-04-26T16:07:10.998Z</time></trkpt><trkpt lat="41.4927339" lon="14.4734387"><ele>483.0</ele><time>2026-04-26T16:07:11.998Z</time></trkpt><trkpt lat="41.4925817" lon="14.4737532"><ele>483.0</ele><time>2026-04-26T16:07:12.998Z</time></trkpt><trkpt lat="41.4924346" lon="14.4740789"><ele>483.0</ele><time>2026-04-26T16:07:13.998Z</time></trkpt><trkpt lat="41.4922895" lon="14.474407"><ele>483.0</ele><time>2026-04-26T16:07:14.998Z</time></trkpt><trkpt lat="41.4921404" lon="14.4747249"><ele>483.5</ele><time>2026-04-26T16:07:15.998Z</time></trkpt><trkpt lat="41.4919958" lon="14.4750341"><ele>484.0</ele><time>2026-04-26T16:07:16.998Z</time></trkpt><trkpt lat="41.4918586" lon="14.4753393"><ele>483.5</ele><time>2026-04-26T16:07:17.998Z</time></trkpt><trkpt lat="41.4917302" lon="14.4756298"><ele>483.0</ele><time>2026-04-26T16:07:18.998Z</time></trkpt><trkpt lat="41.4916097" lon="14.4758879"><ele>483.0</ele><time>2026-04-26T16:07:19.998Z</time></trkpt><trkpt lat="41.4915005" lon="14.4761254"><ele>483.0</ele><time>2026-04-26T16:07:20.998Z</time></trkpt><trkpt lat="41.4913982" lon="14.4763441"><ele>483.0</ele><time>2026-04-26T16:07:21.998Z</time></trkpt><trkpt lat="41.4913005" lon="14.4765554"><ele>482.66666666666663</ele><time>2026-04-26T16:07:22.998Z</time></trkpt><trkpt lat="41.491203" lon="14.4767578"><ele>482.3333333333333</ele><time>2026-04-26T16:07:23.998Z</time></trkpt><trkpt lat="41.4911093" lon="14.4769606"><ele>482.0</ele><time>2026-04-26T16:07:24.998Z</time></trkpt><trkpt lat="41.4910157" lon="14.477166"><ele>482.66666666666663</ele><time>2026-04-26T16:07:25.998Z</time></trkpt><trkpt lat="41.4909255" lon="14.4773607"><ele>483.33333333333337</ele><time>2026-04-26T16:07:26.998Z</time></trkpt><trkpt lat="41.490843" lon="14.4775438"><ele>484.0</ele><time>2026-04-26T16:07:27.998Z</time></trkpt><trkpt lat="41.4907701" lon="14.4777095"><ele>484.0</ele><time>2026-04-26T16:07:28.998Z</time></trkpt><trkpt lat="41.490699" lon="14.4778571"><ele>484.0</ele><time>2026-04-26T16:07:29.998Z</time></trkpt><trkpt lat="41.4906319" lon="14.4780005"><ele>484.0</ele><time>2026-04-26T16:07:30.998Z</time></trkpt><trkpt lat="41.4905655" lon="14.4781378"><ele>484.0</ele><time>2026-04-26T16:07:31.998Z</time></trkpt><trkpt lat="41.4905003" lon="14.4782683"><ele>484.0</ele><time>2026-04-26T16:07:32.998Z</time></trkpt><trkpt lat="41.490437" lon="14.4783934"><ele>484.0</ele><time>2026-04-26T16:07:33.998Z</time></trkpt><trkpt lat="41.4903749" lon="14.4785199"><ele>484.0</ele><time>2026-04-26T16:07:34.998Z</time></trkpt><trkpt lat="41.4903082" lon="14.4786495"><ele>484.0</ele><time>2026-04-26T16:07:35.998Z</time></trkpt><trkpt lat="41.4902304" lon="14.478787"><ele>483.75</ele><time>2026-04-26T16:07:36.999Z</time></trkpt><trkpt lat="41.4901493" lon="14.4789327"><ele>483.5</ele><time>2026-04-26T16:07:37.998Z</time></trkpt><trkpt lat="41.4900638" lon="14.4790851"><ele>483.25</ele><time>2026-04-26T16:07:38.998Z</time></trkpt><trkpt lat="41.4899888" lon="14.4792418"><ele>483.0</ele><time>2026-04-26T16:07:39.998Z</time></trkpt><trkpt lat="41.4899254" lon="14.4793909"><ele>483.0</ele><time>2026-04-26T16:07:40.998Z</time></trkpt><trkpt lat="41.4898684" lon="14.479531"><ele>482.99999999999994</ele><time>2026-04-26T16:07:41.998Z</time></trkpt><trkpt lat="41.4898375" lon="14.4796318"><ele>482.99999999999994</ele><time>2026-04-26T16:07:42.998Z</time></trkpt><trkpt lat="41.489789" lon="14.4797552"><ele>483.0</ele><time>2026-04-26T16:07:43.998Z</time></trkpt><trkpt lat="41.4897425" lon="14.4798731"><ele>483.0</ele><time>2026-04-26T16:07:44.998Z</time></trkpt><trkpt lat="41.4896888" lon="14.4799824"><ele>482.59999999999997</ele><time>2026-04-26T16:07:45.998Z</time></trkpt><trkpt lat="41.4896357" lon="14.4801005"><ele>482.19999999999993</ele><time>2026-04-26T16:07:46.998Z</time></trkpt><trkpt lat="41.4895835" lon="14.4802225"><ele>481.8</ele><time>2026-04-26T16:07:47.998Z</time></trkpt><trkpt lat="41.4895347" lon="14.4803376"><ele>481.4</ele><time>2026-04-26T16:07:48.998Z</time></trkpt><trkpt lat="41.489472" lon="14.4804824"><ele>481.0</ele><time>2026-04-26T16:07:49.998Z</time></trkpt><trkpt lat="41.4893994" lon="14.4806463"><ele>481.0</ele><time>2026-04-26T16:07:50.998Z</time></trkpt><trkpt lat="41.4893277" lon="14.4808342"><ele>481.0</ele><time>2026-04-26T16:07:51.998Z</time></trkpt><trkpt lat="41.4892359" lon="14.4810383"><ele>481.0</ele><time>2026-04-26T16:07:52.998Z</time></trkpt><trkpt lat="41.4891372" lon="14.4812533"><ele>481.33333333333337</ele><time>2026-04-26T16:07:53.998Z</time></trkpt><trkpt lat="41.4890434" lon="14.4814559"><ele>481.66666666666663</ele><time>2026-04-26T16:07:54.998Z</time></trkpt><trkpt lat="41.4889507" lon="14.481654"><ele>482.0</ele><time>2026-04-26T16:07:55.998Z</time></trkpt><trkpt lat="41.488861" lon="14.4818499"><ele>482.0</ele><time>2026-04-26T16:07:56.998Z</time></trkpt><trkpt lat="41.4887753" lon="14.482045"><ele>482.0</ele><time>2026-04-26T16:07:57.998Z</time></trkpt><trkpt lat="41.4886823" lon="14.4822387"><ele>482.0</ele><time>2026-04-26T16:07:58.998Z</time></trkpt><trkpt lat="41.488585" lon="14.482439"><ele>480.66666666666663</ele><time>2026-04-26T16:07:59.998Z</time></trkpt><trkpt lat="41.4884833" lon="14.4826514"><ele>479.33333333333337</ele><time>2026-04-26T16:08:00.998Z</time></trkpt><trkpt lat="41.4883737" lon="14.482877"><ele>478.0</ele><time>2026-04-26T16:08:01.998Z</time></trkpt><trkpt lat="41.4882598" lon="14.4831086"><ele>478.0</ele><time>2026-04-26T16:08:02.998Z</time></trkpt><trkpt lat="41.48814" lon="14.4833425"><ele>478.0</ele><time>2026-04-26T16:08:03.998Z</time></trkpt><trkpt lat="41.4880252" lon="14.4835705"><ele>478.0</ele><time>2026-04-26T16:08:04.998Z</time></trkpt><trkpt lat="41.4879139" lon="14.4837939"><ele>478.6666666666667</ele><time>2026-04-26T16:08:05.998Z</time></trkpt><trkpt lat="41.4878072" lon="14.4840183"><ele>479.33333333333337</ele><time>2026-04-26T16:08:06.998Z</time></trkpt><trkpt lat="41.4876997" lon="14.4842428"><ele>480.0</ele><time>2026-04-26T16:08:07.999Z</time></trkpt><trkpt lat="41.4875948" lon="14.4844676"><ele>480.0</ele><time>2026-04-26T16:08:08.998Z</time></trkpt><trkpt lat="41.4874841" lon="14.4846871"><ele>480.0</ele><time>2026-04-26T16:08:09.998Z</time></trkpt><trkpt lat="41.4873743" lon="14.4849137"><ele>480.0</ele><time>2026-04-26T16:08:10.998Z</time></trkpt><trkpt lat="41.4872678" lon="14.4851418"><ele>480.0</ele><time>2026-04-26T16:08:11.998Z</time></trkpt><trkpt lat="41.4871584" lon="14.4853803"><ele>480.0</ele><time>2026-04-26T16:08:12.998Z</time></trkpt><trkpt lat="41.4870519" lon="14.4856186"><ele>480.0</ele><time>2026-04-26T16:08:13.998Z</time></trkpt><trkpt lat="41.4869409" lon="14.4858556"><ele>479.66666666666663</ele><time>2026-04-26T16:08:14.999Z</time></trkpt><trkpt lat="41.4868278" lon="14.486093"><ele>479.3333333333333</ele><time>2026-04-26T16:08:15.998Z</time></trkpt><trkpt lat="41.4867133" lon="14.4863464"><ele>479.0</ele><time>2026-04-26T16:08:16.998Z</time></trkpt><trkpt lat="41.486594" lon="14.4866065"><ele>478.66666666666663</ele><time>2026-04-26T16:08:17.998Z</time></trkpt><trkpt lat="41.4864775" lon="14.4868561"><ele>478.33333333333337</ele><time>2026-04-26T16:08:18.998Z</time></trkpt><trkpt lat="41.4863646" lon="14.4871065"><ele>478.0</ele><time>2026-04-26T16:08:19.998Z</time></trkpt><trkpt lat="41.4862525" lon="14.4873948"><ele>478.5</ele><time>2026-04-26T16:08:20.998Z</time></trkpt><trkpt lat="41.4861231" lon="14.4877193"><ele>479.0</ele><time>2026-04-26T16:08:21.999Z</time></trkpt><trkpt lat="41.4859698" lon="14.4880546"><ele>479.0</ele><time>2026-04-26T16:08:22.998Z</time></trkpt><trkpt lat="41.4858199" lon="14.4883945"><ele>479.0</ele><time>2026-04-26T16:08:23.998Z</time></trkpt><trkpt lat="41.4856654" lon="14.4887287"><ele>479.0</ele><time>2026-04-26T16:08:24.998Z</time></trkpt><trkpt lat="41.485506" lon="14.4890711"><ele>479.0</ele><time>2026-04-26T16:08:25.998Z</time></trkpt><trkpt lat="41.4853426" lon="14.4894267"><ele>480.0</ele><time>2026-04-26T16:08:26.998Z</time></trkpt><trkpt lat="41.4851782" lon="14.4897768"><ele>481.0</ele><time>2026-04-26T16:08:27.998Z</time></trkpt><trkpt lat="41.4850264" lon="14.4901301"><ele>480.0</ele><time>2026-04-26T16:08:28.999Z</time></trkpt><trkpt lat="41.4847487" lon="14.4908431"><ele>480.0</ele><time>2026-04-26T16:08:30.998Z</time></trkpt><trkpt lat="41.4846207" lon="14.4911763"><ele>480.0</ele><time>2026-04-26T16:08:31.998Z</time></trkpt><trkpt lat="41.4845101" lon="14.49152"><ele>479.0</ele><time>2026-04-26T16:08:32.998Z</time></trkpt><trkpt lat="41.4844069" lon="14.4918368"><ele>478.0</ele><time>2026-04-26T16:08:33.998Z</time></trkpt><trkpt lat="41.4843087" lon="14.4921414"><ele>477.5</ele><time>2026-04-26T16:08:34.998Z</time></trkpt><trkpt lat="41.4842047" lon="14.4924329"><ele>477.0</ele><time>2026-04-26T16:08:35.998Z</time></trkpt><trkpt lat="41.4840872" lon="14.492732"><ele>477.0</ele><time>2026-04-26T16:08:36.998Z</time></trkpt><trkpt lat="41.4839553" lon="14.4930726"><ele>477.0</ele><time>2026-04-26T16:08:37.998Z</time></trkpt><trkpt lat="41.4837901" lon="14.4934224"><ele>477.5</ele><time>2026-04-26T16:08:38.999Z</time></trkpt><trkpt lat="41.4835975" lon="14.4937805"><ele>478.0</ele><time>2026-04-26T16:08:39.998Z</time></trkpt><trkpt lat="41.4832908" lon="14.4937278"><ele>478.0</ele><time>2026-04-26T16:08:40.998Z</time></trkpt><trkpt lat="41.4831035" lon="14.4940668"><ele>478.0</ele><time>2026-04-26T16:08:41.998Z</time></trkpt><trkpt lat="41.4829337" lon="14.4943905"><ele>478.0</ele><time>2026-04-26T16:08:42.998Z</time></trkpt><trkpt lat="41.4827711" lon="14.4947039"><ele>478.0</ele><time>2026-04-26T16:08:43.998Z</time></trkpt><trkpt lat="41.4826156" lon="14.4950102"><ele>478.0</ele><time>2026-04-26T16:08:44.998Z</time></trkpt><trkpt lat="41.4824686" lon="14.4952955"><ele>478.0</ele><time>2026-04-26T16:08:45.998Z</time></trkpt><trkpt lat="41.4823349" lon="14.4955706"><ele>478.0</ele><time>2026-04-26T16:08:46.998Z</time></trkpt><trkpt lat="41.4821976" lon="14.4958414"><ele>478.0</ele><time>2026-04-26T16:08:47.998Z</time></trkpt><trkpt lat="41.4820652" lon="14.4961078"><ele>479.5</ele><time>2026-04-26T16:08:48.998Z</time></trkpt><trkpt lat="41.4819295" lon="14.4963849"><ele>481.0</ele><time>2026-04-26T16:08:49.998Z</time></trkpt><trkpt lat="41.4817865" lon="14.4966382"><ele>481.0</ele><time>2026-04-26T16:08:50.998Z</time></trkpt><trkpt lat="41.4816474" lon="14.4968842"><ele>481.0</ele><time>2026-04-26T16:08:51.998Z</time></trkpt><trkpt lat="41.4815125" lon="14.4971332"><ele>481.0</ele><time>2026-04-26T16:08:52.998Z</time></trkpt><trkpt lat="41.4813756" lon="14.4973865"><ele>481.0</ele><time>2026-04-26T16:08:53.999Z</time></trkpt><trkpt lat="41.4812426" lon="14.4976425"><ele>481.0</ele><time>2026-04-26T16:08:54.998Z</time></trkpt><trkpt lat="41.4811061" lon="14.4979089"><ele>481.0</ele><time>2026-04-26T16:08:55.998Z</time></trkpt><trkpt lat="41.4809672" lon="14.49818"><ele>481.0</ele><time>2026-04-26T16:08:56.998Z</time></trkpt><trkpt lat="41.4808305" lon="14.4984476"><ele>481.0</ele><time>2026-04-26T16:08:57.998Z</time></trkpt><trkpt lat="41.4806904" lon="14.4987174"><ele>481.5</ele><time>2026-04-26T16:08:58.998Z</time></trkpt><trkpt lat="41.4805453" lon="14.4989945"><ele>482.0</ele><time>2026-04-26T16:08:59.998Z</time></trkpt><trkpt lat="41.4803973" lon="14.4992835"><ele>484.5</ele><time>2026-04-26T16:09:00.998Z</time></trkpt><trkpt lat="41.4802384" lon="14.4995855"><ele>487.0</ele><time>2026-04-26T16:09:01.998Z</time></trkpt><trkpt lat="41.4800656" lon="14.4999162"><ele>487.0</ele><time>2026-04-26T16:09:02.998Z</time></trkpt><trkpt lat="41.4798786" lon="14.5002679"><ele>487.0</ele><time>2026-04-26T16:09:03.999Z</time></trkpt><trkpt lat="41.4796906" lon="14.5006388"><ele>488.0</ele><time>2026-04-26T16:09:04.998Z</time></trkpt><trkpt lat="41.4794952" lon="14.5010085"><ele>489.0</ele><time>2026-04-26T16:09:05.998Z</time></trkpt><trkpt lat="41.4793015" lon="14.501384"><ele>489.5</ele><time>2026-04-26T16:09:06.998Z</time></trkpt><trkpt lat="41.4791102" lon="14.5017528"><ele>490.0</ele><time>2026-04-26T16:09:07.999Z</time></trkpt><trkpt lat="41.4789187" lon="14.5021232"><ele>491.0</ele><time>2026-04-26T16:09:08.998Z</time></trkpt><trkpt lat="41.478729" lon="14.5024902"><ele>492.0</ele><time>2026-04-26T16:09:09.998Z</time></trkpt><trkpt lat="41.4785375" lon="14.5028546"><ele>492.0</ele><time>2026-04-26T16:09:10.998Z</time></trkpt><trkpt lat="41.47835" lon="14.5032135"><ele>492.0</ele><time>2026-04-26T16:09:11.998Z</time></trkpt><trkpt lat="41.4781676" lon="14.5035707"><ele>493.0</ele><time>2026-04-26T16:09:12.998Z</time></trkpt><trkpt lat="41.4779827" lon="14.5039234"><ele>494.0</ele><time>2026-04-26T16:09:13.998Z</time></trkpt><trkpt lat="41.4778031" lon="14.5042653"><ele>495.0</ele><time>2026-04-26T16:09:14.998Z</time></trkpt><trkpt lat="41.477627" lon="14.5046031"><ele>496.0</ele><time>2026-04-26T16:09:15.998Z</time></trkpt><trkpt lat="41.4774535" lon="14.5049357"><ele>496.0</ele><time>2026-04-26T16:09:16.998Z</time></trkpt><trkpt lat="41.4772827" lon="14.5052633"><ele>496.0</ele><time>2026-04-26T16:09:17.999Z</time></trkpt><trkpt lat="41.4771104" lon="14.5055902"><ele>498.0</ele><time>2026-04-26T16:09:18.998Z</time></trkpt><trkpt lat="41.476943" lon="14.5059179"><ele>500.0</ele><time>2026-04-26T16:09:19.998Z</time></trkpt><trkpt lat="41.4767766" lon="14.5062391"><ele>500.0</ele><time>2026-04-26T16:09:20.998Z</time></trkpt><trkpt lat="41.4766108" lon="14.5065477"><ele>500.0</ele><time>2026-04-26T16:09:21.998Z</time></trkpt><trkpt lat="41.4764473" lon="14.506848"><ele>499.5</ele><time>2026-04-26T16:09:22.998Z</time></trkpt><trkpt lat="41.4762883" lon="14.5071513"><ele>499.0</ele><time>2026-04-26T16:09:23.998Z</time></trkpt><trkpt lat="41.4761291" lon="14.5074641"><ele>500.0</ele><time>2026-04-26T16:09:24.998Z</time></trkpt><trkpt lat="41.4759716" lon="14.5077773"><ele>501.0</ele><time>2026-04-26T16:09:25.998Z</time></trkpt><trkpt lat="41.4758119" lon="14.5081023"><ele>501.0</ele><time>2026-04-26T16:09:26.998Z</time></trkpt><trkpt lat="41.4756561" lon="14.5084296"><ele>501.0</ele><time>2026-04-26T16:09:27.998Z</time></trkpt><trkpt lat="41.4755036" lon="14.5087882"><ele>501.5</ele><time>2026-04-26T16:09:28.998Z</time></trkpt><trkpt lat="41.4753601" lon="14.5091684"><ele>502.0</ele><time>2026-04-26T16:09:29.998Z</time></trkpt><trkpt lat="41.4752169" lon="14.5095667"><ele>500.5</ele><time>2026-04-26T16:09:30.998Z</time></trkpt><trkpt lat="41.4750884" lon="14.509979"><ele>499.0</ele><time>2026-04-26T16:09:31.998Z</time></trkpt><trkpt lat="41.4749743" lon="14.5103943"><ele>499.5</ele><time>2026-04-26T16:09:32.998Z</time></trkpt><trkpt lat="41.4748685" lon="14.5108359"><ele>500.0</ele><time>2026-04-26T16:09:33.998Z</time></trkpt><trkpt lat="41.4747737" lon="14.5112969"><ele>500.0</ele><time>2026-04-26T16:09:34.998Z</time></trkpt><trkpt lat="41.4746949" lon="14.511775"><ele>500.0</ele><time>2026-04-26T16:09:35.998Z</time></trkpt><trkpt lat="41.4746228" lon="14.5122479"><ele>500.0</ele><time>2026-04-26T16:09:36.998Z</time></trkpt><trkpt lat="41.4745611" lon="14.5127261"><ele>500.0</ele><time>2026-04-26T16:09:37.998Z</time></trkpt><trkpt lat="41.4744941" lon="14.5131978"><ele>499.0</ele><time>2026-04-26T16:09:38.998Z</time></trkpt><trkpt lat="41.4744323" lon="14.5136542"><ele>498.0</ele><time>2026-04-26T16:09:39.999Z</time></trkpt><trkpt lat="41.4743744" lon="14.5141183"><ele>499.0</ele><time>2026-04-26T16:09:40.998Z</time></trkpt><trkpt lat="41.4743167" lon="14.5145909"><ele>500.0</ele><time>2026-04-26T16:09:41.998Z</time></trkpt><trkpt lat="41.474255" lon="14.5150624"><ele>499.5</ele><time>2026-04-26T16:09:42.998Z</time></trkpt><trkpt lat="41.4741882" lon="14.5155285"><ele>499.0</ele><time>2026-04-26T16:09:43.998Z</time></trkpt><trkpt lat="41.4741284" lon="14.5160018"><ele>499.5</ele><time>2026-04-26T16:09:44.998Z</time></trkpt><trkpt lat="41.4740663" lon="14.5164736"><ele>500.0</ele><time>2026-04-26T16:09:45.998Z</time></trkpt><trkpt lat="41.4740008" lon="14.516938"><ele>500.0</ele><time>2026-04-26T16:09:46.998Z</time></trkpt><trkpt lat="41.4739354" lon="14.5173955"><ele>500.0</ele><time>2026-04-26T16:09:47.998Z</time></trkpt><trkpt lat="41.4738744" lon="14.5178562"><ele>501.0</ele><time>2026-04-26T16:09:48.998Z</time></trkpt><trkpt lat="41.4738126" lon="14.5183151"><ele>502.0</ele><time>2026-04-26T16:09:49.998Z</time></trkpt><trkpt lat="41.4737517" lon="14.5187752"><ele>502.5</ele><time>2026-04-26T16:09:50.999Z</time></trkpt><trkpt lat="41.473689" lon="14.5192314"><ele>503.0</ele><time>2026-04-26T16:09:51.998Z</time></trkpt><trkpt lat="41.4736302" lon="14.5196945"><ele>503.0</ele><time>2026-04-26T16:09:52.998Z</time></trkpt><trkpt lat="41.4735691" lon="14.5201482"><ele>503.0</ele><time>2026-04-26T16:09:53.998Z</time></trkpt><trkpt lat="41.4735092" lon="14.5206011"><ele>503.0</ele><time>2026-04-26T16:09:54.998Z</time></trkpt><trkpt lat="41.4734547" lon="14.5210471"><ele>503.0</ele><time>2026-04-26T16:09:55.998Z</time></trkpt><trkpt lat="41.4733941" lon="14.5214947"><ele>503.0</ele><time>2026-04-26T16:09:56.998Z</time></trkpt><trkpt lat="41.4733316" lon="14.5219425"><ele>503.0</ele><time>2026-04-26T16:09:57.998Z</time></trkpt><trkpt lat="41.4732763" lon="14.5223828"><ele>503.0</ele><time>2026-04-26T16:09:58.998Z</time></trkpt><trkpt lat="41.4732152" lon="14.5228249"><ele>503.0</ele><time>2026-04-26T16:09:59.998Z</time></trkpt><trkpt lat="41.4731518" lon="14.5232655"><ele>503.0</ele><time>2026-04-26T16:10:00.999Z</time></trkpt><trkpt lat="41.4730937" lon="14.5237152"><ele>503.0</ele><time>2026-04-26T16:10:01.998Z</time></trkpt><trkpt lat="41.4730369" lon="14.5241674"><ele>503.5</ele><time>2026-04-26T16:10:02.998Z</time></trkpt><trkpt lat="41.4729838" lon="14.5246074"><ele>504.0</ele><time>2026-04-26T16:10:03.998Z</time></trkpt><trkpt lat="41.4729306" lon="14.5250313"><ele>506.0</ele><time>2026-04-26T16:10:04.998Z</time></trkpt><trkpt lat="41.4728752" lon="14.5254374"><ele>508.0</ele><time>2026-04-26T16:10:05.998Z</time></trkpt><trkpt lat="41.4728212" lon="14.5258374"><ele>507.0</ele><time>2026-04-26T16:10:06.998Z</time></trkpt><trkpt lat="41.472777" lon="14.5262312"><ele>506.0</ele><time>2026-04-26T16:10:07.998Z</time></trkpt><trkpt lat="41.4727318" lon="14.5266185"><ele>506.0</ele><time>2026-04-26T16:10:08.998Z</time></trkpt><trkpt lat="41.4726859" lon="14.5269938"><ele>506.0</ele><time>2026-04-26T16:10:09.998Z</time></trkpt><trkpt lat="41.4726382" lon="14.5273576"><ele>506.0</ele><time>2026-04-26T16:10:10.998Z</time></trkpt><trkpt lat="41.4725919" lon="14.5277065"><ele>506.0</ele><time>2026-04-26T16:10:11.998Z</time></trkpt><trkpt lat="41.4725467" lon="14.5280515"><ele>506.5</ele><time>2026-04-26T16:10:12.998Z</time></trkpt><trkpt lat="41.472502" lon="14.5283997"><ele>507.0</ele><time>2026-04-26T16:10:13.998Z</time></trkpt><trkpt lat="41.4724556" lon="14.5287472"><ele>507.0</ele><time>2026-04-26T16:10:14.998Z</time></trkpt><trkpt lat="41.47241" lon="14.5290823"><ele>507.0</ele><time>2026-04-26T16:10:15.998Z</time></trkpt><trkpt lat="41.472368" lon="14.5294215"><ele>507.0</ele><time>2026-04-26T16:10:16.998Z</time></trkpt><trkpt lat="41.472325" lon="14.5297657"><ele>507.0</ele><time>2026-04-26T16:10:17.998Z</time></trkpt><trkpt lat="41.4722766" lon="14.5301246"><ele>507.0</ele><time>2026-04-26T16:10:18.998Z</time></trkpt><trkpt lat="41.4722308" lon="14.5304906"><ele>507.0</ele><time>2026-04-26T16:10:19.998Z</time></trkpt><trkpt lat="41.4721838" lon="14.5308732"><ele>507.0</ele><time>2026-04-26T16:10:20.998Z</time></trkpt><trkpt lat="41.4721335" lon="14.5312621"><ele>507.0</ele><time>2026-04-26T16:10:21.998Z</time></trkpt><trkpt lat="41.4720817" lon="14.5316598"><ele>508.5</ele><time>2026-04-26T16:10:22.999Z</time></trkpt><trkpt lat="41.4720273" lon="14.5320464"><ele>510.0</ele><time>2026-04-26T16:10:23.998Z</time></trkpt><trkpt lat="41.4719793" lon="14.5324077"><ele>510.0</ele><time>2026-04-26T16:10:24.998Z</time></trkpt><trkpt lat="41.4719333" lon="14.5327463"><ele>510.0</ele><time>2026-04-26T16:10:25.998Z</time></trkpt><trkpt lat="41.4718853" lon="14.5330941"><ele>510.0</ele><time>2026-04-26T16:10:26.998Z</time></trkpt><trkpt lat="41.4718349" lon="14.5334474"><ele>510.0</ele><time>2026-04-26T16:10:27.998Z</time></trkpt><trkpt lat="41.4717915" lon="14.5337961"><ele>510.0</ele><time>2026-04-26T16:10:28.998Z</time></trkpt><trkpt lat="41.471753" lon="14.5341162"><ele>510.0</ele><time>2026-04-26T16:10:29.998Z</time></trkpt><trkpt lat="41.4717179" lon="14.5344146"><ele>509.66666666666663</ele><time>2026-04-26T16:10:30.998Z</time></trkpt><trkpt lat="41.4716772" lon="14.5346864"><ele>509.3333333333333</ele><time>2026-04-26T16:10:31.998Z</time></trkpt><trkpt lat="41.4716492" lon="14.5349481"><ele>509.0</ele><time>2026-04-26T16:10:32.998Z</time></trkpt><trkpt lat="41.4716164" lon="14.5351792"><ele>510.0</ele><time>2026-04-26T16:10:33.999Z</time></trkpt><trkpt lat="41.4715865" lon="14.5353926"><ele>511.0</ele><time>2026-04-26T16:10:34.998Z</time></trkpt><trkpt lat="41.4715585" lon="14.5355993"><ele>512.0</ele><time>2026-04-26T16:10:35.998Z</time></trkpt><trkpt lat="41.4715369" lon="14.5357949"><ele>512.0</ele><time>2026-04-26T16:10:36.998Z</time></trkpt><trkpt lat="41.4715114" lon="14.5359664"><ele>512.0</ele><time>2026-04-26T16:10:37.998Z</time></trkpt><trkpt lat="41.4714894" lon="14.5361079"><ele>512.0</ele><time>2026-04-26T16:10:38.998Z</time></trkpt><trkpt lat="41.4714652" lon="14.5362191"><ele>512.0</ele><time>2026-04-26T16:10:39.998Z</time></trkpt><trkpt lat="41.4714387" lon="14.5363134"><ele>512.0</ele><time>2026-04-26T16:10:40.998Z</time></trkpt><trkpt lat="41.4713952" lon="14.5363876"><ele>511.6</ele><time>2026-04-26T16:10:41.998Z</time></trkpt><trkpt lat="41.471302" lon="14.5364922"><ele>511.20000000000005</ele><time>2026-04-26T16:10:43.998Z</time></trkpt><trkpt lat="41.4712174" lon="14.5365903"><ele>510.8</ele><time>2026-04-26T16:10:45.998Z</time></trkpt><trkpt lat="41.4712027" lon="14.5367393"><ele>510.4</ele><time>2026-04-26T16:10:47.998Z</time></trkpt><trkpt lat="41.4712294" lon="14.5368218"><ele>510.0</ele><time>2026-04-26T16:10:48.998Z</time></trkpt><trkpt lat="41.4712848" lon="14.5369099"><ele>510.0</ele><time>2026-04-26T16:10:49.998Z</time></trkpt><trkpt lat="41.471319" lon="14.5370167"><ele>510.0</ele><time>2026-04-26T16:10:50.998Z</time></trkpt><trkpt lat="41.4713347" lon="14.5371214"><ele>510.0</ele><time>2026-04-26T16:10:51.998Z</time></trkpt><trkpt lat="41.4713397" lon="14.5372164"><ele>510.0</ele><time>2026-04-26T16:10:52.998Z</time></trkpt><trkpt lat="41.4713626" lon="14.5372993"><ele>510.0</ele><time>2026-04-26T16:10:53.998Z</time></trkpt><trkpt lat="41.4714192" lon="14.5373545"><ele>510.0</ele><time>2026-04-26T16:10:54.998Z</time></trkpt><trkpt lat="41.4714969" lon="14.5374025"><ele>509.5</ele><time>2026-04-26T16:10:55.999Z</time></trkpt><trkpt lat="41.471582" lon="14.5374627"><ele>509.0</ele><time>2026-04-26T16:10:56.998Z</time></trkpt><trkpt lat="41.4716652" lon="14.5375677"><ele>508.5</ele><time>2026-04-26T16:10:57.999Z</time></trkpt><trkpt lat="41.4717576" lon="14.5377335"><ele>508.0</ele><time>2026-04-26T16:10:58.998Z</time></trkpt><trkpt lat="41.4718539" lon="14.5379455"><ele>508.0</ele><time>2026-04-26T16:10:59.998Z</time></trkpt><trkpt lat="41.4719613" lon="14.5381764"><ele>508.0</ele><time>2026-04-26T16:11:00.998Z</time></trkpt><trkpt lat="41.4720797" lon="14.5384291"><ele>508.0</ele><time>2026-04-26T16:11:01.999Z</time></trkpt><trkpt lat="41.472215" lon="14.538689"><ele>509.0</ele><time>2026-04-26T16:11:02.998Z</time></trkpt><trkpt lat="41.4724267" lon="14.5390091"><ele>510.0</ele><time>2026-04-26T16:11:03.998Z</time></trkpt><trkpt lat="41.4726522" lon="14.5393383"><ele>510.5</ele><time>2026-04-26T16:11:04.998Z</time></trkpt><trkpt lat="41.4728878" lon="14.5396648"><ele>511.0</ele><time>2026-04-26T16:11:05.998Z</time></trkpt><trkpt lat="41.4731376" lon="14.5400169"><ele>511.0</ele><time>2026-04-26T16:11:06.998Z</time></trkpt><trkpt lat="41.473386" lon="14.5403691"><ele>511.0</ele><time>2026-04-26T16:11:07.998Z</time></trkpt><trkpt lat="41.473632" lon="14.5407176"><ele>510.0</ele><time>2026-04-26T16:11:08.998Z</time></trkpt><trkpt lat="41.4739667" lon="14.5411924"><ele>508.0</ele><time>2026-04-26T16:11:10.006Z</time></trkpt><trkpt lat="41.4742048" lon="14.5415206"><ele>506.0</ele><time>2026-04-26T16:11:11.006Z</time></trkpt><trkpt lat="41.4744395" lon="14.5418431"><ele>502.5</ele><time>2026-04-26T16:11:12.006Z</time></trkpt><trkpt lat="41.4746597" lon="14.5421613"><ele>499.0</ele><time>2026-04-26T16:11:13.006Z</time></trkpt><trkpt lat="41.4748682" lon="14.5424552"><ele>499.0</ele><time>2026-04-26T16:11:14.006Z</time></trkpt><trkpt lat="41.4750871" lon="14.5427611"><ele>499.0</ele><time>2026-04-26T16:11:15.007Z</time></trkpt><trkpt lat="41.4753085" lon="14.5430757"><ele>498.0</ele><time>2026-04-26T16:11:16.006Z</time></trkpt><trkpt lat="41.475526" lon="14.543384"><ele>497.0</ele><time>2026-04-26T16:11:17.006Z</time></trkpt><trkpt lat="41.4757315" lon="14.5436801"><ele>497.0</ele><time>2026-04-26T16:11:18.006Z</time></trkpt><trkpt lat="41.47594" lon="14.5439734"><ele>497.0</ele><time>2026-04-26T16:11:19.006Z</time></trkpt><trkpt lat="41.4761335" lon="14.5442615"><ele>496.5</ele><time>2026-04-26T16:11:20.006Z</time></trkpt><trkpt lat="41.4763222" lon="14.5445403"><ele>496.0</ele><time>2026-04-26T16:11:21.006Z</time></trkpt><trkpt lat="41.4765033" lon="14.5448075"><ele>496.0</ele><time>2026-04-26T16:11:22.007Z</time></trkpt><trkpt lat="41.4766669" lon="14.5450667"><ele>496.0</ele><time>2026-04-26T16:11:23.006Z</time></trkpt><trkpt lat="41.476822" lon="14.5453125"><ele>495.6666666666667</ele><time>2026-04-26T16:11:24.007Z</time></trkpt><trkpt lat="41.4769572" lon="14.54554"><ele>495.33333333333337</ele><time>2026-04-26T16:11:25.006Z</time></trkpt><trkpt lat="41.4770599" lon="14.5457354"><ele>495.0</ele><time>2026-04-26T16:11:26.006Z</time></trkpt><trkpt lat="41.4771261" lon="14.5459049"><ele>495.0</ele><time>2026-04-26T16:11:27.006Z</time></trkpt><trkpt lat="41.4771627" lon="14.5460815"><ele>495.0</ele><time>2026-04-26T16:11:28.006Z</time></trkpt><trkpt lat="41.4771643" lon="14.5462594"><ele>495.0</ele><time>2026-04-26T16:11:29.007Z</time></trkpt><trkpt lat="41.4771255" lon="14.546441"><ele>495.0</ele><time>2026-04-26T16:11:30.006Z</time></trkpt><trkpt lat="41.4770501" lon="14.5465972"><ele>496.5</ele><time>2026-04-26T16:11:31.006Z</time></trkpt><trkpt lat="41.4769395" lon="14.5466993"><ele>498.0</ele><time>2026-04-26T16:11:32.007Z</time></trkpt><trkpt lat="41.4768104" lon="14.5467584"><ele>499.5</ele><time>2026-04-26T16:11:33.006Z</time></trkpt><trkpt lat="41.4766441" lon="14.546816"><ele>501.0</ele><time>2026-04-26T16:11:34.006Z</time></trkpt><trkpt lat="41.4764489" lon="14.5469032"><ele>499.66666666666663</ele><time>2026-04-26T16:11:35.006Z</time></trkpt><trkpt lat="41.476254" lon="14.547031"><ele>498.3333333333333</ele><time>2026-04-26T16:11:36.006Z</time></trkpt><trkpt lat="41.476079" lon="14.5471734"><ele>497.0</ele><time>2026-04-26T16:11:37.007Z</time></trkpt><trkpt lat="41.4759343" lon="14.5473144"><ele>500.25</ele><time>2026-04-26T16:11:38.006Z</time></trkpt><trkpt lat="41.475805" lon="14.5474295"><ele>503.5</ele><time>2026-04-26T16:11:39.006Z</time></trkpt><trkpt lat="41.475709" lon="14.5475439"><ele>506.75</ele><time>2026-04-26T16:11:40.007Z</time></trkpt><trkpt lat="41.4756515" lon="14.5476803"><ele>510.0</ele><time>2026-04-26T16:11:41.006Z</time></trkpt><trkpt lat="41.4756401" lon="14.5478151"><ele>512.0</ele><time>2026-04-26T16:11:42.006Z</time></trkpt><trkpt lat="41.4756616" lon="14.5479597"><ele>514.0</ele><time>2026-04-26T16:11:43.006Z</time></trkpt><trkpt lat="41.4757379" lon="14.5480673"><ele>516.0</ele><time>2026-04-26T16:11:44.006Z</time></trkpt><trkpt lat="41.4758606" lon="14.5481383"><ele>518.0</ele><time>2026-04-26T16:11:45.006Z</time></trkpt><trkpt lat="41.4760218" lon="14.5481714"><ele>518.0</ele><time>2026-04-26T16:11:46.006Z</time></trkpt><trkpt lat="41.4762262" lon="14.5481969"><ele>518.0</ele><time>2026-04-26T16:11:47.006Z</time></trkpt><trkpt lat="41.4764543" lon="14.5482451"><ele>518.0</ele><time>2026-04-26T16:11:48.006Z</time></trkpt><trkpt lat="41.4767002" lon="14.5482933"><ele>518.0</ele><time>2026-04-26T16:11:49.006Z</time></trkpt><trkpt lat="41.4769068" lon="14.5483261"><ele>518.0</ele><time>2026-04-26T16:11:50.006Z</time></trkpt><trkpt lat="41.4770901" lon="14.548372"><ele>518.0</ele><time>2026-04-26T16:11:51.006Z</time></trkpt><trkpt lat="41.4772521" lon="14.5484457"><ele>518.6666666666666</ele><time>2026-04-26T16:11:52.006Z</time></trkpt><trkpt lat="41.4773862" lon="14.5485479"><ele>519.3333333333334</ele><time>2026-04-26T16:11:53.006Z</time></trkpt><trkpt lat="41.4774947" lon="14.5487056"><ele>520.0</ele><time>2026-04-26T16:11:54.006Z</time></trkpt><trkpt lat="41.4775683" lon="14.5488872"><ele>520.3333333333334</ele><time>2026-04-26T16:11:55.006Z</time></trkpt><trkpt lat="41.4776072" lon="14.5490885"><ele>520.6666666666666</ele><time>2026-04-26T16:11:56.006Z</time></trkpt><trkpt lat="41.4776033" lon="14.5493116"><ele>521.0</ele><time>2026-04-26T16:11:57.006Z</time></trkpt><trkpt lat="41.4775681" lon="14.5495636"><ele>521.5</ele><time>2026-04-26T16:11:58.006Z</time></trkpt><trkpt lat="41.477507" lon="14.5498394"><ele>522.0</ele><time>2026-04-26T16:11:59.006Z</time></trkpt><trkpt lat="41.4774508" lon="14.550174"><ele>522.5</ele><time>2026-04-26T16:12:00.007Z</time></trkpt><trkpt lat="41.4773904" lon="14.5504977"><ele>523.0</ele><time>2026-04-26T16:12:01.006Z</time></trkpt><trkpt lat="41.4773387" lon="14.5507982"><ele>523.0</ele><time>2026-04-26T16:12:02.006Z</time></trkpt><trkpt lat="41.4772967" lon="14.5510655"><ele>523.0</ele><time>2026-04-26T16:12:03.006Z</time></trkpt><trkpt lat="41.4772586" lon="14.5513048"><ele>523.0</ele><time>2026-04-26T16:12:04.006Z</time></trkpt><trkpt lat="41.4772122" lon="14.5515289"><ele>522.6666666666667</ele><time>2026-04-26T16:12:05.006Z</time></trkpt><trkpt lat="41.4771494" lon="14.5517357"><ele>522.3333333333334</ele><time>2026-04-26T16:12:06.006Z</time></trkpt><trkpt lat="41.4770797" lon="14.5519171"><ele>522.0</ele><time>2026-04-26T16:12:07.006Z</time></trkpt><trkpt lat="41.4770169" lon="14.5520872"><ele>522.75</ele><time>2026-04-26T16:12:08.006Z</time></trkpt><trkpt lat="41.4769641" lon="14.5522379"><ele>523.5</ele><time>2026-04-26T16:12:09.007Z</time></trkpt><trkpt lat="41.4769093" lon="14.5523762"><ele>524.25</ele><time>2026-04-26T16:12:10.007Z</time></trkpt><trkpt lat="41.4768561" lon="14.5525191"><ele>525.0</ele><time>2026-04-26T16:12:11.006Z</time></trkpt><trkpt lat="41.4768061" lon="14.5526627"><ele>525.0</ele><time>2026-04-26T16:12:12.006Z</time></trkpt><trkpt lat="41.4767595" lon="14.5528141"><ele>525.0</ele><time>2026-04-26T16:12:13.006Z</time></trkpt><trkpt lat="41.4767103" lon="14.5529629"><ele>525.0</ele><time>2026-04-26T16:12:14.006Z</time></trkpt><trkpt lat="41.4766546" lon="14.5531135"><ele>525.0</ele><time>2026-04-26T16:12:15.006Z</time></trkpt><trkpt lat="41.4766025" lon="14.553265"><ele>525.0</ele><time>2026-04-26T16:12:16.006Z</time></trkpt><trkpt lat="41.4765461" lon="14.5534033"><ele>525.0</ele><time>2026-04-26T16:12:17.006Z</time></trkpt><trkpt lat="41.4764908" lon="14.5535452"><ele>525.0</ele><time>2026-04-26T16:12:18.006Z</time></trkpt><trkpt lat="41.4764409" lon="14.5536608"><ele>525.0</ele><time>2026-04-26T16:12:19.006Z</time></trkpt><trkpt lat="41.4763883" lon="14.5537747"><ele>525.0</ele><time>2026-04-26T16:12:20.006Z</time></trkpt><trkpt lat="41.4763398" lon="14.5538735"><ele>525.25</ele><time>2026-04-26T16:12:21.006Z</time></trkpt><trkpt lat="41.4762791" lon="14.5539793"><ele>525.5</ele><time>2026-04-26T16:12:22.006Z</time></trkpt><trkpt lat="41.4762056" lon="14.5540923"><ele>525.75</ele><time>2026-04-26T16:12:23.006Z</time></trkpt><trkpt lat="41.4761013" lon="14.5542226"><ele>526.0</ele><time>2026-04-26T16:12:24.006Z</time></trkpt><trkpt lat="41.4759796" lon="14.5543687"><ele>526.0</ele><time>2026-04-26T16:12:25.006Z</time></trkpt><trkpt lat="41.4758547" lon="14.5545102"><ele>526.0</ele><time>2026-04-26T16:12:26.006Z</time></trkpt><trkpt lat="41.4757387" lon="14.5546416"><ele>526.0</ele><time>2026-04-26T16:12:27.006Z</time></trkpt><trkpt lat="41.4756335" lon="14.5547641"><ele>526.0</ele><time>2026-04-26T16:12:28.006Z</time></trkpt><trkpt lat="41.4755279" lon="14.554892"><ele>526.0</ele><time>2026-04-26T16:12:29.006Z</time></trkpt><trkpt lat="41.4754214" lon="14.5550267"><ele>526.0</ele><time>2026-04-26T16:12:30.006Z</time></trkpt><trkpt lat="41.4753124" lon="14.5551708"><ele>526.0</ele><time>2026-04-26T16:12:31.006Z</time></trkpt><trkpt lat="41.4752114" lon="14.5553337"><ele>527.0</ele><time>2026-04-26T16:12:32.006Z</time></trkpt><trkpt lat="41.4751217" lon="14.5555077"><ele>528.0</ele><time>2026-04-26T16:12:33.006Z</time></trkpt><trkpt lat="41.4750382" lon="14.5556913"><ele>529.0</ele><time>2026-04-26T16:12:34.006Z</time></trkpt><trkpt lat="41.4749717" lon="14.5558854"><ele>529.0</ele><time>2026-04-26T16:12:35.006Z</time></trkpt><trkpt lat="41.4749203" lon="14.5560865"><ele>529.0</ele><time>2026-04-26T16:12:36.006Z</time></trkpt><trkpt lat="41.4748847" lon="14.5562808"><ele>529.0</ele><time>2026-04-26T16:12:37.006Z</time></trkpt><trkpt lat="41.4748651" lon="14.5564995"><ele>529.0</ele><time>2026-04-26T16:12:38.006Z</time></trkpt><trkpt lat="41.4748483" lon="14.556733"><ele>529.0</ele><time>2026-04-26T16:12:39.006Z</time></trkpt><trkpt lat="41.4748489" lon="14.5569833"><ele>529.0</ele><time>2026-04-26T16:12:40.006Z</time></trkpt><trkpt lat="41.4748555" lon="14.5572749"><ele>530.0</ele><time>2026-04-26T16:12:41.006Z</time></trkpt><trkpt lat="41.4748577" lon="14.557607"><ele>531.0</ele><time>2026-04-26T16:12:42.006Z</time></trkpt><trkpt lat="41.4748545" lon="14.557967"><ele>531.5</ele><time>2026-04-26T16:12:43.006Z</time></trkpt><trkpt lat="41.4748454" lon="14.5583156"><ele>532.0</ele><time>2026-04-26T16:12:44.006Z</time></trkpt><trkpt lat="41.4748385" lon="14.5586387"><ele>533.6666666666667</ele><time>2026-04-26T16:12:45.006Z</time></trkpt><trkpt lat="41.4748384" lon="14.5589412"><ele>535.3333333333334</ele><time>2026-04-26T16:12:46.006Z</time></trkpt><trkpt lat="41.4748346" lon="14.5592186"><ele>537.0</ele><time>2026-04-26T16:12:47.006Z</time></trkpt><trkpt lat="41.4748208" lon="14.5594818"><ele>538.0</ele><time>2026-04-26T16:12:48.006Z</time></trkpt><trkpt lat="41.4747955" lon="14.5597159"><ele>539.0</ele><time>2026-04-26T16:12:49.007Z</time></trkpt><trkpt lat="41.4747423" lon="14.5599237"><ele>540.0</ele><time>2026-04-26T16:12:50.006Z</time></trkpt><trkpt lat="41.4746674" lon="14.5601036"><ele>540.5</ele><time>2026-04-26T16:12:51.006Z</time></trkpt><trkpt lat="41.4745747" lon="14.560255"><ele>541.0</ele><time>2026-04-26T16:12:52.006Z</time></trkpt><trkpt lat="41.4744675" lon="14.56039"><ele>541.5</ele><time>2026-04-26T16:12:53.006Z</time></trkpt><trkpt lat="41.47434" lon="14.5605049"><ele>542.0</ele><time>2026-04-26T16:12:54.006Z</time></trkpt><trkpt lat="41.4742063" lon="14.5605832"><ele>542.0</ele><time>2026-04-26T16:12:55.006Z</time></trkpt><trkpt lat="41.4740682" lon="14.5606248"><ele>542.0</ele><time>2026-04-26T16:12:56.006Z</time></trkpt><trkpt lat="41.4739336" lon="14.5606319"><ele>542.0</ele><time>2026-04-26T16:12:57.006Z</time></trkpt><trkpt lat="41.4738168" lon="14.5605923"><ele>542.0</ele><time>2026-04-26T16:12:58.006Z</time></trkpt><trkpt lat="41.4737177" lon="14.5605238"><ele>541.5</ele><time>2026-04-26T16:12:59.006Z</time></trkpt><trkpt lat="41.4736329" lon="14.5604151"><ele>541.0</ele><time>2026-04-26T16:13:00.006Z</time></trkpt><trkpt lat="41.4735677" lon="14.5602921"><ele>540.5</ele><time>2026-04-26T16:13:01.006Z</time></trkpt><trkpt lat="41.4735434" lon="14.5601462"><ele>540.0</ele><time>2026-04-26T16:13:02.006Z</time></trkpt><trkpt lat="41.4735504" lon="14.5600005"><ele>539.25</ele><time>2026-04-26T16:13:03.006Z</time></trkpt><trkpt lat="41.4736015" lon="14.559875"><ele>538.5</ele><time>2026-04-26T16:13:04.006Z</time></trkpt><trkpt lat="41.473689" lon="14.5597852"><ele>537.75</ele><time>2026-04-26T16:13:05.006Z</time></trkpt><trkpt lat="41.4737927" lon="14.5597298"><ele>537.0</ele><time>2026-04-26T16:13:06.006Z</time></trkpt><trkpt lat="41.4739184" lon="14.5597222"><ele>537.0</ele><time>2026-04-26T16:13:07.006Z</time></trkpt><trkpt lat="41.4740477" lon="14.5597767"><ele>537.0</ele><time>2026-04-26T16:13:08.006Z</time></trkpt><trkpt lat="41.4741919" lon="14.5598595"><ele>537.0</ele><time>2026-04-26T16:13:09.006Z</time></trkpt><trkpt lat="41.4743422" lon="14.559974"><ele>537.0</ele><time>2026-04-26T16:13:10.006Z</time></trkpt><trkpt lat="41.474481" lon="14.5601239"><ele>537.0</ele><time>2026-04-26T16:13:11.006Z</time></trkpt><trkpt lat="41.4746374" lon="14.5603142"><ele>537.0</ele><time>2026-04-26T16:13:12.006Z</time></trkpt><trkpt lat="41.4747854" lon="14.5605401"><ele>538.5</ele><time>2026-04-26T16:13:13.006Z</time></trkpt><trkpt lat="41.4749168" lon="14.5608235"><ele>540.0</ele><time>2026-04-26T16:13:14.006Z</time></trkpt><trkpt lat="41.4750315" lon="14.5611237"><ele>540.5</ele><time>2026-04-26T16:13:15.006Z</time></trkpt><trkpt lat="41.4751316" lon="14.5614391"><ele>541.0</ele><time>2026-04-26T16:13:16.006Z</time></trkpt><trkpt lat="41.4752083" lon="14.5617753"><ele>540.0</ele><time>2026-04-26T16:13:17.006Z</time></trkpt><trkpt lat="41.4752563" lon="14.5621551"><ele>539.0</ele><time>2026-04-26T16:13:18.007Z</time></trkpt><trkpt lat="41.4753027" lon="14.562567"><ele>538.5</ele><time>2026-04-26T16:13:19.006Z</time></trkpt><trkpt lat="41.4753395" lon="14.5630312"><ele>538.0</ele><time>2026-04-26T16:13:20.006Z</time></trkpt><trkpt lat="41.4753697" lon="14.5635107"><ele>537.5</ele><time>2026-04-26T16:13:21.006Z</time></trkpt><trkpt lat="41.4754003" lon="14.5639736"><ele>537.0</ele><time>2026-04-26T16:13:22.006Z</time></trkpt><trkpt lat="41.475438" lon="14.5644336"><ele>535.5</ele><time>2026-04-26T16:13:23.006Z</time></trkpt><trkpt lat="41.4754771" lon="14.5648792"><ele>534.0</ele><time>2026-04-26T16:13:24.006Z</time></trkpt><trkpt lat="41.4755099" lon="14.5653081"><ele>536.0</ele><time>2026-04-26T16:13:25.006Z</time></trkpt><trkpt lat="41.4755402" lon="14.5657286"><ele>538.0</ele><time>2026-04-26T16:13:26.006Z</time></trkpt><trkpt lat="41.4755753" lon="14.5661436"><ele>538.5</ele><time>2026-04-26T16:13:27.006Z</time></trkpt><trkpt lat="41.4756163" lon="14.5665681"><ele>539.0</ele><time>2026-04-26T16:13:28.006Z</time></trkpt><trkpt lat="41.4756536" lon="14.5670034"><ele>539.5</ele><time>2026-04-26T16:13:29.007Z</time></trkpt><trkpt lat="41.4756916" lon="14.5674376"><ele>540.0</ele><time>2026-04-26T16:13:30.006Z</time></trkpt><trkpt lat="41.4757236" lon="14.5678733"><ele>543.5</ele><time>2026-04-26T16:13:31.007Z</time></trkpt><trkpt lat="41.4757585" lon="14.5683137"><ele>547.0</ele><time>2026-04-26T16:13:32.006Z</time></trkpt><trkpt lat="41.4757969" lon="14.5687624"><ele>548.5</ele><time>2026-04-26T16:13:33.006Z</time></trkpt><trkpt lat="41.4758376" lon="14.5692123"><ele>550.0</ele><time>2026-04-26T16:13:34.006Z</time></trkpt><trkpt lat="41.4758763" lon="14.5696509"><ele>554.5</ele><time>2026-04-26T16:13:35.006Z</time></trkpt><trkpt lat="41.475913" lon="14.5700675"><ele>559.0</ele><time>2026-04-26T16:13:36.007Z</time></trkpt><trkpt lat="41.4759503" lon="14.5704653"><ele>561.5</ele><time>2026-04-26T16:13:37.006Z</time></trkpt><trkpt lat="41.4759972" lon="14.5708411"><ele>564.0</ele><time>2026-04-26T16:13:38.006Z</time></trkpt><trkpt lat="41.4760611" lon="14.5712115"><ele>566.5</ele><time>2026-04-26T16:13:39.006Z</time></trkpt><trkpt lat="41.4761483" lon="14.5715672"><ele>569.0</ele><time>2026-04-26T16:13:40.006Z</time></trkpt><trkpt lat="41.4762459" lon="14.5719185"><ele>571.5</ele><time>2026-04-26T16:13:41.006Z</time></trkpt><trkpt lat="41.4763656" lon="14.5722588"><ele>574.0</ele><time>2026-04-26T16:13:42.006Z</time></trkpt><trkpt lat="41.4765139" lon="14.5725905"><ele>576.0</ele><time>2026-04-26T16:13:43.006Z</time></trkpt><trkpt lat="41.4766712" lon="14.5729297"><ele>578.0</ele><time>2026-04-26T16:13:44.006Z</time></trkpt><trkpt lat="41.4768273" lon="14.5732716"><ele>578.0</ele><time>2026-04-26T16:13:45.006Z</time></trkpt><trkpt lat="41.4769742" lon="14.573618"><ele>578.0</ele><time>2026-04-26T16:13:46.006Z</time></trkpt><trkpt lat="41.4771237" lon="14.573967"><ele>579.5</ele><time>2026-04-26T16:13:47.007Z</time></trkpt><trkpt lat="41.4772679" lon="14.574304"><ele>581.0</ele><time>2026-04-26T16:13:48.006Z</time></trkpt><trkpt lat="41.4774026" lon="14.5746187"><ele>581.5</ele><time>2026-04-26T16:13:49.006Z</time></trkpt><trkpt lat="41.47753" lon="14.5749235"><ele>582.0</ele><time>2026-04-26T16:13:50.006Z</time></trkpt><trkpt lat="41.4776582" lon="14.5752122"><ele>583.5</ele><time>2026-04-26T16:13:51.006Z</time></trkpt><trkpt lat="41.4777852" lon="14.5754928"><ele>585.0</ele><time>2026-04-26T16:13:52.006Z</time></trkpt><trkpt lat="41.4779195" lon="14.5757914"><ele>585.0</ele><time>2026-04-26T16:13:53.006Z</time></trkpt><trkpt lat="41.478048" lon="14.5760936"><ele>585.0</ele><time>2026-04-26T16:13:54.006Z</time></trkpt><trkpt lat="41.4781718" lon="14.5763895"><ele>585.0</ele><time>2026-04-26T16:13:55.006Z</time></trkpt><trkpt lat="41.4782927" lon="14.5766723"><ele>585.0</ele><time>2026-04-26T16:13:56.006Z</time></trkpt><trkpt lat="41.4784113" lon="14.5769457"><ele>583.5</ele><time>2026-04-26T16:13:57.006Z</time></trkpt><trkpt lat="41.4785251" lon="14.5772147"><ele>582.0</ele><time>2026-04-26T16:13:58.006Z</time></trkpt><trkpt lat="41.4786405" lon="14.5774756"><ele>582.0</ele><time>2026-04-26T16:13:59.006Z</time></trkpt><trkpt lat="41.4787543" lon="14.5777441"><ele>582.0</ele><time>2026-04-26T16:14:00.006Z</time></trkpt><trkpt lat="41.478859" lon="14.5780105"><ele>584.5</ele><time>2026-04-26T16:14:01.006Z</time></trkpt><trkpt lat="41.4789622" lon="14.5782784"><ele>587.0</ele><time>2026-04-26T16:14:02.006Z</time></trkpt><trkpt lat="41.4790611" lon="14.5785491"><ele>587.5</ele><time>2026-04-26T16:14:03.007Z</time></trkpt><trkpt lat="41.4791603" lon="14.5788335"><ele>588.0</ele><time>2026-04-26T16:14:04.006Z</time></trkpt><trkpt lat="41.4792539" lon="14.5791318"><ele>588.0</ele><time>2026-04-26T16:14:05.006Z</time></trkpt><trkpt lat="41.4793493" lon="14.5794659"><ele>588.0</ele><time>2026-04-26T16:14:06.006Z</time></trkpt><trkpt lat="41.4794602" lon="14.5798254"><ele>588.0</ele><time>2026-04-26T16:14:07.006Z</time></trkpt><trkpt lat="41.4795823" lon="14.5802174"><ele>588.0</ele><time>2026-04-26T16:14:08.006Z</time></trkpt><trkpt lat="41.4796993" lon="14.580646"><ele>588.0</ele><time>2026-04-26T16:14:09.007Z</time></trkpt><trkpt lat="41.4798144" lon="14.5811151"><ele>588.0</ele><time>2026-04-26T16:14:10.006Z</time></trkpt><trkpt lat="41.4799309" lon="14.5816069"><ele>589.5</ele><time>2026-04-26T16:14:11.006Z</time></trkpt><trkpt lat="41.480076" lon="14.5821094"><ele>591.0</ele><time>2026-04-26T16:14:12.006Z</time></trkpt><trkpt lat="41.4802159" lon="14.5826185"><ele>591.0</ele><time>2026-04-26T16:14:13.006Z</time></trkpt><trkpt lat="41.480359" lon="14.5831272"><ele>591.0</ele><time>2026-04-26T16:14:14.006Z</time></trkpt><trkpt lat="41.4804933" lon="14.5836279"><ele>592.0</ele><time>2026-04-26T16:14:15.006Z</time></trkpt><trkpt lat="41.4806192" lon="14.5840982"><ele>593.0</ele><time>2026-04-26T16:14:16.007Z</time></trkpt><trkpt lat="41.4807374" lon="14.5845391"><ele>593.0</ele><time>2026-04-26T16:14:17.007Z</time></trkpt><trkpt lat="41.4808537" lon="14.5849487"><ele>593.0</ele><time>2026-04-26T16:14:18.007Z</time></trkpt><trkpt lat="41.4809636" lon="14.5853575"><ele>594.0</ele><time>2026-04-26T16:14:19.006Z</time></trkpt><trkpt lat="41.481075" lon="14.5857568"><ele>595.0</ele><time>2026-04-26T16:14:20.006Z</time></trkpt><trkpt lat="41.4811743" lon="14.5861451"><ele>600.0</ele><time>2026-04-26T16:14:21.006Z</time></trkpt><trkpt lat="41.4812715" lon="14.5865075"><ele>605.0</ele><time>2026-04-26T16:14:22.006Z</time></trkpt><trkpt lat="41.4813659" lon="14.5868526"><ele>606.5</ele><time>2026-04-26T16:14:23.006Z</time></trkpt><trkpt lat="41.4814612" lon="14.5871786"><ele>608.0</ele><time>2026-04-26T16:14:24.006Z</time></trkpt><trkpt lat="41.4815556" lon="14.5874865"><ele>608.0</ele><time>2026-04-26T16:14:25.006Z</time></trkpt><trkpt lat="41.4816663" lon="14.5877699"><ele>608.0</ele><time>2026-04-26T16:14:26.006Z</time></trkpt><trkpt lat="41.4817853" lon="14.5880166"><ele>609.0</ele><time>2026-04-26T16:14:27.006Z</time></trkpt><trkpt lat="41.4819225" lon="14.5882315"><ele>610.0</ele><time>2026-04-26T16:14:28.006Z</time></trkpt><trkpt lat="41.4820644" lon="14.5884252"><ele>611.0</ele><time>2026-04-26T16:14:29.006Z</time></trkpt><trkpt lat="41.4822151" lon="14.5886038"><ele>611.6666666666666</ele><time>2026-04-26T16:14:30.006Z</time></trkpt><trkpt lat="41.482365" lon="14.5887518"><ele>612.3333333333334</ele><time>2026-04-26T16:14:31.006Z</time></trkpt><trkpt lat="41.482516" lon="14.5888755"><ele>613.0</ele><time>2026-04-26T16:14:32.006Z</time></trkpt><trkpt lat="41.4826832" lon="14.5889914"><ele>613.0</ele><time>2026-04-26T16:14:33.006Z</time></trkpt><trkpt lat="41.4828604" lon="14.5891066"><ele>613.0</ele><time>2026-04-26T16:14:34.006Z</time></trkpt><trkpt lat="41.4830398" lon="14.5891957"><ele>613.0</ele><time>2026-04-26T16:14:35.006Z</time></trkpt><trkpt lat="41.4832169" lon="14.5892753"><ele>612.3333333333334</ele><time>2026-04-26T16:14:36.006Z</time></trkpt><trkpt lat="41.4833872" lon="14.589354"><ele>611.6666666666666</ele><time>2026-04-26T16:14:37.006Z</time></trkpt><trkpt lat="41.4835475" lon="14.5894339"><ele>611.0</ele><time>2026-04-26T16:14:38.006Z</time></trkpt><trkpt lat="41.4837037" lon="14.5895247"><ele>614.0</ele><time>2026-04-26T16:14:39.006Z</time></trkpt><trkpt lat="41.4838648" lon="14.5896121"><ele>617.0</ele><time>2026-04-26T16:14:40.006Z</time></trkpt><trkpt lat="41.4840226" lon="14.5896985"><ele>620.0</ele><time>2026-04-26T16:14:41.006Z</time></trkpt><trkpt lat="41.4841873" lon="14.5897987"><ele>620.0</ele><time>2026-04-26T16:14:42.006Z</time></trkpt><trkpt lat="41.4843526" lon="14.5899283"><ele>620.0</ele><time>2026-04-26T16:14:43.006Z</time></trkpt><trkpt lat="41.4845149" lon="14.5900846"><ele>620.0</ele><time>2026-04-26T16:14:44.006Z</time></trkpt><trkpt lat="41.4846814" lon="14.5902691"><ele>622.0</ele><time>2026-04-26T16:14:45.006Z</time></trkpt><trkpt lat="41.4848513" lon="14.5904835"><ele>624.0</ele><time>2026-04-26T16:14:46.006Z</time></trkpt><trkpt lat="41.4850243" lon="14.5907488"><ele>624.0</ele><time>2026-04-26T16:14:47.006Z</time></trkpt><trkpt lat="41.4851837" lon="14.5910409"><ele>624.0</ele><time>2026-04-26T16:14:48.006Z</time></trkpt><trkpt lat="41.4853429" lon="14.5913423"><ele>621.5</ele><time>2026-04-26T16:14:49.006Z</time></trkpt><trkpt lat="41.4854903" lon="14.5916244"><ele>619.0</ele><time>2026-04-26T16:14:50.006Z</time></trkpt><trkpt lat="41.4856422" lon="14.5918808"><ele>619.5</ele><time>2026-04-26T16:14:51.006Z</time></trkpt><trkpt lat="41.4857863" lon="14.5921308"><ele>620.0</ele><time>2026-04-26T16:14:52.006Z</time></trkpt><trkpt lat="41.4859468" lon="14.5923968"><ele>620.0</ele><time>2026-04-26T16:14:53.006Z</time></trkpt><trkpt lat="41.486134" lon="14.5926971"><ele>620.0</ele><time>2026-04-26T16:14:54.006Z</time></trkpt><trkpt lat="41.4863414" lon="14.5930583"><ele>618.5</ele><time>2026-04-26T16:14:55.007Z</time></trkpt><trkpt lat="41.4865661" lon="14.5934601"><ele>617.0</ele><time>2026-04-26T16:14:56.006Z</time></trkpt><trkpt lat="41.4867957" lon="14.5938878"><ele>617.0</ele><time>2026-04-26T16:14:57.006Z</time></trkpt><trkpt lat="41.4870575" lon="14.5943367"><ele>617.0</ele><time>2026-04-26T16:14:58.006Z</time></trkpt><trkpt lat="41.4873222" lon="14.594793"><ele>620.0</ele><time>2026-04-26T16:14:59.006Z</time></trkpt><trkpt lat="41.4875959" lon="14.595281"><ele>617.0</ele><time>2026-04-26T16:15:00.006Z</time></trkpt><trkpt lat="41.4881243" lon="14.5962009"><ele>617.0</ele><time>2026-04-26T16:15:02.006Z</time></trkpt><trkpt lat="41.4883795" lon="14.5966457"><ele>617.0</ele><time>2026-04-26T16:15:03.006Z</time></trkpt><trkpt lat="41.4886279" lon="14.597086"><ele>621.5</ele><time>2026-04-26T16:15:04.006Z</time></trkpt><trkpt lat="41.4888649" lon="14.5974921"><ele>626.0</ele><time>2026-04-26T16:15:05.007Z</time></trkpt><trkpt lat="41.4890869" lon="14.5978921"><ele>627.5</ele><time>2026-04-26T16:15:06.006Z</time></trkpt><trkpt lat="41.4893163" lon="14.5982881"><ele>629.0</ele><time>2026-04-26T16:15:07.006Z</time></trkpt><trkpt lat="41.4895423" lon="14.5986616"><ele>634.0</ele><time>2026-04-26T16:15:08.006Z</time></trkpt><trkpt lat="41.4897554" lon="14.5990314"><ele>639.0</ele><time>2026-04-26T16:15:09.006Z</time></trkpt><trkpt lat="41.4899608" lon="14.5993792"><ele>640.0</ele><time>2026-04-26T16:15:10.007Z</time></trkpt><trkpt lat="41.4901599" lon="14.5997238"><ele>641.0</ele><time>2026-04-26T16:15:11.006Z</time></trkpt><trkpt lat="41.4903638" lon="14.6000752"><ele>646.0</ele><time>2026-04-26T16:15:12.006Z</time></trkpt><trkpt lat="41.4905806" lon="14.6004606"><ele>651.0</ele><time>2026-04-26T16:15:13.007Z</time></trkpt><trkpt lat="41.4908007" lon="14.6008537"><ele>653.0</ele><time>2026-04-26T16:15:14.006Z</time></trkpt><trkpt lat="41.4910263" lon="14.6012425"><ele>655.0</ele><time>2026-04-26T16:15:15.006Z</time></trkpt><trkpt lat="41.4912492" lon="14.6016331"><ele>654.5</ele><time>2026-04-26T16:15:16.006Z</time></trkpt><trkpt lat="41.4914492" lon="14.6020005"><ele>654.0</ele><time>2026-04-26T16:15:17.006Z</time></trkpt><trkpt lat="41.4916512" lon="14.6023511"><ele>654.0</ele><time>2026-04-26T16:15:18.007Z</time></trkpt><trkpt lat="41.4918626" lon="14.6027122"><ele>654.0</ele><time>2026-04-26T16:15:19.006Z</time></trkpt><trkpt lat="41.4920753" lon="14.6030771"><ele>656.0</ele><time>2026-04-26T16:15:20.006Z</time></trkpt><trkpt lat="41.4922694" lon="14.6034149"><ele>658.0</ele><time>2026-04-26T16:15:21.006Z</time></trkpt><trkpt lat="41.4924523" lon="14.6037246"><ele>660.0</ele><time>2026-04-26T16:15:22.006Z</time></trkpt><trkpt lat="41.4926248" lon="14.6040129"><ele>662.0</ele><time>2026-04-26T16:15:23.006Z</time></trkpt><trkpt lat="41.4927717" lon="14.6042797"><ele>662.3333333333333</ele><time>2026-04-26T16:15:24.006Z</time></trkpt><trkpt lat="41.4929048" lon="14.6045358"><ele>662.6666666666666</ele><time>2026-04-26T16:15:25.006Z</time></trkpt><trkpt lat="41.4930187" lon="14.6047795"><ele>663.0</ele><time>2026-04-26T16:15:26.006Z</time></trkpt><trkpt lat="41.4931175" lon="14.6050235"><ele>663.0</ele><time>2026-04-26T16:15:27.007Z</time></trkpt><trkpt lat="41.493207" lon="14.6052825"><ele>663.0</ele><time>2026-04-26T16:15:28.006Z</time></trkpt><trkpt lat="41.4932872" lon="14.6055689"><ele>663.0</ele><time>2026-04-26T16:15:29.006Z</time></trkpt><trkpt lat="41.4933604" lon="14.6058935"><ele>662.0</ele><time>2026-04-26T16:15:30.006Z</time></trkpt><trkpt lat="41.49343" lon="14.6062495"><ele>661.0</ele><time>2026-04-26T16:15:31.006Z</time></trkpt><trkpt lat="41.4935045" lon="14.6066286"><ele>660.0</ele><time>2026-04-26T16:15:32.006Z</time></trkpt><trkpt lat="41.4935936" lon="14.6070423"><ele>659.0</ele><time>2026-04-26T16:15:33.006Z</time></trkpt><trkpt lat="41.4936799" lon="14.607467"><ele>661.0</ele><time>2026-04-26T16:15:34.006Z</time></trkpt><trkpt lat="41.4937463" lon="14.6078622"><ele>663.0</ele><time>2026-04-26T16:15:35.006Z</time></trkpt><trkpt lat="41.4938144" lon="14.6082234"><ele>660.5</ele><time>2026-04-26T16:15:36.006Z</time></trkpt><trkpt lat="41.4938786" lon="14.6085574"><ele>658.0</ele><time>2026-04-26T16:15:37.006Z</time></trkpt><trkpt lat="41.4939452" lon="14.6088696"><ele>658.0</ele><time>2026-04-26T16:15:38.006Z</time></trkpt><trkpt lat="41.4940393" lon="14.609141"><ele>658.0</ele><time>2026-04-26T16:15:39.006Z</time></trkpt><trkpt lat="41.4941565" lon="14.6093877"><ele>658.0</ele><time>2026-04-26T16:15:40.006Z</time></trkpt><trkpt lat="41.4942913" lon="14.6095963"><ele>659.0</ele><time>2026-04-26T16:15:41.006Z</time></trkpt><trkpt lat="41.49445" lon="14.6097509"><ele>660.0</ele><time>2026-04-26T16:15:42.006Z</time></trkpt><trkpt lat="41.4946432" lon="14.6098596"><ele>661.0</ele><time>2026-04-26T16:15:43.006Z</time></trkpt><trkpt lat="41.494837" lon="14.6099218"><ele>661.3333333333334</ele><time>2026-04-26T16:15:44.006Z</time></trkpt><trkpt lat="41.4950399" lon="14.6099223"><ele>661.6666666666666</ele><time>2026-04-26T16:15:45.007Z</time></trkpt><trkpt lat="41.495261" lon="14.6098905"><ele>662.0</ele><time>2026-04-26T16:15:46.006Z</time></trkpt><trkpt lat="41.4955146" lon="14.6098028"><ele>657.0</ele><time>2026-04-26T16:15:47.006Z</time></trkpt><trkpt lat="41.4958105" lon="14.6096865"><ele>652.0</ele><time>2026-04-26T16:15:48.006Z</time></trkpt><trkpt lat="41.4961198" lon="14.6095742"><ele>654.5</ele><time>2026-04-26T16:15:49.006Z</time></trkpt><trkpt lat="41.4964402" lon="14.6094483"><ele>657.0</ele><time>2026-04-26T16:15:50.006Z</time></trkpt><trkpt lat="41.4967689" lon="14.6093292"><ele>662.5</ele><time>2026-04-26T16:15:51.006Z</time></trkpt><trkpt lat="41.4971059" lon="14.6092125"><ele>668.0</ele><time>2026-04-26T16:15:52.006Z</time></trkpt><trkpt lat="41.4974555" lon="14.6090906"><ele>668.0</ele><time>2026-04-26T16:15:53.006Z</time></trkpt><trkpt lat="41.4978133" lon="14.6089656"><ele>668.0</ele><time>2026-04-26T16:15:54.006Z</time></trkpt><trkpt lat="41.4981772" lon="14.6088455"><ele>672.0</ele><time>2026-04-26T16:15:55.006Z</time></trkpt><trkpt lat="41.4985364" lon="14.6087276"><ele>676.0</ele><time>2026-04-26T16:15:56.006Z</time></trkpt><trkpt lat="41.4988749" lon="14.6086098"><ele>676.0</ele><time>2026-04-26T16:15:57.006Z</time></trkpt><trkpt lat="41.4992017" lon="14.60849"><ele>676.0</ele><time>2026-04-26T16:15:58.006Z</time></trkpt><trkpt lat="41.4994906" lon="14.608317"><ele>677.5</ele><time>2026-04-26T16:15:59.006Z</time></trkpt><trkpt lat="41.499791" lon="14.6082103"><ele>679.0</ele><time>2026-04-26T16:16:00.006Z</time></trkpt><trkpt lat="41.5000864" lon="14.6081046"><ele>679.0</ele><time>2026-04-26T16:16:01.007Z</time></trkpt><trkpt lat="41.5003662" lon="14.6079971"><ele>679.0</ele><time>2026-04-26T16:16:02.006Z</time></trkpt><trkpt lat="41.5006285" lon="14.607896"><ele>669.5</ele><time>2026-04-26T16:16:03.006Z</time></trkpt><trkpt lat="41.5008903" lon="14.6078019"><ele>660.0</ele><time>2026-04-26T16:16:04.006Z</time></trkpt><trkpt lat="41.5011336" lon="14.607709"><ele>668.0</ele><time>2026-04-26T16:16:05.007Z</time></trkpt><trkpt lat="41.5013633" lon="14.6076267"><ele>676.0</ele><time>2026-04-26T16:16:06.006Z</time></trkpt><trkpt lat="41.501583" lon="14.6075484"><ele>676.0</ele><time>2026-04-26T16:16:07.006Z</time></trkpt><trkpt lat="41.5017909" lon="14.6074702"><ele>676.0</ele><time>2026-04-26T16:16:08.007Z</time></trkpt><trkpt lat="41.5019923" lon="14.6073937"><ele>676.0</ele><time>2026-04-26T16:16:09.006Z</time></trkpt><trkpt lat="41.5021855" lon="14.6073223"><ele>678.0</ele><time>2026-04-26T16:16:10.006Z</time></trkpt><trkpt lat="41.5023714" lon="14.6072572"><ele>680.0</ele><time>2026-04-26T16:16:11.006Z</time></trkpt><trkpt lat="41.5025551" lon="14.6072017"><ele>682.0</ele><time>2026-04-26T16:16:12.006Z</time></trkpt><trkpt lat="41.5027353" lon="14.6071499"><ele>682.0</ele><time>2026-04-26T16:16:13.006Z</time></trkpt><trkpt lat="41.5029101" lon="14.6070826"><ele>682.0</ele><time>2026-04-26T16:16:14.006Z</time></trkpt><trkpt lat="41.5030829" lon="14.6070217"><ele>682.0</ele><time>2026-04-26T16:16:15.006Z</time></trkpt><trkpt lat="41.5032557" lon="14.6069457"><ele>683.0</ele><time>2026-04-26T16:16:16.006Z</time></trkpt><trkpt lat="41.5034393" lon="14.6068793"><ele>684.0</ele><time>2026-04-26T16:16:17.006Z</time></trkpt><trkpt lat="41.5036294" lon="14.6068144"><ele>685.0</ele><time>2026-04-26T16:16:18.006Z</time></trkpt><trkpt lat="41.5038267" lon="14.6067496"><ele>685.0</ele><time>2026-04-26T16:16:19.006Z</time></trkpt><trkpt lat="41.5040344" lon="14.6066893"><ele>685.0</ele><time>2026-04-26T16:16:20.006Z</time></trkpt><trkpt lat="41.5042503" lon="14.6066501"><ele>685.0</ele><time>2026-04-26T16:16:21.006Z</time></trkpt><trkpt lat="41.5044615" lon="14.606628"><ele>685.0</ele><time>2026-04-26T16:16:22.006Z</time></trkpt><trkpt lat="41.5046667" lon="14.6066429"><ele>685.0</ele><time>2026-04-26T16:16:23.006Z</time></trkpt><trkpt lat="41.5048865" lon="14.6066841"><ele>685.0</ele><time>2026-04-26T16:16:24.006Z</time></trkpt><trkpt lat="41.5051197" lon="14.6067431"><ele>685.0</ele><time>2026-04-26T16:16:25.006Z</time></trkpt><trkpt lat="41.5053783" lon="14.6068065"><ele>685.0</ele><time>2026-04-26T16:16:26.006Z</time></trkpt><trkpt lat="41.5056697" lon="14.6068742"><ele>685.0</ele><time>2026-04-26T16:16:27.006Z</time></trkpt><trkpt lat="41.5059934" lon="14.606954"><ele>685.0</ele><time>2026-04-26T16:16:28.007Z</time></trkpt><trkpt lat="41.506341" lon="14.6070445"><ele>692.0</ele><time>2026-04-26T16:16:29.006Z</time></trkpt><trkpt lat="41.5067323" lon="14.6071953"><ele>699.0</ele><time>2026-04-26T16:16:30.007Z</time></trkpt><trkpt lat="41.5070946" lon="14.6073069"><ele>699.0</ele><time>2026-04-26T16:16:31.006Z</time></trkpt><trkpt lat="41.507454" lon="14.6073931"><ele>699.0</ele><time>2026-04-26T16:16:32.006Z</time></trkpt><trkpt lat="41.5078063" lon="14.6074998"><ele>702.5</ele><time>2026-04-26T16:16:33.006Z</time></trkpt><trkpt lat="41.5081499" lon="14.6076005"><ele>706.0</ele><time>2026-04-26T16:16:34.006Z</time></trkpt><trkpt lat="41.5084869" lon="14.6076834"><ele>705.5</ele><time>2026-04-26T16:16:35.006Z</time></trkpt><trkpt lat="41.5088094" lon="14.6077436"><ele>705.0</ele><time>2026-04-26T16:16:36.006Z</time></trkpt><trkpt lat="41.5091283" lon="14.6077898"><ele>705.0</ele><time>2026-04-26T16:16:37.006Z</time></trkpt><trkpt lat="41.5094338" lon="14.6078253"><ele>705.0</ele><time>2026-04-26T16:16:38.007Z</time></trkpt><trkpt lat="41.5097185" lon="14.6078617"><ele>713.5</ele><time>2026-04-26T16:16:39.006Z</time></trkpt><trkpt lat="41.5099802" lon="14.6078969"><ele>722.0</ele><time>2026-04-26T16:16:40.006Z</time></trkpt><trkpt lat="41.510236" lon="14.6079294"><ele>722.0</ele><time>2026-04-26T16:16:41.006Z</time></trkpt><trkpt lat="41.5104804" lon="14.6079653"><ele>722.0</ele><time>2026-04-26T16:16:42.006Z</time></trkpt><trkpt lat="41.5107129" lon="14.6079937"><ele>722.0</ele><time>2026-04-26T16:16:43.006Z</time></trkpt><trkpt lat="41.5109299" lon="14.6080176"><ele>722.0</ele><time>2026-04-26T16:16:44.006Z</time></trkpt><trkpt lat="41.5111481" lon="14.608044"><ele>722.0</ele><time>2026-04-26T16:16:45.006Z</time></trkpt><trkpt lat="41.511361" lon="14.6080743"><ele>722.6666666666666</ele><time>2026-04-26T16:16:46.006Z</time></trkpt><trkpt lat="41.5115681" lon="14.6080942"><ele>723.3333333333334</ele><time>2026-04-26T16:16:47.006Z</time></trkpt><trkpt lat="41.5117611" lon="14.6081207"><ele>724.0</ele><time>2026-04-26T16:16:48.006Z</time></trkpt><trkpt lat="41.5119587" lon="14.6081502"><ele>727.6666666666667</ele><time>2026-04-26T16:16:49.006Z</time></trkpt><trkpt lat="41.5121645" lon="14.6081658"><ele>731.3333333333334</ele><time>2026-04-26T16:16:50.006Z</time></trkpt><trkpt lat="41.5123677" lon="14.6081872"><ele>735.0</ele><time>2026-04-26T16:16:51.006Z</time></trkpt><trkpt lat="41.512548" lon="14.6082169"><ele>735.0</ele><time>2026-04-26T16:16:52.006Z</time></trkpt><trkpt lat="41.5127265" lon="14.6082416"><ele>735.0</ele><time>2026-04-26T16:16:53.006Z</time></trkpt><trkpt lat="41.5129005" lon="14.6082733"><ele>735.0</ele><time>2026-04-26T16:16:54.006Z</time></trkpt><trkpt lat="41.5130818" lon="14.6083164"><ele>737.3333333333334</ele><time>2026-04-26T16:16:55.006Z</time></trkpt><trkpt lat="41.513263" lon="14.6083722"><ele>739.6666666666667</ele><time>2026-04-26T16:16:56.006Z</time></trkpt><trkpt lat="41.5134312" lon="14.6084443"><ele>742.0</ele><time>2026-04-26T16:16:57.006Z</time></trkpt><trkpt lat="41.5136097" lon="14.6085364"><ele>745.3333333333334</ele><time>2026-04-26T16:16:58.006Z</time></trkpt><trkpt lat="41.5137753" lon="14.608633"><ele>748.6666666666666</ele><time>2026-04-26T16:16:59.007Z</time></trkpt><trkpt lat="41.513946" lon="14.6087397"><ele>752.0</ele><time>2026-04-26T16:17:00.006Z</time></trkpt><trkpt lat="41.5141162" lon="14.6088606"><ele>761.0</ele><time>2026-04-26T16:17:01.006Z</time></trkpt><trkpt lat="41.5175725" lon="14.6112448"><ele>761.0</ele><time>2026-04-26T16:17:22.006Z</time></trkpt><trkpt lat="41.5177474" lon="14.6113443"><ele>761.0</ele><time>2026-04-26T16:17:23.006Z</time></trkpt><trkpt lat="41.5179234" lon="14.6114648"><ele>761.0</ele><time>2026-04-26T16:17:24.006Z</time></trkpt><trkpt lat="41.5180945" lon="14.6115682"><ele>759.3333333333333</ele><time>2026-04-26T16:17:25.006Z</time></trkpt><trkpt lat="41.5182678" lon="14.6116771"><ele>757.6666666666666</ele><time>2026-04-26T16:17:26.006Z</time></trkpt><trkpt lat="41.5184485" lon="14.6117851"><ele>756.0</ele><time>2026-04-26T16:17:27.006Z</time></trkpt><trkpt lat="41.5186611" lon="14.6119235"><ele>758.0</ele><time>2026-04-26T16:17:28.006Z</time></trkpt><trkpt lat="41.5189006" lon="14.6120733"><ele>760.0</ele><time>2026-04-26T16:17:29.006Z</time></trkpt><trkpt lat="41.5191507" lon="14.612242"><ele>760.0</ele><time>2026-04-26T16:17:30.006Z</time></trkpt><trkpt lat="41.5194159" lon="14.6123922"><ele>760.0</ele><time>2026-04-26T16:17:31.006Z</time></trkpt><trkpt lat="41.519703" lon="14.6125256"><ele>759.0</ele><time>2026-04-26T16:17:32.006Z</time></trkpt><trkpt lat="41.5200021" lon="14.6126501"><ele>758.0</ele><time>2026-04-26T16:17:33.006Z</time></trkpt><trkpt lat="41.5203397" lon="14.6127729"><ele>754.0</ele><time>2026-04-26T16:17:34.006Z</time></trkpt><trkpt lat="41.5207082" lon="14.61291"><ele>750.0</ele><time>2026-04-26T16:17:35.006Z</time></trkpt><trkpt lat="41.5210923" lon="14.6130647"><ele>750.0</ele><time>2026-04-26T16:17:36.006Z</time></trkpt><trkpt lat="41.5215" lon="14.6132081"><ele>750.0</ele><time>2026-04-26T16:17:37.006Z</time></trkpt><trkpt lat="41.5219084" lon="14.6133651"><ele>751.0</ele><time>2026-04-26T16:17:38.006Z</time></trkpt><trkpt lat="41.5222943" lon="14.6135167"><ele>752.0</ele><time>2026-04-26T16:17:39.007Z</time></trkpt><trkpt lat="41.5226481" lon="14.6136482"><ele>751.0</ele><time>2026-04-26T16:17:40.006Z</time></trkpt><trkpt lat="41.5229771" lon="14.613766"><ele>750.0</ele><time>2026-04-26T16:17:41.007Z</time></trkpt><trkpt lat="41.5232907" lon="14.6138919"><ele>750.0</ele><time>2026-04-26T16:17:42.006Z</time></trkpt><trkpt lat="41.5235962" lon="14.6139973"><ele>750.0</ele><time>2026-04-26T16:17:43.007Z</time></trkpt><trkpt lat="41.5238937" lon="14.6140928"><ele>756.0</ele><time>2026-04-26T16:17:44.007Z</time></trkpt><trkpt lat="41.5241926" lon="14.6141665"><ele>762.0</ele><time>2026-04-26T16:17:45.006Z</time></trkpt><trkpt lat="41.5245021" lon="14.6141994"><ele>765.0</ele><time>2026-04-26T16:17:46.006Z</time></trkpt><trkpt lat="41.5248252" lon="14.6142032"><ele>768.0</ele><time>2026-04-26T16:17:47.006Z</time></trkpt><trkpt lat="41.5251691" lon="14.6141835"><ele>765.0</ele><time>2026-04-26T16:17:48.006Z</time></trkpt><trkpt lat="41.5255097" lon="14.6141379"><ele>762.0</ele><time>2026-04-26T16:17:49.006Z</time></trkpt><trkpt lat="41.5258261" lon="14.6140942"><ele>762.0</ele><time>2026-04-26T16:17:50.006Z</time></trkpt><trkpt lat="41.5261186" lon="14.6140618"><ele>762.0</ele><time>2026-04-26T16:17:51.013Z</time></trkpt><trkpt lat="41.5264016" lon="14.6140274"><ele>759.0</ele><time>2026-04-26T16:17:52.013Z</time></trkpt><trkpt lat="41.5266733" lon="14.6139897"><ele>756.0</ele><time>2026-04-26T16:17:53.013Z</time></trkpt><trkpt lat="41.5269303" lon="14.6139541"><ele>760.0</ele><time>2026-04-26T16:17:54.013Z</time></trkpt><trkpt lat="41.5271771" lon="14.6139207"><ele>764.0</ele><time>2026-04-26T16:17:55.013Z</time></trkpt><trkpt lat="41.5274179" lon="14.6138902"><ele>764.0</ele><time>2026-04-26T16:17:56.013Z</time></trkpt><trkpt lat="41.5276628" lon="14.6138615"><ele>764.0</ele><time>2026-04-26T16:17:57.013Z</time></trkpt><trkpt lat="41.5279031" lon="14.6138291"><ele>758.0</ele><time>2026-04-26T16:17:58.013Z</time></trkpt><trkpt lat="41.5293952" lon="14.6136791"><ele>757.5</ele><time>2026-04-26T16:18:03.013Z</time></trkpt><trkpt lat="41.5297312" lon="14.6136215"><ele>757.0</ele><time>2026-04-26T16:18:04.014Z</time></trkpt><trkpt lat="41.5300563" lon="14.6136113"><ele>757.0</ele><time>2026-04-26T16:18:05.013Z</time></trkpt><trkpt lat="41.5303754" lon="14.6135933"><ele>757.0</ele><time>2026-04-26T16:18:06.014Z</time></trkpt><trkpt lat="41.5306778" lon="14.6136296"><ele>753.5</ele><time>2026-04-26T16:18:07.013Z</time></trkpt><trkpt lat="41.5309761" lon="14.6136806"><ele>750.0</ele><time>2026-04-26T16:18:08.013Z</time></trkpt><trkpt lat="41.5312796" lon="14.6137634"><ele>748.5</ele><time>2026-04-26T16:18:09.013Z</time></trkpt><trkpt lat="41.5315837" lon="14.6138639"><ele>747.0</ele><time>2026-04-26T16:18:10.013Z</time></trkpt><trkpt lat="41.5318877" lon="14.6139555"><ele>744.0</ele><time>2026-04-26T16:18:11.013Z</time></trkpt><trkpt lat="41.5321814" lon="14.6140413"><ele>741.0</ele><time>2026-04-26T16:18:12.013Z</time></trkpt><trkpt lat="41.5324587" lon="14.6141229"><ele>741.0</ele><time>2026-04-26T16:18:13.013Z</time></trkpt><trkpt lat="41.532716" lon="14.6141938"><ele>741.0</ele><time>2026-04-26T16:18:14.013Z</time></trkpt><trkpt lat="41.5329597" lon="14.6142693"><ele>739.5</ele><time>2026-04-26T16:18:15.013Z</time></trkpt><trkpt lat="41.5332055" lon="14.6143404"><ele>738.0</ele><time>2026-04-26T16:18:16.014Z</time></trkpt><trkpt lat="41.5334468" lon="14.6144117"><ele>738.0</ele><time>2026-04-26T16:18:17.013Z</time></trkpt><trkpt lat="41.5336877" lon="14.6144811"><ele>738.0</ele><time>2026-04-26T16:18:18.013Z</time></trkpt><trkpt lat="41.5339318" lon="14.6145577"><ele>731.5</ele><time>2026-04-26T16:18:19.013Z</time></trkpt><trkpt lat="41.534192" lon="14.6146225"><ele>725.0</ele><time>2026-04-26T16:18:20.013Z</time></trkpt><trkpt lat="41.5344875" lon="14.6147214"><ele>727.0</ele><time>2026-04-26T16:18:21.014Z</time></trkpt><trkpt lat="41.5347999" lon="14.6148206"><ele>729.0</ele><time>2026-04-26T16:18:22.013Z</time></trkpt><trkpt lat="41.5351048" lon="14.6149241"><ele>729.0</ele><time>2026-04-26T16:18:23.013Z</time></trkpt><trkpt lat="41.5353857" lon="14.6150193"><ele>729.0</ele><time>2026-04-26T16:18:24.013Z</time></trkpt><trkpt lat="41.5356591" lon="14.6151085"><ele>731.5</ele><time>2026-04-26T16:18:25.013Z</time></trkpt><trkpt lat="41.5359319" lon="14.615204"><ele>734.0</ele><time>2026-04-26T16:18:26.014Z</time></trkpt><trkpt lat="41.5361972" lon="14.6153162"><ele>734.0</ele><time>2026-04-26T16:18:27.013Z</time></trkpt><trkpt lat="41.5364482" lon="14.6154545"><ele>734.0</ele><time>2026-04-26T16:18:28.013Z</time></trkpt><trkpt lat="41.5366777" lon="14.6155951"><ele>734.0</ele><time>2026-04-26T16:18:29.014Z</time></trkpt><trkpt lat="41.5368726" lon="14.615732"><ele>734.0</ele><time>2026-04-26T16:18:30.013Z</time></trkpt><trkpt lat="41.5370467" lon="14.6158748"><ele>734.0</ele><time>2026-04-26T16:18:31.013Z</time></trkpt><trkpt lat="41.5372094" lon="14.616023"><ele>736.0</ele><time>2026-04-26T16:18:32.013Z</time></trkpt><trkpt lat="41.5373847" lon="14.6161902"><ele>738.0</ele><time>2026-04-26T16:18:33.013Z</time></trkpt><trkpt lat="41.5375939" lon="14.6163997"><ele>738.0</ele><time>2026-04-26T16:18:34.013Z</time></trkpt><trkpt lat="41.5378166" lon="14.6166559"><ele>738.0</ele><time>2026-04-26T16:18:35.013Z</time></trkpt><trkpt lat="41.5380545" lon="14.6169279"><ele>739.5</ele><time>2026-04-26T16:18:36.013Z</time></trkpt><trkpt lat="41.5382972" lon="14.6172086"><ele>741.0</ele><time>2026-04-26T16:18:37.013Z</time></trkpt><trkpt lat="41.5385469" lon="14.6174899"><ele>743.5</ele><time>2026-04-26T16:18:38.013Z</time></trkpt><trkpt lat="41.5387883" lon="14.6177737"><ele>746.0</ele><time>2026-04-26T16:18:39.013Z</time></trkpt><trkpt lat="41.5390298" lon="14.6180455"><ele>746.0</ele><time>2026-04-26T16:18:40.013Z</time></trkpt><trkpt lat="41.539267" lon="14.6183091"><ele>746.0</ele><time>2026-04-26T16:18:41.013Z</time></trkpt><trkpt lat="41.5394942" lon="14.6185649"><ele>746.5</ele><time>2026-04-26T16:18:42.013Z</time></trkpt><trkpt lat="41.5397134" lon="14.6188115"><ele>747.0</ele><time>2026-04-26T16:18:43.013Z</time></trkpt><trkpt lat="41.5399316" lon="14.6190532"><ele>747.0</ele><time>2026-04-26T16:18:44.013Z</time></trkpt><trkpt lat="41.5401363" lon="14.6192868"><ele>747.0</ele><time>2026-04-26T16:18:45.013Z</time></trkpt><trkpt lat="41.5403403" lon="14.6195181"><ele>751.0</ele><time>2026-04-26T16:18:46.013Z</time></trkpt><trkpt lat="41.5405362" lon="14.6197355"><ele>755.0</ele><time>2026-04-26T16:18:47.013Z</time></trkpt><trkpt lat="41.5407306" lon="14.6199532"><ele>755.0</ele><time>2026-04-26T16:18:48.013Z</time></trkpt><trkpt lat="41.5409266" lon="14.6201732"><ele>755.0</ele><time>2026-04-26T16:18:49.013Z</time></trkpt><trkpt lat="41.541131" lon="14.6203984"><ele>759.0</ele><time>2026-04-26T16:18:50.013Z</time></trkpt><trkpt lat="41.5413448" lon="14.6206355"><ele>763.0</ele><time>2026-04-26T16:18:51.013Z</time></trkpt><trkpt lat="41.5415474" lon="14.6208788"><ele>763.0</ele><time>2026-04-26T16:18:52.013Z</time></trkpt><trkpt lat="41.5417538" lon="14.6211157"><ele>763.0</ele><time>2026-04-26T16:18:53.013Z</time></trkpt><trkpt lat="41.541959" lon="14.621347"><ele>765.5</ele><time>2026-04-26T16:18:54.013Z</time></trkpt><trkpt lat="41.5421647" lon="14.6215787"><ele>768.0</ele><time>2026-04-26T16:18:55.013Z</time></trkpt><trkpt lat="41.5423804" lon="14.6218107"><ele>764.0</ele><time>2026-04-26T16:18:56.013Z</time></trkpt><trkpt lat="41.5426075" lon="14.6220513"><ele>760.0</ele><time>2026-04-26T16:18:57.013Z</time></trkpt><trkpt lat="41.5428234" lon="14.6222949"><ele>764.0</ele><time>2026-04-26T16:18:58.013Z</time></trkpt><trkpt lat="41.5430297" lon="14.6225266"><ele>768.0</ele><time>2026-04-26T16:18:59.013Z</time></trkpt><trkpt lat="41.5432182" lon="14.6227456"><ele>766.5</ele><time>2026-04-26T16:19:00.013Z</time></trkpt><trkpt lat="41.5433963" lon="14.6229552"><ele>765.0</ele><time>2026-04-26T16:19:01.013Z</time></trkpt><trkpt lat="41.5435605" lon="14.6231534"><ele>769.0</ele><time>2026-04-26T16:19:02.013Z</time></trkpt><trkpt lat="41.5437214" lon="14.6233432"><ele>773.0</ele><time>2026-04-26T16:19:03.013Z</time></trkpt><trkpt lat="41.5438683" lon="14.6235304"><ele>777.0</ele><time>2026-04-26T16:19:04.013Z</time></trkpt><trkpt lat="41.543996" lon="14.6237141"><ele>777.0</ele><time>2026-04-26T16:19:05.013Z</time></trkpt><trkpt lat="41.5441146" lon="14.6239104"><ele>777.0</ele><time>2026-04-26T16:19:06.013Z</time></trkpt><trkpt lat="41.5442334" lon="14.6241205"><ele>777.0</ele><time>2026-04-26T16:19:07.013Z</time></trkpt><trkpt lat="41.5443396" lon="14.6243368"><ele>775.3333333333333</ele><time>2026-04-26T16:19:08.013Z</time></trkpt><trkpt lat="41.5444395" lon="14.6245494"><ele>773.6666666666666</ele><time>2026-04-26T16:19:09.013Z</time></trkpt><trkpt lat="41.54453" lon="14.6247653"><ele>772.0</ele><time>2026-04-26T16:19:10.013Z</time></trkpt><trkpt lat="41.5446097" lon="14.6249848"><ele>775.3333333333333</ele><time>2026-04-26T16:19:11.013Z</time></trkpt><trkpt lat="41.544693" lon="14.6252109"><ele>778.6666666666667</ele><time>2026-04-26T16:19:12.013Z</time></trkpt><trkpt lat="41.5447779" lon="14.6254417"><ele>782.0</ele><time>2026-04-26T16:19:13.013Z</time></trkpt><trkpt lat="41.5448641" lon="14.6256742"><ele>782.0</ele><time>2026-04-26T16:19:14.013Z</time></trkpt><trkpt lat="41.5449503" lon="14.6258968"><ele>782.0</ele><time>2026-04-26T16:19:15.013Z</time></trkpt><trkpt lat="41.5450353" lon="14.6261204"><ele>782.0</ele><time>2026-04-26T16:19:16.013Z</time></trkpt><trkpt lat="41.5451157" lon="14.6263432"><ele>782.6666666666667</ele><time>2026-04-26T16:19:17.013Z</time></trkpt><trkpt lat="41.5451971" lon="14.6265691"><ele>783.3333333333333</ele><time>2026-04-26T16:19:18.013Z</time></trkpt><trkpt lat="41.5452776" lon="14.6267866"><ele>784.0</ele><time>2026-04-26T16:19:19.013Z</time></trkpt><trkpt lat="41.5453564" lon="14.6270142"><ele>786.3333333333333</ele><time>2026-04-26T16:19:20.013Z</time></trkpt><trkpt lat="41.5454359" lon="14.6272371"><ele>788.6666666666667</ele><time>2026-04-26T16:19:21.013Z</time></trkpt><trkpt lat="41.5455126" lon="14.6274504"><ele>791.0</ele><time>2026-04-26T16:19:22.013Z</time></trkpt><trkpt lat="41.5455869" lon="14.6276537"><ele>794.0</ele><time>2026-04-26T16:19:23.013Z</time></trkpt><trkpt lat="41.5456624" lon="14.6278602"><ele>797.0</ele><time>2026-04-26T16:19:24.013Z</time></trkpt><trkpt lat="41.5457355" lon="14.6280589"><ele>800.0</ele><time>2026-04-26T16:19:25.013Z</time></trkpt><trkpt lat="41.549058" lon="14.6370484"><ele>792.6666666666667</ele><time>2026-04-26T16:20:18.013Z</time></trkpt><trkpt lat="41.5491302" lon="14.6372624"><ele>785.3333333333333</ele><time>2026-04-26T16:20:19.013Z</time></trkpt><trkpt lat="41.5491869" lon="14.6374577"><ele>778.0</ele><time>2026-04-26T16:20:20.013Z</time></trkpt><trkpt lat="41.5492572" lon="14.6376454"><ele>777.25</ele><time>2026-04-26T16:20:21.013Z</time></trkpt><trkpt lat="41.5493146" lon="14.6378235"><ele>776.5</ele><time>2026-04-26T16:20:22.013Z</time></trkpt><trkpt lat="41.5493792" lon="14.6380067"><ele>775.75</ele><time>2026-04-26T16:20:23.013Z</time></trkpt><trkpt lat="41.5494431" lon="14.6381883"><ele>775.0</ele><time>2026-04-26T16:20:24.013Z</time></trkpt><trkpt lat="41.5495057" lon="14.638374"><ele>769.3333333333333</ele><time>2026-04-26T16:20:25.013Z</time></trkpt><trkpt lat="41.549576" lon="14.638561"><ele>763.6666666666666</ele><time>2026-04-26T16:20:26.013Z</time></trkpt><trkpt lat="41.5496499" lon="14.6387603"><ele>758.0</ele><time>2026-04-26T16:20:27.013Z</time></trkpt><trkpt lat="41.549722" lon="14.6389646"><ele>758.0</ele><time>2026-04-26T16:20:28.013Z</time></trkpt><trkpt lat="41.5498036" lon="14.6391738"><ele>758.0</ele><time>2026-04-26T16:20:29.013Z</time></trkpt><trkpt lat="41.5498817" lon="14.6393935"><ele>758.0</ele><time>2026-04-26T16:20:30.014Z</time></trkpt><trkpt lat="41.5499601" lon="14.6396124"><ele>760.3333333333333</ele><time>2026-04-26T16:20:31.013Z</time></trkpt><trkpt lat="41.5500435" lon="14.6398276"><ele>762.6666666666666</ele><time>2026-04-26T16:20:32.013Z</time></trkpt><trkpt lat="41.5501282" lon="14.6400492"><ele>765.0</ele><time>2026-04-26T16:20:33.013Z</time></trkpt><trkpt lat="41.5502008" lon="14.6402654"><ele>770.0</ele><time>2026-04-26T16:20:34.013Z</time></trkpt><trkpt lat="41.5502791" lon="14.6404699"><ele>775.0</ele><time>2026-04-26T16:20:35.013Z</time></trkpt><trkpt lat="41.5512452" lon="14.6431071"><ele>763.6666666666666</ele><time>2026-04-26T16:20:48.013Z</time></trkpt><trkpt lat="41.5513341" lon="14.6433283"><ele>752.3333333333333</ele><time>2026-04-26T16:20:49.013Z</time></trkpt><trkpt lat="41.5514023" lon="14.6435261"><ele>741.0</ele><time>2026-04-26T16:20:50.013Z</time></trkpt><trkpt lat="41.5514834" lon="14.6437394"><ele>741.0</ele><time>2026-04-26T16:20:51.013Z</time></trkpt><trkpt lat="41.5515594" lon="14.6439469"><ele>741.0</ele><time>2026-04-26T16:20:52.013Z</time></trkpt><trkpt lat="41.5516362" lon="14.6441506"><ele>741.0</ele><time>2026-04-26T16:20:53.013Z</time></trkpt><trkpt lat="41.5517143" lon="14.6443553"><ele>744.3333333333334</ele><time>2026-04-26T16:20:54.014Z</time></trkpt><trkpt lat="41.5517917" lon="14.6445703"><ele>747.6666666666667</ele><time>2026-04-26T16:20:55.013Z</time></trkpt><trkpt lat="41.5518723" lon="14.6447869"><ele>751.0</ele><time>2026-04-26T16:20:56.013Z</time></trkpt><trkpt lat="41.5519532" lon="14.6450032"><ele>751.0</ele><time>2026-04-26T16:20:57.013Z</time></trkpt><trkpt lat="41.5520389" lon="14.6452211"><ele>751.0</ele><time>2026-04-26T16:20:58.013Z</time></trkpt><trkpt lat="41.5521179" lon="14.645444"><ele>751.0</ele><time>2026-04-26T16:20:59.013Z</time></trkpt><trkpt lat="41.5521939" lon="14.6456671"><ele>748.3333333333334</ele><time>2026-04-26T16:21:00.013Z</time></trkpt><trkpt lat="41.5522763" lon="14.6458875"><ele>745.6666666666666</ele><time>2026-04-26T16:21:01.013Z</time></trkpt><trkpt lat="41.5523614" lon="14.646109"><ele>743.0</ele><time>2026-04-26T16:21:02.013Z</time></trkpt><trkpt lat="41.5524471" lon="14.6463287"><ele>743.0</ele><time>2026-04-26T16:21:03.013Z</time></trkpt><trkpt lat="41.5525237" lon="14.6465448"><ele>743.0</ele><time>2026-04-26T16:21:04.013Z</time></trkpt><trkpt lat="41.5525946" lon="14.6467451"><ele>743.0</ele><time>2026-04-26T16:21:05.013Z</time></trkpt><trkpt lat="41.5526646" lon="14.6469519"><ele>741.3333333333333</ele><time>2026-04-26T16:21:06.013Z</time></trkpt><trkpt lat="41.5527368" lon="14.6471586"><ele>739.6666666666666</ele><time>2026-04-26T16:21:07.013Z</time></trkpt><trkpt lat="41.5528059" lon="14.6473647"><ele>738.0</ele><time>2026-04-26T16:21:08.014Z</time></trkpt><trkpt lat="41.5528822" lon="14.6475629"><ele>734.6666666666666</ele><time>2026-04-26T16:21:09.013Z</time></trkpt><trkpt lat="41.5529532" lon="14.6477562"><ele>731.3333333333333</ele><time>2026-04-26T16:21:10.013Z</time></trkpt><trkpt lat="41.5530273" lon="14.6479521"><ele>728.0</ele><time>2026-04-26T16:21:11.013Z</time></trkpt><trkpt lat="41.553093" lon="14.6481437"><ele>728.0</ele><time>2026-04-26T16:21:12.014Z</time></trkpt><trkpt lat="41.5531567" lon="14.6483418"><ele>728.0</ele><time>2026-04-26T16:21:13.013Z</time></trkpt><trkpt lat="41.5532269" lon="14.6485441"><ele>728.0</ele><time>2026-04-26T16:21:14.013Z</time></trkpt><trkpt lat="41.5533014" lon="14.6487507"><ele>727.3333333333333</ele><time>2026-04-26T16:21:15.013Z</time></trkpt><trkpt lat="41.5533803" lon="14.6489647"><ele>726.6666666666666</ele><time>2026-04-26T16:21:16.013Z</time></trkpt><trkpt lat="41.553452" lon="14.6491782"><ele>726.0</ele><time>2026-04-26T16:21:17.013Z</time></trkpt><trkpt lat="41.5535296" lon="14.6493842"><ele>726.3333333333334</ele><time>2026-04-26T16:21:18.013Z</time></trkpt><trkpt lat="41.553605" lon="14.6495795"><ele>726.6666666666667</ele><time>2026-04-26T16:21:19.013Z</time></trkpt><trkpt lat="41.5536739" lon="14.6497676"><ele>727.0</ele><time>2026-04-26T16:21:20.013Z</time></trkpt><trkpt lat="41.5537415" lon="14.6499513"><ele>727.0</ele><time>2026-04-26T16:21:21.013Z</time></trkpt><trkpt lat="41.5538071" lon="14.6501309"><ele>727.0</ele><time>2026-04-26T16:21:22.013Z</time></trkpt><trkpt lat="41.5538694" lon="14.650293"><ele>727.0</ele><time>2026-04-26T16:21:23.013Z</time></trkpt><trkpt lat="41.5539269" lon="14.6504493"><ele>727.0</ele><time>2026-04-26T16:21:24.013Z</time></trkpt><trkpt lat="41.5539804" lon="14.6505934"><ele>725.2</ele><time>2026-04-26T16:21:25.013Z</time></trkpt><trkpt lat="41.5540298" lon="14.6507337"><ele>723.4000000000001</ele><time>2026-04-26T16:21:26.013Z</time></trkpt><trkpt lat="41.5540727" lon="14.6508698"><ele>721.5999999999999</ele><time>2026-04-26T16:21:27.013Z</time></trkpt><trkpt lat="41.5541088" lon="14.6510036"><ele>719.8</ele><time>2026-04-26T16:21:28.013Z</time></trkpt><trkpt lat="41.554138" lon="14.6511461"><ele>718.0</ele><time>2026-04-26T16:21:29.013Z</time></trkpt><trkpt lat="41.554165" lon="14.6512959"><ele>714.75</ele><time>2026-04-26T16:21:30.013Z</time></trkpt><trkpt lat="41.5541905" lon="14.6514521"><ele>711.5</ele><time>2026-04-26T16:21:31.013Z</time></trkpt><trkpt lat="41.5542129" lon="14.6516134"><ele>708.25</ele><time>2026-04-26T16:21:32.013Z</time></trkpt><trkpt lat="41.5542328" lon="14.6517738"><ele>705.0</ele><time>2026-04-26T16:21:33.013Z</time></trkpt><trkpt lat="41.554251" lon="14.6519337"><ele>703.0</ele><time>2026-04-26T16:21:34.013Z</time></trkpt><trkpt lat="41.5542672" lon="14.6520928"><ele>701.0</ele><time>2026-04-26T16:21:35.013Z</time></trkpt><trkpt lat="41.5542834" lon="14.6522625"><ele>699.0</ele><time>2026-04-26T16:21:36.013Z</time></trkpt><trkpt lat="41.5543033" lon="14.6524525"><ele>697.0</ele><time>2026-04-26T16:21:37.013Z</time></trkpt><trkpt lat="41.5543246" lon="14.6526733"><ele>695.6666666666667</ele><time>2026-04-26T16:21:38.013Z</time></trkpt><trkpt lat="41.5543495" lon="14.6529063"><ele>694.3333333333334</ele><time>2026-04-26T16:21:39.013Z</time></trkpt><trkpt lat="41.5543788" lon="14.6531553"><ele>693.0</ele><time>2026-04-26T16:21:40.014Z</time></trkpt><trkpt lat="41.5544082" lon="14.6534245"><ele>691.3333333333334</ele><time>2026-04-26T16:21:41.013Z</time></trkpt><trkpt lat="41.55444" lon="14.6537004"><ele>689.6666666666667</ele><time>2026-04-26T16:21:42.013Z</time></trkpt><trkpt lat="41.5544686" lon="14.6539819"><ele>688.0</ele><time>2026-04-26T16:21:43.013Z</time></trkpt><trkpt lat="41.5545015" lon="14.6542723"><ele>689.0</ele><time>2026-04-26T16:21:44.013Z</time></trkpt><trkpt lat="41.554533" lon="14.6545614"><ele>690.0</ele><time>2026-04-26T16:21:45.013Z</time></trkpt><trkpt lat="41.5545672" lon="14.6548475"><ele>691.0</ele><time>2026-04-26T16:21:46.013Z</time></trkpt><trkpt lat="41.5546026" lon="14.6551394"><ele>695.6666666666667</ele><time>2026-04-26T16:21:47.013Z</time></trkpt><trkpt lat="41.5546405" lon="14.6554293"><ele>700.3333333333334</ele><time>2026-04-26T16:21:48.013Z</time></trkpt><trkpt lat="41.5546751" lon="14.6557176"><ele>705.0</ele><time>2026-04-26T16:21:49.013Z</time></trkpt><trkpt lat="41.5546964" lon="14.6559966"><ele>682.0</ele><time>2026-04-26T16:21:50.013Z</time></trkpt><trkpt lat="41.5548457" lon="14.6622126"><ele>682.0</ele><time>2026-04-26T16:22:10.014Z</time></trkpt><trkpt lat="41.5548475" lon="14.6625109"><ele>682.0</ele><time>2026-04-26T16:22:11.013Z</time></trkpt><trkpt lat="41.5548788" lon="14.6627945"><ele>682.0</ele><time>2026-04-26T16:22:12.013Z</time></trkpt><trkpt lat="41.5549074" lon="14.6630873"><ele>679.6666666666667</ele><time>2026-04-26T16:22:13.013Z</time></trkpt><trkpt lat="41.5549509" lon="14.6633805"><ele>677.3333333333334</ele><time>2026-04-26T16:22:14.013Z</time></trkpt><trkpt lat="41.5549996" lon="14.6636748"><ele>675.0</ele><time>2026-04-26T16:22:15.014Z</time></trkpt><trkpt lat="41.5550346" lon="14.6639437"><ele>673.6666666666666</ele><time>2026-04-26T16:22:16.013Z</time></trkpt><trkpt lat="41.5550642" lon="14.6641856"><ele>672.3333333333333</ele><time>2026-04-26T16:22:17.013Z</time></trkpt><trkpt lat="41.5550924" lon="14.6644263"><ele>671.0</ele><time>2026-04-26T16:22:18.013Z</time></trkpt><trkpt lat="41.5551237" lon="14.6646682"><ele>670.0</ele><time>2026-04-26T16:22:19.013Z</time></trkpt><trkpt lat="41.5551614" lon="14.664903"><ele>669.0</ele><time>2026-04-26T16:22:20.013Z</time></trkpt><trkpt lat="41.5552002" lon="14.6651386"><ele>668.0</ele><time>2026-04-26T16:22:21.013Z</time></trkpt><trkpt lat="41.5552465" lon="14.6653572"><ele>666.6666666666666</ele><time>2026-04-26T16:22:22.013Z</time></trkpt><trkpt lat="41.5552985" lon="14.6655623"><ele>665.3333333333334</ele><time>2026-04-26T16:22:23.013Z</time></trkpt><trkpt lat="41.5553593" lon="14.6657657"><ele>664.0</ele><time>2026-04-26T16:22:24.013Z</time></trkpt><trkpt lat="41.5554087" lon="14.6659639"><ele>662.5</ele><time>2026-04-26T16:22:25.013Z</time></trkpt><trkpt lat="41.5554603" lon="14.6661451"><ele>661.0</ele><time>2026-04-26T16:22:26.013Z</time></trkpt><trkpt lat="41.5555131" lon="14.6663283"><ele>659.5</ele><time>2026-04-26T16:22:27.013Z</time></trkpt><trkpt lat="41.5555634" lon="14.6665211"><ele>658.0</ele><time>2026-04-26T16:22:28.013Z</time></trkpt><trkpt lat="41.5556172" lon="14.6667121"><ele>658.0</ele><time>2026-04-26T16:22:29.013Z</time></trkpt><trkpt lat="41.5556659" lon="14.6668888"><ele>658.0</ele><time>2026-04-26T16:22:30.013Z</time></trkpt><trkpt lat="41.5557024" lon="14.667051"><ele>658.0</ele><time>2026-04-26T16:22:31.013Z</time></trkpt><trkpt lat="41.5557359" lon="14.6671997"><ele>658.0</ele><time>2026-04-26T16:22:32.013Z</time></trkpt><trkpt lat="41.5557714" lon="14.6673474"><ele>657.4</ele><time>2026-04-26T16:22:33.013Z</time></trkpt><trkpt lat="41.5557902" lon="14.6674953"><ele>656.8</ele><time>2026-04-26T16:22:34.013Z</time></trkpt><trkpt lat="41.5557946" lon="14.6676362"><ele>656.2</ele><time>2026-04-26T16:22:35.013Z</time></trkpt><trkpt lat="41.5557847" lon="14.6677759"><ele>655.6</ele><time>2026-04-26T16:22:36.013Z</time></trkpt><trkpt lat="41.5557693" lon="14.6679237"><ele>655.0</ele><time>2026-04-26T16:22:37.013Z</time></trkpt><trkpt lat="41.5557575" lon="14.6680934"><ele>654.0</ele><time>2026-04-26T16:22:38.013Z</time></trkpt><trkpt lat="41.5557451" lon="14.6682696"><ele>653.0</ele><time>2026-04-26T16:22:39.013Z</time></trkpt><trkpt lat="41.5557303" lon="14.6684244"><ele>652.0</ele><time>2026-04-26T16:22:40.013Z</time></trkpt><trkpt lat="41.5556975" lon="14.6685612"><ele>651.0</ele><time>2026-04-26T16:22:41.013Z</time></trkpt><trkpt lat="41.555638" lon="14.6686819"><ele>650.0</ele><time>2026-04-26T16:22:42.013Z</time></trkpt><trkpt lat="41.5555598" lon="14.6687968"><ele>649.0</ele><time>2026-04-26T16:22:43.013Z</time></trkpt><trkpt lat="41.555453" lon="14.6689096"><ele>648.0</ele><time>2026-04-26T16:22:44.013Z</time></trkpt><trkpt lat="41.5553307" lon="14.669008"><ele>647.0</ele><time>2026-04-26T16:22:45.013Z</time></trkpt><trkpt lat="41.5551868" lon="14.6691196"><ele>646.6666666666666</ele><time>2026-04-26T16:22:46.013Z</time></trkpt><trkpt lat="41.5550326" lon="14.6692386"><ele>646.3333333333334</ele><time>2026-04-26T16:22:47.013Z</time></trkpt><trkpt lat="41.5548694" lon="14.6693671"><ele>646.0</ele><time>2026-04-26T16:22:48.013Z</time></trkpt><trkpt lat="41.5546999" lon="14.6695095"><ele>645.0</ele><time>2026-04-26T16:22:49.013Z</time></trkpt><trkpt lat="41.5545243" lon="14.6696623"><ele>644.0</ele><time>2026-04-26T16:22:50.013Z</time></trkpt><trkpt lat="41.5543496" lon="14.6698081"><ele>643.0</ele><time>2026-04-26T16:22:51.013Z</time></trkpt><trkpt lat="41.554184" lon="14.6699623"><ele>643.0</ele><time>2026-04-26T16:22:52.013Z</time></trkpt><trkpt lat="41.5540069" lon="14.6701365"><ele>643.0</ele><time>2026-04-26T16:22:53.013Z</time></trkpt><trkpt lat="41.5538643" lon="14.6703238"><ele>643.0</ele><time>2026-04-26T16:22:54.013Z</time></trkpt><trkpt lat="41.5537332" lon="14.6705231"><ele>641.6666666666667</ele><time>2026-04-26T16:22:55.013Z</time></trkpt><trkpt lat="41.5536223" lon="14.6707362"><ele>640.3333333333334</ele><time>2026-04-26T16:22:56.013Z</time></trkpt><trkpt lat="41.5535229" lon="14.6709465"><ele>639.0</ele><time>2026-04-26T16:22:57.013Z</time></trkpt><trkpt lat="41.5534295" lon="14.6711517"><ele>637.0</ele><time>2026-04-26T16:22:58.013Z</time></trkpt><trkpt lat="41.5533294" lon="14.671339"><ele>635.0</ele><time>2026-04-26T16:22:59.013Z</time></trkpt><trkpt lat="41.5532188" lon="14.6715035"><ele>633.0</ele><time>2026-04-26T16:23:00.013Z</time></trkpt><trkpt lat="41.5530903" lon="14.671646"><ele>633.0</ele><time>2026-04-26T16:23:01.013Z</time></trkpt><trkpt lat="41.5529529" lon="14.6717485"><ele>633.0</ele><time>2026-04-26T16:23:02.013Z</time></trkpt><trkpt lat="41.5528204" lon="14.671817"><ele>633.0</ele><time>2026-04-26T16:23:03.013Z</time></trkpt><trkpt lat="41.5526977" lon="14.6718558"><ele>633.0</ele><time>2026-04-26T16:23:04.014Z</time></trkpt><trkpt lat="41.5525779" lon="14.6718617"><ele>633.25</ele><time>2026-04-26T16:23:05.013Z</time></trkpt><trkpt lat="41.5524645" lon="14.6718579"><ele>633.5</ele><time>2026-04-26T16:23:06.013Z</time></trkpt><trkpt lat="41.5523499" lon="14.6718582"><ele>633.75</ele><time>2026-04-26T16:23:07.013Z</time></trkpt><trkpt lat="41.5522258" lon="14.6718458"><ele>634.0</ele><time>2026-04-26T16:23:08.014Z</time></trkpt><trkpt lat="41.5520863" lon="14.6718255"><ele>635.5</ele><time>2026-04-26T16:23:09.013Z</time></trkpt><trkpt lat="41.551945" lon="14.6717837"><ele>637.0</ele><time>2026-04-26T16:23:10.013Z</time></trkpt><trkpt lat="41.551822" lon="14.6717133"><ele>638.5</ele><time>2026-04-26T16:23:11.013Z</time></trkpt><trkpt lat="41.5517127" lon="14.6716389"><ele>640.0</ele><time>2026-04-26T16:23:12.013Z</time></trkpt><trkpt lat="41.5516304" lon="14.6716174"><ele>640.0</ele><time>2026-04-26T16:23:13.013Z</time></trkpt><trkpt lat="41.5515467" lon="14.6716338"><ele>640.0</ele><time>2026-04-26T16:23:14.013Z</time></trkpt><trkpt lat="41.5514622" lon="14.6716795"><ele>640.0</ele><time>2026-04-26T16:23:15.014Z</time></trkpt><trkpt lat="41.5513552" lon="14.6717446"><ele>640.0</ele><time>2026-04-26T16:23:16.013Z</time></trkpt><trkpt lat="41.5512221" lon="14.671802"><ele>640.0</ele><time>2026-04-26T16:23:17.013Z</time></trkpt><trkpt lat="41.5510566" lon="14.6718307"><ele>642.3333333333334</ele><time>2026-04-26T16:23:18.013Z</time></trkpt><trkpt lat="41.5508774" lon="14.6718554"><ele>644.6666666666666</ele><time>2026-04-26T16:23:19.013Z</time></trkpt><trkpt lat="41.5506936" lon="14.6718694"><ele>647.0</ele><time>2026-04-26T16:23:20.013Z</time></trkpt><trkpt lat="41.5505267" lon="14.6718781"><ele>647.0</ele><time>2026-04-26T16:23:21.013Z</time></trkpt><trkpt lat="41.5503961" lon="14.6718815"><ele>647.0</ele><time>2026-04-26T16:23:22.013Z</time></trkpt><trkpt lat="41.5503011" lon="14.6718652"><ele>647.0</ele><time>2026-04-26T16:23:23.013Z</time></trkpt><trkpt lat="41.5502354" lon="14.6718616"><ele>647.0</ele><time>2026-04-26T16:23:24.013Z</time></trkpt><trkpt lat="41.5501202" lon="14.6719449"><ele>647.0</ele><time>2026-04-26T16:23:26.013Z</time></trkpt><trkpt lat="41.5500727" lon="14.6720173"><ele>646.2</ele><time>2026-04-26T16:23:27.013Z</time></trkpt><trkpt lat="41.5499955" lon="14.6721245"><ele>645.4000000000001</ele><time>2026-04-26T16:23:29.014Z</time></trkpt><trkpt lat="41.5499933" lon="14.6722592"><ele>644.5999999999999</ele><time>2026-04-26T16:23:31.014Z</time></trkpt><trkpt lat="41.5500203" lon="14.6724197"><ele>643.8</ele><time>2026-04-26T16:23:33.013Z</time></trkpt><trkpt lat="41.5500201" lon="14.6725067"><ele>643.0</ele><time>2026-04-26T16:23:34.013Z</time></trkpt><trkpt lat="41.5500086" lon="14.6725973"><ele>643.0</ele><time>2026-04-26T16:23:35.013Z</time></trkpt><trkpt lat="41.5499836" lon="14.6726907"><ele>643.0</ele><time>2026-04-26T16:23:36.013Z</time></trkpt><trkpt lat="41.5499465" lon="14.6727689"><ele>643.0</ele><time>2026-04-26T16:23:37.013Z</time></trkpt><trkpt lat="41.5499086" lon="14.6728509"><ele>643.0</ele><time>2026-04-26T16:23:38.013Z</time></trkpt><trkpt lat="41.5498639" lon="14.6729214"><ele>643.0</ele><time>2026-04-26T16:23:39.013Z</time></trkpt><trkpt lat="41.5498226" lon="14.6729914"><ele>643.0</ele><time>2026-04-26T16:23:40.013Z</time></trkpt><trkpt lat="41.5497611" lon="14.6731258"><ele>634.0</ele><time>2026-04-26T16:23:42.013Z</time></trkpt><trkpt lat="41.5497315" lon="14.6732598"><ele>634.0</ele><time>2026-04-26T16:23:44.013Z</time></trkpt><trkpt lat="41.5497133" lon="14.6733463"><ele>634.0</ele><time>2026-04-26T16:23:46.013Z</time></trkpt><trkpt lat="41.5496432" lon="14.6733682"><ele>634.0</ele><time>2026-04-26T16:23:50.013Z</time></trkpt><trkpt lat="41.5496247" lon="14.6732859"><ele>634.0</ele><time>2026-04-26T16:23:54.013Z</time></trkpt></trkseg></trk></gpx>